<?xml version="1.0" encoding="UTF-8"?>
<gpx version="1.1" creator="https://www.youtrack.es" xsi:schemaLocation="http://www.topografix.com/GPX/1/1 http://www.topografix.com/GPX/1/1/gpx.xsd http://www.garmin.com/xmlschemas/GpxExtensions/v3 http://www.garmin.com/xmlschemas/GpxExtensionsv3.xsd http://www.garmin.com/xmlschemas/TrackPointExtension/v1 http://www.garmin.com/xmlschemas/TrackPointExtensionv1.xsd" xmlns:gpxtpx="http://www.garmin.com/xmlschemas/TrackPointExtension/v1" xmlns:gpxx="http://www.garmin.com/xmlschemas/GpxExtensions/v3" xmlns:xsi="http://www.w3.org/2001/XMLSchema-instance">
  <metadata>
    <link href="https://www.youtrack.es">
      <text>YouTrack.es</text>
    </link>
    <time>2026-05-10T13:43:32Z</time>
  </metadata>
  <trk>
    <src>https://www.youtrack.es</src>
    <link href="https://www.youtrack.es/ruta/16836-portomarin-palas-de-rei">
      <text>YouTrack.es</text>
    </link>
    <trkseg>
      <trkpt lat="42.8065190" lon="-7.6170220">
        <ele>382.1</ele>
        <time>2020-10-19T07:00:02Z</time>
      </trkpt>
      <trkpt lat="42.8065190" lon="-7.6170220">
        <ele>382.1</ele>
        <time>2020-10-19T07:00:03Z</time>
      </trkpt>
      <trkpt lat="42.8065190" lon="-7.6170220">
        <ele>382.1</ele>
        <time>2020-10-19T07:00:04Z</time>
      </trkpt>
      <trkpt lat="42.8065090" lon="-7.6170330">
        <ele>381.9</ele>
        <time>2020-10-19T07:00:05Z</time>
      </trkpt>
      <trkpt lat="42.8065000" lon="-7.6170430">
        <ele>381.8</ele>
        <time>2020-10-19T07:00:06Z</time>
      </trkpt>
      <trkpt lat="42.8064910" lon="-7.6170530">
        <ele>381.6</ele>
        <time>2020-10-19T07:00:07Z</time>
      </trkpt>
      <trkpt lat="42.8064830" lon="-7.6170610">
        <ele>381.4</ele>
        <time>2020-10-19T07:00:08Z</time>
      </trkpt>
      <trkpt lat="42.8064720" lon="-7.6170660">
        <ele>381.3</ele>
        <time>2020-10-19T07:00:09Z</time>
      </trkpt>
      <trkpt lat="42.8064610" lon="-7.6170630">
        <ele>381.1</ele>
        <time>2020-10-19T07:00:10Z</time>
      </trkpt>
      <trkpt lat="42.8064530" lon="-7.6170570">
        <ele>381.0</ele>
        <time>2020-10-19T07:00:11Z</time>
      </trkpt>
      <trkpt lat="42.8064470" lon="-7.6170490">
        <ele>380.9</ele>
        <time>2020-10-19T07:00:12Z</time>
      </trkpt>
      <trkpt lat="42.8064420" lon="-7.6170400">
        <ele>380.7</ele>
        <time>2020-10-19T07:00:13Z</time>
      </trkpt>
      <trkpt lat="42.8064370" lon="-7.6170290">
        <ele>380.6</ele>
        <time>2020-10-19T07:00:14Z</time>
      </trkpt>
      <trkpt lat="42.8064320" lon="-7.6170180">
        <ele>380.5</ele>
        <time>2020-10-19T07:00:15Z</time>
      </trkpt>
      <trkpt lat="42.8064270" lon="-7.6170070">
        <ele>380.3</ele>
        <time>2020-10-19T07:00:16Z</time>
      </trkpt>
      <trkpt lat="42.8064210" lon="-7.6169990">
        <ele>380.2</ele>
        <time>2020-10-19T07:00:17Z</time>
      </trkpt>
      <trkpt lat="42.8064160" lon="-7.6169920">
        <ele>380.1</ele>
        <time>2020-10-19T07:00:18Z</time>
      </trkpt>
      <trkpt lat="42.8064090" lon="-7.6169850">
        <ele>380.0</ele>
        <time>2020-10-19T07:00:19Z</time>
      </trkpt>
      <trkpt lat="42.8064030" lon="-7.6169780">
        <ele>379.9</ele>
        <time>2020-10-19T07:00:20Z</time>
      </trkpt>
      <trkpt lat="42.8063960" lon="-7.6169720">
        <ele>379.7</ele>
        <time>2020-10-19T07:00:21Z</time>
      </trkpt>
      <trkpt lat="42.8063870" lon="-7.6169650">
        <ele>379.6</ele>
        <time>2020-10-19T07:00:22Z</time>
      </trkpt>
      <trkpt lat="42.8063750" lon="-7.6169560">
        <ele>379.4</ele>
        <time>2020-10-19T07:00:23Z</time>
      </trkpt>
      <trkpt lat="42.8063630" lon="-7.6169450">
        <ele>379.2</ele>
        <time>2020-10-19T07:00:24Z</time>
      </trkpt>
      <trkpt lat="42.8063530" lon="-7.6169330">
        <ele>379.1</ele>
        <time>2020-10-19T07:00:25Z</time>
      </trkpt>
      <trkpt lat="42.8063440" lon="-7.6169220">
        <ele>378.9</ele>
        <time>2020-10-19T07:00:26Z</time>
      </trkpt>
      <trkpt lat="42.8063360" lon="-7.6169100">
        <ele>378.8</ele>
        <time>2020-10-19T07:00:27Z</time>
      </trkpt>
      <trkpt lat="42.8063270" lon="-7.6168990">
        <ele>378.6</ele>
        <time>2020-10-19T07:00:28Z</time>
      </trkpt>
      <trkpt lat="42.8063180" lon="-7.6168880">
        <ele>378.5</ele>
        <time>2020-10-19T07:00:29Z</time>
      </trkpt>
      <trkpt lat="42.8063070" lon="-7.6168770">
        <ele>378.4</ele>
        <time>2020-10-19T07:00:30Z</time>
      </trkpt>
      <trkpt lat="42.8062970" lon="-7.6168670">
        <ele>378.2</ele>
        <time>2020-10-19T07:00:31Z</time>
      </trkpt>
      <trkpt lat="42.8062870" lon="-7.6168570">
        <ele>378.1</ele>
        <time>2020-10-19T07:00:32Z</time>
      </trkpt>
      <trkpt lat="42.8062790" lon="-7.6168470">
        <ele>378.0</ele>
        <time>2020-10-19T07:00:33Z</time>
      </trkpt>
      <trkpt lat="42.8062700" lon="-7.6168370">
        <ele>377.9</ele>
        <time>2020-10-19T07:00:34Z</time>
      </trkpt>
      <trkpt lat="42.8062620" lon="-7.6168300">
        <ele>377.9</ele>
        <time>2020-10-19T07:00:35Z</time>
      </trkpt>
      <trkpt lat="42.8062520" lon="-7.6168260">
        <ele>377.8</ele>
        <time>2020-10-19T07:00:36Z</time>
      </trkpt>
      <trkpt lat="42.8062440" lon="-7.6168240">
        <ele>377.7</ele>
        <time>2020-10-19T07:00:37Z</time>
      </trkpt>
      <trkpt lat="42.8062380" lon="-7.6168200">
        <ele>377.6</ele>
        <time>2020-10-19T07:00:38Z</time>
      </trkpt>
      <trkpt lat="42.8062330" lon="-7.6168160">
        <ele>377.6</ele>
        <time>2020-10-19T07:00:39Z</time>
      </trkpt>
      <trkpt lat="42.8062210" lon="-7.6168130">
        <ele>377.5</ele>
        <time>2020-10-19T07:00:40Z</time>
      </trkpt>
      <trkpt lat="42.8062090" lon="-7.6168120">
        <ele>377.4</ele>
        <time>2020-10-19T07:00:41Z</time>
      </trkpt>
      <trkpt lat="42.8061990" lon="-7.6168090">
        <ele>377.3</ele>
        <time>2020-10-19T07:00:42Z</time>
      </trkpt>
      <trkpt lat="42.8061920" lon="-7.6168040">
        <ele>377.2</ele>
        <time>2020-10-19T07:00:43Z</time>
      </trkpt>
      <trkpt lat="42.8061850" lon="-7.6167960">
        <ele>377.2</ele>
        <time>2020-10-19T07:00:44Z</time>
      </trkpt>
      <trkpt lat="42.8061780" lon="-7.6167840">
        <ele>377.1</ele>
        <time>2020-10-19T07:00:45Z</time>
      </trkpt>
      <trkpt lat="42.8061730" lon="-7.6167700">
        <ele>377.1</ele>
        <time>2020-10-19T07:00:46Z</time>
      </trkpt>
      <trkpt lat="42.8061730" lon="-7.6167540">
        <ele>377.0</ele>
        <time>2020-10-19T07:00:47Z</time>
      </trkpt>
      <trkpt lat="42.8061740" lon="-7.6167390">
        <ele>376.9</ele>
        <time>2020-10-19T07:00:48Z</time>
      </trkpt>
      <trkpt lat="42.8061760" lon="-7.6167240">
        <ele>376.9</ele>
        <time>2020-10-19T07:00:49Z</time>
      </trkpt>
      <trkpt lat="42.8061750" lon="-7.6167120">
        <ele>376.8</ele>
        <time>2020-10-19T07:00:50Z</time>
      </trkpt>
      <trkpt lat="42.8061740" lon="-7.6166990">
        <ele>376.8</ele>
        <time>2020-10-19T07:00:51Z</time>
      </trkpt>
      <trkpt lat="42.8061710" lon="-7.6166870">
        <ele>376.7</ele>
        <time>2020-10-19T07:00:52Z</time>
      </trkpt>
      <trkpt lat="42.8061650" lon="-7.6166760">
        <ele>376.7</ele>
        <time>2020-10-19T07:00:53Z</time>
      </trkpt>
      <trkpt lat="42.8061580" lon="-7.6166650">
        <ele>376.6</ele>
        <time>2020-10-19T07:00:54Z</time>
      </trkpt>
      <trkpt lat="42.8061520" lon="-7.6166540">
        <ele>376.6</ele>
        <time>2020-10-19T07:00:55Z</time>
      </trkpt>
      <trkpt lat="42.8061480" lon="-7.6166410">
        <ele>376.5</ele>
        <time>2020-10-19T07:00:56Z</time>
      </trkpt>
      <trkpt lat="42.8061420" lon="-7.6166330">
        <ele>376.5</ele>
        <time>2020-10-19T07:00:57Z</time>
      </trkpt>
      <trkpt lat="42.8061340" lon="-7.6166290">
        <ele>376.4</ele>
        <time>2020-10-19T07:00:58Z</time>
      </trkpt>
      <trkpt lat="42.8061280" lon="-7.6166270">
        <ele>376.4</ele>
        <time>2020-10-19T07:00:59Z</time>
      </trkpt>
      <trkpt lat="42.8061200" lon="-7.6166270">
        <ele>376.4</ele>
        <time>2020-10-19T07:01:00Z</time>
      </trkpt>
      <trkpt lat="42.8061130" lon="-7.6166300">
        <ele>376.4</ele>
        <time>2020-10-19T07:01:01Z</time>
      </trkpt>
      <trkpt lat="42.8061040" lon="-7.6166380">
        <ele>376.3</ele>
        <time>2020-10-19T07:01:02Z</time>
      </trkpt>
      <trkpt lat="42.8060950" lon="-7.6166480">
        <ele>376.3</ele>
        <time>2020-10-19T07:01:03Z</time>
      </trkpt>
      <trkpt lat="42.8060870" lon="-7.6166600">
        <ele>376.2</ele>
        <time>2020-10-19T07:01:04Z</time>
      </trkpt>
      <trkpt lat="42.8060810" lon="-7.6166730">
        <ele>376.1</ele>
        <time>2020-10-19T07:01:05Z</time>
      </trkpt>
      <trkpt lat="42.8060760" lon="-7.6166840">
        <ele>376.1</ele>
        <time>2020-10-19T07:01:06Z</time>
      </trkpt>
      <trkpt lat="42.8060730" lon="-7.6166940">
        <ele>376.1</ele>
        <time>2020-10-19T07:01:07Z</time>
      </trkpt>
      <trkpt lat="42.8060700" lon="-7.6167010">
        <ele>376.3</ele>
        <time>2020-10-19T07:01:08Z</time>
      </trkpt>
      <trkpt lat="42.8060680" lon="-7.6167070">
        <ele>376.3</ele>
        <time>2020-10-19T07:01:09Z</time>
      </trkpt>
      <trkpt lat="42.8060670" lon="-7.6167120">
        <ele>376.3</ele>
        <time>2020-10-19T07:01:10Z</time>
      </trkpt>
      <trkpt lat="42.8060650" lon="-7.6167160">
        <ele>376.3</ele>
        <time>2020-10-19T07:01:11Z</time>
      </trkpt>
      <trkpt lat="42.8060650" lon="-7.6167170">
        <ele>376.3</ele>
        <time>2020-10-19T07:01:12Z</time>
      </trkpt>
      <trkpt lat="42.8060640" lon="-7.6167170">
        <ele>376.3</ele>
        <time>2020-10-19T07:01:13Z</time>
      </trkpt>
      <trkpt lat="42.8060630" lon="-7.6167160">
        <ele>376.3</ele>
        <time>2020-10-19T07:01:14Z</time>
      </trkpt>
      <trkpt lat="42.8060640" lon="-7.6167160">
        <ele>376.3</ele>
        <time>2020-10-19T07:01:15Z</time>
      </trkpt>
      <trkpt lat="42.8060700" lon="-7.6167120">
        <ele>376.3</ele>
        <time>2020-10-19T07:01:16Z</time>
      </trkpt>
      <trkpt lat="42.8060800" lon="-7.6167070">
        <ele>376.3</ele>
        <time>2020-10-19T07:01:17Z</time>
      </trkpt>
      <trkpt lat="42.8060880" lon="-7.6167030">
        <ele>376.4</ele>
        <time>2020-10-19T07:01:18Z</time>
      </trkpt>
      <trkpt lat="42.8060900" lon="-7.6167040">
        <ele>376.4</ele>
        <time>2020-10-19T07:01:19Z</time>
      </trkpt>
      <trkpt lat="42.8060880" lon="-7.6167080">
        <ele>376.4</ele>
        <time>2020-10-19T07:01:20Z</time>
      </trkpt>
      <trkpt lat="42.8060840" lon="-7.6167150">
        <ele>376.4</ele>
        <time>2020-10-19T07:01:21Z</time>
      </trkpt>
      <trkpt lat="42.8060790" lon="-7.6167220">
        <ele>376.4</ele>
        <time>2020-10-19T07:01:22Z</time>
      </trkpt>
      <trkpt lat="42.8060720" lon="-7.6167310">
        <ele>376.4</ele>
        <time>2020-10-19T07:01:23Z</time>
      </trkpt>
      <trkpt lat="42.8060660" lon="-7.6167400">
        <ele>376.4</ele>
        <time>2020-10-19T07:01:24Z</time>
      </trkpt>
      <trkpt lat="42.8060610" lon="-7.6167450">
        <ele>376.4</ele>
        <time>2020-10-19T07:01:25Z</time>
      </trkpt>
      <trkpt lat="42.8060580" lon="-7.6167470">
        <ele>376.4</ele>
        <time>2020-10-19T07:01:26Z</time>
      </trkpt>
      <trkpt lat="42.8060560" lon="-7.6167480">
        <ele>376.4</ele>
        <time>2020-10-19T07:01:27Z</time>
      </trkpt>
      <trkpt lat="42.8060550" lon="-7.6167490">
        <ele>376.4</ele>
        <time>2020-10-19T07:01:28Z</time>
      </trkpt>
      <trkpt lat="42.8060530" lon="-7.6167490">
        <ele>376.4</ele>
        <time>2020-10-19T07:01:29Z</time>
      </trkpt>
      <trkpt lat="42.8060530" lon="-7.6167490">
        <ele>376.4</ele>
        <time>2020-10-19T07:01:30Z</time>
      </trkpt>
      <trkpt lat="42.8060550" lon="-7.6167490">
        <ele>376.4</ele>
        <time>2020-10-19T07:01:31Z</time>
      </trkpt>
      <trkpt lat="42.8060620" lon="-7.6167510">
        <ele>376.4</ele>
        <time>2020-10-19T07:01:32Z</time>
      </trkpt>
      <trkpt lat="42.8060760" lon="-7.6167550">
        <ele>376.4</ele>
        <time>2020-10-19T07:01:33Z</time>
      </trkpt>
      <trkpt lat="42.8060930" lon="-7.6167620">
        <ele>376.4</ele>
        <time>2020-10-19T07:01:34Z</time>
      </trkpt>
      <trkpt lat="42.8061110" lon="-7.6167700">
        <ele>376.5</ele>
        <time>2020-10-19T07:01:35Z</time>
      </trkpt>
      <trkpt lat="42.8061220" lon="-7.6167780">
        <ele>376.5</ele>
        <time>2020-10-19T07:01:36Z</time>
      </trkpt>
      <trkpt lat="42.8061310" lon="-7.6167840">
        <ele>376.5</ele>
        <time>2020-10-19T07:01:37Z</time>
      </trkpt>
      <trkpt lat="42.8061370" lon="-7.6167910">
        <ele>376.5</ele>
        <time>2020-10-19T07:01:38Z</time>
      </trkpt>
      <trkpt lat="42.8061410" lon="-7.6167950">
        <ele>376.5</ele>
        <time>2020-10-19T07:01:39Z</time>
      </trkpt>
      <trkpt lat="42.8061430" lon="-7.6167980">
        <ele>376.5</ele>
        <time>2020-10-19T07:01:40Z</time>
      </trkpt>
      <trkpt lat="42.8061450" lon="-7.6167990">
        <ele>376.5</ele>
        <time>2020-10-19T07:01:41Z</time>
      </trkpt>
      <trkpt lat="42.8061470" lon="-7.6168010">
        <ele>376.5</ele>
        <time>2020-10-19T07:01:42Z</time>
      </trkpt>
      <trkpt lat="42.8061470" lon="-7.6168010">
        <ele>376.5</ele>
        <time>2020-10-19T07:01:43Z</time>
      </trkpt>
      <trkpt lat="42.8061500" lon="-7.6168000">
        <ele>376.5</ele>
        <time>2020-10-19T07:01:44Z</time>
      </trkpt>
      <trkpt lat="42.8061510" lon="-7.6168000">
        <ele>376.5</ele>
        <time>2020-10-19T07:01:45Z</time>
      </trkpt>
      <trkpt lat="42.8061540" lon="-7.6167990">
        <ele>376.5</ele>
        <time>2020-10-19T07:01:46Z</time>
      </trkpt>
      <trkpt lat="42.8061540" lon="-7.6167960">
        <ele>376.5</ele>
        <time>2020-10-19T07:01:47Z</time>
      </trkpt>
      <trkpt lat="42.8061550" lon="-7.6167920">
        <ele>376.5</ele>
        <time>2020-10-19T07:01:48Z</time>
      </trkpt>
      <trkpt lat="42.8061530" lon="-7.6167890">
        <ele>376.5</ele>
        <time>2020-10-19T07:01:49Z</time>
      </trkpt>
      <trkpt lat="42.8061520" lon="-7.6167890">
        <ele>376.5</ele>
        <time>2020-10-19T07:01:50Z</time>
      </trkpt>
      <trkpt lat="42.8061510" lon="-7.6167890">
        <ele>376.5</ele>
        <time>2020-10-19T07:01:51Z</time>
      </trkpt>
      <trkpt lat="42.8061500" lon="-7.6167880">
        <ele>376.5</ele>
        <time>2020-10-19T07:01:52Z</time>
      </trkpt>
      <trkpt lat="42.8061510" lon="-7.6167870">
        <ele>376.5</ele>
        <time>2020-10-19T07:01:53Z</time>
      </trkpt>
      <trkpt lat="42.8061500" lon="-7.6167880">
        <ele>376.5</ele>
        <time>2020-10-19T07:01:54Z</time>
      </trkpt>
      <trkpt lat="42.8061490" lon="-7.6167890">
        <ele>376.5</ele>
        <time>2020-10-19T07:01:55Z</time>
      </trkpt>
      <trkpt lat="42.8061470" lon="-7.6167930">
        <ele>376.5</ele>
        <time>2020-10-19T07:01:56Z</time>
      </trkpt>
      <trkpt lat="42.8061450" lon="-7.6167950">
        <ele>376.5</ele>
        <time>2020-10-19T07:01:57Z</time>
      </trkpt>
      <trkpt lat="42.8061430" lon="-7.6167980">
        <ele>376.5</ele>
        <time>2020-10-19T07:01:58Z</time>
      </trkpt>
      <trkpt lat="42.8061380" lon="-7.6167970">
        <ele>376.5</ele>
        <time>2020-10-19T07:01:59Z</time>
      </trkpt>
      <trkpt lat="42.8061310" lon="-7.6167940">
        <ele>376.5</ele>
        <time>2020-10-19T07:02:00Z</time>
      </trkpt>
      <trkpt lat="42.8061240" lon="-7.6167900">
        <ele>376.6</ele>
        <time>2020-10-19T07:02:01Z</time>
      </trkpt>
      <trkpt lat="42.8061160" lon="-7.6167850">
        <ele>376.6</ele>
        <time>2020-10-19T07:02:02Z</time>
      </trkpt>
      <trkpt lat="42.8061090" lon="-7.6167810">
        <ele>376.6</ele>
        <time>2020-10-19T07:02:03Z</time>
      </trkpt>
      <trkpt lat="42.8061010" lon="-7.6167760">
        <ele>376.6</ele>
        <time>2020-10-19T07:02:04Z</time>
      </trkpt>
      <trkpt lat="42.8060940" lon="-7.6167710">
        <ele>376.6</ele>
        <time>2020-10-19T07:02:05Z</time>
      </trkpt>
      <trkpt lat="42.8060880" lon="-7.6167690">
        <ele>376.6</ele>
        <time>2020-10-19T07:02:06Z</time>
      </trkpt>
      <trkpt lat="42.8060830" lon="-7.6167700">
        <ele>376.6</ele>
        <time>2020-10-19T07:02:07Z</time>
      </trkpt>
      <trkpt lat="42.8060770" lon="-7.6167730">
        <ele>376.6</ele>
        <time>2020-10-19T07:02:08Z</time>
      </trkpt>
      <trkpt lat="42.8060710" lon="-7.6167740">
        <ele>376.6</ele>
        <time>2020-10-19T07:02:09Z</time>
      </trkpt>
      <trkpt lat="42.8060670" lon="-7.6167730">
        <ele>376.6</ele>
        <time>2020-10-19T07:02:10Z</time>
      </trkpt>
      <trkpt lat="42.8060650" lon="-7.6167710">
        <ele>376.6</ele>
        <time>2020-10-19T07:02:11Z</time>
      </trkpt>
      <trkpt lat="42.8060640" lon="-7.6167680">
        <ele>376.6</ele>
        <time>2020-10-19T07:02:12Z</time>
      </trkpt>
      <trkpt lat="42.8060630" lon="-7.6167660">
        <ele>376.6</ele>
        <time>2020-10-19T07:02:13Z</time>
      </trkpt>
      <trkpt lat="42.8060640" lon="-7.6167650">
        <ele>376.6</ele>
        <time>2020-10-19T07:02:14Z</time>
      </trkpt>
      <trkpt lat="42.8060670" lon="-7.6167650">
        <ele>376.6</ele>
        <time>2020-10-19T07:02:15Z</time>
      </trkpt>
      <trkpt lat="42.8060700" lon="-7.6167650">
        <ele>376.6</ele>
        <time>2020-10-19T07:02:16Z</time>
      </trkpt>
      <trkpt lat="42.8060730" lon="-7.6167620">
        <ele>376.6</ele>
        <time>2020-10-19T07:02:17Z</time>
      </trkpt>
      <trkpt lat="42.8060770" lon="-7.6167580">
        <ele>376.6</ele>
        <time>2020-10-19T07:02:18Z</time>
      </trkpt>
      <trkpt lat="42.8060840" lon="-7.6167530">
        <ele>376.6</ele>
        <time>2020-10-19T07:02:19Z</time>
      </trkpt>
      <trkpt lat="42.8060970" lon="-7.6167520">
        <ele>376.7</ele>
        <time>2020-10-19T07:02:20Z</time>
      </trkpt>
      <trkpt lat="42.8061140" lon="-7.6167530">
        <ele>376.7</ele>
        <time>2020-10-19T07:02:21Z</time>
      </trkpt>
      <trkpt lat="42.8061300" lon="-7.6167530">
        <ele>376.7</ele>
        <time>2020-10-19T07:02:22Z</time>
      </trkpt>
      <trkpt lat="42.8061410" lon="-7.6167530">
        <ele>376.7</ele>
        <time>2020-10-19T07:02:23Z</time>
      </trkpt>
      <trkpt lat="42.8061490" lon="-7.6167530">
        <ele>376.7</ele>
        <time>2020-10-19T07:02:24Z</time>
      </trkpt>
      <trkpt lat="42.8061550" lon="-7.6167550">
        <ele>376.7</ele>
        <time>2020-10-19T07:02:25Z</time>
      </trkpt>
      <trkpt lat="42.8061620" lon="-7.6167610">
        <ele>376.7</ele>
        <time>2020-10-19T07:02:26Z</time>
      </trkpt>
      <trkpt lat="42.8061640" lon="-7.6167660">
        <ele>376.7</ele>
        <time>2020-10-19T07:02:27Z</time>
      </trkpt>
      <trkpt lat="42.8061660" lon="-7.6167690">
        <ele>376.7</ele>
        <time>2020-10-19T07:02:28Z</time>
      </trkpt>
      <trkpt lat="42.8061650" lon="-7.6167670">
        <ele>376.7</ele>
        <time>2020-10-19T07:02:29Z</time>
      </trkpt>
      <trkpt lat="42.8061640" lon="-7.6167670">
        <ele>376.7</ele>
        <time>2020-10-19T07:02:30Z</time>
      </trkpt>
      <trkpt lat="42.8061610" lon="-7.6167660">
        <ele>376.7</ele>
        <time>2020-10-19T07:02:31Z</time>
      </trkpt>
      <trkpt lat="42.8061600" lon="-7.6167650">
        <ele>376.7</ele>
        <time>2020-10-19T07:02:32Z</time>
      </trkpt>
      <trkpt lat="42.8061600" lon="-7.6167640">
        <ele>376.7</ele>
        <time>2020-10-19T07:02:33Z</time>
      </trkpt>
      <trkpt lat="42.8061600" lon="-7.6167630">
        <ele>376.7</ele>
        <time>2020-10-19T07:02:34Z</time>
      </trkpt>
      <trkpt lat="42.8061600" lon="-7.6167620">
        <ele>376.7</ele>
        <time>2020-10-19T07:02:35Z</time>
      </trkpt>
      <trkpt lat="42.8061600" lon="-7.6167620">
        <ele>376.7</ele>
        <time>2020-10-19T07:02:36Z</time>
      </trkpt>
      <trkpt lat="42.8061580" lon="-7.6167630">
        <ele>376.8</ele>
        <time>2020-10-19T07:02:37Z</time>
      </trkpt>
      <trkpt lat="42.8061560" lon="-7.6167660">
        <ele>376.8</ele>
        <time>2020-10-19T07:02:38Z</time>
      </trkpt>
      <trkpt lat="42.8061520" lon="-7.6167700">
        <ele>376.8</ele>
        <time>2020-10-19T07:02:39Z</time>
      </trkpt>
      <trkpt lat="42.8061450" lon="-7.6167690">
        <ele>376.8</ele>
        <time>2020-10-19T07:02:40Z</time>
      </trkpt>
      <trkpt lat="42.8061360" lon="-7.6167700">
        <ele>376.8</ele>
        <time>2020-10-19T07:02:41Z</time>
      </trkpt>
      <trkpt lat="42.8061240" lon="-7.6167700">
        <ele>376.8</ele>
        <time>2020-10-19T07:02:42Z</time>
      </trkpt>
      <trkpt lat="42.8061130" lon="-7.6167720">
        <ele>376.8</ele>
        <time>2020-10-19T07:02:43Z</time>
      </trkpt>
      <trkpt lat="42.8061000" lon="-7.6167720">
        <ele>376.8</ele>
        <time>2020-10-19T07:02:44Z</time>
      </trkpt>
      <trkpt lat="42.8060880" lon="-7.6167700">
        <ele>376.8</ele>
        <time>2020-10-19T07:02:45Z</time>
      </trkpt>
      <trkpt lat="42.8060800" lon="-7.6167690">
        <ele>376.8</ele>
        <time>2020-10-19T07:02:46Z</time>
      </trkpt>
      <trkpt lat="42.8060760" lon="-7.6167690">
        <ele>376.8</ele>
        <time>2020-10-19T07:02:47Z</time>
      </trkpt>
      <trkpt lat="42.8060760" lon="-7.6167710">
        <ele>376.8</ele>
        <time>2020-10-19T07:02:48Z</time>
      </trkpt>
      <trkpt lat="42.8060770" lon="-7.6167710">
        <ele>376.8</ele>
        <time>2020-10-19T07:02:49Z</time>
      </trkpt>
      <trkpt lat="42.8060770" lon="-7.6167710">
        <ele>376.8</ele>
        <time>2020-10-19T07:02:50Z</time>
      </trkpt>
      <trkpt lat="42.8060780" lon="-7.6167720">
        <ele>376.8</ele>
        <time>2020-10-19T07:02:51Z</time>
      </trkpt>
      <trkpt lat="42.8060790" lon="-7.6167730">
        <ele>376.8</ele>
        <time>2020-10-19T07:02:52Z</time>
      </trkpt>
      <trkpt lat="42.8060780" lon="-7.6167770">
        <ele>376.8</ele>
        <time>2020-10-19T07:02:53Z</time>
      </trkpt>
      <trkpt lat="42.8060770" lon="-7.6167820">
        <ele>376.9</ele>
        <time>2020-10-19T07:02:54Z</time>
      </trkpt>
      <trkpt lat="42.8060760" lon="-7.6167890">
        <ele>376.9</ele>
        <time>2020-10-19T07:02:55Z</time>
      </trkpt>
      <trkpt lat="42.8060760" lon="-7.6167970">
        <ele>376.9</ele>
        <time>2020-10-19T07:02:56Z</time>
      </trkpt>
      <trkpt lat="42.8060750" lon="-7.6168090">
        <ele>376.9</ele>
        <time>2020-10-19T07:02:57Z</time>
      </trkpt>
      <trkpt lat="42.8060720" lon="-7.6168230">
        <ele>376.9</ele>
        <time>2020-10-19T07:02:58Z</time>
      </trkpt>
      <trkpt lat="42.8060690" lon="-7.6168380">
        <ele>376.9</ele>
        <time>2020-10-19T07:02:59Z</time>
      </trkpt>
      <trkpt lat="42.8060680" lon="-7.6168510">
        <ele>376.9</ele>
        <time>2020-10-19T07:03:00Z</time>
      </trkpt>
      <trkpt lat="42.8060690" lon="-7.6168630">
        <ele>376.9</ele>
        <time>2020-10-19T07:03:01Z</time>
      </trkpt>
      <trkpt lat="42.8060700" lon="-7.6168750">
        <ele>376.9</ele>
        <time>2020-10-19T07:03:02Z</time>
      </trkpt>
      <trkpt lat="42.8060710" lon="-7.6168870">
        <ele>376.9</ele>
        <time>2020-10-19T07:03:03Z</time>
      </trkpt>
      <trkpt lat="42.8060720" lon="-7.6169000">
        <ele>376.9</ele>
        <time>2020-10-19T07:03:04Z</time>
      </trkpt>
      <trkpt lat="42.8060730" lon="-7.6169130">
        <ele>377.0</ele>
        <time>2020-10-19T07:03:05Z</time>
      </trkpt>
      <trkpt lat="42.8060740" lon="-7.6169230">
        <ele>377.0</ele>
        <time>2020-10-19T07:03:06Z</time>
      </trkpt>
      <trkpt lat="42.8060750" lon="-7.6169330">
        <ele>377.0</ele>
        <time>2020-10-19T07:03:07Z</time>
      </trkpt>
      <trkpt lat="42.8060760" lon="-7.6169450">
        <ele>377.0</ele>
        <time>2020-10-19T07:03:08Z</time>
      </trkpt>
      <trkpt lat="42.8060760" lon="-7.6169580">
        <ele>377.0</ele>
        <time>2020-10-19T07:03:09Z</time>
      </trkpt>
      <trkpt lat="42.8060750" lon="-7.6169700">
        <ele>377.0</ele>
        <time>2020-10-19T07:03:10Z</time>
      </trkpt>
      <trkpt lat="42.8060760" lon="-7.6169800">
        <ele>377.0</ele>
        <time>2020-10-19T07:03:11Z</time>
      </trkpt>
      <trkpt lat="42.8060780" lon="-7.6169890">
        <ele>377.0</ele>
        <time>2020-10-19T07:03:12Z</time>
      </trkpt>
      <trkpt lat="42.8060820" lon="-7.6169990">
        <ele>377.0</ele>
        <time>2020-10-19T07:03:13Z</time>
      </trkpt>
      <trkpt lat="42.8060850" lon="-7.6170100">
        <ele>377.0</ele>
        <time>2020-10-19T07:03:14Z</time>
      </trkpt>
      <trkpt lat="42.8060890" lon="-7.6170200">
        <ele>377.0</ele>
        <time>2020-10-19T07:03:15Z</time>
      </trkpt>
      <trkpt lat="42.8060930" lon="-7.6170310">
        <ele>377.0</ele>
        <time>2020-10-19T07:03:16Z</time>
      </trkpt>
      <trkpt lat="42.8060970" lon="-7.6170440">
        <ele>377.0</ele>
        <time>2020-10-19T07:03:17Z</time>
      </trkpt>
      <trkpt lat="42.8061000" lon="-7.6170590">
        <ele>377.0</ele>
        <time>2020-10-19T07:03:18Z</time>
      </trkpt>
      <trkpt lat="42.8061020" lon="-7.6170730">
        <ele>377.0</ele>
        <time>2020-10-19T07:03:19Z</time>
      </trkpt>
      <trkpt lat="42.8061030" lon="-7.6170880">
        <ele>377.0</ele>
        <time>2020-10-19T07:03:20Z</time>
      </trkpt>
      <trkpt lat="42.8061020" lon="-7.6171010">
        <ele>376.9</ele>
        <time>2020-10-19T07:03:21Z</time>
      </trkpt>
      <trkpt lat="42.8061020" lon="-7.6171150">
        <ele>376.9</ele>
        <time>2020-10-19T07:03:22Z</time>
      </trkpt>
      <trkpt lat="42.8061000" lon="-7.6171280">
        <ele>376.9</ele>
        <time>2020-10-19T07:03:23Z</time>
      </trkpt>
      <trkpt lat="42.8061000" lon="-7.6171410">
        <ele>376.9</ele>
        <time>2020-10-19T07:03:24Z</time>
      </trkpt>
      <trkpt lat="42.8060980" lon="-7.6171530">
        <ele>376.9</ele>
        <time>2020-10-19T07:03:25Z</time>
      </trkpt>
      <trkpt lat="42.8060970" lon="-7.6171650">
        <ele>376.9</ele>
        <time>2020-10-19T07:03:26Z</time>
      </trkpt>
      <trkpt lat="42.8060960" lon="-7.6171750">
        <ele>376.9</ele>
        <time>2020-10-19T07:03:27Z</time>
      </trkpt>
      <trkpt lat="42.8060960" lon="-7.6171850">
        <ele>376.9</ele>
        <time>2020-10-19T07:03:28Z</time>
      </trkpt>
      <trkpt lat="42.8060980" lon="-7.6171950">
        <ele>377.0</ele>
        <time>2020-10-19T07:03:29Z</time>
      </trkpt>
      <trkpt lat="42.8060980" lon="-7.6172070">
        <ele>377.0</ele>
        <time>2020-10-19T07:03:30Z</time>
      </trkpt>
      <trkpt lat="42.8060990" lon="-7.6172220">
        <ele>377.0</ele>
        <time>2020-10-19T07:03:31Z</time>
      </trkpt>
      <trkpt lat="42.8060980" lon="-7.6172360">
        <ele>377.0</ele>
        <time>2020-10-19T07:03:32Z</time>
      </trkpt>
      <trkpt lat="42.8060970" lon="-7.6172480">
        <ele>377.0</ele>
        <time>2020-10-19T07:03:33Z</time>
      </trkpt>
      <trkpt lat="42.8060990" lon="-7.6172580">
        <ele>377.0</ele>
        <time>2020-10-19T07:03:34Z</time>
      </trkpt>
      <trkpt lat="42.8061000" lon="-7.6172680">
        <ele>377.0</ele>
        <time>2020-10-19T07:03:35Z</time>
      </trkpt>
      <trkpt lat="42.8061020" lon="-7.6172800">
        <ele>377.0</ele>
        <time>2020-10-19T07:03:36Z</time>
      </trkpt>
      <trkpt lat="42.8061020" lon="-7.6172930">
        <ele>377.0</ele>
        <time>2020-10-19T07:03:37Z</time>
      </trkpt>
      <trkpt lat="42.8060990" lon="-7.6173090">
        <ele>377.0</ele>
        <time>2020-10-19T07:03:38Z</time>
      </trkpt>
      <trkpt lat="42.8060970" lon="-7.6173270">
        <ele>377.0</ele>
        <time>2020-10-19T07:03:39Z</time>
      </trkpt>
      <trkpt lat="42.8060950" lon="-7.6173450">
        <ele>377.0</ele>
        <time>2020-10-19T07:03:40Z</time>
      </trkpt>
      <trkpt lat="42.8060950" lon="-7.6173620">
        <ele>377.0</ele>
        <time>2020-10-19T07:03:41Z</time>
      </trkpt>
      <trkpt lat="42.8060950" lon="-7.6173790">
        <ele>377.0</ele>
        <time>2020-10-19T07:03:42Z</time>
      </trkpt>
      <trkpt lat="42.8060950" lon="-7.6173940">
        <ele>377.0</ele>
        <time>2020-10-19T07:03:43Z</time>
      </trkpt>
      <trkpt lat="42.8060940" lon="-7.6174080">
        <ele>377.0</ele>
        <time>2020-10-19T07:03:44Z</time>
      </trkpt>
      <trkpt lat="42.8060940" lon="-7.6174210">
        <ele>377.0</ele>
        <time>2020-10-19T07:03:45Z</time>
      </trkpt>
      <trkpt lat="42.8060930" lon="-7.6174350">
        <ele>377.0</ele>
        <time>2020-10-19T07:03:46Z</time>
      </trkpt>
      <trkpt lat="42.8060930" lon="-7.6174490">
        <ele>377.0</ele>
        <time>2020-10-19T07:03:47Z</time>
      </trkpt>
      <trkpt lat="42.8060930" lon="-7.6174640">
        <ele>377.0</ele>
        <time>2020-10-19T07:03:48Z</time>
      </trkpt>
      <trkpt lat="42.8060930" lon="-7.6174780">
        <ele>377.1</ele>
        <time>2020-10-19T07:03:49Z</time>
      </trkpt>
      <trkpt lat="42.8060930" lon="-7.6174920">
        <ele>377.1</ele>
        <time>2020-10-19T07:03:50Z</time>
      </trkpt>
      <trkpt lat="42.8060930" lon="-7.6175080">
        <ele>377.1</ele>
        <time>2020-10-19T07:03:51Z</time>
      </trkpt>
      <trkpt lat="42.8060920" lon="-7.6175230">
        <ele>377.1</ele>
        <time>2020-10-19T07:03:52Z</time>
      </trkpt>
      <trkpt lat="42.8060900" lon="-7.6175380">
        <ele>377.1</ele>
        <time>2020-10-19T07:03:53Z</time>
      </trkpt>
      <trkpt lat="42.8060880" lon="-7.6175510">
        <ele>377.1</ele>
        <time>2020-10-19T07:03:54Z</time>
      </trkpt>
      <trkpt lat="42.8060860" lon="-7.6175650">
        <ele>377.1</ele>
        <time>2020-10-19T07:03:55Z</time>
      </trkpt>
      <trkpt lat="42.8060840" lon="-7.6175790">
        <ele>377.1</ele>
        <time>2020-10-19T07:03:56Z</time>
      </trkpt>
      <trkpt lat="42.8060840" lon="-7.6175940">
        <ele>377.1</ele>
        <time>2020-10-19T07:03:57Z</time>
      </trkpt>
      <trkpt lat="42.8060820" lon="-7.6176060">
        <ele>377.2</ele>
        <time>2020-10-19T07:03:58Z</time>
      </trkpt>
      <trkpt lat="42.8060820" lon="-7.6176190">
        <ele>377.2</ele>
        <time>2020-10-19T07:03:59Z</time>
      </trkpt>
      <trkpt lat="42.8060830" lon="-7.6176320">
        <ele>377.2</ele>
        <time>2020-10-19T07:04:00Z</time>
      </trkpt>
      <trkpt lat="42.8060860" lon="-7.6176480">
        <ele>377.2</ele>
        <time>2020-10-19T07:04:01Z</time>
      </trkpt>
      <trkpt lat="42.8060890" lon="-7.6176630">
        <ele>377.2</ele>
        <time>2020-10-19T07:04:02Z</time>
      </trkpt>
      <trkpt lat="42.8060920" lon="-7.6176780">
        <ele>377.2</ele>
        <time>2020-10-19T07:04:03Z</time>
      </trkpt>
      <trkpt lat="42.8060940" lon="-7.6176930">
        <ele>377.2</ele>
        <time>2020-10-19T07:04:04Z</time>
      </trkpt>
      <trkpt lat="42.8060950" lon="-7.6177080">
        <ele>377.2</ele>
        <time>2020-10-19T07:04:05Z</time>
      </trkpt>
      <trkpt lat="42.8060970" lon="-7.6177220">
        <ele>377.2</ele>
        <time>2020-10-19T07:04:06Z</time>
      </trkpt>
      <trkpt lat="42.8061000" lon="-7.6177350">
        <ele>377.3</ele>
        <time>2020-10-19T07:04:07Z</time>
      </trkpt>
      <trkpt lat="42.8061040" lon="-7.6177490">
        <ele>377.3</ele>
        <time>2020-10-19T07:04:08Z</time>
      </trkpt>
      <trkpt lat="42.8061080" lon="-7.6177640">
        <ele>377.3</ele>
        <time>2020-10-19T07:04:09Z</time>
      </trkpt>
      <trkpt lat="42.8061100" lon="-7.6177810">
        <ele>377.3</ele>
        <time>2020-10-19T07:04:10Z</time>
      </trkpt>
      <trkpt lat="42.8061120" lon="-7.6177980">
        <ele>377.3</ele>
        <time>2020-10-19T07:04:11Z</time>
      </trkpt>
      <trkpt lat="42.8061140" lon="-7.6178160">
        <ele>377.3</ele>
        <time>2020-10-19T07:04:12Z</time>
      </trkpt>
      <trkpt lat="42.8061170" lon="-7.6178320">
        <ele>377.3</ele>
        <time>2020-10-19T07:04:13Z</time>
      </trkpt>
      <trkpt lat="42.8061210" lon="-7.6178470">
        <ele>377.3</ele>
        <time>2020-10-19T07:04:14Z</time>
      </trkpt>
      <trkpt lat="42.8061240" lon="-7.6178620">
        <ele>377.3</ele>
        <time>2020-10-19T07:04:15Z</time>
      </trkpt>
      <trkpt lat="42.8061280" lon="-7.6178770">
        <ele>377.3</ele>
        <time>2020-10-19T07:04:16Z</time>
      </trkpt>
      <trkpt lat="42.8061310" lon="-7.6178920">
        <ele>377.3</ele>
        <time>2020-10-19T07:04:17Z</time>
      </trkpt>
      <trkpt lat="42.8061360" lon="-7.6179060">
        <ele>377.2</ele>
        <time>2020-10-19T07:04:18Z</time>
      </trkpt>
      <trkpt lat="42.8061400" lon="-7.6179200">
        <ele>377.2</ele>
        <time>2020-10-19T07:04:19Z</time>
      </trkpt>
      <trkpt lat="42.8061450" lon="-7.6179340">
        <ele>377.2</ele>
        <time>2020-10-19T07:04:20Z</time>
      </trkpt>
      <trkpt lat="42.8061490" lon="-7.6179480">
        <ele>377.1</ele>
        <time>2020-10-19T07:04:21Z</time>
      </trkpt>
      <trkpt lat="42.8061540" lon="-7.6179620">
        <ele>377.1</ele>
        <time>2020-10-19T07:04:22Z</time>
      </trkpt>
      <trkpt lat="42.8061570" lon="-7.6179760">
        <ele>377.1</ele>
        <time>2020-10-19T07:04:23Z</time>
      </trkpt>
      <trkpt lat="42.8061600" lon="-7.6179890">
        <ele>377.0</ele>
        <time>2020-10-19T07:04:24Z</time>
      </trkpt>
      <trkpt lat="42.8061620" lon="-7.6180020">
        <ele>377.0</ele>
        <time>2020-10-19T07:04:25Z</time>
      </trkpt>
      <trkpt lat="42.8061630" lon="-7.6180160">
        <ele>377.0</ele>
        <time>2020-10-19T07:04:26Z</time>
      </trkpt>
      <trkpt lat="42.8061660" lon="-7.6180300">
        <ele>376.9</ele>
        <time>2020-10-19T07:04:27Z</time>
      </trkpt>
      <trkpt lat="42.8061690" lon="-7.6180450">
        <ele>376.9</ele>
        <time>2020-10-19T07:04:28Z</time>
      </trkpt>
      <trkpt lat="42.8061720" lon="-7.6180600">
        <ele>376.9</ele>
        <time>2020-10-19T07:04:29Z</time>
      </trkpt>
      <trkpt lat="42.8061740" lon="-7.6180750">
        <ele>376.8</ele>
        <time>2020-10-19T07:04:30Z</time>
      </trkpt>
      <trkpt lat="42.8061760" lon="-7.6180890">
        <ele>376.8</ele>
        <time>2020-10-19T07:04:31Z</time>
      </trkpt>
      <trkpt lat="42.8061770" lon="-7.6181040">
        <ele>376.8</ele>
        <time>2020-10-19T07:04:32Z</time>
      </trkpt>
      <trkpt lat="42.8061790" lon="-7.6181170">
        <ele>376.7</ele>
        <time>2020-10-19T07:04:33Z</time>
      </trkpt>
      <trkpt lat="42.8061820" lon="-7.6181300">
        <ele>376.7</ele>
        <time>2020-10-19T07:04:34Z</time>
      </trkpt>
      <trkpt lat="42.8061850" lon="-7.6181420">
        <ele>376.7</ele>
        <time>2020-10-19T07:04:35Z</time>
      </trkpt>
      <trkpt lat="42.8061900" lon="-7.6181550">
        <ele>376.7</ele>
        <time>2020-10-19T07:04:36Z</time>
      </trkpt>
      <trkpt lat="42.8061940" lon="-7.6181680">
        <ele>376.6</ele>
        <time>2020-10-19T07:04:37Z</time>
      </trkpt>
      <trkpt lat="42.8061980" lon="-7.6181820">
        <ele>376.6</ele>
        <time>2020-10-19T07:04:38Z</time>
      </trkpt>
      <trkpt lat="42.8062010" lon="-7.6181970">
        <ele>376.5</ele>
        <time>2020-10-19T07:04:39Z</time>
      </trkpt>
      <trkpt lat="42.8062060" lon="-7.6182120">
        <ele>376.5</ele>
        <time>2020-10-19T07:04:40Z</time>
      </trkpt>
      <trkpt lat="42.8062120" lon="-7.6182270">
        <ele>376.5</ele>
        <time>2020-10-19T07:04:41Z</time>
      </trkpt>
      <trkpt lat="42.8062180" lon="-7.6182420">
        <ele>376.5</ele>
        <time>2020-10-19T07:04:42Z</time>
      </trkpt>
      <trkpt lat="42.8062230" lon="-7.6182570">
        <ele>376.3</ele>
        <time>2020-10-19T07:04:43Z</time>
      </trkpt>
      <trkpt lat="42.8062270" lon="-7.6182710">
        <ele>376.2</ele>
        <time>2020-10-19T07:04:44Z</time>
      </trkpt>
      <trkpt lat="42.8062320" lon="-7.6182850">
        <ele>376.1</ele>
        <time>2020-10-19T07:04:45Z</time>
      </trkpt>
      <trkpt lat="42.8062370" lon="-7.6183000">
        <ele>376.1</ele>
        <time>2020-10-19T07:04:46Z</time>
      </trkpt>
      <trkpt lat="42.8062410" lon="-7.6183140">
        <ele>376.0</ele>
        <time>2020-10-19T07:04:47Z</time>
      </trkpt>
      <trkpt lat="42.8062460" lon="-7.6183280">
        <ele>375.9</ele>
        <time>2020-10-19T07:04:48Z</time>
      </trkpt>
      <trkpt lat="42.8062500" lon="-7.6183420">
        <ele>375.8</ele>
        <time>2020-10-19T07:04:49Z</time>
      </trkpt>
      <trkpt lat="42.8062540" lon="-7.6183560">
        <ele>375.8</ele>
        <time>2020-10-19T07:04:50Z</time>
      </trkpt>
      <trkpt lat="42.8062580" lon="-7.6183700">
        <ele>375.7</ele>
        <time>2020-10-19T07:04:51Z</time>
      </trkpt>
      <trkpt lat="42.8062610" lon="-7.6183840">
        <ele>375.6</ele>
        <time>2020-10-19T07:04:52Z</time>
      </trkpt>
      <trkpt lat="42.8062660" lon="-7.6183960">
        <ele>375.5</ele>
        <time>2020-10-19T07:04:53Z</time>
      </trkpt>
      <trkpt lat="42.8062700" lon="-7.6184090">
        <ele>375.4</ele>
        <time>2020-10-19T07:04:54Z</time>
      </trkpt>
      <trkpt lat="42.8062740" lon="-7.6184220">
        <ele>375.4</ele>
        <time>2020-10-19T07:04:55Z</time>
      </trkpt>
      <trkpt lat="42.8062790" lon="-7.6184350">
        <ele>375.3</ele>
        <time>2020-10-19T07:04:56Z</time>
      </trkpt>
      <trkpt lat="42.8062830" lon="-7.6184490">
        <ele>375.2</ele>
        <time>2020-10-19T07:04:57Z</time>
      </trkpt>
      <trkpt lat="42.8062880" lon="-7.6184630">
        <ele>375.1</ele>
        <time>2020-10-19T07:04:58Z</time>
      </trkpt>
      <trkpt lat="42.8062930" lon="-7.6184770">
        <ele>375.0</ele>
        <time>2020-10-19T07:04:59Z</time>
      </trkpt>
      <trkpt lat="42.8062980" lon="-7.6184910">
        <ele>374.9</ele>
        <time>2020-10-19T07:05:00Z</time>
      </trkpt>
      <trkpt lat="42.8063040" lon="-7.6185050">
        <ele>374.8</ele>
        <time>2020-10-19T07:05:01Z</time>
      </trkpt>
      <trkpt lat="42.8063100" lon="-7.6185190">
        <ele>374.7</ele>
        <time>2020-10-19T07:05:02Z</time>
      </trkpt>
      <trkpt lat="42.8063160" lon="-7.6185310">
        <ele>374.7</ele>
        <time>2020-10-19T07:05:03Z</time>
      </trkpt>
      <trkpt lat="42.8063220" lon="-7.6185420">
        <ele>374.6</ele>
        <time>2020-10-19T07:05:04Z</time>
      </trkpt>
      <trkpt lat="42.8063270" lon="-7.6185540">
        <ele>374.5</ele>
        <time>2020-10-19T07:05:05Z</time>
      </trkpt>
      <trkpt lat="42.8063330" lon="-7.6185680">
        <ele>374.4</ele>
        <time>2020-10-19T07:05:06Z</time>
      </trkpt>
      <trkpt lat="42.8063370" lon="-7.6185830">
        <ele>374.3</ele>
        <time>2020-10-19T07:05:07Z</time>
      </trkpt>
      <trkpt lat="42.8063420" lon="-7.6185970">
        <ele>374.2</ele>
        <time>2020-10-19T07:05:08Z</time>
      </trkpt>
      <trkpt lat="42.8063450" lon="-7.6186100">
        <ele>374.1</ele>
        <time>2020-10-19T07:05:09Z</time>
      </trkpt>
      <trkpt lat="42.8063510" lon="-7.6186220">
        <ele>374.0</ele>
        <time>2020-10-19T07:05:10Z</time>
      </trkpt>
      <trkpt lat="42.8063550" lon="-7.6186370">
        <ele>373.9</ele>
        <time>2020-10-19T07:05:11Z</time>
      </trkpt>
      <trkpt lat="42.8063590" lon="-7.6186530">
        <ele>373.8</ele>
        <time>2020-10-19T07:05:12Z</time>
      </trkpt>
      <trkpt lat="42.8063620" lon="-7.6186710">
        <ele>373.7</ele>
        <time>2020-10-19T07:05:13Z</time>
      </trkpt>
      <trkpt lat="42.8063660" lon="-7.6186880">
        <ele>373.6</ele>
        <time>2020-10-19T07:05:14Z</time>
      </trkpt>
      <trkpt lat="42.8063700" lon="-7.6187040">
        <ele>373.5</ele>
        <time>2020-10-19T07:05:15Z</time>
      </trkpt>
      <trkpt lat="42.8063740" lon="-7.6187180">
        <ele>373.4</ele>
        <time>2020-10-19T07:05:16Z</time>
      </trkpt>
      <trkpt lat="42.8063780" lon="-7.6187330">
        <ele>373.3</ele>
        <time>2020-10-19T07:05:17Z</time>
      </trkpt>
      <trkpt lat="42.8063810" lon="-7.6187460">
        <ele>373.3</ele>
        <time>2020-10-19T07:05:18Z</time>
      </trkpt>
      <trkpt lat="42.8063840" lon="-7.6187590">
        <ele>373.2</ele>
        <time>2020-10-19T07:05:19Z</time>
      </trkpt>
      <trkpt lat="42.8063880" lon="-7.6187710">
        <ele>373.1</ele>
        <time>2020-10-19T07:05:20Z</time>
      </trkpt>
      <trkpt lat="42.8063930" lon="-7.6187860">
        <ele>373.0</ele>
        <time>2020-10-19T07:05:21Z</time>
      </trkpt>
      <trkpt lat="42.8063980" lon="-7.6188000">
        <ele>372.9</ele>
        <time>2020-10-19T07:05:22Z</time>
      </trkpt>
      <trkpt lat="42.8064030" lon="-7.6188140">
        <ele>372.8</ele>
        <time>2020-10-19T07:05:23Z</time>
      </trkpt>
      <trkpt lat="42.8064080" lon="-7.6188260">
        <ele>372.7</ele>
        <time>2020-10-19T07:05:24Z</time>
      </trkpt>
      <trkpt lat="42.8064130" lon="-7.6188400">
        <ele>372.7</ele>
        <time>2020-10-19T07:05:25Z</time>
      </trkpt>
      <trkpt lat="42.8064160" lon="-7.6188560">
        <ele>372.6</ele>
        <time>2020-10-19T07:05:26Z</time>
      </trkpt>
      <trkpt lat="42.8064190" lon="-7.6188730">
        <ele>372.4</ele>
        <time>2020-10-19T07:05:27Z</time>
      </trkpt>
      <trkpt lat="42.8064220" lon="-7.6188890">
        <ele>372.4</ele>
        <time>2020-10-19T07:05:28Z</time>
      </trkpt>
      <trkpt lat="42.8064260" lon="-7.6189030">
        <ele>372.3</ele>
        <time>2020-10-19T07:05:29Z</time>
      </trkpt>
      <trkpt lat="42.8064300" lon="-7.6189190">
        <ele>372.2</ele>
        <time>2020-10-19T07:05:30Z</time>
      </trkpt>
      <trkpt lat="42.8064340" lon="-7.6189340">
        <ele>372.0</ele>
        <time>2020-10-19T07:05:31Z</time>
      </trkpt>
      <trkpt lat="42.8064380" lon="-7.6189480">
        <ele>372.0</ele>
        <time>2020-10-19T07:05:32Z</time>
      </trkpt>
      <trkpt lat="42.8064420" lon="-7.6189620">
        <ele>371.9</ele>
        <time>2020-10-19T07:05:33Z</time>
      </trkpt>
      <trkpt lat="42.8064450" lon="-7.6189730">
        <ele>371.8</ele>
        <time>2020-10-19T07:05:34Z</time>
      </trkpt>
      <trkpt lat="42.8064480" lon="-7.6189830">
        <ele>371.7</ele>
        <time>2020-10-19T07:05:35Z</time>
      </trkpt>
      <trkpt lat="42.8064510" lon="-7.6189920">
        <ele>371.6</ele>
        <time>2020-10-19T07:05:36Z</time>
      </trkpt>
      <trkpt lat="42.8064540" lon="-7.6190010">
        <ele>371.6</ele>
        <time>2020-10-19T07:05:37Z</time>
      </trkpt>
      <trkpt lat="42.8064570" lon="-7.6190130">
        <ele>371.5</ele>
        <time>2020-10-19T07:05:38Z</time>
      </trkpt>
      <trkpt lat="42.8064600" lon="-7.6190260">
        <ele>371.4</ele>
        <time>2020-10-19T07:05:39Z</time>
      </trkpt>
      <trkpt lat="42.8064640" lon="-7.6190400">
        <ele>371.3</ele>
        <time>2020-10-19T07:05:40Z</time>
      </trkpt>
      <trkpt lat="42.8064680" lon="-7.6190540">
        <ele>371.2</ele>
        <time>2020-10-19T07:05:41Z</time>
      </trkpt>
      <trkpt lat="42.8064720" lon="-7.6190680">
        <ele>371.1</ele>
        <time>2020-10-19T07:05:42Z</time>
      </trkpt>
      <trkpt lat="42.8064750" lon="-7.6190810">
        <ele>371.0</ele>
        <time>2020-10-19T07:05:43Z</time>
      </trkpt>
      <trkpt lat="42.8064780" lon="-7.6190940">
        <ele>370.9</ele>
        <time>2020-10-19T07:05:44Z</time>
      </trkpt>
      <trkpt lat="42.8064820" lon="-7.6191060">
        <ele>370.9</ele>
        <time>2020-10-19T07:05:45Z</time>
      </trkpt>
      <trkpt lat="42.8064850" lon="-7.6191180">
        <ele>370.8</ele>
        <time>2020-10-19T07:05:46Z</time>
      </trkpt>
      <trkpt lat="42.8064880" lon="-7.6191310">
        <ele>370.7</ele>
        <time>2020-10-19T07:05:47Z</time>
      </trkpt>
      <trkpt lat="42.8064910" lon="-7.6191440">
        <ele>370.6</ele>
        <time>2020-10-19T07:05:48Z</time>
      </trkpt>
      <trkpt lat="42.8064920" lon="-7.6191570">
        <ele>370.5</ele>
        <time>2020-10-19T07:05:49Z</time>
      </trkpt>
      <trkpt lat="42.8064950" lon="-7.6191690">
        <ele>370.4</ele>
        <time>2020-10-19T07:05:50Z</time>
      </trkpt>
      <trkpt lat="42.8064980" lon="-7.6191800">
        <ele>370.3</ele>
        <time>2020-10-19T07:05:51Z</time>
      </trkpt>
      <trkpt lat="42.8065010" lon="-7.6191920">
        <ele>370.2</ele>
        <time>2020-10-19T07:05:52Z</time>
      </trkpt>
      <trkpt lat="42.8065030" lon="-7.6192060">
        <ele>370.1</ele>
        <time>2020-10-19T07:05:53Z</time>
      </trkpt>
      <trkpt lat="42.8065050" lon="-7.6192200">
        <ele>370.1</ele>
        <time>2020-10-19T07:05:54Z</time>
      </trkpt>
      <trkpt lat="42.8065060" lon="-7.6192380">
        <ele>369.9</ele>
        <time>2020-10-19T07:05:55Z</time>
      </trkpt>
      <trkpt lat="42.8065070" lon="-7.6192560">
        <ele>369.8</ele>
        <time>2020-10-19T07:05:56Z</time>
      </trkpt>
      <trkpt lat="42.8065070" lon="-7.6192730">
        <ele>369.7</ele>
        <time>2020-10-19T07:05:57Z</time>
      </trkpt>
      <trkpt lat="42.8065090" lon="-7.6192890">
        <ele>369.6</ele>
        <time>2020-10-19T07:05:58Z</time>
      </trkpt>
      <trkpt lat="42.8065120" lon="-7.6193040">
        <ele>369.5</ele>
        <time>2020-10-19T07:05:59Z</time>
      </trkpt>
      <trkpt lat="42.8065150" lon="-7.6193190">
        <ele>369.4</ele>
        <time>2020-10-19T07:06:00Z</time>
      </trkpt>
      <trkpt lat="42.8065180" lon="-7.6193330">
        <ele>369.3</ele>
        <time>2020-10-19T07:06:01Z</time>
      </trkpt>
      <trkpt lat="42.8065200" lon="-7.6193480">
        <ele>369.2</ele>
        <time>2020-10-19T07:06:02Z</time>
      </trkpt>
      <trkpt lat="42.8065220" lon="-7.6193620">
        <ele>369.1</ele>
        <time>2020-10-19T07:06:03Z</time>
      </trkpt>
      <trkpt lat="42.8065230" lon="-7.6193760">
        <ele>369.0</ele>
        <time>2020-10-19T07:06:04Z</time>
      </trkpt>
      <trkpt lat="42.8065240" lon="-7.6193890">
        <ele>368.9</ele>
        <time>2020-10-19T07:06:05Z</time>
      </trkpt>
      <trkpt lat="42.8065250" lon="-7.6194010">
        <ele>368.8</ele>
        <time>2020-10-19T07:06:06Z</time>
      </trkpt>
      <trkpt lat="42.8065260" lon="-7.6194140">
        <ele>368.7</ele>
        <time>2020-10-19T07:06:07Z</time>
      </trkpt>
      <trkpt lat="42.8065270" lon="-7.6194260">
        <ele>368.6</ele>
        <time>2020-10-19T07:06:08Z</time>
      </trkpt>
      <trkpt lat="42.8065290" lon="-7.6194370">
        <ele>368.5</ele>
        <time>2020-10-19T07:06:09Z</time>
      </trkpt>
      <trkpt lat="42.8065300" lon="-7.6194490">
        <ele>368.4</ele>
        <time>2020-10-19T07:06:10Z</time>
      </trkpt>
      <trkpt lat="42.8065310" lon="-7.6194640">
        <ele>368.3</ele>
        <time>2020-10-19T07:06:11Z</time>
      </trkpt>
      <trkpt lat="42.8065320" lon="-7.6194800">
        <ele>368.2</ele>
        <time>2020-10-19T07:06:12Z</time>
      </trkpt>
      <trkpt lat="42.8065330" lon="-7.6194980">
        <ele>368.1</ele>
        <time>2020-10-19T07:06:13Z</time>
      </trkpt>
      <trkpt lat="42.8065330" lon="-7.6195120">
        <ele>368.0</ele>
        <time>2020-10-19T07:06:14Z</time>
      </trkpt>
      <trkpt lat="42.8065330" lon="-7.6195250">
        <ele>367.9</ele>
        <time>2020-10-19T07:06:15Z</time>
      </trkpt>
      <trkpt lat="42.8065320" lon="-7.6195350">
        <ele>367.8</ele>
        <time>2020-10-19T07:06:16Z</time>
      </trkpt>
      <trkpt lat="42.8065310" lon="-7.6195440">
        <ele>367.7</ele>
        <time>2020-10-19T07:06:17Z</time>
      </trkpt>
      <trkpt lat="42.8065300" lon="-7.6195510">
        <ele>367.7</ele>
        <time>2020-10-19T07:06:18Z</time>
      </trkpt>
      <trkpt lat="42.8065280" lon="-7.6195600">
        <ele>367.6</ele>
        <time>2020-10-19T07:06:19Z</time>
      </trkpt>
      <trkpt lat="42.8065280" lon="-7.6195710">
        <ele>367.5</ele>
        <time>2020-10-19T07:06:20Z</time>
      </trkpt>
      <trkpt lat="42.8065280" lon="-7.6195850">
        <ele>367.4</ele>
        <time>2020-10-19T07:06:21Z</time>
      </trkpt>
      <trkpt lat="42.8065280" lon="-7.6196020">
        <ele>367.3</ele>
        <time>2020-10-19T07:06:22Z</time>
      </trkpt>
      <trkpt lat="42.8065270" lon="-7.6196180">
        <ele>367.2</ele>
        <time>2020-10-19T07:06:23Z</time>
      </trkpt>
      <trkpt lat="42.8065250" lon="-7.6196330">
        <ele>367.1</ele>
        <time>2020-10-19T07:06:24Z</time>
      </trkpt>
      <trkpt lat="42.8065240" lon="-7.6196470">
        <ele>367.0</ele>
        <time>2020-10-19T07:06:25Z</time>
      </trkpt>
      <trkpt lat="42.8065240" lon="-7.6196630">
        <ele>366.9</ele>
        <time>2020-10-19T07:06:26Z</time>
      </trkpt>
      <trkpt lat="42.8065240" lon="-7.6196780">
        <ele>366.8</ele>
        <time>2020-10-19T07:06:27Z</time>
      </trkpt>
      <trkpt lat="42.8065220" lon="-7.6196910">
        <ele>366.7</ele>
        <time>2020-10-19T07:06:28Z</time>
      </trkpt>
      <trkpt lat="42.8065210" lon="-7.6197060">
        <ele>366.6</ele>
        <time>2020-10-19T07:06:29Z</time>
      </trkpt>
      <trkpt lat="42.8065210" lon="-7.6197240">
        <ele>366.5</ele>
        <time>2020-10-19T07:06:30Z</time>
      </trkpt>
      <trkpt lat="42.8065210" lon="-7.6197450">
        <ele>366.3</ele>
        <time>2020-10-19T07:06:31Z</time>
      </trkpt>
      <trkpt lat="42.8065200" lon="-7.6197650">
        <ele>366.2</ele>
        <time>2020-10-19T07:06:32Z</time>
      </trkpt>
      <trkpt lat="42.8065180" lon="-7.6197850">
        <ele>366.1</ele>
        <time>2020-10-19T07:06:33Z</time>
      </trkpt>
      <trkpt lat="42.8065170" lon="-7.6198040">
        <ele>366.0</ele>
        <time>2020-10-19T07:06:34Z</time>
      </trkpt>
      <trkpt lat="42.8065170" lon="-7.6198240">
        <ele>365.9</ele>
        <time>2020-10-19T07:06:35Z</time>
      </trkpt>
      <trkpt lat="42.8065170" lon="-7.6198430">
        <ele>365.8</ele>
        <time>2020-10-19T07:06:36Z</time>
      </trkpt>
      <trkpt lat="42.8065160" lon="-7.6198630">
        <ele>365.6</ele>
        <time>2020-10-19T07:06:37Z</time>
      </trkpt>
      <trkpt lat="42.8065140" lon="-7.6198840">
        <ele>365.5</ele>
        <time>2020-10-19T07:06:38Z</time>
      </trkpt>
      <trkpt lat="42.8065130" lon="-7.6199060">
        <ele>365.4</ele>
        <time>2020-10-19T07:06:39Z</time>
      </trkpt>
      <trkpt lat="42.8065120" lon="-7.6199270">
        <ele>365.3</ele>
        <time>2020-10-19T07:06:40Z</time>
      </trkpt>
      <trkpt lat="42.8065110" lon="-7.6199450">
        <ele>365.2</ele>
        <time>2020-10-19T07:06:41Z</time>
      </trkpt>
      <trkpt lat="42.8065090" lon="-7.6199630">
        <ele>365.1</ele>
        <time>2020-10-19T07:06:42Z</time>
      </trkpt>
      <trkpt lat="42.8065060" lon="-7.6199810">
        <ele>365.0</ele>
        <time>2020-10-19T07:06:43Z</time>
      </trkpt>
      <trkpt lat="42.8065040" lon="-7.6199990">
        <ele>364.9</ele>
        <time>2020-10-19T07:06:44Z</time>
      </trkpt>
      <trkpt lat="42.8065030" lon="-7.6200150">
        <ele>364.8</ele>
        <time>2020-10-19T07:06:45Z</time>
      </trkpt>
      <trkpt lat="42.8065010" lon="-7.6200320">
        <ele>364.8</ele>
        <time>2020-10-19T07:06:46Z</time>
      </trkpt>
      <trkpt lat="42.8065000" lon="-7.6200470">
        <ele>364.7</ele>
        <time>2020-10-19T07:06:47Z</time>
      </trkpt>
      <trkpt lat="42.8064990" lon="-7.6200630">
        <ele>364.6</ele>
        <time>2020-10-19T07:06:48Z</time>
      </trkpt>
      <trkpt lat="42.8064980" lon="-7.6200790">
        <ele>364.5</ele>
        <time>2020-10-19T07:06:49Z</time>
      </trkpt>
      <trkpt lat="42.8064990" lon="-7.6200970">
        <ele>364.5</ele>
        <time>2020-10-19T07:06:50Z</time>
      </trkpt>
      <trkpt lat="42.8064980" lon="-7.6201130">
        <ele>364.4</ele>
        <time>2020-10-19T07:06:51Z</time>
      </trkpt>
      <trkpt lat="42.8064980" lon="-7.6201290">
        <ele>364.3</ele>
        <time>2020-10-19T07:06:52Z</time>
      </trkpt>
      <trkpt lat="42.8064980" lon="-7.6201440">
        <ele>364.2</ele>
        <time>2020-10-19T07:06:53Z</time>
      </trkpt>
      <trkpt lat="42.8064990" lon="-7.6201610">
        <ele>364.2</ele>
        <time>2020-10-19T07:06:54Z</time>
      </trkpt>
      <trkpt lat="42.8065000" lon="-7.6201790">
        <ele>364.1</ele>
        <time>2020-10-19T07:06:55Z</time>
      </trkpt>
      <trkpt lat="42.8064990" lon="-7.6201960">
        <ele>364.0</ele>
        <time>2020-10-19T07:06:56Z</time>
      </trkpt>
      <trkpt lat="42.8064980" lon="-7.6202120">
        <ele>363.9</ele>
        <time>2020-10-19T07:06:57Z</time>
      </trkpt>
      <trkpt lat="42.8064970" lon="-7.6202270">
        <ele>363.9</ele>
        <time>2020-10-19T07:06:58Z</time>
      </trkpt>
      <trkpt lat="42.8064960" lon="-7.6202410">
        <ele>363.8</ele>
        <time>2020-10-19T07:06:59Z</time>
      </trkpt>
      <trkpt lat="42.8064940" lon="-7.6202560">
        <ele>363.7</ele>
        <time>2020-10-19T07:07:00Z</time>
      </trkpt>
      <trkpt lat="42.8064930" lon="-7.6202720">
        <ele>363.7</ele>
        <time>2020-10-19T07:07:01Z</time>
      </trkpt>
      <trkpt lat="42.8064930" lon="-7.6202880">
        <ele>363.6</ele>
        <time>2020-10-19T07:07:02Z</time>
      </trkpt>
      <trkpt lat="42.8064930" lon="-7.6203050">
        <ele>363.5</ele>
        <time>2020-10-19T07:07:03Z</time>
      </trkpt>
      <trkpt lat="42.8064920" lon="-7.6203210">
        <ele>363.5</ele>
        <time>2020-10-19T07:07:04Z</time>
      </trkpt>
      <trkpt lat="42.8064900" lon="-7.6203370">
        <ele>363.4</ele>
        <time>2020-10-19T07:07:05Z</time>
      </trkpt>
      <trkpt lat="42.8064890" lon="-7.6203530">
        <ele>363.3</ele>
        <time>2020-10-19T07:07:06Z</time>
      </trkpt>
      <trkpt lat="42.8064880" lon="-7.6203700">
        <ele>363.3</ele>
        <time>2020-10-19T07:07:07Z</time>
      </trkpt>
      <trkpt lat="42.8064870" lon="-7.6203870">
        <ele>363.2</ele>
        <time>2020-10-19T07:07:08Z</time>
      </trkpt>
      <trkpt lat="42.8064860" lon="-7.6204040">
        <ele>363.1</ele>
        <time>2020-10-19T07:07:09Z</time>
      </trkpt>
      <trkpt lat="42.8064840" lon="-7.6204210">
        <ele>363.1</ele>
        <time>2020-10-19T07:07:10Z</time>
      </trkpt>
      <trkpt lat="42.8064820" lon="-7.6204390">
        <ele>363.0</ele>
        <time>2020-10-19T07:07:11Z</time>
      </trkpt>
      <trkpt lat="42.8064810" lon="-7.6204560">
        <ele>362.9</ele>
        <time>2020-10-19T07:07:12Z</time>
      </trkpt>
      <trkpt lat="42.8064790" lon="-7.6204730">
        <ele>362.8</ele>
        <time>2020-10-19T07:07:13Z</time>
      </trkpt>
      <trkpt lat="42.8064780" lon="-7.6204880">
        <ele>362.8</ele>
        <time>2020-10-19T07:07:14Z</time>
      </trkpt>
      <trkpt lat="42.8064770" lon="-7.6205040">
        <ele>362.7</ele>
        <time>2020-10-19T07:07:15Z</time>
      </trkpt>
      <trkpt lat="42.8064760" lon="-7.6205200">
        <ele>362.6</ele>
        <time>2020-10-19T07:07:16Z</time>
      </trkpt>
      <trkpt lat="42.8064760" lon="-7.6205360">
        <ele>362.6</ele>
        <time>2020-10-19T07:07:17Z</time>
      </trkpt>
      <trkpt lat="42.8064770" lon="-7.6205500">
        <ele>362.5</ele>
        <time>2020-10-19T07:07:18Z</time>
      </trkpt>
      <trkpt lat="42.8064790" lon="-7.6205620">
        <ele>362.5</ele>
        <time>2020-10-19T07:07:19Z</time>
      </trkpt>
      <trkpt lat="42.8064800" lon="-7.6205730">
        <ele>362.4</ele>
        <time>2020-10-19T07:07:20Z</time>
      </trkpt>
      <trkpt lat="42.8064800" lon="-7.6205870">
        <ele>362.4</ele>
        <time>2020-10-19T07:07:21Z</time>
      </trkpt>
      <trkpt lat="42.8064790" lon="-7.6206000">
        <ele>362.3</ele>
        <time>2020-10-19T07:07:22Z</time>
      </trkpt>
      <trkpt lat="42.8064770" lon="-7.6206120">
        <ele>362.3</ele>
        <time>2020-10-19T07:07:23Z</time>
      </trkpt>
      <trkpt lat="42.8064760" lon="-7.6206230">
        <ele>362.2</ele>
        <time>2020-10-19T07:07:24Z</time>
      </trkpt>
      <trkpt lat="42.8064760" lon="-7.6206360">
        <ele>362.2</ele>
        <time>2020-10-19T07:07:25Z</time>
      </trkpt>
      <trkpt lat="42.8064760" lon="-7.6206500">
        <ele>362.1</ele>
        <time>2020-10-19T07:07:26Z</time>
      </trkpt>
      <trkpt lat="42.8064750" lon="-7.6206640">
        <ele>362.1</ele>
        <time>2020-10-19T07:07:27Z</time>
      </trkpt>
      <trkpt lat="42.8064750" lon="-7.6206780">
        <ele>362.0</ele>
        <time>2020-10-19T07:07:28Z</time>
      </trkpt>
      <trkpt lat="42.8064750" lon="-7.6206930">
        <ele>361.9</ele>
        <time>2020-10-19T07:07:29Z</time>
      </trkpt>
      <trkpt lat="42.8064750" lon="-7.6207070">
        <ele>361.9</ele>
        <time>2020-10-19T07:07:30Z</time>
      </trkpt>
      <trkpt lat="42.8064750" lon="-7.6207210">
        <ele>361.8</ele>
        <time>2020-10-19T07:07:31Z</time>
      </trkpt>
      <trkpt lat="42.8064750" lon="-7.6207330">
        <ele>361.8</ele>
        <time>2020-10-19T07:07:32Z</time>
      </trkpt>
      <trkpt lat="42.8064750" lon="-7.6207470">
        <ele>361.7</ele>
        <time>2020-10-19T07:07:33Z</time>
      </trkpt>
      <trkpt lat="42.8064760" lon="-7.6207610">
        <ele>361.6</ele>
        <time>2020-10-19T07:07:34Z</time>
      </trkpt>
      <trkpt lat="42.8064760" lon="-7.6207760">
        <ele>361.6</ele>
        <time>2020-10-19T07:07:35Z</time>
      </trkpt>
      <trkpt lat="42.8064770" lon="-7.6207920">
        <ele>361.5</ele>
        <time>2020-10-19T07:07:36Z</time>
      </trkpt>
      <trkpt lat="42.8064770" lon="-7.6208090">
        <ele>361.4</ele>
        <time>2020-10-19T07:07:37Z</time>
      </trkpt>
      <trkpt lat="42.8064780" lon="-7.6208260">
        <ele>361.3</ele>
        <time>2020-10-19T07:07:38Z</time>
      </trkpt>
      <trkpt lat="42.8064770" lon="-7.6208410">
        <ele>361.3</ele>
        <time>2020-10-19T07:07:39Z</time>
      </trkpt>
      <trkpt lat="42.8064760" lon="-7.6208580">
        <ele>361.2</ele>
        <time>2020-10-19T07:07:40Z</time>
      </trkpt>
      <trkpt lat="42.8064750" lon="-7.6208740">
        <ele>361.1</ele>
        <time>2020-10-19T07:07:41Z</time>
      </trkpt>
      <trkpt lat="42.8064740" lon="-7.6208900">
        <ele>361.0</ele>
        <time>2020-10-19T07:07:42Z</time>
      </trkpt>
      <trkpt lat="42.8064720" lon="-7.6209050">
        <ele>361.0</ele>
        <time>2020-10-19T07:07:43Z</time>
      </trkpt>
      <trkpt lat="42.8064680" lon="-7.6209140">
        <ele>360.9</ele>
        <time>2020-10-19T07:07:44Z</time>
      </trkpt>
      <trkpt lat="42.8064640" lon="-7.6209220">
        <ele>360.9</ele>
        <time>2020-10-19T07:07:45Z</time>
      </trkpt>
      <trkpt lat="42.8064630" lon="-7.6209270">
        <ele>360.9</ele>
        <time>2020-10-19T07:07:46Z</time>
      </trkpt>
      <trkpt lat="42.8064620" lon="-7.6209320">
        <ele>360.8</ele>
        <time>2020-10-19T07:07:47Z</time>
      </trkpt>
      <trkpt lat="42.8064610" lon="-7.6209370">
        <ele>360.8</ele>
        <time>2020-10-19T07:07:48Z</time>
      </trkpt>
      <trkpt lat="42.8064570" lon="-7.6209400">
        <ele>360.8</ele>
        <time>2020-10-19T07:07:49Z</time>
      </trkpt>
      <trkpt lat="42.8064550" lon="-7.6209410">
        <ele>360.7</ele>
        <time>2020-10-19T07:07:50Z</time>
      </trkpt>
      <trkpt lat="42.8064520" lon="-7.6209400">
        <ele>360.7</ele>
        <time>2020-10-19T07:07:51Z</time>
      </trkpt>
      <trkpt lat="42.8064490" lon="-7.6209400">
        <ele>360.7</ele>
        <time>2020-10-19T07:07:52Z</time>
      </trkpt>
      <trkpt lat="42.8064430" lon="-7.6209420">
        <ele>360.6</ele>
        <time>2020-10-19T07:07:53Z</time>
      </trkpt>
      <trkpt lat="42.8064340" lon="-7.6209430">
        <ele>360.5</ele>
        <time>2020-10-19T07:07:54Z</time>
      </trkpt>
      <trkpt lat="42.8064230" lon="-7.6209430">
        <ele>360.4</ele>
        <time>2020-10-19T07:07:55Z</time>
      </trkpt>
      <trkpt lat="42.8064130" lon="-7.6209440">
        <ele>360.4</ele>
        <time>2020-10-19T07:07:56Z</time>
      </trkpt>
      <trkpt lat="42.8064020" lon="-7.6209440">
        <ele>360.3</ele>
        <time>2020-10-19T07:07:57Z</time>
      </trkpt>
      <trkpt lat="42.8063910" lon="-7.6209450">
        <ele>360.2</ele>
        <time>2020-10-19T07:07:58Z</time>
      </trkpt>
      <trkpt lat="42.8063790" lon="-7.6209450">
        <ele>360.0</ele>
        <time>2020-10-19T07:07:59Z</time>
      </trkpt>
      <trkpt lat="42.8063670" lon="-7.6209420">
        <ele>358.8</ele>
        <time>2020-10-19T07:08:00Z</time>
      </trkpt>
      <trkpt lat="42.8063570" lon="-7.6209340">
        <ele>358.8</ele>
        <time>2020-10-19T07:08:01Z</time>
      </trkpt>
      <trkpt lat="42.8063490" lon="-7.6209220">
        <ele>358.7</ele>
        <time>2020-10-19T07:08:02Z</time>
      </trkpt>
      <trkpt lat="42.8063440" lon="-7.6209080">
        <ele>358.6</ele>
        <time>2020-10-19T07:08:03Z</time>
      </trkpt>
      <trkpt lat="42.8063400" lon="-7.6208930">
        <ele>358.5</ele>
        <time>2020-10-19T07:08:04Z</time>
      </trkpt>
      <trkpt lat="42.8063360" lon="-7.6208770">
        <ele>358.5</ele>
        <time>2020-10-19T07:08:05Z</time>
      </trkpt>
      <trkpt lat="42.8063320" lon="-7.6208620">
        <ele>358.4</ele>
        <time>2020-10-19T07:08:06Z</time>
      </trkpt>
      <trkpt lat="42.8063300" lon="-7.6208460">
        <ele>358.3</ele>
        <time>2020-10-19T07:08:07Z</time>
      </trkpt>
      <trkpt lat="42.8063280" lon="-7.6208300">
        <ele>358.2</ele>
        <time>2020-10-19T07:08:08Z</time>
      </trkpt>
      <trkpt lat="42.8063270" lon="-7.6208150">
        <ele>358.1</ele>
        <time>2020-10-19T07:08:09Z</time>
      </trkpt>
      <trkpt lat="42.8063260" lon="-7.6208000">
        <ele>358.1</ele>
        <time>2020-10-19T07:08:10Z</time>
      </trkpt>
      <trkpt lat="42.8063240" lon="-7.6207850">
        <ele>358.0</ele>
        <time>2020-10-19T07:08:11Z</time>
      </trkpt>
      <trkpt lat="42.8063230" lon="-7.6207690">
        <ele>357.9</ele>
        <time>2020-10-19T07:08:12Z</time>
      </trkpt>
      <trkpt lat="42.8063220" lon="-7.6207540">
        <ele>357.8</ele>
        <time>2020-10-19T07:08:13Z</time>
      </trkpt>
      <trkpt lat="42.8063210" lon="-7.6207380">
        <ele>357.7</ele>
        <time>2020-10-19T07:08:14Z</time>
      </trkpt>
      <trkpt lat="42.8063210" lon="-7.6207220">
        <ele>357.6</ele>
        <time>2020-10-19T07:08:15Z</time>
      </trkpt>
      <trkpt lat="42.8063200" lon="-7.6207070">
        <ele>357.6</ele>
        <time>2020-10-19T07:08:16Z</time>
      </trkpt>
      <trkpt lat="42.8063210" lon="-7.6206900">
        <ele>357.5</ele>
        <time>2020-10-19T07:08:17Z</time>
      </trkpt>
      <trkpt lat="42.8063200" lon="-7.6206750">
        <ele>357.4</ele>
        <time>2020-10-19T07:08:18Z</time>
      </trkpt>
      <trkpt lat="42.8063210" lon="-7.6206590">
        <ele>357.3</ele>
        <time>2020-10-19T07:08:19Z</time>
      </trkpt>
      <trkpt lat="42.8063200" lon="-7.6206430">
        <ele>357.2</ele>
        <time>2020-10-19T07:08:20Z</time>
      </trkpt>
      <trkpt lat="42.8063190" lon="-7.6206290">
        <ele>357.2</ele>
        <time>2020-10-19T07:08:21Z</time>
      </trkpt>
      <trkpt lat="42.8063180" lon="-7.6206150">
        <ele>357.1</ele>
        <time>2020-10-19T07:08:22Z</time>
      </trkpt>
      <trkpt lat="42.8063190" lon="-7.6206010">
        <ele>357.0</ele>
        <time>2020-10-19T07:08:23Z</time>
      </trkpt>
      <trkpt lat="42.8063190" lon="-7.6205850">
        <ele>356.9</ele>
        <time>2020-10-19T07:08:24Z</time>
      </trkpt>
      <trkpt lat="42.8063190" lon="-7.6205680">
        <ele>356.8</ele>
        <time>2020-10-19T07:08:25Z</time>
      </trkpt>
      <trkpt lat="42.8063190" lon="-7.6205510">
        <ele>356.7</ele>
        <time>2020-10-19T07:08:26Z</time>
      </trkpt>
      <trkpt lat="42.8063190" lon="-7.6205340">
        <ele>356.7</ele>
        <time>2020-10-19T07:08:27Z</time>
      </trkpt>
      <trkpt lat="42.8063180" lon="-7.6205170">
        <ele>356.6</ele>
        <time>2020-10-19T07:08:28Z</time>
      </trkpt>
      <trkpt lat="42.8063190" lon="-7.6205010">
        <ele>356.5</ele>
        <time>2020-10-19T07:08:29Z</time>
      </trkpt>
      <trkpt lat="42.8063190" lon="-7.6204840">
        <ele>356.4</ele>
        <time>2020-10-19T07:08:30Z</time>
      </trkpt>
      <trkpt lat="42.8063190" lon="-7.6204680">
        <ele>356.3</ele>
        <time>2020-10-19T07:08:31Z</time>
      </trkpt>
      <trkpt lat="42.8063200" lon="-7.6204520">
        <ele>356.3</ele>
        <time>2020-10-19T07:08:32Z</time>
      </trkpt>
      <trkpt lat="42.8063200" lon="-7.6204360">
        <ele>356.2</ele>
        <time>2020-10-19T07:08:33Z</time>
      </trkpt>
      <trkpt lat="42.8063210" lon="-7.6204200">
        <ele>356.1</ele>
        <time>2020-10-19T07:08:34Z</time>
      </trkpt>
      <trkpt lat="42.8063210" lon="-7.6204030">
        <ele>356.0</ele>
        <time>2020-10-19T07:08:35Z</time>
      </trkpt>
      <trkpt lat="42.8063210" lon="-7.6203870">
        <ele>355.9</ele>
        <time>2020-10-19T07:08:36Z</time>
      </trkpt>
      <trkpt lat="42.8063200" lon="-7.6203700">
        <ele>355.9</ele>
        <time>2020-10-19T07:08:37Z</time>
      </trkpt>
      <trkpt lat="42.8063190" lon="-7.6203530">
        <ele>355.8</ele>
        <time>2020-10-19T07:08:38Z</time>
      </trkpt>
      <trkpt lat="42.8063180" lon="-7.6203360">
        <ele>355.7</ele>
        <time>2020-10-19T07:08:39Z</time>
      </trkpt>
      <trkpt lat="42.8063190" lon="-7.6203190">
        <ele>355.6</ele>
        <time>2020-10-19T07:08:40Z</time>
      </trkpt>
      <trkpt lat="42.8063190" lon="-7.6203020">
        <ele>355.6</ele>
        <time>2020-10-19T07:08:41Z</time>
      </trkpt>
      <trkpt lat="42.8063200" lon="-7.6202860">
        <ele>355.5</ele>
        <time>2020-10-19T07:08:42Z</time>
      </trkpt>
      <trkpt lat="42.8063200" lon="-7.6202700">
        <ele>355.4</ele>
        <time>2020-10-19T07:08:43Z</time>
      </trkpt>
      <trkpt lat="42.8063220" lon="-7.6202550">
        <ele>355.3</ele>
        <time>2020-10-19T07:08:44Z</time>
      </trkpt>
      <trkpt lat="42.8063230" lon="-7.6202390">
        <ele>355.3</ele>
        <time>2020-10-19T07:08:45Z</time>
      </trkpt>
      <trkpt lat="42.8063250" lon="-7.6202230">
        <ele>355.2</ele>
        <time>2020-10-19T07:08:46Z</time>
      </trkpt>
      <trkpt lat="42.8063250" lon="-7.6202060">
        <ele>355.1</ele>
        <time>2020-10-19T07:08:47Z</time>
      </trkpt>
      <trkpt lat="42.8063250" lon="-7.6201900">
        <ele>355.0</ele>
        <time>2020-10-19T07:08:48Z</time>
      </trkpt>
      <trkpt lat="42.8063250" lon="-7.6201740">
        <ele>355.0</ele>
        <time>2020-10-19T07:08:49Z</time>
      </trkpt>
      <trkpt lat="42.8063250" lon="-7.6201580">
        <ele>354.9</ele>
        <time>2020-10-19T07:08:50Z</time>
      </trkpt>
      <trkpt lat="42.8063250" lon="-7.6201420">
        <ele>354.8</ele>
        <time>2020-10-19T07:08:51Z</time>
      </trkpt>
      <trkpt lat="42.8063250" lon="-7.6201250">
        <ele>354.8</ele>
        <time>2020-10-19T07:08:52Z</time>
      </trkpt>
      <trkpt lat="42.8063240" lon="-7.6201080">
        <ele>354.7</ele>
        <time>2020-10-19T07:08:53Z</time>
      </trkpt>
      <trkpt lat="42.8063230" lon="-7.6200910">
        <ele>354.6</ele>
        <time>2020-10-19T07:08:54Z</time>
      </trkpt>
      <trkpt lat="42.8063220" lon="-7.6200750">
        <ele>354.6</ele>
        <time>2020-10-19T07:08:55Z</time>
      </trkpt>
      <trkpt lat="42.8063220" lon="-7.6200590">
        <ele>354.5</ele>
        <time>2020-10-19T07:08:56Z</time>
      </trkpt>
      <trkpt lat="42.8063210" lon="-7.6200440">
        <ele>354.4</ele>
        <time>2020-10-19T07:08:57Z</time>
      </trkpt>
      <trkpt lat="42.8063210" lon="-7.6200290">
        <ele>354.4</ele>
        <time>2020-10-19T07:08:58Z</time>
      </trkpt>
      <trkpt lat="42.8063210" lon="-7.6200120">
        <ele>354.3</ele>
        <time>2020-10-19T07:08:59Z</time>
      </trkpt>
      <trkpt lat="42.8063220" lon="-7.6199960">
        <ele>354.2</ele>
        <time>2020-10-19T07:09:00Z</time>
      </trkpt>
      <trkpt lat="42.8063230" lon="-7.6199790">
        <ele>354.1</ele>
        <time>2020-10-19T07:09:01Z</time>
      </trkpt>
      <trkpt lat="42.8063230" lon="-7.6199630">
        <ele>354.1</ele>
        <time>2020-10-19T07:09:02Z</time>
      </trkpt>
      <trkpt lat="42.8063240" lon="-7.6199470">
        <ele>354.0</ele>
        <time>2020-10-19T07:09:03Z</time>
      </trkpt>
      <trkpt lat="42.8063250" lon="-7.6199320">
        <ele>354.0</ele>
        <time>2020-10-19T07:09:04Z</time>
      </trkpt>
      <trkpt lat="42.8063270" lon="-7.6199180">
        <ele>353.9</ele>
        <time>2020-10-19T07:09:05Z</time>
      </trkpt>
      <trkpt lat="42.8063290" lon="-7.6199050">
        <ele>353.9</ele>
        <time>2020-10-19T07:09:06Z</time>
      </trkpt>
      <trkpt lat="42.8063300" lon="-7.6198930">
        <ele>353.8</ele>
        <time>2020-10-19T07:09:07Z</time>
      </trkpt>
      <trkpt lat="42.8063300" lon="-7.6198800">
        <ele>353.8</ele>
        <time>2020-10-19T07:09:08Z</time>
      </trkpt>
      <trkpt lat="42.8063270" lon="-7.6198650">
        <ele>353.7</ele>
        <time>2020-10-19T07:09:09Z</time>
      </trkpt>
      <trkpt lat="42.8063240" lon="-7.6198490">
        <ele>353.6</ele>
        <time>2020-10-19T07:09:10Z</time>
      </trkpt>
      <trkpt lat="42.8063200" lon="-7.6198350">
        <ele>353.6</ele>
        <time>2020-10-19T07:09:11Z</time>
      </trkpt>
      <trkpt lat="42.8063160" lon="-7.6198200">
        <ele>353.5</ele>
        <time>2020-10-19T07:09:12Z</time>
      </trkpt>
      <trkpt lat="42.8063120" lon="-7.6198050">
        <ele>353.5</ele>
        <time>2020-10-19T07:09:13Z</time>
      </trkpt>
      <trkpt lat="42.8063080" lon="-7.6197890">
        <ele>353.4</ele>
        <time>2020-10-19T07:09:14Z</time>
      </trkpt>
      <trkpt lat="42.8063040" lon="-7.6197740">
        <ele>353.4</ele>
        <time>2020-10-19T07:09:15Z</time>
      </trkpt>
      <trkpt lat="42.8063010" lon="-7.6197590">
        <ele>353.3</ele>
        <time>2020-10-19T07:09:16Z</time>
      </trkpt>
      <trkpt lat="42.8062970" lon="-7.6197440">
        <ele>353.3</ele>
        <time>2020-10-19T07:09:17Z</time>
      </trkpt>
      <trkpt lat="42.8062920" lon="-7.6197290">
        <ele>353.2</ele>
        <time>2020-10-19T07:09:18Z</time>
      </trkpt>
      <trkpt lat="42.8062850" lon="-7.6197140">
        <ele>353.2</ele>
        <time>2020-10-19T07:09:19Z</time>
      </trkpt>
      <trkpt lat="42.8062790" lon="-7.6196990">
        <ele>353.1</ele>
        <time>2020-10-19T07:09:20Z</time>
      </trkpt>
      <trkpt lat="42.8062740" lon="-7.6196830">
        <ele>353.1</ele>
        <time>2020-10-19T07:09:21Z</time>
      </trkpt>
      <trkpt lat="42.8062690" lon="-7.6196670">
        <ele>353.0</ele>
        <time>2020-10-19T07:09:22Z</time>
      </trkpt>
      <trkpt lat="42.8062630" lon="-7.6196510">
        <ele>352.9</ele>
        <time>2020-10-19T07:09:23Z</time>
      </trkpt>
      <trkpt lat="42.8062580" lon="-7.6196360">
        <ele>352.9</ele>
        <time>2020-10-19T07:09:24Z</time>
      </trkpt>
      <trkpt lat="42.8062520" lon="-7.6196210">
        <ele>352.8</ele>
        <time>2020-10-19T07:09:25Z</time>
      </trkpt>
      <trkpt lat="42.8062460" lon="-7.6196060">
        <ele>352.8</ele>
        <time>2020-10-19T07:09:26Z</time>
      </trkpt>
      <trkpt lat="42.8062410" lon="-7.6195920">
        <ele>352.7</ele>
        <time>2020-10-19T07:09:27Z</time>
      </trkpt>
      <trkpt lat="42.8062350" lon="-7.6195780">
        <ele>352.7</ele>
        <time>2020-10-19T07:09:28Z</time>
      </trkpt>
      <trkpt lat="42.8062300" lon="-7.6195640">
        <ele>352.7</ele>
        <time>2020-10-19T07:09:29Z</time>
      </trkpt>
      <trkpt lat="42.8062240" lon="-7.6195480">
        <ele>352.6</ele>
        <time>2020-10-19T07:09:30Z</time>
      </trkpt>
      <trkpt lat="42.8062190" lon="-7.6195320">
        <ele>352.5</ele>
        <time>2020-10-19T07:09:31Z</time>
      </trkpt>
      <trkpt lat="42.8062130" lon="-7.6195170">
        <ele>352.5</ele>
        <time>2020-10-19T07:09:32Z</time>
      </trkpt>
      <trkpt lat="42.8062090" lon="-7.6195020">
        <ele>352.5</ele>
        <time>2020-10-19T07:09:33Z</time>
      </trkpt>
      <trkpt lat="42.8062040" lon="-7.6194870">
        <ele>352.4</ele>
        <time>2020-10-19T07:09:34Z</time>
      </trkpt>
      <trkpt lat="42.8061990" lon="-7.6194720">
        <ele>352.4</ele>
        <time>2020-10-19T07:09:35Z</time>
      </trkpt>
      <trkpt lat="42.8061930" lon="-7.6194570">
        <ele>352.3</ele>
        <time>2020-10-19T07:09:36Z</time>
      </trkpt>
      <trkpt lat="42.8061870" lon="-7.6194420">
        <ele>352.3</ele>
        <time>2020-10-19T07:09:37Z</time>
      </trkpt>
      <trkpt lat="42.8061800" lon="-7.6194270">
        <ele>352.2</ele>
        <time>2020-10-19T07:09:38Z</time>
      </trkpt>
      <trkpt lat="42.8061740" lon="-7.6194120">
        <ele>352.2</ele>
        <time>2020-10-19T07:09:39Z</time>
      </trkpt>
      <trkpt lat="42.8061670" lon="-7.6193980">
        <ele>352.5</ele>
        <time>2020-10-19T07:09:40Z</time>
      </trkpt>
      <trkpt lat="42.8061610" lon="-7.6193840">
        <ele>352.7</ele>
        <time>2020-10-19T07:09:41Z</time>
      </trkpt>
      <trkpt lat="42.8061540" lon="-7.6193700">
        <ele>352.9</ele>
        <time>2020-10-19T07:09:42Z</time>
      </trkpt>
      <trkpt lat="42.8061470" lon="-7.6193560">
        <ele>353.2</ele>
        <time>2020-10-19T07:09:43Z</time>
      </trkpt>
      <trkpt lat="42.8061390" lon="-7.6193420">
        <ele>353.4</ele>
        <time>2020-10-19T07:09:44Z</time>
      </trkpt>
      <trkpt lat="42.8061320" lon="-7.6193270">
        <ele>353.7</ele>
        <time>2020-10-19T07:09:45Z</time>
      </trkpt>
      <trkpt lat="42.8061250" lon="-7.6193120">
        <ele>353.8</ele>
        <time>2020-10-19T07:09:46Z</time>
      </trkpt>
      <trkpt lat="42.8061190" lon="-7.6192980">
        <ele>353.8</ele>
        <time>2020-10-19T07:09:47Z</time>
      </trkpt>
      <trkpt lat="42.8061120" lon="-7.6192840">
        <ele>353.7</ele>
        <time>2020-10-19T07:09:48Z</time>
      </trkpt>
      <trkpt lat="42.8061040" lon="-7.6192710">
        <ele>353.7</ele>
        <time>2020-10-19T07:09:49Z</time>
      </trkpt>
      <trkpt lat="42.8060960" lon="-7.6192590">
        <ele>353.7</ele>
        <time>2020-10-19T07:09:50Z</time>
      </trkpt>
      <trkpt lat="42.8060870" lon="-7.6192470">
        <ele>353.6</ele>
        <time>2020-10-19T07:09:51Z</time>
      </trkpt>
      <trkpt lat="42.8060780" lon="-7.6192350">
        <ele>353.6</ele>
        <time>2020-10-19T07:09:52Z</time>
      </trkpt>
      <trkpt lat="42.8060680" lon="-7.6192250">
        <ele>353.5</ele>
        <time>2020-10-19T07:09:53Z</time>
      </trkpt>
      <trkpt lat="42.8060570" lon="-7.6192140">
        <ele>353.5</ele>
        <time>2020-10-19T07:09:54Z</time>
      </trkpt>
      <trkpt lat="42.8060450" lon="-7.6192040">
        <ele>353.5</ele>
        <time>2020-10-19T07:09:55Z</time>
      </trkpt>
      <trkpt lat="42.8060340" lon="-7.6191950">
        <ele>353.4</ele>
        <time>2020-10-19T07:09:56Z</time>
      </trkpt>
      <trkpt lat="42.8060260" lon="-7.6191870">
        <ele>353.4</ele>
        <time>2020-10-19T07:09:57Z</time>
      </trkpt>
      <trkpt lat="42.8060190" lon="-7.6191790">
        <ele>353.4</ele>
        <time>2020-10-19T07:09:58Z</time>
      </trkpt>
      <trkpt lat="42.8060100" lon="-7.6191730">
        <ele>353.4</ele>
        <time>2020-10-19T07:09:59Z</time>
      </trkpt>
      <trkpt lat="42.8060000" lon="-7.6191640">
        <ele>353.3</ele>
        <time>2020-10-19T07:10:00Z</time>
      </trkpt>
      <trkpt lat="42.8059890" lon="-7.6191560">
        <ele>353.3</ele>
        <time>2020-10-19T07:10:01Z</time>
      </trkpt>
      <trkpt lat="42.8059790" lon="-7.6191480">
        <ele>353.3</ele>
        <time>2020-10-19T07:10:02Z</time>
      </trkpt>
      <trkpt lat="42.8059680" lon="-7.6191410">
        <ele>353.2</ele>
        <time>2020-10-19T07:10:03Z</time>
      </trkpt>
      <trkpt lat="42.8059580" lon="-7.6191340">
        <ele>353.2</ele>
        <time>2020-10-19T07:10:04Z</time>
      </trkpt>
      <trkpt lat="42.8059490" lon="-7.6191260">
        <ele>353.2</ele>
        <time>2020-10-19T07:10:05Z</time>
      </trkpt>
      <trkpt lat="42.8059390" lon="-7.6191200">
        <ele>353.2</ele>
        <time>2020-10-19T07:10:06Z</time>
      </trkpt>
      <trkpt lat="42.8059280" lon="-7.6191140">
        <ele>353.1</ele>
        <time>2020-10-19T07:10:07Z</time>
      </trkpt>
      <trkpt lat="42.8059160" lon="-7.6191070">
        <ele>353.1</ele>
        <time>2020-10-19T07:10:08Z</time>
      </trkpt>
      <trkpt lat="42.8059040" lon="-7.6191000">
        <ele>353.1</ele>
        <time>2020-10-19T07:10:09Z</time>
      </trkpt>
      <trkpt lat="42.8058930" lon="-7.6190930">
        <ele>353.1</ele>
        <time>2020-10-19T07:10:10Z</time>
      </trkpt>
      <trkpt lat="42.8058810" lon="-7.6190860">
        <ele>353.0</ele>
        <time>2020-10-19T07:10:11Z</time>
      </trkpt>
      <trkpt lat="42.8058700" lon="-7.6190790">
        <ele>353.0</ele>
        <time>2020-10-19T07:10:12Z</time>
      </trkpt>
      <trkpt lat="42.8058580" lon="-7.6190730">
        <ele>353.0</ele>
        <time>2020-10-19T07:10:13Z</time>
      </trkpt>
      <trkpt lat="42.8058480" lon="-7.6190660">
        <ele>352.9</ele>
        <time>2020-10-19T07:10:14Z</time>
      </trkpt>
      <trkpt lat="42.8058380" lon="-7.6190590">
        <ele>352.9</ele>
        <time>2020-10-19T07:10:15Z</time>
      </trkpt>
      <trkpt lat="42.8058280" lon="-7.6190530">
        <ele>352.9</ele>
        <time>2020-10-19T07:10:16Z</time>
      </trkpt>
      <trkpt lat="42.8058170" lon="-7.6190470">
        <ele>352.9</ele>
        <time>2020-10-19T07:10:17Z</time>
      </trkpt>
      <trkpt lat="42.8058070" lon="-7.6190430">
        <ele>352.9</ele>
        <time>2020-10-19T07:10:18Z</time>
      </trkpt>
      <trkpt lat="42.8057970" lon="-7.6190400">
        <ele>352.8</ele>
        <time>2020-10-19T07:10:19Z</time>
      </trkpt>
      <trkpt lat="42.8057870" lon="-7.6190400">
        <ele>352.8</ele>
        <time>2020-10-19T07:10:20Z</time>
      </trkpt>
      <trkpt lat="42.8057770" lon="-7.6190420">
        <ele>352.8</ele>
        <time>2020-10-19T07:10:21Z</time>
      </trkpt>
      <trkpt lat="42.8057670" lon="-7.6190470">
        <ele>352.8</ele>
        <time>2020-10-19T07:10:22Z</time>
      </trkpt>
      <trkpt lat="42.8057580" lon="-7.6190520">
        <ele>352.8</ele>
        <time>2020-10-19T07:10:23Z</time>
      </trkpt>
      <trkpt lat="42.8057490" lon="-7.6190590">
        <ele>352.7</ele>
        <time>2020-10-19T07:10:24Z</time>
      </trkpt>
      <trkpt lat="42.8057410" lon="-7.6190680">
        <ele>352.7</ele>
        <time>2020-10-19T07:10:25Z</time>
      </trkpt>
      <trkpt lat="42.8057350" lon="-7.6190780">
        <ele>352.7</ele>
        <time>2020-10-19T07:10:26Z</time>
      </trkpt>
      <trkpt lat="42.8057290" lon="-7.6190900">
        <ele>352.7</ele>
        <time>2020-10-19T07:10:27Z</time>
      </trkpt>
      <trkpt lat="42.8057230" lon="-7.6191010">
        <ele>352.7</ele>
        <time>2020-10-19T07:10:28Z</time>
      </trkpt>
      <trkpt lat="42.8057170" lon="-7.6191140">
        <ele>352.6</ele>
        <time>2020-10-19T07:10:29Z</time>
      </trkpt>
      <trkpt lat="42.8057110" lon="-7.6191280">
        <ele>352.6</ele>
        <time>2020-10-19T07:10:30Z</time>
      </trkpt>
      <trkpt lat="42.8057050" lon="-7.6191400">
        <ele>352.6</ele>
        <time>2020-10-19T07:10:31Z</time>
      </trkpt>
      <trkpt lat="42.8056990" lon="-7.6191520">
        <ele>352.6</ele>
        <time>2020-10-19T07:10:32Z</time>
      </trkpt>
      <trkpt lat="42.8056950" lon="-7.6191620">
        <ele>352.6</ele>
        <time>2020-10-19T07:10:33Z</time>
      </trkpt>
      <trkpt lat="42.8056900" lon="-7.6191740">
        <ele>352.5</ele>
        <time>2020-10-19T07:10:34Z</time>
      </trkpt>
      <trkpt lat="42.8056820" lon="-7.6191890">
        <ele>352.5</ele>
        <time>2020-10-19T07:10:35Z</time>
      </trkpt>
      <trkpt lat="42.8056730" lon="-7.6192080">
        <ele>352.5</ele>
        <time>2020-10-19T07:10:36Z</time>
      </trkpt>
      <trkpt lat="42.8056650" lon="-7.6192260">
        <ele>352.5</ele>
        <time>2020-10-19T07:10:37Z</time>
      </trkpt>
      <trkpt lat="42.8056590" lon="-7.6192410">
        <ele>352.5</ele>
        <time>2020-10-19T07:10:38Z</time>
      </trkpt>
      <trkpt lat="42.8056540" lon="-7.6192540">
        <ele>352.4</ele>
        <time>2020-10-19T07:10:39Z</time>
      </trkpt>
      <trkpt lat="42.8056490" lon="-7.6192660">
        <ele>352.4</ele>
        <time>2020-10-19T07:10:40Z</time>
      </trkpt>
      <trkpt lat="42.8056440" lon="-7.6192780">
        <ele>352.4</ele>
        <time>2020-10-19T07:10:41Z</time>
      </trkpt>
      <trkpt lat="42.8056380" lon="-7.6192910">
        <ele>352.4</ele>
        <time>2020-10-19T07:10:42Z</time>
      </trkpt>
      <trkpt lat="42.8056320" lon="-7.6193050">
        <ele>352.4</ele>
        <time>2020-10-19T07:10:43Z</time>
      </trkpt>
      <trkpt lat="42.8056260" lon="-7.6193190">
        <ele>352.3</ele>
        <time>2020-10-19T07:10:44Z</time>
      </trkpt>
      <trkpt lat="42.8056210" lon="-7.6193330">
        <ele>352.3</ele>
        <time>2020-10-19T07:10:45Z</time>
      </trkpt>
      <trkpt lat="42.8056150" lon="-7.6193470">
        <ele>352.3</ele>
        <time>2020-10-19T07:10:46Z</time>
      </trkpt>
      <trkpt lat="42.8056090" lon="-7.6193620">
        <ele>352.3</ele>
        <time>2020-10-19T07:10:47Z</time>
      </trkpt>
      <trkpt lat="42.8056020" lon="-7.6193760">
        <ele>352.3</ele>
        <time>2020-10-19T07:10:48Z</time>
      </trkpt>
      <trkpt lat="42.8055950" lon="-7.6193900">
        <ele>352.2</ele>
        <time>2020-10-19T07:10:49Z</time>
      </trkpt>
      <trkpt lat="42.8055890" lon="-7.6194040">
        <ele>352.2</ele>
        <time>2020-10-19T07:10:50Z</time>
      </trkpt>
      <trkpt lat="42.8055830" lon="-7.6194170">
        <ele>352.2</ele>
        <time>2020-10-19T07:10:51Z</time>
      </trkpt>
      <trkpt lat="42.8055770" lon="-7.6194320">
        <ele>352.2</ele>
        <time>2020-10-19T07:10:52Z</time>
      </trkpt>
      <trkpt lat="42.8055720" lon="-7.6194460">
        <ele>352.1</ele>
        <time>2020-10-19T07:10:53Z</time>
      </trkpt>
      <trkpt lat="42.8055660" lon="-7.6194600">
        <ele>352.1</ele>
        <time>2020-10-19T07:10:54Z</time>
      </trkpt>
      <trkpt lat="42.8055600" lon="-7.6194750">
        <ele>352.1</ele>
        <time>2020-10-19T07:10:55Z</time>
      </trkpt>
      <trkpt lat="42.8055530" lon="-7.6194910">
        <ele>352.1</ele>
        <time>2020-10-19T07:10:56Z</time>
      </trkpt>
      <trkpt lat="42.8055460" lon="-7.6195060">
        <ele>352.1</ele>
        <time>2020-10-19T07:10:57Z</time>
      </trkpt>
      <trkpt lat="42.8055390" lon="-7.6195220">
        <ele>352.0</ele>
        <time>2020-10-19T07:10:58Z</time>
      </trkpt>
      <trkpt lat="42.8055330" lon="-7.6195380">
        <ele>352.0</ele>
        <time>2020-10-19T07:10:59Z</time>
      </trkpt>
      <trkpt lat="42.8055260" lon="-7.6195540">
        <ele>352.0</ele>
        <time>2020-10-19T07:11:00Z</time>
      </trkpt>
      <trkpt lat="42.8055190" lon="-7.6195690">
        <ele>352.0</ele>
        <time>2020-10-19T07:11:01Z</time>
      </trkpt>
      <trkpt lat="42.8055120" lon="-7.6195850">
        <ele>351.9</ele>
        <time>2020-10-19T07:11:02Z</time>
      </trkpt>
      <trkpt lat="42.8055060" lon="-7.6196000">
        <ele>351.9</ele>
        <time>2020-10-19T07:11:03Z</time>
      </trkpt>
      <trkpt lat="42.8055000" lon="-7.6196150">
        <ele>351.9</ele>
        <time>2020-10-19T07:11:04Z</time>
      </trkpt>
      <trkpt lat="42.8054950" lon="-7.6196300">
        <ele>351.9</ele>
        <time>2020-10-19T07:11:05Z</time>
      </trkpt>
      <trkpt lat="42.8054900" lon="-7.6196440">
        <ele>351.8</ele>
        <time>2020-10-19T07:11:06Z</time>
      </trkpt>
      <trkpt lat="42.8054850" lon="-7.6196560">
        <ele>351.8</ele>
        <time>2020-10-19T07:11:07Z</time>
      </trkpt>
      <trkpt lat="42.8054790" lon="-7.6196690">
        <ele>351.8</ele>
        <time>2020-10-19T07:11:08Z</time>
      </trkpt>
      <trkpt lat="42.8054730" lon="-7.6196830">
        <ele>351.8</ele>
        <time>2020-10-19T07:11:09Z</time>
      </trkpt>
      <trkpt lat="42.8054670" lon="-7.6196980">
        <ele>351.8</ele>
        <time>2020-10-19T07:11:10Z</time>
      </trkpt>
      <trkpt lat="42.8054600" lon="-7.6197140">
        <ele>351.7</ele>
        <time>2020-10-19T07:11:11Z</time>
      </trkpt>
      <trkpt lat="42.8054540" lon="-7.6197300">
        <ele>351.7</ele>
        <time>2020-10-19T07:11:12Z</time>
      </trkpt>
      <trkpt lat="42.8054470" lon="-7.6197470">
        <ele>351.7</ele>
        <time>2020-10-19T07:11:13Z</time>
      </trkpt>
      <trkpt lat="42.8054400" lon="-7.6197620">
        <ele>351.7</ele>
        <time>2020-10-19T07:11:14Z</time>
      </trkpt>
      <trkpt lat="42.8054340" lon="-7.6197780">
        <ele>351.7</ele>
        <time>2020-10-19T07:11:15Z</time>
      </trkpt>
      <trkpt lat="42.8054280" lon="-7.6197930">
        <ele>351.6</ele>
        <time>2020-10-19T07:11:16Z</time>
      </trkpt>
      <trkpt lat="42.8054220" lon="-7.6198080">
        <ele>351.6</ele>
        <time>2020-10-19T07:11:17Z</time>
      </trkpt>
      <trkpt lat="42.8054160" lon="-7.6198230">
        <ele>351.6</ele>
        <time>2020-10-19T07:11:18Z</time>
      </trkpt>
      <trkpt lat="42.8054110" lon="-7.6198370">
        <ele>351.6</ele>
        <time>2020-10-19T07:11:19Z</time>
      </trkpt>
      <trkpt lat="42.8054050" lon="-7.6198520">
        <ele>351.6</ele>
        <time>2020-10-19T07:11:20Z</time>
      </trkpt>
      <trkpt lat="42.8053990" lon="-7.6198660">
        <ele>351.5</ele>
        <time>2020-10-19T07:11:21Z</time>
      </trkpt>
      <trkpt lat="42.8053940" lon="-7.6198790">
        <ele>351.5</ele>
        <time>2020-10-19T07:11:22Z</time>
      </trkpt>
      <trkpt lat="42.8053880" lon="-7.6198920">
        <ele>351.5</ele>
        <time>2020-10-19T07:11:23Z</time>
      </trkpt>
      <trkpt lat="42.8053840" lon="-7.6199050">
        <ele>351.5</ele>
        <time>2020-10-19T07:11:24Z</time>
      </trkpt>
      <trkpt lat="42.8053810" lon="-7.6199180">
        <ele>351.5</ele>
        <time>2020-10-19T07:11:25Z</time>
      </trkpt>
      <trkpt lat="42.8053800" lon="-7.6199340">
        <ele>351.4</ele>
        <time>2020-10-19T07:11:26Z</time>
      </trkpt>
      <trkpt lat="42.8053790" lon="-7.6199500">
        <ele>351.4</ele>
        <time>2020-10-19T07:11:27Z</time>
      </trkpt>
      <trkpt lat="42.8053790" lon="-7.6199670">
        <ele>351.4</ele>
        <time>2020-10-19T07:11:28Z</time>
      </trkpt>
      <trkpt lat="42.8053800" lon="-7.6199820">
        <ele>351.4</ele>
        <time>2020-10-19T07:11:29Z</time>
      </trkpt>
      <trkpt lat="42.8053820" lon="-7.6199970">
        <ele>351.4</ele>
        <time>2020-10-19T07:11:30Z</time>
      </trkpt>
      <trkpt lat="42.8053850" lon="-7.6200130">
        <ele>351.4</ele>
        <time>2020-10-19T07:11:31Z</time>
      </trkpt>
      <trkpt lat="42.8053880" lon="-7.6200300">
        <ele>351.3</ele>
        <time>2020-10-19T07:11:32Z</time>
      </trkpt>
      <trkpt lat="42.8053920" lon="-7.6200470">
        <ele>351.3</ele>
        <time>2020-10-19T07:11:33Z</time>
      </trkpt>
      <trkpt lat="42.8053960" lon="-7.6200630">
        <ele>351.3</ele>
        <time>2020-10-19T07:11:34Z</time>
      </trkpt>
      <trkpt lat="42.8054010" lon="-7.6200770">
        <ele>351.3</ele>
        <time>2020-10-19T07:11:35Z</time>
      </trkpt>
      <trkpt lat="42.8054060" lon="-7.6200910">
        <ele>351.3</ele>
        <time>2020-10-19T07:11:36Z</time>
      </trkpt>
      <trkpt lat="42.8054110" lon="-7.6201040">
        <ele>351.3</ele>
        <time>2020-10-19T07:11:37Z</time>
      </trkpt>
      <trkpt lat="42.8054170" lon="-7.6201190">
        <ele>351.3</ele>
        <time>2020-10-19T07:11:38Z</time>
      </trkpt>
      <trkpt lat="42.8054230" lon="-7.6201330">
        <ele>351.3</ele>
        <time>2020-10-19T07:11:39Z</time>
      </trkpt>
      <trkpt lat="42.8054280" lon="-7.6201480">
        <ele>351.2</ele>
        <time>2020-10-19T07:11:40Z</time>
      </trkpt>
      <trkpt lat="42.8054340" lon="-7.6201640">
        <ele>351.2</ele>
        <time>2020-10-19T07:11:41Z</time>
      </trkpt>
      <trkpt lat="42.8054400" lon="-7.6201800">
        <ele>351.2</ele>
        <time>2020-10-19T07:11:42Z</time>
      </trkpt>
      <trkpt lat="42.8054450" lon="-7.6201960">
        <ele>351.2</ele>
        <time>2020-10-19T07:11:43Z</time>
      </trkpt>
      <trkpt lat="42.8054510" lon="-7.6202120">
        <ele>351.2</ele>
        <time>2020-10-19T07:11:44Z</time>
      </trkpt>
      <trkpt lat="42.8054560" lon="-7.6202270">
        <ele>351.1</ele>
        <time>2020-10-19T07:11:45Z</time>
      </trkpt>
      <trkpt lat="42.8054610" lon="-7.6202430">
        <ele>351.1</ele>
        <time>2020-10-19T07:11:46Z</time>
      </trkpt>
      <trkpt lat="42.8054650" lon="-7.6202590">
        <ele>351.1</ele>
        <time>2020-10-19T07:11:47Z</time>
      </trkpt>
      <trkpt lat="42.8054690" lon="-7.6202760">
        <ele>351.1</ele>
        <time>2020-10-19T07:11:48Z</time>
      </trkpt>
      <trkpt lat="42.8054740" lon="-7.6202940">
        <ele>351.0</ele>
        <time>2020-10-19T07:11:49Z</time>
      </trkpt>
      <trkpt lat="42.8054790" lon="-7.6203110">
        <ele>351.0</ele>
        <time>2020-10-19T07:11:50Z</time>
      </trkpt>
      <trkpt lat="42.8054830" lon="-7.6203270">
        <ele>351.0</ele>
        <time>2020-10-19T07:11:51Z</time>
      </trkpt>
      <trkpt lat="42.8054850" lon="-7.6203420">
        <ele>350.9</ele>
        <time>2020-10-19T07:11:52Z</time>
      </trkpt>
      <trkpt lat="42.8054850" lon="-7.6203560">
        <ele>350.9</ele>
        <time>2020-10-19T07:11:53Z</time>
      </trkpt>
      <trkpt lat="42.8054860" lon="-7.6203710">
        <ele>350.9</ele>
        <time>2020-10-19T07:11:54Z</time>
      </trkpt>
      <trkpt lat="42.8054870" lon="-7.6203870">
        <ele>350.8</ele>
        <time>2020-10-19T07:11:55Z</time>
      </trkpt>
      <trkpt lat="42.8054870" lon="-7.6204010">
        <ele>350.8</ele>
        <time>2020-10-19T07:11:56Z</time>
      </trkpt>
      <trkpt lat="42.8054870" lon="-7.6204160">
        <ele>350.8</ele>
        <time>2020-10-19T07:11:57Z</time>
      </trkpt>
      <trkpt lat="42.8054850" lon="-7.6204330">
        <ele>350.8</ele>
        <time>2020-10-19T07:11:58Z</time>
      </trkpt>
      <trkpt lat="42.8054840" lon="-7.6204530">
        <ele>350.7</ele>
        <time>2020-10-19T07:11:59Z</time>
      </trkpt>
      <trkpt lat="42.8054810" lon="-7.6204720">
        <ele>350.7</ele>
        <time>2020-10-19T07:12:00Z</time>
      </trkpt>
      <trkpt lat="42.8054800" lon="-7.6204900">
        <ele>350.7</ele>
        <time>2020-10-19T07:12:01Z</time>
      </trkpt>
      <trkpt lat="42.8054770" lon="-7.6205060">
        <ele>350.7</ele>
        <time>2020-10-19T07:12:02Z</time>
      </trkpt>
      <trkpt lat="42.8054750" lon="-7.6205210">
        <ele>350.6</ele>
        <time>2020-10-19T07:12:03Z</time>
      </trkpt>
      <trkpt lat="42.8054720" lon="-7.6205360">
        <ele>350.6</ele>
        <time>2020-10-19T07:12:04Z</time>
      </trkpt>
      <trkpt lat="42.8054690" lon="-7.6205510">
        <ele>350.6</ele>
        <time>2020-10-19T07:12:05Z</time>
      </trkpt>
      <trkpt lat="42.8054650" lon="-7.6205660">
        <ele>350.6</ele>
        <time>2020-10-19T07:12:06Z</time>
      </trkpt>
      <trkpt lat="42.8054600" lon="-7.6205820">
        <ele>350.6</ele>
        <time>2020-10-19T07:12:07Z</time>
      </trkpt>
      <trkpt lat="42.8054550" lon="-7.6205970">
        <ele>350.6</ele>
        <time>2020-10-19T07:12:08Z</time>
      </trkpt>
      <trkpt lat="42.8054510" lon="-7.6206120">
        <ele>350.6</ele>
        <time>2020-10-19T07:12:09Z</time>
      </trkpt>
      <trkpt lat="42.8054490" lon="-7.6206260">
        <ele>350.6</ele>
        <time>2020-10-19T07:12:10Z</time>
      </trkpt>
      <trkpt lat="42.8054460" lon="-7.6206410">
        <ele>350.6</ele>
        <time>2020-10-19T07:12:11Z</time>
      </trkpt>
      <trkpt lat="42.8054440" lon="-7.6206560">
        <ele>350.6</ele>
        <time>2020-10-19T07:12:12Z</time>
      </trkpt>
      <trkpt lat="42.8054420" lon="-7.6206710">
        <ele>350.6</ele>
        <time>2020-10-19T07:12:13Z</time>
      </trkpt>
      <trkpt lat="42.8054380" lon="-7.6206830">
        <ele>350.6</ele>
        <time>2020-10-19T07:12:14Z</time>
      </trkpt>
      <trkpt lat="42.8054340" lon="-7.6206960">
        <ele>350.7</ele>
        <time>2020-10-19T07:12:15Z</time>
      </trkpt>
      <trkpt lat="42.8054310" lon="-7.6207070">
        <ele>350.7</ele>
        <time>2020-10-19T07:12:16Z</time>
      </trkpt>
      <trkpt lat="42.8054280" lon="-7.6207170">
        <ele>350.7</ele>
        <time>2020-10-19T07:12:17Z</time>
      </trkpt>
      <trkpt lat="42.8054260" lon="-7.6207210">
        <ele>350.7</ele>
        <time>2020-10-19T07:12:18Z</time>
      </trkpt>
      <trkpt lat="42.8054250" lon="-7.6207250">
        <ele>350.7</ele>
        <time>2020-10-19T07:12:19Z</time>
      </trkpt>
      <trkpt lat="42.8054210" lon="-7.6207320">
        <ele>350.7</ele>
        <time>2020-10-19T07:12:20Z</time>
      </trkpt>
      <trkpt lat="42.8054150" lon="-7.6207470">
        <ele>350.8</ele>
        <time>2020-10-19T07:12:21Z</time>
      </trkpt>
      <trkpt lat="42.8054090" lon="-7.6207620">
        <ele>350.8</ele>
        <time>2020-10-19T07:12:22Z</time>
      </trkpt>
      <trkpt lat="42.8054030" lon="-7.6207770">
        <ele>350.8</ele>
        <time>2020-10-19T07:12:23Z</time>
      </trkpt>
      <trkpt lat="42.8054000" lon="-7.6207900">
        <ele>350.9</ele>
        <time>2020-10-19T07:12:24Z</time>
      </trkpt>
      <trkpt lat="42.8053970" lon="-7.6208030">
        <ele>350.9</ele>
        <time>2020-10-19T07:12:25Z</time>
      </trkpt>
      <trkpt lat="42.8053950" lon="-7.6208160">
        <ele>350.9</ele>
        <time>2020-10-19T07:12:26Z</time>
      </trkpt>
      <trkpt lat="42.8053900" lon="-7.6208300">
        <ele>351.0</ele>
        <time>2020-10-19T07:12:27Z</time>
      </trkpt>
      <trkpt lat="42.8053840" lon="-7.6208420">
        <ele>351.0</ele>
        <time>2020-10-19T07:12:28Z</time>
      </trkpt>
      <trkpt lat="42.8053780" lon="-7.6208540">
        <ele>351.1</ele>
        <time>2020-10-19T07:12:29Z</time>
      </trkpt>
      <trkpt lat="42.8053730" lon="-7.6208660">
        <ele>351.1</ele>
        <time>2020-10-19T07:12:30Z</time>
      </trkpt>
      <trkpt lat="42.8053680" lon="-7.6208780">
        <ele>351.2</ele>
        <time>2020-10-19T07:12:31Z</time>
      </trkpt>
      <trkpt lat="42.8053640" lon="-7.6208900">
        <ele>351.2</ele>
        <time>2020-10-19T07:12:32Z</time>
      </trkpt>
      <trkpt lat="42.8053590" lon="-7.6209040">
        <ele>351.3</ele>
        <time>2020-10-19T07:12:33Z</time>
      </trkpt>
      <trkpt lat="42.8053530" lon="-7.6209180">
        <ele>351.4</ele>
        <time>2020-10-19T07:12:34Z</time>
      </trkpt>
      <trkpt lat="42.8053480" lon="-7.6209320">
        <ele>351.4</ele>
        <time>2020-10-19T07:12:35Z</time>
      </trkpt>
      <trkpt lat="42.8053430" lon="-7.6209460">
        <ele>351.5</ele>
        <time>2020-10-19T07:12:36Z</time>
      </trkpt>
      <trkpt lat="42.8053370" lon="-7.6209600">
        <ele>351.6</ele>
        <time>2020-10-19T07:12:37Z</time>
      </trkpt>
      <trkpt lat="42.8053320" lon="-7.6209730">
        <ele>351.7</ele>
        <time>2020-10-19T07:12:38Z</time>
      </trkpt>
      <trkpt lat="42.8053270" lon="-7.6209870">
        <ele>351.8</ele>
        <time>2020-10-19T07:12:39Z</time>
      </trkpt>
      <trkpt lat="42.8053240" lon="-7.6210020">
        <ele>351.8</ele>
        <time>2020-10-19T07:12:40Z</time>
      </trkpt>
      <trkpt lat="42.8053190" lon="-7.6210160">
        <ele>351.9</ele>
        <time>2020-10-19T07:12:41Z</time>
      </trkpt>
      <trkpt lat="42.8053140" lon="-7.6210310">
        <ele>352.0</ele>
        <time>2020-10-19T07:12:42Z</time>
      </trkpt>
      <trkpt lat="42.8053080" lon="-7.6210450">
        <ele>352.1</ele>
        <time>2020-10-19T07:12:43Z</time>
      </trkpt>
      <trkpt lat="42.8053030" lon="-7.6210590">
        <ele>352.2</ele>
        <time>2020-10-19T07:12:44Z</time>
      </trkpt>
      <trkpt lat="42.8052980" lon="-7.6210730">
        <ele>352.3</ele>
        <time>2020-10-19T07:12:45Z</time>
      </trkpt>
      <trkpt lat="42.8052930" lon="-7.6210860">
        <ele>352.4</ele>
        <time>2020-10-19T07:12:46Z</time>
      </trkpt>
      <trkpt lat="42.8052870" lon="-7.6210990">
        <ele>352.5</ele>
        <time>2020-10-19T07:12:47Z</time>
      </trkpt>
      <trkpt lat="42.8052810" lon="-7.6211130">
        <ele>352.7</ele>
        <time>2020-10-19T07:12:48Z</time>
      </trkpt>
      <trkpt lat="42.8052760" lon="-7.6211260">
        <ele>352.8</ele>
        <time>2020-10-19T07:12:49Z</time>
      </trkpt>
      <trkpt lat="42.8052710" lon="-7.6211390">
        <ele>352.9</ele>
        <time>2020-10-19T07:12:50Z</time>
      </trkpt>
      <trkpt lat="42.8052660" lon="-7.6211520">
        <ele>353.0</ele>
        <time>2020-10-19T07:12:51Z</time>
      </trkpt>
      <trkpt lat="42.8052590" lon="-7.6211640">
        <ele>353.1</ele>
        <time>2020-10-19T07:12:52Z</time>
      </trkpt>
      <trkpt lat="42.8052520" lon="-7.6211770">
        <ele>353.2</ele>
        <time>2020-10-19T07:12:53Z</time>
      </trkpt>
      <trkpt lat="42.8052470" lon="-7.6211920">
        <ele>353.3</ele>
        <time>2020-10-19T07:12:54Z</time>
      </trkpt>
      <trkpt lat="42.8052440" lon="-7.6212080">
        <ele>353.4</ele>
        <time>2020-10-19T07:12:55Z</time>
      </trkpt>
      <trkpt lat="42.8052410" lon="-7.6212230">
        <ele>353.5</ele>
        <time>2020-10-19T07:12:56Z</time>
      </trkpt>
      <trkpt lat="42.8052380" lon="-7.6212370">
        <ele>353.6</ele>
        <time>2020-10-19T07:12:57Z</time>
      </trkpt>
      <trkpt lat="42.8052350" lon="-7.6212490">
        <ele>353.7</ele>
        <time>2020-10-19T07:12:58Z</time>
      </trkpt>
      <trkpt lat="42.8052320" lon="-7.6212630">
        <ele>353.8</ele>
        <time>2020-10-19T07:12:59Z</time>
      </trkpt>
      <trkpt lat="42.8052280" lon="-7.6212760">
        <ele>353.9</ele>
        <time>2020-10-19T07:13:00Z</time>
      </trkpt>
      <trkpt lat="42.8052230" lon="-7.6212890">
        <ele>354.0</ele>
        <time>2020-10-19T07:13:01Z</time>
      </trkpt>
      <trkpt lat="42.8052190" lon="-7.6213030">
        <ele>354.2</ele>
        <time>2020-10-19T07:13:02Z</time>
      </trkpt>
      <trkpt lat="42.8052160" lon="-7.6213170">
        <ele>354.3</ele>
        <time>2020-10-19T07:13:03Z</time>
      </trkpt>
      <trkpt lat="42.8052140" lon="-7.6213310">
        <ele>354.3</ele>
        <time>2020-10-19T07:13:04Z</time>
      </trkpt>
      <trkpt lat="42.8052120" lon="-7.6213440">
        <ele>354.4</ele>
        <time>2020-10-19T07:13:05Z</time>
      </trkpt>
      <trkpt lat="42.8052110" lon="-7.6213570">
        <ele>354.5</ele>
        <time>2020-10-19T07:13:06Z</time>
      </trkpt>
      <trkpt lat="42.8052110" lon="-7.6213700">
        <ele>354.6</ele>
        <time>2020-10-19T07:13:07Z</time>
      </trkpt>
      <trkpt lat="42.8052130" lon="-7.6213820">
        <ele>354.7</ele>
        <time>2020-10-19T07:13:08Z</time>
      </trkpt>
      <trkpt lat="42.8052190" lon="-7.6213970">
        <ele>354.8</ele>
        <time>2020-10-19T07:13:09Z</time>
      </trkpt>
      <trkpt lat="42.8052260" lon="-7.6214120">
        <ele>354.9</ele>
        <time>2020-10-19T07:13:10Z</time>
      </trkpt>
      <trkpt lat="42.8052350" lon="-7.6214270">
        <ele>355.0</ele>
        <time>2020-10-19T07:13:11Z</time>
      </trkpt>
      <trkpt lat="42.8052400" lon="-7.6214390">
        <ele>355.0</ele>
        <time>2020-10-19T07:13:12Z</time>
      </trkpt>
      <trkpt lat="42.8052440" lon="-7.6214530">
        <ele>355.1</ele>
        <time>2020-10-19T07:13:13Z</time>
      </trkpt>
      <trkpt lat="42.8052450" lon="-7.6214650">
        <ele>355.2</ele>
        <time>2020-10-19T07:13:14Z</time>
      </trkpt>
      <trkpt lat="42.8052470" lon="-7.6214770">
        <ele>355.2</ele>
        <time>2020-10-19T07:13:15Z</time>
      </trkpt>
      <trkpt lat="42.8052480" lon="-7.6214890">
        <ele>355.3</ele>
        <time>2020-10-19T07:13:16Z</time>
      </trkpt>
      <trkpt lat="42.8052510" lon="-7.6215010">
        <ele>355.4</ele>
        <time>2020-10-19T07:13:17Z</time>
      </trkpt>
      <trkpt lat="42.8052520" lon="-7.6215130">
        <ele>355.4</ele>
        <time>2020-10-19T07:13:18Z</time>
      </trkpt>
      <trkpt lat="42.8052530" lon="-7.6215250">
        <ele>355.7</ele>
        <time>2020-10-19T07:13:19Z</time>
      </trkpt>
      <trkpt lat="42.8052530" lon="-7.6215370">
        <ele>355.8</ele>
        <time>2020-10-19T07:13:20Z</time>
      </trkpt>
      <trkpt lat="42.8052510" lon="-7.6215490">
        <ele>355.9</ele>
        <time>2020-10-19T07:13:21Z</time>
      </trkpt>
      <trkpt lat="42.8052500" lon="-7.6215620">
        <ele>355.9</ele>
        <time>2020-10-19T07:13:22Z</time>
      </trkpt>
      <trkpt lat="42.8052480" lon="-7.6215750">
        <ele>356.0</ele>
        <time>2020-10-19T07:13:23Z</time>
      </trkpt>
      <trkpt lat="42.8052490" lon="-7.6215850">
        <ele>356.1</ele>
        <time>2020-10-19T07:13:24Z</time>
      </trkpt>
      <trkpt lat="42.8052520" lon="-7.6215930">
        <ele>356.1</ele>
        <time>2020-10-19T07:13:25Z</time>
      </trkpt>
      <trkpt lat="42.8052570" lon="-7.6215990">
        <ele>356.2</ele>
        <time>2020-10-19T07:13:26Z</time>
      </trkpt>
      <trkpt lat="42.8052600" lon="-7.6216030">
        <ele>356.2</ele>
        <time>2020-10-19T07:13:27Z</time>
      </trkpt>
      <trkpt lat="42.8052610" lon="-7.6216060">
        <ele>356.2</ele>
        <time>2020-10-19T07:13:28Z</time>
      </trkpt>
      <trkpt lat="42.8052600" lon="-7.6216090">
        <ele>356.2</ele>
        <time>2020-10-19T07:13:29Z</time>
      </trkpt>
      <trkpt lat="42.8052600" lon="-7.6216100">
        <ele>356.2</ele>
        <time>2020-10-19T07:13:30Z</time>
      </trkpt>
      <trkpt lat="42.8052600" lon="-7.6216110">
        <ele>356.2</ele>
        <time>2020-10-19T07:13:31Z</time>
      </trkpt>
      <trkpt lat="42.8052630" lon="-7.6216110">
        <ele>356.3</ele>
        <time>2020-10-19T07:13:32Z</time>
      </trkpt>
      <trkpt lat="42.8052660" lon="-7.6216120">
        <ele>356.3</ele>
        <time>2020-10-19T07:13:33Z</time>
      </trkpt>
      <trkpt lat="42.8052690" lon="-7.6216110">
        <ele>356.3</ele>
        <time>2020-10-19T07:13:34Z</time>
      </trkpt>
      <trkpt lat="42.8052720" lon="-7.6216100">
        <ele>356.3</ele>
        <time>2020-10-19T07:13:35Z</time>
      </trkpt>
      <trkpt lat="42.8052740" lon="-7.6216090">
        <ele>356.4</ele>
        <time>2020-10-19T07:13:36Z</time>
      </trkpt>
      <trkpt lat="42.8052730" lon="-7.6216080">
        <ele>356.4</ele>
        <time>2020-10-19T07:13:37Z</time>
      </trkpt>
      <trkpt lat="42.8052720" lon="-7.6216080">
        <ele>356.4</ele>
        <time>2020-10-19T07:13:38Z</time>
      </trkpt>
      <trkpt lat="42.8052710" lon="-7.6216070">
        <ele>356.4</ele>
        <time>2020-10-19T07:13:39Z</time>
      </trkpt>
      <trkpt lat="42.8052690" lon="-7.6216060">
        <ele>356.4</ele>
        <time>2020-10-19T07:13:40Z</time>
      </trkpt>
      <trkpt lat="42.8052670" lon="-7.6216050">
        <ele>356.4</ele>
        <time>2020-10-19T07:13:41Z</time>
      </trkpt>
      <trkpt lat="42.8052650" lon="-7.6216040">
        <ele>356.4</ele>
        <time>2020-10-19T07:13:42Z</time>
      </trkpt>
      <trkpt lat="42.8052640" lon="-7.6216030">
        <ele>356.5</ele>
        <time>2020-10-19T07:13:43Z</time>
      </trkpt>
      <trkpt lat="42.8052630" lon="-7.6216030">
        <ele>356.5</ele>
        <time>2020-10-19T07:13:44Z</time>
      </trkpt>
      <trkpt lat="42.8052610" lon="-7.6216040">
        <ele>356.5</ele>
        <time>2020-10-19T07:13:45Z</time>
      </trkpt>
      <trkpt lat="42.8052590" lon="-7.6216050">
        <ele>356.5</ele>
        <time>2020-10-19T07:13:46Z</time>
      </trkpt>
      <trkpt lat="42.8052580" lon="-7.6216050">
        <ele>356.5</ele>
        <time>2020-10-19T07:13:47Z</time>
      </trkpt>
      <trkpt lat="42.8052580" lon="-7.6216060">
        <ele>356.5</ele>
        <time>2020-10-19T07:13:48Z</time>
      </trkpt>
      <trkpt lat="42.8052560" lon="-7.6216070">
        <ele>356.5</ele>
        <time>2020-10-19T07:13:49Z</time>
      </trkpt>
      <trkpt lat="42.8052540" lon="-7.6216060">
        <ele>356.5</ele>
        <time>2020-10-19T07:13:50Z</time>
      </trkpt>
      <trkpt lat="42.8052530" lon="-7.6216060">
        <ele>356.6</ele>
        <time>2020-10-19T07:13:51Z</time>
      </trkpt>
      <trkpt lat="42.8052510" lon="-7.6216060">
        <ele>356.6</ele>
        <time>2020-10-19T07:13:52Z</time>
      </trkpt>
      <trkpt lat="42.8052500" lon="-7.6216070">
        <ele>356.6</ele>
        <time>2020-10-19T07:13:53Z</time>
      </trkpt>
      <trkpt lat="42.8052490" lon="-7.6216070">
        <ele>356.6</ele>
        <time>2020-10-19T07:13:54Z</time>
      </trkpt>
      <trkpt lat="42.8052480" lon="-7.6216080">
        <ele>356.6</ele>
        <time>2020-10-19T07:13:55Z</time>
      </trkpt>
      <trkpt lat="42.8052470" lon="-7.6216080">
        <ele>356.6</ele>
        <time>2020-10-19T07:13:56Z</time>
      </trkpt>
      <trkpt lat="42.8052470" lon="-7.6216090">
        <ele>356.6</ele>
        <time>2020-10-19T07:13:57Z</time>
      </trkpt>
      <trkpt lat="42.8052460" lon="-7.6216110">
        <ele>356.6</ele>
        <time>2020-10-19T07:13:58Z</time>
      </trkpt>
      <trkpt lat="42.8052480" lon="-7.6216120">
        <ele>356.7</ele>
        <time>2020-10-19T07:13:59Z</time>
      </trkpt>
      <trkpt lat="42.8052510" lon="-7.6216130">
        <ele>356.7</ele>
        <time>2020-10-19T07:14:00Z</time>
      </trkpt>
      <trkpt lat="42.8052560" lon="-7.6216160">
        <ele>356.7</ele>
        <time>2020-10-19T07:14:01Z</time>
      </trkpt>
      <trkpt lat="42.8052590" lon="-7.6216160">
        <ele>356.8</ele>
        <time>2020-10-19T07:14:02Z</time>
      </trkpt>
      <trkpt lat="42.8052590" lon="-7.6216170">
        <ele>356.8</ele>
        <time>2020-10-19T07:14:03Z</time>
      </trkpt>
      <trkpt lat="42.8052590" lon="-7.6216140">
        <ele>356.8</ele>
        <time>2020-10-19T07:14:04Z</time>
      </trkpt>
      <trkpt lat="42.8052600" lon="-7.6216130">
        <ele>356.8</ele>
        <time>2020-10-19T07:14:05Z</time>
      </trkpt>
      <trkpt lat="42.8052610" lon="-7.6216120">
        <ele>356.8</ele>
        <time>2020-10-19T07:14:06Z</time>
      </trkpt>
      <trkpt lat="42.8052610" lon="-7.6216120">
        <ele>356.8</ele>
        <time>2020-10-19T07:14:07Z</time>
      </trkpt>
      <trkpt lat="42.8052600" lon="-7.6216130">
        <ele>356.8</ele>
        <time>2020-10-19T07:14:08Z</time>
      </trkpt>
      <trkpt lat="42.8052600" lon="-7.6216150">
        <ele>356.8</ele>
        <time>2020-10-19T07:14:09Z</time>
      </trkpt>
      <trkpt lat="42.8052610" lon="-7.6216160">
        <ele>356.8</ele>
        <time>2020-10-19T07:14:10Z</time>
      </trkpt>
      <trkpt lat="42.8052610" lon="-7.6216170">
        <ele>356.9</ele>
        <time>2020-10-19T07:14:11Z</time>
      </trkpt>
      <trkpt lat="42.8052600" lon="-7.6216170">
        <ele>356.9</ele>
        <time>2020-10-19T07:14:12Z</time>
      </trkpt>
      <trkpt lat="42.8052590" lon="-7.6216180">
        <ele>356.9</ele>
        <time>2020-10-19T07:14:13Z</time>
      </trkpt>
      <trkpt lat="42.8052580" lon="-7.6216180">
        <ele>356.9</ele>
        <time>2020-10-19T07:14:14Z</time>
      </trkpt>
      <trkpt lat="42.8052580" lon="-7.6216180">
        <ele>356.9</ele>
        <time>2020-10-19T07:14:15Z</time>
      </trkpt>
      <trkpt lat="42.8052570" lon="-7.6216180">
        <ele>356.9</ele>
        <time>2020-10-19T07:14:16Z</time>
      </trkpt>
      <trkpt lat="42.8052560" lon="-7.6216180">
        <ele>356.9</ele>
        <time>2020-10-19T07:14:17Z</time>
      </trkpt>
      <trkpt lat="42.8052550" lon="-7.6216180">
        <ele>356.9</ele>
        <time>2020-10-19T07:14:18Z</time>
      </trkpt>
      <trkpt lat="42.8052540" lon="-7.6216180">
        <ele>356.9</ele>
        <time>2020-10-19T07:14:19Z</time>
      </trkpt>
      <trkpt lat="42.8052540" lon="-7.6216190">
        <ele>356.9</ele>
        <time>2020-10-19T07:14:20Z</time>
      </trkpt>
      <trkpt lat="42.8052540" lon="-7.6216190">
        <ele>356.9</ele>
        <time>2020-10-19T07:14:21Z</time>
      </trkpt>
      <trkpt lat="42.8052540" lon="-7.6216190">
        <ele>356.9</ele>
        <time>2020-10-19T07:14:22Z</time>
      </trkpt>
      <trkpt lat="42.8052540" lon="-7.6216200">
        <ele>356.9</ele>
        <time>2020-10-19T07:14:23Z</time>
      </trkpt>
      <trkpt lat="42.8052540" lon="-7.6216210">
        <ele>356.9</ele>
        <time>2020-10-19T07:14:24Z</time>
      </trkpt>
      <trkpt lat="42.8052540" lon="-7.6216230">
        <ele>357.0</ele>
        <time>2020-10-19T07:14:25Z</time>
      </trkpt>
      <trkpt lat="42.8052530" lon="-7.6216260">
        <ele>357.0</ele>
        <time>2020-10-19T07:14:26Z</time>
      </trkpt>
      <trkpt lat="42.8052510" lon="-7.6216290">
        <ele>357.0</ele>
        <time>2020-10-19T07:14:27Z</time>
      </trkpt>
      <trkpt lat="42.8052490" lon="-7.6216340">
        <ele>357.0</ele>
        <time>2020-10-19T07:14:28Z</time>
      </trkpt>
      <trkpt lat="42.8052480" lon="-7.6216400">
        <ele>357.1</ele>
        <time>2020-10-19T07:14:29Z</time>
      </trkpt>
      <trkpt lat="42.8052480" lon="-7.6216440">
        <ele>357.1</ele>
        <time>2020-10-19T07:14:30Z</time>
      </trkpt>
      <trkpt lat="42.8052470" lon="-7.6216470">
        <ele>357.1</ele>
        <time>2020-10-19T07:14:31Z</time>
      </trkpt>
      <trkpt lat="42.8052470" lon="-7.6216500">
        <ele>357.2</ele>
        <time>2020-10-19T07:14:32Z</time>
      </trkpt>
      <trkpt lat="42.8052480" lon="-7.6216550">
        <ele>357.2</ele>
        <time>2020-10-19T07:14:33Z</time>
      </trkpt>
      <trkpt lat="42.8052490" lon="-7.6216630">
        <ele>357.3</ele>
        <time>2020-10-19T07:14:34Z</time>
      </trkpt>
      <trkpt lat="42.8052500" lon="-7.6216730">
        <ele>357.3</ele>
        <time>2020-10-19T07:14:35Z</time>
      </trkpt>
      <trkpt lat="42.8052510" lon="-7.6216830">
        <ele>357.4</ele>
        <time>2020-10-19T07:14:36Z</time>
      </trkpt>
      <trkpt lat="42.8052490" lon="-7.6216930">
        <ele>357.5</ele>
        <time>2020-10-19T07:14:37Z</time>
      </trkpt>
      <trkpt lat="42.8052470" lon="-7.6217030">
        <ele>357.6</ele>
        <time>2020-10-19T07:14:38Z</time>
      </trkpt>
      <trkpt lat="42.8052440" lon="-7.6217120">
        <ele>357.6</ele>
        <time>2020-10-19T07:14:39Z</time>
      </trkpt>
      <trkpt lat="42.8052430" lon="-7.6217210">
        <ele>357.7</ele>
        <time>2020-10-19T07:14:40Z</time>
      </trkpt>
      <trkpt lat="42.8052430" lon="-7.6217300">
        <ele>357.8</ele>
        <time>2020-10-19T07:14:41Z</time>
      </trkpt>
      <trkpt lat="42.8052450" lon="-7.6217380">
        <ele>357.8</ele>
        <time>2020-10-19T07:14:42Z</time>
      </trkpt>
      <trkpt lat="42.8052470" lon="-7.6217460">
        <ele>357.9</ele>
        <time>2020-10-19T07:14:43Z</time>
      </trkpt>
      <trkpt lat="42.8052500" lon="-7.6217540">
        <ele>358.0</ele>
        <time>2020-10-19T07:14:44Z</time>
      </trkpt>
      <trkpt lat="42.8052530" lon="-7.6217630">
        <ele>358.1</ele>
        <time>2020-10-19T07:14:45Z</time>
      </trkpt>
      <trkpt lat="42.8052540" lon="-7.6217720">
        <ele>358.1</ele>
        <time>2020-10-19T07:14:46Z</time>
      </trkpt>
      <trkpt lat="42.8052540" lon="-7.6217810">
        <ele>358.2</ele>
        <time>2020-10-19T07:14:47Z</time>
      </trkpt>
      <trkpt lat="42.8052550" lon="-7.6217880">
        <ele>358.3</ele>
        <time>2020-10-19T07:14:48Z</time>
      </trkpt>
      <trkpt lat="42.8052540" lon="-7.6217950">
        <ele>358.3</ele>
        <time>2020-10-19T07:14:49Z</time>
      </trkpt>
      <trkpt lat="42.8052540" lon="-7.6218020">
        <ele>358.4</ele>
        <time>2020-10-19T07:14:50Z</time>
      </trkpt>
      <trkpt lat="42.8052530" lon="-7.6218100">
        <ele>358.5</ele>
        <time>2020-10-19T07:14:51Z</time>
      </trkpt>
      <trkpt lat="42.8052540" lon="-7.6218180">
        <ele>358.5</ele>
        <time>2020-10-19T07:14:52Z</time>
      </trkpt>
      <trkpt lat="42.8052560" lon="-7.6218270">
        <ele>358.6</ele>
        <time>2020-10-19T07:14:53Z</time>
      </trkpt>
      <trkpt lat="42.8052580" lon="-7.6218350">
        <ele>358.7</ele>
        <time>2020-10-19T07:14:54Z</time>
      </trkpt>
      <trkpt lat="42.8052610" lon="-7.6218430">
        <ele>358.8</ele>
        <time>2020-10-19T07:14:55Z</time>
      </trkpt>
      <trkpt lat="42.8052630" lon="-7.6218450">
        <ele>358.8</ele>
        <time>2020-10-19T07:14:56Z</time>
      </trkpt>
      <trkpt lat="42.8052650" lon="-7.6218420">
        <ele>358.8</ele>
        <time>2020-10-19T07:14:57Z</time>
      </trkpt>
      <trkpt lat="42.8052670" lon="-7.6218390">
        <ele>358.9</ele>
        <time>2020-10-19T07:14:58Z</time>
      </trkpt>
      <trkpt lat="42.8052660" lon="-7.6218390">
        <ele>358.9</ele>
        <time>2020-10-19T07:14:59Z</time>
      </trkpt>
      <trkpt lat="42.8052650" lon="-7.6218400">
        <ele>358.9</ele>
        <time>2020-10-19T07:15:00Z</time>
      </trkpt>
      <trkpt lat="42.8052630" lon="-7.6218420">
        <ele>358.9</ele>
        <time>2020-10-19T07:15:01Z</time>
      </trkpt>
      <trkpt lat="42.8052630" lon="-7.6218440">
        <ele>358.9</ele>
        <time>2020-10-19T07:15:02Z</time>
      </trkpt>
      <trkpt lat="42.8052620" lon="-7.6218470">
        <ele>359.0</ele>
        <time>2020-10-19T07:15:03Z</time>
      </trkpt>
      <trkpt lat="42.8052610" lon="-7.6218510">
        <ele>359.0</ele>
        <time>2020-10-19T07:15:04Z</time>
      </trkpt>
      <trkpt lat="42.8052570" lon="-7.6218600">
        <ele>359.1</ele>
        <time>2020-10-19T07:15:05Z</time>
      </trkpt>
      <trkpt lat="42.8052530" lon="-7.6218720">
        <ele>359.2</ele>
        <time>2020-10-19T07:15:06Z</time>
      </trkpt>
      <trkpt lat="42.8052470" lon="-7.6218850">
        <ele>359.4</ele>
        <time>2020-10-19T07:15:07Z</time>
      </trkpt>
      <trkpt lat="42.8052420" lon="-7.6218960">
        <ele>359.5</ele>
        <time>2020-10-19T07:15:08Z</time>
      </trkpt>
      <trkpt lat="42.8052390" lon="-7.6219070">
        <ele>359.6</ele>
        <time>2020-10-19T07:15:09Z</time>
      </trkpt>
      <trkpt lat="42.8052360" lon="-7.6219170">
        <ele>359.7</ele>
        <time>2020-10-19T07:15:10Z</time>
      </trkpt>
      <trkpt lat="42.8052340" lon="-7.6219280">
        <ele>359.8</ele>
        <time>2020-10-19T07:15:11Z</time>
      </trkpt>
      <trkpt lat="42.8052310" lon="-7.6219380">
        <ele>359.9</ele>
        <time>2020-10-19T07:15:12Z</time>
      </trkpt>
      <trkpt lat="42.8052270" lon="-7.6219480">
        <ele>360.0</ele>
        <time>2020-10-19T07:15:13Z</time>
      </trkpt>
      <trkpt lat="42.8052230" lon="-7.6219590">
        <ele>360.2</ele>
        <time>2020-10-19T07:15:14Z</time>
      </trkpt>
      <trkpt lat="42.8052200" lon="-7.6219690">
        <ele>360.3</ele>
        <time>2020-10-19T07:15:15Z</time>
      </trkpt>
      <trkpt lat="42.8052160" lon="-7.6219810">
        <ele>360.4</ele>
        <time>2020-10-19T07:15:16Z</time>
      </trkpt>
      <trkpt lat="42.8052130" lon="-7.6219920">
        <ele>360.5</ele>
        <time>2020-10-19T07:15:17Z</time>
      </trkpt>
      <trkpt lat="42.8052100" lon="-7.6220030">
        <ele>360.7</ele>
        <time>2020-10-19T07:15:18Z</time>
      </trkpt>
      <trkpt lat="42.8052070" lon="-7.6220150">
        <ele>360.8</ele>
        <time>2020-10-19T07:15:19Z</time>
      </trkpt>
      <trkpt lat="42.8052070" lon="-7.6220240">
        <ele>360.9</ele>
        <time>2020-10-19T07:15:20Z</time>
      </trkpt>
      <trkpt lat="42.8052060" lon="-7.6220310">
        <ele>361.0</ele>
        <time>2020-10-19T07:15:21Z</time>
      </trkpt>
      <trkpt lat="42.8052040" lon="-7.6220350">
        <ele>361.0</ele>
        <time>2020-10-19T07:15:22Z</time>
      </trkpt>
      <trkpt lat="42.8052000" lon="-7.6220400">
        <ele>361.1</ele>
        <time>2020-10-19T07:15:23Z</time>
      </trkpt>
      <trkpt lat="42.8051980" lon="-7.6220440">
        <ele>361.1</ele>
        <time>2020-10-19T07:15:24Z</time>
      </trkpt>
      <trkpt lat="42.8052000" lon="-7.6220480">
        <ele>361.2</ele>
        <time>2020-10-19T07:15:25Z</time>
      </trkpt>
      <trkpt lat="42.8052000" lon="-7.6220520">
        <ele>361.2</ele>
        <time>2020-10-19T07:15:26Z</time>
      </trkpt>
      <trkpt lat="42.8052010" lon="-7.6220560">
        <ele>361.3</ele>
        <time>2020-10-19T07:15:27Z</time>
      </trkpt>
      <trkpt lat="42.8052010" lon="-7.6220590">
        <ele>361.3</ele>
        <time>2020-10-19T07:15:28Z</time>
      </trkpt>
      <trkpt lat="42.8052010" lon="-7.6220620">
        <ele>361.3</ele>
        <time>2020-10-19T07:15:29Z</time>
      </trkpt>
      <trkpt lat="42.8051970" lon="-7.6220700">
        <ele>361.4</ele>
        <time>2020-10-19T07:15:30Z</time>
      </trkpt>
      <trkpt lat="42.8051910" lon="-7.6220810">
        <ele>361.6</ele>
        <time>2020-10-19T07:15:31Z</time>
      </trkpt>
      <trkpt lat="42.8051850" lon="-7.6220930">
        <ele>361.8</ele>
        <time>2020-10-19T07:15:32Z</time>
      </trkpt>
      <trkpt lat="42.8051820" lon="-7.6221030">
        <ele>361.9</ele>
        <time>2020-10-19T07:15:33Z</time>
      </trkpt>
      <trkpt lat="42.8051800" lon="-7.6221130">
        <ele>362.0</ele>
        <time>2020-10-19T07:15:34Z</time>
      </trkpt>
      <trkpt lat="42.8051780" lon="-7.6221240">
        <ele>362.1</ele>
        <time>2020-10-19T07:15:35Z</time>
      </trkpt>
      <trkpt lat="42.8051760" lon="-7.6221350">
        <ele>362.2</ele>
        <time>2020-10-19T07:15:36Z</time>
      </trkpt>
      <trkpt lat="42.8051720" lon="-7.6221480">
        <ele>362.4</ele>
        <time>2020-10-19T07:15:37Z</time>
      </trkpt>
      <trkpt lat="42.8051680" lon="-7.6221620">
        <ele>362.5</ele>
        <time>2020-10-19T07:15:38Z</time>
      </trkpt>
      <trkpt lat="42.8051630" lon="-7.6221750">
        <ele>362.7</ele>
        <time>2020-10-19T07:15:39Z</time>
      </trkpt>
      <trkpt lat="42.8051590" lon="-7.6221870">
        <ele>362.9</ele>
        <time>2020-10-19T07:15:40Z</time>
      </trkpt>
      <trkpt lat="42.8051550" lon="-7.6222000">
        <ele>363.0</ele>
        <time>2020-10-19T07:15:41Z</time>
      </trkpt>
      <trkpt lat="42.8051520" lon="-7.6222120">
        <ele>363.1</ele>
        <time>2020-10-19T07:15:42Z</time>
      </trkpt>
      <trkpt lat="42.8051490" lon="-7.6222260">
        <ele>363.3</ele>
        <time>2020-10-19T07:15:43Z</time>
      </trkpt>
      <trkpt lat="42.8051470" lon="-7.6222390">
        <ele>363.4</ele>
        <time>2020-10-19T07:15:44Z</time>
      </trkpt>
      <trkpt lat="42.8051440" lon="-7.6222510">
        <ele>363.6</ele>
        <time>2020-10-19T07:15:45Z</time>
      </trkpt>
      <trkpt lat="42.8051410" lon="-7.6222620">
        <ele>363.7</ele>
        <time>2020-10-19T07:15:46Z</time>
      </trkpt>
      <trkpt lat="42.8051370" lon="-7.6222720">
        <ele>363.8</ele>
        <time>2020-10-19T07:15:47Z</time>
      </trkpt>
      <trkpt lat="42.8051320" lon="-7.6222840">
        <ele>364.0</ele>
        <time>2020-10-19T07:15:48Z</time>
      </trkpt>
      <trkpt lat="42.8051270" lon="-7.6222970">
        <ele>364.1</ele>
        <time>2020-10-19T07:15:49Z</time>
      </trkpt>
      <trkpt lat="42.8051240" lon="-7.6223110">
        <ele>364.3</ele>
        <time>2020-10-19T07:15:50Z</time>
      </trkpt>
      <trkpt lat="42.8051200" lon="-7.6223230">
        <ele>364.4</ele>
        <time>2020-10-19T07:15:51Z</time>
      </trkpt>
      <trkpt lat="42.8051160" lon="-7.6223340">
        <ele>364.6</ele>
        <time>2020-10-19T07:15:52Z</time>
      </trkpt>
      <trkpt lat="42.8051110" lon="-7.6223440">
        <ele>364.7</ele>
        <time>2020-10-19T07:15:53Z</time>
      </trkpt>
      <trkpt lat="42.8051070" lon="-7.6223540">
        <ele>364.8</ele>
        <time>2020-10-19T07:15:54Z</time>
      </trkpt>
      <trkpt lat="42.8051030" lon="-7.6223640">
        <ele>365.0</ele>
        <time>2020-10-19T07:15:55Z</time>
      </trkpt>
      <trkpt lat="42.8050990" lon="-7.6223760">
        <ele>365.1</ele>
        <time>2020-10-19T07:15:56Z</time>
      </trkpt>
      <trkpt lat="42.8050940" lon="-7.6223880">
        <ele>365.3</ele>
        <time>2020-10-19T07:15:57Z</time>
      </trkpt>
      <trkpt lat="42.8050880" lon="-7.6224000">
        <ele>365.4</ele>
        <time>2020-10-19T07:15:58Z</time>
      </trkpt>
      <trkpt lat="42.8050820" lon="-7.6224090">
        <ele>365.5</ele>
        <time>2020-10-19T07:15:59Z</time>
      </trkpt>
      <trkpt lat="42.8050760" lon="-7.6224200">
        <ele>365.7</ele>
        <time>2020-10-19T07:16:00Z</time>
      </trkpt>
      <trkpt lat="42.8050720" lon="-7.6224300">
        <ele>365.8</ele>
        <time>2020-10-19T07:16:01Z</time>
      </trkpt>
      <trkpt lat="42.8050700" lon="-7.6224420">
        <ele>366.0</ele>
        <time>2020-10-19T07:16:02Z</time>
      </trkpt>
      <trkpt lat="42.8050690" lon="-7.6224530">
        <ele>366.1</ele>
        <time>2020-10-19T07:16:03Z</time>
      </trkpt>
      <trkpt lat="42.8050680" lon="-7.6224640">
        <ele>366.2</ele>
        <time>2020-10-19T07:16:04Z</time>
      </trkpt>
      <trkpt lat="42.8050670" lon="-7.6224730">
        <ele>366.3</ele>
        <time>2020-10-19T07:16:05Z</time>
      </trkpt>
      <trkpt lat="42.8050660" lon="-7.6224800">
        <ele>366.4</ele>
        <time>2020-10-19T07:16:06Z</time>
      </trkpt>
      <trkpt lat="42.8050640" lon="-7.6224850">
        <ele>366.5</ele>
        <time>2020-10-19T07:16:07Z</time>
      </trkpt>
      <trkpt lat="42.8050630" lon="-7.6224890">
        <ele>366.5</ele>
        <time>2020-10-19T07:16:08Z</time>
      </trkpt>
      <trkpt lat="42.8050610" lon="-7.6224900">
        <ele>366.5</ele>
        <time>2020-10-19T07:16:09Z</time>
      </trkpt>
      <trkpt lat="42.8050600" lon="-7.6224900">
        <ele>366.6</ele>
        <time>2020-10-19T07:16:10Z</time>
      </trkpt>
      <trkpt lat="42.8050580" lon="-7.6224920">
        <ele>366.6</ele>
        <time>2020-10-19T07:16:11Z</time>
      </trkpt>
      <trkpt lat="42.8050560" lon="-7.6224970">
        <ele>366.7</ele>
        <time>2020-10-19T07:16:12Z</time>
      </trkpt>
      <trkpt lat="42.8050540" lon="-7.6225050">
        <ele>366.8</ele>
        <time>2020-10-19T07:16:13Z</time>
      </trkpt>
      <trkpt lat="42.8050510" lon="-7.6225150">
        <ele>366.9</ele>
        <time>2020-10-19T07:16:14Z</time>
      </trkpt>
      <trkpt lat="42.8050470" lon="-7.6225250">
        <ele>367.0</ele>
        <time>2020-10-19T07:16:15Z</time>
      </trkpt>
      <trkpt lat="42.8050430" lon="-7.6225340">
        <ele>367.1</ele>
        <time>2020-10-19T07:16:16Z</time>
      </trkpt>
      <trkpt lat="42.8050390" lon="-7.6225450">
        <ele>367.3</ele>
        <time>2020-10-19T07:16:17Z</time>
      </trkpt>
      <trkpt lat="42.8050350" lon="-7.6225570">
        <ele>367.4</ele>
        <time>2020-10-19T07:16:18Z</time>
      </trkpt>
      <trkpt lat="42.8050320" lon="-7.6225700">
        <ele>367.6</ele>
        <time>2020-10-19T07:16:19Z</time>
      </trkpt>
      <trkpt lat="42.8050300" lon="-7.6225830">
        <ele>367.7</ele>
        <time>2020-10-19T07:16:20Z</time>
      </trkpt>
      <trkpt lat="42.8050280" lon="-7.6225950">
        <ele>367.9</ele>
        <time>2020-10-19T07:16:21Z</time>
      </trkpt>
      <trkpt lat="42.8050260" lon="-7.6226080">
        <ele>368.0</ele>
        <time>2020-10-19T07:16:22Z</time>
      </trkpt>
      <trkpt lat="42.8050240" lon="-7.6226200">
        <ele>368.2</ele>
        <time>2020-10-19T07:16:23Z</time>
      </trkpt>
      <trkpt lat="42.8050220" lon="-7.6226320">
        <ele>368.3</ele>
        <time>2020-10-19T07:16:24Z</time>
      </trkpt>
      <trkpt lat="42.8050210" lon="-7.6226430">
        <ele>368.4</ele>
        <time>2020-10-19T07:16:25Z</time>
      </trkpt>
      <trkpt lat="42.8050190" lon="-7.6226550">
        <ele>368.6</ele>
        <time>2020-10-19T07:16:26Z</time>
      </trkpt>
      <trkpt lat="42.8050170" lon="-7.6226670">
        <ele>368.7</ele>
        <time>2020-10-19T07:16:27Z</time>
      </trkpt>
      <trkpt lat="42.8050160" lon="-7.6226780">
        <ele>368.8</ele>
        <time>2020-10-19T07:16:28Z</time>
      </trkpt>
      <trkpt lat="42.8050130" lon="-7.6226900">
        <ele>369.0</ele>
        <time>2020-10-19T07:16:29Z</time>
      </trkpt>
      <trkpt lat="42.8050110" lon="-7.6227030">
        <ele>369.1</ele>
        <time>2020-10-19T07:16:30Z</time>
      </trkpt>
      <trkpt lat="42.8050120" lon="-7.6227170">
        <ele>369.3</ele>
        <time>2020-10-19T07:16:31Z</time>
      </trkpt>
      <trkpt lat="42.8050130" lon="-7.6227310">
        <ele>369.4</ele>
        <time>2020-10-19T07:16:32Z</time>
      </trkpt>
      <trkpt lat="42.8050130" lon="-7.6227440">
        <ele>369.6</ele>
        <time>2020-10-19T07:16:33Z</time>
      </trkpt>
      <trkpt lat="42.8050120" lon="-7.6227570">
        <ele>369.7</ele>
        <time>2020-10-19T07:16:34Z</time>
      </trkpt>
      <trkpt lat="42.8050120" lon="-7.6227690">
        <ele>369.9</ele>
        <time>2020-10-19T07:16:35Z</time>
      </trkpt>
      <trkpt lat="42.8050080" lon="-7.6227810">
        <ele>370.0</ele>
        <time>2020-10-19T07:16:36Z</time>
      </trkpt>
      <trkpt lat="42.8050030" lon="-7.6227930">
        <ele>370.1</ele>
        <time>2020-10-19T07:16:37Z</time>
      </trkpt>
      <trkpt lat="42.8049970" lon="-7.6228040">
        <ele>370.3</ele>
        <time>2020-10-19T07:16:38Z</time>
      </trkpt>
      <trkpt lat="42.8049930" lon="-7.6228160">
        <ele>370.4</ele>
        <time>2020-10-19T07:16:39Z</time>
      </trkpt>
      <trkpt lat="42.8049890" lon="-7.6228270">
        <ele>370.6</ele>
        <time>2020-10-19T07:16:40Z</time>
      </trkpt>
      <trkpt lat="42.8049870" lon="-7.6228400">
        <ele>370.7</ele>
        <time>2020-10-19T07:16:41Z</time>
      </trkpt>
      <trkpt lat="42.8049830" lon="-7.6228530">
        <ele>370.9</ele>
        <time>2020-10-19T07:16:42Z</time>
      </trkpt>
      <trkpt lat="42.8049810" lon="-7.6228650">
        <ele>371.0</ele>
        <time>2020-10-19T07:16:43Z</time>
      </trkpt>
      <trkpt lat="42.8049770" lon="-7.6228780">
        <ele>371.1</ele>
        <time>2020-10-19T07:16:44Z</time>
      </trkpt>
      <trkpt lat="42.8049760" lon="-7.6228900">
        <ele>371.3</ele>
        <time>2020-10-19T07:16:45Z</time>
      </trkpt>
      <trkpt lat="42.8049740" lon="-7.6229010">
        <ele>371.4</ele>
        <time>2020-10-19T07:16:46Z</time>
      </trkpt>
      <trkpt lat="42.8049710" lon="-7.6229130">
        <ele>371.5</ele>
        <time>2020-10-19T07:16:47Z</time>
      </trkpt>
      <trkpt lat="42.8049650" lon="-7.6229240">
        <ele>371.7</ele>
        <time>2020-10-19T07:16:48Z</time>
      </trkpt>
      <trkpt lat="42.8049590" lon="-7.6229350">
        <ele>371.8</ele>
        <time>2020-10-19T07:16:49Z</time>
      </trkpt>
      <trkpt lat="42.8049530" lon="-7.6229460">
        <ele>371.9</ele>
        <time>2020-10-19T07:16:50Z</time>
      </trkpt>
      <trkpt lat="42.8049460" lon="-7.6229560">
        <ele>372.1</ele>
        <time>2020-10-19T07:16:51Z</time>
      </trkpt>
      <trkpt lat="42.8049400" lon="-7.6229680">
        <ele>372.2</ele>
        <time>2020-10-19T07:16:52Z</time>
      </trkpt>
      <trkpt lat="42.8049350" lon="-7.6229800">
        <ele>372.4</ele>
        <time>2020-10-19T07:16:53Z</time>
      </trkpt>
      <trkpt lat="42.8049300" lon="-7.6229920">
        <ele>372.5</ele>
        <time>2020-10-19T07:16:54Z</time>
      </trkpt>
      <trkpt lat="42.8049250" lon="-7.6230040">
        <ele>372.6</ele>
        <time>2020-10-19T07:16:55Z</time>
      </trkpt>
      <trkpt lat="42.8049210" lon="-7.6230160">
        <ele>372.7</ele>
        <time>2020-10-19T07:16:56Z</time>
      </trkpt>
      <trkpt lat="42.8049160" lon="-7.6230260">
        <ele>372.9</ele>
        <time>2020-10-19T07:16:57Z</time>
      </trkpt>
      <trkpt lat="42.8049110" lon="-7.6230360">
        <ele>373.0</ele>
        <time>2020-10-19T07:16:58Z</time>
      </trkpt>
      <trkpt lat="42.8049060" lon="-7.6230470">
        <ele>373.1</ele>
        <time>2020-10-19T07:16:59Z</time>
      </trkpt>
      <trkpt lat="42.8049000" lon="-7.6230580">
        <ele>373.2</ele>
        <time>2020-10-19T07:17:00Z</time>
      </trkpt>
      <trkpt lat="42.8048950" lon="-7.6230710">
        <ele>373.4</ele>
        <time>2020-10-19T07:17:01Z</time>
      </trkpt>
      <trkpt lat="42.8048910" lon="-7.6230830">
        <ele>373.5</ele>
        <time>2020-10-19T07:17:02Z</time>
      </trkpt>
      <trkpt lat="42.8048870" lon="-7.6230950">
        <ele>373.6</ele>
        <time>2020-10-19T07:17:03Z</time>
      </trkpt>
      <trkpt lat="42.8048840" lon="-7.6231060">
        <ele>373.7</ele>
        <time>2020-10-19T07:17:04Z</time>
      </trkpt>
      <trkpt lat="42.8048850" lon="-7.6231140">
        <ele>373.8</ele>
        <time>2020-10-19T07:17:05Z</time>
      </trkpt>
      <trkpt lat="42.8048860" lon="-7.6231220">
        <ele>373.8</ele>
        <time>2020-10-19T07:17:06Z</time>
      </trkpt>
      <trkpt lat="42.8048880" lon="-7.6231300">
        <ele>373.9</ele>
        <time>2020-10-19T07:17:07Z</time>
      </trkpt>
      <trkpt lat="42.8048880" lon="-7.6231350">
        <ele>373.9</ele>
        <time>2020-10-19T07:17:08Z</time>
      </trkpt>
      <trkpt lat="42.8048860" lon="-7.6231390">
        <ele>374.0</ele>
        <time>2020-10-19T07:17:09Z</time>
      </trkpt>
      <trkpt lat="42.8048800" lon="-7.6231420">
        <ele>374.1</ele>
        <time>2020-10-19T07:17:10Z</time>
      </trkpt>
      <trkpt lat="42.8048750" lon="-7.6231450">
        <ele>374.1</ele>
        <time>2020-10-19T07:17:11Z</time>
      </trkpt>
      <trkpt lat="42.8048710" lon="-7.6231500">
        <ele>374.2</ele>
        <time>2020-10-19T07:17:12Z</time>
      </trkpt>
      <trkpt lat="42.8048680" lon="-7.6231560">
        <ele>374.2</ele>
        <time>2020-10-19T07:17:13Z</time>
      </trkpt>
      <trkpt lat="42.8048610" lon="-7.6231650">
        <ele>374.4</ele>
        <time>2020-10-19T07:17:14Z</time>
      </trkpt>
      <trkpt lat="42.8048520" lon="-7.6231760">
        <ele>374.5</ele>
        <time>2020-10-19T07:17:15Z</time>
      </trkpt>
      <trkpt lat="42.8048430" lon="-7.6231880">
        <ele>374.6</ele>
        <time>2020-10-19T07:17:16Z</time>
      </trkpt>
      <trkpt lat="42.8048360" lon="-7.6231990">
        <ele>374.7</ele>
        <time>2020-10-19T07:17:17Z</time>
      </trkpt>
      <trkpt lat="42.8048310" lon="-7.6232110">
        <ele>374.9</ele>
        <time>2020-10-19T07:17:18Z</time>
      </trkpt>
      <trkpt lat="42.8048260" lon="-7.6232260">
        <ele>375.0</ele>
        <time>2020-10-19T07:17:19Z</time>
      </trkpt>
      <trkpt lat="42.8048220" lon="-7.6232410">
        <ele>375.1</ele>
        <time>2020-10-19T07:17:20Z</time>
      </trkpt>
      <trkpt lat="42.8048170" lon="-7.6232570">
        <ele>375.3</ele>
        <time>2020-10-19T07:17:21Z</time>
      </trkpt>
      <trkpt lat="42.8048130" lon="-7.6232700">
        <ele>375.4</ele>
        <time>2020-10-19T07:17:22Z</time>
      </trkpt>
      <trkpt lat="42.8048100" lon="-7.6232840">
        <ele>375.5</ele>
        <time>2020-10-19T07:17:23Z</time>
      </trkpt>
      <trkpt lat="42.8048070" lon="-7.6232930">
        <ele>375.6</ele>
        <time>2020-10-19T07:17:24Z</time>
      </trkpt>
      <trkpt lat="42.8048020" lon="-7.6233000">
        <ele>375.7</ele>
        <time>2020-10-19T07:17:25Z</time>
      </trkpt>
      <trkpt lat="42.8047960" lon="-7.6233070">
        <ele>375.8</ele>
        <time>2020-10-19T07:17:26Z</time>
      </trkpt>
      <trkpt lat="42.8047920" lon="-7.6233150">
        <ele>375.9</ele>
        <time>2020-10-19T07:17:27Z</time>
      </trkpt>
      <trkpt lat="42.8047900" lon="-7.6233240">
        <ele>375.9</ele>
        <time>2020-10-19T07:17:28Z</time>
      </trkpt>
      <trkpt lat="42.8047900" lon="-7.6233330">
        <ele>376.0</ele>
        <time>2020-10-19T07:17:29Z</time>
      </trkpt>
      <trkpt lat="42.8047900" lon="-7.6233460">
        <ele>376.1</ele>
        <time>2020-10-19T07:17:30Z</time>
      </trkpt>
      <trkpt lat="42.8047900" lon="-7.6233600">
        <ele>376.3</ele>
        <time>2020-10-19T07:17:31Z</time>
      </trkpt>
      <trkpt lat="42.8047890" lon="-7.6233730">
        <ele>376.4</ele>
        <time>2020-10-19T07:17:32Z</time>
      </trkpt>
      <trkpt lat="42.8047860" lon="-7.6233850">
        <ele>376.5</ele>
        <time>2020-10-19T07:17:33Z</time>
      </trkpt>
      <trkpt lat="42.8047820" lon="-7.6233970">
        <ele>376.6</ele>
        <time>2020-10-19T07:17:34Z</time>
      </trkpt>
      <trkpt lat="42.8047790" lon="-7.6234070">
        <ele>376.7</ele>
        <time>2020-10-19T07:17:35Z</time>
      </trkpt>
      <trkpt lat="42.8047750" lon="-7.6234170">
        <ele>376.8</ele>
        <time>2020-10-19T07:17:36Z</time>
      </trkpt>
      <trkpt lat="42.8047720" lon="-7.6234270">
        <ele>376.9</ele>
        <time>2020-10-19T07:17:37Z</time>
      </trkpt>
      <trkpt lat="42.8047660" lon="-7.6234370">
        <ele>377.1</ele>
        <time>2020-10-19T07:17:38Z</time>
      </trkpt>
      <trkpt lat="42.8047630" lon="-7.6234460">
        <ele>377.1</ele>
        <time>2020-10-19T07:17:39Z</time>
      </trkpt>
      <trkpt lat="42.8047600" lon="-7.6234580">
        <ele>377.3</ele>
        <time>2020-10-19T07:17:40Z</time>
      </trkpt>
      <trkpt lat="42.8047590" lon="-7.6234720">
        <ele>377.4</ele>
        <time>2020-10-19T07:17:41Z</time>
      </trkpt>
      <trkpt lat="42.8047570" lon="-7.6234880">
        <ele>377.5</ele>
        <time>2020-10-19T07:17:42Z</time>
      </trkpt>
      <trkpt lat="42.8047560" lon="-7.6235030">
        <ele>377.7</ele>
        <time>2020-10-19T07:17:43Z</time>
      </trkpt>
      <trkpt lat="42.8047540" lon="-7.6235150">
        <ele>377.8</ele>
        <time>2020-10-19T07:17:44Z</time>
      </trkpt>
      <trkpt lat="42.8047510" lon="-7.6235270">
        <ele>377.9</ele>
        <time>2020-10-19T07:17:45Z</time>
      </trkpt>
      <trkpt lat="42.8047470" lon="-7.6235390">
        <ele>378.1</ele>
        <time>2020-10-19T07:17:46Z</time>
      </trkpt>
      <trkpt lat="42.8047440" lon="-7.6235510">
        <ele>378.2</ele>
        <time>2020-10-19T07:17:47Z</time>
      </trkpt>
      <trkpt lat="42.8047410" lon="-7.6235610">
        <ele>378.3</ele>
        <time>2020-10-19T07:17:48Z</time>
      </trkpt>
      <trkpt lat="42.8047380" lon="-7.6235730">
        <ele>378.4</ele>
        <time>2020-10-19T07:17:49Z</time>
      </trkpt>
      <trkpt lat="42.8047340" lon="-7.6235850">
        <ele>378.5</ele>
        <time>2020-10-19T07:17:50Z</time>
      </trkpt>
      <trkpt lat="42.8047300" lon="-7.6235990">
        <ele>378.7</ele>
        <time>2020-10-19T07:17:51Z</time>
      </trkpt>
      <trkpt lat="42.8047260" lon="-7.6236130">
        <ele>378.8</ele>
        <time>2020-10-19T07:17:52Z</time>
      </trkpt>
      <trkpt lat="42.8047230" lon="-7.6236270">
        <ele>379.0</ele>
        <time>2020-10-19T07:17:53Z</time>
      </trkpt>
      <trkpt lat="42.8047200" lon="-7.6236380">
        <ele>379.1</ele>
        <time>2020-10-19T07:17:54Z</time>
      </trkpt>
      <trkpt lat="42.8047160" lon="-7.6236510">
        <ele>379.2</ele>
        <time>2020-10-19T07:17:55Z</time>
      </trkpt>
      <trkpt lat="42.8047130" lon="-7.6236620">
        <ele>379.3</ele>
        <time>2020-10-19T07:17:56Z</time>
      </trkpt>
      <trkpt lat="42.8047090" lon="-7.6236740">
        <ele>379.4</ele>
        <time>2020-10-19T07:17:57Z</time>
      </trkpt>
      <trkpt lat="42.8047090" lon="-7.6236850">
        <ele>379.6</ele>
        <time>2020-10-19T07:17:58Z</time>
      </trkpt>
      <trkpt lat="42.8047090" lon="-7.6236960">
        <ele>379.7</ele>
        <time>2020-10-19T07:17:59Z</time>
      </trkpt>
      <trkpt lat="42.8047090" lon="-7.6237080">
        <ele>379.8</ele>
        <time>2020-10-19T07:18:00Z</time>
      </trkpt>
      <trkpt lat="42.8047090" lon="-7.6237200">
        <ele>379.9</ele>
        <time>2020-10-19T07:18:01Z</time>
      </trkpt>
      <trkpt lat="42.8047070" lon="-7.6237340">
        <ele>380.0</ele>
        <time>2020-10-19T07:18:02Z</time>
      </trkpt>
      <trkpt lat="42.8047050" lon="-7.6237470">
        <ele>380.1</ele>
        <time>2020-10-19T07:18:03Z</time>
      </trkpt>
      <trkpt lat="42.8047010" lon="-7.6237610">
        <ele>380.3</ele>
        <time>2020-10-19T07:18:04Z</time>
      </trkpt>
      <trkpt lat="42.8046970" lon="-7.6237770">
        <ele>380.4</ele>
        <time>2020-10-19T07:18:05Z</time>
      </trkpt>
      <trkpt lat="42.8046930" lon="-7.6237930">
        <ele>380.6</ele>
        <time>2020-10-19T07:18:06Z</time>
      </trkpt>
      <trkpt lat="42.8046880" lon="-7.6238070">
        <ele>380.7</ele>
        <time>2020-10-19T07:18:07Z</time>
      </trkpt>
      <trkpt lat="42.8046830" lon="-7.6238180">
        <ele>380.9</ele>
        <time>2020-10-19T07:18:08Z</time>
      </trkpt>
      <trkpt lat="42.8046790" lon="-7.6238260">
        <ele>380.9</ele>
        <time>2020-10-19T07:18:09Z</time>
      </trkpt>
      <trkpt lat="42.8046770" lon="-7.6238360">
        <ele>381.0</ele>
        <time>2020-10-19T07:18:10Z</time>
      </trkpt>
      <trkpt lat="42.8046740" lon="-7.6238490">
        <ele>381.3</ele>
        <time>2020-10-19T07:18:11Z</time>
      </trkpt>
      <trkpt lat="42.8046730" lon="-7.6238630">
        <ele>381.4</ele>
        <time>2020-10-19T07:18:12Z</time>
      </trkpt>
      <trkpt lat="42.8046720" lon="-7.6238760">
        <ele>381.4</ele>
        <time>2020-10-19T07:18:13Z</time>
      </trkpt>
      <trkpt lat="42.8046720" lon="-7.6238890">
        <ele>381.5</ele>
        <time>2020-10-19T07:18:14Z</time>
      </trkpt>
      <trkpt lat="42.8046720" lon="-7.6239030">
        <ele>381.6</ele>
        <time>2020-10-19T07:18:15Z</time>
      </trkpt>
      <trkpt lat="42.8046720" lon="-7.6239160">
        <ele>381.6</ele>
        <time>2020-10-19T07:18:16Z</time>
      </trkpt>
      <trkpt lat="42.8046720" lon="-7.6239290">
        <ele>381.7</ele>
        <time>2020-10-19T07:18:17Z</time>
      </trkpt>
      <trkpt lat="42.8046720" lon="-7.6239400">
        <ele>381.8</ele>
        <time>2020-10-19T07:18:18Z</time>
      </trkpt>
      <trkpt lat="42.8046720" lon="-7.6239500">
        <ele>381.8</ele>
        <time>2020-10-19T07:18:19Z</time>
      </trkpt>
      <trkpt lat="42.8046710" lon="-7.6239590">
        <ele>381.9</ele>
        <time>2020-10-19T07:18:20Z</time>
      </trkpt>
      <trkpt lat="42.8046710" lon="-7.6239670">
        <ele>381.9</ele>
        <time>2020-10-19T07:18:21Z</time>
      </trkpt>
      <trkpt lat="42.8046700" lon="-7.6239750">
        <ele>381.9</ele>
        <time>2020-10-19T07:18:22Z</time>
      </trkpt>
      <trkpt lat="42.8046710" lon="-7.6239840">
        <ele>382.0</ele>
        <time>2020-10-19T07:18:23Z</time>
      </trkpt>
      <trkpt lat="42.8046710" lon="-7.6239960">
        <ele>382.0</ele>
        <time>2020-10-19T07:18:24Z</time>
      </trkpt>
      <trkpt lat="42.8046710" lon="-7.6240090">
        <ele>382.1</ele>
        <time>2020-10-19T07:18:25Z</time>
      </trkpt>
      <trkpt lat="42.8046710" lon="-7.6240210">
        <ele>382.1</ele>
        <time>2020-10-19T07:18:26Z</time>
      </trkpt>
      <trkpt lat="42.8046700" lon="-7.6240310">
        <ele>382.2</ele>
        <time>2020-10-19T07:18:27Z</time>
      </trkpt>
      <trkpt lat="42.8046710" lon="-7.6240390">
        <ele>382.2</ele>
        <time>2020-10-19T07:18:28Z</time>
      </trkpt>
      <trkpt lat="42.8046730" lon="-7.6240470">
        <ele>382.2</ele>
        <time>2020-10-19T07:18:29Z</time>
      </trkpt>
      <trkpt lat="42.8046750" lon="-7.6240560">
        <ele>382.3</ele>
        <time>2020-10-19T07:18:30Z</time>
      </trkpt>
      <trkpt lat="42.8046760" lon="-7.6240680">
        <ele>382.3</ele>
        <time>2020-10-19T07:18:31Z</time>
      </trkpt>
      <trkpt lat="42.8046770" lon="-7.6240790">
        <ele>382.4</ele>
        <time>2020-10-19T07:18:32Z</time>
      </trkpt>
      <trkpt lat="42.8046780" lon="-7.6240900">
        <ele>382.4</ele>
        <time>2020-10-19T07:18:33Z</time>
      </trkpt>
      <trkpt lat="42.8046780" lon="-7.6241000">
        <ele>382.4</ele>
        <time>2020-10-19T07:18:34Z</time>
      </trkpt>
      <trkpt lat="42.8046780" lon="-7.6241130">
        <ele>382.5</ele>
        <time>2020-10-19T07:18:35Z</time>
      </trkpt>
      <trkpt lat="42.8046780" lon="-7.6241270">
        <ele>382.5</ele>
        <time>2020-10-19T07:18:36Z</time>
      </trkpt>
      <trkpt lat="42.8046780" lon="-7.6241420">
        <ele>382.6</ele>
        <time>2020-10-19T07:18:37Z</time>
      </trkpt>
      <trkpt lat="42.8046780" lon="-7.6241560">
        <ele>382.6</ele>
        <time>2020-10-19T07:18:38Z</time>
      </trkpt>
      <trkpt lat="42.8046790" lon="-7.6241690">
        <ele>382.7</ele>
        <time>2020-10-19T07:18:39Z</time>
      </trkpt>
      <trkpt lat="42.8046800" lon="-7.6241820">
        <ele>382.7</ele>
        <time>2020-10-19T07:18:40Z</time>
      </trkpt>
      <trkpt lat="42.8046820" lon="-7.6241960">
        <ele>382.8</ele>
        <time>2020-10-19T07:18:41Z</time>
      </trkpt>
      <trkpt lat="42.8046840" lon="-7.6242090">
        <ele>382.8</ele>
        <time>2020-10-19T07:18:42Z</time>
      </trkpt>
      <trkpt lat="42.8046860" lon="-7.6242220">
        <ele>382.9</ele>
        <time>2020-10-19T07:18:43Z</time>
      </trkpt>
      <trkpt lat="42.8046890" lon="-7.6242340">
        <ele>382.9</ele>
        <time>2020-10-19T07:18:44Z</time>
      </trkpt>
      <trkpt lat="42.8046910" lon="-7.6242460">
        <ele>382.9</ele>
        <time>2020-10-19T07:18:45Z</time>
      </trkpt>
      <trkpt lat="42.8046930" lon="-7.6242580">
        <ele>383.0</ele>
        <time>2020-10-19T07:18:46Z</time>
      </trkpt>
      <trkpt lat="42.8046930" lon="-7.6242710">
        <ele>383.0</ele>
        <time>2020-10-19T07:18:47Z</time>
      </trkpt>
      <trkpt lat="42.8046940" lon="-7.6242840">
        <ele>383.0</ele>
        <time>2020-10-19T07:18:48Z</time>
      </trkpt>
      <trkpt lat="42.8046960" lon="-7.6242950">
        <ele>383.1</ele>
        <time>2020-10-19T07:18:49Z</time>
      </trkpt>
      <trkpt lat="42.8046990" lon="-7.6243070">
        <ele>383.1</ele>
        <time>2020-10-19T07:18:50Z</time>
      </trkpt>
      <trkpt lat="42.8047010" lon="-7.6243190">
        <ele>383.1</ele>
        <time>2020-10-19T07:18:51Z</time>
      </trkpt>
      <trkpt lat="42.8047040" lon="-7.6243310">
        <ele>383.2</ele>
        <time>2020-10-19T07:18:52Z</time>
      </trkpt>
      <trkpt lat="42.8047050" lon="-7.6243440">
        <ele>383.2</ele>
        <time>2020-10-19T07:18:53Z</time>
      </trkpt>
      <trkpt lat="42.8047060" lon="-7.6243560">
        <ele>383.2</ele>
        <time>2020-10-19T07:18:54Z</time>
      </trkpt>
      <trkpt lat="42.8047060" lon="-7.6243690">
        <ele>383.3</ele>
        <time>2020-10-19T07:18:55Z</time>
      </trkpt>
      <trkpt lat="42.8047060" lon="-7.6243810">
        <ele>383.3</ele>
        <time>2020-10-19T07:18:56Z</time>
      </trkpt>
      <trkpt lat="42.8047080" lon="-7.6243930">
        <ele>383.3</ele>
        <time>2020-10-19T07:18:57Z</time>
      </trkpt>
      <trkpt lat="42.8047090" lon="-7.6244070">
        <ele>383.4</ele>
        <time>2020-10-19T07:18:58Z</time>
      </trkpt>
      <trkpt lat="42.8047110" lon="-7.6244200">
        <ele>383.4</ele>
        <time>2020-10-19T07:18:59Z</time>
      </trkpt>
      <trkpt lat="42.8047120" lon="-7.6244330">
        <ele>383.5</ele>
        <time>2020-10-19T07:19:00Z</time>
      </trkpt>
      <trkpt lat="42.8047130" lon="-7.6244470">
        <ele>383.5</ele>
        <time>2020-10-19T07:19:01Z</time>
      </trkpt>
      <trkpt lat="42.8047140" lon="-7.6244600">
        <ele>383.5</ele>
        <time>2020-10-19T07:19:02Z</time>
      </trkpt>
      <trkpt lat="42.8047150" lon="-7.6244730">
        <ele>383.6</ele>
        <time>2020-10-19T07:19:03Z</time>
      </trkpt>
      <trkpt lat="42.8047180" lon="-7.6244860">
        <ele>383.6</ele>
        <time>2020-10-19T07:19:04Z</time>
      </trkpt>
      <trkpt lat="42.8047210" lon="-7.6244990">
        <ele>383.6</ele>
        <time>2020-10-19T07:19:05Z</time>
      </trkpt>
      <trkpt lat="42.8047230" lon="-7.6245120">
        <ele>383.7</ele>
        <time>2020-10-19T07:19:06Z</time>
      </trkpt>
      <trkpt lat="42.8047260" lon="-7.6245260">
        <ele>383.7</ele>
        <time>2020-10-19T07:19:07Z</time>
      </trkpt>
      <trkpt lat="42.8047280" lon="-7.6245380">
        <ele>383.7</ele>
        <time>2020-10-19T07:19:08Z</time>
      </trkpt>
      <trkpt lat="42.8047310" lon="-7.6245510">
        <ele>383.8</ele>
        <time>2020-10-19T07:19:09Z</time>
      </trkpt>
      <trkpt lat="42.8047330" lon="-7.6245630">
        <ele>383.8</ele>
        <time>2020-10-19T07:19:10Z</time>
      </trkpt>
      <trkpt lat="42.8047340" lon="-7.6245750">
        <ele>383.9</ele>
        <time>2020-10-19T07:19:11Z</time>
      </trkpt>
      <trkpt lat="42.8047340" lon="-7.6245880">
        <ele>383.9</ele>
        <time>2020-10-19T07:19:12Z</time>
      </trkpt>
      <trkpt lat="42.8047330" lon="-7.6246010">
        <ele>383.9</ele>
        <time>2020-10-19T07:19:13Z</time>
      </trkpt>
      <trkpt lat="42.8047340" lon="-7.6246150">
        <ele>384.0</ele>
        <time>2020-10-19T07:19:14Z</time>
      </trkpt>
      <trkpt lat="42.8047340" lon="-7.6246280">
        <ele>384.0</ele>
        <time>2020-10-19T07:19:15Z</time>
      </trkpt>
      <trkpt lat="42.8047360" lon="-7.6246400">
        <ele>384.1</ele>
        <time>2020-10-19T07:19:16Z</time>
      </trkpt>
      <trkpt lat="42.8047360" lon="-7.6246520">
        <ele>384.1</ele>
        <time>2020-10-19T07:19:17Z</time>
      </trkpt>
      <trkpt lat="42.8047370" lon="-7.6246640">
        <ele>384.2</ele>
        <time>2020-10-19T07:19:18Z</time>
      </trkpt>
      <trkpt lat="42.8047360" lon="-7.6246740">
        <ele>384.2</ele>
        <time>2020-10-19T07:19:19Z</time>
      </trkpt>
      <trkpt lat="42.8047360" lon="-7.6246840">
        <ele>384.2</ele>
        <time>2020-10-19T07:19:20Z</time>
      </trkpt>
      <trkpt lat="42.8047360" lon="-7.6246940">
        <ele>384.3</ele>
        <time>2020-10-19T07:19:21Z</time>
      </trkpt>
      <trkpt lat="42.8047370" lon="-7.6247050">
        <ele>384.3</ele>
        <time>2020-10-19T07:19:22Z</time>
      </trkpt>
      <trkpt lat="42.8047360" lon="-7.6247160">
        <ele>384.4</ele>
        <time>2020-10-19T07:19:23Z</time>
      </trkpt>
      <trkpt lat="42.8047330" lon="-7.6247260">
        <ele>384.4</ele>
        <time>2020-10-19T07:19:24Z</time>
      </trkpt>
      <trkpt lat="42.8047300" lon="-7.6247360">
        <ele>384.5</ele>
        <time>2020-10-19T07:19:25Z</time>
      </trkpt>
      <trkpt lat="42.8047270" lon="-7.6247480">
        <ele>384.5</ele>
        <time>2020-10-19T07:19:26Z</time>
      </trkpt>
      <trkpt lat="42.8047240" lon="-7.6247610">
        <ele>384.6</ele>
        <time>2020-10-19T07:19:27Z</time>
      </trkpt>
      <trkpt lat="42.8047210" lon="-7.6247740">
        <ele>384.7</ele>
        <time>2020-10-19T07:19:28Z</time>
      </trkpt>
      <trkpt lat="42.8047180" lon="-7.6247880">
        <ele>384.8</ele>
        <time>2020-10-19T07:19:29Z</time>
      </trkpt>
      <trkpt lat="42.8047150" lon="-7.6248020">
        <ele>384.8</ele>
        <time>2020-10-19T07:19:30Z</time>
      </trkpt>
      <trkpt lat="42.8047120" lon="-7.6248180">
        <ele>384.9</ele>
        <time>2020-10-19T07:19:31Z</time>
      </trkpt>
      <trkpt lat="42.8047100" lon="-7.6248320">
        <ele>385.0</ele>
        <time>2020-10-19T07:19:32Z</time>
      </trkpt>
      <trkpt lat="42.8047080" lon="-7.6248460">
        <ele>385.1</ele>
        <time>2020-10-19T07:19:33Z</time>
      </trkpt>
      <trkpt lat="42.8047070" lon="-7.6248590">
        <ele>385.2</ele>
        <time>2020-10-19T07:19:34Z</time>
      </trkpt>
      <trkpt lat="42.8047070" lon="-7.6248730">
        <ele>385.3</ele>
        <time>2020-10-19T07:19:35Z</time>
      </trkpt>
      <trkpt lat="42.8047050" lon="-7.6248890">
        <ele>385.4</ele>
        <time>2020-10-19T07:19:36Z</time>
      </trkpt>
      <trkpt lat="42.8047030" lon="-7.6249050">
        <ele>385.5</ele>
        <time>2020-10-19T07:19:37Z</time>
      </trkpt>
      <trkpt lat="42.8046980" lon="-7.6249210">
        <ele>385.6</ele>
        <time>2020-10-19T07:19:38Z</time>
      </trkpt>
      <trkpt lat="42.8046940" lon="-7.6249350">
        <ele>385.7</ele>
        <time>2020-10-19T07:19:39Z</time>
      </trkpt>
      <trkpt lat="42.8046910" lon="-7.6249480">
        <ele>385.8</ele>
        <time>2020-10-19T07:19:40Z</time>
      </trkpt>
      <trkpt lat="42.8046870" lon="-7.6249610">
        <ele>385.9</ele>
        <time>2020-10-19T07:19:41Z</time>
      </trkpt>
      <trkpt lat="42.8046840" lon="-7.6249730">
        <ele>386.0</ele>
        <time>2020-10-19T07:19:42Z</time>
      </trkpt>
      <trkpt lat="42.8046810" lon="-7.6249860">
        <ele>386.1</ele>
        <time>2020-10-19T07:19:43Z</time>
      </trkpt>
      <trkpt lat="42.8046790" lon="-7.6249990">
        <ele>386.2</ele>
        <time>2020-10-19T07:19:44Z</time>
      </trkpt>
      <trkpt lat="42.8046790" lon="-7.6250120">
        <ele>386.2</ele>
        <time>2020-10-19T07:19:45Z</time>
      </trkpt>
      <trkpt lat="42.8046790" lon="-7.6250250">
        <ele>386.3</ele>
        <time>2020-10-19T07:19:46Z</time>
      </trkpt>
      <trkpt lat="42.8046790" lon="-7.6250370">
        <ele>386.4</ele>
        <time>2020-10-19T07:19:47Z</time>
      </trkpt>
      <trkpt lat="42.8046780" lon="-7.6250490">
        <ele>386.5</ele>
        <time>2020-10-19T07:19:48Z</time>
      </trkpt>
      <trkpt lat="42.8046770" lon="-7.6250620">
        <ele>386.6</ele>
        <time>2020-10-19T07:19:49Z</time>
      </trkpt>
      <trkpt lat="42.8046760" lon="-7.6250740">
        <ele>386.7</ele>
        <time>2020-10-19T07:19:50Z</time>
      </trkpt>
      <trkpt lat="42.8046750" lon="-7.6250880">
        <ele>386.8</ele>
        <time>2020-10-19T07:19:51Z</time>
      </trkpt>
      <trkpt lat="42.8046740" lon="-7.6251020">
        <ele>386.9</ele>
        <time>2020-10-19T07:19:52Z</time>
      </trkpt>
      <trkpt lat="42.8046730" lon="-7.6251170">
        <ele>387.0</ele>
        <time>2020-10-19T07:19:53Z</time>
      </trkpt>
      <trkpt lat="42.8046730" lon="-7.6251300">
        <ele>387.1</ele>
        <time>2020-10-19T07:19:54Z</time>
      </trkpt>
      <trkpt lat="42.8046730" lon="-7.6251440">
        <ele>387.2</ele>
        <time>2020-10-19T07:19:55Z</time>
      </trkpt>
      <trkpt lat="42.8046740" lon="-7.6251560">
        <ele>387.3</ele>
        <time>2020-10-19T07:19:56Z</time>
      </trkpt>
      <trkpt lat="42.8046760" lon="-7.6251690">
        <ele>387.4</ele>
        <time>2020-10-19T07:19:57Z</time>
      </trkpt>
      <trkpt lat="42.8046790" lon="-7.6251840">
        <ele>387.5</ele>
        <time>2020-10-19T07:19:58Z</time>
      </trkpt>
      <trkpt lat="42.8046850" lon="-7.6252000">
        <ele>387.6</ele>
        <time>2020-10-19T07:19:59Z</time>
      </trkpt>
      <trkpt lat="42.8046910" lon="-7.6252140">
        <ele>387.7</ele>
        <time>2020-10-19T07:20:00Z</time>
      </trkpt>
      <trkpt lat="42.8046960" lon="-7.6252250">
        <ele>387.7</ele>
        <time>2020-10-19T07:20:01Z</time>
      </trkpt>
      <trkpt lat="42.8047010" lon="-7.6252370">
        <ele>387.8</ele>
        <time>2020-10-19T07:20:02Z</time>
      </trkpt>
      <trkpt lat="42.8047060" lon="-7.6252490">
        <ele>387.9</ele>
        <time>2020-10-19T07:20:03Z</time>
      </trkpt>
      <trkpt lat="42.8047120" lon="-7.6252610">
        <ele>388.0</ele>
        <time>2020-10-19T07:20:04Z</time>
      </trkpt>
      <trkpt lat="42.8047180" lon="-7.6252730">
        <ele>388.0</ele>
        <time>2020-10-19T07:20:05Z</time>
      </trkpt>
      <trkpt lat="42.8047250" lon="-7.6252850">
        <ele>388.1</ele>
        <time>2020-10-19T07:20:06Z</time>
      </trkpt>
      <trkpt lat="42.8047320" lon="-7.6252960">
        <ele>388.2</ele>
        <time>2020-10-19T07:20:07Z</time>
      </trkpt>
      <trkpt lat="42.8047380" lon="-7.6253070">
        <ele>388.2</ele>
        <time>2020-10-19T07:20:08Z</time>
      </trkpt>
      <trkpt lat="42.8047430" lon="-7.6253190">
        <ele>388.3</ele>
        <time>2020-10-19T07:20:09Z</time>
      </trkpt>
      <trkpt lat="42.8047480" lon="-7.6253300">
        <ele>388.3</ele>
        <time>2020-10-19T07:20:10Z</time>
      </trkpt>
      <trkpt lat="42.8047540" lon="-7.6253410">
        <ele>388.4</ele>
        <time>2020-10-19T07:20:11Z</time>
      </trkpt>
      <trkpt lat="42.8047610" lon="-7.6253520">
        <ele>388.5</ele>
        <time>2020-10-19T07:20:12Z</time>
      </trkpt>
      <trkpt lat="42.8047680" lon="-7.6253630">
        <ele>388.5</ele>
        <time>2020-10-19T07:20:13Z</time>
      </trkpt>
      <trkpt lat="42.8047740" lon="-7.6253770">
        <ele>388.6</ele>
        <time>2020-10-19T07:20:14Z</time>
      </trkpt>
      <trkpt lat="42.8047790" lon="-7.6253920">
        <ele>388.6</ele>
        <time>2020-10-19T07:20:15Z</time>
      </trkpt>
      <trkpt lat="42.8047860" lon="-7.6254060">
        <ele>388.7</ele>
        <time>2020-10-19T07:20:16Z</time>
      </trkpt>
      <trkpt lat="42.8047930" lon="-7.6254180">
        <ele>388.8</ele>
        <time>2020-10-19T07:20:17Z</time>
      </trkpt>
      <trkpt lat="42.8047980" lon="-7.6254300">
        <ele>388.8</ele>
        <time>2020-10-19T07:20:18Z</time>
      </trkpt>
      <trkpt lat="42.8048020" lon="-7.6254430">
        <ele>388.8</ele>
        <time>2020-10-19T07:20:19Z</time>
      </trkpt>
      <trkpt lat="42.8048060" lon="-7.6254550">
        <ele>388.8</ele>
        <time>2020-10-19T07:20:20Z</time>
      </trkpt>
      <trkpt lat="42.8048100" lon="-7.6254660">
        <ele>388.9</ele>
        <time>2020-10-19T07:20:21Z</time>
      </trkpt>
      <trkpt lat="42.8048150" lon="-7.6254770">
        <ele>388.9</ele>
        <time>2020-10-19T07:20:22Z</time>
      </trkpt>
      <trkpt lat="42.8048200" lon="-7.6254870">
        <ele>389.0</ele>
        <time>2020-10-19T07:20:23Z</time>
      </trkpt>
      <trkpt lat="42.8048270" lon="-7.6254990">
        <ele>389.0</ele>
        <time>2020-10-19T07:20:24Z</time>
      </trkpt>
      <trkpt lat="42.8048330" lon="-7.6255110">
        <ele>389.1</ele>
        <time>2020-10-19T07:20:25Z</time>
      </trkpt>
      <trkpt lat="42.8048400" lon="-7.6255230">
        <ele>389.1</ele>
        <time>2020-10-19T07:20:26Z</time>
      </trkpt>
      <trkpt lat="42.8048460" lon="-7.6255340">
        <ele>389.2</ele>
        <time>2020-10-19T07:20:27Z</time>
      </trkpt>
      <trkpt lat="42.8048520" lon="-7.6255470">
        <ele>389.3</ele>
        <time>2020-10-19T07:20:28Z</time>
      </trkpt>
      <trkpt lat="42.8048590" lon="-7.6255580">
        <ele>389.3</ele>
        <time>2020-10-19T07:20:29Z</time>
      </trkpt>
      <trkpt lat="42.8048680" lon="-7.6255700">
        <ele>389.4</ele>
        <time>2020-10-19T07:20:30Z</time>
      </trkpt>
      <trkpt lat="42.8048760" lon="-7.6255800">
        <ele>389.5</ele>
        <time>2020-10-19T07:20:31Z</time>
      </trkpt>
      <trkpt lat="42.8048850" lon="-7.6255890">
        <ele>389.5</ele>
        <time>2020-10-19T07:20:32Z</time>
      </trkpt>
      <trkpt lat="42.8048930" lon="-7.6256000">
        <ele>389.6</ele>
        <time>2020-10-19T07:20:33Z</time>
      </trkpt>
      <trkpt lat="42.8049010" lon="-7.6256100">
        <ele>389.7</ele>
        <time>2020-10-19T07:20:34Z</time>
      </trkpt>
      <trkpt lat="42.8049090" lon="-7.6256210">
        <ele>389.7</ele>
        <time>2020-10-19T07:20:35Z</time>
      </trkpt>
      <trkpt lat="42.8049170" lon="-7.6256310">
        <ele>389.8</ele>
        <time>2020-10-19T07:20:36Z</time>
      </trkpt>
      <trkpt lat="42.8049240" lon="-7.6256410">
        <ele>389.9</ele>
        <time>2020-10-19T07:20:37Z</time>
      </trkpt>
      <trkpt lat="42.8049290" lon="-7.6256510">
        <ele>389.9</ele>
        <time>2020-10-19T07:20:38Z</time>
      </trkpt>
      <trkpt lat="42.8049350" lon="-7.6256620">
        <ele>390.0</ele>
        <time>2020-10-19T07:20:39Z</time>
      </trkpt>
      <trkpt lat="42.8049410" lon="-7.6256730">
        <ele>390.0</ele>
        <time>2020-10-19T07:20:40Z</time>
      </trkpt>
      <trkpt lat="42.8049470" lon="-7.6256840">
        <ele>390.0</ele>
        <time>2020-10-19T07:20:41Z</time>
      </trkpt>
      <trkpt lat="42.8049520" lon="-7.6256940">
        <ele>390.1</ele>
        <time>2020-10-19T07:20:42Z</time>
      </trkpt>
      <trkpt lat="42.8049570" lon="-7.6257050">
        <ele>390.2</ele>
        <time>2020-10-19T07:20:43Z</time>
      </trkpt>
      <trkpt lat="42.8049630" lon="-7.6257170">
        <ele>390.2</ele>
        <time>2020-10-19T07:20:44Z</time>
      </trkpt>
      <trkpt lat="42.8049690" lon="-7.6257310">
        <ele>390.3</ele>
        <time>2020-10-19T07:20:45Z</time>
      </trkpt>
      <trkpt lat="42.8049740" lon="-7.6257450">
        <ele>390.4</ele>
        <time>2020-10-19T07:20:46Z</time>
      </trkpt>
      <trkpt lat="42.8049780" lon="-7.6257590">
        <ele>390.5</ele>
        <time>2020-10-19T07:20:47Z</time>
      </trkpt>
      <trkpt lat="42.8049810" lon="-7.6257720">
        <ele>390.5</ele>
        <time>2020-10-19T07:20:48Z</time>
      </trkpt>
      <trkpt lat="42.8049840" lon="-7.6257830">
        <ele>390.6</ele>
        <time>2020-10-19T07:20:49Z</time>
      </trkpt>
      <trkpt lat="42.8049890" lon="-7.6257950">
        <ele>390.6</ele>
        <time>2020-10-19T07:20:50Z</time>
      </trkpt>
      <trkpt lat="42.8049960" lon="-7.6258060">
        <ele>390.7</ele>
        <time>2020-10-19T07:20:51Z</time>
      </trkpt>
      <trkpt lat="42.8050030" lon="-7.6258170">
        <ele>390.8</ele>
        <time>2020-10-19T07:20:52Z</time>
      </trkpt>
      <trkpt lat="42.8050070" lon="-7.6258280">
        <ele>390.8</ele>
        <time>2020-10-19T07:20:53Z</time>
      </trkpt>
      <trkpt lat="42.8050110" lon="-7.6258410">
        <ele>390.9</ele>
        <time>2020-10-19T07:20:54Z</time>
      </trkpt>
      <trkpt lat="42.8050130" lon="-7.6258560">
        <ele>390.9</ele>
        <time>2020-10-19T07:20:55Z</time>
      </trkpt>
      <trkpt lat="42.8050150" lon="-7.6258710">
        <ele>391.0</ele>
        <time>2020-10-19T07:20:56Z</time>
      </trkpt>
      <trkpt lat="42.8050180" lon="-7.6258850">
        <ele>391.1</ele>
        <time>2020-10-19T07:20:57Z</time>
      </trkpt>
      <trkpt lat="42.8050220" lon="-7.6258990">
        <ele>391.1</ele>
        <time>2020-10-19T07:20:58Z</time>
      </trkpt>
      <trkpt lat="42.8050250" lon="-7.6259120">
        <ele>391.2</ele>
        <time>2020-10-19T07:20:59Z</time>
      </trkpt>
      <trkpt lat="42.8050300" lon="-7.6259250">
        <ele>391.3</ele>
        <time>2020-10-19T07:21:00Z</time>
      </trkpt>
      <trkpt lat="42.8050330" lon="-7.6259360">
        <ele>391.3</ele>
        <time>2020-10-19T07:21:01Z</time>
      </trkpt>
      <trkpt lat="42.8050360" lon="-7.6259490">
        <ele>391.4</ele>
        <time>2020-10-19T07:21:02Z</time>
      </trkpt>
      <trkpt lat="42.8050370" lon="-7.6259610">
        <ele>391.4</ele>
        <time>2020-10-19T07:21:03Z</time>
      </trkpt>
      <trkpt lat="42.8050380" lon="-7.6259710">
        <ele>391.5</ele>
        <time>2020-10-19T07:21:04Z</time>
      </trkpt>
      <trkpt lat="42.8050380" lon="-7.6259810">
        <ele>391.5</ele>
        <time>2020-10-19T07:21:05Z</time>
      </trkpt>
      <trkpt lat="42.8050390" lon="-7.6259920">
        <ele>391.6</ele>
        <time>2020-10-19T07:21:06Z</time>
      </trkpt>
      <trkpt lat="42.8050400" lon="-7.6260030">
        <ele>391.6</ele>
        <time>2020-10-19T07:21:07Z</time>
      </trkpt>
      <trkpt lat="42.8050420" lon="-7.6260150">
        <ele>391.7</ele>
        <time>2020-10-19T07:21:08Z</time>
      </trkpt>
      <trkpt lat="42.8050450" lon="-7.6260260">
        <ele>391.8</ele>
        <time>2020-10-19T07:21:09Z</time>
      </trkpt>
      <trkpt lat="42.8050480" lon="-7.6260380">
        <ele>391.8</ele>
        <time>2020-10-19T07:21:10Z</time>
      </trkpt>
      <trkpt lat="42.8050490" lon="-7.6260500">
        <ele>391.9</ele>
        <time>2020-10-19T07:21:11Z</time>
      </trkpt>
      <trkpt lat="42.8050500" lon="-7.6260610">
        <ele>391.9</ele>
        <time>2020-10-19T07:21:12Z</time>
      </trkpt>
      <trkpt lat="42.8050510" lon="-7.6260720">
        <ele>391.9</ele>
        <time>2020-10-19T07:21:13Z</time>
      </trkpt>
      <trkpt lat="42.8050530" lon="-7.6260850">
        <ele>392.0</ele>
        <time>2020-10-19T07:21:14Z</time>
      </trkpt>
      <trkpt lat="42.8050550" lon="-7.6260990">
        <ele>392.0</ele>
        <time>2020-10-19T07:21:15Z</time>
      </trkpt>
      <trkpt lat="42.8050570" lon="-7.6261130">
        <ele>392.1</ele>
        <time>2020-10-19T07:21:16Z</time>
      </trkpt>
      <trkpt lat="42.8050600" lon="-7.6261240">
        <ele>392.2</ele>
        <time>2020-10-19T07:21:17Z</time>
      </trkpt>
      <trkpt lat="42.8050620" lon="-7.6261350">
        <ele>392.2</ele>
        <time>2020-10-19T07:21:18Z</time>
      </trkpt>
      <trkpt lat="42.8050630" lon="-7.6261470">
        <ele>392.2</ele>
        <time>2020-10-19T07:21:19Z</time>
      </trkpt>
      <trkpt lat="42.8050640" lon="-7.6261600">
        <ele>392.3</ele>
        <time>2020-10-19T07:21:20Z</time>
      </trkpt>
      <trkpt lat="42.8050660" lon="-7.6261730">
        <ele>392.4</ele>
        <time>2020-10-19T07:21:21Z</time>
      </trkpt>
      <trkpt lat="42.8050680" lon="-7.6261880">
        <ele>392.4</ele>
        <time>2020-10-19T07:21:22Z</time>
      </trkpt>
      <trkpt lat="42.8050710" lon="-7.6262010">
        <ele>392.5</ele>
        <time>2020-10-19T07:21:23Z</time>
      </trkpt>
      <trkpt lat="42.8050730" lon="-7.6262150">
        <ele>392.6</ele>
        <time>2020-10-19T07:21:24Z</time>
      </trkpt>
      <trkpt lat="42.8050750" lon="-7.6262260">
        <ele>392.6</ele>
        <time>2020-10-19T07:21:25Z</time>
      </trkpt>
      <trkpt lat="42.8050770" lon="-7.6262370">
        <ele>392.7</ele>
        <time>2020-10-19T07:21:26Z</time>
      </trkpt>
      <trkpt lat="42.8050770" lon="-7.6262480">
        <ele>392.7</ele>
        <time>2020-10-19T07:21:27Z</time>
      </trkpt>
      <trkpt lat="42.8050770" lon="-7.6262600">
        <ele>392.8</ele>
        <time>2020-10-19T07:21:28Z</time>
      </trkpt>
      <trkpt lat="42.8050770" lon="-7.6262710">
        <ele>392.8</ele>
        <time>2020-10-19T07:21:29Z</time>
      </trkpt>
      <trkpt lat="42.8050790" lon="-7.6262820">
        <ele>392.9</ele>
        <time>2020-10-19T07:21:30Z</time>
      </trkpt>
      <trkpt lat="42.8050800" lon="-7.6262930">
        <ele>392.9</ele>
        <time>2020-10-19T07:21:31Z</time>
      </trkpt>
      <trkpt lat="42.8050820" lon="-7.6263050">
        <ele>393.0</ele>
        <time>2020-10-19T07:21:32Z</time>
      </trkpt>
      <trkpt lat="42.8050820" lon="-7.6263170">
        <ele>393.0</ele>
        <time>2020-10-19T07:21:33Z</time>
      </trkpt>
      <trkpt lat="42.8050840" lon="-7.6263300">
        <ele>393.0</ele>
        <time>2020-10-19T07:21:34Z</time>
      </trkpt>
      <trkpt lat="42.8050870" lon="-7.6263450">
        <ele>393.1</ele>
        <time>2020-10-19T07:21:35Z</time>
      </trkpt>
      <trkpt lat="42.8050910" lon="-7.6263610">
        <ele>393.2</ele>
        <time>2020-10-19T07:21:36Z</time>
      </trkpt>
      <trkpt lat="42.8050940" lon="-7.6263750">
        <ele>393.2</ele>
        <time>2020-10-19T07:21:37Z</time>
      </trkpt>
      <trkpt lat="42.8050970" lon="-7.6263900">
        <ele>393.3</ele>
        <time>2020-10-19T07:21:38Z</time>
      </trkpt>
      <trkpt lat="42.8051000" lon="-7.6264050">
        <ele>393.4</ele>
        <time>2020-10-19T07:21:39Z</time>
      </trkpt>
      <trkpt lat="42.8051040" lon="-7.6264210">
        <ele>393.5</ele>
        <time>2020-10-19T07:21:40Z</time>
      </trkpt>
      <trkpt lat="42.8051070" lon="-7.6264340">
        <ele>393.6</ele>
        <time>2020-10-19T07:21:41Z</time>
      </trkpt>
      <trkpt lat="42.8051110" lon="-7.6264420">
        <ele>393.6</ele>
        <time>2020-10-19T07:21:42Z</time>
      </trkpt>
      <trkpt lat="42.8051150" lon="-7.6264480">
        <ele>393.6</ele>
        <time>2020-10-19T07:21:43Z</time>
      </trkpt>
      <trkpt lat="42.8051180" lon="-7.6264530">
        <ele>393.7</ele>
        <time>2020-10-19T07:21:44Z</time>
      </trkpt>
      <trkpt lat="42.8051200" lon="-7.6264590">
        <ele>393.7</ele>
        <time>2020-10-19T07:21:45Z</time>
      </trkpt>
      <trkpt lat="42.8051210" lon="-7.6264650">
        <ele>393.7</ele>
        <time>2020-10-19T07:21:46Z</time>
      </trkpt>
      <trkpt lat="42.8051210" lon="-7.6264710">
        <ele>393.8</ele>
        <time>2020-10-19T07:21:47Z</time>
      </trkpt>
      <trkpt lat="42.8051210" lon="-7.6264790">
        <ele>393.8</ele>
        <time>2020-10-19T07:21:48Z</time>
      </trkpt>
      <trkpt lat="42.8051220" lon="-7.6264890">
        <ele>393.9</ele>
        <time>2020-10-19T07:21:49Z</time>
      </trkpt>
      <trkpt lat="42.8051240" lon="-7.6265000">
        <ele>393.9</ele>
        <time>2020-10-19T07:21:50Z</time>
      </trkpt>
      <trkpt lat="42.8051250" lon="-7.6265130">
        <ele>394.0</ele>
        <time>2020-10-19T07:21:51Z</time>
      </trkpt>
      <trkpt lat="42.8051260" lon="-7.6265280">
        <ele>394.1</ele>
        <time>2020-10-19T07:21:52Z</time>
      </trkpt>
      <trkpt lat="42.8051270" lon="-7.6265430">
        <ele>394.2</ele>
        <time>2020-10-19T07:21:53Z</time>
      </trkpt>
      <trkpt lat="42.8051280" lon="-7.6265560">
        <ele>394.2</ele>
        <time>2020-10-19T07:21:54Z</time>
      </trkpt>
      <trkpt lat="42.8051310" lon="-7.6265680">
        <ele>394.3</ele>
        <time>2020-10-19T07:21:55Z</time>
      </trkpt>
      <trkpt lat="42.8051320" lon="-7.6265820">
        <ele>394.4</ele>
        <time>2020-10-19T07:21:56Z</time>
      </trkpt>
      <trkpt lat="42.8051350" lon="-7.6265950">
        <ele>394.4</ele>
        <time>2020-10-19T07:21:57Z</time>
      </trkpt>
      <trkpt lat="42.8051380" lon="-7.6266080">
        <ele>394.5</ele>
        <time>2020-10-19T07:21:58Z</time>
      </trkpt>
      <trkpt lat="42.8051410" lon="-7.6266190">
        <ele>394.6</ele>
        <time>2020-10-19T07:21:59Z</time>
      </trkpt>
      <trkpt lat="42.8051440" lon="-7.6266290">
        <ele>394.6</ele>
        <time>2020-10-19T07:22:00Z</time>
      </trkpt>
      <trkpt lat="42.8051480" lon="-7.6266370">
        <ele>394.7</ele>
        <time>2020-10-19T07:22:01Z</time>
      </trkpt>
      <trkpt lat="42.8051520" lon="-7.6266450">
        <ele>394.7</ele>
        <time>2020-10-19T07:22:02Z</time>
      </trkpt>
      <trkpt lat="42.8051580" lon="-7.6266560">
        <ele>394.8</ele>
        <time>2020-10-19T07:22:03Z</time>
      </trkpt>
      <trkpt lat="42.8051640" lon="-7.6266680">
        <ele>394.9</ele>
        <time>2020-10-19T07:22:04Z</time>
      </trkpt>
      <trkpt lat="42.8051700" lon="-7.6266810">
        <ele>395.0</ele>
        <time>2020-10-19T07:22:05Z</time>
      </trkpt>
      <trkpt lat="42.8051760" lon="-7.6266930">
        <ele>395.1</ele>
        <time>2020-10-19T07:22:06Z</time>
      </trkpt>
      <trkpt lat="42.8051820" lon="-7.6267050">
        <ele>395.1</ele>
        <time>2020-10-19T07:22:07Z</time>
      </trkpt>
      <trkpt lat="42.8051870" lon="-7.6267180">
        <ele>395.2</ele>
        <time>2020-10-19T07:22:08Z</time>
      </trkpt>
      <trkpt lat="42.8051910" lon="-7.6267320">
        <ele>395.3</ele>
        <time>2020-10-19T07:22:09Z</time>
      </trkpt>
      <trkpt lat="42.8051920" lon="-7.6267460">
        <ele>395.4</ele>
        <time>2020-10-19T07:22:10Z</time>
      </trkpt>
      <trkpt lat="42.8051930" lon="-7.6267590">
        <ele>395.5</ele>
        <time>2020-10-19T07:22:11Z</time>
      </trkpt>
      <trkpt lat="42.8051940" lon="-7.6267770">
        <ele>395.6</ele>
        <time>2020-10-19T07:22:12Z</time>
      </trkpt>
      <trkpt lat="42.8051950" lon="-7.6267950">
        <ele>395.7</ele>
        <time>2020-10-19T07:22:13Z</time>
      </trkpt>
      <trkpt lat="42.8051950" lon="-7.6268130">
        <ele>395.8</ele>
        <time>2020-10-19T07:22:14Z</time>
      </trkpt>
      <trkpt lat="42.8051950" lon="-7.6268250">
        <ele>395.9</ele>
        <time>2020-10-19T07:22:15Z</time>
      </trkpt>
      <trkpt lat="42.8051970" lon="-7.6268360">
        <ele>396.0</ele>
        <time>2020-10-19T07:22:16Z</time>
      </trkpt>
      <trkpt lat="42.8051980" lon="-7.6268450">
        <ele>396.0</ele>
        <time>2020-10-19T07:22:17Z</time>
      </trkpt>
      <trkpt lat="42.8051990" lon="-7.6268530">
        <ele>396.1</ele>
        <time>2020-10-19T07:22:18Z</time>
      </trkpt>
      <trkpt lat="42.8051980" lon="-7.6268610">
        <ele>396.2</ele>
        <time>2020-10-19T07:22:19Z</time>
      </trkpt>
      <trkpt lat="42.8051980" lon="-7.6268710">
        <ele>396.2</ele>
        <time>2020-10-19T07:22:20Z</time>
      </trkpt>
      <trkpt lat="42.8051970" lon="-7.6268800">
        <ele>396.3</ele>
        <time>2020-10-19T07:22:21Z</time>
      </trkpt>
      <trkpt lat="42.8051950" lon="-7.6268920">
        <ele>396.4</ele>
        <time>2020-10-19T07:22:22Z</time>
      </trkpt>
      <trkpt lat="42.8051940" lon="-7.6269040">
        <ele>396.5</ele>
        <time>2020-10-19T07:22:23Z</time>
      </trkpt>
      <trkpt lat="42.8051940" lon="-7.6269140">
        <ele>396.5</ele>
        <time>2020-10-19T07:22:24Z</time>
      </trkpt>
      <trkpt lat="42.8051960" lon="-7.6269220">
        <ele>396.6</ele>
        <time>2020-10-19T07:22:25Z</time>
      </trkpt>
      <trkpt lat="42.8051980" lon="-7.6269290">
        <ele>396.7</ele>
        <time>2020-10-19T07:22:26Z</time>
      </trkpt>
      <trkpt lat="42.8052000" lon="-7.6269340">
        <ele>396.7</ele>
        <time>2020-10-19T07:22:27Z</time>
      </trkpt>
      <trkpt lat="42.8052020" lon="-7.6269400">
        <ele>396.8</ele>
        <time>2020-10-19T07:22:28Z</time>
      </trkpt>
      <trkpt lat="42.8052060" lon="-7.6269470">
        <ele>396.8</ele>
        <time>2020-10-19T07:22:29Z</time>
      </trkpt>
      <trkpt lat="42.8052100" lon="-7.6269550">
        <ele>396.9</ele>
        <time>2020-10-19T07:22:30Z</time>
      </trkpt>
      <trkpt lat="42.8052110" lon="-7.6269630">
        <ele>397.0</ele>
        <time>2020-10-19T07:22:31Z</time>
      </trkpt>
      <trkpt lat="42.8052120" lon="-7.6269720">
        <ele>397.0</ele>
        <time>2020-10-19T07:22:32Z</time>
      </trkpt>
      <trkpt lat="42.8052110" lon="-7.6269810">
        <ele>397.1</ele>
        <time>2020-10-19T07:22:33Z</time>
      </trkpt>
      <trkpt lat="42.8052130" lon="-7.6269890">
        <ele>397.2</ele>
        <time>2020-10-19T07:22:34Z</time>
      </trkpt>
      <trkpt lat="42.8052150" lon="-7.6269960">
        <ele>397.3</ele>
        <time>2020-10-19T07:22:35Z</time>
      </trkpt>
      <trkpt lat="42.8052190" lon="-7.6270040">
        <ele>397.3</ele>
        <time>2020-10-19T07:22:36Z</time>
      </trkpt>
      <trkpt lat="42.8052210" lon="-7.6270140">
        <ele>397.4</ele>
        <time>2020-10-19T07:22:37Z</time>
      </trkpt>
      <trkpt lat="42.8052230" lon="-7.6270240">
        <ele>397.5</ele>
        <time>2020-10-19T07:22:38Z</time>
      </trkpt>
      <trkpt lat="42.8052220" lon="-7.6270340">
        <ele>397.6</ele>
        <time>2020-10-19T07:22:39Z</time>
      </trkpt>
      <trkpt lat="42.8052200" lon="-7.6270450">
        <ele>397.7</ele>
        <time>2020-10-19T07:22:40Z</time>
      </trkpt>
      <trkpt lat="42.8052180" lon="-7.6270570">
        <ele>397.8</ele>
        <time>2020-10-19T07:22:41Z</time>
      </trkpt>
      <trkpt lat="42.8052180" lon="-7.6270700">
        <ele>397.9</ele>
        <time>2020-10-19T07:22:42Z</time>
      </trkpt>
      <trkpt lat="42.8052180" lon="-7.6270820">
        <ele>398.0</ele>
        <time>2020-10-19T07:22:43Z</time>
      </trkpt>
      <trkpt lat="42.8052200" lon="-7.6270920">
        <ele>398.1</ele>
        <time>2020-10-19T07:22:44Z</time>
      </trkpt>
      <trkpt lat="42.8052210" lon="-7.6271030">
        <ele>398.2</ele>
        <time>2020-10-19T07:22:45Z</time>
      </trkpt>
      <trkpt lat="42.8052240" lon="-7.6271130">
        <ele>398.3</ele>
        <time>2020-10-19T07:22:46Z</time>
      </trkpt>
      <trkpt lat="42.8052250" lon="-7.6271240">
        <ele>398.4</ele>
        <time>2020-10-19T07:22:47Z</time>
      </trkpt>
      <trkpt lat="42.8052280" lon="-7.6271330">
        <ele>398.5</ele>
        <time>2020-10-19T07:22:48Z</time>
      </trkpt>
      <trkpt lat="42.8052300" lon="-7.6271420">
        <ele>398.5</ele>
        <time>2020-10-19T07:22:49Z</time>
      </trkpt>
      <trkpt lat="42.8052330" lon="-7.6271510">
        <ele>398.6</ele>
        <time>2020-10-19T07:22:50Z</time>
      </trkpt>
      <trkpt lat="42.8052350" lon="-7.6271610">
        <ele>398.7</ele>
        <time>2020-10-19T07:22:51Z</time>
      </trkpt>
      <trkpt lat="42.8052360" lon="-7.6271710">
        <ele>398.8</ele>
        <time>2020-10-19T07:22:52Z</time>
      </trkpt>
      <trkpt lat="42.8052360" lon="-7.6271830">
        <ele>398.9</ele>
        <time>2020-10-19T07:22:53Z</time>
      </trkpt>
      <trkpt lat="42.8052360" lon="-7.6271940">
        <ele>399.0</ele>
        <time>2020-10-19T07:22:54Z</time>
      </trkpt>
      <trkpt lat="42.8052370" lon="-7.6272040">
        <ele>399.0</ele>
        <time>2020-10-19T07:22:55Z</time>
      </trkpt>
      <trkpt lat="42.8052400" lon="-7.6272140">
        <ele>399.1</ele>
        <time>2020-10-19T07:22:56Z</time>
      </trkpt>
      <trkpt lat="42.8052420" lon="-7.6272250">
        <ele>399.2</ele>
        <time>2020-10-19T07:22:57Z</time>
      </trkpt>
      <trkpt lat="42.8052450" lon="-7.6272360">
        <ele>399.3</ele>
        <time>2020-10-19T07:22:58Z</time>
      </trkpt>
      <trkpt lat="42.8052490" lon="-7.6272480">
        <ele>399.4</ele>
        <time>2020-10-19T07:22:59Z</time>
      </trkpt>
      <trkpt lat="42.8052530" lon="-7.6272610">
        <ele>399.5</ele>
        <time>2020-10-19T07:23:00Z</time>
      </trkpt>
      <trkpt lat="42.8052570" lon="-7.6272740">
        <ele>399.6</ele>
        <time>2020-10-19T07:23:01Z</time>
      </trkpt>
      <trkpt lat="42.8052590" lon="-7.6272880">
        <ele>399.7</ele>
        <time>2020-10-19T07:23:02Z</time>
      </trkpt>
      <trkpt lat="42.8052610" lon="-7.6273000">
        <ele>399.8</ele>
        <time>2020-10-19T07:23:03Z</time>
      </trkpt>
      <trkpt lat="42.8052630" lon="-7.6273130">
        <ele>399.9</ele>
        <time>2020-10-19T07:23:04Z</time>
      </trkpt>
      <trkpt lat="42.8052660" lon="-7.6273240">
        <ele>399.9</ele>
        <time>2020-10-19T07:23:05Z</time>
      </trkpt>
      <trkpt lat="42.8052680" lon="-7.6273380">
        <ele>400.0</ele>
        <time>2020-10-19T07:23:06Z</time>
      </trkpt>
      <trkpt lat="42.8052700" lon="-7.6273490">
        <ele>400.1</ele>
        <time>2020-10-19T07:23:07Z</time>
      </trkpt>
      <trkpt lat="42.8052710" lon="-7.6273620">
        <ele>400.2</ele>
        <time>2020-10-19T07:23:08Z</time>
      </trkpt>
      <trkpt lat="42.8052730" lon="-7.6273720">
        <ele>400.3</ele>
        <time>2020-10-19T07:23:09Z</time>
      </trkpt>
      <trkpt lat="42.8052750" lon="-7.6273830">
        <ele>400.3</ele>
        <time>2020-10-19T07:23:10Z</time>
      </trkpt>
      <trkpt lat="42.8052760" lon="-7.6273940">
        <ele>400.4</ele>
        <time>2020-10-19T07:23:11Z</time>
      </trkpt>
      <trkpt lat="42.8052770" lon="-7.6274040">
        <ele>400.5</ele>
        <time>2020-10-19T07:23:12Z</time>
      </trkpt>
      <trkpt lat="42.8052790" lon="-7.6274140">
        <ele>400.5</ele>
        <time>2020-10-19T07:23:13Z</time>
      </trkpt>
      <trkpt lat="42.8052820" lon="-7.6274240">
        <ele>400.6</ele>
        <time>2020-10-19T07:23:14Z</time>
      </trkpt>
      <trkpt lat="42.8052860" lon="-7.6274340">
        <ele>400.6</ele>
        <time>2020-10-19T07:23:15Z</time>
      </trkpt>
      <trkpt lat="42.8052890" lon="-7.6274450">
        <ele>400.7</ele>
        <time>2020-10-19T07:23:16Z</time>
      </trkpt>
      <trkpt lat="42.8052920" lon="-7.6274570">
        <ele>400.8</ele>
        <time>2020-10-19T07:23:17Z</time>
      </trkpt>
      <trkpt lat="42.8052950" lon="-7.6274700">
        <ele>400.8</ele>
        <time>2020-10-19T07:23:18Z</time>
      </trkpt>
      <trkpt lat="42.8052990" lon="-7.6274830">
        <ele>400.9</ele>
        <time>2020-10-19T07:23:19Z</time>
      </trkpt>
      <trkpt lat="42.8053020" lon="-7.6274940">
        <ele>401.0</ele>
        <time>2020-10-19T07:23:20Z</time>
      </trkpt>
      <trkpt lat="42.8053070" lon="-7.6275030">
        <ele>401.0</ele>
        <time>2020-10-19T07:23:21Z</time>
      </trkpt>
      <trkpt lat="42.8053120" lon="-7.6275120">
        <ele>401.1</ele>
        <time>2020-10-19T07:23:22Z</time>
      </trkpt>
      <trkpt lat="42.8053150" lon="-7.6275220">
        <ele>401.1</ele>
        <time>2020-10-19T07:23:23Z</time>
      </trkpt>
      <trkpt lat="42.8053160" lon="-7.6275310">
        <ele>401.2</ele>
        <time>2020-10-19T07:23:24Z</time>
      </trkpt>
      <trkpt lat="42.8053180" lon="-7.6275410">
        <ele>401.2</ele>
        <time>2020-10-19T07:23:25Z</time>
      </trkpt>
      <trkpt lat="42.8053210" lon="-7.6275500">
        <ele>401.2</ele>
        <time>2020-10-19T07:23:26Z</time>
      </trkpt>
      <trkpt lat="42.8053240" lon="-7.6275620">
        <ele>401.3</ele>
        <time>2020-10-19T07:23:27Z</time>
      </trkpt>
      <trkpt lat="42.8053270" lon="-7.6275740">
        <ele>401.3</ele>
        <time>2020-10-19T07:23:28Z</time>
      </trkpt>
      <trkpt lat="42.8053300" lon="-7.6275860">
        <ele>401.4</ele>
        <time>2020-10-19T07:23:29Z</time>
      </trkpt>
      <trkpt lat="42.8053330" lon="-7.6275980">
        <ele>401.4</ele>
        <time>2020-10-19T07:23:30Z</time>
      </trkpt>
      <trkpt lat="42.8053360" lon="-7.6276100">
        <ele>401.5</ele>
        <time>2020-10-19T07:23:31Z</time>
      </trkpt>
      <trkpt lat="42.8053380" lon="-7.6276190">
        <ele>401.5</ele>
        <time>2020-10-19T07:23:32Z</time>
      </trkpt>
      <trkpt lat="42.8053410" lon="-7.6276290">
        <ele>401.6</ele>
        <time>2020-10-19T07:23:33Z</time>
      </trkpt>
      <trkpt lat="42.8053430" lon="-7.6276400">
        <ele>401.6</ele>
        <time>2020-10-19T07:23:34Z</time>
      </trkpt>
      <trkpt lat="42.8053470" lon="-7.6276510">
        <ele>401.7</ele>
        <time>2020-10-19T07:23:35Z</time>
      </trkpt>
      <trkpt lat="42.8053500" lon="-7.6276620">
        <ele>401.7</ele>
        <time>2020-10-19T07:23:36Z</time>
      </trkpt>
      <trkpt lat="42.8053530" lon="-7.6276730">
        <ele>401.8</ele>
        <time>2020-10-19T07:23:37Z</time>
      </trkpt>
      <trkpt lat="42.8053550" lon="-7.6276840">
        <ele>401.8</ele>
        <time>2020-10-19T07:23:38Z</time>
      </trkpt>
      <trkpt lat="42.8053570" lon="-7.6276940">
        <ele>401.8</ele>
        <time>2020-10-19T07:23:39Z</time>
      </trkpt>
      <trkpt lat="42.8053600" lon="-7.6277060">
        <ele>401.9</ele>
        <time>2020-10-19T07:23:40Z</time>
      </trkpt>
      <trkpt lat="42.8053630" lon="-7.6277160">
        <ele>401.9</ele>
        <time>2020-10-19T07:23:41Z</time>
      </trkpt>
      <trkpt lat="42.8053660" lon="-7.6277280">
        <ele>402.0</ele>
        <time>2020-10-19T07:23:42Z</time>
      </trkpt>
      <trkpt lat="42.8053700" lon="-7.6277390">
        <ele>402.0</ele>
        <time>2020-10-19T07:23:43Z</time>
      </trkpt>
      <trkpt lat="42.8053740" lon="-7.6277530">
        <ele>402.1</ele>
        <time>2020-10-19T07:23:44Z</time>
      </trkpt>
      <trkpt lat="42.8053780" lon="-7.6277660">
        <ele>402.1</ele>
        <time>2020-10-19T07:23:45Z</time>
      </trkpt>
      <trkpt lat="42.8053820" lon="-7.6277790">
        <ele>402.2</ele>
        <time>2020-10-19T07:23:46Z</time>
      </trkpt>
      <trkpt lat="42.8053860" lon="-7.6277910">
        <ele>402.2</ele>
        <time>2020-10-19T07:23:47Z</time>
      </trkpt>
      <trkpt lat="42.8053900" lon="-7.6278030">
        <ele>402.3</ele>
        <time>2020-10-19T07:23:48Z</time>
      </trkpt>
      <trkpt lat="42.8053960" lon="-7.6278150">
        <ele>402.3</ele>
        <time>2020-10-19T07:23:49Z</time>
      </trkpt>
      <trkpt lat="42.8054000" lon="-7.6278280">
        <ele>402.4</ele>
        <time>2020-10-19T07:23:50Z</time>
      </trkpt>
      <trkpt lat="42.8054040" lon="-7.6278420">
        <ele>402.4</ele>
        <time>2020-10-19T07:23:51Z</time>
      </trkpt>
      <trkpt lat="42.8054080" lon="-7.6278560">
        <ele>402.5</ele>
        <time>2020-10-19T07:23:52Z</time>
      </trkpt>
      <trkpt lat="42.8054120" lon="-7.6278680">
        <ele>402.5</ele>
        <time>2020-10-19T07:23:53Z</time>
      </trkpt>
      <trkpt lat="42.8054160" lon="-7.6278800">
        <ele>402.5</ele>
        <time>2020-10-19T07:23:54Z</time>
      </trkpt>
      <trkpt lat="42.8054190" lon="-7.6278930">
        <ele>402.6</ele>
        <time>2020-10-19T07:23:55Z</time>
      </trkpt>
      <trkpt lat="42.8054200" lon="-7.6279060">
        <ele>402.6</ele>
        <time>2020-10-19T07:23:56Z</time>
      </trkpt>
      <trkpt lat="42.8054230" lon="-7.6279210">
        <ele>402.7</ele>
        <time>2020-10-19T07:23:57Z</time>
      </trkpt>
      <trkpt lat="42.8054260" lon="-7.6279340">
        <ele>402.7</ele>
        <time>2020-10-19T07:23:58Z</time>
      </trkpt>
      <trkpt lat="42.8054290" lon="-7.6279460">
        <ele>402.8</ele>
        <time>2020-10-19T07:23:59Z</time>
      </trkpt>
      <trkpt lat="42.8054320" lon="-7.6279590">
        <ele>402.8</ele>
        <time>2020-10-19T07:24:00Z</time>
      </trkpt>
      <trkpt lat="42.8054340" lon="-7.6279730">
        <ele>402.8</ele>
        <time>2020-10-19T07:24:01Z</time>
      </trkpt>
      <trkpt lat="42.8054360" lon="-7.6279850">
        <ele>402.9</ele>
        <time>2020-10-19T07:24:02Z</time>
      </trkpt>
      <trkpt lat="42.8054370" lon="-7.6279970">
        <ele>402.9</ele>
        <time>2020-10-19T07:24:03Z</time>
      </trkpt>
      <trkpt lat="42.8054400" lon="-7.6280090">
        <ele>402.9</ele>
        <time>2020-10-19T07:24:04Z</time>
      </trkpt>
      <trkpt lat="42.8054430" lon="-7.6280190">
        <ele>403.0</ele>
        <time>2020-10-19T07:24:05Z</time>
      </trkpt>
      <trkpt lat="42.8054470" lon="-7.6280290">
        <ele>403.0</ele>
        <time>2020-10-19T07:24:06Z</time>
      </trkpt>
      <trkpt lat="42.8054490" lon="-7.6280370">
        <ele>403.0</ele>
        <time>2020-10-19T07:24:07Z</time>
      </trkpt>
      <trkpt lat="42.8054510" lon="-7.6280440">
        <ele>403.0</ele>
        <time>2020-10-19T07:24:08Z</time>
      </trkpt>
      <trkpt lat="42.8054530" lon="-7.6280470">
        <ele>403.1</ele>
        <time>2020-10-19T07:24:09Z</time>
      </trkpt>
      <trkpt lat="42.8054540" lon="-7.6280460">
        <ele>403.1</ele>
        <time>2020-10-19T07:24:10Z</time>
      </trkpt>
      <trkpt lat="42.8054550" lon="-7.6280460">
        <ele>403.1</ele>
        <time>2020-10-19T07:24:11Z</time>
      </trkpt>
      <trkpt lat="42.8054550" lon="-7.6280460">
        <ele>403.1</ele>
        <time>2020-10-19T07:24:12Z</time>
      </trkpt>
      <trkpt lat="42.8054550" lon="-7.6280460">
        <ele>403.1</ele>
        <time>2020-10-19T07:24:13Z</time>
      </trkpt>
      <trkpt lat="42.8054540" lon="-7.6280440">
        <ele>403.1</ele>
        <time>2020-10-19T07:24:14Z</time>
      </trkpt>
      <trkpt lat="42.8054540" lon="-7.6280420">
        <ele>403.1</ele>
        <time>2020-10-19T07:24:15Z</time>
      </trkpt>
      <trkpt lat="42.8054540" lon="-7.6280390">
        <ele>403.1</ele>
        <time>2020-10-19T07:24:16Z</time>
      </trkpt>
      <trkpt lat="42.8054540" lon="-7.6280360">
        <ele>403.1</ele>
        <time>2020-10-19T07:24:17Z</time>
      </trkpt>
      <trkpt lat="42.8054550" lon="-7.6280330">
        <ele>403.1</ele>
        <time>2020-10-19T07:24:18Z</time>
      </trkpt>
      <trkpt lat="42.8054550" lon="-7.6280310">
        <ele>403.1</ele>
        <time>2020-10-19T07:24:19Z</time>
      </trkpt>
      <trkpt lat="42.8054560" lon="-7.6280300">
        <ele>403.1</ele>
        <time>2020-10-19T07:24:20Z</time>
      </trkpt>
      <trkpt lat="42.8054560" lon="-7.6280280">
        <ele>403.1</ele>
        <time>2020-10-19T07:24:21Z</time>
      </trkpt>
      <trkpt lat="42.8054550" lon="-7.6280260">
        <ele>403.1</ele>
        <time>2020-10-19T07:24:22Z</time>
      </trkpt>
      <trkpt lat="42.8054540" lon="-7.6280250">
        <ele>403.1</ele>
        <time>2020-10-19T07:24:23Z</time>
      </trkpt>
      <trkpt lat="42.8054510" lon="-7.6280260">
        <ele>403.1</ele>
        <time>2020-10-19T07:24:24Z</time>
      </trkpt>
      <trkpt lat="42.8054470" lon="-7.6280300">
        <ele>403.2</ele>
        <time>2020-10-19T07:24:25Z</time>
      </trkpt>
      <trkpt lat="42.8054420" lon="-7.6280350">
        <ele>403.2</ele>
        <time>2020-10-19T07:24:26Z</time>
      </trkpt>
      <trkpt lat="42.8054370" lon="-7.6280380">
        <ele>403.2</ele>
        <time>2020-10-19T07:24:27Z</time>
      </trkpt>
      <trkpt lat="42.8054330" lon="-7.6280370">
        <ele>403.2</ele>
        <time>2020-10-19T07:24:28Z</time>
      </trkpt>
      <trkpt lat="42.8054340" lon="-7.6280320">
        <ele>403.2</ele>
        <time>2020-10-19T07:24:29Z</time>
      </trkpt>
      <trkpt lat="42.8054350" lon="-7.6280300">
        <ele>403.3</ele>
        <time>2020-10-19T07:24:30Z</time>
      </trkpt>
      <trkpt lat="42.8054360" lon="-7.6280290">
        <ele>403.3</ele>
        <time>2020-10-19T07:24:31Z</time>
      </trkpt>
      <trkpt lat="42.8054370" lon="-7.6280300">
        <ele>403.3</ele>
        <time>2020-10-19T07:24:32Z</time>
      </trkpt>
      <trkpt lat="42.8054390" lon="-7.6280290">
        <ele>403.3</ele>
        <time>2020-10-19T07:24:33Z</time>
      </trkpt>
      <trkpt lat="42.8054390" lon="-7.6280280">
        <ele>403.3</ele>
        <time>2020-10-19T07:24:34Z</time>
      </trkpt>
      <trkpt lat="42.8054390" lon="-7.6280290">
        <ele>403.3</ele>
        <time>2020-10-19T07:24:35Z</time>
      </trkpt>
      <trkpt lat="42.8054380" lon="-7.6280280">
        <ele>403.3</ele>
        <time>2020-10-19T07:24:36Z</time>
      </trkpt>
      <trkpt lat="42.8054380" lon="-7.6280280">
        <ele>403.3</ele>
        <time>2020-10-19T07:24:37Z</time>
      </trkpt>
      <trkpt lat="42.8054370" lon="-7.6280280">
        <ele>403.3</ele>
        <time>2020-10-19T07:24:38Z</time>
      </trkpt>
      <trkpt lat="42.8054360" lon="-7.6280290">
        <ele>403.3</ele>
        <time>2020-10-19T07:24:39Z</time>
      </trkpt>
      <trkpt lat="42.8054350" lon="-7.6280290">
        <ele>403.3</ele>
        <time>2020-10-19T07:24:40Z</time>
      </trkpt>
      <trkpt lat="42.8054330" lon="-7.6280280">
        <ele>403.3</ele>
        <time>2020-10-19T07:24:41Z</time>
      </trkpt>
      <trkpt lat="42.8054320" lon="-7.6280270">
        <ele>403.3</ele>
        <time>2020-10-19T07:24:42Z</time>
      </trkpt>
      <trkpt lat="42.8054320" lon="-7.6280260">
        <ele>403.3</ele>
        <time>2020-10-19T07:24:43Z</time>
      </trkpt>
      <trkpt lat="42.8054310" lon="-7.6280250">
        <ele>403.3</ele>
        <time>2020-10-19T07:24:44Z</time>
      </trkpt>
      <trkpt lat="42.8054300" lon="-7.6280230">
        <ele>403.3</ele>
        <time>2020-10-19T07:24:45Z</time>
      </trkpt>
      <trkpt lat="42.8054280" lon="-7.6280220">
        <ele>403.3</ele>
        <time>2020-10-19T07:24:46Z</time>
      </trkpt>
      <trkpt lat="42.8054270" lon="-7.6280220">
        <ele>403.3</ele>
        <time>2020-10-19T07:24:47Z</time>
      </trkpt>
      <trkpt lat="42.8054260" lon="-7.6280230">
        <ele>403.3</ele>
        <time>2020-10-19T07:24:48Z</time>
      </trkpt>
      <trkpt lat="42.8054250" lon="-7.6280230">
        <ele>403.3</ele>
        <time>2020-10-19T07:24:49Z</time>
      </trkpt>
      <trkpt lat="42.8054230" lon="-7.6280250">
        <ele>403.4</ele>
        <time>2020-10-19T07:24:50Z</time>
      </trkpt>
      <trkpt lat="42.8054220" lon="-7.6280250">
        <ele>403.4</ele>
        <time>2020-10-19T07:24:51Z</time>
      </trkpt>
      <trkpt lat="42.8054210" lon="-7.6280250">
        <ele>403.4</ele>
        <time>2020-10-19T07:24:52Z</time>
      </trkpt>
      <trkpt lat="42.8054200" lon="-7.6280250">
        <ele>403.4</ele>
        <time>2020-10-19T07:24:53Z</time>
      </trkpt>
      <trkpt lat="42.8054190" lon="-7.6280250">
        <ele>403.4</ele>
        <time>2020-10-19T07:24:54Z</time>
      </trkpt>
      <trkpt lat="42.8054170" lon="-7.6280250">
        <ele>403.4</ele>
        <time>2020-10-19T07:24:55Z</time>
      </trkpt>
      <trkpt lat="42.8054160" lon="-7.6280250">
        <ele>403.4</ele>
        <time>2020-10-19T07:24:56Z</time>
      </trkpt>
      <trkpt lat="42.8054150" lon="-7.6280240">
        <ele>403.4</ele>
        <time>2020-10-19T07:24:57Z</time>
      </trkpt>
      <trkpt lat="42.8054130" lon="-7.6280230">
        <ele>403.4</ele>
        <time>2020-10-19T07:24:58Z</time>
      </trkpt>
      <trkpt lat="42.8054120" lon="-7.6280220">
        <ele>403.4</ele>
        <time>2020-10-19T07:24:59Z</time>
      </trkpt>
      <trkpt lat="42.8054110" lon="-7.6280210">
        <ele>403.4</ele>
        <time>2020-10-19T07:25:00Z</time>
      </trkpt>
      <trkpt lat="42.8054090" lon="-7.6280190">
        <ele>403.4</ele>
        <time>2020-10-19T07:25:01Z</time>
      </trkpt>
      <trkpt lat="42.8054050" lon="-7.6280200">
        <ele>403.4</ele>
        <time>2020-10-19T07:25:02Z</time>
      </trkpt>
      <trkpt lat="42.8054020" lon="-7.6280250">
        <ele>403.5</ele>
        <time>2020-10-19T07:25:03Z</time>
      </trkpt>
      <trkpt lat="42.8053990" lon="-7.6280340">
        <ele>403.5</ele>
        <time>2020-10-19T07:25:04Z</time>
      </trkpt>
      <trkpt lat="42.8053990" lon="-7.6280480">
        <ele>403.5</ele>
        <time>2020-10-19T07:25:05Z</time>
      </trkpt>
      <trkpt lat="42.8053990" lon="-7.6280620">
        <ele>403.6</ele>
        <time>2020-10-19T07:25:06Z</time>
      </trkpt>
      <trkpt lat="42.8053990" lon="-7.6280750">
        <ele>403.6</ele>
        <time>2020-10-19T07:25:07Z</time>
      </trkpt>
      <trkpt lat="42.8054000" lon="-7.6280810">
        <ele>403.7</ele>
        <time>2020-10-19T07:25:08Z</time>
      </trkpt>
      <trkpt lat="42.8054000" lon="-7.6280840">
        <ele>403.7</ele>
        <time>2020-10-19T07:25:09Z</time>
      </trkpt>
      <trkpt lat="42.8054010" lon="-7.6280870">
        <ele>403.7</ele>
        <time>2020-10-19T07:25:10Z</time>
      </trkpt>
      <trkpt lat="42.8054010" lon="-7.6280890">
        <ele>403.7</ele>
        <time>2020-10-19T07:25:11Z</time>
      </trkpt>
      <trkpt lat="42.8054000" lon="-7.6280920">
        <ele>403.7</ele>
        <time>2020-10-19T07:25:12Z</time>
      </trkpt>
      <trkpt lat="42.8054010" lon="-7.6280950">
        <ele>403.7</ele>
        <time>2020-10-19T07:25:13Z</time>
      </trkpt>
      <trkpt lat="42.8054000" lon="-7.6280990">
        <ele>403.7</ele>
        <time>2020-10-19T07:25:14Z</time>
      </trkpt>
      <trkpt lat="42.8054000" lon="-7.6281050">
        <ele>403.8</ele>
        <time>2020-10-19T07:25:15Z</time>
      </trkpt>
      <trkpt lat="42.8054010" lon="-7.6281150">
        <ele>403.8</ele>
        <time>2020-10-19T07:25:16Z</time>
      </trkpt>
      <trkpt lat="42.8054040" lon="-7.6281350">
        <ele>403.9</ele>
        <time>2020-10-19T07:25:17Z</time>
      </trkpt>
      <trkpt lat="42.8054080" lon="-7.6281540">
        <ele>404.0</ele>
        <time>2020-10-19T07:25:18Z</time>
      </trkpt>
      <trkpt lat="42.8054090" lon="-7.6281750">
        <ele>404.0</ele>
        <time>2020-10-19T07:25:19Z</time>
      </trkpt>
      <trkpt lat="42.8054080" lon="-7.6281880">
        <ele>404.1</ele>
        <time>2020-10-19T07:25:20Z</time>
      </trkpt>
      <trkpt lat="42.8054080" lon="-7.6282010">
        <ele>404.2</ele>
        <time>2020-10-19T07:25:21Z</time>
      </trkpt>
      <trkpt lat="42.8054110" lon="-7.6282120">
        <ele>404.2</ele>
        <time>2020-10-19T07:25:22Z</time>
      </trkpt>
      <trkpt lat="42.8054140" lon="-7.6282240">
        <ele>404.3</ele>
        <time>2020-10-19T07:25:23Z</time>
      </trkpt>
      <trkpt lat="42.8054180" lon="-7.6282350">
        <ele>404.3</ele>
        <time>2020-10-19T07:25:24Z</time>
      </trkpt>
      <trkpt lat="42.8054210" lon="-7.6282470">
        <ele>404.4</ele>
        <time>2020-10-19T07:25:25Z</time>
      </trkpt>
      <trkpt lat="42.8054250" lon="-7.6282590">
        <ele>404.4</ele>
        <time>2020-10-19T07:25:26Z</time>
      </trkpt>
      <trkpt lat="42.8054270" lon="-7.6282710">
        <ele>404.5</ele>
        <time>2020-10-19T07:25:27Z</time>
      </trkpt>
      <trkpt lat="42.8054300" lon="-7.6282800">
        <ele>404.5</ele>
        <time>2020-10-19T07:25:28Z</time>
      </trkpt>
      <trkpt lat="42.8054320" lon="-7.6282860">
        <ele>404.6</ele>
        <time>2020-10-19T07:25:29Z</time>
      </trkpt>
      <trkpt lat="42.8054340" lon="-7.6282910">
        <ele>404.6</ele>
        <time>2020-10-19T07:25:30Z</time>
      </trkpt>
      <trkpt lat="42.8054350" lon="-7.6282940">
        <ele>404.6</ele>
        <time>2020-10-19T07:25:31Z</time>
      </trkpt>
      <trkpt lat="42.8054350" lon="-7.6282960">
        <ele>404.6</ele>
        <time>2020-10-19T07:25:32Z</time>
      </trkpt>
      <trkpt lat="42.8054340" lon="-7.6282970">
        <ele>404.6</ele>
        <time>2020-10-19T07:25:33Z</time>
      </trkpt>
      <trkpt lat="42.8054350" lon="-7.6282990">
        <ele>404.6</ele>
        <time>2020-10-19T07:25:34Z</time>
      </trkpt>
      <trkpt lat="42.8054360" lon="-7.6283010">
        <ele>404.7</ele>
        <time>2020-10-19T07:25:35Z</time>
      </trkpt>
      <trkpt lat="42.8054390" lon="-7.6283020">
        <ele>404.7</ele>
        <time>2020-10-19T07:25:36Z</time>
      </trkpt>
      <trkpt lat="42.8054420" lon="-7.6283050">
        <ele>404.7</ele>
        <time>2020-10-19T07:25:37Z</time>
      </trkpt>
      <trkpt lat="42.8054460" lon="-7.6283070">
        <ele>404.7</ele>
        <time>2020-10-19T07:25:38Z</time>
      </trkpt>
      <trkpt lat="42.8054510" lon="-7.6283120">
        <ele>404.8</ele>
        <time>2020-10-19T07:25:39Z</time>
      </trkpt>
      <trkpt lat="42.8054540" lon="-7.6283180">
        <ele>404.8</ele>
        <time>2020-10-19T07:25:40Z</time>
      </trkpt>
      <trkpt lat="42.8054560" lon="-7.6283260">
        <ele>404.8</ele>
        <time>2020-10-19T07:25:41Z</time>
      </trkpt>
      <trkpt lat="42.8054570" lon="-7.6283320">
        <ele>404.9</ele>
        <time>2020-10-19T07:25:42Z</time>
      </trkpt>
      <trkpt lat="42.8054590" lon="-7.6283390">
        <ele>404.9</ele>
        <time>2020-10-19T07:25:43Z</time>
      </trkpt>
      <trkpt lat="42.8054620" lon="-7.6283440">
        <ele>404.9</ele>
        <time>2020-10-19T07:25:44Z</time>
      </trkpt>
      <trkpt lat="42.8054640" lon="-7.6283500">
        <ele>405.0</ele>
        <time>2020-10-19T07:25:45Z</time>
      </trkpt>
      <trkpt lat="42.8054660" lon="-7.6283530">
        <ele>405.0</ele>
        <time>2020-10-19T07:25:46Z</time>
      </trkpt>
      <trkpt lat="42.8054690" lon="-7.6283550">
        <ele>405.0</ele>
        <time>2020-10-19T07:25:47Z</time>
      </trkpt>
      <trkpt lat="42.8054720" lon="-7.6283580">
        <ele>405.0</ele>
        <time>2020-10-19T07:25:48Z</time>
      </trkpt>
      <trkpt lat="42.8054740" lon="-7.6283610">
        <ele>405.1</ele>
        <time>2020-10-19T07:25:49Z</time>
      </trkpt>
      <trkpt lat="42.8054760" lon="-7.6283640">
        <ele>405.1</ele>
        <time>2020-10-19T07:25:50Z</time>
      </trkpt>
      <trkpt lat="42.8054770" lon="-7.6283660">
        <ele>405.1</ele>
        <time>2020-10-19T07:25:51Z</time>
      </trkpt>
      <trkpt lat="42.8054780" lon="-7.6283680">
        <ele>405.1</ele>
        <time>2020-10-19T07:25:52Z</time>
      </trkpt>
      <trkpt lat="42.8054800" lon="-7.6283700">
        <ele>405.1</ele>
        <time>2020-10-19T07:25:53Z</time>
      </trkpt>
      <trkpt lat="42.8054820" lon="-7.6283700">
        <ele>405.1</ele>
        <time>2020-10-19T07:25:54Z</time>
      </trkpt>
      <trkpt lat="42.8054850" lon="-7.6283690">
        <ele>405.2</ele>
        <time>2020-10-19T07:25:55Z</time>
      </trkpt>
      <trkpt lat="42.8054890" lon="-7.6283700">
        <ele>405.2</ele>
        <time>2020-10-19T07:25:56Z</time>
      </trkpt>
      <trkpt lat="42.8054900" lon="-7.6283770">
        <ele>405.2</ele>
        <time>2020-10-19T07:25:57Z</time>
      </trkpt>
      <trkpt lat="42.8054910" lon="-7.6283860">
        <ele>405.3</ele>
        <time>2020-10-19T07:25:58Z</time>
      </trkpt>
      <trkpt lat="42.8054910" lon="-7.6283920">
        <ele>405.3</ele>
        <time>2020-10-19T07:25:59Z</time>
      </trkpt>
      <trkpt lat="42.8054930" lon="-7.6283990">
        <ele>405.3</ele>
        <time>2020-10-19T07:26:00Z</time>
      </trkpt>
      <trkpt lat="42.8054950" lon="-7.6284070">
        <ele>405.4</ele>
        <time>2020-10-19T07:26:01Z</time>
      </trkpt>
      <trkpt lat="42.8054990" lon="-7.6284160">
        <ele>405.4</ele>
        <time>2020-10-19T07:26:02Z</time>
      </trkpt>
      <trkpt lat="42.8055050" lon="-7.6284230">
        <ele>405.5</ele>
        <time>2020-10-19T07:26:03Z</time>
      </trkpt>
      <trkpt lat="42.8055110" lon="-7.6284330">
        <ele>405.5</ele>
        <time>2020-10-19T07:26:04Z</time>
      </trkpt>
      <trkpt lat="42.8055160" lon="-7.6284420">
        <ele>405.6</ele>
        <time>2020-10-19T07:26:05Z</time>
      </trkpt>
      <trkpt lat="42.8055190" lon="-7.6284550">
        <ele>405.7</ele>
        <time>2020-10-19T07:26:06Z</time>
      </trkpt>
      <trkpt lat="42.8055210" lon="-7.6284670">
        <ele>405.7</ele>
        <time>2020-10-19T07:26:07Z</time>
      </trkpt>
      <trkpt lat="42.8055240" lon="-7.6284790">
        <ele>405.8</ele>
        <time>2020-10-19T07:26:08Z</time>
      </trkpt>
      <trkpt lat="42.8055280" lon="-7.6284870">
        <ele>405.8</ele>
        <time>2020-10-19T07:26:09Z</time>
      </trkpt>
      <trkpt lat="42.8055320" lon="-7.6284960">
        <ele>405.9</ele>
        <time>2020-10-19T07:26:10Z</time>
      </trkpt>
      <trkpt lat="42.8055360" lon="-7.6285040">
        <ele>405.9</ele>
        <time>2020-10-19T07:26:11Z</time>
      </trkpt>
      <trkpt lat="42.8055400" lon="-7.6285120">
        <ele>406.0</ele>
        <time>2020-10-19T07:26:12Z</time>
      </trkpt>
      <trkpt lat="42.8055440" lon="-7.6285190">
        <ele>406.0</ele>
        <time>2020-10-19T07:26:13Z</time>
      </trkpt>
      <trkpt lat="42.8055490" lon="-7.6285270">
        <ele>406.1</ele>
        <time>2020-10-19T07:26:14Z</time>
      </trkpt>
      <trkpt lat="42.8055510" lon="-7.6285360">
        <ele>406.1</ele>
        <time>2020-10-19T07:26:15Z</time>
      </trkpt>
      <trkpt lat="42.8055540" lon="-7.6285430">
        <ele>406.1</ele>
        <time>2020-10-19T07:26:16Z</time>
      </trkpt>
      <trkpt lat="42.8055560" lon="-7.6285500">
        <ele>406.2</ele>
        <time>2020-10-19T07:26:17Z</time>
      </trkpt>
      <trkpt lat="42.8055600" lon="-7.6285580">
        <ele>406.2</ele>
        <time>2020-10-19T07:26:18Z</time>
      </trkpt>
      <trkpt lat="42.8055640" lon="-7.6285680">
        <ele>406.3</ele>
        <time>2020-10-19T07:26:19Z</time>
      </trkpt>
      <trkpt lat="42.8055670" lon="-7.6285760">
        <ele>406.3</ele>
        <time>2020-10-19T07:26:20Z</time>
      </trkpt>
      <trkpt lat="42.8055700" lon="-7.6285830">
        <ele>406.3</ele>
        <time>2020-10-19T07:26:21Z</time>
      </trkpt>
      <trkpt lat="42.8055730" lon="-7.6285910">
        <ele>406.4</ele>
        <time>2020-10-19T07:26:22Z</time>
      </trkpt>
      <trkpt lat="42.8055730" lon="-7.6285990">
        <ele>406.4</ele>
        <time>2020-10-19T07:26:23Z</time>
      </trkpt>
      <trkpt lat="42.8055740" lon="-7.6286080">
        <ele>406.4</ele>
        <time>2020-10-19T07:26:24Z</time>
      </trkpt>
      <trkpt lat="42.8055770" lon="-7.6286170">
        <ele>406.5</ele>
        <time>2020-10-19T07:26:25Z</time>
      </trkpt>
      <trkpt lat="42.8055840" lon="-7.6286250">
        <ele>406.5</ele>
        <time>2020-10-19T07:26:26Z</time>
      </trkpt>
      <trkpt lat="42.8055910" lon="-7.6286330">
        <ele>406.6</ele>
        <time>2020-10-19T07:26:27Z</time>
      </trkpt>
      <trkpt lat="42.8055960" lon="-7.6286380">
        <ele>406.6</ele>
        <time>2020-10-19T07:26:28Z</time>
      </trkpt>
      <trkpt lat="42.8056010" lon="-7.6286490">
        <ele>406.7</ele>
        <time>2020-10-19T07:26:29Z</time>
      </trkpt>
      <trkpt lat="42.8056060" lon="-7.6286620">
        <ele>406.7</ele>
        <time>2020-10-19T07:26:30Z</time>
      </trkpt>
      <trkpt lat="42.8056110" lon="-7.6286750">
        <ele>406.8</ele>
        <time>2020-10-19T07:26:31Z</time>
      </trkpt>
      <trkpt lat="42.8056130" lon="-7.6286810">
        <ele>406.8</ele>
        <time>2020-10-19T07:26:32Z</time>
      </trkpt>
      <trkpt lat="42.8056150" lon="-7.6286850">
        <ele>406.9</ele>
        <time>2020-10-19T07:26:33Z</time>
      </trkpt>
      <trkpt lat="42.8056160" lon="-7.6286890">
        <ele>406.9</ele>
        <time>2020-10-19T07:26:34Z</time>
      </trkpt>
      <trkpt lat="42.8056170" lon="-7.6286920">
        <ele>406.9</ele>
        <time>2020-10-19T07:26:35Z</time>
      </trkpt>
      <trkpt lat="42.8056180" lon="-7.6286930">
        <ele>406.9</ele>
        <time>2020-10-19T07:26:36Z</time>
      </trkpt>
      <trkpt lat="42.8056170" lon="-7.6286950">
        <ele>406.9</ele>
        <time>2020-10-19T07:26:37Z</time>
      </trkpt>
      <trkpt lat="42.8056140" lon="-7.6286980">
        <ele>406.9</ele>
        <time>2020-10-19T07:26:38Z</time>
      </trkpt>
      <trkpt lat="42.8056110" lon="-7.6287020">
        <ele>407.0</ele>
        <time>2020-10-19T07:26:39Z</time>
      </trkpt>
      <trkpt lat="42.8056100" lon="-7.6287060">
        <ele>407.0</ele>
        <time>2020-10-19T07:26:40Z</time>
      </trkpt>
      <trkpt lat="42.8056090" lon="-7.6287090">
        <ele>407.0</ele>
        <time>2020-10-19T07:26:41Z</time>
      </trkpt>
      <trkpt lat="42.8056100" lon="-7.6287110">
        <ele>407.0</ele>
        <time>2020-10-19T07:26:42Z</time>
      </trkpt>
      <trkpt lat="42.8056100" lon="-7.6287120">
        <ele>407.0</ele>
        <time>2020-10-19T07:26:43Z</time>
      </trkpt>
      <trkpt lat="42.8056090" lon="-7.6287140">
        <ele>407.0</ele>
        <time>2020-10-19T07:26:44Z</time>
      </trkpt>
      <trkpt lat="42.8056080" lon="-7.6287160">
        <ele>407.0</ele>
        <time>2020-10-19T07:26:45Z</time>
      </trkpt>
      <trkpt lat="42.8056070" lon="-7.6287190">
        <ele>407.0</ele>
        <time>2020-10-19T07:26:46Z</time>
      </trkpt>
      <trkpt lat="42.8056080" lon="-7.6287190">
        <ele>407.0</ele>
        <time>2020-10-19T07:26:47Z</time>
      </trkpt>
      <trkpt lat="42.8056080" lon="-7.6287170">
        <ele>407.0</ele>
        <time>2020-10-19T07:26:48Z</time>
      </trkpt>
      <trkpt lat="42.8056080" lon="-7.6287140">
        <ele>407.1</ele>
        <time>2020-10-19T07:26:49Z</time>
      </trkpt>
      <trkpt lat="42.8056090" lon="-7.6287120">
        <ele>407.1</ele>
        <time>2020-10-19T07:26:50Z</time>
      </trkpt>
      <trkpt lat="42.8056100" lon="-7.6287100">
        <ele>407.1</ele>
        <time>2020-10-19T07:26:51Z</time>
      </trkpt>
      <trkpt lat="42.8056120" lon="-7.6287090">
        <ele>407.1</ele>
        <time>2020-10-19T07:26:52Z</time>
      </trkpt>
      <trkpt lat="42.8056130" lon="-7.6287090">
        <ele>407.1</ele>
        <time>2020-10-19T07:26:53Z</time>
      </trkpt>
      <trkpt lat="42.8056120" lon="-7.6287100">
        <ele>407.1</ele>
        <time>2020-10-19T07:26:54Z</time>
      </trkpt>
      <trkpt lat="42.8056110" lon="-7.6287130">
        <ele>407.1</ele>
        <time>2020-10-19T07:26:55Z</time>
      </trkpt>
      <trkpt lat="42.8056110" lon="-7.6287170">
        <ele>407.1</ele>
        <time>2020-10-19T07:26:56Z</time>
      </trkpt>
      <trkpt lat="42.8056120" lon="-7.6287230">
        <ele>407.2</ele>
        <time>2020-10-19T07:26:57Z</time>
      </trkpt>
      <trkpt lat="42.8056130" lon="-7.6287300">
        <ele>407.2</ele>
        <time>2020-10-19T07:26:58Z</time>
      </trkpt>
      <trkpt lat="42.8056150" lon="-7.6287390">
        <ele>407.2</ele>
        <time>2020-10-19T07:26:59Z</time>
      </trkpt>
      <trkpt lat="42.8056170" lon="-7.6287480">
        <ele>407.3</ele>
        <time>2020-10-19T07:27:00Z</time>
      </trkpt>
      <trkpt lat="42.8056200" lon="-7.6287560">
        <ele>407.3</ele>
        <time>2020-10-19T07:27:01Z</time>
      </trkpt>
      <trkpt lat="42.8056220" lon="-7.6287620">
        <ele>407.3</ele>
        <time>2020-10-19T07:27:02Z</time>
      </trkpt>
      <trkpt lat="42.8056230" lon="-7.6287700">
        <ele>407.4</ele>
        <time>2020-10-19T07:27:03Z</time>
      </trkpt>
      <trkpt lat="42.8056270" lon="-7.6287780">
        <ele>407.4</ele>
        <time>2020-10-19T07:27:04Z</time>
      </trkpt>
      <trkpt lat="42.8056300" lon="-7.6287860">
        <ele>407.4</ele>
        <time>2020-10-19T07:27:05Z</time>
      </trkpt>
      <trkpt lat="42.8056340" lon="-7.6287940">
        <ele>407.5</ele>
        <time>2020-10-19T07:27:06Z</time>
      </trkpt>
      <trkpt lat="42.8056350" lon="-7.6288010">
        <ele>407.5</ele>
        <time>2020-10-19T07:27:07Z</time>
      </trkpt>
      <trkpt lat="42.8056360" lon="-7.6288060">
        <ele>407.5</ele>
        <time>2020-10-19T07:27:08Z</time>
      </trkpt>
      <trkpt lat="42.8056390" lon="-7.6288120">
        <ele>407.6</ele>
        <time>2020-10-19T07:27:09Z</time>
      </trkpt>
      <trkpt lat="42.8056440" lon="-7.6288190">
        <ele>407.6</ele>
        <time>2020-10-19T07:27:10Z</time>
      </trkpt>
      <trkpt lat="42.8056490" lon="-7.6288270">
        <ele>407.6</ele>
        <time>2020-10-19T07:27:11Z</time>
      </trkpt>
      <trkpt lat="42.8056530" lon="-7.6288350">
        <ele>407.7</ele>
        <time>2020-10-19T07:27:12Z</time>
      </trkpt>
      <trkpt lat="42.8056580" lon="-7.6288430">
        <ele>407.7</ele>
        <time>2020-10-19T07:27:13Z</time>
      </trkpt>
      <trkpt lat="42.8056610" lon="-7.6288520">
        <ele>407.8</ele>
        <time>2020-10-19T07:27:14Z</time>
      </trkpt>
      <trkpt lat="42.8056650" lon="-7.6288610">
        <ele>407.8</ele>
        <time>2020-10-19T07:27:15Z</time>
      </trkpt>
      <trkpt lat="42.8056670" lon="-7.6288670">
        <ele>407.8</ele>
        <time>2020-10-19T07:27:16Z</time>
      </trkpt>
      <trkpt lat="42.8056700" lon="-7.6288760">
        <ele>407.9</ele>
        <time>2020-10-19T07:27:17Z</time>
      </trkpt>
      <trkpt lat="42.8056730" lon="-7.6288890">
        <ele>407.9</ele>
        <time>2020-10-19T07:27:18Z</time>
      </trkpt>
      <trkpt lat="42.8056780" lon="-7.6289050">
        <ele>408.0</ele>
        <time>2020-10-19T07:27:19Z</time>
      </trkpt>
      <trkpt lat="42.8056830" lon="-7.6289200">
        <ele>408.1</ele>
        <time>2020-10-19T07:27:20Z</time>
      </trkpt>
      <trkpt lat="42.8056900" lon="-7.6289400">
        <ele>408.1</ele>
        <time>2020-10-19T07:27:21Z</time>
      </trkpt>
      <trkpt lat="42.8056960" lon="-7.6289570">
        <ele>408.2</ele>
        <time>2020-10-19T07:27:22Z</time>
      </trkpt>
      <trkpt lat="42.8057020" lon="-7.6289720">
        <ele>408.3</ele>
        <time>2020-10-19T07:27:23Z</time>
      </trkpt>
      <trkpt lat="42.8057070" lon="-7.6289800">
        <ele>408.3</ele>
        <time>2020-10-19T07:27:24Z</time>
      </trkpt>
      <trkpt lat="42.8057130" lon="-7.6289860">
        <ele>408.3</ele>
        <time>2020-10-19T07:27:25Z</time>
      </trkpt>
      <trkpt lat="42.8057160" lon="-7.6289890">
        <ele>408.3</ele>
        <time>2020-10-19T07:27:26Z</time>
      </trkpt>
      <trkpt lat="42.8057180" lon="-7.6289920">
        <ele>408.3</ele>
        <time>2020-10-19T07:27:27Z</time>
      </trkpt>
      <trkpt lat="42.8057210" lon="-7.6289960">
        <ele>408.4</ele>
        <time>2020-10-19T07:27:28Z</time>
      </trkpt>
      <trkpt lat="42.8057240" lon="-7.6290000">
        <ele>408.4</ele>
        <time>2020-10-19T07:27:29Z</time>
      </trkpt>
      <trkpt lat="42.8057260" lon="-7.6290040">
        <ele>408.4</ele>
        <time>2020-10-19T07:27:30Z</time>
      </trkpt>
      <trkpt lat="42.8057280" lon="-7.6290080">
        <ele>408.4</ele>
        <time>2020-10-19T07:27:31Z</time>
      </trkpt>
      <trkpt lat="42.8057310" lon="-7.6290120">
        <ele>408.4</ele>
        <time>2020-10-19T07:27:32Z</time>
      </trkpt>
      <trkpt lat="42.8057340" lon="-7.6290160">
        <ele>408.4</ele>
        <time>2020-10-19T07:27:33Z</time>
      </trkpt>
      <trkpt lat="42.8057360" lon="-7.6290220">
        <ele>408.5</ele>
        <time>2020-10-19T07:27:34Z</time>
      </trkpt>
      <trkpt lat="42.8057390" lon="-7.6290280">
        <ele>408.5</ele>
        <time>2020-10-19T07:27:35Z</time>
      </trkpt>
      <trkpt lat="42.8057420" lon="-7.6290370">
        <ele>408.5</ele>
        <time>2020-10-19T07:27:36Z</time>
      </trkpt>
      <trkpt lat="42.8057460" lon="-7.6290450">
        <ele>408.5</ele>
        <time>2020-10-19T07:27:37Z</time>
      </trkpt>
      <trkpt lat="42.8057490" lon="-7.6290560">
        <ele>408.6</ele>
        <time>2020-10-19T07:27:38Z</time>
      </trkpt>
      <trkpt lat="42.8057540" lon="-7.6290650">
        <ele>408.6</ele>
        <time>2020-10-19T07:27:39Z</time>
      </trkpt>
      <trkpt lat="42.8057590" lon="-7.6290740">
        <ele>408.6</ele>
        <time>2020-10-19T07:27:40Z</time>
      </trkpt>
      <trkpt lat="42.8057640" lon="-7.6290830">
        <ele>408.7</ele>
        <time>2020-10-19T07:27:41Z</time>
      </trkpt>
      <trkpt lat="42.8057680" lon="-7.6290930">
        <ele>408.7</ele>
        <time>2020-10-19T07:27:42Z</time>
      </trkpt>
      <trkpt lat="42.8057730" lon="-7.6291030">
        <ele>408.7</ele>
        <time>2020-10-19T07:27:43Z</time>
      </trkpt>
      <trkpt lat="42.8057780" lon="-7.6291140">
        <ele>408.8</ele>
        <time>2020-10-19T07:27:44Z</time>
      </trkpt>
      <trkpt lat="42.8057830" lon="-7.6291240">
        <ele>408.8</ele>
        <time>2020-10-19T07:27:45Z</time>
      </trkpt>
      <trkpt lat="42.8057890" lon="-7.6291320">
        <ele>408.8</ele>
        <time>2020-10-19T07:27:46Z</time>
      </trkpt>
      <trkpt lat="42.8057940" lon="-7.6291410">
        <ele>408.9</ele>
        <time>2020-10-19T07:27:47Z</time>
      </trkpt>
      <trkpt lat="42.8057980" lon="-7.6291500">
        <ele>408.9</ele>
        <time>2020-10-19T07:27:48Z</time>
      </trkpt>
      <trkpt lat="42.8058010" lon="-7.6291600">
        <ele>408.9</ele>
        <time>2020-10-19T07:27:49Z</time>
      </trkpt>
      <trkpt lat="42.8058030" lon="-7.6291690">
        <ele>409.0</ele>
        <time>2020-10-19T07:27:50Z</time>
      </trkpt>
      <trkpt lat="42.8058040" lon="-7.6291790">
        <ele>409.0</ele>
        <time>2020-10-19T07:27:51Z</time>
      </trkpt>
      <trkpt lat="42.8058060" lon="-7.6291890">
        <ele>409.0</ele>
        <time>2020-10-19T07:27:52Z</time>
      </trkpt>
      <trkpt lat="42.8058080" lon="-7.6292010">
        <ele>409.0</ele>
        <time>2020-10-19T07:27:53Z</time>
      </trkpt>
      <trkpt lat="42.8058110" lon="-7.6292130">
        <ele>409.1</ele>
        <time>2020-10-19T07:27:54Z</time>
      </trkpt>
      <trkpt lat="42.8058150" lon="-7.6292250">
        <ele>409.1</ele>
        <time>2020-10-19T07:27:55Z</time>
      </trkpt>
      <trkpt lat="42.8058190" lon="-7.6292350">
        <ele>409.1</ele>
        <time>2020-10-19T07:27:56Z</time>
      </trkpt>
      <trkpt lat="42.8058240" lon="-7.6292430">
        <ele>409.2</ele>
        <time>2020-10-19T07:27:57Z</time>
      </trkpt>
      <trkpt lat="42.8058290" lon="-7.6292500">
        <ele>409.2</ele>
        <time>2020-10-19T07:27:58Z</time>
      </trkpt>
      <trkpt lat="42.8058350" lon="-7.6292590">
        <ele>409.2</ele>
        <time>2020-10-19T07:27:59Z</time>
      </trkpt>
      <trkpt lat="42.8058400" lon="-7.6292680">
        <ele>409.3</ele>
        <time>2020-10-19T07:28:00Z</time>
      </trkpt>
      <trkpt lat="42.8058460" lon="-7.6292780">
        <ele>409.3</ele>
        <time>2020-10-19T07:28:01Z</time>
      </trkpt>
      <trkpt lat="42.8058500" lon="-7.6292880">
        <ele>409.3</ele>
        <time>2020-10-19T07:28:02Z</time>
      </trkpt>
      <trkpt lat="42.8058550" lon="-7.6292980">
        <ele>409.4</ele>
        <time>2020-10-19T07:28:03Z</time>
      </trkpt>
      <trkpt lat="42.8058590" lon="-7.6293070">
        <ele>409.4</ele>
        <time>2020-10-19T07:28:04Z</time>
      </trkpt>
      <trkpt lat="42.8058640" lon="-7.6293180">
        <ele>409.4</ele>
        <time>2020-10-19T07:28:05Z</time>
      </trkpt>
      <trkpt lat="42.8058660" lon="-7.6293300">
        <ele>409.5</ele>
        <time>2020-10-19T07:28:06Z</time>
      </trkpt>
      <trkpt lat="42.8058670" lon="-7.6293420">
        <ele>409.5</ele>
        <time>2020-10-19T07:28:07Z</time>
      </trkpt>
      <trkpt lat="42.8058690" lon="-7.6293530">
        <ele>409.6</ele>
        <time>2020-10-19T07:28:08Z</time>
      </trkpt>
      <trkpt lat="42.8058720" lon="-7.6293630">
        <ele>409.6</ele>
        <time>2020-10-19T07:28:09Z</time>
      </trkpt>
      <trkpt lat="42.8058760" lon="-7.6293720">
        <ele>409.6</ele>
        <time>2020-10-19T07:28:10Z</time>
      </trkpt>
      <trkpt lat="42.8058810" lon="-7.6293820">
        <ele>409.7</ele>
        <time>2020-10-19T07:28:11Z</time>
      </trkpt>
      <trkpt lat="42.8058850" lon="-7.6293910">
        <ele>409.7</ele>
        <time>2020-10-19T07:28:12Z</time>
      </trkpt>
      <trkpt lat="42.8058890" lon="-7.6294000">
        <ele>409.7</ele>
        <time>2020-10-19T07:28:13Z</time>
      </trkpt>
      <trkpt lat="42.8058920" lon="-7.6294080">
        <ele>409.8</ele>
        <time>2020-10-19T07:28:14Z</time>
      </trkpt>
      <trkpt lat="42.8058960" lon="-7.6294160">
        <ele>409.8</ele>
        <time>2020-10-19T07:28:15Z</time>
      </trkpt>
      <trkpt lat="42.8058990" lon="-7.6294250">
        <ele>409.8</ele>
        <time>2020-10-19T07:28:16Z</time>
      </trkpt>
      <trkpt lat="42.8059020" lon="-7.6294340">
        <ele>409.9</ele>
        <time>2020-10-19T07:28:17Z</time>
      </trkpt>
      <trkpt lat="42.8059060" lon="-7.6294430">
        <ele>409.9</ele>
        <time>2020-10-19T07:28:18Z</time>
      </trkpt>
      <trkpt lat="42.8059100" lon="-7.6294500">
        <ele>410.0</ele>
        <time>2020-10-19T07:28:19Z</time>
      </trkpt>
      <trkpt lat="42.8059140" lon="-7.6294570">
        <ele>410.0</ele>
        <time>2020-10-19T07:28:20Z</time>
      </trkpt>
      <trkpt lat="42.8059180" lon="-7.6294670">
        <ele>410.0</ele>
        <time>2020-10-19T07:28:21Z</time>
      </trkpt>
      <trkpt lat="42.8059220" lon="-7.6294780">
        <ele>410.1</ele>
        <time>2020-10-19T07:28:22Z</time>
      </trkpt>
      <trkpt lat="42.8059250" lon="-7.6294890">
        <ele>410.1</ele>
        <time>2020-10-19T07:28:23Z</time>
      </trkpt>
      <trkpt lat="42.8059260" lon="-7.6294990">
        <ele>410.2</ele>
        <time>2020-10-19T07:28:24Z</time>
      </trkpt>
      <trkpt lat="42.8059280" lon="-7.6295060">
        <ele>410.2</ele>
        <time>2020-10-19T07:28:25Z</time>
      </trkpt>
      <trkpt lat="42.8059290" lon="-7.6295140">
        <ele>410.2</ele>
        <time>2020-10-19T07:28:26Z</time>
      </trkpt>
      <trkpt lat="42.8059300" lon="-7.6295220">
        <ele>410.3</ele>
        <time>2020-10-19T07:28:27Z</time>
      </trkpt>
      <trkpt lat="42.8059310" lon="-7.6295320">
        <ele>410.3</ele>
        <time>2020-10-19T07:28:28Z</time>
      </trkpt>
      <trkpt lat="42.8059330" lon="-7.6295410">
        <ele>410.3</ele>
        <time>2020-10-19T07:28:29Z</time>
      </trkpt>
      <trkpt lat="42.8059340" lon="-7.6295500">
        <ele>410.4</ele>
        <time>2020-10-19T07:28:30Z</time>
      </trkpt>
      <trkpt lat="42.8059350" lon="-7.6295580">
        <ele>410.4</ele>
        <time>2020-10-19T07:28:31Z</time>
      </trkpt>
      <trkpt lat="42.8059340" lon="-7.6295670">
        <ele>410.5</ele>
        <time>2020-10-19T07:28:32Z</time>
      </trkpt>
      <trkpt lat="42.8059360" lon="-7.6295760">
        <ele>410.5</ele>
        <time>2020-10-19T07:28:33Z</time>
      </trkpt>
      <trkpt lat="42.8059380" lon="-7.6295860">
        <ele>410.5</ele>
        <time>2020-10-19T07:28:34Z</time>
      </trkpt>
      <trkpt lat="42.8059410" lon="-7.6295970">
        <ele>410.6</ele>
        <time>2020-10-19T07:28:35Z</time>
      </trkpt>
      <trkpt lat="42.8059410" lon="-7.6296090">
        <ele>410.6</ele>
        <time>2020-10-19T07:28:36Z</time>
      </trkpt>
      <trkpt lat="42.8059430" lon="-7.6296210">
        <ele>410.7</ele>
        <time>2020-10-19T07:28:37Z</time>
      </trkpt>
      <trkpt lat="42.8059440" lon="-7.6296340">
        <ele>410.7</ele>
        <time>2020-10-19T07:28:38Z</time>
      </trkpt>
      <trkpt lat="42.8059460" lon="-7.6296440">
        <ele>410.8</ele>
        <time>2020-10-19T07:28:39Z</time>
      </trkpt>
      <trkpt lat="42.8059460" lon="-7.6296560">
        <ele>410.8</ele>
        <time>2020-10-19T07:28:40Z</time>
      </trkpt>
      <trkpt lat="42.8059470" lon="-7.6296700">
        <ele>410.9</ele>
        <time>2020-10-19T07:28:41Z</time>
      </trkpt>
      <trkpt lat="42.8059490" lon="-7.6296860">
        <ele>411.0</ele>
        <time>2020-10-19T07:28:42Z</time>
      </trkpt>
      <trkpt lat="42.8059530" lon="-7.6297010">
        <ele>411.0</ele>
        <time>2020-10-19T07:28:43Z</time>
      </trkpt>
      <trkpt lat="42.8059570" lon="-7.6297150">
        <ele>411.1</ele>
        <time>2020-10-19T07:28:44Z</time>
      </trkpt>
      <trkpt lat="42.8059610" lon="-7.6297290">
        <ele>411.1</ele>
        <time>2020-10-19T07:28:45Z</time>
      </trkpt>
      <trkpt lat="42.8059670" lon="-7.6297430">
        <ele>411.2</ele>
        <time>2020-10-19T07:28:46Z</time>
      </trkpt>
      <trkpt lat="42.8059720" lon="-7.6297560">
        <ele>411.3</ele>
        <time>2020-10-19T07:28:47Z</time>
      </trkpt>
      <trkpt lat="42.8059740" lon="-7.6297680">
        <ele>411.3</ele>
        <time>2020-10-19T07:28:48Z</time>
      </trkpt>
      <trkpt lat="42.8059760" lon="-7.6297780">
        <ele>411.4</ele>
        <time>2020-10-19T07:28:49Z</time>
      </trkpt>
      <trkpt lat="42.8059780" lon="-7.6297880">
        <ele>411.4</ele>
        <time>2020-10-19T07:28:50Z</time>
      </trkpt>
      <trkpt lat="42.8059820" lon="-7.6297970">
        <ele>411.5</ele>
        <time>2020-10-19T07:28:51Z</time>
      </trkpt>
      <trkpt lat="42.8059840" lon="-7.6298060">
        <ele>411.5</ele>
        <time>2020-10-19T07:28:52Z</time>
      </trkpt>
      <trkpt lat="42.8059850" lon="-7.6298140">
        <ele>411.5</ele>
        <time>2020-10-19T07:28:53Z</time>
      </trkpt>
      <trkpt lat="42.8059850" lon="-7.6298240">
        <ele>411.6</ele>
        <time>2020-10-19T07:28:54Z</time>
      </trkpt>
      <trkpt lat="42.8059850" lon="-7.6298350">
        <ele>411.6</ele>
        <time>2020-10-19T07:28:55Z</time>
      </trkpt>
      <trkpt lat="42.8059840" lon="-7.6298480">
        <ele>411.7</ele>
        <time>2020-10-19T07:28:56Z</time>
      </trkpt>
      <trkpt lat="42.8059850" lon="-7.6298600">
        <ele>411.7</ele>
        <time>2020-10-19T07:28:57Z</time>
      </trkpt>
      <trkpt lat="42.8059850" lon="-7.6298710">
        <ele>411.8</ele>
        <time>2020-10-19T07:28:58Z</time>
      </trkpt>
      <trkpt lat="42.8059870" lon="-7.6298800">
        <ele>411.8</ele>
        <time>2020-10-19T07:28:59Z</time>
      </trkpt>
      <trkpt lat="42.8059900" lon="-7.6298890">
        <ele>411.9</ele>
        <time>2020-10-19T07:29:00Z</time>
      </trkpt>
      <trkpt lat="42.8059950" lon="-7.6298980">
        <ele>411.9</ele>
        <time>2020-10-19T07:29:01Z</time>
      </trkpt>
      <trkpt lat="42.8059970" lon="-7.6299040">
        <ele>412.0</ele>
        <time>2020-10-19T07:29:02Z</time>
      </trkpt>
      <trkpt lat="42.8060000" lon="-7.6299140">
        <ele>412.0</ele>
        <time>2020-10-19T07:29:03Z</time>
      </trkpt>
      <trkpt lat="42.8060020" lon="-7.6299220">
        <ele>412.0</ele>
        <time>2020-10-19T07:29:04Z</time>
      </trkpt>
      <trkpt lat="42.8060040" lon="-7.6299310">
        <ele>412.1</ele>
        <time>2020-10-19T07:29:05Z</time>
      </trkpt>
      <trkpt lat="42.8060070" lon="-7.6299390">
        <ele>412.1</ele>
        <time>2020-10-19T07:29:06Z</time>
      </trkpt>
      <trkpt lat="42.8060100" lon="-7.6299510">
        <ele>412.2</ele>
        <time>2020-10-19T07:29:07Z</time>
      </trkpt>
      <trkpt lat="42.8060120" lon="-7.6299630">
        <ele>412.2</ele>
        <time>2020-10-19T07:29:08Z</time>
      </trkpt>
      <trkpt lat="42.8060130" lon="-7.6299740">
        <ele>412.3</ele>
        <time>2020-10-19T07:29:09Z</time>
      </trkpt>
      <trkpt lat="42.8060160" lon="-7.6299840">
        <ele>412.4</ele>
        <time>2020-10-19T07:29:10Z</time>
      </trkpt>
      <trkpt lat="42.8060200" lon="-7.6299920">
        <ele>412.4</ele>
        <time>2020-10-19T07:29:11Z</time>
      </trkpt>
      <trkpt lat="42.8060270" lon="-7.6300000">
        <ele>412.5</ele>
        <time>2020-10-19T07:29:12Z</time>
      </trkpt>
      <trkpt lat="42.8060320" lon="-7.6300070">
        <ele>412.5</ele>
        <time>2020-10-19T07:29:13Z</time>
      </trkpt>
      <trkpt lat="42.8060350" lon="-7.6300140">
        <ele>412.5</ele>
        <time>2020-10-19T07:29:14Z</time>
      </trkpt>
      <trkpt lat="42.8060360" lon="-7.6300220">
        <ele>412.6</ele>
        <time>2020-10-19T07:29:15Z</time>
      </trkpt>
      <trkpt lat="42.8060370" lon="-7.6300300">
        <ele>412.6</ele>
        <time>2020-10-19T07:29:16Z</time>
      </trkpt>
      <trkpt lat="42.8060390" lon="-7.6300400">
        <ele>412.7</ele>
        <time>2020-10-19T07:29:17Z</time>
      </trkpt>
      <trkpt lat="42.8060400" lon="-7.6300500">
        <ele>412.7</ele>
        <time>2020-10-19T07:29:18Z</time>
      </trkpt>
      <trkpt lat="42.8060390" lon="-7.6300590">
        <ele>412.8</ele>
        <time>2020-10-19T07:29:19Z</time>
      </trkpt>
      <trkpt lat="42.8060380" lon="-7.6300680">
        <ele>412.8</ele>
        <time>2020-10-19T07:29:20Z</time>
      </trkpt>
      <trkpt lat="42.8060360" lon="-7.6300770">
        <ele>412.9</ele>
        <time>2020-10-19T07:29:21Z</time>
      </trkpt>
      <trkpt lat="42.8060370" lon="-7.6300850">
        <ele>412.9</ele>
        <time>2020-10-19T07:29:22Z</time>
      </trkpt>
      <trkpt lat="42.8060390" lon="-7.6300910">
        <ele>413.0</ele>
        <time>2020-10-19T07:29:23Z</time>
      </trkpt>
      <trkpt lat="42.8060420" lon="-7.6300990">
        <ele>413.0</ele>
        <time>2020-10-19T07:29:24Z</time>
      </trkpt>
      <trkpt lat="42.8060460" lon="-7.6301070">
        <ele>413.1</ele>
        <time>2020-10-19T07:29:25Z</time>
      </trkpt>
      <trkpt lat="42.8060480" lon="-7.6301170">
        <ele>413.1</ele>
        <time>2020-10-19T07:29:26Z</time>
      </trkpt>
      <trkpt lat="42.8060500" lon="-7.6301310">
        <ele>413.2</ele>
        <time>2020-10-19T07:29:27Z</time>
      </trkpt>
      <trkpt lat="42.8060520" lon="-7.6301460">
        <ele>413.3</ele>
        <time>2020-10-19T07:29:28Z</time>
      </trkpt>
      <trkpt lat="42.8060500" lon="-7.6301630">
        <ele>413.4</ele>
        <time>2020-10-19T07:29:29Z</time>
      </trkpt>
      <trkpt lat="42.8060470" lon="-7.6301810">
        <ele>413.5</ele>
        <time>2020-10-19T07:29:30Z</time>
      </trkpt>
      <trkpt lat="42.8060440" lon="-7.6301990">
        <ele>413.6</ele>
        <time>2020-10-19T07:29:31Z</time>
      </trkpt>
      <trkpt lat="42.8060420" lon="-7.6302160">
        <ele>413.7</ele>
        <time>2020-10-19T07:29:32Z</time>
      </trkpt>
      <trkpt lat="42.8060440" lon="-7.6302320">
        <ele>413.8</ele>
        <time>2020-10-19T07:29:33Z</time>
      </trkpt>
      <trkpt lat="42.8060450" lon="-7.6302480">
        <ele>413.9</ele>
        <time>2020-10-19T07:29:34Z</time>
      </trkpt>
      <trkpt lat="42.8060470" lon="-7.6302660">
        <ele>414.0</ele>
        <time>2020-10-19T07:29:35Z</time>
      </trkpt>
      <trkpt lat="42.8060460" lon="-7.6302830">
        <ele>414.1</ele>
        <time>2020-10-19T07:29:36Z</time>
      </trkpt>
      <trkpt lat="42.8060450" lon="-7.6302990">
        <ele>414.2</ele>
        <time>2020-10-19T07:29:37Z</time>
      </trkpt>
      <trkpt lat="42.8060440" lon="-7.6303120">
        <ele>414.2</ele>
        <time>2020-10-19T07:29:38Z</time>
      </trkpt>
      <trkpt lat="42.8060460" lon="-7.6303290">
        <ele>414.3</ele>
        <time>2020-10-19T07:29:39Z</time>
      </trkpt>
      <trkpt lat="42.8060490" lon="-7.6303480">
        <ele>414.4</ele>
        <time>2020-10-19T07:29:40Z</time>
      </trkpt>
      <trkpt lat="42.8060520" lon="-7.6303670">
        <ele>414.6</ele>
        <time>2020-10-19T07:29:41Z</time>
      </trkpt>
      <trkpt lat="42.8060530" lon="-7.6303850">
        <ele>414.7</ele>
        <time>2020-10-19T07:29:42Z</time>
      </trkpt>
      <trkpt lat="42.8060520" lon="-7.6304030">
        <ele>414.8</ele>
        <time>2020-10-19T07:29:43Z</time>
      </trkpt>
      <trkpt lat="42.8060520" lon="-7.6304250">
        <ele>414.9</ele>
        <time>2020-10-19T07:29:44Z</time>
      </trkpt>
      <trkpt lat="42.8060550" lon="-7.6304470">
        <ele>415.0</ele>
        <time>2020-10-19T07:29:45Z</time>
      </trkpt>
      <trkpt lat="42.8060580" lon="-7.6304680">
        <ele>415.1</ele>
        <time>2020-10-19T07:29:46Z</time>
      </trkpt>
      <trkpt lat="42.8060600" lon="-7.6304890">
        <ele>415.2</ele>
        <time>2020-10-19T07:29:47Z</time>
      </trkpt>
      <trkpt lat="42.8060620" lon="-7.6305090">
        <ele>415.4</ele>
        <time>2020-10-19T07:29:48Z</time>
      </trkpt>
      <trkpt lat="42.8060630" lon="-7.6305290">
        <ele>415.5</ele>
        <time>2020-10-19T07:29:49Z</time>
      </trkpt>
      <trkpt lat="42.8060660" lon="-7.6305470">
        <ele>415.6</ele>
        <time>2020-10-19T07:29:50Z</time>
      </trkpt>
      <trkpt lat="42.8060670" lon="-7.6305680">
        <ele>415.7</ele>
        <time>2020-10-19T07:29:51Z</time>
      </trkpt>
      <trkpt lat="42.8060670" lon="-7.6305920">
        <ele>415.8</ele>
        <time>2020-10-19T07:29:52Z</time>
      </trkpt>
      <trkpt lat="42.8060660" lon="-7.6306160">
        <ele>415.9</ele>
        <time>2020-10-19T07:29:53Z</time>
      </trkpt>
      <trkpt lat="42.8060700" lon="-7.6306400">
        <ele>416.0</ele>
        <time>2020-10-19T07:29:54Z</time>
      </trkpt>
      <trkpt lat="42.8060750" lon="-7.6306620">
        <ele>416.2</ele>
        <time>2020-10-19T07:29:55Z</time>
      </trkpt>
      <trkpt lat="42.8060790" lon="-7.6306820">
        <ele>416.3</ele>
        <time>2020-10-19T07:29:56Z</time>
      </trkpt>
      <trkpt lat="42.8060830" lon="-7.6307000">
        <ele>416.4</ele>
        <time>2020-10-19T07:29:57Z</time>
      </trkpt>
      <trkpt lat="42.8060870" lon="-7.6307180">
        <ele>416.5</ele>
        <time>2020-10-19T07:29:58Z</time>
      </trkpt>
      <trkpt lat="42.8060950" lon="-7.6307370">
        <ele>416.6</ele>
        <time>2020-10-19T07:29:59Z</time>
      </trkpt>
      <trkpt lat="42.8061020" lon="-7.6307550">
        <ele>416.7</ele>
        <time>2020-10-19T07:30:00Z</time>
      </trkpt>
      <trkpt lat="42.8061090" lon="-7.6307720">
        <ele>416.8</ele>
        <time>2020-10-19T07:30:01Z</time>
      </trkpt>
      <trkpt lat="42.8061150" lon="-7.6307890">
        <ele>416.9</ele>
        <time>2020-10-19T07:30:02Z</time>
      </trkpt>
      <trkpt lat="42.8061220" lon="-7.6308080">
        <ele>417.0</ele>
        <time>2020-10-19T07:30:03Z</time>
      </trkpt>
      <trkpt lat="42.8061290" lon="-7.6308270">
        <ele>417.1</ele>
        <time>2020-10-19T07:30:04Z</time>
      </trkpt>
      <trkpt lat="42.8061360" lon="-7.6308460">
        <ele>417.2</ele>
        <time>2020-10-19T07:30:05Z</time>
      </trkpt>
      <trkpt lat="42.8061430" lon="-7.6308640">
        <ele>417.3</ele>
        <time>2020-10-19T07:30:06Z</time>
      </trkpt>
      <trkpt lat="42.8061500" lon="-7.6308810">
        <ele>417.4</ele>
        <time>2020-10-19T07:30:07Z</time>
      </trkpt>
      <trkpt lat="42.8061550" lon="-7.6308960">
        <ele>417.5</ele>
        <time>2020-10-19T07:30:08Z</time>
      </trkpt>
      <trkpt lat="42.8061560" lon="-7.6309040">
        <ele>417.6</ele>
        <time>2020-10-19T07:30:09Z</time>
      </trkpt>
      <trkpt lat="42.8061520" lon="-7.6309050">
        <ele>417.6</ele>
        <time>2020-10-19T07:30:10Z</time>
      </trkpt>
      <trkpt lat="42.8061470" lon="-7.6309050">
        <ele>417.6</ele>
        <time>2020-10-19T07:30:11Z</time>
      </trkpt>
      <trkpt lat="42.8061470" lon="-7.6309040">
        <ele>417.7</ele>
        <time>2020-10-19T07:30:12Z</time>
      </trkpt>
      <trkpt lat="42.8061490" lon="-7.6309070">
        <ele>417.7</ele>
        <time>2020-10-19T07:30:13Z</time>
      </trkpt>
      <trkpt lat="42.8061500" lon="-7.6309090">
        <ele>417.7</ele>
        <time>2020-10-19T07:30:14Z</time>
      </trkpt>
      <trkpt lat="42.8061500" lon="-7.6309110">
        <ele>417.7</ele>
        <time>2020-10-19T07:30:15Z</time>
      </trkpt>
      <trkpt lat="42.8061510" lon="-7.6309120">
        <ele>417.7</ele>
        <time>2020-10-19T07:30:16Z</time>
      </trkpt>
      <trkpt lat="42.8061510" lon="-7.6309130">
        <ele>417.7</ele>
        <time>2020-10-19T07:30:17Z</time>
      </trkpt>
      <trkpt lat="42.8061520" lon="-7.6309140">
        <ele>417.7</ele>
        <time>2020-10-19T07:30:18Z</time>
      </trkpt>
      <trkpt lat="42.8061510" lon="-7.6309150">
        <ele>417.7</ele>
        <time>2020-10-19T07:30:19Z</time>
      </trkpt>
      <trkpt lat="42.8061500" lon="-7.6309180">
        <ele>417.8</ele>
        <time>2020-10-19T07:30:20Z</time>
      </trkpt>
      <trkpt lat="42.8061480" lon="-7.6309240">
        <ele>417.8</ele>
        <time>2020-10-19T07:30:21Z</time>
      </trkpt>
      <trkpt lat="42.8061470" lon="-7.6309300">
        <ele>417.8</ele>
        <time>2020-10-19T07:30:22Z</time>
      </trkpt>
      <trkpt lat="42.8061460" lon="-7.6309350">
        <ele>417.9</ele>
        <time>2020-10-19T07:30:23Z</time>
      </trkpt>
      <trkpt lat="42.8061460" lon="-7.6309410">
        <ele>417.9</ele>
        <time>2020-10-19T07:30:24Z</time>
      </trkpt>
      <trkpt lat="42.8061480" lon="-7.6309480">
        <ele>417.9</ele>
        <time>2020-10-19T07:30:25Z</time>
      </trkpt>
      <trkpt lat="42.8061490" lon="-7.6309550">
        <ele>418.0</ele>
        <time>2020-10-19T07:30:26Z</time>
      </trkpt>
      <trkpt lat="42.8061500" lon="-7.6309610">
        <ele>418.0</ele>
        <time>2020-10-19T07:30:27Z</time>
      </trkpt>
      <trkpt lat="42.8061510" lon="-7.6309660">
        <ele>418.0</ele>
        <time>2020-10-19T07:30:28Z</time>
      </trkpt>
      <trkpt lat="42.8061510" lon="-7.6309710">
        <ele>418.1</ele>
        <time>2020-10-19T07:30:29Z</time>
      </trkpt>
      <trkpt lat="42.8061500" lon="-7.6309760">
        <ele>418.1</ele>
        <time>2020-10-19T07:30:30Z</time>
      </trkpt>
      <trkpt lat="42.8061490" lon="-7.6309820">
        <ele>418.1</ele>
        <time>2020-10-19T07:30:31Z</time>
      </trkpt>
      <trkpt lat="42.8061470" lon="-7.6309890">
        <ele>418.2</ele>
        <time>2020-10-19T07:30:32Z</time>
      </trkpt>
      <trkpt lat="42.8061450" lon="-7.6309950">
        <ele>418.2</ele>
        <time>2020-10-19T07:30:33Z</time>
      </trkpt>
      <trkpt lat="42.8061430" lon="-7.6310010">
        <ele>418.3</ele>
        <time>2020-10-19T07:30:34Z</time>
      </trkpt>
      <trkpt lat="42.8061410" lon="-7.6310070">
        <ele>418.3</ele>
        <time>2020-10-19T07:30:35Z</time>
      </trkpt>
      <trkpt lat="42.8061400" lon="-7.6310120">
        <ele>418.3</ele>
        <time>2020-10-19T07:30:36Z</time>
      </trkpt>
      <trkpt lat="42.8061390" lon="-7.6310170">
        <ele>418.4</ele>
        <time>2020-10-19T07:30:37Z</time>
      </trkpt>
      <trkpt lat="42.8061390" lon="-7.6310210">
        <ele>418.4</ele>
        <time>2020-10-19T07:30:38Z</time>
      </trkpt>
      <trkpt lat="42.8061390" lon="-7.6310250">
        <ele>418.4</ele>
        <time>2020-10-19T07:30:39Z</time>
      </trkpt>
      <trkpt lat="42.8061390" lon="-7.6310290">
        <ele>418.4</ele>
        <time>2020-10-19T07:30:40Z</time>
      </trkpt>
      <trkpt lat="42.8061400" lon="-7.6310330">
        <ele>418.5</ele>
        <time>2020-10-19T07:30:41Z</time>
      </trkpt>
      <trkpt lat="42.8061400" lon="-7.6310360">
        <ele>418.5</ele>
        <time>2020-10-19T07:30:42Z</time>
      </trkpt>
      <trkpt lat="42.8061400" lon="-7.6310390">
        <ele>418.5</ele>
        <time>2020-10-19T07:30:43Z</time>
      </trkpt>
      <trkpt lat="42.8061390" lon="-7.6310400">
        <ele>418.5</ele>
        <time>2020-10-19T07:30:44Z</time>
      </trkpt>
      <trkpt lat="42.8061380" lon="-7.6310400">
        <ele>418.5</ele>
        <time>2020-10-19T07:30:45Z</time>
      </trkpt>
      <trkpt lat="42.8061370" lon="-7.6310400">
        <ele>418.5</ele>
        <time>2020-10-19T07:30:46Z</time>
      </trkpt>
      <trkpt lat="42.8061370" lon="-7.6310400">
        <ele>418.5</ele>
        <time>2020-10-19T07:30:47Z</time>
      </trkpt>
      <trkpt lat="42.8061380" lon="-7.6310400">
        <ele>418.5</ele>
        <time>2020-10-19T07:30:48Z</time>
      </trkpt>
      <trkpt lat="42.8061400" lon="-7.6310380">
        <ele>418.6</ele>
        <time>2020-10-19T07:30:49Z</time>
      </trkpt>
      <trkpt lat="42.8061470" lon="-7.6310340">
        <ele>418.6</ele>
        <time>2020-10-19T07:30:50Z</time>
      </trkpt>
      <trkpt lat="42.8061570" lon="-7.6310280">
        <ele>418.7</ele>
        <time>2020-10-19T07:30:51Z</time>
      </trkpt>
      <trkpt lat="42.8061680" lon="-7.6310260">
        <ele>418.8</ele>
        <time>2020-10-19T07:30:52Z</time>
      </trkpt>
      <trkpt lat="42.8061760" lon="-7.6310300">
        <ele>418.9</ele>
        <time>2020-10-19T07:30:53Z</time>
      </trkpt>
      <trkpt lat="42.8061840" lon="-7.6310410">
        <ele>419.0</ele>
        <time>2020-10-19T07:30:54Z</time>
      </trkpt>
      <trkpt lat="42.8061910" lon="-7.6310510">
        <ele>419.1</ele>
        <time>2020-10-19T07:30:55Z</time>
      </trkpt>
      <trkpt lat="42.8062000" lon="-7.6310600">
        <ele>419.2</ele>
        <time>2020-10-19T07:30:56Z</time>
      </trkpt>
      <trkpt lat="42.8062070" lon="-7.6310680">
        <ele>419.3</ele>
        <time>2020-10-19T07:30:57Z</time>
      </trkpt>
      <trkpt lat="42.8062150" lon="-7.6310760">
        <ele>419.4</ele>
        <time>2020-10-19T07:30:58Z</time>
      </trkpt>
      <trkpt lat="42.8062210" lon="-7.6310830">
        <ele>419.4</ele>
        <time>2020-10-19T07:30:59Z</time>
      </trkpt>
      <trkpt lat="42.8062270" lon="-7.6310920">
        <ele>419.5</ele>
        <time>2020-10-19T07:31:00Z</time>
      </trkpt>
      <trkpt lat="42.8062330" lon="-7.6311020">
        <ele>419.6</ele>
        <time>2020-10-19T07:31:01Z</time>
      </trkpt>
      <trkpt lat="42.8062410" lon="-7.6311120">
        <ele>419.7</ele>
        <time>2020-10-19T07:31:02Z</time>
      </trkpt>
      <trkpt lat="42.8062480" lon="-7.6311210">
        <ele>419.8</ele>
        <time>2020-10-19T07:31:03Z</time>
      </trkpt>
      <trkpt lat="42.8062530" lon="-7.6311300">
        <ele>419.9</ele>
        <time>2020-10-19T07:31:04Z</time>
      </trkpt>
      <trkpt lat="42.8062590" lon="-7.6311400">
        <ele>419.9</ele>
        <time>2020-10-19T07:31:05Z</time>
      </trkpt>
      <trkpt lat="42.8062640" lon="-7.6311490">
        <ele>420.0</ele>
        <time>2020-10-19T07:31:06Z</time>
      </trkpt>
      <trkpt lat="42.8062690" lon="-7.6311580">
        <ele>420.1</ele>
        <time>2020-10-19T07:31:07Z</time>
      </trkpt>
      <trkpt lat="42.8062740" lon="-7.6311650">
        <ele>420.2</ele>
        <time>2020-10-19T07:31:08Z</time>
      </trkpt>
      <trkpt lat="42.8062790" lon="-7.6311710">
        <ele>420.2</ele>
        <time>2020-10-19T07:31:09Z</time>
      </trkpt>
      <trkpt lat="42.8062850" lon="-7.6311780">
        <ele>420.3</ele>
        <time>2020-10-19T07:31:10Z</time>
      </trkpt>
      <trkpt lat="42.8062920" lon="-7.6311850">
        <ele>420.4</ele>
        <time>2020-10-19T07:31:11Z</time>
      </trkpt>
      <trkpt lat="42.8062980" lon="-7.6311950">
        <ele>420.5</ele>
        <time>2020-10-19T07:31:12Z</time>
      </trkpt>
      <trkpt lat="42.8063040" lon="-7.6312040">
        <ele>420.6</ele>
        <time>2020-10-19T07:31:13Z</time>
      </trkpt>
      <trkpt lat="42.8063100" lon="-7.6312130">
        <ele>420.7</ele>
        <time>2020-10-19T07:31:14Z</time>
      </trkpt>
      <trkpt lat="42.8063170" lon="-7.6312230">
        <ele>420.8</ele>
        <time>2020-10-19T07:31:15Z</time>
      </trkpt>
      <trkpt lat="42.8063250" lon="-7.6312350">
        <ele>420.9</ele>
        <time>2020-10-19T07:31:16Z</time>
      </trkpt>
      <trkpt lat="42.8063340" lon="-7.6312470">
        <ele>421.0</ele>
        <time>2020-10-19T07:31:17Z</time>
      </trkpt>
      <trkpt lat="42.8063430" lon="-7.6312610">
        <ele>421.1</ele>
        <time>2020-10-19T07:31:18Z</time>
      </trkpt>
      <trkpt lat="42.8063500" lon="-7.6312750">
        <ele>421.3</ele>
        <time>2020-10-19T07:31:19Z</time>
      </trkpt>
      <trkpt lat="42.8063560" lon="-7.6312890">
        <ele>421.4</ele>
        <time>2020-10-19T07:31:20Z</time>
      </trkpt>
      <trkpt lat="42.8063590" lon="-7.6312990">
        <ele>421.5</ele>
        <time>2020-10-19T07:31:21Z</time>
      </trkpt>
      <trkpt lat="42.8063640" lon="-7.6313070">
        <ele>421.5</ele>
        <time>2020-10-19T07:31:22Z</time>
      </trkpt>
      <trkpt lat="42.8063670" lon="-7.6313130">
        <ele>421.6</ele>
        <time>2020-10-19T07:31:23Z</time>
      </trkpt>
      <trkpt lat="42.8063710" lon="-7.6313190">
        <ele>421.6</ele>
        <time>2020-10-19T07:31:24Z</time>
      </trkpt>
      <trkpt lat="42.8063750" lon="-7.6313250">
        <ele>421.7</ele>
        <time>2020-10-19T07:31:25Z</time>
      </trkpt>
      <trkpt lat="42.8063790" lon="-7.6313330">
        <ele>421.8</ele>
        <time>2020-10-19T07:31:26Z</time>
      </trkpt>
      <trkpt lat="42.8063840" lon="-7.6313420">
        <ele>421.8</ele>
        <time>2020-10-19T07:31:27Z</time>
      </trkpt>
      <trkpt lat="42.8063880" lon="-7.6313520">
        <ele>421.9</ele>
        <time>2020-10-19T07:31:28Z</time>
      </trkpt>
      <trkpt lat="42.8063930" lon="-7.6313640">
        <ele>422.0</ele>
        <time>2020-10-19T07:31:29Z</time>
      </trkpt>
      <trkpt lat="42.8063990" lon="-7.6313740">
        <ele>422.1</ele>
        <time>2020-10-19T07:31:30Z</time>
      </trkpt>
      <trkpt lat="42.8064060" lon="-7.6313860">
        <ele>422.2</ele>
        <time>2020-10-19T07:31:31Z</time>
      </trkpt>
      <trkpt lat="42.8064140" lon="-7.6313970">
        <ele>422.3</ele>
        <time>2020-10-19T07:31:32Z</time>
      </trkpt>
      <trkpt lat="42.8064230" lon="-7.6314080">
        <ele>422.4</ele>
        <time>2020-10-19T07:31:33Z</time>
      </trkpt>
      <trkpt lat="42.8064320" lon="-7.6314190">
        <ele>422.5</ele>
        <time>2020-10-19T07:31:34Z</time>
      </trkpt>
      <trkpt lat="42.8064410" lon="-7.6314280">
        <ele>422.6</ele>
        <time>2020-10-19T07:31:35Z</time>
      </trkpt>
      <trkpt lat="42.8064480" lon="-7.6314380">
        <ele>422.7</ele>
        <time>2020-10-19T07:31:36Z</time>
      </trkpt>
      <trkpt lat="42.8064550" lon="-7.6314470">
        <ele>422.8</ele>
        <time>2020-10-19T07:31:37Z</time>
      </trkpt>
      <trkpt lat="42.8064610" lon="-7.6314570">
        <ele>422.9</ele>
        <time>2020-10-19T07:31:38Z</time>
      </trkpt>
      <trkpt lat="42.8064670" lon="-7.6314670">
        <ele>423.0</ele>
        <time>2020-10-19T07:31:39Z</time>
      </trkpt>
      <trkpt lat="42.8064740" lon="-7.6314770">
        <ele>423.1</ele>
        <time>2020-10-19T07:31:40Z</time>
      </trkpt>
      <trkpt lat="42.8064820" lon="-7.6314880">
        <ele>423.2</ele>
        <time>2020-10-19T07:31:41Z</time>
      </trkpt>
      <trkpt lat="42.8064900" lon="-7.6315010">
        <ele>423.3</ele>
        <time>2020-10-19T07:31:42Z</time>
      </trkpt>
      <trkpt lat="42.8064970" lon="-7.6315140">
        <ele>423.4</ele>
        <time>2020-10-19T07:31:43Z</time>
      </trkpt>
      <trkpt lat="42.8065040" lon="-7.6315270">
        <ele>423.5</ele>
        <time>2020-10-19T07:31:44Z</time>
      </trkpt>
      <trkpt lat="42.8065130" lon="-7.6315420">
        <ele>423.7</ele>
        <time>2020-10-19T07:31:45Z</time>
      </trkpt>
      <trkpt lat="42.8065210" lon="-7.6315570">
        <ele>423.8</ele>
        <time>2020-10-19T07:31:46Z</time>
      </trkpt>
      <trkpt lat="42.8065290" lon="-7.6315700">
        <ele>423.9</ele>
        <time>2020-10-19T07:31:47Z</time>
      </trkpt>
      <trkpt lat="42.8065370" lon="-7.6315810">
        <ele>424.0</ele>
        <time>2020-10-19T07:31:48Z</time>
      </trkpt>
      <trkpt lat="42.8065440" lon="-7.6315910">
        <ele>424.1</ele>
        <time>2020-10-19T07:31:49Z</time>
      </trkpt>
      <trkpt lat="42.8065520" lon="-7.6316020">
        <ele>424.2</ele>
        <time>2020-10-19T07:31:50Z</time>
      </trkpt>
      <trkpt lat="42.8065580" lon="-7.6316120">
        <ele>424.3</ele>
        <time>2020-10-19T07:31:51Z</time>
      </trkpt>
      <trkpt lat="42.8065640" lon="-7.6316230">
        <ele>424.4</ele>
        <time>2020-10-19T07:31:52Z</time>
      </trkpt>
      <trkpt lat="42.8065690" lon="-7.6316350">
        <ele>424.5</ele>
        <time>2020-10-19T07:31:53Z</time>
      </trkpt>
      <trkpt lat="42.8065750" lon="-7.6316460">
        <ele>424.6</ele>
        <time>2020-10-19T07:31:54Z</time>
      </trkpt>
      <trkpt lat="42.8065830" lon="-7.6316560">
        <ele>424.7</ele>
        <time>2020-10-19T07:31:55Z</time>
      </trkpt>
      <trkpt lat="42.8065900" lon="-7.6316670">
        <ele>424.7</ele>
        <time>2020-10-19T07:31:56Z</time>
      </trkpt>
      <trkpt lat="42.8065980" lon="-7.6316770">
        <ele>424.8</ele>
        <time>2020-10-19T07:31:57Z</time>
      </trkpt>
      <trkpt lat="42.8066070" lon="-7.6316880">
        <ele>425.0</ele>
        <time>2020-10-19T07:31:58Z</time>
      </trkpt>
      <trkpt lat="42.8066150" lon="-7.6316980">
        <ele>425.1</ele>
        <time>2020-10-19T07:31:59Z</time>
      </trkpt>
      <trkpt lat="42.8066230" lon="-7.6317080">
        <ele>425.2</ele>
        <time>2020-10-19T07:32:00Z</time>
      </trkpt>
      <trkpt lat="42.8066310" lon="-7.6317170">
        <ele>425.2</ele>
        <time>2020-10-19T07:32:01Z</time>
      </trkpt>
      <trkpt lat="42.8066390" lon="-7.6317260">
        <ele>425.3</ele>
        <time>2020-10-19T07:32:02Z</time>
      </trkpt>
      <trkpt lat="42.8066470" lon="-7.6317370">
        <ele>425.4</ele>
        <time>2020-10-19T07:32:03Z</time>
      </trkpt>
      <trkpt lat="42.8066550" lon="-7.6317480">
        <ele>425.5</ele>
        <time>2020-10-19T07:32:04Z</time>
      </trkpt>
      <trkpt lat="42.8066620" lon="-7.6317600">
        <ele>425.6</ele>
        <time>2020-10-19T07:32:05Z</time>
      </trkpt>
      <trkpt lat="42.8066690" lon="-7.6317710">
        <ele>425.7</ele>
        <time>2020-10-19T07:32:06Z</time>
      </trkpt>
      <trkpt lat="42.8066770" lon="-7.6317810">
        <ele>425.8</ele>
        <time>2020-10-19T07:32:07Z</time>
      </trkpt>
      <trkpt lat="42.8066850" lon="-7.6317910">
        <ele>426.0</ele>
        <time>2020-10-19T07:32:08Z</time>
      </trkpt>
      <trkpt lat="42.8066910" lon="-7.6318010">
        <ele>426.0</ele>
        <time>2020-10-19T07:32:09Z</time>
      </trkpt>
      <trkpt lat="42.8066980" lon="-7.6318110">
        <ele>426.1</ele>
        <time>2020-10-19T07:32:10Z</time>
      </trkpt>
      <trkpt lat="42.8067050" lon="-7.6318210">
        <ele>426.2</ele>
        <time>2020-10-19T07:32:11Z</time>
      </trkpt>
      <trkpt lat="42.8067140" lon="-7.6318310">
        <ele>426.4</ele>
        <time>2020-10-19T07:32:12Z</time>
      </trkpt>
      <trkpt lat="42.8067210" lon="-7.6318400">
        <ele>426.5</ele>
        <time>2020-10-19T07:32:13Z</time>
      </trkpt>
      <trkpt lat="42.8067280" lon="-7.6318490">
        <ele>426.6</ele>
        <time>2020-10-19T07:32:14Z</time>
      </trkpt>
      <trkpt lat="42.8067340" lon="-7.6318560">
        <ele>426.6</ele>
        <time>2020-10-19T07:32:15Z</time>
      </trkpt>
      <trkpt lat="42.8067410" lon="-7.6318650">
        <ele>426.8</ele>
        <time>2020-10-19T07:32:16Z</time>
      </trkpt>
      <trkpt lat="42.8067500" lon="-7.6318730">
        <ele>426.9</ele>
        <time>2020-10-19T07:32:17Z</time>
      </trkpt>
      <trkpt lat="42.8067590" lon="-7.6318830">
        <ele>427.0</ele>
        <time>2020-10-19T07:32:18Z</time>
      </trkpt>
      <trkpt lat="42.8067670" lon="-7.6318920">
        <ele>427.1</ele>
        <time>2020-10-19T07:32:19Z</time>
      </trkpt>
      <trkpt lat="42.8067740" lon="-7.6319010">
        <ele>427.2</ele>
        <time>2020-10-19T07:32:20Z</time>
      </trkpt>
      <trkpt lat="42.8067820" lon="-7.6319100">
        <ele>427.3</ele>
        <time>2020-10-19T07:32:21Z</time>
      </trkpt>
      <trkpt lat="42.8067900" lon="-7.6319180">
        <ele>427.5</ele>
        <time>2020-10-19T07:32:22Z</time>
      </trkpt>
      <trkpt lat="42.8068000" lon="-7.6319250">
        <ele>427.6</ele>
        <time>2020-10-19T07:32:23Z</time>
      </trkpt>
      <trkpt lat="42.8068100" lon="-7.6319320">
        <ele>427.7</ele>
        <time>2020-10-19T07:32:24Z</time>
      </trkpt>
      <trkpt lat="42.8068200" lon="-7.6319400">
        <ele>427.9</ele>
        <time>2020-10-19T07:32:25Z</time>
      </trkpt>
      <trkpt lat="42.8068280" lon="-7.6319480">
        <ele>428.0</ele>
        <time>2020-10-19T07:32:26Z</time>
      </trkpt>
      <trkpt lat="42.8068360" lon="-7.6319560">
        <ele>428.1</ele>
        <time>2020-10-19T07:32:27Z</time>
      </trkpt>
      <trkpt lat="42.8068440" lon="-7.6319620">
        <ele>428.2</ele>
        <time>2020-10-19T07:32:28Z</time>
      </trkpt>
      <trkpt lat="42.8068500" lon="-7.6319660">
        <ele>428.3</ele>
        <time>2020-10-19T07:32:29Z</time>
      </trkpt>
      <trkpt lat="42.8068560" lon="-7.6319720">
        <ele>428.4</ele>
        <time>2020-10-19T07:32:30Z</time>
      </trkpt>
      <trkpt lat="42.8068650" lon="-7.6319780">
        <ele>428.5</ele>
        <time>2020-10-19T07:32:31Z</time>
      </trkpt>
      <trkpt lat="42.8068710" lon="-7.6319880">
        <ele>428.6</ele>
        <time>2020-10-19T07:32:32Z</time>
      </trkpt>
      <trkpt lat="42.8068770" lon="-7.6319960">
        <ele>428.7</ele>
        <time>2020-10-19T07:32:33Z</time>
      </trkpt>
      <trkpt lat="42.8068810" lon="-7.6320050">
        <ele>428.8</ele>
        <time>2020-10-19T07:32:34Z</time>
      </trkpt>
      <trkpt lat="42.8068890" lon="-7.6320130">
        <ele>428.9</ele>
        <time>2020-10-19T07:32:35Z</time>
      </trkpt>
      <trkpt lat="42.8068980" lon="-7.6320220">
        <ele>429.0</ele>
        <time>2020-10-19T07:32:36Z</time>
      </trkpt>
      <trkpt lat="42.8069060" lon="-7.6320320">
        <ele>429.2</ele>
        <time>2020-10-19T07:32:37Z</time>
      </trkpt>
      <trkpt lat="42.8069140" lon="-7.6320430">
        <ele>429.3</ele>
        <time>2020-10-19T07:32:38Z</time>
      </trkpt>
      <trkpt lat="42.8069200" lon="-7.6320560">
        <ele>429.4</ele>
        <time>2020-10-19T07:32:39Z</time>
      </trkpt>
      <trkpt lat="42.8069280" lon="-7.6320670">
        <ele>429.5</ele>
        <time>2020-10-19T07:32:40Z</time>
      </trkpt>
      <trkpt lat="42.8069360" lon="-7.6320790">
        <ele>429.7</ele>
        <time>2020-10-19T07:32:41Z</time>
      </trkpt>
      <trkpt lat="42.8069460" lon="-7.6320910">
        <ele>429.8</ele>
        <time>2020-10-19T07:32:42Z</time>
      </trkpt>
      <trkpt lat="42.8069550" lon="-7.6321030">
        <ele>429.9</ele>
        <time>2020-10-19T07:32:43Z</time>
      </trkpt>
      <trkpt lat="42.8069650" lon="-7.6321160">
        <ele>430.1</ele>
        <time>2020-10-19T07:32:44Z</time>
      </trkpt>
      <trkpt lat="42.8069720" lon="-7.6321270">
        <ele>430.2</ele>
        <time>2020-10-19T07:32:45Z</time>
      </trkpt>
      <trkpt lat="42.8069780" lon="-7.6321390">
        <ele>430.3</ele>
        <time>2020-10-19T07:32:46Z</time>
      </trkpt>
      <trkpt lat="42.8069850" lon="-7.6321500">
        <ele>430.4</ele>
        <time>2020-10-19T07:32:47Z</time>
      </trkpt>
      <trkpt lat="42.8069920" lon="-7.6321610">
        <ele>430.5</ele>
        <time>2020-10-19T07:32:48Z</time>
      </trkpt>
      <trkpt lat="42.8070000" lon="-7.6321720">
        <ele>430.6</ele>
        <time>2020-10-19T07:32:49Z</time>
      </trkpt>
      <trkpt lat="42.8070080" lon="-7.6321820">
        <ele>430.7</ele>
        <time>2020-10-19T07:32:50Z</time>
      </trkpt>
      <trkpt lat="42.8070160" lon="-7.6321920">
        <ele>430.8</ele>
        <time>2020-10-19T07:32:51Z</time>
      </trkpt>
      <trkpt lat="42.8070230" lon="-7.6322030">
        <ele>430.9</ele>
        <time>2020-10-19T07:32:52Z</time>
      </trkpt>
      <trkpt lat="42.8070310" lon="-7.6322140">
        <ele>431.0</ele>
        <time>2020-10-19T07:32:53Z</time>
      </trkpt>
      <trkpt lat="42.8070370" lon="-7.6322250">
        <ele>431.1</ele>
        <time>2020-10-19T07:32:54Z</time>
      </trkpt>
      <trkpt lat="42.8070430" lon="-7.6322360">
        <ele>431.2</ele>
        <time>2020-10-19T07:32:55Z</time>
      </trkpt>
      <trkpt lat="42.8070480" lon="-7.6322470">
        <ele>431.3</ele>
        <time>2020-10-19T07:32:56Z</time>
      </trkpt>
      <trkpt lat="42.8070520" lon="-7.6322590">
        <ele>431.4</ele>
        <time>2020-10-19T07:32:57Z</time>
      </trkpt>
      <trkpt lat="42.8070570" lon="-7.6322700">
        <ele>431.5</ele>
        <time>2020-10-19T07:32:58Z</time>
      </trkpt>
      <trkpt lat="42.8070620" lon="-7.6322810">
        <ele>431.5</ele>
        <time>2020-10-19T07:32:59Z</time>
      </trkpt>
      <trkpt lat="42.8070670" lon="-7.6322910">
        <ele>431.6</ele>
        <time>2020-10-19T07:33:00Z</time>
      </trkpt>
      <trkpt lat="42.8070730" lon="-7.6323020">
        <ele>431.7</ele>
        <time>2020-10-19T07:33:01Z</time>
      </trkpt>
      <trkpt lat="42.8070790" lon="-7.6323120">
        <ele>431.8</ele>
        <time>2020-10-19T07:33:02Z</time>
      </trkpt>
      <trkpt lat="42.8070860" lon="-7.6323230">
        <ele>431.9</ele>
        <time>2020-10-19T07:33:03Z</time>
      </trkpt>
      <trkpt lat="42.8070910" lon="-7.6323330">
        <ele>432.0</ele>
        <time>2020-10-19T07:33:04Z</time>
      </trkpt>
      <trkpt lat="42.8070980" lon="-7.6323430">
        <ele>432.1</ele>
        <time>2020-10-19T07:33:05Z</time>
      </trkpt>
      <trkpt lat="42.8071040" lon="-7.6323540">
        <ele>432.2</ele>
        <time>2020-10-19T07:33:06Z</time>
      </trkpt>
      <trkpt lat="42.8071100" lon="-7.6323640">
        <ele>432.2</ele>
        <time>2020-10-19T07:33:07Z</time>
      </trkpt>
      <trkpt lat="42.8071160" lon="-7.6323760">
        <ele>432.3</ele>
        <time>2020-10-19T07:33:08Z</time>
      </trkpt>
      <trkpt lat="42.8071230" lon="-7.6323870">
        <ele>432.4</ele>
        <time>2020-10-19T07:33:09Z</time>
      </trkpt>
      <trkpt lat="42.8071310" lon="-7.6323990">
        <ele>432.5</ele>
        <time>2020-10-19T07:33:10Z</time>
      </trkpt>
      <trkpt lat="42.8071390" lon="-7.6324100">
        <ele>432.6</ele>
        <time>2020-10-19T07:33:11Z</time>
      </trkpt>
      <trkpt lat="42.8071460" lon="-7.6324210">
        <ele>432.7</ele>
        <time>2020-10-19T07:33:12Z</time>
      </trkpt>
      <trkpt lat="42.8071530" lon="-7.6324330">
        <ele>432.8</ele>
        <time>2020-10-19T07:33:13Z</time>
      </trkpt>
      <trkpt lat="42.8071590" lon="-7.6324440">
        <ele>432.9</ele>
        <time>2020-10-19T07:33:14Z</time>
      </trkpt>
      <trkpt lat="42.8071660" lon="-7.6324550">
        <ele>433.0</ele>
        <time>2020-10-19T07:33:15Z</time>
      </trkpt>
      <trkpt lat="42.8071720" lon="-7.6324660">
        <ele>433.1</ele>
        <time>2020-10-19T07:33:16Z</time>
      </trkpt>
      <trkpt lat="42.8071770" lon="-7.6324780">
        <ele>433.2</ele>
        <time>2020-10-19T07:33:17Z</time>
      </trkpt>
      <trkpt lat="42.8071820" lon="-7.6324900">
        <ele>433.2</ele>
        <time>2020-10-19T07:33:18Z</time>
      </trkpt>
      <trkpt lat="42.8071860" lon="-7.6325010">
        <ele>433.3</ele>
        <time>2020-10-19T07:33:19Z</time>
      </trkpt>
      <trkpt lat="42.8071900" lon="-7.6325130">
        <ele>433.4</ele>
        <time>2020-10-19T07:33:20Z</time>
      </trkpt>
      <trkpt lat="42.8071940" lon="-7.6325250">
        <ele>433.5</ele>
        <time>2020-10-19T07:33:21Z</time>
      </trkpt>
      <trkpt lat="42.8071990" lon="-7.6325360">
        <ele>433.6</ele>
        <time>2020-10-19T07:33:22Z</time>
      </trkpt>
      <trkpt lat="42.8072030" lon="-7.6325480">
        <ele>433.6</ele>
        <time>2020-10-19T07:33:23Z</time>
      </trkpt>
      <trkpt lat="42.8072060" lon="-7.6325590">
        <ele>433.7</ele>
        <time>2020-10-19T07:33:24Z</time>
      </trkpt>
      <trkpt lat="42.8072100" lon="-7.6325710">
        <ele>433.8</ele>
        <time>2020-10-19T07:33:25Z</time>
      </trkpt>
      <trkpt lat="42.8072120" lon="-7.6325830">
        <ele>433.9</ele>
        <time>2020-10-19T07:33:26Z</time>
      </trkpt>
      <trkpt lat="42.8072170" lon="-7.6325950">
        <ele>434.0</ele>
        <time>2020-10-19T07:33:27Z</time>
      </trkpt>
      <trkpt lat="42.8072210" lon="-7.6326060">
        <ele>434.0</ele>
        <time>2020-10-19T07:33:28Z</time>
      </trkpt>
      <trkpt lat="42.8072270" lon="-7.6326180">
        <ele>434.1</ele>
        <time>2020-10-19T07:33:29Z</time>
      </trkpt>
      <trkpt lat="42.8072320" lon="-7.6326300">
        <ele>434.2</ele>
        <time>2020-10-19T07:33:30Z</time>
      </trkpt>
      <trkpt lat="42.8072380" lon="-7.6326430">
        <ele>434.3</ele>
        <time>2020-10-19T07:33:31Z</time>
      </trkpt>
      <trkpt lat="42.8072440" lon="-7.6326560">
        <ele>434.4</ele>
        <time>2020-10-19T07:33:32Z</time>
      </trkpt>
      <trkpt lat="42.8072490" lon="-7.6326680">
        <ele>434.5</ele>
        <time>2020-10-19T07:33:33Z</time>
      </trkpt>
      <trkpt lat="42.8072530" lon="-7.6326800">
        <ele>434.6</ele>
        <time>2020-10-19T07:33:34Z</time>
      </trkpt>
      <trkpt lat="42.8072560" lon="-7.6326930">
        <ele>434.6</ele>
        <time>2020-10-19T07:33:35Z</time>
      </trkpt>
      <trkpt lat="42.8072600" lon="-7.6327070">
        <ele>434.7</ele>
        <time>2020-10-19T07:33:36Z</time>
      </trkpt>
      <trkpt lat="42.8072630" lon="-7.6327200">
        <ele>434.8</ele>
        <time>2020-10-19T07:33:37Z</time>
      </trkpt>
      <trkpt lat="42.8072670" lon="-7.6327330">
        <ele>434.9</ele>
        <time>2020-10-19T07:33:38Z</time>
      </trkpt>
      <trkpt lat="42.8072710" lon="-7.6327430">
        <ele>435.0</ele>
        <time>2020-10-19T07:33:39Z</time>
      </trkpt>
      <trkpt lat="42.8072750" lon="-7.6327520">
        <ele>435.0</ele>
        <time>2020-10-19T07:33:40Z</time>
      </trkpt>
      <trkpt lat="42.8072790" lon="-7.6327590">
        <ele>435.1</ele>
        <time>2020-10-19T07:33:41Z</time>
      </trkpt>
      <trkpt lat="42.8072830" lon="-7.6327670">
        <ele>435.2</ele>
        <time>2020-10-19T07:33:42Z</time>
      </trkpt>
      <trkpt lat="42.8072870" lon="-7.6327760">
        <ele>435.2</ele>
        <time>2020-10-19T07:33:43Z</time>
      </trkpt>
      <trkpt lat="42.8072910" lon="-7.6327850">
        <ele>435.3</ele>
        <time>2020-10-19T07:33:44Z</time>
      </trkpt>
      <trkpt lat="42.8072960" lon="-7.6327940">
        <ele>435.4</ele>
        <time>2020-10-19T07:33:45Z</time>
      </trkpt>
      <trkpt lat="42.8073010" lon="-7.6328020">
        <ele>435.4</ele>
        <time>2020-10-19T07:33:46Z</time>
      </trkpt>
      <trkpt lat="42.8073060" lon="-7.6328160">
        <ele>435.5</ele>
        <time>2020-10-19T07:33:47Z</time>
      </trkpt>
      <trkpt lat="42.8073120" lon="-7.6328310">
        <ele>435.7</ele>
        <time>2020-10-19T07:33:48Z</time>
      </trkpt>
      <trkpt lat="42.8073190" lon="-7.6328470">
        <ele>435.8</ele>
        <time>2020-10-19T07:33:49Z</time>
      </trkpt>
      <trkpt lat="42.8073270" lon="-7.6328610">
        <ele>435.9</ele>
        <time>2020-10-19T07:33:50Z</time>
      </trkpt>
      <trkpt lat="42.8073350" lon="-7.6328750">
        <ele>436.0</ele>
        <time>2020-10-19T07:33:51Z</time>
      </trkpt>
      <trkpt lat="42.8073430" lon="-7.6328880">
        <ele>436.1</ele>
        <time>2020-10-19T07:33:52Z</time>
      </trkpt>
      <trkpt lat="42.8073500" lon="-7.6329020">
        <ele>436.3</ele>
        <time>2020-10-19T07:33:53Z</time>
      </trkpt>
      <trkpt lat="42.8073580" lon="-7.6329170">
        <ele>436.4</ele>
        <time>2020-10-19T07:33:54Z</time>
      </trkpt>
      <trkpt lat="42.8073650" lon="-7.6329340">
        <ele>436.6</ele>
        <time>2020-10-19T07:33:55Z</time>
      </trkpt>
      <trkpt lat="42.8073720" lon="-7.6329510">
        <ele>436.7</ele>
        <time>2020-10-19T07:33:56Z</time>
      </trkpt>
      <trkpt lat="42.8073790" lon="-7.6329650">
        <ele>436.8</ele>
        <time>2020-10-19T07:33:57Z</time>
      </trkpt>
      <trkpt lat="42.8073860" lon="-7.6329790">
        <ele>437.0</ele>
        <time>2020-10-19T07:33:58Z</time>
      </trkpt>
      <trkpt lat="42.8073920" lon="-7.6329930">
        <ele>437.1</ele>
        <time>2020-10-19T07:33:59Z</time>
      </trkpt>
      <trkpt lat="42.8073980" lon="-7.6330070">
        <ele>437.2</ele>
        <time>2020-10-19T07:34:00Z</time>
      </trkpt>
      <trkpt lat="42.8074050" lon="-7.6330200">
        <ele>437.3</ele>
        <time>2020-10-19T07:34:01Z</time>
      </trkpt>
      <trkpt lat="42.8074110" lon="-7.6330310">
        <ele>437.4</ele>
        <time>2020-10-19T07:34:02Z</time>
      </trkpt>
      <trkpt lat="42.8074170" lon="-7.6330430">
        <ele>437.6</ele>
        <time>2020-10-19T07:34:03Z</time>
      </trkpt>
      <trkpt lat="42.8074220" lon="-7.6330550">
        <ele>437.7</ele>
        <time>2020-10-19T07:34:04Z</time>
      </trkpt>
      <trkpt lat="42.8074270" lon="-7.6330670">
        <ele>437.8</ele>
        <time>2020-10-19T07:34:05Z</time>
      </trkpt>
      <trkpt lat="42.8074310" lon="-7.6330800">
        <ele>437.9</ele>
        <time>2020-10-19T07:34:06Z</time>
      </trkpt>
      <trkpt lat="42.8074350" lon="-7.6330910">
        <ele>438.0</ele>
        <time>2020-10-19T07:34:07Z</time>
      </trkpt>
      <trkpt lat="42.8074400" lon="-7.6331030">
        <ele>438.1</ele>
        <time>2020-10-19T07:34:08Z</time>
      </trkpt>
      <trkpt lat="42.8074440" lon="-7.6331140">
        <ele>438.2</ele>
        <time>2020-10-19T07:34:09Z</time>
      </trkpt>
      <trkpt lat="42.8074460" lon="-7.6331260">
        <ele>438.3</ele>
        <time>2020-10-19T07:34:10Z</time>
      </trkpt>
      <trkpt lat="42.8074490" lon="-7.6331380">
        <ele>438.4</ele>
        <time>2020-10-19T07:34:11Z</time>
      </trkpt>
      <trkpt lat="42.8074530" lon="-7.6331500">
        <ele>438.5</ele>
        <time>2020-10-19T07:34:12Z</time>
      </trkpt>
      <trkpt lat="42.8074580" lon="-7.6331610">
        <ele>438.6</ele>
        <time>2020-10-19T07:34:13Z</time>
      </trkpt>
      <trkpt lat="42.8074630" lon="-7.6331720">
        <ele>438.7</ele>
        <time>2020-10-19T07:34:14Z</time>
      </trkpt>
      <trkpt lat="42.8074670" lon="-7.6331830">
        <ele>438.8</ele>
        <time>2020-10-19T07:34:15Z</time>
      </trkpt>
      <trkpt lat="42.8074720" lon="-7.6331970">
        <ele>438.9</ele>
        <time>2020-10-19T07:34:16Z</time>
      </trkpt>
      <trkpt lat="42.8074780" lon="-7.6332110">
        <ele>439.0</ele>
        <time>2020-10-19T07:34:17Z</time>
      </trkpt>
      <trkpt lat="42.8074830" lon="-7.6332250">
        <ele>439.2</ele>
        <time>2020-10-19T07:34:18Z</time>
      </trkpt>
      <trkpt lat="42.8074870" lon="-7.6332380">
        <ele>439.3</ele>
        <time>2020-10-19T07:34:19Z</time>
      </trkpt>
      <trkpt lat="42.8074900" lon="-7.6332510">
        <ele>439.4</ele>
        <time>2020-10-19T07:34:20Z</time>
      </trkpt>
      <trkpt lat="42.8074940" lon="-7.6332640">
        <ele>439.5</ele>
        <time>2020-10-19T07:34:21Z</time>
      </trkpt>
      <trkpt lat="42.8074980" lon="-7.6332770">
        <ele>439.6</ele>
        <time>2020-10-19T07:34:22Z</time>
      </trkpt>
      <trkpt lat="42.8075050" lon="-7.6332920">
        <ele>439.8</ele>
        <time>2020-10-19T07:34:23Z</time>
      </trkpt>
      <trkpt lat="42.8075100" lon="-7.6333090">
        <ele>439.9</ele>
        <time>2020-10-19T07:34:24Z</time>
      </trkpt>
      <trkpt lat="42.8075150" lon="-7.6333240">
        <ele>440.0</ele>
        <time>2020-10-19T07:34:25Z</time>
      </trkpt>
      <trkpt lat="42.8075180" lon="-7.6333390">
        <ele>440.2</ele>
        <time>2020-10-19T07:34:26Z</time>
      </trkpt>
      <trkpt lat="42.8075220" lon="-7.6333540">
        <ele>440.3</ele>
        <time>2020-10-19T07:34:27Z</time>
      </trkpt>
      <trkpt lat="42.8075270" lon="-7.6333680">
        <ele>440.4</ele>
        <time>2020-10-19T07:34:28Z</time>
      </trkpt>
      <trkpt lat="42.8075330" lon="-7.6333820">
        <ele>440.5</ele>
        <time>2020-10-19T07:34:29Z</time>
      </trkpt>
      <trkpt lat="42.8075390" lon="-7.6333970">
        <ele>440.7</ele>
        <time>2020-10-19T07:34:30Z</time>
      </trkpt>
      <trkpt lat="42.8075450" lon="-7.6334130">
        <ele>440.8</ele>
        <time>2020-10-19T07:34:31Z</time>
      </trkpt>
      <trkpt lat="42.8075520" lon="-7.6334280">
        <ele>441.0</ele>
        <time>2020-10-19T07:34:32Z</time>
      </trkpt>
      <trkpt lat="42.8075590" lon="-7.6334420">
        <ele>441.1</ele>
        <time>2020-10-19T07:34:33Z</time>
      </trkpt>
      <trkpt lat="42.8075640" lon="-7.6334560">
        <ele>441.2</ele>
        <time>2020-10-19T07:34:34Z</time>
      </trkpt>
      <trkpt lat="42.8075680" lon="-7.6334670">
        <ele>441.3</ele>
        <time>2020-10-19T07:34:35Z</time>
      </trkpt>
      <trkpt lat="42.8075690" lon="-7.6334720">
        <ele>441.4</ele>
        <time>2020-10-19T07:34:36Z</time>
      </trkpt>
      <trkpt lat="42.8075680" lon="-7.6334720">
        <ele>441.4</ele>
        <time>2020-10-19T07:34:37Z</time>
      </trkpt>
      <trkpt lat="42.8075670" lon="-7.6334700">
        <ele>441.4</ele>
        <time>2020-10-19T07:34:38Z</time>
      </trkpt>
      <trkpt lat="42.8075660" lon="-7.6334690">
        <ele>441.4</ele>
        <time>2020-10-19T07:34:39Z</time>
      </trkpt>
      <trkpt lat="42.8075650" lon="-7.6334690">
        <ele>441.4</ele>
        <time>2020-10-19T07:34:40Z</time>
      </trkpt>
      <trkpt lat="42.8075650" lon="-7.6334690">
        <ele>441.4</ele>
        <time>2020-10-19T07:34:41Z</time>
      </trkpt>
      <trkpt lat="42.8075640" lon="-7.6334690">
        <ele>441.4</ele>
        <time>2020-10-19T07:34:42Z</time>
      </trkpt>
      <trkpt lat="42.8075640" lon="-7.6334690">
        <ele>441.4</ele>
        <time>2020-10-19T07:34:43Z</time>
      </trkpt>
      <trkpt lat="42.8075640" lon="-7.6334690">
        <ele>441.4</ele>
        <time>2020-10-19T07:34:44Z</time>
      </trkpt>
      <trkpt lat="42.8075630" lon="-7.6334690">
        <ele>441.4</ele>
        <time>2020-10-19T07:34:45Z</time>
      </trkpt>
      <trkpt lat="42.8075630" lon="-7.6334690">
        <ele>441.4</ele>
        <time>2020-10-19T07:34:46Z</time>
      </trkpt>
      <trkpt lat="42.8075620" lon="-7.6334710">
        <ele>441.4</ele>
        <time>2020-10-19T07:34:47Z</time>
      </trkpt>
      <trkpt lat="42.8075610" lon="-7.6334720">
        <ele>441.5</ele>
        <time>2020-10-19T07:34:48Z</time>
      </trkpt>
      <trkpt lat="42.8075600" lon="-7.6334720">
        <ele>441.5</ele>
        <time>2020-10-19T07:34:49Z</time>
      </trkpt>
      <trkpt lat="42.8075580" lon="-7.6334710">
        <ele>441.5</ele>
        <time>2020-10-19T07:34:50Z</time>
      </trkpt>
      <trkpt lat="42.8075570" lon="-7.6334720">
        <ele>441.5</ele>
        <time>2020-10-19T07:34:51Z</time>
      </trkpt>
      <trkpt lat="42.8075560" lon="-7.6334720">
        <ele>441.5</ele>
        <time>2020-10-19T07:34:52Z</time>
      </trkpt>
      <trkpt lat="42.8075550" lon="-7.6334720">
        <ele>441.5</ele>
        <time>2020-10-19T07:34:53Z</time>
      </trkpt>
      <trkpt lat="42.8075540" lon="-7.6334710">
        <ele>441.5</ele>
        <time>2020-10-19T07:34:54Z</time>
      </trkpt>
      <trkpt lat="42.8075530" lon="-7.6334710">
        <ele>441.5</ele>
        <time>2020-10-19T07:34:55Z</time>
      </trkpt>
      <trkpt lat="42.8075520" lon="-7.6334710">
        <ele>441.5</ele>
        <time>2020-10-19T07:34:56Z</time>
      </trkpt>
      <trkpt lat="42.8075530" lon="-7.6334700">
        <ele>441.6</ele>
        <time>2020-10-19T07:34:57Z</time>
      </trkpt>
      <trkpt lat="42.8075540" lon="-7.6334680">
        <ele>441.6</ele>
        <time>2020-10-19T07:34:58Z</time>
      </trkpt>
      <trkpt lat="42.8075570" lon="-7.6334650">
        <ele>441.6</ele>
        <time>2020-10-19T07:34:59Z</time>
      </trkpt>
      <trkpt lat="42.8075610" lon="-7.6334630">
        <ele>441.7</ele>
        <time>2020-10-19T07:35:00Z</time>
      </trkpt>
      <trkpt lat="42.8075650" lon="-7.6334580">
        <ele>441.7</ele>
        <time>2020-10-19T07:35:01Z</time>
      </trkpt>
      <trkpt lat="42.8075700" lon="-7.6334510">
        <ele>441.8</ele>
        <time>2020-10-19T07:35:02Z</time>
      </trkpt>
      <trkpt lat="42.8075740" lon="-7.6334450">
        <ele>441.8</ele>
        <time>2020-10-19T07:35:03Z</time>
      </trkpt>
      <trkpt lat="42.8075790" lon="-7.6334400">
        <ele>441.9</ele>
        <time>2020-10-19T07:35:04Z</time>
      </trkpt>
      <trkpt lat="42.8075850" lon="-7.6334350">
        <ele>442.0</ele>
        <time>2020-10-19T07:35:05Z</time>
      </trkpt>
      <trkpt lat="42.8075900" lon="-7.6334330">
        <ele>442.0</ele>
        <time>2020-10-19T07:35:06Z</time>
      </trkpt>
      <trkpt lat="42.8075930" lon="-7.6334320">
        <ele>442.0</ele>
        <time>2020-10-19T07:35:07Z</time>
      </trkpt>
      <trkpt lat="42.8075930" lon="-7.6334350">
        <ele>442.0</ele>
        <time>2020-10-19T07:35:08Z</time>
      </trkpt>
      <trkpt lat="42.8075930" lon="-7.6334370">
        <ele>442.1</ele>
        <time>2020-10-19T07:35:09Z</time>
      </trkpt>
      <trkpt lat="42.8075930" lon="-7.6334380">
        <ele>442.1</ele>
        <time>2020-10-19T07:35:10Z</time>
      </trkpt>
      <trkpt lat="42.8075940" lon="-7.6334380">
        <ele>442.1</ele>
        <time>2020-10-19T07:35:11Z</time>
      </trkpt>
      <trkpt lat="42.8075950" lon="-7.6334390">
        <ele>442.1</ele>
        <time>2020-10-19T07:35:12Z</time>
      </trkpt>
      <trkpt lat="42.8075960" lon="-7.6334390">
        <ele>442.1</ele>
        <time>2020-10-19T07:35:13Z</time>
      </trkpt>
      <trkpt lat="42.8075980" lon="-7.6334390">
        <ele>442.1</ele>
        <time>2020-10-19T07:35:14Z</time>
      </trkpt>
      <trkpt lat="42.8075990" lon="-7.6334390">
        <ele>442.1</ele>
        <time>2020-10-19T07:35:15Z</time>
      </trkpt>
      <trkpt lat="42.8076000" lon="-7.6334390">
        <ele>442.1</ele>
        <time>2020-10-19T07:35:16Z</time>
      </trkpt>
      <trkpt lat="42.8076010" lon="-7.6334390">
        <ele>442.1</ele>
        <time>2020-10-19T07:35:17Z</time>
      </trkpt>
      <trkpt lat="42.8076020" lon="-7.6334390">
        <ele>442.1</ele>
        <time>2020-10-19T07:35:18Z</time>
      </trkpt>
      <trkpt lat="42.8076020" lon="-7.6334390">
        <ele>442.1</ele>
        <time>2020-10-19T07:35:19Z</time>
      </trkpt>
      <trkpt lat="42.8076020" lon="-7.6334390">
        <ele>442.1</ele>
        <time>2020-10-19T07:35:20Z</time>
      </trkpt>
      <trkpt lat="42.8076030" lon="-7.6334380">
        <ele>442.2</ele>
        <time>2020-10-19T07:35:21Z</time>
      </trkpt>
      <trkpt lat="42.8076030" lon="-7.6334380">
        <ele>442.2</ele>
        <time>2020-10-19T07:35:22Z</time>
      </trkpt>
      <trkpt lat="42.8076030" lon="-7.6334370">
        <ele>442.2</ele>
        <time>2020-10-19T07:35:23Z</time>
      </trkpt>
      <trkpt lat="42.8076030" lon="-7.6334370">
        <ele>442.2</ele>
        <time>2020-10-19T07:35:24Z</time>
      </trkpt>
      <trkpt lat="42.8076030" lon="-7.6334360">
        <ele>442.2</ele>
        <time>2020-10-19T07:35:25Z</time>
      </trkpt>
      <trkpt lat="42.8076030" lon="-7.6334360">
        <ele>442.2</ele>
        <time>2020-10-19T07:35:26Z</time>
      </trkpt>
      <trkpt lat="42.8076030" lon="-7.6334350">
        <ele>442.2</ele>
        <time>2020-10-19T07:35:27Z</time>
      </trkpt>
      <trkpt lat="42.8076030" lon="-7.6334350">
        <ele>442.2</ele>
        <time>2020-10-19T07:35:28Z</time>
      </trkpt>
      <trkpt lat="42.8076030" lon="-7.6334350">
        <ele>442.2</ele>
        <time>2020-10-19T07:35:29Z</time>
      </trkpt>
      <trkpt lat="42.8076030" lon="-7.6334340">
        <ele>442.2</ele>
        <time>2020-10-19T07:35:30Z</time>
      </trkpt>
      <trkpt lat="42.8076020" lon="-7.6334330">
        <ele>442.2</ele>
        <time>2020-10-19T07:35:31Z</time>
      </trkpt>
      <trkpt lat="42.8076010" lon="-7.6334330">
        <ele>442.2</ele>
        <time>2020-10-19T07:35:32Z</time>
      </trkpt>
      <trkpt lat="42.8076000" lon="-7.6334320">
        <ele>442.2</ele>
        <time>2020-10-19T07:35:33Z</time>
      </trkpt>
      <trkpt lat="42.8075990" lon="-7.6334300">
        <ele>442.2</ele>
        <time>2020-10-19T07:35:34Z</time>
      </trkpt>
      <trkpt lat="42.8075980" lon="-7.6334300">
        <ele>442.2</ele>
        <time>2020-10-19T07:35:35Z</time>
      </trkpt>
      <trkpt lat="42.8075980" lon="-7.6334290">
        <ele>442.2</ele>
        <time>2020-10-19T07:35:36Z</time>
      </trkpt>
      <trkpt lat="42.8075980" lon="-7.6334290">
        <ele>442.2</ele>
        <time>2020-10-19T07:35:37Z</time>
      </trkpt>
      <trkpt lat="42.8075980" lon="-7.6334280">
        <ele>442.3</ele>
        <time>2020-10-19T07:35:38Z</time>
      </trkpt>
      <trkpt lat="42.8075980" lon="-7.6334280">
        <ele>442.3</ele>
        <time>2020-10-19T07:35:39Z</time>
      </trkpt>
      <trkpt lat="42.8075970" lon="-7.6334270">
        <ele>442.3</ele>
        <time>2020-10-19T07:35:40Z</time>
      </trkpt>
      <trkpt lat="42.8075970" lon="-7.6334260">
        <ele>442.3</ele>
        <time>2020-10-19T07:35:41Z</time>
      </trkpt>
      <trkpt lat="42.8075970" lon="-7.6334260">
        <ele>442.3</ele>
        <time>2020-10-19T07:35:42Z</time>
      </trkpt>
      <trkpt lat="42.8075970" lon="-7.6334260">
        <ele>442.3</ele>
        <time>2020-10-19T07:35:43Z</time>
      </trkpt>
      <trkpt lat="42.8075970" lon="-7.6334260">
        <ele>442.3</ele>
        <time>2020-10-19T07:35:44Z</time>
      </trkpt>
      <trkpt lat="42.8075970" lon="-7.6334260">
        <ele>442.3</ele>
        <time>2020-10-19T07:35:45Z</time>
      </trkpt>
      <trkpt lat="42.8075970" lon="-7.6334260">
        <ele>442.3</ele>
        <time>2020-10-19T07:35:46Z</time>
      </trkpt>
      <trkpt lat="42.8075970" lon="-7.6334260">
        <ele>442.3</ele>
        <time>2020-10-19T07:35:47Z</time>
      </trkpt>
      <trkpt lat="42.8075960" lon="-7.6334260">
        <ele>442.3</ele>
        <time>2020-10-19T07:35:48Z</time>
      </trkpt>
      <trkpt lat="42.8075960" lon="-7.6334260">
        <ele>442.3</ele>
        <time>2020-10-19T07:35:49Z</time>
      </trkpt>
      <trkpt lat="42.8075950" lon="-7.6334250">
        <ele>442.3</ele>
        <time>2020-10-19T07:35:50Z</time>
      </trkpt>
      <trkpt lat="42.8075940" lon="-7.6334230">
        <ele>442.3</ele>
        <time>2020-10-19T07:35:51Z</time>
      </trkpt>
      <trkpt lat="42.8075940" lon="-7.6334220">
        <ele>442.3</ele>
        <time>2020-10-19T07:35:52Z</time>
      </trkpt>
      <trkpt lat="42.8075930" lon="-7.6334230">
        <ele>442.3</ele>
        <time>2020-10-19T07:35:53Z</time>
      </trkpt>
      <trkpt lat="42.8075910" lon="-7.6334270">
        <ele>442.3</ele>
        <time>2020-10-19T07:35:54Z</time>
      </trkpt>
      <trkpt lat="42.8075870" lon="-7.6334340">
        <ele>442.4</ele>
        <time>2020-10-19T07:35:55Z</time>
      </trkpt>
      <trkpt lat="42.8075820" lon="-7.6334420">
        <ele>442.5</ele>
        <time>2020-10-19T07:35:56Z</time>
      </trkpt>
      <trkpt lat="42.8075790" lon="-7.6334530">
        <ele>442.5</ele>
        <time>2020-10-19T07:35:57Z</time>
      </trkpt>
      <trkpt lat="42.8075770" lon="-7.6334700">
        <ele>442.6</ele>
        <time>2020-10-19T07:35:58Z</time>
      </trkpt>
      <trkpt lat="42.8075740" lon="-7.6334890">
        <ele>442.7</ele>
        <time>2020-10-19T07:35:59Z</time>
      </trkpt>
      <trkpt lat="42.8075700" lon="-7.6335090">
        <ele>442.8</ele>
        <time>2020-10-19T07:36:00Z</time>
      </trkpt>
      <trkpt lat="42.8075680" lon="-7.6335260">
        <ele>442.9</ele>
        <time>2020-10-19T07:36:01Z</time>
      </trkpt>
      <trkpt lat="42.8075660" lon="-7.6335440">
        <ele>443.0</ele>
        <time>2020-10-19T07:36:02Z</time>
      </trkpt>
      <trkpt lat="42.8075650" lon="-7.6335620">
        <ele>443.1</ele>
        <time>2020-10-19T07:36:03Z</time>
      </trkpt>
      <trkpt lat="42.8075650" lon="-7.6335800">
        <ele>443.1</ele>
        <time>2020-10-19T07:36:04Z</time>
      </trkpt>
      <trkpt lat="42.8075670" lon="-7.6335980">
        <ele>443.2</ele>
        <time>2020-10-19T07:36:05Z</time>
      </trkpt>
      <trkpt lat="42.8075690" lon="-7.6336160">
        <ele>443.3</ele>
        <time>2020-10-19T07:36:06Z</time>
      </trkpt>
      <trkpt lat="42.8075710" lon="-7.6336350">
        <ele>443.4</ele>
        <time>2020-10-19T07:36:07Z</time>
      </trkpt>
      <trkpt lat="42.8075740" lon="-7.6336540">
        <ele>443.4</ele>
        <time>2020-10-19T07:36:08Z</time>
      </trkpt>
      <trkpt lat="42.8075770" lon="-7.6336720">
        <ele>443.5</ele>
        <time>2020-10-19T07:36:09Z</time>
      </trkpt>
      <trkpt lat="42.8075800" lon="-7.6336890">
        <ele>443.6</ele>
        <time>2020-10-19T07:36:10Z</time>
      </trkpt>
      <trkpt lat="42.8075830" lon="-7.6337050">
        <ele>443.6</ele>
        <time>2020-10-19T07:36:11Z</time>
      </trkpt>
      <trkpt lat="42.8075850" lon="-7.6337180">
        <ele>443.7</ele>
        <time>2020-10-19T07:36:12Z</time>
      </trkpt>
      <trkpt lat="42.8075880" lon="-7.6337320">
        <ele>443.7</ele>
        <time>2020-10-19T07:36:13Z</time>
      </trkpt>
      <trkpt lat="42.8075910" lon="-7.6337460">
        <ele>443.8</ele>
        <time>2020-10-19T07:36:14Z</time>
      </trkpt>
      <trkpt lat="42.8075940" lon="-7.6337650">
        <ele>443.8</ele>
        <time>2020-10-19T07:36:15Z</time>
      </trkpt>
      <trkpt lat="42.8075960" lon="-7.6337840">
        <ele>443.9</ele>
        <time>2020-10-19T07:36:16Z</time>
      </trkpt>
      <trkpt lat="42.8075960" lon="-7.6338030">
        <ele>444.0</ele>
        <time>2020-10-19T07:36:17Z</time>
      </trkpt>
      <trkpt lat="42.8075960" lon="-7.6338210">
        <ele>444.0</ele>
        <time>2020-10-19T07:36:18Z</time>
      </trkpt>
      <trkpt lat="42.8075970" lon="-7.6338400">
        <ele>444.1</ele>
        <time>2020-10-19T07:36:19Z</time>
      </trkpt>
      <trkpt lat="42.8075990" lon="-7.6338570">
        <ele>444.1</ele>
        <time>2020-10-19T07:36:20Z</time>
      </trkpt>
      <trkpt lat="42.8076000" lon="-7.6338740">
        <ele>444.2</ele>
        <time>2020-10-19T07:36:21Z</time>
      </trkpt>
      <trkpt lat="42.8076020" lon="-7.6338910">
        <ele>444.3</ele>
        <time>2020-10-19T07:36:22Z</time>
      </trkpt>
      <trkpt lat="42.8076020" lon="-7.6339150">
        <ele>444.4</ele>
        <time>2020-10-19T07:36:23Z</time>
      </trkpt>
      <trkpt lat="42.8076020" lon="-7.6339450">
        <ele>444.5</ele>
        <time>2020-10-19T07:36:24Z</time>
      </trkpt>
      <trkpt lat="42.8076000" lon="-7.6339790">
        <ele>444.6</ele>
        <time>2020-10-19T07:36:25Z</time>
      </trkpt>
      <trkpt lat="42.8075980" lon="-7.6340110">
        <ele>444.7</ele>
        <time>2020-10-19T07:36:26Z</time>
      </trkpt>
      <trkpt lat="42.8075950" lon="-7.6340430">
        <ele>444.9</ele>
        <time>2020-10-19T07:36:27Z</time>
      </trkpt>
      <trkpt lat="42.8075940" lon="-7.6340740">
        <ele>445.0</ele>
        <time>2020-10-19T07:36:28Z</time>
      </trkpt>
      <trkpt lat="42.8075920" lon="-7.6341050">
        <ele>445.1</ele>
        <time>2020-10-19T07:36:29Z</time>
      </trkpt>
      <trkpt lat="42.8075890" lon="-7.6341340">
        <ele>445.2</ele>
        <time>2020-10-19T07:36:30Z</time>
      </trkpt>
      <trkpt lat="42.8075820" lon="-7.6341620">
        <ele>445.3</ele>
        <time>2020-10-19T07:36:31Z</time>
      </trkpt>
      <trkpt lat="42.8075740" lon="-7.6341910">
        <ele>445.5</ele>
        <time>2020-10-19T07:36:32Z</time>
      </trkpt>
      <trkpt lat="42.8075650" lon="-7.6342210">
        <ele>445.6</ele>
        <time>2020-10-19T07:36:33Z</time>
      </trkpt>
      <trkpt lat="42.8075570" lon="-7.6342500">
        <ele>445.7</ele>
        <time>2020-10-19T07:36:34Z</time>
      </trkpt>
      <trkpt lat="42.8075500" lon="-7.6342760">
        <ele>445.8</ele>
        <time>2020-10-19T07:36:35Z</time>
      </trkpt>
      <trkpt lat="42.8075410" lon="-7.6343010">
        <ele>446.0</ele>
        <time>2020-10-19T07:36:36Z</time>
      </trkpt>
      <trkpt lat="42.8075290" lon="-7.6343240">
        <ele>446.1</ele>
        <time>2020-10-19T07:36:37Z</time>
      </trkpt>
      <trkpt lat="42.8075110" lon="-7.6343490">
        <ele>446.2</ele>
        <time>2020-10-19T07:36:38Z</time>
      </trkpt>
      <trkpt lat="42.8074930" lon="-7.6343760">
        <ele>446.4</ele>
        <time>2020-10-19T07:36:39Z</time>
      </trkpt>
      <trkpt lat="42.8074760" lon="-7.6344020">
        <ele>446.5</ele>
        <time>2020-10-19T07:36:40Z</time>
      </trkpt>
      <trkpt lat="42.8074630" lon="-7.6344250">
        <ele>446.6</ele>
        <time>2020-10-19T07:36:41Z</time>
      </trkpt>
      <trkpt lat="42.8074500" lon="-7.6344450">
        <ele>446.7</ele>
        <time>2020-10-19T07:36:42Z</time>
      </trkpt>
      <trkpt lat="42.8074360" lon="-7.6344670">
        <ele>446.8</ele>
        <time>2020-10-19T07:36:43Z</time>
      </trkpt>
      <trkpt lat="42.8074230" lon="-7.6344870">
        <ele>446.9</ele>
        <time>2020-10-19T07:36:44Z</time>
      </trkpt>
      <trkpt lat="42.8074130" lon="-7.6345080">
        <ele>447.0</ele>
        <time>2020-10-19T07:36:45Z</time>
      </trkpt>
      <trkpt lat="42.8074030" lon="-7.6345300">
        <ele>447.1</ele>
        <time>2020-10-19T07:36:46Z</time>
      </trkpt>
      <trkpt lat="42.8073950" lon="-7.6345540">
        <ele>447.1</ele>
        <time>2020-10-19T07:36:47Z</time>
      </trkpt>
      <trkpt lat="42.8073850" lon="-7.6345810">
        <ele>447.2</ele>
        <time>2020-10-19T07:36:48Z</time>
      </trkpt>
      <trkpt lat="42.8073760" lon="-7.6346050">
        <ele>447.3</ele>
        <time>2020-10-19T07:36:49Z</time>
      </trkpt>
      <trkpt lat="42.8073680" lon="-7.6346250">
        <ele>447.3</ele>
        <time>2020-10-19T07:36:50Z</time>
      </trkpt>
      <trkpt lat="42.8073620" lon="-7.6346430">
        <ele>447.4</ele>
        <time>2020-10-19T07:36:51Z</time>
      </trkpt>
      <trkpt lat="42.8073570" lon="-7.6346590">
        <ele>447.4</ele>
        <time>2020-10-19T07:36:52Z</time>
      </trkpt>
      <trkpt lat="42.8073510" lon="-7.6346790">
        <ele>447.4</ele>
        <time>2020-10-19T07:36:53Z</time>
      </trkpt>
      <trkpt lat="42.8073440" lon="-7.6347000">
        <ele>447.4</ele>
        <time>2020-10-19T07:36:54Z</time>
      </trkpt>
      <trkpt lat="42.8073370" lon="-7.6347200">
        <ele>447.5</ele>
        <time>2020-10-19T07:36:55Z</time>
      </trkpt>
      <trkpt lat="42.8073310" lon="-7.6347380">
        <ele>447.5</ele>
        <time>2020-10-19T07:36:56Z</time>
      </trkpt>
      <trkpt lat="42.8073260" lon="-7.6347530">
        <ele>447.5</ele>
        <time>2020-10-19T07:36:57Z</time>
      </trkpt>
      <trkpt lat="42.8073200" lon="-7.6347680">
        <ele>447.5</ele>
        <time>2020-10-19T07:36:58Z</time>
      </trkpt>
      <trkpt lat="42.8073150" lon="-7.6347820">
        <ele>447.5</ele>
        <time>2020-10-19T07:36:59Z</time>
      </trkpt>
      <trkpt lat="42.8073090" lon="-7.6347980">
        <ele>447.5</ele>
        <time>2020-10-19T07:37:00Z</time>
      </trkpt>
      <trkpt lat="42.8073030" lon="-7.6348140">
        <ele>447.5</ele>
        <time>2020-10-19T07:37:01Z</time>
      </trkpt>
      <trkpt lat="42.8072990" lon="-7.6348280">
        <ele>447.5</ele>
        <time>2020-10-19T07:37:02Z</time>
      </trkpt>
      <trkpt lat="42.8072940" lon="-7.6348410">
        <ele>447.5</ele>
        <time>2020-10-19T07:37:03Z</time>
      </trkpt>
      <trkpt lat="42.8072890" lon="-7.6348550">
        <ele>447.5</ele>
        <time>2020-10-19T07:37:04Z</time>
      </trkpt>
      <trkpt lat="42.8072820" lon="-7.6348700">
        <ele>447.5</ele>
        <time>2020-10-19T07:37:05Z</time>
      </trkpt>
      <trkpt lat="42.8072740" lon="-7.6348830">
        <ele>447.5</ele>
        <time>2020-10-19T07:37:06Z</time>
      </trkpt>
      <trkpt lat="42.8072670" lon="-7.6348910">
        <ele>447.5</ele>
        <time>2020-10-19T07:37:07Z</time>
      </trkpt>
      <trkpt lat="42.8072620" lon="-7.6348950">
        <ele>447.5</ele>
        <time>2020-10-19T07:37:08Z</time>
      </trkpt>
      <trkpt lat="42.8072600" lon="-7.6348980">
        <ele>447.5</ele>
        <time>2020-10-19T07:37:09Z</time>
      </trkpt>
      <trkpt lat="42.8072590" lon="-7.6349020">
        <ele>447.5</ele>
        <time>2020-10-19T07:37:10Z</time>
      </trkpt>
      <trkpt lat="42.8072580" lon="-7.6349070">
        <ele>447.5</ele>
        <time>2020-10-19T07:37:11Z</time>
      </trkpt>
      <trkpt lat="42.8072540" lon="-7.6349170">
        <ele>447.5</ele>
        <time>2020-10-19T07:37:12Z</time>
      </trkpt>
      <trkpt lat="42.8072500" lon="-7.6349290">
        <ele>447.5</ele>
        <time>2020-10-19T07:37:13Z</time>
      </trkpt>
      <trkpt lat="42.8072440" lon="-7.6349430">
        <ele>447.5</ele>
        <time>2020-10-19T07:37:14Z</time>
      </trkpt>
      <trkpt lat="42.8072390" lon="-7.6349580">
        <ele>447.5</ele>
        <time>2020-10-19T07:37:15Z</time>
      </trkpt>
      <trkpt lat="42.8072330" lon="-7.6349730">
        <ele>447.5</ele>
        <time>2020-10-19T07:37:16Z</time>
      </trkpt>
      <trkpt lat="42.8072250" lon="-7.6349900">
        <ele>447.5</ele>
        <time>2020-10-19T07:37:17Z</time>
      </trkpt>
      <trkpt lat="42.8072180" lon="-7.6350060">
        <ele>447.4</ele>
        <time>2020-10-19T07:37:18Z</time>
      </trkpt>
      <trkpt lat="42.8072100" lon="-7.6350230">
        <ele>447.4</ele>
        <time>2020-10-19T07:37:19Z</time>
      </trkpt>
      <trkpt lat="42.8072040" lon="-7.6350400">
        <ele>447.4</ele>
        <time>2020-10-19T07:37:20Z</time>
      </trkpt>
      <trkpt lat="42.8071970" lon="-7.6350560">
        <ele>447.4</ele>
        <time>2020-10-19T07:37:21Z</time>
      </trkpt>
      <trkpt lat="42.8071910" lon="-7.6350710">
        <ele>447.4</ele>
        <time>2020-10-19T07:37:22Z</time>
      </trkpt>
      <trkpt lat="42.8071850" lon="-7.6350870">
        <ele>447.4</ele>
        <time>2020-10-19T07:37:23Z</time>
      </trkpt>
      <trkpt lat="42.8071790" lon="-7.6351010">
        <ele>447.3</ele>
        <time>2020-10-19T07:37:24Z</time>
      </trkpt>
      <trkpt lat="42.8071740" lon="-7.6351160">
        <ele>447.3</ele>
        <time>2020-10-19T07:37:25Z</time>
      </trkpt>
      <trkpt lat="42.8071670" lon="-7.6351310">
        <ele>447.3</ele>
        <time>2020-10-19T07:37:26Z</time>
      </trkpt>
      <trkpt lat="42.8071600" lon="-7.6351480">
        <ele>447.3</ele>
        <time>2020-10-19T07:37:27Z</time>
      </trkpt>
      <trkpt lat="42.8071520" lon="-7.6351660">
        <ele>447.3</ele>
        <time>2020-10-19T07:37:28Z</time>
      </trkpt>
      <trkpt lat="42.8071450" lon="-7.6351830">
        <ele>447.2</ele>
        <time>2020-10-19T07:37:29Z</time>
      </trkpt>
      <trkpt lat="42.8071380" lon="-7.6352000">
        <ele>447.2</ele>
        <time>2020-10-19T07:37:30Z</time>
      </trkpt>
      <trkpt lat="42.8071310" lon="-7.6352170">
        <ele>447.2</ele>
        <time>2020-10-19T07:37:31Z</time>
      </trkpt>
      <trkpt lat="42.8071250" lon="-7.6352350">
        <ele>447.1</ele>
        <time>2020-10-19T07:37:32Z</time>
      </trkpt>
      <trkpt lat="42.8071200" lon="-7.6352500">
        <ele>447.1</ele>
        <time>2020-10-19T07:37:33Z</time>
      </trkpt>
      <trkpt lat="42.8071140" lon="-7.6352660">
        <ele>447.1</ele>
        <time>2020-10-19T07:37:34Z</time>
      </trkpt>
      <trkpt lat="42.8071080" lon="-7.6352820">
        <ele>447.1</ele>
        <time>2020-10-19T07:37:35Z</time>
      </trkpt>
      <trkpt lat="42.8071010" lon="-7.6353000">
        <ele>447.0</ele>
        <time>2020-10-19T07:37:36Z</time>
      </trkpt>
      <trkpt lat="42.8070950" lon="-7.6353200">
        <ele>447.0</ele>
        <time>2020-10-19T07:37:37Z</time>
      </trkpt>
      <trkpt lat="42.8070880" lon="-7.6353430">
        <ele>447.0</ele>
        <time>2020-10-19T07:37:38Z</time>
      </trkpt>
      <trkpt lat="42.8070830" lon="-7.6353670">
        <ele>446.9</ele>
        <time>2020-10-19T07:37:39Z</time>
      </trkpt>
      <trkpt lat="42.8070770" lon="-7.6353910">
        <ele>446.9</ele>
        <time>2020-10-19T07:37:40Z</time>
      </trkpt>
      <trkpt lat="42.8070720" lon="-7.6354130">
        <ele>446.8</ele>
        <time>2020-10-19T07:37:41Z</time>
      </trkpt>
      <trkpt lat="42.8070660" lon="-7.6354350">
        <ele>446.8</ele>
        <time>2020-10-19T07:37:42Z</time>
      </trkpt>
      <trkpt lat="42.8070610" lon="-7.6354550">
        <ele>446.8</ele>
        <time>2020-10-19T07:37:43Z</time>
      </trkpt>
      <trkpt lat="42.8070560" lon="-7.6354750">
        <ele>446.7</ele>
        <time>2020-10-19T07:37:44Z</time>
      </trkpt>
      <trkpt lat="42.8070510" lon="-7.6354950">
        <ele>446.7</ele>
        <time>2020-10-19T07:37:45Z</time>
      </trkpt>
      <trkpt lat="42.8070470" lon="-7.6355150">
        <ele>446.6</ele>
        <time>2020-10-19T07:37:46Z</time>
      </trkpt>
      <trkpt lat="42.8070420" lon="-7.6355350">
        <ele>446.6</ele>
        <time>2020-10-19T07:37:47Z</time>
      </trkpt>
      <trkpt lat="42.8070380" lon="-7.6355540">
        <ele>446.6</ele>
        <time>2020-10-19T07:37:48Z</time>
      </trkpt>
      <trkpt lat="42.8070350" lon="-7.6355720">
        <ele>446.5</ele>
        <time>2020-10-19T07:37:49Z</time>
      </trkpt>
      <trkpt lat="42.8070320" lon="-7.6355910">
        <ele>446.5</ele>
        <time>2020-10-19T07:37:50Z</time>
      </trkpt>
      <trkpt lat="42.8070300" lon="-7.6356090">
        <ele>446.4</ele>
        <time>2020-10-19T07:37:51Z</time>
      </trkpt>
      <trkpt lat="42.8070260" lon="-7.6356280">
        <ele>446.4</ele>
        <time>2020-10-19T07:37:52Z</time>
      </trkpt>
      <trkpt lat="42.8070220" lon="-7.6356460">
        <ele>446.3</ele>
        <time>2020-10-19T07:37:53Z</time>
      </trkpt>
      <trkpt lat="42.8070180" lon="-7.6356640">
        <ele>446.3</ele>
        <time>2020-10-19T07:37:54Z</time>
      </trkpt>
      <trkpt lat="42.8070130" lon="-7.6356830">
        <ele>446.2</ele>
        <time>2020-10-19T07:37:55Z</time>
      </trkpt>
      <trkpt lat="42.8070080" lon="-7.6357030">
        <ele>446.2</ele>
        <time>2020-10-19T07:37:56Z</time>
      </trkpt>
      <trkpt lat="42.8070030" lon="-7.6357230">
        <ele>446.1</ele>
        <time>2020-10-19T07:37:57Z</time>
      </trkpt>
      <trkpt lat="42.8069970" lon="-7.6357410">
        <ele>446.1</ele>
        <time>2020-10-19T07:37:58Z</time>
      </trkpt>
      <trkpt lat="42.8069910" lon="-7.6357600">
        <ele>446.0</ele>
        <time>2020-10-19T07:37:59Z</time>
      </trkpt>
      <trkpt lat="42.8069850" lon="-7.6357770">
        <ele>445.9</ele>
        <time>2020-10-19T07:38:00Z</time>
      </trkpt>
      <trkpt lat="42.8069800" lon="-7.6357950">
        <ele>445.9</ele>
        <time>2020-10-19T07:38:01Z</time>
      </trkpt>
      <trkpt lat="42.8069750" lon="-7.6358120">
        <ele>445.8</ele>
        <time>2020-10-19T07:38:02Z</time>
      </trkpt>
      <trkpt lat="42.8069700" lon="-7.6358290">
        <ele>445.8</ele>
        <time>2020-10-19T07:38:03Z</time>
      </trkpt>
      <trkpt lat="42.8069660" lon="-7.6358460">
        <ele>445.7</ele>
        <time>2020-10-19T07:38:04Z</time>
      </trkpt>
      <trkpt lat="42.8069620" lon="-7.6358630">
        <ele>445.7</ele>
        <time>2020-10-19T07:38:05Z</time>
      </trkpt>
      <trkpt lat="42.8069560" lon="-7.6358810">
        <ele>445.6</ele>
        <time>2020-10-19T07:38:06Z</time>
      </trkpt>
      <trkpt lat="42.8069500" lon="-7.6358980">
        <ele>445.5</ele>
        <time>2020-10-19T07:38:07Z</time>
      </trkpt>
      <trkpt lat="42.8069460" lon="-7.6359150">
        <ele>445.5</ele>
        <time>2020-10-19T07:38:08Z</time>
      </trkpt>
      <trkpt lat="42.8069410" lon="-7.6359320">
        <ele>445.4</ele>
        <time>2020-10-19T07:38:09Z</time>
      </trkpt>
      <trkpt lat="42.8069370" lon="-7.6359490">
        <ele>445.4</ele>
        <time>2020-10-19T07:38:10Z</time>
      </trkpt>
      <trkpt lat="42.8069320" lon="-7.6359670">
        <ele>445.3</ele>
        <time>2020-10-19T07:38:11Z</time>
      </trkpt>
      <trkpt lat="42.8069270" lon="-7.6359860">
        <ele>445.3</ele>
        <time>2020-10-19T07:38:12Z</time>
      </trkpt>
      <trkpt lat="42.8069220" lon="-7.6360040">
        <ele>445.2</ele>
        <time>2020-10-19T07:38:13Z</time>
      </trkpt>
      <trkpt lat="42.8069150" lon="-7.6360230">
        <ele>445.2</ele>
        <time>2020-10-19T07:38:14Z</time>
      </trkpt>
      <trkpt lat="42.8069090" lon="-7.6360400">
        <ele>445.1</ele>
        <time>2020-10-19T07:38:15Z</time>
      </trkpt>
      <trkpt lat="42.8069010" lon="-7.6360580">
        <ele>445.1</ele>
        <time>2020-10-19T07:38:16Z</time>
      </trkpt>
      <trkpt lat="42.8068940" lon="-7.6360750">
        <ele>445.0</ele>
        <time>2020-10-19T07:38:17Z</time>
      </trkpt>
      <trkpt lat="42.8068870" lon="-7.6360900">
        <ele>445.0</ele>
        <time>2020-10-19T07:38:18Z</time>
      </trkpt>
      <trkpt lat="42.8068800" lon="-7.6361040">
        <ele>444.9</ele>
        <time>2020-10-19T07:38:19Z</time>
      </trkpt>
      <trkpt lat="42.8068740" lon="-7.6361180">
        <ele>444.9</ele>
        <time>2020-10-19T07:38:20Z</time>
      </trkpt>
      <trkpt lat="42.8068680" lon="-7.6361310">
        <ele>444.8</ele>
        <time>2020-10-19T07:38:21Z</time>
      </trkpt>
      <trkpt lat="42.8068620" lon="-7.6361430">
        <ele>444.8</ele>
        <time>2020-10-19T07:38:22Z</time>
      </trkpt>
      <trkpt lat="42.8068560" lon="-7.6361560">
        <ele>444.8</ele>
        <time>2020-10-19T07:38:23Z</time>
      </trkpt>
      <trkpt lat="42.8068510" lon="-7.6361690">
        <ele>444.7</ele>
        <time>2020-10-19T07:38:24Z</time>
      </trkpt>
      <trkpt lat="42.8068460" lon="-7.6361810">
        <ele>444.7</ele>
        <time>2020-10-19T07:38:25Z</time>
      </trkpt>
      <trkpt lat="42.8068420" lon="-7.6361940">
        <ele>444.7</ele>
        <time>2020-10-19T07:38:26Z</time>
      </trkpt>
      <trkpt lat="42.8068370" lon="-7.6362070">
        <ele>444.6</ele>
        <time>2020-10-19T07:38:27Z</time>
      </trkpt>
      <trkpt lat="42.8068320" lon="-7.6362200">
        <ele>444.6</ele>
        <time>2020-10-19T07:38:28Z</time>
      </trkpt>
      <trkpt lat="42.8068270" lon="-7.6362320">
        <ele>444.6</ele>
        <time>2020-10-19T07:38:29Z</time>
      </trkpt>
      <trkpt lat="42.8068210" lon="-7.6362450">
        <ele>444.5</ele>
        <time>2020-10-19T07:38:30Z</time>
      </trkpt>
      <trkpt lat="42.8068140" lon="-7.6362580">
        <ele>444.5</ele>
        <time>2020-10-19T07:38:31Z</time>
      </trkpt>
      <trkpt lat="42.8068060" lon="-7.6362730">
        <ele>444.5</ele>
        <time>2020-10-19T07:38:32Z</time>
      </trkpt>
      <trkpt lat="42.8067980" lon="-7.6362880">
        <ele>444.4</ele>
        <time>2020-10-19T07:38:33Z</time>
      </trkpt>
      <trkpt lat="42.8067900" lon="-7.6363030">
        <ele>444.4</ele>
        <time>2020-10-19T07:38:34Z</time>
      </trkpt>
      <trkpt lat="42.8067820" lon="-7.6363180">
        <ele>444.3</ele>
        <time>2020-10-19T07:38:35Z</time>
      </trkpt>
      <trkpt lat="42.8067750" lon="-7.6363330">
        <ele>444.3</ele>
        <time>2020-10-19T07:38:36Z</time>
      </trkpt>
      <trkpt lat="42.8067680" lon="-7.6363490">
        <ele>444.3</ele>
        <time>2020-10-19T07:38:37Z</time>
      </trkpt>
      <trkpt lat="42.8067620" lon="-7.6363670">
        <ele>444.2</ele>
        <time>2020-10-19T07:38:38Z</time>
      </trkpt>
      <trkpt lat="42.8067560" lon="-7.6363850">
        <ele>444.2</ele>
        <time>2020-10-19T07:38:39Z</time>
      </trkpt>
      <trkpt lat="42.8067500" lon="-7.6364010">
        <ele>444.1</ele>
        <time>2020-10-19T07:38:40Z</time>
      </trkpt>
      <trkpt lat="42.8067440" lon="-7.6364160">
        <ele>444.1</ele>
        <time>2020-10-19T07:38:41Z</time>
      </trkpt>
      <trkpt lat="42.8067380" lon="-7.6364320">
        <ele>444.1</ele>
        <time>2020-10-19T07:38:42Z</time>
      </trkpt>
      <trkpt lat="42.8067310" lon="-7.6364490">
        <ele>444.0</ele>
        <time>2020-10-19T07:38:43Z</time>
      </trkpt>
      <trkpt lat="42.8067230" lon="-7.6364660">
        <ele>444.0</ele>
        <time>2020-10-19T07:38:44Z</time>
      </trkpt>
      <trkpt lat="42.8067160" lon="-7.6364830">
        <ele>443.9</ele>
        <time>2020-10-19T07:38:45Z</time>
      </trkpt>
      <trkpt lat="42.8067090" lon="-7.6364980">
        <ele>443.9</ele>
        <time>2020-10-19T07:38:46Z</time>
      </trkpt>
      <trkpt lat="42.8067020" lon="-7.6365130">
        <ele>443.9</ele>
        <time>2020-10-19T07:38:47Z</time>
      </trkpt>
      <trkpt lat="42.8066950" lon="-7.6365270">
        <ele>443.8</ele>
        <time>2020-10-19T07:38:48Z</time>
      </trkpt>
      <trkpt lat="42.8066890" lon="-7.6365410">
        <ele>443.8</ele>
        <time>2020-10-19T07:38:49Z</time>
      </trkpt>
      <trkpt lat="42.8066830" lon="-7.6365550">
        <ele>443.7</ele>
        <time>2020-10-19T07:38:50Z</time>
      </trkpt>
      <trkpt lat="42.8066780" lon="-7.6365700">
        <ele>443.7</ele>
        <time>2020-10-19T07:38:51Z</time>
      </trkpt>
      <trkpt lat="42.8066720" lon="-7.6365840">
        <ele>443.7</ele>
        <time>2020-10-19T07:38:52Z</time>
      </trkpt>
      <trkpt lat="42.8066660" lon="-7.6365990">
        <ele>443.7</ele>
        <time>2020-10-19T07:38:53Z</time>
      </trkpt>
      <trkpt lat="42.8066600" lon="-7.6366160">
        <ele>443.6</ele>
        <time>2020-10-19T07:38:54Z</time>
      </trkpt>
      <trkpt lat="42.8066560" lon="-7.6366320">
        <ele>443.6</ele>
        <time>2020-10-19T07:38:55Z</time>
      </trkpt>
      <trkpt lat="42.8066510" lon="-7.6366500">
        <ele>443.6</ele>
        <time>2020-10-19T07:38:56Z</time>
      </trkpt>
      <trkpt lat="42.8066460" lon="-7.6366680">
        <ele>443.5</ele>
        <time>2020-10-19T07:38:57Z</time>
      </trkpt>
      <trkpt lat="42.8066400" lon="-7.6366880">
        <ele>443.5</ele>
        <time>2020-10-19T07:38:58Z</time>
      </trkpt>
      <trkpt lat="42.8066350" lon="-7.6367100">
        <ele>443.5</ele>
        <time>2020-10-19T07:38:59Z</time>
      </trkpt>
      <trkpt lat="42.8066290" lon="-7.6367350">
        <ele>443.4</ele>
        <time>2020-10-19T07:39:00Z</time>
      </trkpt>
      <trkpt lat="42.8066250" lon="-7.6367600">
        <ele>443.4</ele>
        <time>2020-10-19T07:39:01Z</time>
      </trkpt>
      <trkpt lat="42.8066210" lon="-7.6367840">
        <ele>443.4</ele>
        <time>2020-10-19T07:39:02Z</time>
      </trkpt>
      <trkpt lat="42.8066170" lon="-7.6368050">
        <ele>443.4</ele>
        <time>2020-10-19T07:39:03Z</time>
      </trkpt>
      <trkpt lat="42.8066130" lon="-7.6368260">
        <ele>443.3</ele>
        <time>2020-10-19T07:39:04Z</time>
      </trkpt>
      <trkpt lat="42.8066100" lon="-7.6368450">
        <ele>443.3</ele>
        <time>2020-10-19T07:39:05Z</time>
      </trkpt>
      <trkpt lat="42.8066080" lon="-7.6368630">
        <ele>443.3</ele>
        <time>2020-10-19T07:39:06Z</time>
      </trkpt>
      <trkpt lat="42.8066070" lon="-7.6368820">
        <ele>443.3</ele>
        <time>2020-10-19T07:39:07Z</time>
      </trkpt>
      <trkpt lat="42.8066070" lon="-7.6369060">
        <ele>443.3</ele>
        <time>2020-10-19T07:39:08Z</time>
      </trkpt>
      <trkpt lat="42.8066060" lon="-7.6369290">
        <ele>443.3</ele>
        <time>2020-10-19T07:39:09Z</time>
      </trkpt>
      <trkpt lat="42.8066040" lon="-7.6369500">
        <ele>443.3</ele>
        <time>2020-10-19T07:39:10Z</time>
      </trkpt>
      <trkpt lat="42.8066020" lon="-7.6369670">
        <ele>443.3</ele>
        <time>2020-10-19T07:39:11Z</time>
      </trkpt>
      <trkpt lat="42.8066010" lon="-7.6369840">
        <ele>443.3</ele>
        <time>2020-10-19T07:39:12Z</time>
      </trkpt>
      <trkpt lat="42.8066000" lon="-7.6370020">
        <ele>443.3</ele>
        <time>2020-10-19T07:39:13Z</time>
      </trkpt>
      <trkpt lat="42.8065990" lon="-7.6370190">
        <ele>443.3</ele>
        <time>2020-10-19T07:39:14Z</time>
      </trkpt>
      <trkpt lat="42.8065970" lon="-7.6370360">
        <ele>443.3</ele>
        <time>2020-10-19T07:39:15Z</time>
      </trkpt>
      <trkpt lat="42.8065960" lon="-7.6370530">
        <ele>443.3</ele>
        <time>2020-10-19T07:39:16Z</time>
      </trkpt>
      <trkpt lat="42.8065960" lon="-7.6370710">
        <ele>443.3</ele>
        <time>2020-10-19T07:39:17Z</time>
      </trkpt>
      <trkpt lat="42.8065960" lon="-7.6370890">
        <ele>443.3</ele>
        <time>2020-10-19T07:39:18Z</time>
      </trkpt>
      <trkpt lat="42.8065960" lon="-7.6371070">
        <ele>443.3</ele>
        <time>2020-10-19T07:39:19Z</time>
      </trkpt>
      <trkpt lat="42.8065950" lon="-7.6371260">
        <ele>443.3</ele>
        <time>2020-10-19T07:39:20Z</time>
      </trkpt>
      <trkpt lat="42.8065950" lon="-7.6371440">
        <ele>443.3</ele>
        <time>2020-10-19T07:39:21Z</time>
      </trkpt>
      <trkpt lat="42.8065960" lon="-7.6371610">
        <ele>443.3</ele>
        <time>2020-10-19T07:39:22Z</time>
      </trkpt>
      <trkpt lat="42.8065960" lon="-7.6371800">
        <ele>443.3</ele>
        <time>2020-10-19T07:39:23Z</time>
      </trkpt>
      <trkpt lat="42.8065960" lon="-7.6371980">
        <ele>443.3</ele>
        <time>2020-10-19T07:39:24Z</time>
      </trkpt>
      <trkpt lat="42.8065970" lon="-7.6372170">
        <ele>443.3</ele>
        <time>2020-10-19T07:39:25Z</time>
      </trkpt>
      <trkpt lat="42.8065990" lon="-7.6372360">
        <ele>443.3</ele>
        <time>2020-10-19T07:39:26Z</time>
      </trkpt>
      <trkpt lat="42.8066020" lon="-7.6372540">
        <ele>443.3</ele>
        <time>2020-10-19T07:39:27Z</time>
      </trkpt>
      <trkpt lat="42.8066030" lon="-7.6372730">
        <ele>443.3</ele>
        <time>2020-10-19T07:39:28Z</time>
      </trkpt>
      <trkpt lat="42.8066040" lon="-7.6372930">
        <ele>443.3</ele>
        <time>2020-10-19T07:39:29Z</time>
      </trkpt>
      <trkpt lat="42.8066040" lon="-7.6373120">
        <ele>443.3</ele>
        <time>2020-10-19T07:39:30Z</time>
      </trkpt>
      <trkpt lat="42.8066050" lon="-7.6373300">
        <ele>443.3</ele>
        <time>2020-10-19T07:39:31Z</time>
      </trkpt>
      <trkpt lat="42.8066060" lon="-7.6373490">
        <ele>443.3</ele>
        <time>2020-10-19T07:39:32Z</time>
      </trkpt>
      <trkpt lat="42.8066070" lon="-7.6373680">
        <ele>443.3</ele>
        <time>2020-10-19T07:39:33Z</time>
      </trkpt>
      <trkpt lat="42.8066080" lon="-7.6373870">
        <ele>443.3</ele>
        <time>2020-10-19T07:39:34Z</time>
      </trkpt>
      <trkpt lat="42.8066090" lon="-7.6374070">
        <ele>443.3</ele>
        <time>2020-10-19T07:39:35Z</time>
      </trkpt>
      <trkpt lat="42.8066100" lon="-7.6374270">
        <ele>443.3</ele>
        <time>2020-10-19T07:39:36Z</time>
      </trkpt>
      <trkpt lat="42.8066110" lon="-7.6374480">
        <ele>443.3</ele>
        <time>2020-10-19T07:39:37Z</time>
      </trkpt>
      <trkpt lat="42.8066120" lon="-7.6374680">
        <ele>443.3</ele>
        <time>2020-10-19T07:39:38Z</time>
      </trkpt>
      <trkpt lat="42.8066120" lon="-7.6374870">
        <ele>443.3</ele>
        <time>2020-10-19T07:39:39Z</time>
      </trkpt>
      <trkpt lat="42.8066130" lon="-7.6375040">
        <ele>443.3</ele>
        <time>2020-10-19T07:39:40Z</time>
      </trkpt>
      <trkpt lat="42.8066140" lon="-7.6375200">
        <ele>443.3</ele>
        <time>2020-10-19T07:39:41Z</time>
      </trkpt>
      <trkpt lat="42.8066150" lon="-7.6375370">
        <ele>443.3</ele>
        <time>2020-10-19T07:39:42Z</time>
      </trkpt>
      <trkpt lat="42.8066170" lon="-7.6375560">
        <ele>443.3</ele>
        <time>2020-10-19T07:39:43Z</time>
      </trkpt>
      <trkpt lat="42.8066200" lon="-7.6375740">
        <ele>443.3</ele>
        <time>2020-10-19T07:39:44Z</time>
      </trkpt>
      <trkpt lat="42.8066220" lon="-7.6375920">
        <ele>443.3</ele>
        <time>2020-10-19T07:39:45Z</time>
      </trkpt>
      <trkpt lat="42.8066250" lon="-7.6376100">
        <ele>443.3</ele>
        <time>2020-10-19T07:39:46Z</time>
      </trkpt>
      <trkpt lat="42.8066280" lon="-7.6376280">
        <ele>443.3</ele>
        <time>2020-10-19T07:39:47Z</time>
      </trkpt>
      <trkpt lat="42.8066310" lon="-7.6376460">
        <ele>443.3</ele>
        <time>2020-10-19T07:39:48Z</time>
      </trkpt>
      <trkpt lat="42.8066340" lon="-7.6376650">
        <ele>443.3</ele>
        <time>2020-10-19T07:39:49Z</time>
      </trkpt>
      <trkpt lat="42.8066370" lon="-7.6376820">
        <ele>443.3</ele>
        <time>2020-10-19T07:39:50Z</time>
      </trkpt>
      <trkpt lat="42.8066390" lon="-7.6377000">
        <ele>443.3</ele>
        <time>2020-10-19T07:39:51Z</time>
      </trkpt>
      <trkpt lat="42.8066410" lon="-7.6377170">
        <ele>443.3</ele>
        <time>2020-10-19T07:39:52Z</time>
      </trkpt>
      <trkpt lat="42.8066430" lon="-7.6377350">
        <ele>443.3</ele>
        <time>2020-10-19T07:39:53Z</time>
      </trkpt>
      <trkpt lat="42.8066460" lon="-7.6377510">
        <ele>443.3</ele>
        <time>2020-10-19T07:39:54Z</time>
      </trkpt>
      <trkpt lat="42.8066510" lon="-7.6377700">
        <ele>443.3</ele>
        <time>2020-10-19T07:39:55Z</time>
      </trkpt>
      <trkpt lat="42.8066550" lon="-7.6377900">
        <ele>443.3</ele>
        <time>2020-10-19T07:39:56Z</time>
      </trkpt>
      <trkpt lat="42.8066600" lon="-7.6378110">
        <ele>443.3</ele>
        <time>2020-10-19T07:39:57Z</time>
      </trkpt>
      <trkpt lat="42.8066630" lon="-7.6378300">
        <ele>443.3</ele>
        <time>2020-10-19T07:39:58Z</time>
      </trkpt>
      <trkpt lat="42.8066680" lon="-7.6378490">
        <ele>443.3</ele>
        <time>2020-10-19T07:39:59Z</time>
      </trkpt>
      <trkpt lat="42.8066730" lon="-7.6378670">
        <ele>443.3</ele>
        <time>2020-10-19T07:40:00Z</time>
      </trkpt>
      <trkpt lat="42.8066790" lon="-7.6378850">
        <ele>443.3</ele>
        <time>2020-10-19T07:40:01Z</time>
      </trkpt>
      <trkpt lat="42.8066860" lon="-7.6379030">
        <ele>443.2</ele>
        <time>2020-10-19T07:40:02Z</time>
      </trkpt>
      <trkpt lat="42.8066920" lon="-7.6379220">
        <ele>443.2</ele>
        <time>2020-10-19T07:40:03Z</time>
      </trkpt>
      <trkpt lat="42.8066990" lon="-7.6379410">
        <ele>443.2</ele>
        <time>2020-10-19T07:40:04Z</time>
      </trkpt>
      <trkpt lat="42.8067060" lon="-7.6379600">
        <ele>443.2</ele>
        <time>2020-10-19T07:40:05Z</time>
      </trkpt>
      <trkpt lat="42.8067140" lon="-7.6379790">
        <ele>443.2</ele>
        <time>2020-10-19T07:40:06Z</time>
      </trkpt>
      <trkpt lat="42.8067230" lon="-7.6379970">
        <ele>443.1</ele>
        <time>2020-10-19T07:40:07Z</time>
      </trkpt>
      <trkpt lat="42.8067310" lon="-7.6380170">
        <ele>443.1</ele>
        <time>2020-10-19T07:40:08Z</time>
      </trkpt>
      <trkpt lat="42.8067380" lon="-7.6380370">
        <ele>443.1</ele>
        <time>2020-10-19T07:40:09Z</time>
      </trkpt>
      <trkpt lat="42.8067440" lon="-7.6380580">
        <ele>443.0</ele>
        <time>2020-10-19T07:40:10Z</time>
      </trkpt>
      <trkpt lat="42.8067500" lon="-7.6380780">
        <ele>443.0</ele>
        <time>2020-10-19T07:40:11Z</time>
      </trkpt>
      <trkpt lat="42.8067560" lon="-7.6380980">
        <ele>442.9</ele>
        <time>2020-10-19T07:40:12Z</time>
      </trkpt>
      <trkpt lat="42.8067620" lon="-7.6381180">
        <ele>442.9</ele>
        <time>2020-10-19T07:40:13Z</time>
      </trkpt>
      <trkpt lat="42.8067670" lon="-7.6381390">
        <ele>442.8</ele>
        <time>2020-10-19T07:40:14Z</time>
      </trkpt>
      <trkpt lat="42.8067710" lon="-7.6381600">
        <ele>442.8</ele>
        <time>2020-10-19T07:40:15Z</time>
      </trkpt>
      <trkpt lat="42.8067760" lon="-7.6381810">
        <ele>442.7</ele>
        <time>2020-10-19T07:40:16Z</time>
      </trkpt>
      <trkpt lat="42.8067800" lon="-7.6382010">
        <ele>442.7</ele>
        <time>2020-10-19T07:40:17Z</time>
      </trkpt>
      <trkpt lat="42.8067840" lon="-7.6382200">
        <ele>442.7</ele>
        <time>2020-10-19T07:40:18Z</time>
      </trkpt>
      <trkpt lat="42.8067880" lon="-7.6382380">
        <ele>442.6</ele>
        <time>2020-10-19T07:40:19Z</time>
      </trkpt>
      <trkpt lat="42.8067910" lon="-7.6382550">
        <ele>442.6</ele>
        <time>2020-10-19T07:40:20Z</time>
      </trkpt>
      <trkpt lat="42.8067930" lon="-7.6382720">
        <ele>442.6</ele>
        <time>2020-10-19T07:40:21Z</time>
      </trkpt>
      <trkpt lat="42.8067950" lon="-7.6382890">
        <ele>442.5</ele>
        <time>2020-10-19T07:40:22Z</time>
      </trkpt>
      <trkpt lat="42.8067990" lon="-7.6383080">
        <ele>442.5</ele>
        <time>2020-10-19T07:40:23Z</time>
      </trkpt>
      <trkpt lat="42.8068020" lon="-7.6383270">
        <ele>442.5</ele>
        <time>2020-10-19T07:40:24Z</time>
      </trkpt>
      <trkpt lat="42.8068040" lon="-7.6383470">
        <ele>442.4</ele>
        <time>2020-10-19T07:40:25Z</time>
      </trkpt>
      <trkpt lat="42.8068050" lon="-7.6383650">
        <ele>442.4</ele>
        <time>2020-10-19T07:40:26Z</time>
      </trkpt>
      <trkpt lat="42.8068060" lon="-7.6383820">
        <ele>442.4</ele>
        <time>2020-10-19T07:40:27Z</time>
      </trkpt>
      <trkpt lat="42.8068060" lon="-7.6383980">
        <ele>442.4</ele>
        <time>2020-10-19T07:40:28Z</time>
      </trkpt>
      <trkpt lat="42.8068060" lon="-7.6384130">
        <ele>442.4</ele>
        <time>2020-10-19T07:40:29Z</time>
      </trkpt>
      <trkpt lat="42.8068080" lon="-7.6384260">
        <ele>442.3</ele>
        <time>2020-10-19T07:40:30Z</time>
      </trkpt>
      <trkpt lat="42.8068110" lon="-7.6384410">
        <ele>442.3</ele>
        <time>2020-10-19T07:40:31Z</time>
      </trkpt>
      <trkpt lat="42.8068130" lon="-7.6384540">
        <ele>442.3</ele>
        <time>2020-10-19T07:40:32Z</time>
      </trkpt>
      <trkpt lat="42.8068170" lon="-7.6384670">
        <ele>442.3</ele>
        <time>2020-10-19T07:40:33Z</time>
      </trkpt>
      <trkpt lat="42.8068210" lon="-7.6384790">
        <ele>442.3</ele>
        <time>2020-10-19T07:40:34Z</time>
      </trkpt>
      <trkpt lat="42.8068280" lon="-7.6384930">
        <ele>442.2</ele>
        <time>2020-10-19T07:40:35Z</time>
      </trkpt>
      <trkpt lat="42.8068350" lon="-7.6385090">
        <ele>442.2</ele>
        <time>2020-10-19T07:40:36Z</time>
      </trkpt>
      <trkpt lat="42.8068410" lon="-7.6385290">
        <ele>442.2</ele>
        <time>2020-10-19T07:40:37Z</time>
      </trkpt>
      <trkpt lat="42.8068460" lon="-7.6385470">
        <ele>442.2</ele>
        <time>2020-10-19T07:40:38Z</time>
      </trkpt>
      <trkpt lat="42.8068510" lon="-7.6385660">
        <ele>442.1</ele>
        <time>2020-10-19T07:40:39Z</time>
      </trkpt>
      <trkpt lat="42.8068580" lon="-7.6385830">
        <ele>442.1</ele>
        <time>2020-10-19T07:40:40Z</time>
      </trkpt>
      <trkpt lat="42.8068640" lon="-7.6386010">
        <ele>442.1</ele>
        <time>2020-10-19T07:40:41Z</time>
      </trkpt>
      <trkpt lat="42.8068710" lon="-7.6386160">
        <ele>442.0</ele>
        <time>2020-10-19T07:40:42Z</time>
      </trkpt>
      <trkpt lat="42.8068770" lon="-7.6386290">
        <ele>442.0</ele>
        <time>2020-10-19T07:40:43Z</time>
      </trkpt>
      <trkpt lat="42.8068840" lon="-7.6386400">
        <ele>442.0</ele>
        <time>2020-10-19T07:40:44Z</time>
      </trkpt>
      <trkpt lat="42.8068890" lon="-7.6386520">
        <ele>442.0</ele>
        <time>2020-10-19T07:40:45Z</time>
      </trkpt>
      <trkpt lat="42.8068940" lon="-7.6386640">
        <ele>442.0</ele>
        <time>2020-10-19T07:40:46Z</time>
      </trkpt>
      <trkpt lat="42.8068960" lon="-7.6386770">
        <ele>441.9</ele>
        <time>2020-10-19T07:40:47Z</time>
      </trkpt>
      <trkpt lat="42.8068970" lon="-7.6386890">
        <ele>441.9</ele>
        <time>2020-10-19T07:40:48Z</time>
      </trkpt>
      <trkpt lat="42.8068950" lon="-7.6387080">
        <ele>441.9</ele>
        <time>2020-10-19T07:40:49Z</time>
      </trkpt>
      <trkpt lat="42.8068920" lon="-7.6387270">
        <ele>441.9</ele>
        <time>2020-10-19T07:40:50Z</time>
      </trkpt>
      <trkpt lat="42.8068910" lon="-7.6387450">
        <ele>441.8</ele>
        <time>2020-10-19T07:40:51Z</time>
      </trkpt>
      <trkpt lat="42.8068930" lon="-7.6387580">
        <ele>441.8</ele>
        <time>2020-10-19T07:40:52Z</time>
      </trkpt>
      <trkpt lat="42.8068970" lon="-7.6387700">
        <ele>441.8</ele>
        <time>2020-10-19T07:40:53Z</time>
      </trkpt>
      <trkpt lat="42.8069010" lon="-7.6387850">
        <ele>441.8</ele>
        <time>2020-10-19T07:40:54Z</time>
      </trkpt>
      <trkpt lat="42.8069060" lon="-7.6388000">
        <ele>441.8</ele>
        <time>2020-10-19T07:40:55Z</time>
      </trkpt>
      <trkpt lat="42.8069100" lon="-7.6388140">
        <ele>441.7</ele>
        <time>2020-10-19T07:40:56Z</time>
      </trkpt>
      <trkpt lat="42.8069140" lon="-7.6388270">
        <ele>441.7</ele>
        <time>2020-10-19T07:40:57Z</time>
      </trkpt>
      <trkpt lat="42.8069180" lon="-7.6388400">
        <ele>441.7</ele>
        <time>2020-10-19T07:40:58Z</time>
      </trkpt>
      <trkpt lat="42.8069230" lon="-7.6388550">
        <ele>441.7</ele>
        <time>2020-10-19T07:40:59Z</time>
      </trkpt>
      <trkpt lat="42.8069300" lon="-7.6388710">
        <ele>441.7</ele>
        <time>2020-10-19T07:41:00Z</time>
      </trkpt>
      <trkpt lat="42.8069390" lon="-7.6388910">
        <ele>441.7</ele>
        <time>2020-10-19T07:41:01Z</time>
      </trkpt>
      <trkpt lat="42.8069480" lon="-7.6389110">
        <ele>441.6</ele>
        <time>2020-10-19T07:41:02Z</time>
      </trkpt>
      <trkpt lat="42.8069560" lon="-7.6389320">
        <ele>441.6</ele>
        <time>2020-10-19T07:41:03Z</time>
      </trkpt>
      <trkpt lat="42.8069640" lon="-7.6389510">
        <ele>441.6</ele>
        <time>2020-10-19T07:41:04Z</time>
      </trkpt>
      <trkpt lat="42.8069700" lon="-7.6389680">
        <ele>441.6</ele>
        <time>2020-10-19T07:41:05Z</time>
      </trkpt>
      <trkpt lat="42.8069770" lon="-7.6389860">
        <ele>441.5</ele>
        <time>2020-10-19T07:41:06Z</time>
      </trkpt>
      <trkpt lat="42.8069840" lon="-7.6390040">
        <ele>441.5</ele>
        <time>2020-10-19T07:41:07Z</time>
      </trkpt>
      <trkpt lat="42.8069920" lon="-7.6390250">
        <ele>441.5</ele>
        <time>2020-10-19T07:41:08Z</time>
      </trkpt>
      <trkpt lat="42.8070030" lon="-7.6390450">
        <ele>441.5</ele>
        <time>2020-10-19T07:41:09Z</time>
      </trkpt>
      <trkpt lat="42.8070130" lon="-7.6390660">
        <ele>441.5</ele>
        <time>2020-10-19T07:41:10Z</time>
      </trkpt>
      <trkpt lat="42.8070240" lon="-7.6390860">
        <ele>441.4</ele>
        <time>2020-10-19T07:41:11Z</time>
      </trkpt>
      <trkpt lat="42.8070340" lon="-7.6391030">
        <ele>441.4</ele>
        <time>2020-10-19T07:41:12Z</time>
      </trkpt>
      <trkpt lat="42.8070460" lon="-7.6391210">
        <ele>441.4</ele>
        <time>2020-10-19T07:41:13Z</time>
      </trkpt>
      <trkpt lat="42.8070560" lon="-7.6391370">
        <ele>441.4</ele>
        <time>2020-10-19T07:41:14Z</time>
      </trkpt>
      <trkpt lat="42.8070670" lon="-7.6391560">
        <ele>441.4</ele>
        <time>2020-10-19T07:41:15Z</time>
      </trkpt>
      <trkpt lat="42.8070770" lon="-7.6391770">
        <ele>441.4</ele>
        <time>2020-10-19T07:41:16Z</time>
      </trkpt>
      <trkpt lat="42.8070880" lon="-7.6391990">
        <ele>441.3</ele>
        <time>2020-10-19T07:41:17Z</time>
      </trkpt>
      <trkpt lat="42.8071000" lon="-7.6392190">
        <ele>441.3</ele>
        <time>2020-10-19T07:41:18Z</time>
      </trkpt>
      <trkpt lat="42.8071110" lon="-7.6392370">
        <ele>441.3</ele>
        <time>2020-10-19T07:41:19Z</time>
      </trkpt>
      <trkpt lat="42.8071220" lon="-7.6392550">
        <ele>441.3</ele>
        <time>2020-10-19T07:41:20Z</time>
      </trkpt>
      <trkpt lat="42.8071320" lon="-7.6392710">
        <ele>441.3</ele>
        <time>2020-10-19T07:41:21Z</time>
      </trkpt>
      <trkpt lat="42.8071430" lon="-7.6392850">
        <ele>441.3</ele>
        <time>2020-10-19T07:41:22Z</time>
      </trkpt>
      <trkpt lat="42.8071520" lon="-7.6392990">
        <ele>441.3</ele>
        <time>2020-10-19T07:41:23Z</time>
      </trkpt>
      <trkpt lat="42.8071630" lon="-7.6393110">
        <ele>441.3</ele>
        <time>2020-10-19T07:41:24Z</time>
      </trkpt>
      <trkpt lat="42.8071760" lon="-7.6393240">
        <ele>441.3</ele>
        <time>2020-10-19T07:41:25Z</time>
      </trkpt>
      <trkpt lat="42.8071890" lon="-7.6393370">
        <ele>441.3</ele>
        <time>2020-10-19T07:41:26Z</time>
      </trkpt>
      <trkpt lat="42.8072000" lon="-7.6393500">
        <ele>441.3</ele>
        <time>2020-10-19T07:41:27Z</time>
      </trkpt>
      <trkpt lat="42.8072100" lon="-7.6393630">
        <ele>441.3</ele>
        <time>2020-10-19T07:41:28Z</time>
      </trkpt>
      <trkpt lat="42.8072200" lon="-7.6393750">
        <ele>441.2</ele>
        <time>2020-10-19T07:41:29Z</time>
      </trkpt>
      <trkpt lat="42.8072310" lon="-7.6393870">
        <ele>441.2</ele>
        <time>2020-10-19T07:41:30Z</time>
      </trkpt>
      <trkpt lat="42.8072420" lon="-7.6393980">
        <ele>441.2</ele>
        <time>2020-10-19T07:41:31Z</time>
      </trkpt>
      <trkpt lat="42.8072540" lon="-7.6394080">
        <ele>441.2</ele>
        <time>2020-10-19T07:41:32Z</time>
      </trkpt>
      <trkpt lat="42.8072660" lon="-7.6394180">
        <ele>441.2</ele>
        <time>2020-10-19T07:41:33Z</time>
      </trkpt>
      <trkpt lat="42.8072800" lon="-7.6394290">
        <ele>441.2</ele>
        <time>2020-10-19T07:41:34Z</time>
      </trkpt>
      <trkpt lat="42.8072940" lon="-7.6394390">
        <ele>441.2</ele>
        <time>2020-10-19T07:41:35Z</time>
      </trkpt>
      <trkpt lat="42.8073080" lon="-7.6394460">
        <ele>441.2</ele>
        <time>2020-10-19T07:41:36Z</time>
      </trkpt>
      <trkpt lat="42.8073180" lon="-7.6394520">
        <ele>441.2</ele>
        <time>2020-10-19T07:41:37Z</time>
      </trkpt>
      <trkpt lat="42.8073280" lon="-7.6394580">
        <ele>441.2</ele>
        <time>2020-10-19T07:41:38Z</time>
      </trkpt>
      <trkpt lat="42.8073390" lon="-7.6394650">
        <ele>441.2</ele>
        <time>2020-10-19T07:41:39Z</time>
      </trkpt>
      <trkpt lat="42.8073530" lon="-7.6394720">
        <ele>441.2</ele>
        <time>2020-10-19T07:41:40Z</time>
      </trkpt>
      <trkpt lat="42.8073650" lon="-7.6394800">
        <ele>441.2</ele>
        <time>2020-10-19T07:41:41Z</time>
      </trkpt>
      <trkpt lat="42.8073770" lon="-7.6394860">
        <ele>441.2</ele>
        <time>2020-10-19T07:41:42Z</time>
      </trkpt>
      <trkpt lat="42.8073900" lon="-7.6394910">
        <ele>441.2</ele>
        <time>2020-10-19T07:41:43Z</time>
      </trkpt>
      <trkpt lat="42.8074030" lon="-7.6394970">
        <ele>441.2</ele>
        <time>2020-10-19T07:41:44Z</time>
      </trkpt>
      <trkpt lat="42.8074170" lon="-7.6395040">
        <ele>441.2</ele>
        <time>2020-10-19T07:41:45Z</time>
      </trkpt>
      <trkpt lat="42.8074290" lon="-7.6395110">
        <ele>441.2</ele>
        <time>2020-10-19T07:41:46Z</time>
      </trkpt>
      <trkpt lat="42.8074420" lon="-7.6395160">
        <ele>441.2</ele>
        <time>2020-10-19T07:41:47Z</time>
      </trkpt>
      <trkpt lat="42.8074550" lon="-7.6395190">
        <ele>441.2</ele>
        <time>2020-10-19T07:41:48Z</time>
      </trkpt>
      <trkpt lat="42.8074690" lon="-7.6395200">
        <ele>441.2</ele>
        <time>2020-10-19T07:41:49Z</time>
      </trkpt>
      <trkpt lat="42.8074830" lon="-7.6395200">
        <ele>441.2</ele>
        <time>2020-10-19T07:41:50Z</time>
      </trkpt>
      <trkpt lat="42.8074960" lon="-7.6395210">
        <ele>441.2</ele>
        <time>2020-10-19T07:41:51Z</time>
      </trkpt>
      <trkpt lat="42.8075110" lon="-7.6395230">
        <ele>441.2</ele>
        <time>2020-10-19T07:41:52Z</time>
      </trkpt>
      <trkpt lat="42.8075260" lon="-7.6395260">
        <ele>441.3</ele>
        <time>2020-10-19T07:41:53Z</time>
      </trkpt>
      <trkpt lat="42.8075410" lon="-7.6395290">
        <ele>441.3</ele>
        <time>2020-10-19T07:41:54Z</time>
      </trkpt>
      <trkpt lat="42.8075540" lon="-7.6395320">
        <ele>441.3</ele>
        <time>2020-10-19T07:41:55Z</time>
      </trkpt>
      <trkpt lat="42.8075670" lon="-7.6395340">
        <ele>441.3</ele>
        <time>2020-10-19T07:41:56Z</time>
      </trkpt>
      <trkpt lat="42.8075800" lon="-7.6395370">
        <ele>441.3</ele>
        <time>2020-10-19T07:41:57Z</time>
      </trkpt>
      <trkpt lat="42.8075930" lon="-7.6395400">
        <ele>441.3</ele>
        <time>2020-10-19T07:41:58Z</time>
      </trkpt>
      <trkpt lat="42.8076070" lon="-7.6395430">
        <ele>441.3</ele>
        <time>2020-10-19T07:41:59Z</time>
      </trkpt>
      <trkpt lat="42.8076200" lon="-7.6395440">
        <ele>441.4</ele>
        <time>2020-10-19T07:42:00Z</time>
      </trkpt>
      <trkpt lat="42.8076320" lon="-7.6395460">
        <ele>441.4</ele>
        <time>2020-10-19T07:42:01Z</time>
      </trkpt>
      <trkpt lat="42.8076460" lon="-7.6395480">
        <ele>441.4</ele>
        <time>2020-10-19T07:42:02Z</time>
      </trkpt>
      <trkpt lat="42.8076580" lon="-7.6395520">
        <ele>441.4</ele>
        <time>2020-10-19T07:42:03Z</time>
      </trkpt>
      <trkpt lat="42.8076720" lon="-7.6395550">
        <ele>441.5</ele>
        <time>2020-10-19T07:42:04Z</time>
      </trkpt>
      <trkpt lat="42.8076840" lon="-7.6395580">
        <ele>441.5</ele>
        <time>2020-10-19T07:42:05Z</time>
      </trkpt>
      <trkpt lat="42.8076970" lon="-7.6395600">
        <ele>441.5</ele>
        <time>2020-10-19T07:42:06Z</time>
      </trkpt>
      <trkpt lat="42.8077090" lon="-7.6395630">
        <ele>441.6</ele>
        <time>2020-10-19T07:42:07Z</time>
      </trkpt>
      <trkpt lat="42.8077220" lon="-7.6395660">
        <ele>441.6</ele>
        <time>2020-10-19T07:42:08Z</time>
      </trkpt>
      <trkpt lat="42.8077350" lon="-7.6395700">
        <ele>441.7</ele>
        <time>2020-10-19T07:42:09Z</time>
      </trkpt>
      <trkpt lat="42.8077480" lon="-7.6395740">
        <ele>441.7</ele>
        <time>2020-10-19T07:42:10Z</time>
      </trkpt>
      <trkpt lat="42.8077600" lon="-7.6395790">
        <ele>441.7</ele>
        <time>2020-10-19T07:42:11Z</time>
      </trkpt>
      <trkpt lat="42.8077730" lon="-7.6395830">
        <ele>441.8</ele>
        <time>2020-10-19T07:42:12Z</time>
      </trkpt>
      <trkpt lat="42.8077860" lon="-7.6395890">
        <ele>441.8</ele>
        <time>2020-10-19T07:42:13Z</time>
      </trkpt>
      <trkpt lat="42.8077980" lon="-7.6395930">
        <ele>441.9</ele>
        <time>2020-10-19T07:42:14Z</time>
      </trkpt>
      <trkpt lat="42.8078100" lon="-7.6395980">
        <ele>442.0</ele>
        <time>2020-10-19T07:42:15Z</time>
      </trkpt>
      <trkpt lat="42.8078220" lon="-7.6396030">
        <ele>442.0</ele>
        <time>2020-10-19T07:42:16Z</time>
      </trkpt>
      <trkpt lat="42.8078350" lon="-7.6396080">
        <ele>442.1</ele>
        <time>2020-10-19T07:42:17Z</time>
      </trkpt>
      <trkpt lat="42.8078480" lon="-7.6396140">
        <ele>442.1</ele>
        <time>2020-10-19T07:42:18Z</time>
      </trkpt>
      <trkpt lat="42.8078600" lon="-7.6396210">
        <ele>442.2</ele>
        <time>2020-10-19T07:42:19Z</time>
      </trkpt>
      <trkpt lat="42.8078730" lon="-7.6396300">
        <ele>442.3</ele>
        <time>2020-10-19T07:42:20Z</time>
      </trkpt>
      <trkpt lat="42.8078850" lon="-7.6396390">
        <ele>442.3</ele>
        <time>2020-10-19T07:42:21Z</time>
      </trkpt>
      <trkpt lat="42.8078960" lon="-7.6396490">
        <ele>442.4</ele>
        <time>2020-10-19T07:42:22Z</time>
      </trkpt>
      <trkpt lat="42.8079060" lon="-7.6396590">
        <ele>442.5</ele>
        <time>2020-10-19T07:42:23Z</time>
      </trkpt>
      <trkpt lat="42.8079160" lon="-7.6396690">
        <ele>442.6</ele>
        <time>2020-10-19T07:42:24Z</time>
      </trkpt>
      <trkpt lat="42.8079290" lon="-7.6396810">
        <ele>442.7</ele>
        <time>2020-10-19T07:42:25Z</time>
      </trkpt>
      <trkpt lat="42.8079400" lon="-7.6396920">
        <ele>442.8</ele>
        <time>2020-10-19T07:42:26Z</time>
      </trkpt>
      <trkpt lat="42.8079510" lon="-7.6397040">
        <ele>442.9</ele>
        <time>2020-10-19T07:42:27Z</time>
      </trkpt>
      <trkpt lat="42.8079590" lon="-7.6397150">
        <ele>442.9</ele>
        <time>2020-10-19T07:42:28Z</time>
      </trkpt>
      <trkpt lat="42.8079680" lon="-7.6397270">
        <ele>443.0</ele>
        <time>2020-10-19T07:42:29Z</time>
      </trkpt>
      <trkpt lat="42.8079760" lon="-7.6397400">
        <ele>443.1</ele>
        <time>2020-10-19T07:42:30Z</time>
      </trkpt>
      <trkpt lat="42.8079850" lon="-7.6397530">
        <ele>443.2</ele>
        <time>2020-10-19T07:42:31Z</time>
      </trkpt>
      <trkpt lat="42.8079930" lon="-7.6397660">
        <ele>443.3</ele>
        <time>2020-10-19T07:42:32Z</time>
      </trkpt>
      <trkpt lat="42.8080020" lon="-7.6397790">
        <ele>443.4</ele>
        <time>2020-10-19T07:42:33Z</time>
      </trkpt>
      <trkpt lat="42.8080110" lon="-7.6397920">
        <ele>443.5</ele>
        <time>2020-10-19T07:42:34Z</time>
      </trkpt>
      <trkpt lat="42.8080200" lon="-7.6398050">
        <ele>443.6</ele>
        <time>2020-10-19T07:42:35Z</time>
      </trkpt>
      <trkpt lat="42.8080280" lon="-7.6398180">
        <ele>443.7</ele>
        <time>2020-10-19T07:42:36Z</time>
      </trkpt>
      <trkpt lat="42.8080370" lon="-7.6398300">
        <ele>443.8</ele>
        <time>2020-10-19T07:42:37Z</time>
      </trkpt>
      <trkpt lat="42.8080440" lon="-7.6398440">
        <ele>443.8</ele>
        <time>2020-10-19T07:42:38Z</time>
      </trkpt>
      <trkpt lat="42.8080500" lon="-7.6398580">
        <ele>443.9</ele>
        <time>2020-10-19T07:42:39Z</time>
      </trkpt>
      <trkpt lat="42.8080550" lon="-7.6398720">
        <ele>444.0</ele>
        <time>2020-10-19T07:42:40Z</time>
      </trkpt>
      <trkpt lat="42.8080600" lon="-7.6398860">
        <ele>444.1</ele>
        <time>2020-10-19T07:42:41Z</time>
      </trkpt>
      <trkpt lat="42.8080670" lon="-7.6398990">
        <ele>444.2</ele>
        <time>2020-10-19T07:42:42Z</time>
      </trkpt>
      <trkpt lat="42.8080750" lon="-7.6399120">
        <ele>444.3</ele>
        <time>2020-10-19T07:42:43Z</time>
      </trkpt>
      <trkpt lat="42.8080810" lon="-7.6399250">
        <ele>444.4</ele>
        <time>2020-10-19T07:42:44Z</time>
      </trkpt>
      <trkpt lat="42.8080870" lon="-7.6399370">
        <ele>444.4</ele>
        <time>2020-10-19T07:42:45Z</time>
      </trkpt>
      <trkpt lat="42.8080940" lon="-7.6399490">
        <ele>444.5</ele>
        <time>2020-10-19T07:42:46Z</time>
      </trkpt>
      <trkpt lat="42.8081010" lon="-7.6399620">
        <ele>444.6</ele>
        <time>2020-10-19T07:42:47Z</time>
      </trkpt>
      <trkpt lat="42.8081090" lon="-7.6399740">
        <ele>444.7</ele>
        <time>2020-10-19T07:42:48Z</time>
      </trkpt>
      <trkpt lat="42.8081160" lon="-7.6399870">
        <ele>444.8</ele>
        <time>2020-10-19T07:42:49Z</time>
      </trkpt>
      <trkpt lat="42.8081240" lon="-7.6400000">
        <ele>444.9</ele>
        <time>2020-10-19T07:42:50Z</time>
      </trkpt>
      <trkpt lat="42.8081330" lon="-7.6400130">
        <ele>445.0</ele>
        <time>2020-10-19T07:42:51Z</time>
      </trkpt>
      <trkpt lat="42.8081410" lon="-7.6400270">
        <ele>445.1</ele>
        <time>2020-10-19T07:42:52Z</time>
      </trkpt>
      <trkpt lat="42.8081480" lon="-7.6400400">
        <ele>445.1</ele>
        <time>2020-10-19T07:42:53Z</time>
      </trkpt>
      <trkpt lat="42.8081540" lon="-7.6400540">
        <ele>445.2</ele>
        <time>2020-10-19T07:42:54Z</time>
      </trkpt>
      <trkpt lat="42.8081610" lon="-7.6400670">
        <ele>445.3</ele>
        <time>2020-10-19T07:42:55Z</time>
      </trkpt>
      <trkpt lat="42.8081690" lon="-7.6400790">
        <ele>445.4</ele>
        <time>2020-10-19T07:42:56Z</time>
      </trkpt>
      <trkpt lat="42.8081770" lon="-7.6400920">
        <ele>445.5</ele>
        <time>2020-10-19T07:42:57Z</time>
      </trkpt>
      <trkpt lat="42.8081860" lon="-7.6401040">
        <ele>445.6</ele>
        <time>2020-10-19T07:42:58Z</time>
      </trkpt>
      <trkpt lat="42.8081960" lon="-7.6401170">
        <ele>445.6</ele>
        <time>2020-10-19T07:42:59Z</time>
      </trkpt>
      <trkpt lat="42.8082040" lon="-7.6401310">
        <ele>445.7</ele>
        <time>2020-10-19T07:43:00Z</time>
      </trkpt>
      <trkpt lat="42.8082120" lon="-7.6401460">
        <ele>445.8</ele>
        <time>2020-10-19T07:43:01Z</time>
      </trkpt>
      <trkpt lat="42.8082190" lon="-7.6401600">
        <ele>445.9</ele>
        <time>2020-10-19T07:43:02Z</time>
      </trkpt>
      <trkpt lat="42.8082250" lon="-7.6401740">
        <ele>446.0</ele>
        <time>2020-10-19T07:43:03Z</time>
      </trkpt>
      <trkpt lat="42.8082310" lon="-7.6401860">
        <ele>446.0</ele>
        <time>2020-10-19T07:43:04Z</time>
      </trkpt>
      <trkpt lat="42.8082380" lon="-7.6401980">
        <ele>446.1</ele>
        <time>2020-10-19T07:43:05Z</time>
      </trkpt>
      <trkpt lat="42.8082450" lon="-7.6402110">
        <ele>446.1</ele>
        <time>2020-10-19T07:43:06Z</time>
      </trkpt>
      <trkpt lat="42.8082510" lon="-7.6402240">
        <ele>446.2</ele>
        <time>2020-10-19T07:43:07Z</time>
      </trkpt>
      <trkpt lat="42.8082580" lon="-7.6402370">
        <ele>446.2</ele>
        <time>2020-10-19T07:43:08Z</time>
      </trkpt>
      <trkpt lat="42.8082650" lon="-7.6402500">
        <ele>446.3</ele>
        <time>2020-10-19T07:43:09Z</time>
      </trkpt>
      <trkpt lat="42.8082720" lon="-7.6402630">
        <ele>446.4</ele>
        <time>2020-10-19T07:43:10Z</time>
      </trkpt>
      <trkpt lat="42.8082790" lon="-7.6402760">
        <ele>446.4</ele>
        <time>2020-10-19T07:43:11Z</time>
      </trkpt>
      <trkpt lat="42.8082870" lon="-7.6402880">
        <ele>446.4</ele>
        <time>2020-10-19T07:43:12Z</time>
      </trkpt>
      <trkpt lat="42.8082940" lon="-7.6403010">
        <ele>446.5</ele>
        <time>2020-10-19T07:43:13Z</time>
      </trkpt>
      <trkpt lat="42.8083020" lon="-7.6403130">
        <ele>446.5</ele>
        <time>2020-10-19T07:43:14Z</time>
      </trkpt>
      <trkpt lat="42.8083100" lon="-7.6403250">
        <ele>446.6</ele>
        <time>2020-10-19T07:43:15Z</time>
      </trkpt>
      <trkpt lat="42.8083170" lon="-7.6403370">
        <ele>446.6</ele>
        <time>2020-10-19T07:43:16Z</time>
      </trkpt>
      <trkpt lat="42.8083250" lon="-7.6403490">
        <ele>446.7</ele>
        <time>2020-10-19T07:43:17Z</time>
      </trkpt>
      <trkpt lat="42.8083320" lon="-7.6403620">
        <ele>446.7</ele>
        <time>2020-10-19T07:43:18Z</time>
      </trkpt>
      <trkpt lat="42.8083390" lon="-7.6403750">
        <ele>446.7</ele>
        <time>2020-10-19T07:43:19Z</time>
      </trkpt>
      <trkpt lat="42.8083450" lon="-7.6403880">
        <ele>446.7</ele>
        <time>2020-10-19T07:43:20Z</time>
      </trkpt>
      <trkpt lat="42.8083510" lon="-7.6404000">
        <ele>446.8</ele>
        <time>2020-10-19T07:43:21Z</time>
      </trkpt>
      <trkpt lat="42.8083580" lon="-7.6404130">
        <ele>446.9</ele>
        <time>2020-10-19T07:43:22Z</time>
      </trkpt>
      <trkpt lat="42.8083650" lon="-7.6404250">
        <ele>446.9</ele>
        <time>2020-10-19T07:43:23Z</time>
      </trkpt>
      <trkpt lat="42.8083730" lon="-7.6404360">
        <ele>447.0</ele>
        <time>2020-10-19T07:43:24Z</time>
      </trkpt>
      <trkpt lat="42.8083800" lon="-7.6404480">
        <ele>447.0</ele>
        <time>2020-10-19T07:43:25Z</time>
      </trkpt>
      <trkpt lat="42.8083860" lon="-7.6404600">
        <ele>447.1</ele>
        <time>2020-10-19T07:43:26Z</time>
      </trkpt>
      <trkpt lat="42.8083930" lon="-7.6404720">
        <ele>447.1</ele>
        <time>2020-10-19T07:43:27Z</time>
      </trkpt>
      <trkpt lat="42.8084000" lon="-7.6404840">
        <ele>447.2</ele>
        <time>2020-10-19T07:43:28Z</time>
      </trkpt>
      <trkpt lat="42.8084070" lon="-7.6404960">
        <ele>447.2</ele>
        <time>2020-10-19T07:43:29Z</time>
      </trkpt>
      <trkpt lat="42.8084150" lon="-7.6405060">
        <ele>447.3</ele>
        <time>2020-10-19T07:43:30Z</time>
      </trkpt>
      <trkpt lat="42.8084220" lon="-7.6405180">
        <ele>447.3</ele>
        <time>2020-10-19T07:43:31Z</time>
      </trkpt>
      <trkpt lat="42.8084280" lon="-7.6405300">
        <ele>447.4</ele>
        <time>2020-10-19T07:43:32Z</time>
      </trkpt>
      <trkpt lat="42.8084360" lon="-7.6405440">
        <ele>447.4</ele>
        <time>2020-10-19T07:43:33Z</time>
      </trkpt>
      <trkpt lat="42.8084430" lon="-7.6405560">
        <ele>447.5</ele>
        <time>2020-10-19T07:43:34Z</time>
      </trkpt>
      <trkpt lat="42.8084490" lon="-7.6405700">
        <ele>447.5</ele>
        <time>2020-10-19T07:43:35Z</time>
      </trkpt>
      <trkpt lat="42.8084560" lon="-7.6405840">
        <ele>447.6</ele>
        <time>2020-10-19T07:43:36Z</time>
      </trkpt>
      <trkpt lat="42.8084630" lon="-7.6405990">
        <ele>447.6</ele>
        <time>2020-10-19T07:43:37Z</time>
      </trkpt>
      <trkpt lat="42.8084700" lon="-7.6406130">
        <ele>447.7</ele>
        <time>2020-10-19T07:43:38Z</time>
      </trkpt>
      <trkpt lat="42.8084770" lon="-7.6406270">
        <ele>447.7</ele>
        <time>2020-10-19T07:43:39Z</time>
      </trkpt>
      <trkpt lat="42.8084850" lon="-7.6406420">
        <ele>447.8</ele>
        <time>2020-10-19T07:43:40Z</time>
      </trkpt>
      <trkpt lat="42.8084930" lon="-7.6406570">
        <ele>447.8</ele>
        <time>2020-10-19T07:43:41Z</time>
      </trkpt>
      <trkpt lat="42.8085000" lon="-7.6406720">
        <ele>447.9</ele>
        <time>2020-10-19T07:43:42Z</time>
      </trkpt>
      <trkpt lat="42.8085070" lon="-7.6406870">
        <ele>448.0</ele>
        <time>2020-10-19T07:43:43Z</time>
      </trkpt>
      <trkpt lat="42.8085140" lon="-7.6407010">
        <ele>448.0</ele>
        <time>2020-10-19T07:43:44Z</time>
      </trkpt>
      <trkpt lat="42.8085220" lon="-7.6407140">
        <ele>448.1</ele>
        <time>2020-10-19T07:43:45Z</time>
      </trkpt>
      <trkpt lat="42.8085300" lon="-7.6407270">
        <ele>448.1</ele>
        <time>2020-10-19T07:43:46Z</time>
      </trkpt>
      <trkpt lat="42.8085380" lon="-7.6407400">
        <ele>448.2</ele>
        <time>2020-10-19T07:43:47Z</time>
      </trkpt>
      <trkpt lat="42.8085450" lon="-7.6407530">
        <ele>448.2</ele>
        <time>2020-10-19T07:43:48Z</time>
      </trkpt>
      <trkpt lat="42.8085530" lon="-7.6407660">
        <ele>448.3</ele>
        <time>2020-10-19T07:43:49Z</time>
      </trkpt>
      <trkpt lat="42.8085600" lon="-7.6407770">
        <ele>448.3</ele>
        <time>2020-10-19T07:43:50Z</time>
      </trkpt>
      <trkpt lat="42.8085670" lon="-7.6407890">
        <ele>448.4</ele>
        <time>2020-10-19T07:43:51Z</time>
      </trkpt>
      <trkpt lat="42.8085730" lon="-7.6408010">
        <ele>448.5</ele>
        <time>2020-10-19T07:43:52Z</time>
      </trkpt>
      <trkpt lat="42.8085800" lon="-7.6408150">
        <ele>448.5</ele>
        <time>2020-10-19T07:43:53Z</time>
      </trkpt>
      <trkpt lat="42.8085870" lon="-7.6408280">
        <ele>448.6</ele>
        <time>2020-10-19T07:43:54Z</time>
      </trkpt>
      <trkpt lat="42.8085950" lon="-7.6408420">
        <ele>448.7</ele>
        <time>2020-10-19T07:43:55Z</time>
      </trkpt>
      <trkpt lat="42.8086020" lon="-7.6408560">
        <ele>448.7</ele>
        <time>2020-10-19T07:43:56Z</time>
      </trkpt>
      <trkpt lat="42.8086090" lon="-7.6408690">
        <ele>448.8</ele>
        <time>2020-10-19T07:43:57Z</time>
      </trkpt>
      <trkpt lat="42.8086160" lon="-7.6408820">
        <ele>448.9</ele>
        <time>2020-10-19T07:43:58Z</time>
      </trkpt>
      <trkpt lat="42.8086230" lon="-7.6408940">
        <ele>448.9</ele>
        <time>2020-10-19T07:43:59Z</time>
      </trkpt>
      <trkpt lat="42.8086290" lon="-7.6409060">
        <ele>449.0</ele>
        <time>2020-10-19T07:44:00Z</time>
      </trkpt>
      <trkpt lat="42.8086370" lon="-7.6409180">
        <ele>449.1</ele>
        <time>2020-10-19T07:44:01Z</time>
      </trkpt>
      <trkpt lat="42.8086450" lon="-7.6409310">
        <ele>449.1</ele>
        <time>2020-10-19T07:44:02Z</time>
      </trkpt>
      <trkpt lat="42.8086540" lon="-7.6409450">
        <ele>449.2</ele>
        <time>2020-10-19T07:44:03Z</time>
      </trkpt>
      <trkpt lat="42.8086620" lon="-7.6409580">
        <ele>449.3</ele>
        <time>2020-10-19T07:44:04Z</time>
      </trkpt>
      <trkpt lat="42.8086710" lon="-7.6409710">
        <ele>449.4</ele>
        <time>2020-10-19T07:44:05Z</time>
      </trkpt>
      <trkpt lat="42.8086790" lon="-7.6409830">
        <ele>449.5</ele>
        <time>2020-10-19T07:44:06Z</time>
      </trkpt>
      <trkpt lat="42.8086870" lon="-7.6409960">
        <ele>449.6</ele>
        <time>2020-10-19T07:44:07Z</time>
      </trkpt>
      <trkpt lat="42.8086950" lon="-7.6410080">
        <ele>449.6</ele>
        <time>2020-10-19T07:44:08Z</time>
      </trkpt>
      <trkpt lat="42.8087030" lon="-7.6410200">
        <ele>449.7</ele>
        <time>2020-10-19T07:44:09Z</time>
      </trkpt>
      <trkpt lat="42.8087110" lon="-7.6410330">
        <ele>449.8</ele>
        <time>2020-10-19T07:44:10Z</time>
      </trkpt>
      <trkpt lat="42.8087190" lon="-7.6410450">
        <ele>449.9</ele>
        <time>2020-10-19T07:44:11Z</time>
      </trkpt>
      <trkpt lat="42.8087270" lon="-7.6410580">
        <ele>450.0</ele>
        <time>2020-10-19T07:44:12Z</time>
      </trkpt>
      <trkpt lat="42.8087350" lon="-7.6410710">
        <ele>450.1</ele>
        <time>2020-10-19T07:44:13Z</time>
      </trkpt>
      <trkpt lat="42.8087430" lon="-7.6410840">
        <ele>450.2</ele>
        <time>2020-10-19T07:44:14Z</time>
      </trkpt>
      <trkpt lat="42.8087510" lon="-7.6410960">
        <ele>450.3</ele>
        <time>2020-10-19T07:44:15Z</time>
      </trkpt>
      <trkpt lat="42.8087590" lon="-7.6411080">
        <ele>450.4</ele>
        <time>2020-10-19T07:44:16Z</time>
      </trkpt>
      <trkpt lat="42.8087670" lon="-7.6411200">
        <ele>450.5</ele>
        <time>2020-10-19T07:44:17Z</time>
      </trkpt>
      <trkpt lat="42.8087760" lon="-7.6411320">
        <ele>450.6</ele>
        <time>2020-10-19T07:44:18Z</time>
      </trkpt>
      <trkpt lat="42.8087840" lon="-7.6411440">
        <ele>450.7</ele>
        <time>2020-10-19T07:44:19Z</time>
      </trkpt>
      <trkpt lat="42.8087920" lon="-7.6411550">
        <ele>450.8</ele>
        <time>2020-10-19T07:44:20Z</time>
      </trkpt>
      <trkpt lat="42.8088000" lon="-7.6411680">
        <ele>450.9</ele>
        <time>2020-10-19T07:44:21Z</time>
      </trkpt>
      <trkpt lat="42.8088070" lon="-7.6411810">
        <ele>451.1</ele>
        <time>2020-10-19T07:44:22Z</time>
      </trkpt>
      <trkpt lat="42.8088160" lon="-7.6411940">
        <ele>451.2</ele>
        <time>2020-10-19T07:44:23Z</time>
      </trkpt>
      <trkpt lat="42.8088240" lon="-7.6412070">
        <ele>451.3</ele>
        <time>2020-10-19T07:44:24Z</time>
      </trkpt>
      <trkpt lat="42.8088310" lon="-7.6412190">
        <ele>451.4</ele>
        <time>2020-10-19T07:44:25Z</time>
      </trkpt>
      <trkpt lat="42.8088380" lon="-7.6412300">
        <ele>451.5</ele>
        <time>2020-10-19T07:44:26Z</time>
      </trkpt>
      <trkpt lat="42.8088450" lon="-7.6412420">
        <ele>451.6</ele>
        <time>2020-10-19T07:44:27Z</time>
      </trkpt>
      <trkpt lat="42.8088530" lon="-7.6412540">
        <ele>451.7</ele>
        <time>2020-10-19T07:44:28Z</time>
      </trkpt>
      <trkpt lat="42.8088600" lon="-7.6412660">
        <ele>451.8</ele>
        <time>2020-10-19T07:44:29Z</time>
      </trkpt>
      <trkpt lat="42.8088680" lon="-7.6412790">
        <ele>452.0</ele>
        <time>2020-10-19T07:44:30Z</time>
      </trkpt>
      <trkpt lat="42.8088760" lon="-7.6412920">
        <ele>452.1</ele>
        <time>2020-10-19T07:44:31Z</time>
      </trkpt>
      <trkpt lat="42.8088840" lon="-7.6413040">
        <ele>452.2</ele>
        <time>2020-10-19T07:44:32Z</time>
      </trkpt>
      <trkpt lat="42.8088920" lon="-7.6413170">
        <ele>452.3</ele>
        <time>2020-10-19T07:44:33Z</time>
      </trkpt>
      <trkpt lat="42.8089010" lon="-7.6413310">
        <ele>452.5</ele>
        <time>2020-10-19T07:44:34Z</time>
      </trkpt>
      <trkpt lat="42.8089080" lon="-7.6413440">
        <ele>452.6</ele>
        <time>2020-10-19T07:44:35Z</time>
      </trkpt>
      <trkpt lat="42.8089160" lon="-7.6413570">
        <ele>452.7</ele>
        <time>2020-10-19T07:44:36Z</time>
      </trkpt>
      <trkpt lat="42.8089220" lon="-7.6413690">
        <ele>452.8</ele>
        <time>2020-10-19T07:44:37Z</time>
      </trkpt>
      <trkpt lat="42.8089300" lon="-7.6413800">
        <ele>452.9</ele>
        <time>2020-10-19T07:44:38Z</time>
      </trkpt>
      <trkpt lat="42.8089380" lon="-7.6413900">
        <ele>453.0</ele>
        <time>2020-10-19T07:44:39Z</time>
      </trkpt>
      <trkpt lat="42.8089460" lon="-7.6414020">
        <ele>453.2</ele>
        <time>2020-10-19T07:44:40Z</time>
      </trkpt>
      <trkpt lat="42.8089540" lon="-7.6414130">
        <ele>453.3</ele>
        <time>2020-10-19T07:44:41Z</time>
      </trkpt>
      <trkpt lat="42.8089620" lon="-7.6414240">
        <ele>453.4</ele>
        <time>2020-10-19T07:44:42Z</time>
      </trkpt>
      <trkpt lat="42.8089690" lon="-7.6414350">
        <ele>453.5</ele>
        <time>2020-10-19T07:44:43Z</time>
      </trkpt>
      <trkpt lat="42.8089760" lon="-7.6414460">
        <ele>453.6</ele>
        <time>2020-10-19T07:44:44Z</time>
      </trkpt>
      <trkpt lat="42.8089830" lon="-7.6414580">
        <ele>453.7</ele>
        <time>2020-10-19T07:44:45Z</time>
      </trkpt>
      <trkpt lat="42.8089890" lon="-7.6414710">
        <ele>453.8</ele>
        <time>2020-10-19T07:44:46Z</time>
      </trkpt>
      <trkpt lat="42.8089970" lon="-7.6414840">
        <ele>453.9</ele>
        <time>2020-10-19T07:44:47Z</time>
      </trkpt>
      <trkpt lat="42.8090050" lon="-7.6414970">
        <ele>454.0</ele>
        <time>2020-10-19T07:44:48Z</time>
      </trkpt>
      <trkpt lat="42.8090130" lon="-7.6415090">
        <ele>454.1</ele>
        <time>2020-10-19T07:44:49Z</time>
      </trkpt>
      <trkpt lat="42.8090210" lon="-7.6415220">
        <ele>454.2</ele>
        <time>2020-10-19T07:44:50Z</time>
      </trkpt>
      <trkpt lat="42.8090290" lon="-7.6415340">
        <ele>454.3</ele>
        <time>2020-10-19T07:44:51Z</time>
      </trkpt>
      <trkpt lat="42.8090370" lon="-7.6415470">
        <ele>454.4</ele>
        <time>2020-10-19T07:44:52Z</time>
      </trkpt>
      <trkpt lat="42.8090450" lon="-7.6415600">
        <ele>454.5</ele>
        <time>2020-10-19T07:44:53Z</time>
      </trkpt>
      <trkpt lat="42.8090530" lon="-7.6415730">
        <ele>454.6</ele>
        <time>2020-10-19T07:44:54Z</time>
      </trkpt>
      <trkpt lat="42.8090600" lon="-7.6415860">
        <ele>454.6</ele>
        <time>2020-10-19T07:44:55Z</time>
      </trkpt>
      <trkpt lat="42.8090680" lon="-7.6416000">
        <ele>454.7</ele>
        <time>2020-10-19T07:44:56Z</time>
      </trkpt>
      <trkpt lat="42.8090760" lon="-7.6416130">
        <ele>454.8</ele>
        <time>2020-10-19T07:44:57Z</time>
      </trkpt>
      <trkpt lat="42.8090850" lon="-7.6416280">
        <ele>454.9</ele>
        <time>2020-10-19T07:44:58Z</time>
      </trkpt>
      <trkpt lat="42.8090950" lon="-7.6416410">
        <ele>455.0</ele>
        <time>2020-10-19T07:44:59Z</time>
      </trkpt>
      <trkpt lat="42.8091040" lon="-7.6416530">
        <ele>455.1</ele>
        <time>2020-10-19T07:45:00Z</time>
      </trkpt>
      <trkpt lat="42.8091130" lon="-7.6416660">
        <ele>455.1</ele>
        <time>2020-10-19T07:45:01Z</time>
      </trkpt>
      <trkpt lat="42.8091210" lon="-7.6416790">
        <ele>455.2</ele>
        <time>2020-10-19T07:45:02Z</time>
      </trkpt>
      <trkpt lat="42.8091290" lon="-7.6416930">
        <ele>455.3</ele>
        <time>2020-10-19T07:45:03Z</time>
      </trkpt>
      <trkpt lat="42.8091390" lon="-7.6417070">
        <ele>455.3</ele>
        <time>2020-10-19T07:45:04Z</time>
      </trkpt>
      <trkpt lat="42.8091480" lon="-7.6417210">
        <ele>455.4</ele>
        <time>2020-10-19T07:45:05Z</time>
      </trkpt>
      <trkpt lat="42.8091580" lon="-7.6417350">
        <ele>455.5</ele>
        <time>2020-10-19T07:45:06Z</time>
      </trkpt>
      <trkpt lat="42.8091680" lon="-7.6417490">
        <ele>455.5</ele>
        <time>2020-10-19T07:45:07Z</time>
      </trkpt>
      <trkpt lat="42.8091770" lon="-7.6417620">
        <ele>455.6</ele>
        <time>2020-10-19T07:45:08Z</time>
      </trkpt>
      <trkpt lat="42.8091850" lon="-7.6417750">
        <ele>455.6</ele>
        <time>2020-10-19T07:45:09Z</time>
      </trkpt>
      <trkpt lat="42.8091940" lon="-7.6417890">
        <ele>455.7</ele>
        <time>2020-10-19T07:45:10Z</time>
      </trkpt>
      <trkpt lat="42.8092030" lon="-7.6418020">
        <ele>455.7</ele>
        <time>2020-10-19T07:45:11Z</time>
      </trkpt>
      <trkpt lat="42.8092120" lon="-7.6418160">
        <ele>455.7</ele>
        <time>2020-10-19T07:45:12Z</time>
      </trkpt>
      <trkpt lat="42.8092210" lon="-7.6418290">
        <ele>455.8</ele>
        <time>2020-10-19T07:45:13Z</time>
      </trkpt>
      <trkpt lat="42.8092290" lon="-7.6418420">
        <ele>455.8</ele>
        <time>2020-10-19T07:45:14Z</time>
      </trkpt>
      <trkpt lat="42.8092380" lon="-7.6418540">
        <ele>455.8</ele>
        <time>2020-10-19T07:45:15Z</time>
      </trkpt>
      <trkpt lat="42.8092460" lon="-7.6418680">
        <ele>455.9</ele>
        <time>2020-10-19T07:45:16Z</time>
      </trkpt>
      <trkpt lat="42.8092540" lon="-7.6418800">
        <ele>455.9</ele>
        <time>2020-10-19T07:45:17Z</time>
      </trkpt>
      <trkpt lat="42.8092620" lon="-7.6418940">
        <ele>455.9</ele>
        <time>2020-10-19T07:45:18Z</time>
      </trkpt>
      <trkpt lat="42.8092690" lon="-7.6419070">
        <ele>455.9</ele>
        <time>2020-10-19T07:45:19Z</time>
      </trkpt>
      <trkpt lat="42.8092790" lon="-7.6419220">
        <ele>456.0</ele>
        <time>2020-10-19T07:45:20Z</time>
      </trkpt>
      <trkpt lat="42.8092880" lon="-7.6419360">
        <ele>456.0</ele>
        <time>2020-10-19T07:45:21Z</time>
      </trkpt>
      <trkpt lat="42.8092970" lon="-7.6419500">
        <ele>456.0</ele>
        <time>2020-10-19T07:45:22Z</time>
      </trkpt>
      <trkpt lat="42.8093050" lon="-7.6419640">
        <ele>456.0</ele>
        <time>2020-10-19T07:45:23Z</time>
      </trkpt>
      <trkpt lat="42.8093140" lon="-7.6419780">
        <ele>456.0</ele>
        <time>2020-10-19T07:45:24Z</time>
      </trkpt>
      <trkpt lat="42.8093240" lon="-7.6419910">
        <ele>456.1</ele>
        <time>2020-10-19T07:45:25Z</time>
      </trkpt>
      <trkpt lat="42.8093320" lon="-7.6420040">
        <ele>456.1</ele>
        <time>2020-10-19T07:45:26Z</time>
      </trkpt>
      <trkpt lat="42.8093400" lon="-7.6420160">
        <ele>456.1</ele>
        <time>2020-10-19T07:45:27Z</time>
      </trkpt>
      <trkpt lat="42.8093480" lon="-7.6420290">
        <ele>456.1</ele>
        <time>2020-10-19T07:45:28Z</time>
      </trkpt>
      <trkpt lat="42.8093570" lon="-7.6420430">
        <ele>456.1</ele>
        <time>2020-10-19T07:45:29Z</time>
      </trkpt>
      <trkpt lat="42.8093660" lon="-7.6420560">
        <ele>456.1</ele>
        <time>2020-10-19T07:45:30Z</time>
      </trkpt>
      <trkpt lat="42.8093740" lon="-7.6420700">
        <ele>456.1</ele>
        <time>2020-10-19T07:45:31Z</time>
      </trkpt>
      <trkpt lat="42.8093810" lon="-7.6420840">
        <ele>456.1</ele>
        <time>2020-10-19T07:45:32Z</time>
      </trkpt>
      <trkpt lat="42.8093880" lon="-7.6420990">
        <ele>456.2</ele>
        <time>2020-10-19T07:45:33Z</time>
      </trkpt>
      <trkpt lat="42.8093950" lon="-7.6421130">
        <ele>456.2</ele>
        <time>2020-10-19T07:45:34Z</time>
      </trkpt>
      <trkpt lat="42.8094020" lon="-7.6421280">
        <ele>456.2</ele>
        <time>2020-10-19T07:45:35Z</time>
      </trkpt>
      <trkpt lat="42.8094090" lon="-7.6421410">
        <ele>456.2</ele>
        <time>2020-10-19T07:45:36Z</time>
      </trkpt>
      <trkpt lat="42.8094170" lon="-7.6421550">
        <ele>456.2</ele>
        <time>2020-10-19T07:45:37Z</time>
      </trkpt>
      <trkpt lat="42.8094250" lon="-7.6421690">
        <ele>456.2</ele>
        <time>2020-10-19T07:45:38Z</time>
      </trkpt>
      <trkpt lat="42.8094330" lon="-7.6421840">
        <ele>456.3</ele>
        <time>2020-10-19T07:45:39Z</time>
      </trkpt>
      <trkpt lat="42.8094420" lon="-7.6421990">
        <ele>456.3</ele>
        <time>2020-10-19T07:45:40Z</time>
      </trkpt>
      <trkpt lat="42.8094500" lon="-7.6422140">
        <ele>456.3</ele>
        <time>2020-10-19T07:45:41Z</time>
      </trkpt>
      <trkpt lat="42.8094580" lon="-7.6422300">
        <ele>456.3</ele>
        <time>2020-10-19T07:45:42Z</time>
      </trkpt>
      <trkpt lat="42.8094660" lon="-7.6422460">
        <ele>456.3</ele>
        <time>2020-10-19T07:45:43Z</time>
      </trkpt>
      <trkpt lat="42.8094730" lon="-7.6422610">
        <ele>456.3</ele>
        <time>2020-10-19T07:45:44Z</time>
      </trkpt>
      <trkpt lat="42.8094810" lon="-7.6422760">
        <ele>456.3</ele>
        <time>2020-10-19T07:45:45Z</time>
      </trkpt>
      <trkpt lat="42.8094890" lon="-7.6422910">
        <ele>456.3</ele>
        <time>2020-10-19T07:45:46Z</time>
      </trkpt>
      <trkpt lat="42.8094970" lon="-7.6423050">
        <ele>456.3</ele>
        <time>2020-10-19T07:45:47Z</time>
      </trkpt>
      <trkpt lat="42.8095050" lon="-7.6423190">
        <ele>456.3</ele>
        <time>2020-10-19T07:45:48Z</time>
      </trkpt>
      <trkpt lat="42.8095130" lon="-7.6423330">
        <ele>456.3</ele>
        <time>2020-10-19T07:45:49Z</time>
      </trkpt>
      <trkpt lat="42.8095210" lon="-7.6423470">
        <ele>456.3</ele>
        <time>2020-10-19T07:45:50Z</time>
      </trkpt>
      <trkpt lat="42.8095300" lon="-7.6423610">
        <ele>456.3</ele>
        <time>2020-10-19T07:45:51Z</time>
      </trkpt>
      <trkpt lat="42.8095380" lon="-7.6423740">
        <ele>456.3</ele>
        <time>2020-10-19T07:45:52Z</time>
      </trkpt>
      <trkpt lat="42.8095450" lon="-7.6423880">
        <ele>456.3</ele>
        <time>2020-10-19T07:45:53Z</time>
      </trkpt>
      <trkpt lat="42.8095540" lon="-7.6424020">
        <ele>456.3</ele>
        <time>2020-10-19T07:45:54Z</time>
      </trkpt>
      <trkpt lat="42.8095620" lon="-7.6424150">
        <ele>456.3</ele>
        <time>2020-10-19T07:45:55Z</time>
      </trkpt>
      <trkpt lat="42.8095710" lon="-7.6424280">
        <ele>456.3</ele>
        <time>2020-10-19T07:45:56Z</time>
      </trkpt>
      <trkpt lat="42.8095790" lon="-7.6424420">
        <ele>456.3</ele>
        <time>2020-10-19T07:45:57Z</time>
      </trkpt>
      <trkpt lat="42.8095870" lon="-7.6424570">
        <ele>456.3</ele>
        <time>2020-10-19T07:45:58Z</time>
      </trkpt>
      <trkpt lat="42.8095950" lon="-7.6424710">
        <ele>456.3</ele>
        <time>2020-10-19T07:45:59Z</time>
      </trkpt>
      <trkpt lat="42.8096030" lon="-7.6424850">
        <ele>456.3</ele>
        <time>2020-10-19T07:46:00Z</time>
      </trkpt>
      <trkpt lat="42.8096110" lon="-7.6424990">
        <ele>456.3</ele>
        <time>2020-10-19T07:46:01Z</time>
      </trkpt>
      <trkpt lat="42.8096190" lon="-7.6425140">
        <ele>456.3</ele>
        <time>2020-10-19T07:46:02Z</time>
      </trkpt>
      <trkpt lat="42.8096270" lon="-7.6425280">
        <ele>456.3</ele>
        <time>2020-10-19T07:46:03Z</time>
      </trkpt>
      <trkpt lat="42.8096350" lon="-7.6425410">
        <ele>456.3</ele>
        <time>2020-10-19T07:46:04Z</time>
      </trkpt>
      <trkpt lat="42.8096430" lon="-7.6425550">
        <ele>456.3</ele>
        <time>2020-10-19T07:46:05Z</time>
      </trkpt>
      <trkpt lat="42.8096520" lon="-7.6425700">
        <ele>456.3</ele>
        <time>2020-10-19T07:46:06Z</time>
      </trkpt>
      <trkpt lat="42.8096610" lon="-7.6425840">
        <ele>456.3</ele>
        <time>2020-10-19T07:46:07Z</time>
      </trkpt>
      <trkpt lat="42.8096690" lon="-7.6425990">
        <ele>456.3</ele>
        <time>2020-10-19T07:46:08Z</time>
      </trkpt>
      <trkpt lat="42.8096760" lon="-7.6426140">
        <ele>456.3</ele>
        <time>2020-10-19T07:46:09Z</time>
      </trkpt>
      <trkpt lat="42.8096850" lon="-7.6426270">
        <ele>456.3</ele>
        <time>2020-10-19T07:46:10Z</time>
      </trkpt>
      <trkpt lat="42.8096920" lon="-7.6426410">
        <ele>456.3</ele>
        <time>2020-10-19T07:46:11Z</time>
      </trkpt>
      <trkpt lat="42.8097010" lon="-7.6426540">
        <ele>456.3</ele>
        <time>2020-10-19T07:46:12Z</time>
      </trkpt>
      <trkpt lat="42.8097080" lon="-7.6426680">
        <ele>456.3</ele>
        <time>2020-10-19T07:46:13Z</time>
      </trkpt>
      <trkpt lat="42.8097150" lon="-7.6426820">
        <ele>456.3</ele>
        <time>2020-10-19T07:46:14Z</time>
      </trkpt>
      <trkpt lat="42.8097220" lon="-7.6426960">
        <ele>456.3</ele>
        <time>2020-10-19T07:46:15Z</time>
      </trkpt>
      <trkpt lat="42.8097290" lon="-7.6427090">
        <ele>456.3</ele>
        <time>2020-10-19T07:46:16Z</time>
      </trkpt>
      <trkpt lat="42.8097350" lon="-7.6427220">
        <ele>456.3</ele>
        <time>2020-10-19T07:46:17Z</time>
      </trkpt>
      <trkpt lat="42.8097440" lon="-7.6427350">
        <ele>456.2</ele>
        <time>2020-10-19T07:46:18Z</time>
      </trkpt>
      <trkpt lat="42.8097530" lon="-7.6427480">
        <ele>456.2</ele>
        <time>2020-10-19T07:46:19Z</time>
      </trkpt>
      <trkpt lat="42.8097620" lon="-7.6427610">
        <ele>456.2</ele>
        <time>2020-10-19T07:46:20Z</time>
      </trkpt>
      <trkpt lat="42.8097700" lon="-7.6427730">
        <ele>456.2</ele>
        <time>2020-10-19T07:46:21Z</time>
      </trkpt>
      <trkpt lat="42.8097790" lon="-7.6427840">
        <ele>456.2</ele>
        <time>2020-10-19T07:46:22Z</time>
      </trkpt>
      <trkpt lat="42.8097880" lon="-7.6427950">
        <ele>456.2</ele>
        <time>2020-10-19T07:46:23Z</time>
      </trkpt>
      <trkpt lat="42.8097960" lon="-7.6428070">
        <ele>456.2</ele>
        <time>2020-10-19T07:46:24Z</time>
      </trkpt>
      <trkpt lat="42.8098040" lon="-7.6428220">
        <ele>456.2</ele>
        <time>2020-10-19T07:46:25Z</time>
      </trkpt>
      <trkpt lat="42.8098130" lon="-7.6428350">
        <ele>456.2</ele>
        <time>2020-10-19T07:46:26Z</time>
      </trkpt>
      <trkpt lat="42.8098220" lon="-7.6428490">
        <ele>456.2</ele>
        <time>2020-10-19T07:46:27Z</time>
      </trkpt>
      <trkpt lat="42.8098300" lon="-7.6428620">
        <ele>456.2</ele>
        <time>2020-10-19T07:46:28Z</time>
      </trkpt>
      <trkpt lat="42.8098370" lon="-7.6428760">
        <ele>456.1</ele>
        <time>2020-10-19T07:46:29Z</time>
      </trkpt>
      <trkpt lat="42.8098440" lon="-7.6428910">
        <ele>456.1</ele>
        <time>2020-10-19T07:46:30Z</time>
      </trkpt>
      <trkpt lat="42.8098500" lon="-7.6429050">
        <ele>456.1</ele>
        <time>2020-10-19T07:46:31Z</time>
      </trkpt>
      <trkpt lat="42.8098580" lon="-7.6429180">
        <ele>456.1</ele>
        <time>2020-10-19T07:46:32Z</time>
      </trkpt>
      <trkpt lat="42.8098660" lon="-7.6429300">
        <ele>456.1</ele>
        <time>2020-10-19T07:46:33Z</time>
      </trkpt>
      <trkpt lat="42.8098740" lon="-7.6429430">
        <ele>456.1</ele>
        <time>2020-10-19T07:46:34Z</time>
      </trkpt>
      <trkpt lat="42.8098820" lon="-7.6429550">
        <ele>456.1</ele>
        <time>2020-10-19T07:46:35Z</time>
      </trkpt>
      <trkpt lat="42.8098910" lon="-7.6429700">
        <ele>456.1</ele>
        <time>2020-10-19T07:46:36Z</time>
      </trkpt>
      <trkpt lat="42.8099000" lon="-7.6429840">
        <ele>456.1</ele>
        <time>2020-10-19T07:46:37Z</time>
      </trkpt>
      <trkpt lat="42.8099080" lon="-7.6429990">
        <ele>456.1</ele>
        <time>2020-10-19T07:46:38Z</time>
      </trkpt>
      <trkpt lat="42.8099160" lon="-7.6430130">
        <ele>456.0</ele>
        <time>2020-10-19T07:46:39Z</time>
      </trkpt>
      <trkpt lat="42.8099250" lon="-7.6430250">
        <ele>456.0</ele>
        <time>2020-10-19T07:46:40Z</time>
      </trkpt>
      <trkpt lat="42.8099330" lon="-7.6430390">
        <ele>456.0</ele>
        <time>2020-10-19T07:46:41Z</time>
      </trkpt>
      <trkpt lat="42.8099400" lon="-7.6430520">
        <ele>456.0</ele>
        <time>2020-10-19T07:46:42Z</time>
      </trkpt>
      <trkpt lat="42.8099470" lon="-7.6430660">
        <ele>456.0</ele>
        <time>2020-10-19T07:46:43Z</time>
      </trkpt>
      <trkpt lat="42.8099530" lon="-7.6430790">
        <ele>456.0</ele>
        <time>2020-10-19T07:46:44Z</time>
      </trkpt>
      <trkpt lat="42.8099590" lon="-7.6430920">
        <ele>456.0</ele>
        <time>2020-10-19T07:46:45Z</time>
      </trkpt>
      <trkpt lat="42.8099660" lon="-7.6431030">
        <ele>455.9</ele>
        <time>2020-10-19T07:46:46Z</time>
      </trkpt>
      <trkpt lat="42.8099740" lon="-7.6431150">
        <ele>455.9</ele>
        <time>2020-10-19T07:46:47Z</time>
      </trkpt>
      <trkpt lat="42.8099830" lon="-7.6431280">
        <ele>455.9</ele>
        <time>2020-10-19T07:46:48Z</time>
      </trkpt>
      <trkpt lat="42.8099910" lon="-7.6431400">
        <ele>455.9</ele>
        <time>2020-10-19T07:46:49Z</time>
      </trkpt>
      <trkpt lat="42.8099980" lon="-7.6431540">
        <ele>455.9</ele>
        <time>2020-10-19T07:46:50Z</time>
      </trkpt>
      <trkpt lat="42.8100050" lon="-7.6431660">
        <ele>455.9</ele>
        <time>2020-10-19T07:46:51Z</time>
      </trkpt>
      <trkpt lat="42.8100110" lon="-7.6431790">
        <ele>455.8</ele>
        <time>2020-10-19T07:46:52Z</time>
      </trkpt>
      <trkpt lat="42.8100170" lon="-7.6431920">
        <ele>455.8</ele>
        <time>2020-10-19T07:46:53Z</time>
      </trkpt>
      <trkpt lat="42.8100250" lon="-7.6432060">
        <ele>455.8</ele>
        <time>2020-10-19T07:46:54Z</time>
      </trkpt>
      <trkpt lat="42.8100330" lon="-7.6432200">
        <ele>455.8</ele>
        <time>2020-10-19T07:46:55Z</time>
      </trkpt>
      <trkpt lat="42.8100410" lon="-7.6432350">
        <ele>455.7</ele>
        <time>2020-10-19T07:46:56Z</time>
      </trkpt>
      <trkpt lat="42.8100490" lon="-7.6432490">
        <ele>455.7</ele>
        <time>2020-10-19T07:46:57Z</time>
      </trkpt>
      <trkpt lat="42.8100560" lon="-7.6432640">
        <ele>455.7</ele>
        <time>2020-10-19T07:46:58Z</time>
      </trkpt>
      <trkpt lat="42.8100640" lon="-7.6432780">
        <ele>455.7</ele>
        <time>2020-10-19T07:46:59Z</time>
      </trkpt>
      <trkpt lat="42.8100710" lon="-7.6432920">
        <ele>455.6</ele>
        <time>2020-10-19T07:47:00Z</time>
      </trkpt>
      <trkpt lat="42.8100780" lon="-7.6433030">
        <ele>455.6</ele>
        <time>2020-10-19T07:47:01Z</time>
      </trkpt>
      <trkpt lat="42.8100840" lon="-7.6433140">
        <ele>455.6</ele>
        <time>2020-10-19T07:47:02Z</time>
      </trkpt>
      <trkpt lat="42.8100920" lon="-7.6433230">
        <ele>455.6</ele>
        <time>2020-10-19T07:47:03Z</time>
      </trkpt>
      <trkpt lat="42.8100990" lon="-7.6433320">
        <ele>455.6</ele>
        <time>2020-10-19T07:47:04Z</time>
      </trkpt>
      <trkpt lat="42.8101060" lon="-7.6433420">
        <ele>455.5</ele>
        <time>2020-10-19T07:47:05Z</time>
      </trkpt>
      <trkpt lat="42.8101130" lon="-7.6433530">
        <ele>455.5</ele>
        <time>2020-10-19T07:47:06Z</time>
      </trkpt>
      <trkpt lat="42.8101200" lon="-7.6433640">
        <ele>455.5</ele>
        <time>2020-10-19T07:47:07Z</time>
      </trkpt>
      <trkpt lat="42.8101270" lon="-7.6433760">
        <ele>455.5</ele>
        <time>2020-10-19T07:47:08Z</time>
      </trkpt>
      <trkpt lat="42.8101350" lon="-7.6433880">
        <ele>455.4</ele>
        <time>2020-10-19T07:47:09Z</time>
      </trkpt>
      <trkpt lat="42.8101430" lon="-7.6434010">
        <ele>455.4</ele>
        <time>2020-10-19T07:47:10Z</time>
      </trkpt>
      <trkpt lat="42.8101520" lon="-7.6434150">
        <ele>455.4</ele>
        <time>2020-10-19T07:47:11Z</time>
      </trkpt>
      <trkpt lat="42.8101600" lon="-7.6434280">
        <ele>455.4</ele>
        <time>2020-10-19T07:47:12Z</time>
      </trkpt>
      <trkpt lat="42.8101670" lon="-7.6434420">
        <ele>455.3</ele>
        <time>2020-10-19T07:47:13Z</time>
      </trkpt>
      <trkpt lat="42.8101730" lon="-7.6434560">
        <ele>455.3</ele>
        <time>2020-10-19T07:47:14Z</time>
      </trkpt>
      <trkpt lat="42.8101800" lon="-7.6434680">
        <ele>455.3</ele>
        <time>2020-10-19T07:47:15Z</time>
      </trkpt>
      <trkpt lat="42.8101860" lon="-7.6434800">
        <ele>455.2</ele>
        <time>2020-10-19T07:47:16Z</time>
      </trkpt>
      <trkpt lat="42.8101930" lon="-7.6434920">
        <ele>455.2</ele>
        <time>2020-10-19T07:47:17Z</time>
      </trkpt>
      <trkpt lat="42.8102000" lon="-7.6435050">
        <ele>455.2</ele>
        <time>2020-10-19T07:47:18Z</time>
      </trkpt>
      <trkpt lat="42.8102080" lon="-7.6435170">
        <ele>455.1</ele>
        <time>2020-10-19T07:47:19Z</time>
      </trkpt>
      <trkpt lat="42.8102160" lon="-7.6435300">
        <ele>455.1</ele>
        <time>2020-10-19T07:47:20Z</time>
      </trkpt>
      <trkpt lat="42.8102240" lon="-7.6435420">
        <ele>455.0</ele>
        <time>2020-10-19T07:47:21Z</time>
      </trkpt>
      <trkpt lat="42.8102310" lon="-7.6435550">
        <ele>455.0</ele>
        <time>2020-10-19T07:47:22Z</time>
      </trkpt>
      <trkpt lat="42.8102380" lon="-7.6435680">
        <ele>455.0</ele>
        <time>2020-10-19T07:47:23Z</time>
      </trkpt>
      <trkpt lat="42.8102440" lon="-7.6435810">
        <ele>454.9</ele>
        <time>2020-10-19T07:47:24Z</time>
      </trkpt>
      <trkpt lat="42.8102500" lon="-7.6435940">
        <ele>454.9</ele>
        <time>2020-10-19T07:47:25Z</time>
      </trkpt>
      <trkpt lat="42.8102570" lon="-7.6436070">
        <ele>454.8</ele>
        <time>2020-10-19T07:47:26Z</time>
      </trkpt>
      <trkpt lat="42.8102650" lon="-7.6436210">
        <ele>454.8</ele>
        <time>2020-10-19T07:47:27Z</time>
      </trkpt>
      <trkpt lat="42.8102730" lon="-7.6436350">
        <ele>454.8</ele>
        <time>2020-10-19T07:47:28Z</time>
      </trkpt>
      <trkpt lat="42.8102810" lon="-7.6436500">
        <ele>454.7</ele>
        <time>2020-10-19T07:47:29Z</time>
      </trkpt>
      <trkpt lat="42.8102900" lon="-7.6436660">
        <ele>454.7</ele>
        <time>2020-10-19T07:47:30Z</time>
      </trkpt>
      <trkpt lat="42.8102980" lon="-7.6436800">
        <ele>454.6</ele>
        <time>2020-10-19T07:47:31Z</time>
      </trkpt>
      <trkpt lat="42.8103060" lon="-7.6436950">
        <ele>454.6</ele>
        <time>2020-10-19T07:47:32Z</time>
      </trkpt>
      <trkpt lat="42.8103130" lon="-7.6437080">
        <ele>454.5</ele>
        <time>2020-10-19T07:47:33Z</time>
      </trkpt>
      <trkpt lat="42.8103210" lon="-7.6437210">
        <ele>454.5</ele>
        <time>2020-10-19T07:47:34Z</time>
      </trkpt>
      <trkpt lat="42.8103300" lon="-7.6437330">
        <ele>454.4</ele>
        <time>2020-10-19T07:47:35Z</time>
      </trkpt>
      <trkpt lat="42.8103360" lon="-7.6437450">
        <ele>454.4</ele>
        <time>2020-10-19T07:47:36Z</time>
      </trkpt>
      <trkpt lat="42.8103420" lon="-7.6437560">
        <ele>454.4</ele>
        <time>2020-10-19T07:47:37Z</time>
      </trkpt>
      <trkpt lat="42.8103470" lon="-7.6437670">
        <ele>454.3</ele>
        <time>2020-10-19T07:47:38Z</time>
      </trkpt>
      <trkpt lat="42.8103540" lon="-7.6437800">
        <ele>454.3</ele>
        <time>2020-10-19T07:47:39Z</time>
      </trkpt>
      <trkpt lat="42.8103610" lon="-7.6437930">
        <ele>454.3</ele>
        <time>2020-10-19T07:47:40Z</time>
      </trkpt>
      <trkpt lat="42.8103690" lon="-7.6438070">
        <ele>454.2</ele>
        <time>2020-10-19T07:47:41Z</time>
      </trkpt>
      <trkpt lat="42.8103750" lon="-7.6438210">
        <ele>454.2</ele>
        <time>2020-10-19T07:47:42Z</time>
      </trkpt>
      <trkpt lat="42.8103830" lon="-7.6438340">
        <ele>454.1</ele>
        <time>2020-10-19T07:47:43Z</time>
      </trkpt>
      <trkpt lat="42.8103900" lon="-7.6438470">
        <ele>454.1</ele>
        <time>2020-10-19T07:47:44Z</time>
      </trkpt>
      <trkpt lat="42.8103980" lon="-7.6438580">
        <ele>454.1</ele>
        <time>2020-10-19T07:47:45Z</time>
      </trkpt>
      <trkpt lat="42.8104020" lon="-7.6438710">
        <ele>454.0</ele>
        <time>2020-10-19T07:47:46Z</time>
      </trkpt>
      <trkpt lat="42.8104060" lon="-7.6438840">
        <ele>454.0</ele>
        <time>2020-10-19T07:47:47Z</time>
      </trkpt>
      <trkpt lat="42.8104100" lon="-7.6438970">
        <ele>454.0</ele>
        <time>2020-10-19T07:47:48Z</time>
      </trkpt>
      <trkpt lat="42.8104160" lon="-7.6439100">
        <ele>453.9</ele>
        <time>2020-10-19T07:47:49Z</time>
      </trkpt>
      <trkpt lat="42.8104240" lon="-7.6439230">
        <ele>453.9</ele>
        <time>2020-10-19T07:47:50Z</time>
      </trkpt>
      <trkpt lat="42.8104320" lon="-7.6439360">
        <ele>453.8</ele>
        <time>2020-10-19T07:47:51Z</time>
      </trkpt>
      <trkpt lat="42.8104400" lon="-7.6439500">
        <ele>453.8</ele>
        <time>2020-10-19T07:47:52Z</time>
      </trkpt>
      <trkpt lat="42.8104490" lon="-7.6439640">
        <ele>453.8</ele>
        <time>2020-10-19T07:47:53Z</time>
      </trkpt>
      <trkpt lat="42.8104570" lon="-7.6439780">
        <ele>453.7</ele>
        <time>2020-10-19T07:47:54Z</time>
      </trkpt>
      <trkpt lat="42.8104650" lon="-7.6439910">
        <ele>453.7</ele>
        <time>2020-10-19T07:47:55Z</time>
      </trkpt>
      <trkpt lat="42.8104720" lon="-7.6440050">
        <ele>453.6</ele>
        <time>2020-10-19T07:47:56Z</time>
      </trkpt>
      <trkpt lat="42.8104800" lon="-7.6440180">
        <ele>453.6</ele>
        <time>2020-10-19T07:47:57Z</time>
      </trkpt>
      <trkpt lat="42.8104880" lon="-7.6440320">
        <ele>453.6</ele>
        <time>2020-10-19T07:47:58Z</time>
      </trkpt>
      <trkpt lat="42.8104950" lon="-7.6440440">
        <ele>453.5</ele>
        <time>2020-10-19T07:47:59Z</time>
      </trkpt>
      <trkpt lat="42.8105030" lon="-7.6440560">
        <ele>453.5</ele>
        <time>2020-10-19T07:48:00Z</time>
      </trkpt>
      <trkpt lat="42.8105100" lon="-7.6440690">
        <ele>453.4</ele>
        <time>2020-10-19T07:48:01Z</time>
      </trkpt>
      <trkpt lat="42.8105160" lon="-7.6440810">
        <ele>453.4</ele>
        <time>2020-10-19T07:48:02Z</time>
      </trkpt>
      <trkpt lat="42.8105230" lon="-7.6440950">
        <ele>453.4</ele>
        <time>2020-10-19T07:48:03Z</time>
      </trkpt>
      <trkpt lat="42.8105310" lon="-7.6441090">
        <ele>453.3</ele>
        <time>2020-10-19T07:48:04Z</time>
      </trkpt>
      <trkpt lat="42.8105390" lon="-7.6441220">
        <ele>453.3</ele>
        <time>2020-10-19T07:48:05Z</time>
      </trkpt>
      <trkpt lat="42.8105480" lon="-7.6441360">
        <ele>453.3</ele>
        <time>2020-10-19T07:48:06Z</time>
      </trkpt>
      <trkpt lat="42.8105570" lon="-7.6441500">
        <ele>453.2</ele>
        <time>2020-10-19T07:48:07Z</time>
      </trkpt>
      <trkpt lat="42.8105650" lon="-7.6441640">
        <ele>453.2</ele>
        <time>2020-10-19T07:48:08Z</time>
      </trkpt>
      <trkpt lat="42.8105730" lon="-7.6441770">
        <ele>453.1</ele>
        <time>2020-10-19T07:48:09Z</time>
      </trkpt>
      <trkpt lat="42.8105810" lon="-7.6441900">
        <ele>453.1</ele>
        <time>2020-10-19T07:48:10Z</time>
      </trkpt>
      <trkpt lat="42.8105890" lon="-7.6442020">
        <ele>453.0</ele>
        <time>2020-10-19T07:48:11Z</time>
      </trkpt>
      <trkpt lat="42.8105980" lon="-7.6442150">
        <ele>453.0</ele>
        <time>2020-10-19T07:48:12Z</time>
      </trkpt>
      <trkpt lat="42.8106060" lon="-7.6442280">
        <ele>452.9</ele>
        <time>2020-10-19T07:48:13Z</time>
      </trkpt>
      <trkpt lat="42.8106140" lon="-7.6442420">
        <ele>452.9</ele>
        <time>2020-10-19T07:48:14Z</time>
      </trkpt>
      <trkpt lat="42.8106220" lon="-7.6442560">
        <ele>452.8</ele>
        <time>2020-10-19T07:48:15Z</time>
      </trkpt>
      <trkpt lat="42.8106300" lon="-7.6442700">
        <ele>452.8</ele>
        <time>2020-10-19T07:48:16Z</time>
      </trkpt>
      <trkpt lat="42.8106360" lon="-7.6442830">
        <ele>452.8</ele>
        <time>2020-10-19T07:48:17Z</time>
      </trkpt>
      <trkpt lat="42.8106410" lon="-7.6442960">
        <ele>452.7</ele>
        <time>2020-10-19T07:48:18Z</time>
      </trkpt>
      <trkpt lat="42.8106440" lon="-7.6443120">
        <ele>452.7</ele>
        <time>2020-10-19T07:48:19Z</time>
      </trkpt>
      <trkpt lat="42.8106460" lon="-7.6443260">
        <ele>452.6</ele>
        <time>2020-10-19T07:48:20Z</time>
      </trkpt>
      <trkpt lat="42.8106450" lon="-7.6443330">
        <ele>452.6</ele>
        <time>2020-10-19T07:48:21Z</time>
      </trkpt>
      <trkpt lat="42.8106440" lon="-7.6443340">
        <ele>452.6</ele>
        <time>2020-10-19T07:48:22Z</time>
      </trkpt>
      <trkpt lat="42.8106450" lon="-7.6443310">
        <ele>452.6</ele>
        <time>2020-10-19T07:48:23Z</time>
      </trkpt>
      <trkpt lat="42.8106480" lon="-7.6443310">
        <ele>452.6</ele>
        <time>2020-10-19T07:48:24Z</time>
      </trkpt>
      <trkpt lat="42.8106530" lon="-7.6443330">
        <ele>452.6</ele>
        <time>2020-10-19T07:48:25Z</time>
      </trkpt>
      <trkpt lat="42.8106620" lon="-7.6443380">
        <ele>452.5</ele>
        <time>2020-10-19T07:48:26Z</time>
      </trkpt>
      <trkpt lat="42.8106740" lon="-7.6443430">
        <ele>452.5</ele>
        <time>2020-10-19T07:48:27Z</time>
      </trkpt>
      <trkpt lat="42.8106890" lon="-7.6443490">
        <ele>452.4</ele>
        <time>2020-10-19T07:48:28Z</time>
      </trkpt>
      <trkpt lat="42.8107040" lon="-7.6443550">
        <ele>452.4</ele>
        <time>2020-10-19T07:48:29Z</time>
      </trkpt>
      <trkpt lat="42.8107190" lon="-7.6443610">
        <ele>452.3</ele>
        <time>2020-10-19T07:48:30Z</time>
      </trkpt>
      <trkpt lat="42.8107320" lon="-7.6443690">
        <ele>452.3</ele>
        <time>2020-10-19T07:48:31Z</time>
      </trkpt>
      <trkpt lat="42.8107460" lon="-7.6443780">
        <ele>452.2</ele>
        <time>2020-10-19T07:48:32Z</time>
      </trkpt>
      <trkpt lat="42.8107580" lon="-7.6443890">
        <ele>452.2</ele>
        <time>2020-10-19T07:48:33Z</time>
      </trkpt>
      <trkpt lat="42.8107710" lon="-7.6444010">
        <ele>452.1</ele>
        <time>2020-10-19T07:48:34Z</time>
      </trkpt>
      <trkpt lat="42.8107820" lon="-7.6444140">
        <ele>452.1</ele>
        <time>2020-10-19T07:48:35Z</time>
      </trkpt>
      <trkpt lat="42.8107950" lon="-7.6444250">
        <ele>452.0</ele>
        <time>2020-10-19T07:48:36Z</time>
      </trkpt>
      <trkpt lat="42.8108080" lon="-7.6444380">
        <ele>452.0</ele>
        <time>2020-10-19T07:48:37Z</time>
      </trkpt>
      <trkpt lat="42.8108190" lon="-7.6444530">
        <ele>451.9</ele>
        <time>2020-10-19T07:48:38Z</time>
      </trkpt>
      <trkpt lat="42.8108280" lon="-7.6444680">
        <ele>451.9</ele>
        <time>2020-10-19T07:48:39Z</time>
      </trkpt>
      <trkpt lat="42.8108380" lon="-7.6444820">
        <ele>451.8</ele>
        <time>2020-10-19T07:48:40Z</time>
      </trkpt>
      <trkpt lat="42.8108480" lon="-7.6444950">
        <ele>451.8</ele>
        <time>2020-10-19T07:48:41Z</time>
      </trkpt>
      <trkpt lat="42.8108570" lon="-7.6445090">
        <ele>451.7</ele>
        <time>2020-10-19T07:48:42Z</time>
      </trkpt>
      <trkpt lat="42.8108670" lon="-7.6445240">
        <ele>451.7</ele>
        <time>2020-10-19T07:48:43Z</time>
      </trkpt>
      <trkpt lat="42.8108760" lon="-7.6445400">
        <ele>451.7</ele>
        <time>2020-10-19T07:48:44Z</time>
      </trkpt>
      <trkpt lat="42.8108850" lon="-7.6445550">
        <ele>451.6</ele>
        <time>2020-10-19T07:48:45Z</time>
      </trkpt>
      <trkpt lat="42.8108930" lon="-7.6445700">
        <ele>451.6</ele>
        <time>2020-10-19T07:48:46Z</time>
      </trkpt>
      <trkpt lat="42.8109000" lon="-7.6445860">
        <ele>451.5</ele>
        <time>2020-10-19T07:48:47Z</time>
      </trkpt>
      <trkpt lat="42.8109070" lon="-7.6446020">
        <ele>451.5</ele>
        <time>2020-10-19T07:48:48Z</time>
      </trkpt>
      <trkpt lat="42.8109130" lon="-7.6446180">
        <ele>451.4</ele>
        <time>2020-10-19T07:48:49Z</time>
      </trkpt>
      <trkpt lat="42.8109210" lon="-7.6446320">
        <ele>451.4</ele>
        <time>2020-10-19T07:48:50Z</time>
      </trkpt>
      <trkpt lat="42.8109300" lon="-7.6446460">
        <ele>451.3</ele>
        <time>2020-10-19T07:48:51Z</time>
      </trkpt>
      <trkpt lat="42.8109390" lon="-7.6446600">
        <ele>451.3</ele>
        <time>2020-10-19T07:48:52Z</time>
      </trkpt>
      <trkpt lat="42.8109480" lon="-7.6446760">
        <ele>451.3</ele>
        <time>2020-10-19T07:48:53Z</time>
      </trkpt>
      <trkpt lat="42.8109560" lon="-7.6446900">
        <ele>451.2</ele>
        <time>2020-10-19T07:48:54Z</time>
      </trkpt>
      <trkpt lat="42.8109650" lon="-7.6447030">
        <ele>451.2</ele>
        <time>2020-10-19T07:48:55Z</time>
      </trkpt>
      <trkpt lat="42.8109750" lon="-7.6447130">
        <ele>451.1</ele>
        <time>2020-10-19T07:48:56Z</time>
      </trkpt>
      <trkpt lat="42.8109870" lon="-7.6447220">
        <ele>451.1</ele>
        <time>2020-10-19T07:48:57Z</time>
      </trkpt>
      <trkpt lat="42.8110010" lon="-7.6447300">
        <ele>451.0</ele>
        <time>2020-10-19T07:48:58Z</time>
      </trkpt>
      <trkpt lat="42.8110130" lon="-7.6447400">
        <ele>451.0</ele>
        <time>2020-10-19T07:48:59Z</time>
      </trkpt>
      <trkpt lat="42.8110240" lon="-7.6447510">
        <ele>450.9</ele>
        <time>2020-10-19T07:49:00Z</time>
      </trkpt>
      <trkpt lat="42.8110330" lon="-7.6447640">
        <ele>450.9</ele>
        <time>2020-10-19T07:49:01Z</time>
      </trkpt>
      <trkpt lat="42.8110400" lon="-7.6447760">
        <ele>450.9</ele>
        <time>2020-10-19T07:49:02Z</time>
      </trkpt>
      <trkpt lat="42.8110430" lon="-7.6447850">
        <ele>450.8</ele>
        <time>2020-10-19T07:49:03Z</time>
      </trkpt>
      <trkpt lat="42.8110440" lon="-7.6447910">
        <ele>450.8</ele>
        <time>2020-10-19T07:49:04Z</time>
      </trkpt>
      <trkpt lat="42.8110430" lon="-7.6447940">
        <ele>450.8</ele>
        <time>2020-10-19T07:49:05Z</time>
      </trkpt>
      <trkpt lat="42.8110430" lon="-7.6447950">
        <ele>450.8</ele>
        <time>2020-10-19T07:49:06Z</time>
      </trkpt>
      <trkpt lat="42.8110420" lon="-7.6447970">
        <ele>450.8</ele>
        <time>2020-10-19T07:49:07Z</time>
      </trkpt>
      <trkpt lat="42.8110430" lon="-7.6447970">
        <ele>450.8</ele>
        <time>2020-10-19T07:49:08Z</time>
      </trkpt>
      <trkpt lat="42.8110430" lon="-7.6447980">
        <ele>450.8</ele>
        <time>2020-10-19T07:49:09Z</time>
      </trkpt>
      <trkpt lat="42.8110440" lon="-7.6447970">
        <ele>450.8</ele>
        <time>2020-10-19T07:49:10Z</time>
      </trkpt>
      <trkpt lat="42.8110440" lon="-7.6447970">
        <ele>450.8</ele>
        <time>2020-10-19T07:49:11Z</time>
      </trkpt>
      <trkpt lat="42.8110440" lon="-7.6447970">
        <ele>450.8</ele>
        <time>2020-10-19T07:49:12Z</time>
      </trkpt>
      <trkpt lat="42.8110440" lon="-7.6447970">
        <ele>450.8</ele>
        <time>2020-10-19T07:49:13Z</time>
      </trkpt>
      <trkpt lat="42.8110440" lon="-7.6447970">
        <ele>450.8</ele>
        <time>2020-10-19T07:49:14Z</time>
      </trkpt>
      <trkpt lat="42.8110440" lon="-7.6447980">
        <ele>450.8</ele>
        <time>2020-10-19T07:49:15Z</time>
      </trkpt>
      <trkpt lat="42.8110440" lon="-7.6447980">
        <ele>450.8</ele>
        <time>2020-10-19T07:49:16Z</time>
      </trkpt>
      <trkpt lat="42.8110440" lon="-7.6447980">
        <ele>450.8</ele>
        <time>2020-10-19T07:49:17Z</time>
      </trkpt>
      <trkpt lat="42.8110440" lon="-7.6447990">
        <ele>450.8</ele>
        <time>2020-10-19T07:49:18Z</time>
      </trkpt>
      <trkpt lat="42.8110440" lon="-7.6447990">
        <ele>450.8</ele>
        <time>2020-10-19T07:49:19Z</time>
      </trkpt>
      <trkpt lat="42.8110430" lon="-7.6447990">
        <ele>450.8</ele>
        <time>2020-10-19T07:49:20Z</time>
      </trkpt>
      <trkpt lat="42.8110430" lon="-7.6448000">
        <ele>450.8</ele>
        <time>2020-10-19T07:49:21Z</time>
      </trkpt>
      <trkpt lat="42.8110420" lon="-7.6448010">
        <ele>450.8</ele>
        <time>2020-10-19T07:49:22Z</time>
      </trkpt>
      <trkpt lat="42.8110420" lon="-7.6448010">
        <ele>450.8</ele>
        <time>2020-10-19T07:49:23Z</time>
      </trkpt>
      <trkpt lat="42.8110430" lon="-7.6448020">
        <ele>450.8</ele>
        <time>2020-10-19T07:49:24Z</time>
      </trkpt>
      <trkpt lat="42.8110440" lon="-7.6448030">
        <ele>450.8</ele>
        <time>2020-10-19T07:49:25Z</time>
      </trkpt>
      <trkpt lat="42.8110440" lon="-7.6448030">
        <ele>450.8</ele>
        <time>2020-10-19T07:49:26Z</time>
      </trkpt>
      <trkpt lat="42.8110440" lon="-7.6448030">
        <ele>450.8</ele>
        <time>2020-10-19T07:49:27Z</time>
      </trkpt>
      <trkpt lat="42.8110450" lon="-7.6448020">
        <ele>450.8</ele>
        <time>2020-10-19T07:49:28Z</time>
      </trkpt>
      <trkpt lat="42.8110450" lon="-7.6448030">
        <ele>450.8</ele>
        <time>2020-10-19T07:49:29Z</time>
      </trkpt>
      <trkpt lat="42.8110450" lon="-7.6448030">
        <ele>450.8</ele>
        <time>2020-10-19T07:49:30Z</time>
      </trkpt>
      <trkpt lat="42.8110440" lon="-7.6448040">
        <ele>450.8</ele>
        <time>2020-10-19T07:49:31Z</time>
      </trkpt>
      <trkpt lat="42.8110430" lon="-7.6448040">
        <ele>450.8</ele>
        <time>2020-10-19T07:49:32Z</time>
      </trkpt>
      <trkpt lat="42.8110420" lon="-7.6448030">
        <ele>450.8</ele>
        <time>2020-10-19T07:49:33Z</time>
      </trkpt>
      <trkpt lat="42.8110420" lon="-7.6448030">
        <ele>450.8</ele>
        <time>2020-10-19T07:49:34Z</time>
      </trkpt>
      <trkpt lat="42.8110420" lon="-7.6448030">
        <ele>450.8</ele>
        <time>2020-10-19T07:49:35Z</time>
      </trkpt>
      <trkpt lat="42.8110420" lon="-7.6448020">
        <ele>450.8</ele>
        <time>2020-10-19T07:49:36Z</time>
      </trkpt>
      <trkpt lat="42.8110420" lon="-7.6448020">
        <ele>450.8</ele>
        <time>2020-10-19T07:49:37Z</time>
      </trkpt>
      <trkpt lat="42.8110420" lon="-7.6448020">
        <ele>450.8</ele>
        <time>2020-10-19T07:49:38Z</time>
      </trkpt>
      <trkpt lat="42.8110420" lon="-7.6448030">
        <ele>450.8</ele>
        <time>2020-10-19T07:49:39Z</time>
      </trkpt>
      <trkpt lat="42.8110420" lon="-7.6448050">
        <ele>450.8</ele>
        <time>2020-10-19T07:49:40Z</time>
      </trkpt>
      <trkpt lat="42.8110430" lon="-7.6448070">
        <ele>450.7</ele>
        <time>2020-10-19T07:49:41Z</time>
      </trkpt>
      <trkpt lat="42.8110430" lon="-7.6448080">
        <ele>450.7</ele>
        <time>2020-10-19T07:49:42Z</time>
      </trkpt>
      <trkpt lat="42.8110440" lon="-7.6448080">
        <ele>450.7</ele>
        <time>2020-10-19T07:49:43Z</time>
      </trkpt>
      <trkpt lat="42.8110420" lon="-7.6448090">
        <ele>450.7</ele>
        <time>2020-10-19T07:49:44Z</time>
      </trkpt>
      <trkpt lat="42.8110410" lon="-7.6448100">
        <ele>450.7</ele>
        <time>2020-10-19T07:49:45Z</time>
      </trkpt>
      <trkpt lat="42.8110400" lon="-7.6448140">
        <ele>450.7</ele>
        <time>2020-10-19T07:49:46Z</time>
      </trkpt>
      <trkpt lat="42.8110400" lon="-7.6448190">
        <ele>450.7</ele>
        <time>2020-10-19T07:49:47Z</time>
      </trkpt>
      <trkpt lat="42.8110440" lon="-7.6448280">
        <ele>450.7</ele>
        <time>2020-10-19T07:49:48Z</time>
      </trkpt>
      <trkpt lat="42.8110490" lon="-7.6448410">
        <ele>450.7</ele>
        <time>2020-10-19T07:49:49Z</time>
      </trkpt>
      <trkpt lat="42.8110540" lon="-7.6448570">
        <ele>450.6</ele>
        <time>2020-10-19T07:49:50Z</time>
      </trkpt>
      <trkpt lat="42.8110590" lon="-7.6448710">
        <ele>450.6</ele>
        <time>2020-10-19T07:49:51Z</time>
      </trkpt>
      <trkpt lat="42.8110650" lon="-7.6448860">
        <ele>450.5</ele>
        <time>2020-10-19T07:49:52Z</time>
      </trkpt>
      <trkpt lat="42.8110740" lon="-7.6449000">
        <ele>450.5</ele>
        <time>2020-10-19T07:49:53Z</time>
      </trkpt>
      <trkpt lat="42.8110810" lon="-7.6449140">
        <ele>450.5</ele>
        <time>2020-10-19T07:49:54Z</time>
      </trkpt>
      <trkpt lat="42.8110890" lon="-7.6449270">
        <ele>450.4</ele>
        <time>2020-10-19T07:49:55Z</time>
      </trkpt>
      <trkpt lat="42.8110970" lon="-7.6449410">
        <ele>450.4</ele>
        <time>2020-10-19T07:49:56Z</time>
      </trkpt>
      <trkpt lat="42.8111050" lon="-7.6449570">
        <ele>450.4</ele>
        <time>2020-10-19T07:49:57Z</time>
      </trkpt>
      <trkpt lat="42.8111130" lon="-7.6449720">
        <ele>450.3</ele>
        <time>2020-10-19T07:49:58Z</time>
      </trkpt>
      <trkpt lat="42.8111210" lon="-7.6449880">
        <ele>450.3</ele>
        <time>2020-10-19T07:49:59Z</time>
      </trkpt>
      <trkpt lat="42.8111290" lon="-7.6450020">
        <ele>450.3</ele>
        <time>2020-10-19T07:50:00Z</time>
      </trkpt>
      <trkpt lat="42.8111360" lon="-7.6450170">
        <ele>450.2</ele>
        <time>2020-10-19T07:50:01Z</time>
      </trkpt>
      <trkpt lat="42.8111440" lon="-7.6450320">
        <ele>450.2</ele>
        <time>2020-10-19T07:50:02Z</time>
      </trkpt>
      <trkpt lat="42.8111520" lon="-7.6450470">
        <ele>450.2</ele>
        <time>2020-10-19T07:50:03Z</time>
      </trkpt>
      <trkpt lat="42.8111600" lon="-7.6450620">
        <ele>450.2</ele>
        <time>2020-10-19T07:50:04Z</time>
      </trkpt>
      <trkpt lat="42.8111680" lon="-7.6450760">
        <ele>450.1</ele>
        <time>2020-10-19T07:50:05Z</time>
      </trkpt>
      <trkpt lat="42.8111760" lon="-7.6450900">
        <ele>450.1</ele>
        <time>2020-10-19T07:50:06Z</time>
      </trkpt>
      <trkpt lat="42.8111840" lon="-7.6451030">
        <ele>450.1</ele>
        <time>2020-10-19T07:50:07Z</time>
      </trkpt>
      <trkpt lat="42.8111940" lon="-7.6451160">
        <ele>450.1</ele>
        <time>2020-10-19T07:50:08Z</time>
      </trkpt>
      <trkpt lat="42.8112020" lon="-7.6451300">
        <ele>450.0</ele>
        <time>2020-10-19T07:50:09Z</time>
      </trkpt>
      <trkpt lat="42.8112120" lon="-7.6451420">
        <ele>450.0</ele>
        <time>2020-10-19T07:50:10Z</time>
      </trkpt>
      <trkpt lat="42.8112200" lon="-7.6451550">
        <ele>450.0</ele>
        <time>2020-10-19T07:50:11Z</time>
      </trkpt>
      <trkpt lat="42.8112290" lon="-7.6451680">
        <ele>450.0</ele>
        <time>2020-10-19T07:50:12Z</time>
      </trkpt>
      <trkpt lat="42.8112380" lon="-7.6451810">
        <ele>450.0</ele>
        <time>2020-10-19T07:50:13Z</time>
      </trkpt>
      <trkpt lat="42.8112460" lon="-7.6451950">
        <ele>450.0</ele>
        <time>2020-10-19T07:50:14Z</time>
      </trkpt>
      <trkpt lat="42.8112540" lon="-7.6452090">
        <ele>449.9</ele>
        <time>2020-10-19T07:50:15Z</time>
      </trkpt>
      <trkpt lat="42.8112620" lon="-7.6452220">
        <ele>449.9</ele>
        <time>2020-10-19T07:50:16Z</time>
      </trkpt>
      <trkpt lat="42.8112690" lon="-7.6452360">
        <ele>449.9</ele>
        <time>2020-10-19T07:50:17Z</time>
      </trkpt>
      <trkpt lat="42.8112760" lon="-7.6452500">
        <ele>449.9</ele>
        <time>2020-10-19T07:50:18Z</time>
      </trkpt>
      <trkpt lat="42.8112840" lon="-7.6452640">
        <ele>449.9</ele>
        <time>2020-10-19T07:50:19Z</time>
      </trkpt>
      <trkpt lat="42.8112920" lon="-7.6452770">
        <ele>449.9</ele>
        <time>2020-10-19T07:50:20Z</time>
      </trkpt>
      <trkpt lat="42.8113000" lon="-7.6452910">
        <ele>449.8</ele>
        <time>2020-10-19T07:50:21Z</time>
      </trkpt>
      <trkpt lat="42.8113080" lon="-7.6453050">
        <ele>449.8</ele>
        <time>2020-10-19T07:50:22Z</time>
      </trkpt>
      <trkpt lat="42.8113170" lon="-7.6453190">
        <ele>449.8</ele>
        <time>2020-10-19T07:50:23Z</time>
      </trkpt>
      <trkpt lat="42.8113260" lon="-7.6453330">
        <ele>449.8</ele>
        <time>2020-10-19T07:50:24Z</time>
      </trkpt>
      <trkpt lat="42.8113350" lon="-7.6453470">
        <ele>449.8</ele>
        <time>2020-10-19T07:50:25Z</time>
      </trkpt>
      <trkpt lat="42.8113430" lon="-7.6453610">
        <ele>449.8</ele>
        <time>2020-10-19T07:50:26Z</time>
      </trkpt>
      <trkpt lat="42.8113510" lon="-7.6453750">
        <ele>449.8</ele>
        <time>2020-10-19T07:50:27Z</time>
      </trkpt>
      <trkpt lat="42.8113590" lon="-7.6453900">
        <ele>449.8</ele>
        <time>2020-10-19T07:50:28Z</time>
      </trkpt>
      <trkpt lat="42.8113670" lon="-7.6454040">
        <ele>449.8</ele>
        <time>2020-10-19T07:50:29Z</time>
      </trkpt>
      <trkpt lat="42.8113750" lon="-7.6454170">
        <ele>449.8</ele>
        <time>2020-10-19T07:50:30Z</time>
      </trkpt>
      <trkpt lat="42.8113830" lon="-7.6454310">
        <ele>449.8</ele>
        <time>2020-10-19T07:50:31Z</time>
      </trkpt>
      <trkpt lat="42.8113910" lon="-7.6454460">
        <ele>449.8</ele>
        <time>2020-10-19T07:50:32Z</time>
      </trkpt>
      <trkpt lat="42.8113980" lon="-7.6454610">
        <ele>449.8</ele>
        <time>2020-10-19T07:50:33Z</time>
      </trkpt>
      <trkpt lat="42.8114060" lon="-7.6454760">
        <ele>449.8</ele>
        <time>2020-10-19T07:50:34Z</time>
      </trkpt>
      <trkpt lat="42.8114140" lon="-7.6454910">
        <ele>449.8</ele>
        <time>2020-10-19T07:50:35Z</time>
      </trkpt>
      <trkpt lat="42.8114210" lon="-7.6455060">
        <ele>449.8</ele>
        <time>2020-10-19T07:50:36Z</time>
      </trkpt>
      <trkpt lat="42.8114290" lon="-7.6455200">
        <ele>449.8</ele>
        <time>2020-10-19T07:50:37Z</time>
      </trkpt>
      <trkpt lat="42.8114370" lon="-7.6455330">
        <ele>449.8</ele>
        <time>2020-10-19T07:50:38Z</time>
      </trkpt>
      <trkpt lat="42.8114460" lon="-7.6455470">
        <ele>449.8</ele>
        <time>2020-10-19T07:50:39Z</time>
      </trkpt>
      <trkpt lat="42.8114540" lon="-7.6455630">
        <ele>449.8</ele>
        <time>2020-10-19T07:50:40Z</time>
      </trkpt>
      <trkpt lat="42.8114600" lon="-7.6455800">
        <ele>449.8</ele>
        <time>2020-10-19T07:50:41Z</time>
      </trkpt>
      <trkpt lat="42.8114670" lon="-7.6455950">
        <ele>449.8</ele>
        <time>2020-10-19T07:50:42Z</time>
      </trkpt>
      <trkpt lat="42.8114750" lon="-7.6456090">
        <ele>449.8</ele>
        <time>2020-10-19T07:50:43Z</time>
      </trkpt>
      <trkpt lat="42.8114830" lon="-7.6456220">
        <ele>449.8</ele>
        <time>2020-10-19T07:50:44Z</time>
      </trkpt>
      <trkpt lat="42.8114910" lon="-7.6456350">
        <ele>449.8</ele>
        <time>2020-10-19T07:50:45Z</time>
      </trkpt>
      <trkpt lat="42.8114980" lon="-7.6456490">
        <ele>449.8</ele>
        <time>2020-10-19T07:50:46Z</time>
      </trkpt>
      <trkpt lat="42.8115050" lon="-7.6456640">
        <ele>449.8</ele>
        <time>2020-10-19T07:50:47Z</time>
      </trkpt>
      <trkpt lat="42.8115110" lon="-7.6456790">
        <ele>449.8</ele>
        <time>2020-10-19T07:50:48Z</time>
      </trkpt>
      <trkpt lat="42.8115170" lon="-7.6456940">
        <ele>449.8</ele>
        <time>2020-10-19T07:50:49Z</time>
      </trkpt>
      <trkpt lat="42.8115230" lon="-7.6457090">
        <ele>449.8</ele>
        <time>2020-10-19T07:50:50Z</time>
      </trkpt>
      <trkpt lat="42.8115290" lon="-7.6457240">
        <ele>449.8</ele>
        <time>2020-10-19T07:50:51Z</time>
      </trkpt>
      <trkpt lat="42.8115350" lon="-7.6457410">
        <ele>449.9</ele>
        <time>2020-10-19T07:50:52Z</time>
      </trkpt>
      <trkpt lat="42.8115410" lon="-7.6457570">
        <ele>449.9</ele>
        <time>2020-10-19T07:50:53Z</time>
      </trkpt>
      <trkpt lat="42.8115490" lon="-7.6457720">
        <ele>449.9</ele>
        <time>2020-10-19T07:50:54Z</time>
      </trkpt>
      <trkpt lat="42.8115560" lon="-7.6457870">
        <ele>449.9</ele>
        <time>2020-10-19T07:50:55Z</time>
      </trkpt>
      <trkpt lat="42.8115630" lon="-7.6458010">
        <ele>449.9</ele>
        <time>2020-10-19T07:50:56Z</time>
      </trkpt>
      <trkpt lat="42.8115700" lon="-7.6458170">
        <ele>449.9</ele>
        <time>2020-10-19T07:50:57Z</time>
      </trkpt>
      <trkpt lat="42.8115780" lon="-7.6458330">
        <ele>449.9</ele>
        <time>2020-10-19T07:50:58Z</time>
      </trkpt>
      <trkpt lat="42.8115850" lon="-7.6458490">
        <ele>450.0</ele>
        <time>2020-10-19T07:50:59Z</time>
      </trkpt>
      <trkpt lat="42.8115930" lon="-7.6458650">
        <ele>450.0</ele>
        <time>2020-10-19T07:51:00Z</time>
      </trkpt>
      <trkpt lat="42.8116010" lon="-7.6458810">
        <ele>450.0</ele>
        <time>2020-10-19T07:51:01Z</time>
      </trkpt>
      <trkpt lat="42.8116080" lon="-7.6458960">
        <ele>450.0</ele>
        <time>2020-10-19T07:51:02Z</time>
      </trkpt>
      <trkpt lat="42.8116150" lon="-7.6459110">
        <ele>450.0</ele>
        <time>2020-10-19T07:51:03Z</time>
      </trkpt>
      <trkpt lat="42.8116220" lon="-7.6459250">
        <ele>450.1</ele>
        <time>2020-10-19T07:51:04Z</time>
      </trkpt>
      <trkpt lat="42.8116290" lon="-7.6459400">
        <ele>450.1</ele>
        <time>2020-10-19T07:51:05Z</time>
      </trkpt>
      <trkpt lat="42.8116370" lon="-7.6459560">
        <ele>450.1</ele>
        <time>2020-10-19T07:51:06Z</time>
      </trkpt>
      <trkpt lat="42.8116450" lon="-7.6459710">
        <ele>450.1</ele>
        <time>2020-10-19T07:51:07Z</time>
      </trkpt>
      <trkpt lat="42.8116520" lon="-7.6459860">
        <ele>450.1</ele>
        <time>2020-10-19T07:51:08Z</time>
      </trkpt>
      <trkpt lat="42.8116590" lon="-7.6459990">
        <ele>450.2</ele>
        <time>2020-10-19T07:51:09Z</time>
      </trkpt>
      <trkpt lat="42.8116660" lon="-7.6460120">
        <ele>450.2</ele>
        <time>2020-10-19T07:51:10Z</time>
      </trkpt>
      <trkpt lat="42.8116730" lon="-7.6460250">
        <ele>450.2</ele>
        <time>2020-10-19T07:51:11Z</time>
      </trkpt>
      <trkpt lat="42.8116800" lon="-7.6460400">
        <ele>450.2</ele>
        <time>2020-10-19T07:51:12Z</time>
      </trkpt>
      <trkpt lat="42.8116870" lon="-7.6460560">
        <ele>450.3</ele>
        <time>2020-10-19T07:51:13Z</time>
      </trkpt>
      <trkpt lat="42.8116920" lon="-7.6460720">
        <ele>450.3</ele>
        <time>2020-10-19T07:51:14Z</time>
      </trkpt>
      <trkpt lat="42.8116970" lon="-7.6460880">
        <ele>450.3</ele>
        <time>2020-10-19T07:51:15Z</time>
      </trkpt>
      <trkpt lat="42.8117020" lon="-7.6461040">
        <ele>450.3</ele>
        <time>2020-10-19T07:51:16Z</time>
      </trkpt>
      <trkpt lat="42.8117060" lon="-7.6461200">
        <ele>450.4</ele>
        <time>2020-10-19T07:51:17Z</time>
      </trkpt>
      <trkpt lat="42.8117110" lon="-7.6461360">
        <ele>450.4</ele>
        <time>2020-10-19T07:51:18Z</time>
      </trkpt>
      <trkpt lat="42.8117150" lon="-7.6461530">
        <ele>450.4</ele>
        <time>2020-10-19T07:51:19Z</time>
      </trkpt>
      <trkpt lat="42.8117190" lon="-7.6461700">
        <ele>450.4</ele>
        <time>2020-10-19T07:51:20Z</time>
      </trkpt>
      <trkpt lat="42.8117220" lon="-7.6461860">
        <ele>450.5</ele>
        <time>2020-10-19T07:51:21Z</time>
      </trkpt>
      <trkpt lat="42.8117250" lon="-7.6462010">
        <ele>450.5</ele>
        <time>2020-10-19T07:51:22Z</time>
      </trkpt>
      <trkpt lat="42.8117280" lon="-7.6462160">
        <ele>450.5</ele>
        <time>2020-10-19T07:51:23Z</time>
      </trkpt>
      <trkpt lat="42.8117310" lon="-7.6462320">
        <ele>450.5</ele>
        <time>2020-10-19T07:51:24Z</time>
      </trkpt>
      <trkpt lat="42.8117330" lon="-7.6462490">
        <ele>450.6</ele>
        <time>2020-10-19T07:51:25Z</time>
      </trkpt>
      <trkpt lat="42.8117360" lon="-7.6462660">
        <ele>450.6</ele>
        <time>2020-10-19T07:51:26Z</time>
      </trkpt>
      <trkpt lat="42.8117380" lon="-7.6462850">
        <ele>450.6</ele>
        <time>2020-10-19T07:51:27Z</time>
      </trkpt>
      <trkpt lat="42.8117390" lon="-7.6463070">
        <ele>450.7</ele>
        <time>2020-10-19T07:51:28Z</time>
      </trkpt>
      <trkpt lat="42.8117380" lon="-7.6463310">
        <ele>450.7</ele>
        <time>2020-10-19T07:51:29Z</time>
      </trkpt>
      <trkpt lat="42.8117370" lon="-7.6463530">
        <ele>450.7</ele>
        <time>2020-10-19T07:51:30Z</time>
      </trkpt>
      <trkpt lat="42.8117370" lon="-7.6463740">
        <ele>450.7</ele>
        <time>2020-10-19T07:51:31Z</time>
      </trkpt>
      <trkpt lat="42.8117380" lon="-7.6463930">
        <ele>450.8</ele>
        <time>2020-10-19T07:51:32Z</time>
      </trkpt>
      <trkpt lat="42.8117390" lon="-7.6464140">
        <ele>450.8</ele>
        <time>2020-10-19T07:51:33Z</time>
      </trkpt>
      <trkpt lat="42.8117410" lon="-7.6464330">
        <ele>450.8</ele>
        <time>2020-10-19T07:51:34Z</time>
      </trkpt>
      <trkpt lat="42.8117430" lon="-7.6464530">
        <ele>450.8</ele>
        <time>2020-10-19T07:51:35Z</time>
      </trkpt>
      <trkpt lat="42.8117460" lon="-7.6464720">
        <ele>450.9</ele>
        <time>2020-10-19T07:51:36Z</time>
      </trkpt>
      <trkpt lat="42.8117490" lon="-7.6464900">
        <ele>450.9</ele>
        <time>2020-10-19T07:51:37Z</time>
      </trkpt>
      <trkpt lat="42.8117530" lon="-7.6465080">
        <ele>450.9</ele>
        <time>2020-10-19T07:51:38Z</time>
      </trkpt>
      <trkpt lat="42.8117540" lon="-7.6465260">
        <ele>450.9</ele>
        <time>2020-10-19T07:51:39Z</time>
      </trkpt>
      <trkpt lat="42.8117550" lon="-7.6465460">
        <ele>451.0</ele>
        <time>2020-10-19T07:51:40Z</time>
      </trkpt>
      <trkpt lat="42.8117550" lon="-7.6465650">
        <ele>451.0</ele>
        <time>2020-10-19T07:51:41Z</time>
      </trkpt>
      <trkpt lat="42.8117570" lon="-7.6465850">
        <ele>451.0</ele>
        <time>2020-10-19T07:51:42Z</time>
      </trkpt>
      <trkpt lat="42.8117590" lon="-7.6466040">
        <ele>451.0</ele>
        <time>2020-10-19T07:51:43Z</time>
      </trkpt>
      <trkpt lat="42.8117610" lon="-7.6466220">
        <ele>451.0</ele>
        <time>2020-10-19T07:51:44Z</time>
      </trkpt>
      <trkpt lat="42.8117640" lon="-7.6466410">
        <ele>451.1</ele>
        <time>2020-10-19T07:51:45Z</time>
      </trkpt>
      <trkpt lat="42.8117660" lon="-7.6466600">
        <ele>451.1</ele>
        <time>2020-10-19T07:51:46Z</time>
      </trkpt>
      <trkpt lat="42.8117680" lon="-7.6466790">
        <ele>451.1</ele>
        <time>2020-10-19T07:51:47Z</time>
      </trkpt>
      <trkpt lat="42.8117690" lon="-7.6466980">
        <ele>451.1</ele>
        <time>2020-10-19T07:51:48Z</time>
      </trkpt>
      <trkpt lat="42.8117690" lon="-7.6467170">
        <ele>451.1</ele>
        <time>2020-10-19T07:51:49Z</time>
      </trkpt>
      <trkpt lat="42.8117700" lon="-7.6467360">
        <ele>451.2</ele>
        <time>2020-10-19T07:51:50Z</time>
      </trkpt>
      <trkpt lat="42.8117700" lon="-7.6467560">
        <ele>451.2</ele>
        <time>2020-10-19T07:51:51Z</time>
      </trkpt>
      <trkpt lat="42.8117710" lon="-7.6467750">
        <ele>451.2</ele>
        <time>2020-10-19T07:51:52Z</time>
      </trkpt>
      <trkpt lat="42.8117720" lon="-7.6467950">
        <ele>451.2</ele>
        <time>2020-10-19T07:51:53Z</time>
      </trkpt>
      <trkpt lat="42.8117720" lon="-7.6468140">
        <ele>451.3</ele>
        <time>2020-10-19T07:51:54Z</time>
      </trkpt>
      <trkpt lat="42.8117720" lon="-7.6468330">
        <ele>451.3</ele>
        <time>2020-10-19T07:51:55Z</time>
      </trkpt>
      <trkpt lat="42.8117720" lon="-7.6468510">
        <ele>451.3</ele>
        <time>2020-10-19T07:51:56Z</time>
      </trkpt>
      <trkpt lat="42.8117720" lon="-7.6468700">
        <ele>451.3</ele>
        <time>2020-10-19T07:51:57Z</time>
      </trkpt>
      <trkpt lat="42.8117730" lon="-7.6468880">
        <ele>451.3</ele>
        <time>2020-10-19T07:51:58Z</time>
      </trkpt>
      <trkpt lat="42.8117750" lon="-7.6469070">
        <ele>451.4</ele>
        <time>2020-10-19T07:51:59Z</time>
      </trkpt>
      <trkpt lat="42.8117770" lon="-7.6469260">
        <ele>451.4</ele>
        <time>2020-10-19T07:52:00Z</time>
      </trkpt>
      <trkpt lat="42.8117780" lon="-7.6469450">
        <ele>451.4</ele>
        <time>2020-10-19T07:52:01Z</time>
      </trkpt>
      <trkpt lat="42.8117780" lon="-7.6469650">
        <ele>451.4</ele>
        <time>2020-10-19T07:52:02Z</time>
      </trkpt>
      <trkpt lat="42.8117770" lon="-7.6469840">
        <ele>451.4</ele>
        <time>2020-10-19T07:52:03Z</time>
      </trkpt>
      <trkpt lat="42.8117770" lon="-7.6470030">
        <ele>451.5</ele>
        <time>2020-10-19T07:52:04Z</time>
      </trkpt>
      <trkpt lat="42.8117770" lon="-7.6470220">
        <ele>451.5</ele>
        <time>2020-10-19T07:52:05Z</time>
      </trkpt>
      <trkpt lat="42.8117780" lon="-7.6470410">
        <ele>451.5</ele>
        <time>2020-10-19T07:52:06Z</time>
      </trkpt>
      <trkpt lat="42.8117780" lon="-7.6470600">
        <ele>451.5</ele>
        <time>2020-10-19T07:52:07Z</time>
      </trkpt>
      <trkpt lat="42.8117770" lon="-7.6470790">
        <ele>451.5</ele>
        <time>2020-10-19T07:52:08Z</time>
      </trkpt>
      <trkpt lat="42.8117750" lon="-7.6470970">
        <ele>451.6</ele>
        <time>2020-10-19T07:52:09Z</time>
      </trkpt>
      <trkpt lat="42.8117730" lon="-7.6471140">
        <ele>451.6</ele>
        <time>2020-10-19T07:52:10Z</time>
      </trkpt>
      <trkpt lat="42.8117720" lon="-7.6471320">
        <ele>451.6</ele>
        <time>2020-10-19T07:52:11Z</time>
      </trkpt>
      <trkpt lat="42.8117710" lon="-7.6471490">
        <ele>451.6</ele>
        <time>2020-10-19T07:52:12Z</time>
      </trkpt>
      <trkpt lat="42.8117710" lon="-7.6471670">
        <ele>451.6</ele>
        <time>2020-10-19T07:52:13Z</time>
      </trkpt>
      <trkpt lat="42.8117710" lon="-7.6471840">
        <ele>451.7</ele>
        <time>2020-10-19T07:52:14Z</time>
      </trkpt>
      <trkpt lat="42.8117720" lon="-7.6472050">
        <ele>451.7</ele>
        <time>2020-10-19T07:52:15Z</time>
      </trkpt>
      <trkpt lat="42.8117720" lon="-7.6472240">
        <ele>451.7</ele>
        <time>2020-10-19T07:52:16Z</time>
      </trkpt>
      <trkpt lat="42.8117710" lon="-7.6472450">
        <ele>451.7</ele>
        <time>2020-10-19T07:52:17Z</time>
      </trkpt>
      <trkpt lat="42.8117710" lon="-7.6472640">
        <ele>451.8</ele>
        <time>2020-10-19T07:52:18Z</time>
      </trkpt>
      <trkpt lat="42.8117710" lon="-7.6472830">
        <ele>451.8</ele>
        <time>2020-10-19T07:52:19Z</time>
      </trkpt>
      <trkpt lat="42.8117710" lon="-7.6473000">
        <ele>451.8</ele>
        <time>2020-10-19T07:52:20Z</time>
      </trkpt>
      <trkpt lat="42.8117720" lon="-7.6473170">
        <ele>451.8</ele>
        <time>2020-10-19T07:52:21Z</time>
      </trkpt>
      <trkpt lat="42.8117720" lon="-7.6473340">
        <ele>451.9</ele>
        <time>2020-10-19T07:52:22Z</time>
      </trkpt>
      <trkpt lat="42.8117720" lon="-7.6473510">
        <ele>451.9</ele>
        <time>2020-10-19T07:52:23Z</time>
      </trkpt>
      <trkpt lat="42.8117720" lon="-7.6473710">
        <ele>451.9</ele>
        <time>2020-10-19T07:52:24Z</time>
      </trkpt>
      <trkpt lat="42.8117720" lon="-7.6473900">
        <ele>451.9</ele>
        <time>2020-10-19T07:52:25Z</time>
      </trkpt>
      <trkpt lat="42.8117730" lon="-7.6474100">
        <ele>452.0</ele>
        <time>2020-10-19T07:52:26Z</time>
      </trkpt>
      <trkpt lat="42.8117720" lon="-7.6474280">
        <ele>452.0</ele>
        <time>2020-10-19T07:52:27Z</time>
      </trkpt>
      <trkpt lat="42.8117720" lon="-7.6474460">
        <ele>452.0</ele>
        <time>2020-10-19T07:52:28Z</time>
      </trkpt>
      <trkpt lat="42.8117720" lon="-7.6474630">
        <ele>452.0</ele>
        <time>2020-10-19T07:52:29Z</time>
      </trkpt>
      <trkpt lat="42.8117720" lon="-7.6474810">
        <ele>452.1</ele>
        <time>2020-10-19T07:52:30Z</time>
      </trkpt>
      <trkpt lat="42.8117730" lon="-7.6474980">
        <ele>452.1</ele>
        <time>2020-10-19T07:52:31Z</time>
      </trkpt>
      <trkpt lat="42.8117730" lon="-7.6475160">
        <ele>452.1</ele>
        <time>2020-10-19T07:52:32Z</time>
      </trkpt>
      <trkpt lat="42.8117740" lon="-7.6475340">
        <ele>452.1</ele>
        <time>2020-10-19T07:52:33Z</time>
      </trkpt>
      <trkpt lat="42.8117750" lon="-7.6475520">
        <ele>452.1</ele>
        <time>2020-10-19T07:52:34Z</time>
      </trkpt>
      <trkpt lat="42.8117770" lon="-7.6475700">
        <ele>452.2</ele>
        <time>2020-10-19T07:52:35Z</time>
      </trkpt>
      <trkpt lat="42.8117780" lon="-7.6475870">
        <ele>452.2</ele>
        <time>2020-10-19T07:52:36Z</time>
      </trkpt>
      <trkpt lat="42.8117790" lon="-7.6476050">
        <ele>452.2</ele>
        <time>2020-10-19T07:52:37Z</time>
      </trkpt>
      <trkpt lat="42.8117800" lon="-7.6476220">
        <ele>452.2</ele>
        <time>2020-10-19T07:52:38Z</time>
      </trkpt>
      <trkpt lat="42.8117820" lon="-7.6476400">
        <ele>452.2</ele>
        <time>2020-10-19T07:52:39Z</time>
      </trkpt>
      <trkpt lat="42.8117830" lon="-7.6476580">
        <ele>452.3</ele>
        <time>2020-10-19T07:52:40Z</time>
      </trkpt>
      <trkpt lat="42.8117830" lon="-7.6476770">
        <ele>452.3</ele>
        <time>2020-10-19T07:52:41Z</time>
      </trkpt>
      <trkpt lat="42.8117820" lon="-7.6476950">
        <ele>452.3</ele>
        <time>2020-10-19T07:52:42Z</time>
      </trkpt>
      <trkpt lat="42.8117820" lon="-7.6477130">
        <ele>452.3</ele>
        <time>2020-10-19T07:52:43Z</time>
      </trkpt>
      <trkpt lat="42.8117830" lon="-7.6477310">
        <ele>452.4</ele>
        <time>2020-10-19T07:52:44Z</time>
      </trkpt>
      <trkpt lat="42.8117840" lon="-7.6477500">
        <ele>452.4</ele>
        <time>2020-10-19T07:52:45Z</time>
      </trkpt>
      <trkpt lat="42.8117850" lon="-7.6477680">
        <ele>452.4</ele>
        <time>2020-10-19T07:52:46Z</time>
      </trkpt>
      <trkpt lat="42.8117860" lon="-7.6477860">
        <ele>452.5</ele>
        <time>2020-10-19T07:52:47Z</time>
      </trkpt>
      <trkpt lat="42.8117860" lon="-7.6478040">
        <ele>452.5</ele>
        <time>2020-10-19T07:52:48Z</time>
      </trkpt>
      <trkpt lat="42.8117870" lon="-7.6478230">
        <ele>452.5</ele>
        <time>2020-10-19T07:52:49Z</time>
      </trkpt>
      <trkpt lat="42.8117870" lon="-7.6478420">
        <ele>452.5</ele>
        <time>2020-10-19T07:52:50Z</time>
      </trkpt>
      <trkpt lat="42.8117870" lon="-7.6478600">
        <ele>452.6</ele>
        <time>2020-10-19T07:52:51Z</time>
      </trkpt>
      <trkpt lat="42.8117890" lon="-7.6478780">
        <ele>452.6</ele>
        <time>2020-10-19T07:52:52Z</time>
      </trkpt>
      <trkpt lat="42.8117900" lon="-7.6478970">
        <ele>452.6</ele>
        <time>2020-10-19T07:52:53Z</time>
      </trkpt>
      <trkpt lat="42.8117920" lon="-7.6479140">
        <ele>452.7</ele>
        <time>2020-10-19T07:52:54Z</time>
      </trkpt>
      <trkpt lat="42.8117930" lon="-7.6479320">
        <ele>452.7</ele>
        <time>2020-10-19T07:52:55Z</time>
      </trkpt>
      <trkpt lat="42.8117950" lon="-7.6479490">
        <ele>452.7</ele>
        <time>2020-10-19T07:52:56Z</time>
      </trkpt>
      <trkpt lat="42.8117950" lon="-7.6479670">
        <ele>452.7</ele>
        <time>2020-10-19T07:52:57Z</time>
      </trkpt>
      <trkpt lat="42.8117950" lon="-7.6479850">
        <ele>452.8</ele>
        <time>2020-10-19T07:52:58Z</time>
      </trkpt>
      <trkpt lat="42.8117940" lon="-7.6480030">
        <ele>452.8</ele>
        <time>2020-10-19T07:52:59Z</time>
      </trkpt>
      <trkpt lat="42.8117930" lon="-7.6480210">
        <ele>452.8</ele>
        <time>2020-10-19T07:53:00Z</time>
      </trkpt>
      <trkpt lat="42.8117930" lon="-7.6480380">
        <ele>452.9</ele>
        <time>2020-10-19T07:53:01Z</time>
      </trkpt>
      <trkpt lat="42.8117960" lon="-7.6480540">
        <ele>452.9</ele>
        <time>2020-10-19T07:53:02Z</time>
      </trkpt>
      <trkpt lat="42.8117970" lon="-7.6480690">
        <ele>452.9</ele>
        <time>2020-10-19T07:53:03Z</time>
      </trkpt>
      <trkpt lat="42.8117980" lon="-7.6480850">
        <ele>452.9</ele>
        <time>2020-10-19T07:53:04Z</time>
      </trkpt>
      <trkpt lat="42.8117970" lon="-7.6481000">
        <ele>453.0</ele>
        <time>2020-10-19T07:53:05Z</time>
      </trkpt>
      <trkpt lat="42.8117960" lon="-7.6481140">
        <ele>453.0</ele>
        <time>2020-10-19T07:53:06Z</time>
      </trkpt>
      <trkpt lat="42.8117980" lon="-7.6481220">
        <ele>453.0</ele>
        <time>2020-10-19T07:53:07Z</time>
      </trkpt>
      <trkpt lat="42.8118000" lon="-7.6481250">
        <ele>453.0</ele>
        <time>2020-10-19T07:53:08Z</time>
      </trkpt>
      <trkpt lat="42.8118020" lon="-7.6481250">
        <ele>453.0</ele>
        <time>2020-10-19T07:53:09Z</time>
      </trkpt>
      <trkpt lat="42.8118030" lon="-7.6481250">
        <ele>453.0</ele>
        <time>2020-10-19T07:53:10Z</time>
      </trkpt>
      <trkpt lat="42.8118030" lon="-7.6481230">
        <ele>453.0</ele>
        <time>2020-10-19T07:53:11Z</time>
      </trkpt>
      <trkpt lat="42.8118050" lon="-7.6481230">
        <ele>453.0</ele>
        <time>2020-10-19T07:53:12Z</time>
      </trkpt>
      <trkpt lat="42.8118070" lon="-7.6481230">
        <ele>453.0</ele>
        <time>2020-10-19T07:53:13Z</time>
      </trkpt>
      <trkpt lat="42.8118100" lon="-7.6481230">
        <ele>453.0</ele>
        <time>2020-10-19T07:53:14Z</time>
      </trkpt>
      <trkpt lat="42.8118120" lon="-7.6481200">
        <ele>453.1</ele>
        <time>2020-10-19T07:53:15Z</time>
      </trkpt>
      <trkpt lat="42.8118120" lon="-7.6481190">
        <ele>453.1</ele>
        <time>2020-10-19T07:53:16Z</time>
      </trkpt>
      <trkpt lat="42.8118120" lon="-7.6481170">
        <ele>453.1</ele>
        <time>2020-10-19T07:53:17Z</time>
      </trkpt>
      <trkpt lat="42.8118120" lon="-7.6481180">
        <ele>453.1</ele>
        <time>2020-10-19T07:53:18Z</time>
      </trkpt>
      <trkpt lat="42.8118120" lon="-7.6481180">
        <ele>453.1</ele>
        <time>2020-10-19T07:53:19Z</time>
      </trkpt>
      <trkpt lat="42.8118110" lon="-7.6481260">
        <ele>453.1</ele>
        <time>2020-10-19T07:53:20Z</time>
      </trkpt>
      <trkpt lat="42.8118100" lon="-7.6481410">
        <ele>453.1</ele>
        <time>2020-10-19T07:53:21Z</time>
      </trkpt>
      <trkpt lat="42.8118090" lon="-7.6481620">
        <ele>453.1</ele>
        <time>2020-10-19T07:53:22Z</time>
      </trkpt>
      <trkpt lat="42.8118100" lon="-7.6481810">
        <ele>453.2</ele>
        <time>2020-10-19T07:53:23Z</time>
      </trkpt>
      <trkpt lat="42.8118120" lon="-7.6481980">
        <ele>453.2</ele>
        <time>2020-10-19T07:53:24Z</time>
      </trkpt>
      <trkpt lat="42.8118120" lon="-7.6482160">
        <ele>453.2</ele>
        <time>2020-10-19T07:53:25Z</time>
      </trkpt>
      <trkpt lat="42.8118120" lon="-7.6482350">
        <ele>453.3</ele>
        <time>2020-10-19T07:53:26Z</time>
      </trkpt>
      <trkpt lat="42.8118120" lon="-7.6482550">
        <ele>453.3</ele>
        <time>2020-10-19T07:53:27Z</time>
      </trkpt>
      <trkpt lat="42.8118100" lon="-7.6482740">
        <ele>453.4</ele>
        <time>2020-10-19T07:53:28Z</time>
      </trkpt>
      <trkpt lat="42.8118090" lon="-7.6482930">
        <ele>453.4</ele>
        <time>2020-10-19T07:53:29Z</time>
      </trkpt>
      <trkpt lat="42.8118100" lon="-7.6483100">
        <ele>453.4</ele>
        <time>2020-10-19T07:53:30Z</time>
      </trkpt>
      <trkpt lat="42.8118100" lon="-7.6483270">
        <ele>453.5</ele>
        <time>2020-10-19T07:53:31Z</time>
      </trkpt>
      <trkpt lat="42.8118110" lon="-7.6483450">
        <ele>453.5</ele>
        <time>2020-10-19T07:53:32Z</time>
      </trkpt>
      <trkpt lat="42.8118100" lon="-7.6483630">
        <ele>453.5</ele>
        <time>2020-10-19T07:53:33Z</time>
      </trkpt>
      <trkpt lat="42.8118100" lon="-7.6483820">
        <ele>453.6</ele>
        <time>2020-10-19T07:53:34Z</time>
      </trkpt>
      <trkpt lat="42.8118090" lon="-7.6483980">
        <ele>453.6</ele>
        <time>2020-10-19T07:53:35Z</time>
      </trkpt>
      <trkpt lat="42.8118100" lon="-7.6484140">
        <ele>453.6</ele>
        <time>2020-10-19T07:53:36Z</time>
      </trkpt>
      <trkpt lat="42.8118110" lon="-7.6484310">
        <ele>453.7</ele>
        <time>2020-10-19T07:53:37Z</time>
      </trkpt>
      <trkpt lat="42.8118120" lon="-7.6484470">
        <ele>453.7</ele>
        <time>2020-10-19T07:53:38Z</time>
      </trkpt>
      <trkpt lat="42.8118130" lon="-7.6484640">
        <ele>453.7</ele>
        <time>2020-10-19T07:53:39Z</time>
      </trkpt>
      <trkpt lat="42.8118140" lon="-7.6484810">
        <ele>453.8</ele>
        <time>2020-10-19T07:53:40Z</time>
      </trkpt>
      <trkpt lat="42.8118140" lon="-7.6484980">
        <ele>453.8</ele>
        <time>2020-10-19T07:53:41Z</time>
      </trkpt>
      <trkpt lat="42.8118150" lon="-7.6485130">
        <ele>453.8</ele>
        <time>2020-10-19T07:53:42Z</time>
      </trkpt>
      <trkpt lat="42.8118140" lon="-7.6485280">
        <ele>453.9</ele>
        <time>2020-10-19T07:53:43Z</time>
      </trkpt>
      <trkpt lat="42.8118120" lon="-7.6485430">
        <ele>453.9</ele>
        <time>2020-10-19T07:53:44Z</time>
      </trkpt>
      <trkpt lat="42.8118100" lon="-7.6485570">
        <ele>453.9</ele>
        <time>2020-10-19T07:53:45Z</time>
      </trkpt>
      <trkpt lat="42.8118090" lon="-7.6485700">
        <ele>454.0</ele>
        <time>2020-10-19T07:53:46Z</time>
      </trkpt>
      <trkpt lat="42.8118080" lon="-7.6485820">
        <ele>454.0</ele>
        <time>2020-10-19T07:53:47Z</time>
      </trkpt>
      <trkpt lat="42.8118080" lon="-7.6485970">
        <ele>454.0</ele>
        <time>2020-10-19T07:53:48Z</time>
      </trkpt>
      <trkpt lat="42.8118080" lon="-7.6486130">
        <ele>454.0</ele>
        <time>2020-10-19T07:53:49Z</time>
      </trkpt>
      <trkpt lat="42.8118080" lon="-7.6486300">
        <ele>454.1</ele>
        <time>2020-10-19T07:53:50Z</time>
      </trkpt>
      <trkpt lat="42.8118090" lon="-7.6486480">
        <ele>454.1</ele>
        <time>2020-10-19T07:53:51Z</time>
      </trkpt>
      <trkpt lat="42.8118100" lon="-7.6486640">
        <ele>454.1</ele>
        <time>2020-10-19T07:53:52Z</time>
      </trkpt>
      <trkpt lat="42.8118090" lon="-7.6486830">
        <ele>454.2</ele>
        <time>2020-10-19T07:53:53Z</time>
      </trkpt>
      <trkpt lat="42.8118080" lon="-7.6487000">
        <ele>454.2</ele>
        <time>2020-10-19T07:53:54Z</time>
      </trkpt>
      <trkpt lat="42.8118070" lon="-7.6487180">
        <ele>454.3</ele>
        <time>2020-10-19T07:53:55Z</time>
      </trkpt>
      <trkpt lat="42.8118080" lon="-7.6487370">
        <ele>454.3</ele>
        <time>2020-10-19T07:53:56Z</time>
      </trkpt>
      <trkpt lat="42.8118100" lon="-7.6487560">
        <ele>454.3</ele>
        <time>2020-10-19T07:53:57Z</time>
      </trkpt>
      <trkpt lat="42.8118110" lon="-7.6487730">
        <ele>454.4</ele>
        <time>2020-10-19T07:53:58Z</time>
      </trkpt>
      <trkpt lat="42.8118130" lon="-7.6487890">
        <ele>454.4</ele>
        <time>2020-10-19T07:53:59Z</time>
      </trkpt>
      <trkpt lat="42.8118120" lon="-7.6488040">
        <ele>454.4</ele>
        <time>2020-10-19T07:54:00Z</time>
      </trkpt>
      <trkpt lat="42.8118100" lon="-7.6488200">
        <ele>454.5</ele>
        <time>2020-10-19T07:54:01Z</time>
      </trkpt>
      <trkpt lat="42.8118100" lon="-7.6488360">
        <ele>454.5</ele>
        <time>2020-10-19T07:54:02Z</time>
      </trkpt>
      <trkpt lat="42.8118110" lon="-7.6488510">
        <ele>454.5</ele>
        <time>2020-10-19T07:54:03Z</time>
      </trkpt>
      <trkpt lat="42.8118120" lon="-7.6488680">
        <ele>454.6</ele>
        <time>2020-10-19T07:54:04Z</time>
      </trkpt>
      <trkpt lat="42.8118110" lon="-7.6488850">
        <ele>454.6</ele>
        <time>2020-10-19T07:54:05Z</time>
      </trkpt>
      <trkpt lat="42.8118110" lon="-7.6489020">
        <ele>454.7</ele>
        <time>2020-10-19T07:54:06Z</time>
      </trkpt>
      <trkpt lat="42.8118120" lon="-7.6489180">
        <ele>454.7</ele>
        <time>2020-10-19T07:54:07Z</time>
      </trkpt>
      <trkpt lat="42.8118140" lon="-7.6489360">
        <ele>454.8</ele>
        <time>2020-10-19T07:54:08Z</time>
      </trkpt>
      <trkpt lat="42.8118180" lon="-7.6489570">
        <ele>454.8</ele>
        <time>2020-10-19T07:54:09Z</time>
      </trkpt>
      <trkpt lat="42.8118250" lon="-7.6489840">
        <ele>454.9</ele>
        <time>2020-10-19T07:54:10Z</time>
      </trkpt>
      <trkpt lat="42.8118320" lon="-7.6490110">
        <ele>455.0</ele>
        <time>2020-10-19T07:54:11Z</time>
      </trkpt>
      <trkpt lat="42.8118360" lon="-7.6490370">
        <ele>455.1</ele>
        <time>2020-10-19T07:54:12Z</time>
      </trkpt>
      <trkpt lat="42.8118360" lon="-7.6490600">
        <ele>455.1</ele>
        <time>2020-10-19T07:54:13Z</time>
      </trkpt>
      <trkpt lat="42.8118350" lon="-7.6490810">
        <ele>455.2</ele>
        <time>2020-10-19T07:54:14Z</time>
      </trkpt>
      <trkpt lat="42.8118350" lon="-7.6491040">
        <ele>455.2</ele>
        <time>2020-10-19T07:54:15Z</time>
      </trkpt>
      <trkpt lat="42.8118360" lon="-7.6491260">
        <ele>455.3</ele>
        <time>2020-10-19T07:54:16Z</time>
      </trkpt>
      <trkpt lat="42.8118370" lon="-7.6491480">
        <ele>455.4</ele>
        <time>2020-10-19T07:54:17Z</time>
      </trkpt>
      <trkpt lat="42.8118380" lon="-7.6491700">
        <ele>455.4</ele>
        <time>2020-10-19T07:54:18Z</time>
      </trkpt>
      <trkpt lat="42.8118390" lon="-7.6491930">
        <ele>455.5</ele>
        <time>2020-10-19T07:54:19Z</time>
      </trkpt>
      <trkpt lat="42.8118380" lon="-7.6492180">
        <ele>455.6</ele>
        <time>2020-10-19T07:54:20Z</time>
      </trkpt>
      <trkpt lat="42.8118360" lon="-7.6492440">
        <ele>455.7</ele>
        <time>2020-10-19T07:54:21Z</time>
      </trkpt>
      <trkpt lat="42.8118330" lon="-7.6492700">
        <ele>455.8</ele>
        <time>2020-10-19T07:54:22Z</time>
      </trkpt>
      <trkpt lat="42.8118320" lon="-7.6492930">
        <ele>455.9</ele>
        <time>2020-10-19T07:54:23Z</time>
      </trkpt>
      <trkpt lat="42.8118310" lon="-7.6493150">
        <ele>455.9</ele>
        <time>2020-10-19T07:54:24Z</time>
      </trkpt>
      <trkpt lat="42.8118310" lon="-7.6493350">
        <ele>456.0</ele>
        <time>2020-10-19T07:54:25Z</time>
      </trkpt>
      <trkpt lat="42.8118310" lon="-7.6493560">
        <ele>456.1</ele>
        <time>2020-10-19T07:54:26Z</time>
      </trkpt>
      <trkpt lat="42.8118320" lon="-7.6493760">
        <ele>456.2</ele>
        <time>2020-10-19T07:54:27Z</time>
      </trkpt>
      <trkpt lat="42.8118320" lon="-7.6493950">
        <ele>456.2</ele>
        <time>2020-10-19T07:54:28Z</time>
      </trkpt>
      <trkpt lat="42.8118330" lon="-7.6494150">
        <ele>456.3</ele>
        <time>2020-10-19T07:54:29Z</time>
      </trkpt>
      <trkpt lat="42.8118330" lon="-7.6494370">
        <ele>456.4</ele>
        <time>2020-10-19T07:54:30Z</time>
      </trkpt>
      <trkpt lat="42.8118320" lon="-7.6494580">
        <ele>456.5</ele>
        <time>2020-10-19T07:54:31Z</time>
      </trkpt>
      <trkpt lat="42.8118310" lon="-7.6494780">
        <ele>456.6</ele>
        <time>2020-10-19T07:54:32Z</time>
      </trkpt>
      <trkpt lat="42.8118310" lon="-7.6494970">
        <ele>456.6</ele>
        <time>2020-10-19T07:54:33Z</time>
      </trkpt>
      <trkpt lat="42.8118310" lon="-7.6495160">
        <ele>456.7</ele>
        <time>2020-10-19T07:54:34Z</time>
      </trkpt>
      <trkpt lat="42.8118330" lon="-7.6495360">
        <ele>456.8</ele>
        <time>2020-10-19T07:54:35Z</time>
      </trkpt>
      <trkpt lat="42.8118350" lon="-7.6495550">
        <ele>456.9</ele>
        <time>2020-10-19T07:54:36Z</time>
      </trkpt>
      <trkpt lat="42.8118370" lon="-7.6495720">
        <ele>456.9</ele>
        <time>2020-10-19T07:54:37Z</time>
      </trkpt>
      <trkpt lat="42.8118380" lon="-7.6495910">
        <ele>457.0</ele>
        <time>2020-10-19T07:54:38Z</time>
      </trkpt>
      <trkpt lat="42.8118380" lon="-7.6496110">
        <ele>457.1</ele>
        <time>2020-10-19T07:54:39Z</time>
      </trkpt>
      <trkpt lat="42.8118370" lon="-7.6496320">
        <ele>457.2</ele>
        <time>2020-10-19T07:54:40Z</time>
      </trkpt>
      <trkpt lat="42.8118380" lon="-7.6496520">
        <ele>457.3</ele>
        <time>2020-10-19T07:54:41Z</time>
      </trkpt>
      <trkpt lat="42.8118380" lon="-7.6496720">
        <ele>457.4</ele>
        <time>2020-10-19T07:54:42Z</time>
      </trkpt>
      <trkpt lat="42.8118380" lon="-7.6496920">
        <ele>457.4</ele>
        <time>2020-10-19T07:54:43Z</time>
      </trkpt>
      <trkpt lat="42.8118390" lon="-7.6497120">
        <ele>457.5</ele>
        <time>2020-10-19T07:54:44Z</time>
      </trkpt>
      <trkpt lat="42.8118390" lon="-7.6497320">
        <ele>457.6</ele>
        <time>2020-10-19T07:54:45Z</time>
      </trkpt>
      <trkpt lat="42.8118390" lon="-7.6497520">
        <ele>457.7</ele>
        <time>2020-10-19T07:54:46Z</time>
      </trkpt>
      <trkpt lat="42.8118390" lon="-7.6497730">
        <ele>457.8</ele>
        <time>2020-10-19T07:54:47Z</time>
      </trkpt>
      <trkpt lat="42.8118400" lon="-7.6497940">
        <ele>457.9</ele>
        <time>2020-10-19T07:54:48Z</time>
      </trkpt>
      <trkpt lat="42.8118400" lon="-7.6498130">
        <ele>458.0</ele>
        <time>2020-10-19T07:54:49Z</time>
      </trkpt>
      <trkpt lat="42.8118410" lon="-7.6498320">
        <ele>458.0</ele>
        <time>2020-10-19T07:54:50Z</time>
      </trkpt>
      <trkpt lat="42.8118420" lon="-7.6498510">
        <ele>458.1</ele>
        <time>2020-10-19T07:54:51Z</time>
      </trkpt>
      <trkpt lat="42.8118420" lon="-7.6498700">
        <ele>458.2</ele>
        <time>2020-10-19T07:54:52Z</time>
      </trkpt>
      <trkpt lat="42.8118410" lon="-7.6498890">
        <ele>458.3</ele>
        <time>2020-10-19T07:54:53Z</time>
      </trkpt>
      <trkpt lat="42.8118410" lon="-7.6499080">
        <ele>458.4</ele>
        <time>2020-10-19T07:54:54Z</time>
      </trkpt>
      <trkpt lat="42.8118420" lon="-7.6499280">
        <ele>458.5</ele>
        <time>2020-10-19T07:54:55Z</time>
      </trkpt>
      <trkpt lat="42.8118420" lon="-7.6499490">
        <ele>458.5</ele>
        <time>2020-10-19T07:54:56Z</time>
      </trkpt>
      <trkpt lat="42.8118430" lon="-7.6499680">
        <ele>458.6</ele>
        <time>2020-10-19T07:54:57Z</time>
      </trkpt>
      <trkpt lat="42.8118450" lon="-7.6499860">
        <ele>458.7</ele>
        <time>2020-10-19T07:54:58Z</time>
      </trkpt>
      <trkpt lat="42.8118460" lon="-7.6500060">
        <ele>458.8</ele>
        <time>2020-10-19T07:54:59Z</time>
      </trkpt>
      <trkpt lat="42.8118460" lon="-7.6500250">
        <ele>458.9</ele>
        <time>2020-10-19T07:55:00Z</time>
      </trkpt>
      <trkpt lat="42.8118460" lon="-7.6500450">
        <ele>459.0</ele>
        <time>2020-10-19T07:55:01Z</time>
      </trkpt>
      <trkpt lat="42.8118470" lon="-7.6500640">
        <ele>459.1</ele>
        <time>2020-10-19T07:55:02Z</time>
      </trkpt>
      <trkpt lat="42.8118480" lon="-7.6500820">
        <ele>459.2</ele>
        <time>2020-10-19T07:55:03Z</time>
      </trkpt>
      <trkpt lat="42.8118490" lon="-7.6500990">
        <ele>459.2</ele>
        <time>2020-10-19T07:55:04Z</time>
      </trkpt>
      <trkpt lat="42.8118510" lon="-7.6501160">
        <ele>459.3</ele>
        <time>2020-10-19T07:55:05Z</time>
      </trkpt>
      <trkpt lat="42.8118530" lon="-7.6501330">
        <ele>459.4</ele>
        <time>2020-10-19T07:55:06Z</time>
      </trkpt>
      <trkpt lat="42.8118550" lon="-7.6501510">
        <ele>459.5</ele>
        <time>2020-10-19T07:55:07Z</time>
      </trkpt>
      <trkpt lat="42.8118550" lon="-7.6501710">
        <ele>459.6</ele>
        <time>2020-10-19T07:55:08Z</time>
      </trkpt>
      <trkpt lat="42.8118540" lon="-7.6501920">
        <ele>459.7</ele>
        <time>2020-10-19T07:55:09Z</time>
      </trkpt>
      <trkpt lat="42.8118540" lon="-7.6502130">
        <ele>459.8</ele>
        <time>2020-10-19T07:55:10Z</time>
      </trkpt>
      <trkpt lat="42.8118540" lon="-7.6502340">
        <ele>459.9</ele>
        <time>2020-10-19T07:55:11Z</time>
      </trkpt>
      <trkpt lat="42.8118550" lon="-7.6502540">
        <ele>460.0</ele>
        <time>2020-10-19T07:55:12Z</time>
      </trkpt>
      <trkpt lat="42.8118570" lon="-7.6502750">
        <ele>460.1</ele>
        <time>2020-10-19T07:55:13Z</time>
      </trkpt>
      <trkpt lat="42.8118580" lon="-7.6502950">
        <ele>460.1</ele>
        <time>2020-10-19T07:55:14Z</time>
      </trkpt>
      <trkpt lat="42.8118590" lon="-7.6503140">
        <ele>460.2</ele>
        <time>2020-10-19T07:55:15Z</time>
      </trkpt>
      <trkpt lat="42.8118590" lon="-7.6503330">
        <ele>460.3</ele>
        <time>2020-10-19T07:55:16Z</time>
      </trkpt>
      <trkpt lat="42.8118590" lon="-7.6503530">
        <ele>460.4</ele>
        <time>2020-10-19T07:55:17Z</time>
      </trkpt>
      <trkpt lat="42.8118600" lon="-7.6503740">
        <ele>460.5</ele>
        <time>2020-10-19T07:55:18Z</time>
      </trkpt>
      <trkpt lat="42.8118610" lon="-7.6503940">
        <ele>460.6</ele>
        <time>2020-10-19T07:55:19Z</time>
      </trkpt>
      <trkpt lat="42.8118620" lon="-7.6504140">
        <ele>460.7</ele>
        <time>2020-10-19T07:55:20Z</time>
      </trkpt>
      <trkpt lat="42.8118630" lon="-7.6504320">
        <ele>460.8</ele>
        <time>2020-10-19T07:55:21Z</time>
      </trkpt>
      <trkpt lat="42.8118640" lon="-7.6504510">
        <ele>460.8</ele>
        <time>2020-10-19T07:55:22Z</time>
      </trkpt>
      <trkpt lat="42.8118630" lon="-7.6504690">
        <ele>460.9</ele>
        <time>2020-10-19T07:55:23Z</time>
      </trkpt>
      <trkpt lat="42.8118620" lon="-7.6504860">
        <ele>461.0</ele>
        <time>2020-10-19T07:55:24Z</time>
      </trkpt>
      <trkpt lat="42.8118620" lon="-7.6505040">
        <ele>461.1</ele>
        <time>2020-10-19T07:55:25Z</time>
      </trkpt>
      <trkpt lat="42.8118620" lon="-7.6505210">
        <ele>461.1</ele>
        <time>2020-10-19T07:55:26Z</time>
      </trkpt>
      <trkpt lat="42.8118620" lon="-7.6505410">
        <ele>461.2</ele>
        <time>2020-10-19T07:55:27Z</time>
      </trkpt>
      <trkpt lat="42.8118620" lon="-7.6505610">
        <ele>461.3</ele>
        <time>2020-10-19T07:55:28Z</time>
      </trkpt>
      <trkpt lat="42.8118620" lon="-7.6505800">
        <ele>461.4</ele>
        <time>2020-10-19T07:55:29Z</time>
      </trkpt>
      <trkpt lat="42.8118620" lon="-7.6505970">
        <ele>461.5</ele>
        <time>2020-10-19T07:55:30Z</time>
      </trkpt>
      <trkpt lat="42.8118620" lon="-7.6506140">
        <ele>461.5</ele>
        <time>2020-10-19T07:55:31Z</time>
      </trkpt>
      <trkpt lat="42.8118610" lon="-7.6506320">
        <ele>461.6</ele>
        <time>2020-10-19T07:55:32Z</time>
      </trkpt>
      <trkpt lat="42.8118610" lon="-7.6506490">
        <ele>461.7</ele>
        <time>2020-10-19T07:55:33Z</time>
      </trkpt>
      <trkpt lat="42.8118620" lon="-7.6506660">
        <ele>461.8</ele>
        <time>2020-10-19T07:55:34Z</time>
      </trkpt>
      <trkpt lat="42.8118630" lon="-7.6506830">
        <ele>461.8</ele>
        <time>2020-10-19T07:55:35Z</time>
      </trkpt>
      <trkpt lat="42.8118640" lon="-7.6507000">
        <ele>461.9</ele>
        <time>2020-10-19T07:55:36Z</time>
      </trkpt>
      <trkpt lat="42.8118660" lon="-7.6507180">
        <ele>462.0</ele>
        <time>2020-10-19T07:55:37Z</time>
      </trkpt>
      <trkpt lat="42.8118670" lon="-7.6507360">
        <ele>462.1</ele>
        <time>2020-10-19T07:55:38Z</time>
      </trkpt>
      <trkpt lat="42.8118680" lon="-7.6507540">
        <ele>462.1</ele>
        <time>2020-10-19T07:55:39Z</time>
      </trkpt>
      <trkpt lat="42.8118680" lon="-7.6507720">
        <ele>462.2</ele>
        <time>2020-10-19T07:55:40Z</time>
      </trkpt>
      <trkpt lat="42.8118680" lon="-7.6507890">
        <ele>462.3</ele>
        <time>2020-10-19T07:55:41Z</time>
      </trkpt>
      <trkpt lat="42.8118690" lon="-7.6508060">
        <ele>462.4</ele>
        <time>2020-10-19T07:55:42Z</time>
      </trkpt>
      <trkpt lat="42.8118710" lon="-7.6508230">
        <ele>462.4</ele>
        <time>2020-10-19T07:55:43Z</time>
      </trkpt>
      <trkpt lat="42.8118720" lon="-7.6508390">
        <ele>462.5</ele>
        <time>2020-10-19T07:55:44Z</time>
      </trkpt>
      <trkpt lat="42.8118720" lon="-7.6508550">
        <ele>462.6</ele>
        <time>2020-10-19T07:55:45Z</time>
      </trkpt>
      <trkpt lat="42.8118730" lon="-7.6508720">
        <ele>462.6</ele>
        <time>2020-10-19T07:55:46Z</time>
      </trkpt>
      <trkpt lat="42.8118730" lon="-7.6508890">
        <ele>462.7</ele>
        <time>2020-10-19T07:55:47Z</time>
      </trkpt>
      <trkpt lat="42.8118730" lon="-7.6509070">
        <ele>462.8</ele>
        <time>2020-10-19T07:55:48Z</time>
      </trkpt>
      <trkpt lat="42.8118730" lon="-7.6509240">
        <ele>462.8</ele>
        <time>2020-10-19T07:55:49Z</time>
      </trkpt>
      <trkpt lat="42.8118740" lon="-7.6509410">
        <ele>462.9</ele>
        <time>2020-10-19T07:55:50Z</time>
      </trkpt>
      <trkpt lat="42.8118750" lon="-7.6509560">
        <ele>463.0</ele>
        <time>2020-10-19T07:55:51Z</time>
      </trkpt>
      <trkpt lat="42.8118750" lon="-7.6509700">
        <ele>463.0</ele>
        <time>2020-10-19T07:55:52Z</time>
      </trkpt>
      <trkpt lat="42.8118750" lon="-7.6509840">
        <ele>463.1</ele>
        <time>2020-10-19T07:55:53Z</time>
      </trkpt>
      <trkpt lat="42.8118770" lon="-7.6509980">
        <ele>463.1</ele>
        <time>2020-10-19T07:55:54Z</time>
      </trkpt>
      <trkpt lat="42.8118800" lon="-7.6510140">
        <ele>463.2</ele>
        <time>2020-10-19T07:55:55Z</time>
      </trkpt>
      <trkpt lat="42.8118820" lon="-7.6510300">
        <ele>463.2</ele>
        <time>2020-10-19T07:55:56Z</time>
      </trkpt>
      <trkpt lat="42.8118820" lon="-7.6510470">
        <ele>463.3</ele>
        <time>2020-10-19T07:55:57Z</time>
      </trkpt>
      <trkpt lat="42.8118830" lon="-7.6510640">
        <ele>463.4</ele>
        <time>2020-10-19T07:55:58Z</time>
      </trkpt>
      <trkpt lat="42.8118820" lon="-7.6510800">
        <ele>463.4</ele>
        <time>2020-10-19T07:55:59Z</time>
      </trkpt>
      <trkpt lat="42.8118820" lon="-7.6510980">
        <ele>463.5</ele>
        <time>2020-10-19T07:56:00Z</time>
      </trkpt>
      <trkpt lat="42.8118820" lon="-7.6511150">
        <ele>463.5</ele>
        <time>2020-10-19T07:56:01Z</time>
      </trkpt>
      <trkpt lat="42.8118820" lon="-7.6511310">
        <ele>463.6</ele>
        <time>2020-10-19T07:56:02Z</time>
      </trkpt>
      <trkpt lat="42.8118820" lon="-7.6511470">
        <ele>463.7</ele>
        <time>2020-10-19T07:56:03Z</time>
      </trkpt>
      <trkpt lat="42.8118830" lon="-7.6511620">
        <ele>463.7</ele>
        <time>2020-10-19T07:56:04Z</time>
      </trkpt>
      <trkpt lat="42.8118850" lon="-7.6511770">
        <ele>463.8</ele>
        <time>2020-10-19T07:56:05Z</time>
      </trkpt>
      <trkpt lat="42.8118860" lon="-7.6511930">
        <ele>463.9</ele>
        <time>2020-10-19T07:56:06Z</time>
      </trkpt>
      <trkpt lat="42.8118870" lon="-7.6512100">
        <ele>463.9</ele>
        <time>2020-10-19T07:56:07Z</time>
      </trkpt>
      <trkpt lat="42.8118880" lon="-7.6512270">
        <ele>464.0</ele>
        <time>2020-10-19T07:56:08Z</time>
      </trkpt>
      <trkpt lat="42.8118880" lon="-7.6512440">
        <ele>464.1</ele>
        <time>2020-10-19T07:56:09Z</time>
      </trkpt>
      <trkpt lat="42.8118900" lon="-7.6512610">
        <ele>464.1</ele>
        <time>2020-10-19T07:56:10Z</time>
      </trkpt>
      <trkpt lat="42.8118920" lon="-7.6512780">
        <ele>464.2</ele>
        <time>2020-10-19T07:56:11Z</time>
      </trkpt>
      <trkpt lat="42.8118920" lon="-7.6512940">
        <ele>464.2</ele>
        <time>2020-10-19T07:56:12Z</time>
      </trkpt>
      <trkpt lat="42.8118910" lon="-7.6513090">
        <ele>464.3</ele>
        <time>2020-10-19T07:56:13Z</time>
      </trkpt>
      <trkpt lat="42.8118900" lon="-7.6513260">
        <ele>464.4</ele>
        <time>2020-10-19T07:56:14Z</time>
      </trkpt>
      <trkpt lat="42.8118880" lon="-7.6513410">
        <ele>464.4</ele>
        <time>2020-10-19T07:56:15Z</time>
      </trkpt>
      <trkpt lat="42.8118870" lon="-7.6513580">
        <ele>464.5</ele>
        <time>2020-10-19T07:56:16Z</time>
      </trkpt>
      <trkpt lat="42.8118870" lon="-7.6513730">
        <ele>464.6</ele>
        <time>2020-10-19T07:56:17Z</time>
      </trkpt>
      <trkpt lat="42.8118870" lon="-7.6513890">
        <ele>464.6</ele>
        <time>2020-10-19T07:56:18Z</time>
      </trkpt>
      <trkpt lat="42.8118860" lon="-7.6514030">
        <ele>464.7</ele>
        <time>2020-10-19T07:56:19Z</time>
      </trkpt>
      <trkpt lat="42.8118860" lon="-7.6514180">
        <ele>464.7</ele>
        <time>2020-10-19T07:56:20Z</time>
      </trkpt>
      <trkpt lat="42.8118860" lon="-7.6514330">
        <ele>464.8</ele>
        <time>2020-10-19T07:56:21Z</time>
      </trkpt>
      <trkpt lat="42.8118870" lon="-7.6514500">
        <ele>464.8</ele>
        <time>2020-10-19T07:56:22Z</time>
      </trkpt>
      <trkpt lat="42.8118870" lon="-7.6514670">
        <ele>464.9</ele>
        <time>2020-10-19T07:56:23Z</time>
      </trkpt>
      <trkpt lat="42.8118870" lon="-7.6514850">
        <ele>465.0</ele>
        <time>2020-10-19T07:56:24Z</time>
      </trkpt>
      <trkpt lat="42.8118870" lon="-7.6515030">
        <ele>465.0</ele>
        <time>2020-10-19T07:56:25Z</time>
      </trkpt>
      <trkpt lat="42.8118870" lon="-7.6515220">
        <ele>465.1</ele>
        <time>2020-10-19T07:56:26Z</time>
      </trkpt>
      <trkpt lat="42.8118860" lon="-7.6515400">
        <ele>465.2</ele>
        <time>2020-10-19T07:56:27Z</time>
      </trkpt>
      <trkpt lat="42.8118870" lon="-7.6515580">
        <ele>465.2</ele>
        <time>2020-10-19T07:56:28Z</time>
      </trkpt>
      <trkpt lat="42.8118880" lon="-7.6515740">
        <ele>465.3</ele>
        <time>2020-10-19T07:56:29Z</time>
      </trkpt>
      <trkpt lat="42.8118900" lon="-7.6515900">
        <ele>465.3</ele>
        <time>2020-10-19T07:56:30Z</time>
      </trkpt>
      <trkpt lat="42.8118910" lon="-7.6516070">
        <ele>465.4</ele>
        <time>2020-10-19T07:56:31Z</time>
      </trkpt>
      <trkpt lat="42.8118910" lon="-7.6516260">
        <ele>465.5</ele>
        <time>2020-10-19T07:56:32Z</time>
      </trkpt>
      <trkpt lat="42.8118920" lon="-7.6516450">
        <ele>465.5</ele>
        <time>2020-10-19T07:56:33Z</time>
      </trkpt>
      <trkpt lat="42.8118930" lon="-7.6516630">
        <ele>465.6</ele>
        <time>2020-10-19T07:56:34Z</time>
      </trkpt>
      <trkpt lat="42.8118940" lon="-7.6516800">
        <ele>465.6</ele>
        <time>2020-10-19T07:56:35Z</time>
      </trkpt>
      <trkpt lat="42.8118950" lon="-7.6516990">
        <ele>465.7</ele>
        <time>2020-10-19T07:56:36Z</time>
      </trkpt>
      <trkpt lat="42.8118970" lon="-7.6517160">
        <ele>465.7</ele>
        <time>2020-10-19T07:56:37Z</time>
      </trkpt>
      <trkpt lat="42.8118990" lon="-7.6517350">
        <ele>465.8</ele>
        <time>2020-10-19T07:56:38Z</time>
      </trkpt>
      <trkpt lat="42.8119010" lon="-7.6517520">
        <ele>465.8</ele>
        <time>2020-10-19T07:56:39Z</time>
      </trkpt>
      <trkpt lat="42.8119030" lon="-7.6517700">
        <ele>465.9</ele>
        <time>2020-10-19T07:56:40Z</time>
      </trkpt>
      <trkpt lat="42.8119050" lon="-7.6517890">
        <ele>465.9</ele>
        <time>2020-10-19T07:56:41Z</time>
      </trkpt>
      <trkpt lat="42.8119060" lon="-7.6518080">
        <ele>466.0</ele>
        <time>2020-10-19T07:56:42Z</time>
      </trkpt>
      <trkpt lat="42.8119060" lon="-7.6518260">
        <ele>466.0</ele>
        <time>2020-10-19T07:56:43Z</time>
      </trkpt>
      <trkpt lat="42.8119060" lon="-7.6518440">
        <ele>466.0</ele>
        <time>2020-10-19T07:56:44Z</time>
      </trkpt>
      <trkpt lat="42.8119060" lon="-7.6518620">
        <ele>466.1</ele>
        <time>2020-10-19T07:56:45Z</time>
      </trkpt>
      <trkpt lat="42.8119060" lon="-7.6518790">
        <ele>466.1</ele>
        <time>2020-10-19T07:56:46Z</time>
      </trkpt>
      <trkpt lat="42.8119050" lon="-7.6518980">
        <ele>466.1</ele>
        <time>2020-10-19T07:56:47Z</time>
      </trkpt>
      <trkpt lat="42.8119040" lon="-7.6519160">
        <ele>466.2</ele>
        <time>2020-10-19T07:56:48Z</time>
      </trkpt>
      <trkpt lat="42.8119030" lon="-7.6519340">
        <ele>466.2</ele>
        <time>2020-10-19T07:56:49Z</time>
      </trkpt>
      <trkpt lat="42.8119030" lon="-7.6519510">
        <ele>466.2</ele>
        <time>2020-10-19T07:56:50Z</time>
      </trkpt>
      <trkpt lat="42.8119020" lon="-7.6519680">
        <ele>466.3</ele>
        <time>2020-10-19T07:56:51Z</time>
      </trkpt>
      <trkpt lat="42.8119030" lon="-7.6519860">
        <ele>466.3</ele>
        <time>2020-10-19T07:56:52Z</time>
      </trkpt>
      <trkpt lat="42.8119030" lon="-7.6520040">
        <ele>466.3</ele>
        <time>2020-10-19T07:56:53Z</time>
      </trkpt>
      <trkpt lat="42.8119040" lon="-7.6520210">
        <ele>466.4</ele>
        <time>2020-10-19T07:56:54Z</time>
      </trkpt>
      <trkpt lat="42.8119040" lon="-7.6520380">
        <ele>466.4</ele>
        <time>2020-10-19T07:56:55Z</time>
      </trkpt>
      <trkpt lat="42.8119050" lon="-7.6520550">
        <ele>466.4</ele>
        <time>2020-10-19T07:56:56Z</time>
      </trkpt>
      <trkpt lat="42.8119060" lon="-7.6520730">
        <ele>466.4</ele>
        <time>2020-10-19T07:56:57Z</time>
      </trkpt>
      <trkpt lat="42.8119070" lon="-7.6520870">
        <ele>466.5</ele>
        <time>2020-10-19T07:56:58Z</time>
      </trkpt>
      <trkpt lat="42.8119070" lon="-7.6520990">
        <ele>466.5</ele>
        <time>2020-10-19T07:56:59Z</time>
      </trkpt>
      <trkpt lat="42.8119090" lon="-7.6521120">
        <ele>466.5</ele>
        <time>2020-10-19T07:57:00Z</time>
      </trkpt>
      <trkpt lat="42.8119110" lon="-7.6521280">
        <ele>466.5</ele>
        <time>2020-10-19T07:57:01Z</time>
      </trkpt>
      <trkpt lat="42.8119120" lon="-7.6521480">
        <ele>466.5</ele>
        <time>2020-10-19T07:57:02Z</time>
      </trkpt>
      <trkpt lat="42.8119140" lon="-7.6521670">
        <ele>466.5</ele>
        <time>2020-10-19T07:57:03Z</time>
      </trkpt>
      <trkpt lat="42.8119150" lon="-7.6521850">
        <ele>466.6</ele>
        <time>2020-10-19T07:57:04Z</time>
      </trkpt>
      <trkpt lat="42.8119160" lon="-7.6522030">
        <ele>466.6</ele>
        <time>2020-10-19T07:57:05Z</time>
      </trkpt>
      <trkpt lat="42.8119160" lon="-7.6522200">
        <ele>466.6</ele>
        <time>2020-10-19T07:57:06Z</time>
      </trkpt>
      <trkpt lat="42.8119170" lon="-7.6522370">
        <ele>466.6</ele>
        <time>2020-10-19T07:57:07Z</time>
      </trkpt>
      <trkpt lat="42.8119180" lon="-7.6522540">
        <ele>466.6</ele>
        <time>2020-10-19T07:57:08Z</time>
      </trkpt>
      <trkpt lat="42.8119190" lon="-7.6522710">
        <ele>466.6</ele>
        <time>2020-10-19T07:57:09Z</time>
      </trkpt>
      <trkpt lat="42.8119190" lon="-7.6522890">
        <ele>466.6</ele>
        <time>2020-10-19T07:57:10Z</time>
      </trkpt>
      <trkpt lat="42.8119190" lon="-7.6523090">
        <ele>466.6</ele>
        <time>2020-10-19T07:57:11Z</time>
      </trkpt>
      <trkpt lat="42.8119190" lon="-7.6523280">
        <ele>466.6</ele>
        <time>2020-10-19T07:57:12Z</time>
      </trkpt>
      <trkpt lat="42.8119180" lon="-7.6523480">
        <ele>466.7</ele>
        <time>2020-10-19T07:57:13Z</time>
      </trkpt>
      <trkpt lat="42.8119170" lon="-7.6523670">
        <ele>466.7</ele>
        <time>2020-10-19T07:57:14Z</time>
      </trkpt>
      <trkpt lat="42.8119160" lon="-7.6523880">
        <ele>466.7</ele>
        <time>2020-10-19T07:57:15Z</time>
      </trkpt>
      <trkpt lat="42.8119150" lon="-7.6524080">
        <ele>466.7</ele>
        <time>2020-10-19T07:57:16Z</time>
      </trkpt>
      <trkpt lat="42.8119140" lon="-7.6524270">
        <ele>466.7</ele>
        <time>2020-10-19T07:57:17Z</time>
      </trkpt>
      <trkpt lat="42.8119130" lon="-7.6524440">
        <ele>466.7</ele>
        <time>2020-10-19T07:57:18Z</time>
      </trkpt>
      <trkpt lat="42.8119130" lon="-7.6524620">
        <ele>466.7</ele>
        <time>2020-10-19T07:57:19Z</time>
      </trkpt>
      <trkpt lat="42.8119140" lon="-7.6524790">
        <ele>466.7</ele>
        <time>2020-10-19T07:57:20Z</time>
      </trkpt>
      <trkpt lat="42.8119140" lon="-7.6524970">
        <ele>466.7</ele>
        <time>2020-10-19T07:57:21Z</time>
      </trkpt>
      <trkpt lat="42.8119140" lon="-7.6525150">
        <ele>466.7</ele>
        <time>2020-10-19T07:57:22Z</time>
      </trkpt>
      <trkpt lat="42.8119140" lon="-7.6525330">
        <ele>466.7</ele>
        <time>2020-10-19T07:57:23Z</time>
      </trkpt>
      <trkpt lat="42.8119130" lon="-7.6525500">
        <ele>466.7</ele>
        <time>2020-10-19T07:57:24Z</time>
      </trkpt>
      <trkpt lat="42.8119140" lon="-7.6525680">
        <ele>466.7</ele>
        <time>2020-10-19T07:57:25Z</time>
      </trkpt>
      <trkpt lat="42.8119150" lon="-7.6525850">
        <ele>466.7</ele>
        <time>2020-10-19T07:57:26Z</time>
      </trkpt>
      <trkpt lat="42.8119150" lon="-7.6526030">
        <ele>466.8</ele>
        <time>2020-10-19T07:57:27Z</time>
      </trkpt>
      <trkpt lat="42.8119160" lon="-7.6526210">
        <ele>466.8</ele>
        <time>2020-10-19T07:57:28Z</time>
      </trkpt>
      <trkpt lat="42.8119170" lon="-7.6526390">
        <ele>466.8</ele>
        <time>2020-10-19T07:57:29Z</time>
      </trkpt>
      <trkpt lat="42.8119170" lon="-7.6526570">
        <ele>466.8</ele>
        <time>2020-10-19T07:57:30Z</time>
      </trkpt>
      <trkpt lat="42.8119180" lon="-7.6526740">
        <ele>466.8</ele>
        <time>2020-10-19T07:57:31Z</time>
      </trkpt>
      <trkpt lat="42.8119180" lon="-7.6526910">
        <ele>466.8</ele>
        <time>2020-10-19T07:57:32Z</time>
      </trkpt>
      <trkpt lat="42.8119190" lon="-7.6527090">
        <ele>466.8</ele>
        <time>2020-10-19T07:57:33Z</time>
      </trkpt>
      <trkpt lat="42.8119200" lon="-7.6527260">
        <ele>466.8</ele>
        <time>2020-10-19T07:57:34Z</time>
      </trkpt>
      <trkpt lat="42.8119210" lon="-7.6527440">
        <ele>466.8</ele>
        <time>2020-10-19T07:57:35Z</time>
      </trkpt>
      <trkpt lat="42.8119220" lon="-7.6527620">
        <ele>466.8</ele>
        <time>2020-10-19T07:57:36Z</time>
      </trkpt>
      <trkpt lat="42.8119220" lon="-7.6527790">
        <ele>466.8</ele>
        <time>2020-10-19T07:57:37Z</time>
      </trkpt>
      <trkpt lat="42.8119220" lon="-7.6527970">
        <ele>466.8</ele>
        <time>2020-10-19T07:57:38Z</time>
      </trkpt>
      <trkpt lat="42.8119220" lon="-7.6528150">
        <ele>466.8</ele>
        <time>2020-10-19T07:57:39Z</time>
      </trkpt>
      <trkpt lat="42.8119220" lon="-7.6528330">
        <ele>466.8</ele>
        <time>2020-10-19T07:57:40Z</time>
      </trkpt>
      <trkpt lat="42.8119220" lon="-7.6528510">
        <ele>466.8</ele>
        <time>2020-10-19T07:57:41Z</time>
      </trkpt>
      <trkpt lat="42.8119220" lon="-7.6528680">
        <ele>466.8</ele>
        <time>2020-10-19T07:57:42Z</time>
      </trkpt>
      <trkpt lat="42.8119230" lon="-7.6528850">
        <ele>466.8</ele>
        <time>2020-10-19T07:57:43Z</time>
      </trkpt>
      <trkpt lat="42.8119240" lon="-7.6529020">
        <ele>466.8</ele>
        <time>2020-10-19T07:57:44Z</time>
      </trkpt>
      <trkpt lat="42.8119250" lon="-7.6529180">
        <ele>466.8</ele>
        <time>2020-10-19T07:57:45Z</time>
      </trkpt>
      <trkpt lat="42.8119260" lon="-7.6529350">
        <ele>466.9</ele>
        <time>2020-10-19T07:57:46Z</time>
      </trkpt>
      <trkpt lat="42.8119270" lon="-7.6529520">
        <ele>466.9</ele>
        <time>2020-10-19T07:57:47Z</time>
      </trkpt>
      <trkpt lat="42.8119280" lon="-7.6529700">
        <ele>466.9</ele>
        <time>2020-10-19T07:57:48Z</time>
      </trkpt>
      <trkpt lat="42.8119290" lon="-7.6529870">
        <ele>466.9</ele>
        <time>2020-10-19T07:57:49Z</time>
      </trkpt>
      <trkpt lat="42.8119290" lon="-7.6530050">
        <ele>466.9</ele>
        <time>2020-10-19T07:57:50Z</time>
      </trkpt>
      <trkpt lat="42.8119300" lon="-7.6530220">
        <ele>466.9</ele>
        <time>2020-10-19T07:57:51Z</time>
      </trkpt>
      <trkpt lat="42.8119310" lon="-7.6530390">
        <ele>466.9</ele>
        <time>2020-10-19T07:57:52Z</time>
      </trkpt>
      <trkpt lat="42.8119320" lon="-7.6530560">
        <ele>466.9</ele>
        <time>2020-10-19T07:57:53Z</time>
      </trkpt>
      <trkpt lat="42.8119330" lon="-7.6530720">
        <ele>466.9</ele>
        <time>2020-10-19T07:57:54Z</time>
      </trkpt>
      <trkpt lat="42.8119340" lon="-7.6530900">
        <ele>466.9</ele>
        <time>2020-10-19T07:57:55Z</time>
      </trkpt>
      <trkpt lat="42.8119340" lon="-7.6531070">
        <ele>466.9</ele>
        <time>2020-10-19T07:57:56Z</time>
      </trkpt>
      <trkpt lat="42.8119360" lon="-7.6531250">
        <ele>466.9</ele>
        <time>2020-10-19T07:57:57Z</time>
      </trkpt>
      <trkpt lat="42.8119370" lon="-7.6531420">
        <ele>466.9</ele>
        <time>2020-10-19T07:57:58Z</time>
      </trkpt>
      <trkpt lat="42.8119370" lon="-7.6531600">
        <ele>466.9</ele>
        <time>2020-10-19T07:57:59Z</time>
      </trkpt>
      <trkpt lat="42.8119380" lon="-7.6531770">
        <ele>466.9</ele>
        <time>2020-10-19T07:58:00Z</time>
      </trkpt>
      <trkpt lat="42.8119380" lon="-7.6531950">
        <ele>466.9</ele>
        <time>2020-10-19T07:58:01Z</time>
      </trkpt>
      <trkpt lat="42.8119400" lon="-7.6532130">
        <ele>466.9</ele>
        <time>2020-10-19T07:58:02Z</time>
      </trkpt>
      <trkpt lat="42.8119410" lon="-7.6532300">
        <ele>466.9</ele>
        <time>2020-10-19T07:58:03Z</time>
      </trkpt>
      <trkpt lat="42.8119420" lon="-7.6532480">
        <ele>466.9</ele>
        <time>2020-10-19T07:58:04Z</time>
      </trkpt>
      <trkpt lat="42.8119440" lon="-7.6532640">
        <ele>466.9</ele>
        <time>2020-10-19T07:58:05Z</time>
      </trkpt>
      <trkpt lat="42.8119450" lon="-7.6532810">
        <ele>466.9</ele>
        <time>2020-10-19T07:58:06Z</time>
      </trkpt>
      <trkpt lat="42.8119460" lon="-7.6532970">
        <ele>466.9</ele>
        <time>2020-10-19T07:58:07Z</time>
      </trkpt>
      <trkpt lat="42.8119470" lon="-7.6533140">
        <ele>466.9</ele>
        <time>2020-10-19T07:58:08Z</time>
      </trkpt>
      <trkpt lat="42.8119480" lon="-7.6533320">
        <ele>466.9</ele>
        <time>2020-10-19T07:58:09Z</time>
      </trkpt>
      <trkpt lat="42.8119500" lon="-7.6533490">
        <ele>466.9</ele>
        <time>2020-10-19T07:58:10Z</time>
      </trkpt>
      <trkpt lat="42.8119510" lon="-7.6533670">
        <ele>466.9</ele>
        <time>2020-10-19T07:58:11Z</time>
      </trkpt>
      <trkpt lat="42.8119510" lon="-7.6533840">
        <ele>466.9</ele>
        <time>2020-10-19T07:58:12Z</time>
      </trkpt>
      <trkpt lat="42.8119510" lon="-7.6534020">
        <ele>466.9</ele>
        <time>2020-10-19T07:58:13Z</time>
      </trkpt>
      <trkpt lat="42.8119500" lon="-7.6534180">
        <ele>467.0</ele>
        <time>2020-10-19T07:58:14Z</time>
      </trkpt>
      <trkpt lat="42.8119500" lon="-7.6534350">
        <ele>467.0</ele>
        <time>2020-10-19T07:58:15Z</time>
      </trkpt>
      <trkpt lat="42.8119490" lon="-7.6534520">
        <ele>467.0</ele>
        <time>2020-10-19T07:58:16Z</time>
      </trkpt>
      <trkpt lat="42.8119490" lon="-7.6534690">
        <ele>467.0</ele>
        <time>2020-10-19T07:58:17Z</time>
      </trkpt>
      <trkpt lat="42.8119490" lon="-7.6534860">
        <ele>467.0</ele>
        <time>2020-10-19T07:58:18Z</time>
      </trkpt>
      <trkpt lat="42.8119500" lon="-7.6535020">
        <ele>467.0</ele>
        <time>2020-10-19T07:58:19Z</time>
      </trkpt>
      <trkpt lat="42.8119520" lon="-7.6535190">
        <ele>467.0</ele>
        <time>2020-10-19T07:58:20Z</time>
      </trkpt>
      <trkpt lat="42.8119530" lon="-7.6535360">
        <ele>467.0</ele>
        <time>2020-10-19T07:58:21Z</time>
      </trkpt>
      <trkpt lat="42.8119530" lon="-7.6535530">
        <ele>467.0</ele>
        <time>2020-10-19T07:58:22Z</time>
      </trkpt>
      <trkpt lat="42.8119530" lon="-7.6535710">
        <ele>467.0</ele>
        <time>2020-10-19T07:58:23Z</time>
      </trkpt>
      <trkpt lat="42.8119540" lon="-7.6535880">
        <ele>467.0</ele>
        <time>2020-10-19T07:58:24Z</time>
      </trkpt>
      <trkpt lat="42.8119550" lon="-7.6536040">
        <ele>467.0</ele>
        <time>2020-10-19T07:58:25Z</time>
      </trkpt>
      <trkpt lat="42.8119550" lon="-7.6536220">
        <ele>467.0</ele>
        <time>2020-10-19T07:58:26Z</time>
      </trkpt>
      <trkpt lat="42.8119550" lon="-7.6536410">
        <ele>467.0</ele>
        <time>2020-10-19T07:58:27Z</time>
      </trkpt>
      <trkpt lat="42.8119540" lon="-7.6536590">
        <ele>467.0</ele>
        <time>2020-10-19T07:58:28Z</time>
      </trkpt>
      <trkpt lat="42.8119540" lon="-7.6536760">
        <ele>467.0</ele>
        <time>2020-10-19T07:58:29Z</time>
      </trkpt>
      <trkpt lat="42.8119540" lon="-7.6536930">
        <ele>467.0</ele>
        <time>2020-10-19T07:58:30Z</time>
      </trkpt>
      <trkpt lat="42.8119560" lon="-7.6537100">
        <ele>467.0</ele>
        <time>2020-10-19T07:58:31Z</time>
      </trkpt>
      <trkpt lat="42.8119570" lon="-7.6537270">
        <ele>467.1</ele>
        <time>2020-10-19T07:58:32Z</time>
      </trkpt>
      <trkpt lat="42.8119580" lon="-7.6537440">
        <ele>467.1</ele>
        <time>2020-10-19T07:58:33Z</time>
      </trkpt>
      <trkpt lat="42.8119600" lon="-7.6537610">
        <ele>467.1</ele>
        <time>2020-10-19T07:58:34Z</time>
      </trkpt>
      <trkpt lat="42.8119620" lon="-7.6537780">
        <ele>467.1</ele>
        <time>2020-10-19T07:58:35Z</time>
      </trkpt>
      <trkpt lat="42.8119630" lon="-7.6537950">
        <ele>467.1</ele>
        <time>2020-10-19T07:58:36Z</time>
      </trkpt>
      <trkpt lat="42.8119640" lon="-7.6538130">
        <ele>467.1</ele>
        <time>2020-10-19T07:58:37Z</time>
      </trkpt>
      <trkpt lat="42.8119660" lon="-7.6538300">
        <ele>467.1</ele>
        <time>2020-10-19T07:58:38Z</time>
      </trkpt>
      <trkpt lat="42.8119680" lon="-7.6538490">
        <ele>467.1</ele>
        <time>2020-10-19T07:58:39Z</time>
      </trkpt>
      <trkpt lat="42.8119700" lon="-7.6538680">
        <ele>467.1</ele>
        <time>2020-10-19T07:58:40Z</time>
      </trkpt>
      <trkpt lat="42.8119710" lon="-7.6538860">
        <ele>467.1</ele>
        <time>2020-10-19T07:58:41Z</time>
      </trkpt>
      <trkpt lat="42.8119720" lon="-7.6539050">
        <ele>467.1</ele>
        <time>2020-10-19T07:58:42Z</time>
      </trkpt>
      <trkpt lat="42.8119720" lon="-7.6539230">
        <ele>467.1</ele>
        <time>2020-10-19T07:58:43Z</time>
      </trkpt>
      <trkpt lat="42.8119720" lon="-7.6539410">
        <ele>467.1</ele>
        <time>2020-10-19T07:58:44Z</time>
      </trkpt>
      <trkpt lat="42.8119730" lon="-7.6539590">
        <ele>467.1</ele>
        <time>2020-10-19T07:58:45Z</time>
      </trkpt>
      <trkpt lat="42.8119740" lon="-7.6539770">
        <ele>467.1</ele>
        <time>2020-10-19T07:58:46Z</time>
      </trkpt>
      <trkpt lat="42.8119760" lon="-7.6539930">
        <ele>467.1</ele>
        <time>2020-10-19T07:58:47Z</time>
      </trkpt>
      <trkpt lat="42.8119760" lon="-7.6540100">
        <ele>467.1</ele>
        <time>2020-10-19T07:58:48Z</time>
      </trkpt>
      <trkpt lat="42.8119760" lon="-7.6540260">
        <ele>467.2</ele>
        <time>2020-10-19T07:58:49Z</time>
      </trkpt>
      <trkpt lat="42.8119740" lon="-7.6540430">
        <ele>467.2</ele>
        <time>2020-10-19T07:58:50Z</time>
      </trkpt>
      <trkpt lat="42.8119740" lon="-7.6540610">
        <ele>467.2</ele>
        <time>2020-10-19T07:58:51Z</time>
      </trkpt>
      <trkpt lat="42.8119740" lon="-7.6540800">
        <ele>467.2</ele>
        <time>2020-10-19T07:58:52Z</time>
      </trkpt>
      <trkpt lat="42.8119750" lon="-7.6540970">
        <ele>467.2</ele>
        <time>2020-10-19T07:58:53Z</time>
      </trkpt>
      <trkpt lat="42.8119750" lon="-7.6541150">
        <ele>467.2</ele>
        <time>2020-10-19T07:58:54Z</time>
      </trkpt>
      <trkpt lat="42.8119740" lon="-7.6541320">
        <ele>467.2</ele>
        <time>2020-10-19T07:58:55Z</time>
      </trkpt>
      <trkpt lat="42.8119730" lon="-7.6541510">
        <ele>467.2</ele>
        <time>2020-10-19T07:58:56Z</time>
      </trkpt>
      <trkpt lat="42.8119730" lon="-7.6541690">
        <ele>467.2</ele>
        <time>2020-10-19T07:58:57Z</time>
      </trkpt>
      <trkpt lat="42.8119740" lon="-7.6541880">
        <ele>467.2</ele>
        <time>2020-10-19T07:58:58Z</time>
      </trkpt>
      <trkpt lat="42.8119750" lon="-7.6542060">
        <ele>467.2</ele>
        <time>2020-10-19T07:58:59Z</time>
      </trkpt>
      <trkpt lat="42.8119760" lon="-7.6542240">
        <ele>467.2</ele>
        <time>2020-10-19T07:59:00Z</time>
      </trkpt>
      <trkpt lat="42.8119770" lon="-7.6542420">
        <ele>467.2</ele>
        <time>2020-10-19T07:59:01Z</time>
      </trkpt>
      <trkpt lat="42.8119790" lon="-7.6542600">
        <ele>467.2</ele>
        <time>2020-10-19T07:59:02Z</time>
      </trkpt>
      <trkpt lat="42.8119800" lon="-7.6542770">
        <ele>467.2</ele>
        <time>2020-10-19T07:59:03Z</time>
      </trkpt>
      <trkpt lat="42.8119820" lon="-7.6542950">
        <ele>467.3</ele>
        <time>2020-10-19T07:59:04Z</time>
      </trkpt>
      <trkpt lat="42.8119830" lon="-7.6543130">
        <ele>467.3</ele>
        <time>2020-10-19T07:59:05Z</time>
      </trkpt>
      <trkpt lat="42.8119840" lon="-7.6543310">
        <ele>467.3</ele>
        <time>2020-10-19T07:59:06Z</time>
      </trkpt>
      <trkpt lat="42.8119850" lon="-7.6543490">
        <ele>467.3</ele>
        <time>2020-10-19T07:59:07Z</time>
      </trkpt>
      <trkpt lat="42.8119860" lon="-7.6543680">
        <ele>467.3</ele>
        <time>2020-10-19T07:59:08Z</time>
      </trkpt>
      <trkpt lat="42.8119870" lon="-7.6543860">
        <ele>467.3</ele>
        <time>2020-10-19T07:59:09Z</time>
      </trkpt>
      <trkpt lat="42.8119870" lon="-7.6544040">
        <ele>467.4</ele>
        <time>2020-10-19T07:59:10Z</time>
      </trkpt>
      <trkpt lat="42.8119880" lon="-7.6544210">
        <ele>467.4</ele>
        <time>2020-10-19T07:59:11Z</time>
      </trkpt>
      <trkpt lat="42.8119880" lon="-7.6544390">
        <ele>467.4</ele>
        <time>2020-10-19T07:59:12Z</time>
      </trkpt>
      <trkpt lat="42.8119880" lon="-7.6544570">
        <ele>467.4</ele>
        <time>2020-10-19T07:59:13Z</time>
      </trkpt>
      <trkpt lat="42.8119870" lon="-7.6544740">
        <ele>467.4</ele>
        <time>2020-10-19T07:59:14Z</time>
      </trkpt>
      <trkpt lat="42.8119860" lon="-7.6544920">
        <ele>467.5</ele>
        <time>2020-10-19T07:59:15Z</time>
      </trkpt>
      <trkpt lat="42.8119850" lon="-7.6545080">
        <ele>467.5</ele>
        <time>2020-10-19T07:59:16Z</time>
      </trkpt>
      <trkpt lat="42.8119850" lon="-7.6545240">
        <ele>467.5</ele>
        <time>2020-10-19T07:59:17Z</time>
      </trkpt>
      <trkpt lat="42.8119860" lon="-7.6545390">
        <ele>467.5</ele>
        <time>2020-10-19T07:59:18Z</time>
      </trkpt>
      <trkpt lat="42.8119870" lon="-7.6545550">
        <ele>467.5</ele>
        <time>2020-10-19T07:59:19Z</time>
      </trkpt>
      <trkpt lat="42.8119890" lon="-7.6545710">
        <ele>467.6</ele>
        <time>2020-10-19T07:59:20Z</time>
      </trkpt>
      <trkpt lat="42.8119900" lon="-7.6545870">
        <ele>467.6</ele>
        <time>2020-10-19T07:59:21Z</time>
      </trkpt>
      <trkpt lat="42.8119890" lon="-7.6546030">
        <ele>467.6</ele>
        <time>2020-10-19T07:59:22Z</time>
      </trkpt>
      <trkpt lat="42.8119890" lon="-7.6546200">
        <ele>467.6</ele>
        <time>2020-10-19T07:59:23Z</time>
      </trkpt>
      <trkpt lat="42.8119890" lon="-7.6546370">
        <ele>467.6</ele>
        <time>2020-10-19T07:59:24Z</time>
      </trkpt>
      <trkpt lat="42.8119890" lon="-7.6546540">
        <ele>467.6</ele>
        <time>2020-10-19T07:59:25Z</time>
      </trkpt>
      <trkpt lat="42.8119890" lon="-7.6546700">
        <ele>467.7</ele>
        <time>2020-10-19T07:59:26Z</time>
      </trkpt>
      <trkpt lat="42.8119890" lon="-7.6546880">
        <ele>467.7</ele>
        <time>2020-10-19T07:59:27Z</time>
      </trkpt>
      <trkpt lat="42.8119890" lon="-7.6547050">
        <ele>467.7</ele>
        <time>2020-10-19T07:59:28Z</time>
      </trkpt>
      <trkpt lat="42.8119890" lon="-7.6547220">
        <ele>467.7</ele>
        <time>2020-10-19T07:59:29Z</time>
      </trkpt>
      <trkpt lat="42.8119880" lon="-7.6547380">
        <ele>467.7</ele>
        <time>2020-10-19T07:59:30Z</time>
      </trkpt>
      <trkpt lat="42.8119880" lon="-7.6547550">
        <ele>467.8</ele>
        <time>2020-10-19T07:59:31Z</time>
      </trkpt>
      <trkpt lat="42.8119880" lon="-7.6547730">
        <ele>467.8</ele>
        <time>2020-10-19T07:59:32Z</time>
      </trkpt>
      <trkpt lat="42.8119880" lon="-7.6547900">
        <ele>467.8</ele>
        <time>2020-10-19T07:59:33Z</time>
      </trkpt>
      <trkpt lat="42.8119890" lon="-7.6548070">
        <ele>467.9</ele>
        <time>2020-10-19T07:59:34Z</time>
      </trkpt>
      <trkpt lat="42.8119890" lon="-7.6548240">
        <ele>467.9</ele>
        <time>2020-10-19T07:59:35Z</time>
      </trkpt>
      <trkpt lat="42.8119890" lon="-7.6548410">
        <ele>467.9</ele>
        <time>2020-10-19T07:59:36Z</time>
      </trkpt>
      <trkpt lat="42.8119880" lon="-7.6548580">
        <ele>468.0</ele>
        <time>2020-10-19T07:59:37Z</time>
      </trkpt>
      <trkpt lat="42.8119870" lon="-7.6548750">
        <ele>468.0</ele>
        <time>2020-10-19T07:59:38Z</time>
      </trkpt>
      <trkpt lat="42.8119880" lon="-7.6548910">
        <ele>468.0</ele>
        <time>2020-10-19T07:59:39Z</time>
      </trkpt>
      <trkpt lat="42.8119900" lon="-7.6549060">
        <ele>468.1</ele>
        <time>2020-10-19T07:59:40Z</time>
      </trkpt>
      <trkpt lat="42.8119930" lon="-7.6549210">
        <ele>468.1</ele>
        <time>2020-10-19T07:59:41Z</time>
      </trkpt>
      <trkpt lat="42.8119940" lon="-7.6549370">
        <ele>468.2</ele>
        <time>2020-10-19T07:59:42Z</time>
      </trkpt>
      <trkpt lat="42.8119950" lon="-7.6549530">
        <ele>468.2</ele>
        <time>2020-10-19T07:59:43Z</time>
      </trkpt>
      <trkpt lat="42.8119950" lon="-7.6549710">
        <ele>468.2</ele>
        <time>2020-10-19T07:59:44Z</time>
      </trkpt>
      <trkpt lat="42.8119960" lon="-7.6549880">
        <ele>468.3</ele>
        <time>2020-10-19T07:59:45Z</time>
      </trkpt>
      <trkpt lat="42.8119970" lon="-7.6550060">
        <ele>468.3</ele>
        <time>2020-10-19T07:59:46Z</time>
      </trkpt>
      <trkpt lat="42.8119980" lon="-7.6550230">
        <ele>468.4</ele>
        <time>2020-10-19T07:59:47Z</time>
      </trkpt>
      <trkpt lat="42.8119980" lon="-7.6550400">
        <ele>468.4</ele>
        <time>2020-10-19T07:59:48Z</time>
      </trkpt>
      <trkpt lat="42.8119990" lon="-7.6550570">
        <ele>468.5</ele>
        <time>2020-10-19T07:59:49Z</time>
      </trkpt>
      <trkpt lat="42.8120000" lon="-7.6550750">
        <ele>468.5</ele>
        <time>2020-10-19T07:59:50Z</time>
      </trkpt>
      <trkpt lat="42.8120010" lon="-7.6550930">
        <ele>468.6</ele>
        <time>2020-10-19T07:59:51Z</time>
      </trkpt>
      <trkpt lat="42.8120010" lon="-7.6551120">
        <ele>468.6</ele>
        <time>2020-10-19T07:59:52Z</time>
      </trkpt>
      <trkpt lat="42.8119990" lon="-7.6551280">
        <ele>468.7</ele>
        <time>2020-10-19T07:59:53Z</time>
      </trkpt>
      <trkpt lat="42.8119970" lon="-7.6551390">
        <ele>468.7</ele>
        <time>2020-10-19T07:59:54Z</time>
      </trkpt>
      <trkpt lat="42.8119960" lon="-7.6551460">
        <ele>468.7</ele>
        <time>2020-10-19T07:59:55Z</time>
      </trkpt>
      <trkpt lat="42.8119960" lon="-7.6551540">
        <ele>468.7</ele>
        <time>2020-10-19T07:59:56Z</time>
      </trkpt>
      <trkpt lat="42.8119970" lon="-7.6551680">
        <ele>468.8</ele>
        <time>2020-10-19T07:59:57Z</time>
      </trkpt>
      <trkpt lat="42.8119990" lon="-7.6551850">
        <ele>468.8</ele>
        <time>2020-10-19T07:59:58Z</time>
      </trkpt>
      <trkpt lat="42.8120000" lon="-7.6552030">
        <ele>468.9</ele>
        <time>2020-10-19T07:59:59Z</time>
      </trkpt>
      <trkpt lat="42.8120020" lon="-7.6552200">
        <ele>468.9</ele>
        <time>2020-10-19T08:00:00Z</time>
      </trkpt>
      <trkpt lat="42.8120030" lon="-7.6552370">
        <ele>469.0</ele>
        <time>2020-10-19T08:00:01Z</time>
      </trkpt>
      <trkpt lat="42.8120040" lon="-7.6552530">
        <ele>469.0</ele>
        <time>2020-10-19T08:00:02Z</time>
      </trkpt>
      <trkpt lat="42.8120040" lon="-7.6552680">
        <ele>469.0</ele>
        <time>2020-10-19T08:00:03Z</time>
      </trkpt>
      <trkpt lat="42.8120040" lon="-7.6552830">
        <ele>469.1</ele>
        <time>2020-10-19T08:00:04Z</time>
      </trkpt>
      <trkpt lat="42.8120030" lon="-7.6553000">
        <ele>469.1</ele>
        <time>2020-10-19T08:00:05Z</time>
      </trkpt>
      <trkpt lat="42.8120040" lon="-7.6553170">
        <ele>469.2</ele>
        <time>2020-10-19T08:00:06Z</time>
      </trkpt>
      <trkpt lat="42.8120040" lon="-7.6553340">
        <ele>469.2</ele>
        <time>2020-10-19T08:00:07Z</time>
      </trkpt>
      <trkpt lat="42.8120040" lon="-7.6553520">
        <ele>469.3</ele>
        <time>2020-10-19T08:00:08Z</time>
      </trkpt>
      <trkpt lat="42.8120040" lon="-7.6553690">
        <ele>469.3</ele>
        <time>2020-10-19T08:00:09Z</time>
      </trkpt>
      <trkpt lat="42.8120050" lon="-7.6553870">
        <ele>469.4</ele>
        <time>2020-10-19T08:00:10Z</time>
      </trkpt>
      <trkpt lat="42.8120060" lon="-7.6554050">
        <ele>469.4</ele>
        <time>2020-10-19T08:00:11Z</time>
      </trkpt>
      <trkpt lat="42.8120070" lon="-7.6554230">
        <ele>469.5</ele>
        <time>2020-10-19T08:00:12Z</time>
      </trkpt>
      <trkpt lat="42.8120070" lon="-7.6554400">
        <ele>469.5</ele>
        <time>2020-10-19T08:00:13Z</time>
      </trkpt>
      <trkpt lat="42.8120080" lon="-7.6554580">
        <ele>469.6</ele>
        <time>2020-10-19T08:00:14Z</time>
      </trkpt>
      <trkpt lat="42.8120090" lon="-7.6554750">
        <ele>469.6</ele>
        <time>2020-10-19T08:00:15Z</time>
      </trkpt>
      <trkpt lat="42.8120090" lon="-7.6554920">
        <ele>469.7</ele>
        <time>2020-10-19T08:00:16Z</time>
      </trkpt>
      <trkpt lat="42.8120090" lon="-7.6555090">
        <ele>469.7</ele>
        <time>2020-10-19T08:00:17Z</time>
      </trkpt>
      <trkpt lat="42.8120080" lon="-7.6555260">
        <ele>469.8</ele>
        <time>2020-10-19T08:00:18Z</time>
      </trkpt>
      <trkpt lat="42.8120080" lon="-7.6555430">
        <ele>469.8</ele>
        <time>2020-10-19T08:00:19Z</time>
      </trkpt>
      <trkpt lat="42.8120090" lon="-7.6555600">
        <ele>469.9</ele>
        <time>2020-10-19T08:00:20Z</time>
      </trkpt>
      <trkpt lat="42.8120110" lon="-7.6555770">
        <ele>469.9</ele>
        <time>2020-10-19T08:00:21Z</time>
      </trkpt>
      <trkpt lat="42.8120130" lon="-7.6555950">
        <ele>470.0</ele>
        <time>2020-10-19T08:00:22Z</time>
      </trkpt>
      <trkpt lat="42.8120150" lon="-7.6556130">
        <ele>470.0</ele>
        <time>2020-10-19T08:00:23Z</time>
      </trkpt>
      <trkpt lat="42.8120160" lon="-7.6556310">
        <ele>470.1</ele>
        <time>2020-10-19T08:00:24Z</time>
      </trkpt>
      <trkpt lat="42.8120170" lon="-7.6556470">
        <ele>470.1</ele>
        <time>2020-10-19T08:00:25Z</time>
      </trkpt>
      <trkpt lat="42.8120170" lon="-7.6556640">
        <ele>470.2</ele>
        <time>2020-10-19T08:00:26Z</time>
      </trkpt>
      <trkpt lat="42.8120170" lon="-7.6556800">
        <ele>470.2</ele>
        <time>2020-10-19T08:00:27Z</time>
      </trkpt>
      <trkpt lat="42.8120180" lon="-7.6556970">
        <ele>470.3</ele>
        <time>2020-10-19T08:00:28Z</time>
      </trkpt>
      <trkpt lat="42.8120190" lon="-7.6557140">
        <ele>470.3</ele>
        <time>2020-10-19T08:00:29Z</time>
      </trkpt>
      <trkpt lat="42.8120200" lon="-7.6557310">
        <ele>470.4</ele>
        <time>2020-10-19T08:00:30Z</time>
      </trkpt>
      <trkpt lat="42.8120200" lon="-7.6557480">
        <ele>470.4</ele>
        <time>2020-10-19T08:00:31Z</time>
      </trkpt>
      <trkpt lat="42.8120210" lon="-7.6557650">
        <ele>470.5</ele>
        <time>2020-10-19T08:00:32Z</time>
      </trkpt>
      <trkpt lat="42.8120210" lon="-7.6557820">
        <ele>470.5</ele>
        <time>2020-10-19T08:00:33Z</time>
      </trkpt>
      <trkpt lat="42.8120210" lon="-7.6557990">
        <ele>470.6</ele>
        <time>2020-10-19T08:00:34Z</time>
      </trkpt>
      <trkpt lat="42.8120210" lon="-7.6558170">
        <ele>470.6</ele>
        <time>2020-10-19T08:00:35Z</time>
      </trkpt>
      <trkpt lat="42.8120210" lon="-7.6558340">
        <ele>470.7</ele>
        <time>2020-10-19T08:00:36Z</time>
      </trkpt>
      <trkpt lat="42.8120210" lon="-7.6558500">
        <ele>470.7</ele>
        <time>2020-10-19T08:00:37Z</time>
      </trkpt>
      <trkpt lat="42.8120210" lon="-7.6558670">
        <ele>470.8</ele>
        <time>2020-10-19T08:00:38Z</time>
      </trkpt>
      <trkpt lat="42.8120210" lon="-7.6558830">
        <ele>470.8</ele>
        <time>2020-10-19T08:00:39Z</time>
      </trkpt>
      <trkpt lat="42.8120210" lon="-7.6559000">
        <ele>470.9</ele>
        <time>2020-10-19T08:00:40Z</time>
      </trkpt>
      <trkpt lat="42.8120220" lon="-7.6559170">
        <ele>470.9</ele>
        <time>2020-10-19T08:00:41Z</time>
      </trkpt>
      <trkpt lat="42.8120220" lon="-7.6559350">
        <ele>471.0</ele>
        <time>2020-10-19T08:00:42Z</time>
      </trkpt>
      <trkpt lat="42.8120220" lon="-7.6559520">
        <ele>471.1</ele>
        <time>2020-10-19T08:00:43Z</time>
      </trkpt>
      <trkpt lat="42.8120220" lon="-7.6559690">
        <ele>471.1</ele>
        <time>2020-10-19T08:00:44Z</time>
      </trkpt>
      <trkpt lat="42.8120220" lon="-7.6559870">
        <ele>471.2</ele>
        <time>2020-10-19T08:00:45Z</time>
      </trkpt>
      <trkpt lat="42.8120230" lon="-7.6560040">
        <ele>471.2</ele>
        <time>2020-10-19T08:00:46Z</time>
      </trkpt>
      <trkpt lat="42.8120230" lon="-7.6560220">
        <ele>471.3</ele>
        <time>2020-10-19T08:00:47Z</time>
      </trkpt>
      <trkpt lat="42.8120240" lon="-7.6560380">
        <ele>471.4</ele>
        <time>2020-10-19T08:00:48Z</time>
      </trkpt>
      <trkpt lat="42.8120250" lon="-7.6560540">
        <ele>471.4</ele>
        <time>2020-10-19T08:00:49Z</time>
      </trkpt>
      <trkpt lat="42.8120270" lon="-7.6560680">
        <ele>471.5</ele>
        <time>2020-10-19T08:00:50Z</time>
      </trkpt>
      <trkpt lat="42.8120280" lon="-7.6560830">
        <ele>471.5</ele>
        <time>2020-10-19T08:00:51Z</time>
      </trkpt>
      <trkpt lat="42.8120290" lon="-7.6560980">
        <ele>471.6</ele>
        <time>2020-10-19T08:00:52Z</time>
      </trkpt>
      <trkpt lat="42.8120290" lon="-7.6561130">
        <ele>471.6</ele>
        <time>2020-10-19T08:00:53Z</time>
      </trkpt>
      <trkpt lat="42.8120290" lon="-7.6561300">
        <ele>471.6</ele>
        <time>2020-10-19T08:00:54Z</time>
      </trkpt>
      <trkpt lat="42.8120290" lon="-7.6561460">
        <ele>471.7</ele>
        <time>2020-10-19T08:00:55Z</time>
      </trkpt>
      <trkpt lat="42.8120290" lon="-7.6561630">
        <ele>471.7</ele>
        <time>2020-10-19T08:00:56Z</time>
      </trkpt>
      <trkpt lat="42.8120290" lon="-7.6561780">
        <ele>471.8</ele>
        <time>2020-10-19T08:00:57Z</time>
      </trkpt>
      <trkpt lat="42.8120300" lon="-7.6561950">
        <ele>471.9</ele>
        <time>2020-10-19T08:00:58Z</time>
      </trkpt>
      <trkpt lat="42.8120320" lon="-7.6562110">
        <ele>471.9</ele>
        <time>2020-10-19T08:00:59Z</time>
      </trkpt>
      <trkpt lat="42.8120350" lon="-7.6562270">
        <ele>472.0</ele>
        <time>2020-10-19T08:01:00Z</time>
      </trkpt>
      <trkpt lat="42.8120370" lon="-7.6562440">
        <ele>472.0</ele>
        <time>2020-10-19T08:01:01Z</time>
      </trkpt>
      <trkpt lat="42.8120390" lon="-7.6562600">
        <ele>472.1</ele>
        <time>2020-10-19T08:01:02Z</time>
      </trkpt>
      <trkpt lat="42.8120410" lon="-7.6562760">
        <ele>472.1</ele>
        <time>2020-10-19T08:01:03Z</time>
      </trkpt>
      <trkpt lat="42.8120410" lon="-7.6562910">
        <ele>472.2</ele>
        <time>2020-10-19T08:01:04Z</time>
      </trkpt>
      <trkpt lat="42.8120420" lon="-7.6563060">
        <ele>472.3</ele>
        <time>2020-10-19T08:01:05Z</time>
      </trkpt>
      <trkpt lat="42.8120420" lon="-7.6563210">
        <ele>472.3</ele>
        <time>2020-10-19T08:01:06Z</time>
      </trkpt>
      <trkpt lat="42.8120420" lon="-7.6563360">
        <ele>472.4</ele>
        <time>2020-10-19T08:01:07Z</time>
      </trkpt>
      <trkpt lat="42.8120420" lon="-7.6563520">
        <ele>472.4</ele>
        <time>2020-10-19T08:01:08Z</time>
      </trkpt>
      <trkpt lat="42.8120430" lon="-7.6563680">
        <ele>472.5</ele>
        <time>2020-10-19T08:01:09Z</time>
      </trkpt>
      <trkpt lat="42.8120460" lon="-7.6563850">
        <ele>472.5</ele>
        <time>2020-10-19T08:01:10Z</time>
      </trkpt>
      <trkpt lat="42.8120470" lon="-7.6564010">
        <ele>472.6</ele>
        <time>2020-10-19T08:01:11Z</time>
      </trkpt>
      <trkpt lat="42.8120480" lon="-7.6564160">
        <ele>472.7</ele>
        <time>2020-10-19T08:01:12Z</time>
      </trkpt>
      <trkpt lat="42.8120490" lon="-7.6564310">
        <ele>472.7</ele>
        <time>2020-10-19T08:01:13Z</time>
      </trkpt>
      <trkpt lat="42.8120490" lon="-7.6564470">
        <ele>472.8</ele>
        <time>2020-10-19T08:01:14Z</time>
      </trkpt>
      <trkpt lat="42.8120480" lon="-7.6564620">
        <ele>472.8</ele>
        <time>2020-10-19T08:01:15Z</time>
      </trkpt>
      <trkpt lat="42.8120470" lon="-7.6564780">
        <ele>472.9</ele>
        <time>2020-10-19T08:01:16Z</time>
      </trkpt>
      <trkpt lat="42.8120470" lon="-7.6564930">
        <ele>473.0</ele>
        <time>2020-10-19T08:01:17Z</time>
      </trkpt>
      <trkpt lat="42.8120480" lon="-7.6565090">
        <ele>473.0</ele>
        <time>2020-10-19T08:01:18Z</time>
      </trkpt>
      <trkpt lat="42.8120480" lon="-7.6565240">
        <ele>473.1</ele>
        <time>2020-10-19T08:01:19Z</time>
      </trkpt>
      <trkpt lat="42.8120480" lon="-7.6565380">
        <ele>473.1</ele>
        <time>2020-10-19T08:01:20Z</time>
      </trkpt>
      <trkpt lat="42.8120500" lon="-7.6565530">
        <ele>473.2</ele>
        <time>2020-10-19T08:01:21Z</time>
      </trkpt>
      <trkpt lat="42.8120510" lon="-7.6565680">
        <ele>473.3</ele>
        <time>2020-10-19T08:01:22Z</time>
      </trkpt>
      <trkpt lat="42.8120510" lon="-7.6565830">
        <ele>473.3</ele>
        <time>2020-10-19T08:01:23Z</time>
      </trkpt>
      <trkpt lat="42.8120500" lon="-7.6565960">
        <ele>473.4</ele>
        <time>2020-10-19T08:01:24Z</time>
      </trkpt>
      <trkpt lat="42.8120490" lon="-7.6566110">
        <ele>473.4</ele>
        <time>2020-10-19T08:01:25Z</time>
      </trkpt>
      <trkpt lat="42.8120490" lon="-7.6566260">
        <ele>473.5</ele>
        <time>2020-10-19T08:01:26Z</time>
      </trkpt>
      <trkpt lat="42.8120500" lon="-7.6566420">
        <ele>473.6</ele>
        <time>2020-10-19T08:01:27Z</time>
      </trkpt>
      <trkpt lat="42.8120500" lon="-7.6566570">
        <ele>473.6</ele>
        <time>2020-10-19T08:01:28Z</time>
      </trkpt>
      <trkpt lat="42.8120500" lon="-7.6566740">
        <ele>473.7</ele>
        <time>2020-10-19T08:01:29Z</time>
      </trkpt>
      <trkpt lat="42.8120500" lon="-7.6566890">
        <ele>473.8</ele>
        <time>2020-10-19T08:01:30Z</time>
      </trkpt>
      <trkpt lat="42.8120500" lon="-7.6567050">
        <ele>473.8</ele>
        <time>2020-10-19T08:01:31Z</time>
      </trkpt>
      <trkpt lat="42.8120500" lon="-7.6567210">
        <ele>473.9</ele>
        <time>2020-10-19T08:01:32Z</time>
      </trkpt>
      <trkpt lat="42.8120500" lon="-7.6567380">
        <ele>474.0</ele>
        <time>2020-10-19T08:01:33Z</time>
      </trkpt>
      <trkpt lat="42.8120490" lon="-7.6567550">
        <ele>474.1</ele>
        <time>2020-10-19T08:01:34Z</time>
      </trkpt>
      <trkpt lat="42.8120490" lon="-7.6567720">
        <ele>474.1</ele>
        <time>2020-10-19T08:01:35Z</time>
      </trkpt>
      <trkpt lat="42.8120490" lon="-7.6567900">
        <ele>474.2</ele>
        <time>2020-10-19T08:01:36Z</time>
      </trkpt>
      <trkpt lat="42.8120480" lon="-7.6568070">
        <ele>474.3</ele>
        <time>2020-10-19T08:01:37Z</time>
      </trkpt>
      <trkpt lat="42.8120470" lon="-7.6568240">
        <ele>474.4</ele>
        <time>2020-10-19T08:01:38Z</time>
      </trkpt>
      <trkpt lat="42.8120480" lon="-7.6568410">
        <ele>474.5</ele>
        <time>2020-10-19T08:01:39Z</time>
      </trkpt>
      <trkpt lat="42.8120490" lon="-7.6568560">
        <ele>474.5</ele>
        <time>2020-10-19T08:01:40Z</time>
      </trkpt>
      <trkpt lat="42.8120490" lon="-7.6568730">
        <ele>474.6</ele>
        <time>2020-10-19T08:01:41Z</time>
      </trkpt>
      <trkpt lat="42.8120480" lon="-7.6568890">
        <ele>474.7</ele>
        <time>2020-10-19T08:01:42Z</time>
      </trkpt>
      <trkpt lat="42.8120490" lon="-7.6569060">
        <ele>474.8</ele>
        <time>2020-10-19T08:01:43Z</time>
      </trkpt>
      <trkpt lat="42.8120510" lon="-7.6569220">
        <ele>474.8</ele>
        <time>2020-10-19T08:01:44Z</time>
      </trkpt>
      <trkpt lat="42.8120530" lon="-7.6569390">
        <ele>474.9</ele>
        <time>2020-10-19T08:01:45Z</time>
      </trkpt>
      <trkpt lat="42.8120540" lon="-7.6569550">
        <ele>475.0</ele>
        <time>2020-10-19T08:01:46Z</time>
      </trkpt>
      <trkpt lat="42.8120550" lon="-7.6569710">
        <ele>475.1</ele>
        <time>2020-10-19T08:01:47Z</time>
      </trkpt>
      <trkpt lat="42.8120550" lon="-7.6569880">
        <ele>475.1</ele>
        <time>2020-10-19T08:01:48Z</time>
      </trkpt>
      <trkpt lat="42.8120540" lon="-7.6570040">
        <ele>475.2</ele>
        <time>2020-10-19T08:01:49Z</time>
      </trkpt>
      <trkpt lat="42.8120540" lon="-7.6570200">
        <ele>475.3</ele>
        <time>2020-10-19T08:01:50Z</time>
      </trkpt>
      <trkpt lat="42.8120540" lon="-7.6570350">
        <ele>475.4</ele>
        <time>2020-10-19T08:01:51Z</time>
      </trkpt>
      <trkpt lat="42.8120540" lon="-7.6570500">
        <ele>475.4</ele>
        <time>2020-10-19T08:01:52Z</time>
      </trkpt>
      <trkpt lat="42.8120540" lon="-7.6570660">
        <ele>475.5</ele>
        <time>2020-10-19T08:01:53Z</time>
      </trkpt>
      <trkpt lat="42.8120540" lon="-7.6570830">
        <ele>475.6</ele>
        <time>2020-10-19T08:01:54Z</time>
      </trkpt>
      <trkpt lat="42.8120540" lon="-7.6570980">
        <ele>475.7</ele>
        <time>2020-10-19T08:01:55Z</time>
      </trkpt>
      <trkpt lat="42.8120560" lon="-7.6571140">
        <ele>475.7</ele>
        <time>2020-10-19T08:01:56Z</time>
      </trkpt>
      <trkpt lat="42.8120570" lon="-7.6571290">
        <ele>475.8</ele>
        <time>2020-10-19T08:01:57Z</time>
      </trkpt>
      <trkpt lat="42.8120570" lon="-7.6571450">
        <ele>475.9</ele>
        <time>2020-10-19T08:01:58Z</time>
      </trkpt>
      <trkpt lat="42.8120560" lon="-7.6571610">
        <ele>475.9</ele>
        <time>2020-10-19T08:01:59Z</time>
      </trkpt>
      <trkpt lat="42.8120550" lon="-7.6571780">
        <ele>476.0</ele>
        <time>2020-10-19T08:02:00Z</time>
      </trkpt>
      <trkpt lat="42.8120550" lon="-7.6571950">
        <ele>476.1</ele>
        <time>2020-10-19T08:02:01Z</time>
      </trkpt>
      <trkpt lat="42.8120560" lon="-7.6572120">
        <ele>476.2</ele>
        <time>2020-10-19T08:02:02Z</time>
      </trkpt>
      <trkpt lat="42.8120560" lon="-7.6572290">
        <ele>476.2</ele>
        <time>2020-10-19T08:02:03Z</time>
      </trkpt>
      <trkpt lat="42.8120580" lon="-7.6572450">
        <ele>476.3</ele>
        <time>2020-10-19T08:02:04Z</time>
      </trkpt>
      <trkpt lat="42.8120590" lon="-7.6572610">
        <ele>476.4</ele>
        <time>2020-10-19T08:02:05Z</time>
      </trkpt>
      <trkpt lat="42.8120600" lon="-7.6572760">
        <ele>476.5</ele>
        <time>2020-10-19T08:02:06Z</time>
      </trkpt>
      <trkpt lat="42.8120610" lon="-7.6572930">
        <ele>476.5</ele>
        <time>2020-10-19T08:02:07Z</time>
      </trkpt>
      <trkpt lat="42.8120630" lon="-7.6573090">
        <ele>476.6</ele>
        <time>2020-10-19T08:02:08Z</time>
      </trkpt>
      <trkpt lat="42.8120640" lon="-7.6573250">
        <ele>476.7</ele>
        <time>2020-10-19T08:02:09Z</time>
      </trkpt>
      <trkpt lat="42.8120660" lon="-7.6573400">
        <ele>476.8</ele>
        <time>2020-10-19T08:02:10Z</time>
      </trkpt>
      <trkpt lat="42.8120680" lon="-7.6573560">
        <ele>476.9</ele>
        <time>2020-10-19T08:02:11Z</time>
      </trkpt>
      <trkpt lat="42.8120710" lon="-7.6573710">
        <ele>476.9</ele>
        <time>2020-10-19T08:02:12Z</time>
      </trkpt>
      <trkpt lat="42.8120730" lon="-7.6573860">
        <ele>477.0</ele>
        <time>2020-10-19T08:02:13Z</time>
      </trkpt>
      <trkpt lat="42.8120750" lon="-7.6574010">
        <ele>477.1</ele>
        <time>2020-10-19T08:02:14Z</time>
      </trkpt>
      <trkpt lat="42.8120770" lon="-7.6574170">
        <ele>477.2</ele>
        <time>2020-10-19T08:02:15Z</time>
      </trkpt>
      <trkpt lat="42.8120800" lon="-7.6574330">
        <ele>477.2</ele>
        <time>2020-10-19T08:02:16Z</time>
      </trkpt>
      <trkpt lat="42.8120810" lon="-7.6574490">
        <ele>477.3</ele>
        <time>2020-10-19T08:02:17Z</time>
      </trkpt>
      <trkpt lat="42.8120820" lon="-7.6574630">
        <ele>477.4</ele>
        <time>2020-10-19T08:02:18Z</time>
      </trkpt>
      <trkpt lat="42.8120820" lon="-7.6574780">
        <ele>477.4</ele>
        <time>2020-10-19T08:02:19Z</time>
      </trkpt>
      <trkpt lat="42.8120820" lon="-7.6574930">
        <ele>477.5</ele>
        <time>2020-10-19T08:02:20Z</time>
      </trkpt>
      <trkpt lat="42.8120840" lon="-7.6575080">
        <ele>477.6</ele>
        <time>2020-10-19T08:02:21Z</time>
      </trkpt>
      <trkpt lat="42.8120850" lon="-7.6575240">
        <ele>477.7</ele>
        <time>2020-10-19T08:02:22Z</time>
      </trkpt>
      <trkpt lat="42.8120870" lon="-7.6575390">
        <ele>477.7</ele>
        <time>2020-10-19T08:02:23Z</time>
      </trkpt>
      <trkpt lat="42.8120880" lon="-7.6575550">
        <ele>477.8</ele>
        <time>2020-10-19T08:02:24Z</time>
      </trkpt>
      <trkpt lat="42.8120890" lon="-7.6575710">
        <ele>477.9</ele>
        <time>2020-10-19T08:02:25Z</time>
      </trkpt>
      <trkpt lat="42.8120900" lon="-7.6575860">
        <ele>478.0</ele>
        <time>2020-10-19T08:02:26Z</time>
      </trkpt>
      <trkpt lat="42.8120910" lon="-7.6576010">
        <ele>478.0</ele>
        <time>2020-10-19T08:02:27Z</time>
      </trkpt>
      <trkpt lat="42.8120920" lon="-7.6576160">
        <ele>478.1</ele>
        <time>2020-10-19T08:02:28Z</time>
      </trkpt>
      <trkpt lat="42.8120940" lon="-7.6576320">
        <ele>478.2</ele>
        <time>2020-10-19T08:02:29Z</time>
      </trkpt>
      <trkpt lat="42.8120940" lon="-7.6576470">
        <ele>478.3</ele>
        <time>2020-10-19T08:02:30Z</time>
      </trkpt>
      <trkpt lat="42.8120960" lon="-7.6576620">
        <ele>478.3</ele>
        <time>2020-10-19T08:02:31Z</time>
      </trkpt>
      <trkpt lat="42.8120970" lon="-7.6576770">
        <ele>478.4</ele>
        <time>2020-10-19T08:02:32Z</time>
      </trkpt>
      <trkpt lat="42.8121000" lon="-7.6576930">
        <ele>478.5</ele>
        <time>2020-10-19T08:02:33Z</time>
      </trkpt>
      <trkpt lat="42.8121020" lon="-7.6577080">
        <ele>478.6</ele>
        <time>2020-10-19T08:02:34Z</time>
      </trkpt>
      <trkpt lat="42.8121030" lon="-7.6577240">
        <ele>478.6</ele>
        <time>2020-10-19T08:02:35Z</time>
      </trkpt>
      <trkpt lat="42.8121050" lon="-7.6577390">
        <ele>478.7</ele>
        <time>2020-10-19T08:02:36Z</time>
      </trkpt>
      <trkpt lat="42.8121050" lon="-7.6577550">
        <ele>478.8</ele>
        <time>2020-10-19T08:02:37Z</time>
      </trkpt>
      <trkpt lat="42.8121050" lon="-7.6577710">
        <ele>478.9</ele>
        <time>2020-10-19T08:02:38Z</time>
      </trkpt>
      <trkpt lat="42.8121050" lon="-7.6577880">
        <ele>479.0</ele>
        <time>2020-10-19T08:02:39Z</time>
      </trkpt>
      <trkpt lat="42.8121060" lon="-7.6578030">
        <ele>479.0</ele>
        <time>2020-10-19T08:02:40Z</time>
      </trkpt>
      <trkpt lat="42.8121060" lon="-7.6578180">
        <ele>479.1</ele>
        <time>2020-10-19T08:02:41Z</time>
      </trkpt>
      <trkpt lat="42.8121060" lon="-7.6578320">
        <ele>479.2</ele>
        <time>2020-10-19T08:02:42Z</time>
      </trkpt>
      <trkpt lat="42.8121070" lon="-7.6578460">
        <ele>479.3</ele>
        <time>2020-10-19T08:02:43Z</time>
      </trkpt>
      <trkpt lat="42.8121090" lon="-7.6578600">
        <ele>479.3</ele>
        <time>2020-10-19T08:02:44Z</time>
      </trkpt>
      <trkpt lat="42.8121110" lon="-7.6578730">
        <ele>479.4</ele>
        <time>2020-10-19T08:02:45Z</time>
      </trkpt>
      <trkpt lat="42.8121130" lon="-7.6578870">
        <ele>479.5</ele>
        <time>2020-10-19T08:02:46Z</time>
      </trkpt>
      <trkpt lat="42.8121150" lon="-7.6579020">
        <ele>479.5</ele>
        <time>2020-10-19T08:02:47Z</time>
      </trkpt>
      <trkpt lat="42.8121170" lon="-7.6579180">
        <ele>479.6</ele>
        <time>2020-10-19T08:02:48Z</time>
      </trkpt>
      <trkpt lat="42.8121200" lon="-7.6579340">
        <ele>479.7</ele>
        <time>2020-10-19T08:02:49Z</time>
      </trkpt>
      <trkpt lat="42.8121210" lon="-7.6579510">
        <ele>479.8</ele>
        <time>2020-10-19T08:02:50Z</time>
      </trkpt>
      <trkpt lat="42.8121220" lon="-7.6579680">
        <ele>479.9</ele>
        <time>2020-10-19T08:02:51Z</time>
      </trkpt>
      <trkpt lat="42.8121230" lon="-7.6579840">
        <ele>479.9</ele>
        <time>2020-10-19T08:02:52Z</time>
      </trkpt>
      <trkpt lat="42.8121230" lon="-7.6579990">
        <ele>480.0</ele>
        <time>2020-10-19T08:02:53Z</time>
      </trkpt>
      <trkpt lat="42.8121240" lon="-7.6580140">
        <ele>480.1</ele>
        <time>2020-10-19T08:02:54Z</time>
      </trkpt>
      <trkpt lat="42.8121250" lon="-7.6580300">
        <ele>480.2</ele>
        <time>2020-10-19T08:02:55Z</time>
      </trkpt>
      <trkpt lat="42.8121270" lon="-7.6580460">
        <ele>480.3</ele>
        <time>2020-10-19T08:02:56Z</time>
      </trkpt>
      <trkpt lat="42.8121300" lon="-7.6580620">
        <ele>480.3</ele>
        <time>2020-10-19T08:02:57Z</time>
      </trkpt>
      <trkpt lat="42.8121330" lon="-7.6580760">
        <ele>480.4</ele>
        <time>2020-10-19T08:02:58Z</time>
      </trkpt>
      <trkpt lat="42.8121370" lon="-7.6580920">
        <ele>480.5</ele>
        <time>2020-10-19T08:02:59Z</time>
      </trkpt>
      <trkpt lat="42.8121400" lon="-7.6581070">
        <ele>480.6</ele>
        <time>2020-10-19T08:03:00Z</time>
      </trkpt>
      <trkpt lat="42.8121420" lon="-7.6581240">
        <ele>480.7</ele>
        <time>2020-10-19T08:03:01Z</time>
      </trkpt>
      <trkpt lat="42.8121430" lon="-7.6581400">
        <ele>480.7</ele>
        <time>2020-10-19T08:03:02Z</time>
      </trkpt>
      <trkpt lat="42.8121430" lon="-7.6581570">
        <ele>480.8</ele>
        <time>2020-10-19T08:03:03Z</time>
      </trkpt>
      <trkpt lat="42.8121430" lon="-7.6581730">
        <ele>480.9</ele>
        <time>2020-10-19T08:03:04Z</time>
      </trkpt>
      <trkpt lat="42.8121440" lon="-7.6581900">
        <ele>481.0</ele>
        <time>2020-10-19T08:03:05Z</time>
      </trkpt>
      <trkpt lat="42.8121460" lon="-7.6582070">
        <ele>481.1</ele>
        <time>2020-10-19T08:03:06Z</time>
      </trkpt>
      <trkpt lat="42.8121490" lon="-7.6582240">
        <ele>481.2</ele>
        <time>2020-10-19T08:03:07Z</time>
      </trkpt>
      <trkpt lat="42.8121510" lon="-7.6582410">
        <ele>481.3</ele>
        <time>2020-10-19T08:03:08Z</time>
      </trkpt>
      <trkpt lat="42.8121520" lon="-7.6582570">
        <ele>481.4</ele>
        <time>2020-10-19T08:03:09Z</time>
      </trkpt>
      <trkpt lat="42.8121530" lon="-7.6582740">
        <ele>481.5</ele>
        <time>2020-10-19T08:03:10Z</time>
      </trkpt>
      <trkpt lat="42.8121550" lon="-7.6582900">
        <ele>481.6</ele>
        <time>2020-10-19T08:03:11Z</time>
      </trkpt>
      <trkpt lat="42.8121580" lon="-7.6583070">
        <ele>481.7</ele>
        <time>2020-10-19T08:03:12Z</time>
      </trkpt>
      <trkpt lat="42.8121600" lon="-7.6583230">
        <ele>481.8</ele>
        <time>2020-10-19T08:03:13Z</time>
      </trkpt>
      <trkpt lat="42.8121630" lon="-7.6583410">
        <ele>481.9</ele>
        <time>2020-10-19T08:03:14Z</time>
      </trkpt>
      <trkpt lat="42.8121650" lon="-7.6583580">
        <ele>482.0</ele>
        <time>2020-10-19T08:03:15Z</time>
      </trkpt>
      <trkpt lat="42.8121680" lon="-7.6583750">
        <ele>482.1</ele>
        <time>2020-10-19T08:03:16Z</time>
      </trkpt>
      <trkpt lat="42.8121710" lon="-7.6583920">
        <ele>482.2</ele>
        <time>2020-10-19T08:03:17Z</time>
      </trkpt>
      <trkpt lat="42.8121740" lon="-7.6584080">
        <ele>482.2</ele>
        <time>2020-10-19T08:03:18Z</time>
      </trkpt>
      <trkpt lat="42.8121770" lon="-7.6584240">
        <ele>482.3</ele>
        <time>2020-10-19T08:03:19Z</time>
      </trkpt>
      <trkpt lat="42.8121790" lon="-7.6584400">
        <ele>482.4</ele>
        <time>2020-10-19T08:03:20Z</time>
      </trkpt>
      <trkpt lat="42.8121820" lon="-7.6584550">
        <ele>482.5</ele>
        <time>2020-10-19T08:03:21Z</time>
      </trkpt>
      <trkpt lat="42.8121850" lon="-7.6584700">
        <ele>482.6</ele>
        <time>2020-10-19T08:03:22Z</time>
      </trkpt>
      <trkpt lat="42.8121880" lon="-7.6584860">
        <ele>482.7</ele>
        <time>2020-10-19T08:03:23Z</time>
      </trkpt>
      <trkpt lat="42.8121900" lon="-7.6585030">
        <ele>482.8</ele>
        <time>2020-10-19T08:03:24Z</time>
      </trkpt>
      <trkpt lat="42.8121930" lon="-7.6585200">
        <ele>482.9</ele>
        <time>2020-10-19T08:03:25Z</time>
      </trkpt>
      <trkpt lat="42.8121980" lon="-7.6585360">
        <ele>483.0</ele>
        <time>2020-10-19T08:03:26Z</time>
      </trkpt>
      <trkpt lat="42.8122050" lon="-7.6585510">
        <ele>483.1</ele>
        <time>2020-10-19T08:03:27Z</time>
      </trkpt>
      <trkpt lat="42.8122100" lon="-7.6585670">
        <ele>483.2</ele>
        <time>2020-10-19T08:03:28Z</time>
      </trkpt>
      <trkpt lat="42.8122130" lon="-7.6585840">
        <ele>483.3</ele>
        <time>2020-10-19T08:03:29Z</time>
      </trkpt>
      <trkpt lat="42.8122160" lon="-7.6586000">
        <ele>483.4</ele>
        <time>2020-10-19T08:03:30Z</time>
      </trkpt>
      <trkpt lat="42.8122170" lon="-7.6586160">
        <ele>483.5</ele>
        <time>2020-10-19T08:03:31Z</time>
      </trkpt>
      <trkpt lat="42.8122190" lon="-7.6586310">
        <ele>483.5</ele>
        <time>2020-10-19T08:03:32Z</time>
      </trkpt>
      <trkpt lat="42.8122210" lon="-7.6586460">
        <ele>483.6</ele>
        <time>2020-10-19T08:03:33Z</time>
      </trkpt>
      <trkpt lat="42.8122230" lon="-7.6586600">
        <ele>483.7</ele>
        <time>2020-10-19T08:03:34Z</time>
      </trkpt>
      <trkpt lat="42.8122250" lon="-7.6586740">
        <ele>483.8</ele>
        <time>2020-10-19T08:03:35Z</time>
      </trkpt>
      <trkpt lat="42.8122250" lon="-7.6586870">
        <ele>483.9</ele>
        <time>2020-10-19T08:03:36Z</time>
      </trkpt>
      <trkpt lat="42.8122240" lon="-7.6587000">
        <ele>483.9</ele>
        <time>2020-10-19T08:03:37Z</time>
      </trkpt>
      <trkpt lat="42.8122230" lon="-7.6587130">
        <ele>484.0</ele>
        <time>2020-10-19T08:03:38Z</time>
      </trkpt>
      <trkpt lat="42.8122190" lon="-7.6587260">
        <ele>484.1</ele>
        <time>2020-10-19T08:03:39Z</time>
      </trkpt>
      <trkpt lat="42.8122140" lon="-7.6587360">
        <ele>484.1</ele>
        <time>2020-10-19T08:03:40Z</time>
      </trkpt>
      <trkpt lat="42.8122060" lon="-7.6587450">
        <ele>484.2</ele>
        <time>2020-10-19T08:03:41Z</time>
      </trkpt>
      <trkpt lat="42.8121960" lon="-7.6587530">
        <ele>484.3</ele>
        <time>2020-10-19T08:03:42Z</time>
      </trkpt>
      <trkpt lat="42.8121850" lon="-7.6587610">
        <ele>484.4</ele>
        <time>2020-10-19T08:03:43Z</time>
      </trkpt>
      <trkpt lat="42.8121740" lon="-7.6587700">
        <ele>484.4</ele>
        <time>2020-10-19T08:03:44Z</time>
      </trkpt>
      <trkpt lat="42.8121640" lon="-7.6587820">
        <ele>484.5</ele>
        <time>2020-10-19T08:03:45Z</time>
      </trkpt>
      <trkpt lat="42.8121550" lon="-7.6587960">
        <ele>484.6</ele>
        <time>2020-10-19T08:03:46Z</time>
      </trkpt>
      <trkpt lat="42.8121480" lon="-7.6588110">
        <ele>484.7</ele>
        <time>2020-10-19T08:03:47Z</time>
      </trkpt>
      <trkpt lat="42.8121420" lon="-7.6588270">
        <ele>484.8</ele>
        <time>2020-10-19T08:03:48Z</time>
      </trkpt>
      <trkpt lat="42.8121370" lon="-7.6588420">
        <ele>484.8</ele>
        <time>2020-10-19T08:03:49Z</time>
      </trkpt>
      <trkpt lat="42.8121340" lon="-7.6588560">
        <ele>484.9</ele>
        <time>2020-10-19T08:03:50Z</time>
      </trkpt>
      <trkpt lat="42.8121310" lon="-7.6588690">
        <ele>484.9</ele>
        <time>2020-10-19T08:03:51Z</time>
      </trkpt>
      <trkpt lat="42.8121290" lon="-7.6588840">
        <ele>485.0</ele>
        <time>2020-10-19T08:03:52Z</time>
      </trkpt>
      <trkpt lat="42.8121260" lon="-7.6588990">
        <ele>485.1</ele>
        <time>2020-10-19T08:03:53Z</time>
      </trkpt>
      <trkpt lat="42.8121230" lon="-7.6589150">
        <ele>485.1</ele>
        <time>2020-10-19T08:03:54Z</time>
      </trkpt>
      <trkpt lat="42.8121200" lon="-7.6589310">
        <ele>485.2</ele>
        <time>2020-10-19T08:03:55Z</time>
      </trkpt>
      <trkpt lat="42.8121160" lon="-7.6589470">
        <ele>485.2</ele>
        <time>2020-10-19T08:03:56Z</time>
      </trkpt>
      <trkpt lat="42.8121150" lon="-7.6589630">
        <ele>485.3</ele>
        <time>2020-10-19T08:03:57Z</time>
      </trkpt>
      <trkpt lat="42.8121140" lon="-7.6589800">
        <ele>485.3</ele>
        <time>2020-10-19T08:03:58Z</time>
      </trkpt>
      <trkpt lat="42.8121140" lon="-7.6589950">
        <ele>485.3</ele>
        <time>2020-10-19T08:03:59Z</time>
      </trkpt>
      <trkpt lat="42.8121160" lon="-7.6590100">
        <ele>485.4</ele>
        <time>2020-10-19T08:04:00Z</time>
      </trkpt>
      <trkpt lat="42.8121180" lon="-7.6590260">
        <ele>485.4</ele>
        <time>2020-10-19T08:04:01Z</time>
      </trkpt>
      <trkpt lat="42.8121190" lon="-7.6590420">
        <ele>485.5</ele>
        <time>2020-10-19T08:04:02Z</time>
      </trkpt>
      <trkpt lat="42.8121190" lon="-7.6590600">
        <ele>485.5</ele>
        <time>2020-10-19T08:04:03Z</time>
      </trkpt>
      <trkpt lat="42.8121180" lon="-7.6590770">
        <ele>485.5</ele>
        <time>2020-10-19T08:04:04Z</time>
      </trkpt>
      <trkpt lat="42.8121160" lon="-7.6590950">
        <ele>485.6</ele>
        <time>2020-10-19T08:04:05Z</time>
      </trkpt>
      <trkpt lat="42.8121160" lon="-7.6591120">
        <ele>485.6</ele>
        <time>2020-10-19T08:04:06Z</time>
      </trkpt>
      <trkpt lat="42.8121170" lon="-7.6591280">
        <ele>485.6</ele>
        <time>2020-10-19T08:04:07Z</time>
      </trkpt>
      <trkpt lat="42.8121200" lon="-7.6591430">
        <ele>485.6</ele>
        <time>2020-10-19T08:04:08Z</time>
      </trkpt>
      <trkpt lat="42.8121210" lon="-7.6591580">
        <ele>485.7</ele>
        <time>2020-10-19T08:04:09Z</time>
      </trkpt>
      <trkpt lat="42.8121210" lon="-7.6591750">
        <ele>485.7</ele>
        <time>2020-10-19T08:04:10Z</time>
      </trkpt>
      <trkpt lat="42.8121190" lon="-7.6591930">
        <ele>485.7</ele>
        <time>2020-10-19T08:04:11Z</time>
      </trkpt>
      <trkpt lat="42.8121190" lon="-7.6592120">
        <ele>485.7</ele>
        <time>2020-10-19T08:04:12Z</time>
      </trkpt>
      <trkpt lat="42.8121210" lon="-7.6592290">
        <ele>485.8</ele>
        <time>2020-10-19T08:04:13Z</time>
      </trkpt>
      <trkpt lat="42.8121240" lon="-7.6592470">
        <ele>485.8</ele>
        <time>2020-10-19T08:04:14Z</time>
      </trkpt>
      <trkpt lat="42.8121260" lon="-7.6592650">
        <ele>485.8</ele>
        <time>2020-10-19T08:04:15Z</time>
      </trkpt>
      <trkpt lat="42.8121290" lon="-7.6592820">
        <ele>485.8</ele>
        <time>2020-10-19T08:04:16Z</time>
      </trkpt>
      <trkpt lat="42.8121300" lon="-7.6592980">
        <ele>485.8</ele>
        <time>2020-10-19T08:04:17Z</time>
      </trkpt>
      <trkpt lat="42.8121320" lon="-7.6593130">
        <ele>485.9</ele>
        <time>2020-10-19T08:04:18Z</time>
      </trkpt>
      <trkpt lat="42.8121340" lon="-7.6593290">
        <ele>485.9</ele>
        <time>2020-10-19T08:04:19Z</time>
      </trkpt>
      <trkpt lat="42.8121360" lon="-7.6593450">
        <ele>485.9</ele>
        <time>2020-10-19T08:04:20Z</time>
      </trkpt>
      <trkpt lat="42.8121380" lon="-7.6593610">
        <ele>485.9</ele>
        <time>2020-10-19T08:04:21Z</time>
      </trkpt>
      <trkpt lat="42.8121400" lon="-7.6593760">
        <ele>485.9</ele>
        <time>2020-10-19T08:04:22Z</time>
      </trkpt>
      <trkpt lat="42.8121420" lon="-7.6593920">
        <ele>486.0</ele>
        <time>2020-10-19T08:04:23Z</time>
      </trkpt>
      <trkpt lat="42.8121450" lon="-7.6594100">
        <ele>486.0</ele>
        <time>2020-10-19T08:04:24Z</time>
      </trkpt>
      <trkpt lat="42.8121470" lon="-7.6594280">
        <ele>486.0</ele>
        <time>2020-10-19T08:04:25Z</time>
      </trkpt>
      <trkpt lat="42.8121510" lon="-7.6594460">
        <ele>486.0</ele>
        <time>2020-10-19T08:04:26Z</time>
      </trkpt>
      <trkpt lat="42.8121550" lon="-7.6594620">
        <ele>486.1</ele>
        <time>2020-10-19T08:04:27Z</time>
      </trkpt>
      <trkpt lat="42.8121600" lon="-7.6594790">
        <ele>486.1</ele>
        <time>2020-10-19T08:04:28Z</time>
      </trkpt>
      <trkpt lat="42.8121640" lon="-7.6594960">
        <ele>486.1</ele>
        <time>2020-10-19T08:04:29Z</time>
      </trkpt>
      <trkpt lat="42.8121690" lon="-7.6595140">
        <ele>486.1</ele>
        <time>2020-10-19T08:04:30Z</time>
      </trkpt>
      <trkpt lat="42.8121740" lon="-7.6595330">
        <ele>486.2</ele>
        <time>2020-10-19T08:04:31Z</time>
      </trkpt>
      <trkpt lat="42.8121770" lon="-7.6595500">
        <ele>486.2</ele>
        <time>2020-10-19T08:04:32Z</time>
      </trkpt>
      <trkpt lat="42.8121810" lon="-7.6595680">
        <ele>486.2</ele>
        <time>2020-10-19T08:04:33Z</time>
      </trkpt>
      <trkpt lat="42.8121840" lon="-7.6595850">
        <ele>486.2</ele>
        <time>2020-10-19T08:04:34Z</time>
      </trkpt>
      <trkpt lat="42.8121870" lon="-7.6596030">
        <ele>486.3</ele>
        <time>2020-10-19T08:04:35Z</time>
      </trkpt>
      <trkpt lat="42.8121890" lon="-7.6596200">
        <ele>486.3</ele>
        <time>2020-10-19T08:04:36Z</time>
      </trkpt>
      <trkpt lat="42.8121910" lon="-7.6596370">
        <ele>486.3</ele>
        <time>2020-10-19T08:04:37Z</time>
      </trkpt>
      <trkpt lat="42.8121930" lon="-7.6596530">
        <ele>486.3</ele>
        <time>2020-10-19T08:04:38Z</time>
      </trkpt>
      <trkpt lat="42.8121950" lon="-7.6596700">
        <ele>486.4</ele>
        <time>2020-10-19T08:04:39Z</time>
      </trkpt>
      <trkpt lat="42.8121970" lon="-7.6596870">
        <ele>486.4</ele>
        <time>2020-10-19T08:04:40Z</time>
      </trkpt>
      <trkpt lat="42.8122000" lon="-7.6597060">
        <ele>486.4</ele>
        <time>2020-10-19T08:04:41Z</time>
      </trkpt>
      <trkpt lat="42.8122020" lon="-7.6597250">
        <ele>486.5</ele>
        <time>2020-10-19T08:04:42Z</time>
      </trkpt>
      <trkpt lat="42.8122050" lon="-7.6597430">
        <ele>486.5</ele>
        <time>2020-10-19T08:04:43Z</time>
      </trkpt>
      <trkpt lat="42.8122090" lon="-7.6597600">
        <ele>486.5</ele>
        <time>2020-10-19T08:04:44Z</time>
      </trkpt>
      <trkpt lat="42.8122140" lon="-7.6597770">
        <ele>486.5</ele>
        <time>2020-10-19T08:04:45Z</time>
      </trkpt>
      <trkpt lat="42.8122190" lon="-7.6597930">
        <ele>486.5</ele>
        <time>2020-10-19T08:04:46Z</time>
      </trkpt>
      <trkpt lat="42.8122250" lon="-7.6598080">
        <ele>486.6</ele>
        <time>2020-10-19T08:04:47Z</time>
      </trkpt>
      <trkpt lat="42.8122310" lon="-7.6598250">
        <ele>486.6</ele>
        <time>2020-10-19T08:04:48Z</time>
      </trkpt>
      <trkpt lat="42.8122380" lon="-7.6598430">
        <ele>486.6</ele>
        <time>2020-10-19T08:04:49Z</time>
      </trkpt>
      <trkpt lat="42.8122460" lon="-7.6598620">
        <ele>486.6</ele>
        <time>2020-10-19T08:04:50Z</time>
      </trkpt>
      <trkpt lat="42.8122540" lon="-7.6598800">
        <ele>486.7</ele>
        <time>2020-10-19T08:04:51Z</time>
      </trkpt>
      <trkpt lat="42.8122610" lon="-7.6598970">
        <ele>486.7</ele>
        <time>2020-10-19T08:04:52Z</time>
      </trkpt>
      <trkpt lat="42.8122660" lon="-7.6599130">
        <ele>486.7</ele>
        <time>2020-10-19T08:04:53Z</time>
      </trkpt>
      <trkpt lat="42.8122710" lon="-7.6599310">
        <ele>486.7</ele>
        <time>2020-10-19T08:04:54Z</time>
      </trkpt>
      <trkpt lat="42.8122750" lon="-7.6599480">
        <ele>486.8</ele>
        <time>2020-10-19T08:04:55Z</time>
      </trkpt>
      <trkpt lat="42.8122790" lon="-7.6599650">
        <ele>486.8</ele>
        <time>2020-10-19T08:04:56Z</time>
      </trkpt>
      <trkpt lat="42.8122830" lon="-7.6599810">
        <ele>486.8</ele>
        <time>2020-10-19T08:04:57Z</time>
      </trkpt>
      <trkpt lat="42.8122880" lon="-7.6599970">
        <ele>486.8</ele>
        <time>2020-10-19T08:04:58Z</time>
      </trkpt>
      <trkpt lat="42.8122930" lon="-7.6600140">
        <ele>486.8</ele>
        <time>2020-10-19T08:04:59Z</time>
      </trkpt>
      <trkpt lat="42.8122940" lon="-7.6600330">
        <ele>486.9</ele>
        <time>2020-10-19T08:05:00Z</time>
      </trkpt>
      <trkpt lat="42.8122930" lon="-7.6600510">
        <ele>486.9</ele>
        <time>2020-10-19T08:05:01Z</time>
      </trkpt>
      <trkpt lat="42.8122860" lon="-7.6600660">
        <ele>486.9</ele>
        <time>2020-10-19T08:05:02Z</time>
      </trkpt>
      <trkpt lat="42.8122810" lon="-7.6600790">
        <ele>486.9</ele>
        <time>2020-10-19T08:05:03Z</time>
      </trkpt>
      <trkpt lat="42.8122750" lon="-7.6600920">
        <ele>487.0</ele>
        <time>2020-10-19T08:05:04Z</time>
      </trkpt>
      <trkpt lat="42.8122750" lon="-7.6601070">
        <ele>487.0</ele>
        <time>2020-10-19T08:05:05Z</time>
      </trkpt>
      <trkpt lat="42.8122770" lon="-7.6601230">
        <ele>487.0</ele>
        <time>2020-10-19T08:05:06Z</time>
      </trkpt>
      <trkpt lat="42.8122800" lon="-7.6601390">
        <ele>487.0</ele>
        <time>2020-10-19T08:05:07Z</time>
      </trkpt>
      <trkpt lat="42.8122810" lon="-7.6601560">
        <ele>487.0</ele>
        <time>2020-10-19T08:05:08Z</time>
      </trkpt>
      <trkpt lat="42.8122820" lon="-7.6601740">
        <ele>487.1</ele>
        <time>2020-10-19T08:05:09Z</time>
      </trkpt>
      <trkpt lat="42.8122840" lon="-7.6601920">
        <ele>487.1</ele>
        <time>2020-10-19T08:05:10Z</time>
      </trkpt>
      <trkpt lat="42.8122860" lon="-7.6602090">
        <ele>487.1</ele>
        <time>2020-10-19T08:05:11Z</time>
      </trkpt>
      <trkpt lat="42.8122890" lon="-7.6602260">
        <ele>487.1</ele>
        <time>2020-10-19T08:05:12Z</time>
      </trkpt>
      <trkpt lat="42.8122910" lon="-7.6602430">
        <ele>487.1</ele>
        <time>2020-10-19T08:05:13Z</time>
      </trkpt>
      <trkpt lat="42.8122940" lon="-7.6602590">
        <ele>487.1</ele>
        <time>2020-10-19T08:05:14Z</time>
      </trkpt>
      <trkpt lat="42.8122950" lon="-7.6602760">
        <ele>487.2</ele>
        <time>2020-10-19T08:05:15Z</time>
      </trkpt>
      <trkpt lat="42.8122970" lon="-7.6602930">
        <ele>487.2</ele>
        <time>2020-10-19T08:05:16Z</time>
      </trkpt>
      <trkpt lat="42.8122990" lon="-7.6603100">
        <ele>487.2</ele>
        <time>2020-10-19T08:05:17Z</time>
      </trkpt>
      <trkpt lat="42.8123010" lon="-7.6603270">
        <ele>487.2</ele>
        <time>2020-10-19T08:05:18Z</time>
      </trkpt>
      <trkpt lat="42.8123040" lon="-7.6603430">
        <ele>487.2</ele>
        <time>2020-10-19T08:05:19Z</time>
      </trkpt>
      <trkpt lat="42.8123080" lon="-7.6603580">
        <ele>487.2</ele>
        <time>2020-10-19T08:05:20Z</time>
      </trkpt>
      <trkpt lat="42.8123100" lon="-7.6603740">
        <ele>487.2</ele>
        <time>2020-10-19T08:05:21Z</time>
      </trkpt>
      <trkpt lat="42.8123120" lon="-7.6603890">
        <ele>487.2</ele>
        <time>2020-10-19T08:05:22Z</time>
      </trkpt>
      <trkpt lat="42.8123140" lon="-7.6604030">
        <ele>487.2</ele>
        <time>2020-10-19T08:05:23Z</time>
      </trkpt>
      <trkpt lat="42.8123150" lon="-7.6604170">
        <ele>487.2</ele>
        <time>2020-10-19T08:05:24Z</time>
      </trkpt>
      <trkpt lat="42.8123170" lon="-7.6604310">
        <ele>487.2</ele>
        <time>2020-10-19T08:05:25Z</time>
      </trkpt>
      <trkpt lat="42.8123180" lon="-7.6604450">
        <ele>487.3</ele>
        <time>2020-10-19T08:05:26Z</time>
      </trkpt>
      <trkpt lat="42.8123210" lon="-7.6604590">
        <ele>487.3</ele>
        <time>2020-10-19T08:05:27Z</time>
      </trkpt>
      <trkpt lat="42.8123240" lon="-7.6604730">
        <ele>487.3</ele>
        <time>2020-10-19T08:05:28Z</time>
      </trkpt>
      <trkpt lat="42.8123270" lon="-7.6604880">
        <ele>487.3</ele>
        <time>2020-10-19T08:05:29Z</time>
      </trkpt>
      <trkpt lat="42.8123300" lon="-7.6605030">
        <ele>487.3</ele>
        <time>2020-10-19T08:05:30Z</time>
      </trkpt>
      <trkpt lat="42.8123330" lon="-7.6605180">
        <ele>487.3</ele>
        <time>2020-10-19T08:05:31Z</time>
      </trkpt>
      <trkpt lat="42.8123350" lon="-7.6605320">
        <ele>487.3</ele>
        <time>2020-10-19T08:05:32Z</time>
      </trkpt>
      <trkpt lat="42.8123390" lon="-7.6605470">
        <ele>487.3</ele>
        <time>2020-10-19T08:05:33Z</time>
      </trkpt>
      <trkpt lat="42.8123420" lon="-7.6605620">
        <ele>487.3</ele>
        <time>2020-10-19T08:05:34Z</time>
      </trkpt>
      <trkpt lat="42.8123440" lon="-7.6605780">
        <ele>487.3</ele>
        <time>2020-10-19T08:05:35Z</time>
      </trkpt>
      <trkpt lat="42.8123460" lon="-7.6605920">
        <ele>487.3</ele>
        <time>2020-10-19T08:05:36Z</time>
      </trkpt>
      <trkpt lat="42.8123480" lon="-7.6606060">
        <ele>487.3</ele>
        <time>2020-10-19T08:05:37Z</time>
      </trkpt>
      <trkpt lat="42.8123510" lon="-7.6606210">
        <ele>487.4</ele>
        <time>2020-10-19T08:05:38Z</time>
      </trkpt>
      <trkpt lat="42.8123530" lon="-7.6606350">
        <ele>487.4</ele>
        <time>2020-10-19T08:05:39Z</time>
      </trkpt>
      <trkpt lat="42.8123560" lon="-7.6606500">
        <ele>487.4</ele>
        <time>2020-10-19T08:05:40Z</time>
      </trkpt>
      <trkpt lat="42.8123590" lon="-7.6606620">
        <ele>487.4</ele>
        <time>2020-10-19T08:05:41Z</time>
      </trkpt>
      <trkpt lat="42.8123620" lon="-7.6606740">
        <ele>487.4</ele>
        <time>2020-10-19T08:05:42Z</time>
      </trkpt>
      <trkpt lat="42.8123630" lon="-7.6606870">
        <ele>487.4</ele>
        <time>2020-10-19T08:05:43Z</time>
      </trkpt>
      <trkpt lat="42.8123640" lon="-7.6607010">
        <ele>487.4</ele>
        <time>2020-10-19T08:05:44Z</time>
      </trkpt>
      <trkpt lat="42.8123650" lon="-7.6607170">
        <ele>487.4</ele>
        <time>2020-10-19T08:05:45Z</time>
      </trkpt>
      <trkpt lat="42.8123670" lon="-7.6607310">
        <ele>487.4</ele>
        <time>2020-10-19T08:05:46Z</time>
      </trkpt>
      <trkpt lat="42.8123690" lon="-7.6607450">
        <ele>487.4</ele>
        <time>2020-10-19T08:05:47Z</time>
      </trkpt>
      <trkpt lat="42.8123710" lon="-7.6607590">
        <ele>487.4</ele>
        <time>2020-10-19T08:05:48Z</time>
      </trkpt>
      <trkpt lat="42.8123740" lon="-7.6607750">
        <ele>487.4</ele>
        <time>2020-10-19T08:05:49Z</time>
      </trkpt>
      <trkpt lat="42.8123760" lon="-7.6607910">
        <ele>487.4</ele>
        <time>2020-10-19T08:05:50Z</time>
      </trkpt>
      <trkpt lat="42.8123780" lon="-7.6608050">
        <ele>487.4</ele>
        <time>2020-10-19T08:05:51Z</time>
      </trkpt>
      <trkpt lat="42.8123790" lon="-7.6608180">
        <ele>487.4</ele>
        <time>2020-10-19T08:05:52Z</time>
      </trkpt>
      <trkpt lat="42.8123810" lon="-7.6608310">
        <ele>487.4</ele>
        <time>2020-10-19T08:05:53Z</time>
      </trkpt>
      <trkpt lat="42.8123840" lon="-7.6608460">
        <ele>487.4</ele>
        <time>2020-10-19T08:05:54Z</time>
      </trkpt>
      <trkpt lat="42.8123870" lon="-7.6608630">
        <ele>487.4</ele>
        <time>2020-10-19T08:05:55Z</time>
      </trkpt>
      <trkpt lat="42.8123900" lon="-7.6608800">
        <ele>487.4</ele>
        <time>2020-10-19T08:05:56Z</time>
      </trkpt>
      <trkpt lat="42.8123910" lon="-7.6608970">
        <ele>487.4</ele>
        <time>2020-10-19T08:05:57Z</time>
      </trkpt>
      <trkpt lat="42.8123940" lon="-7.6609130">
        <ele>487.4</ele>
        <time>2020-10-19T08:05:58Z</time>
      </trkpt>
      <trkpt lat="42.8123970" lon="-7.6609290">
        <ele>487.4</ele>
        <time>2020-10-19T08:05:59Z</time>
      </trkpt>
      <trkpt lat="42.8124000" lon="-7.6609450">
        <ele>487.4</ele>
        <time>2020-10-19T08:06:00Z</time>
      </trkpt>
      <trkpt lat="42.8124030" lon="-7.6609610">
        <ele>487.4</ele>
        <time>2020-10-19T08:06:01Z</time>
      </trkpt>
      <trkpt lat="42.8124060" lon="-7.6609780">
        <ele>487.4</ele>
        <time>2020-10-19T08:06:02Z</time>
      </trkpt>
      <trkpt lat="42.8124100" lon="-7.6609950">
        <ele>487.4</ele>
        <time>2020-10-19T08:06:03Z</time>
      </trkpt>
      <trkpt lat="42.8124140" lon="-7.6610110">
        <ele>487.4</ele>
        <time>2020-10-19T08:06:04Z</time>
      </trkpt>
      <trkpt lat="42.8124190" lon="-7.6610270">
        <ele>487.4</ele>
        <time>2020-10-19T08:06:05Z</time>
      </trkpt>
      <trkpt lat="42.8124230" lon="-7.6610420">
        <ele>487.4</ele>
        <time>2020-10-19T08:06:06Z</time>
      </trkpt>
      <trkpt lat="42.8124260" lon="-7.6610590">
        <ele>487.4</ele>
        <time>2020-10-19T08:06:07Z</time>
      </trkpt>
      <trkpt lat="42.8124290" lon="-7.6610750">
        <ele>487.4</ele>
        <time>2020-10-19T08:06:08Z</time>
      </trkpt>
      <trkpt lat="42.8124330" lon="-7.6610910">
        <ele>487.4</ele>
        <time>2020-10-19T08:06:09Z</time>
      </trkpt>
      <trkpt lat="42.8124370" lon="-7.6611060">
        <ele>487.4</ele>
        <time>2020-10-19T08:06:10Z</time>
      </trkpt>
      <trkpt lat="42.8124400" lon="-7.6611210">
        <ele>487.4</ele>
        <time>2020-10-19T08:06:11Z</time>
      </trkpt>
      <trkpt lat="42.8124430" lon="-7.6611380">
        <ele>487.4</ele>
        <time>2020-10-19T08:06:12Z</time>
      </trkpt>
      <trkpt lat="42.8124460" lon="-7.6611540">
        <ele>487.4</ele>
        <time>2020-10-19T08:06:13Z</time>
      </trkpt>
      <trkpt lat="42.8124470" lon="-7.6611690">
        <ele>487.4</ele>
        <time>2020-10-19T08:06:14Z</time>
      </trkpt>
      <trkpt lat="42.8124480" lon="-7.6611850">
        <ele>487.4</ele>
        <time>2020-10-19T08:06:15Z</time>
      </trkpt>
      <trkpt lat="42.8124500" lon="-7.6612010">
        <ele>487.4</ele>
        <time>2020-10-19T08:06:16Z</time>
      </trkpt>
      <trkpt lat="42.8124510" lon="-7.6612180">
        <ele>487.4</ele>
        <time>2020-10-19T08:06:17Z</time>
      </trkpt>
      <trkpt lat="42.8124540" lon="-7.6612340">
        <ele>487.4</ele>
        <time>2020-10-19T08:06:18Z</time>
      </trkpt>
      <trkpt lat="42.8124560" lon="-7.6612510">
        <ele>487.4</ele>
        <time>2020-10-19T08:06:19Z</time>
      </trkpt>
      <trkpt lat="42.8124580" lon="-7.6612660">
        <ele>487.4</ele>
        <time>2020-10-19T08:06:20Z</time>
      </trkpt>
      <trkpt lat="42.8124600" lon="-7.6612810">
        <ele>487.4</ele>
        <time>2020-10-19T08:06:21Z</time>
      </trkpt>
      <trkpt lat="42.8124620" lon="-7.6612950">
        <ele>487.4</ele>
        <time>2020-10-19T08:06:22Z</time>
      </trkpt>
      <trkpt lat="42.8124640" lon="-7.6613110">
        <ele>487.5</ele>
        <time>2020-10-19T08:06:23Z</time>
      </trkpt>
      <trkpt lat="42.8124670" lon="-7.6613260">
        <ele>487.5</ele>
        <time>2020-10-19T08:06:24Z</time>
      </trkpt>
      <trkpt lat="42.8124690" lon="-7.6613420">
        <ele>487.5</ele>
        <time>2020-10-19T08:06:25Z</time>
      </trkpt>
      <trkpt lat="42.8124720" lon="-7.6613580">
        <ele>487.5</ele>
        <time>2020-10-19T08:06:26Z</time>
      </trkpt>
      <trkpt lat="42.8124740" lon="-7.6613740">
        <ele>487.5</ele>
        <time>2020-10-19T08:06:27Z</time>
      </trkpt>
      <trkpt lat="42.8124780" lon="-7.6613900">
        <ele>487.5</ele>
        <time>2020-10-19T08:06:28Z</time>
      </trkpt>
      <trkpt lat="42.8124810" lon="-7.6614070">
        <ele>487.5</ele>
        <time>2020-10-19T08:06:29Z</time>
      </trkpt>
      <trkpt lat="42.8124840" lon="-7.6614230">
        <ele>487.5</ele>
        <time>2020-10-19T08:06:30Z</time>
      </trkpt>
      <trkpt lat="42.8124870" lon="-7.6614390">
        <ele>487.5</ele>
        <time>2020-10-19T08:06:31Z</time>
      </trkpt>
      <trkpt lat="42.8124890" lon="-7.6614550">
        <ele>487.5</ele>
        <time>2020-10-19T08:06:32Z</time>
      </trkpt>
      <trkpt lat="42.8124900" lon="-7.6614710">
        <ele>487.5</ele>
        <time>2020-10-19T08:06:33Z</time>
      </trkpt>
      <trkpt lat="42.8124920" lon="-7.6614870">
        <ele>487.4</ele>
        <time>2020-10-19T08:06:34Z</time>
      </trkpt>
      <trkpt lat="42.8124930" lon="-7.6615020">
        <ele>487.4</ele>
        <time>2020-10-19T08:06:35Z</time>
      </trkpt>
      <trkpt lat="42.8124960" lon="-7.6615180">
        <ele>487.4</ele>
        <time>2020-10-19T08:06:36Z</time>
      </trkpt>
      <trkpt lat="42.8124980" lon="-7.6615330">
        <ele>487.4</ele>
        <time>2020-10-19T08:06:37Z</time>
      </trkpt>
      <trkpt lat="42.8125020" lon="-7.6615480">
        <ele>487.4</ele>
        <time>2020-10-19T08:06:38Z</time>
      </trkpt>
      <trkpt lat="42.8125050" lon="-7.6615640">
        <ele>487.4</ele>
        <time>2020-10-19T08:06:39Z</time>
      </trkpt>
      <trkpt lat="42.8125070" lon="-7.6615780">
        <ele>487.4</ele>
        <time>2020-10-19T08:06:40Z</time>
      </trkpt>
      <trkpt lat="42.8125110" lon="-7.6615930">
        <ele>487.3</ele>
        <time>2020-10-19T08:06:41Z</time>
      </trkpt>
      <trkpt lat="42.8125140" lon="-7.6616080">
        <ele>487.3</ele>
        <time>2020-10-19T08:06:42Z</time>
      </trkpt>
      <trkpt lat="42.8125170" lon="-7.6616230">
        <ele>487.3</ele>
        <time>2020-10-19T08:06:43Z</time>
      </trkpt>
      <trkpt lat="42.8125190" lon="-7.6616390">
        <ele>487.2</ele>
        <time>2020-10-19T08:06:44Z</time>
      </trkpt>
      <trkpt lat="42.8125210" lon="-7.6616540">
        <ele>487.2</ele>
        <time>2020-10-19T08:06:45Z</time>
      </trkpt>
      <trkpt lat="42.8125230" lon="-7.6616690">
        <ele>487.1</ele>
        <time>2020-10-19T08:06:46Z</time>
      </trkpt>
      <trkpt lat="42.8125240" lon="-7.6616850">
        <ele>487.1</ele>
        <time>2020-10-19T08:06:47Z</time>
      </trkpt>
      <trkpt lat="42.8125260" lon="-7.6617020">
        <ele>487.0</ele>
        <time>2020-10-19T08:06:48Z</time>
      </trkpt>
      <trkpt lat="42.8125260" lon="-7.6617190">
        <ele>487.0</ele>
        <time>2020-10-19T08:06:49Z</time>
      </trkpt>
      <trkpt lat="42.8125270" lon="-7.6617360">
        <ele>486.9</ele>
        <time>2020-10-19T08:06:50Z</time>
      </trkpt>
      <trkpt lat="42.8125280" lon="-7.6617530">
        <ele>486.9</ele>
        <time>2020-10-19T08:06:51Z</time>
      </trkpt>
      <trkpt lat="42.8125310" lon="-7.6617700">
        <ele>486.8</ele>
        <time>2020-10-19T08:06:52Z</time>
      </trkpt>
      <trkpt lat="42.8125330" lon="-7.6617860">
        <ele>486.8</ele>
        <time>2020-10-19T08:06:53Z</time>
      </trkpt>
      <trkpt lat="42.8125350" lon="-7.6618030">
        <ele>486.7</ele>
        <time>2020-10-19T08:06:54Z</time>
      </trkpt>
      <trkpt lat="42.8125380" lon="-7.6618200">
        <ele>486.6</ele>
        <time>2020-10-19T08:06:55Z</time>
      </trkpt>
      <trkpt lat="42.8125430" lon="-7.6618380">
        <ele>486.6</ele>
        <time>2020-10-19T08:06:56Z</time>
      </trkpt>
      <trkpt lat="42.8125460" lon="-7.6618540">
        <ele>486.5</ele>
        <time>2020-10-19T08:06:57Z</time>
      </trkpt>
      <trkpt lat="42.8125490" lon="-7.6618700">
        <ele>486.5</ele>
        <time>2020-10-19T08:06:58Z</time>
      </trkpt>
      <trkpt lat="42.8125500" lon="-7.6618840">
        <ele>486.4</ele>
        <time>2020-10-19T08:06:59Z</time>
      </trkpt>
      <trkpt lat="42.8125530" lon="-7.6618980">
        <ele>486.4</ele>
        <time>2020-10-19T08:07:00Z</time>
      </trkpt>
      <trkpt lat="42.8125550" lon="-7.6619130">
        <ele>486.4</ele>
        <time>2020-10-19T08:07:01Z</time>
      </trkpt>
      <trkpt lat="42.8125580" lon="-7.6619280">
        <ele>486.3</ele>
        <time>2020-10-19T08:07:02Z</time>
      </trkpt>
      <trkpt lat="42.8125610" lon="-7.6619450">
        <ele>486.3</ele>
        <time>2020-10-19T08:07:03Z</time>
      </trkpt>
      <trkpt lat="42.8125640" lon="-7.6619610">
        <ele>486.3</ele>
        <time>2020-10-19T08:07:04Z</time>
      </trkpt>
      <trkpt lat="42.8125660" lon="-7.6619770">
        <ele>486.2</ele>
        <time>2020-10-19T08:07:05Z</time>
      </trkpt>
      <trkpt lat="42.8125690" lon="-7.6619930">
        <ele>486.2</ele>
        <time>2020-10-19T08:07:06Z</time>
      </trkpt>
      <trkpt lat="42.8125730" lon="-7.6620090">
        <ele>486.2</ele>
        <time>2020-10-19T08:07:07Z</time>
      </trkpt>
      <trkpt lat="42.8125770" lon="-7.6620260">
        <ele>486.2</ele>
        <time>2020-10-19T08:07:08Z</time>
      </trkpt>
      <trkpt lat="42.8125800" lon="-7.6620420">
        <ele>486.2</ele>
        <time>2020-10-19T08:07:09Z</time>
      </trkpt>
      <trkpt lat="42.8125820" lon="-7.6620570">
        <ele>486.2</ele>
        <time>2020-10-19T08:07:10Z</time>
      </trkpt>
      <trkpt lat="42.8125840" lon="-7.6620730">
        <ele>486.2</ele>
        <time>2020-10-19T08:07:11Z</time>
      </trkpt>
      <trkpt lat="42.8125850" lon="-7.6620890">
        <ele>486.2</ele>
        <time>2020-10-19T08:07:12Z</time>
      </trkpt>
      <trkpt lat="42.8125860" lon="-7.6621050">
        <ele>486.2</ele>
        <time>2020-10-19T08:07:13Z</time>
      </trkpt>
      <trkpt lat="42.8125870" lon="-7.6621210">
        <ele>486.1</ele>
        <time>2020-10-19T08:07:14Z</time>
      </trkpt>
      <trkpt lat="42.8125880" lon="-7.6621370">
        <ele>486.1</ele>
        <time>2020-10-19T08:07:15Z</time>
      </trkpt>
      <trkpt lat="42.8125890" lon="-7.6621530">
        <ele>486.1</ele>
        <time>2020-10-19T08:07:16Z</time>
      </trkpt>
      <trkpt lat="42.8125910" lon="-7.6621680">
        <ele>486.1</ele>
        <time>2020-10-19T08:07:17Z</time>
      </trkpt>
      <trkpt lat="42.8125920" lon="-7.6621830">
        <ele>486.1</ele>
        <time>2020-10-19T08:07:18Z</time>
      </trkpt>
      <trkpt lat="42.8125930" lon="-7.6621980">
        <ele>486.2</ele>
        <time>2020-10-19T08:07:19Z</time>
      </trkpt>
      <trkpt lat="42.8125940" lon="-7.6622130">
        <ele>486.2</ele>
        <time>2020-10-19T08:07:20Z</time>
      </trkpt>
      <trkpt lat="42.8125950" lon="-7.6622280">
        <ele>486.2</ele>
        <time>2020-10-19T08:07:21Z</time>
      </trkpt>
      <trkpt lat="42.8125960" lon="-7.6622440">
        <ele>486.2</ele>
        <time>2020-10-19T08:07:22Z</time>
      </trkpt>
      <trkpt lat="42.8125980" lon="-7.6622610">
        <ele>486.2</ele>
        <time>2020-10-19T08:07:23Z</time>
      </trkpt>
      <trkpt lat="42.8126000" lon="-7.6622770">
        <ele>486.2</ele>
        <time>2020-10-19T08:07:24Z</time>
      </trkpt>
      <trkpt lat="42.8126020" lon="-7.6622920">
        <ele>486.2</ele>
        <time>2020-10-19T08:07:25Z</time>
      </trkpt>
      <trkpt lat="42.8126040" lon="-7.6623090">
        <ele>486.2</ele>
        <time>2020-10-19T08:07:26Z</time>
      </trkpt>
      <trkpt lat="42.8126070" lon="-7.6623270">
        <ele>486.3</ele>
        <time>2020-10-19T08:07:27Z</time>
      </trkpt>
      <trkpt lat="42.8126100" lon="-7.6623440">
        <ele>486.3</ele>
        <time>2020-10-19T08:07:28Z</time>
      </trkpt>
      <trkpt lat="42.8126130" lon="-7.6623620">
        <ele>486.3</ele>
        <time>2020-10-19T08:07:29Z</time>
      </trkpt>
      <trkpt lat="42.8126160" lon="-7.6623780">
        <ele>486.4</ele>
        <time>2020-10-19T08:07:30Z</time>
      </trkpt>
      <trkpt lat="42.8126180" lon="-7.6623940">
        <ele>486.4</ele>
        <time>2020-10-19T08:07:31Z</time>
      </trkpt>
      <trkpt lat="42.8126190" lon="-7.6624110">
        <ele>486.4</ele>
        <time>2020-10-19T08:07:32Z</time>
      </trkpt>
      <trkpt lat="42.8126210" lon="-7.6624290">
        <ele>486.5</ele>
        <time>2020-10-19T08:07:33Z</time>
      </trkpt>
      <trkpt lat="42.8126230" lon="-7.6624470">
        <ele>486.5</ele>
        <time>2020-10-19T08:07:34Z</time>
      </trkpt>
      <trkpt lat="42.8126250" lon="-7.6624630">
        <ele>486.5</ele>
        <time>2020-10-19T08:07:35Z</time>
      </trkpt>
      <trkpt lat="42.8126280" lon="-7.6624790">
        <ele>486.6</ele>
        <time>2020-10-19T08:07:36Z</time>
      </trkpt>
      <trkpt lat="42.8126310" lon="-7.6624950">
        <ele>486.6</ele>
        <time>2020-10-19T08:07:37Z</time>
      </trkpt>
      <trkpt lat="42.8126330" lon="-7.6625120">
        <ele>486.7</ele>
        <time>2020-10-19T08:07:38Z</time>
      </trkpt>
      <trkpt lat="42.8126350" lon="-7.6625280">
        <ele>486.7</ele>
        <time>2020-10-19T08:07:39Z</time>
      </trkpt>
      <trkpt lat="42.8126350" lon="-7.6625420">
        <ele>486.7</ele>
        <time>2020-10-19T08:07:40Z</time>
      </trkpt>
      <trkpt lat="42.8126350" lon="-7.6625570">
        <ele>486.8</ele>
        <time>2020-10-19T08:07:41Z</time>
      </trkpt>
      <trkpt lat="42.8126350" lon="-7.6625710">
        <ele>486.8</ele>
        <time>2020-10-19T08:07:42Z</time>
      </trkpt>
      <trkpt lat="42.8126360" lon="-7.6625870">
        <ele>486.9</ele>
        <time>2020-10-19T08:07:43Z</time>
      </trkpt>
      <trkpt lat="42.8126360" lon="-7.6626020">
        <ele>486.9</ele>
        <time>2020-10-19T08:07:44Z</time>
      </trkpt>
      <trkpt lat="42.8126370" lon="-7.6626160">
        <ele>487.0</ele>
        <time>2020-10-19T08:07:45Z</time>
      </trkpt>
      <trkpt lat="42.8126370" lon="-7.6626290">
        <ele>487.0</ele>
        <time>2020-10-19T08:07:46Z</time>
      </trkpt>
      <trkpt lat="42.8126370" lon="-7.6626430">
        <ele>487.1</ele>
        <time>2020-10-19T08:07:47Z</time>
      </trkpt>
      <trkpt lat="42.8126360" lon="-7.6626560">
        <ele>487.1</ele>
        <time>2020-10-19T08:07:48Z</time>
      </trkpt>
      <trkpt lat="42.8126360" lon="-7.6626690">
        <ele>487.2</ele>
        <time>2020-10-19T08:07:49Z</time>
      </trkpt>
      <trkpt lat="42.8126380" lon="-7.6626800">
        <ele>487.2</ele>
        <time>2020-10-19T08:07:50Z</time>
      </trkpt>
      <trkpt lat="42.8126410" lon="-7.6626940">
        <ele>487.3</ele>
        <time>2020-10-19T08:07:51Z</time>
      </trkpt>
      <trkpt lat="42.8126450" lon="-7.6627100">
        <ele>487.3</ele>
        <time>2020-10-19T08:07:52Z</time>
      </trkpt>
      <trkpt lat="42.8126480" lon="-7.6627270">
        <ele>487.4</ele>
        <time>2020-10-19T08:07:53Z</time>
      </trkpt>
      <trkpt lat="42.8126500" lon="-7.6627420">
        <ele>487.5</ele>
        <time>2020-10-19T08:07:54Z</time>
      </trkpt>
      <trkpt lat="42.8126530" lon="-7.6627580">
        <ele>487.5</ele>
        <time>2020-10-19T08:07:55Z</time>
      </trkpt>
      <trkpt lat="42.8126570" lon="-7.6627750">
        <ele>487.6</ele>
        <time>2020-10-19T08:07:56Z</time>
      </trkpt>
      <trkpt lat="42.8126620" lon="-7.6627950">
        <ele>487.8</ele>
        <time>2020-10-19T08:07:57Z</time>
      </trkpt>
      <trkpt lat="42.8126670" lon="-7.6628130">
        <ele>487.9</ele>
        <time>2020-10-19T08:07:58Z</time>
      </trkpt>
      <trkpt lat="42.8126710" lon="-7.6628280">
        <ele>487.9</ele>
        <time>2020-10-19T08:07:59Z</time>
      </trkpt>
      <trkpt lat="42.8126740" lon="-7.6628440">
        <ele>488.0</ele>
        <time>2020-10-19T08:08:00Z</time>
      </trkpt>
      <trkpt lat="42.8126780" lon="-7.6628610">
        <ele>488.1</ele>
        <time>2020-10-19T08:08:01Z</time>
      </trkpt>
      <trkpt lat="42.8126820" lon="-7.6628780">
        <ele>488.3</ele>
        <time>2020-10-19T08:08:02Z</time>
      </trkpt>
      <trkpt lat="42.8126860" lon="-7.6628950">
        <ele>488.4</ele>
        <time>2020-10-19T08:08:03Z</time>
      </trkpt>
      <trkpt lat="42.8126900" lon="-7.6629110">
        <ele>488.5</ele>
        <time>2020-10-19T08:08:04Z</time>
      </trkpt>
      <trkpt lat="42.8126940" lon="-7.6629260">
        <ele>488.6</ele>
        <time>2020-10-19T08:08:05Z</time>
      </trkpt>
      <trkpt lat="42.8126970" lon="-7.6629430">
        <ele>488.8</ele>
        <time>2020-10-19T08:08:06Z</time>
      </trkpt>
      <trkpt lat="42.8127000" lon="-7.6629600">
        <ele>488.9</ele>
        <time>2020-10-19T08:08:07Z</time>
      </trkpt>
      <trkpt lat="42.8127020" lon="-7.6629750">
        <ele>489.0</ele>
        <time>2020-10-19T08:08:08Z</time>
      </trkpt>
      <trkpt lat="42.8127050" lon="-7.6629900">
        <ele>489.2</ele>
        <time>2020-10-19T08:08:09Z</time>
      </trkpt>
      <trkpt lat="42.8127080" lon="-7.6630040">
        <ele>489.3</ele>
        <time>2020-10-19T08:08:10Z</time>
      </trkpt>
      <trkpt lat="42.8127120" lon="-7.6630170">
        <ele>489.4</ele>
        <time>2020-10-19T08:08:11Z</time>
      </trkpt>
      <trkpt lat="42.8127150" lon="-7.6630300">
        <ele>489.6</ele>
        <time>2020-10-19T08:08:12Z</time>
      </trkpt>
      <trkpt lat="42.8127190" lon="-7.6630420">
        <ele>489.7</ele>
        <time>2020-10-19T08:08:13Z</time>
      </trkpt>
      <trkpt lat="42.8127230" lon="-7.6630540">
        <ele>489.8</ele>
        <time>2020-10-19T08:08:14Z</time>
      </trkpt>
      <trkpt lat="42.8127260" lon="-7.6630650">
        <ele>489.9</ele>
        <time>2020-10-19T08:08:15Z</time>
      </trkpt>
      <trkpt lat="42.8127280" lon="-7.6630750">
        <ele>490.0</ele>
        <time>2020-10-19T08:08:16Z</time>
      </trkpt>
      <trkpt lat="42.8127310" lon="-7.6630840">
        <ele>490.1</ele>
        <time>2020-10-19T08:08:17Z</time>
      </trkpt>
      <trkpt lat="42.8127330" lon="-7.6630960">
        <ele>490.2</ele>
        <time>2020-10-19T08:08:18Z</time>
      </trkpt>
      <trkpt lat="42.8127360" lon="-7.6631080">
        <ele>490.4</ele>
        <time>2020-10-19T08:08:19Z</time>
      </trkpt>
      <trkpt lat="42.8127410" lon="-7.6631220">
        <ele>490.4</ele>
        <time>2020-10-19T08:08:20Z</time>
      </trkpt>
      <trkpt lat="42.8127450" lon="-7.6631350">
        <ele>490.5</ele>
        <time>2020-10-19T08:08:21Z</time>
      </trkpt>
      <trkpt lat="42.8127500" lon="-7.6631490">
        <ele>490.6</ele>
        <time>2020-10-19T08:08:22Z</time>
      </trkpt>
      <trkpt lat="42.8127540" lon="-7.6631650">
        <ele>490.7</ele>
        <time>2020-10-19T08:08:23Z</time>
      </trkpt>
      <trkpt lat="42.8127580" lon="-7.6631810">
        <ele>490.8</ele>
        <time>2020-10-19T08:08:24Z</time>
      </trkpt>
      <trkpt lat="42.8127600" lon="-7.6631970">
        <ele>490.9</ele>
        <time>2020-10-19T08:08:25Z</time>
      </trkpt>
      <trkpt lat="42.8127620" lon="-7.6632130">
        <ele>490.9</ele>
        <time>2020-10-19T08:08:26Z</time>
      </trkpt>
      <trkpt lat="42.8127630" lon="-7.6632290">
        <ele>491.0</ele>
        <time>2020-10-19T08:08:27Z</time>
      </trkpt>
      <trkpt lat="42.8127650" lon="-7.6632450">
        <ele>491.1</ele>
        <time>2020-10-19T08:08:28Z</time>
      </trkpt>
      <trkpt lat="42.8127650" lon="-7.6632610">
        <ele>491.2</ele>
        <time>2020-10-19T08:08:29Z</time>
      </trkpt>
      <trkpt lat="42.8127650" lon="-7.6632780">
        <ele>491.3</ele>
        <time>2020-10-19T08:08:30Z</time>
      </trkpt>
      <trkpt lat="42.8127630" lon="-7.6632950">
        <ele>491.3</ele>
        <time>2020-10-19T08:08:31Z</time>
      </trkpt>
      <trkpt lat="42.8127620" lon="-7.6633100">
        <ele>491.4</ele>
        <time>2020-10-19T08:08:32Z</time>
      </trkpt>
      <trkpt lat="42.8127610" lon="-7.6633260">
        <ele>491.5</ele>
        <time>2020-10-19T08:08:33Z</time>
      </trkpt>
      <trkpt lat="42.8127590" lon="-7.6633410">
        <ele>491.6</ele>
        <time>2020-10-19T08:08:34Z</time>
      </trkpt>
      <trkpt lat="42.8127560" lon="-7.6633560">
        <ele>491.6</ele>
        <time>2020-10-19T08:08:35Z</time>
      </trkpt>
      <trkpt lat="42.8127550" lon="-7.6633720">
        <ele>491.7</ele>
        <time>2020-10-19T08:08:36Z</time>
      </trkpt>
      <trkpt lat="42.8127530" lon="-7.6633880">
        <ele>491.8</ele>
        <time>2020-10-19T08:08:37Z</time>
      </trkpt>
      <trkpt lat="42.8127510" lon="-7.6634030">
        <ele>491.9</ele>
        <time>2020-10-19T08:08:38Z</time>
      </trkpt>
      <trkpt lat="42.8127490" lon="-7.6634190">
        <ele>491.9</ele>
        <time>2020-10-19T08:08:39Z</time>
      </trkpt>
      <trkpt lat="42.8127470" lon="-7.6634350">
        <ele>492.0</ele>
        <time>2020-10-19T08:08:40Z</time>
      </trkpt>
      <trkpt lat="42.8127450" lon="-7.6634510">
        <ele>492.1</ele>
        <time>2020-10-19T08:08:41Z</time>
      </trkpt>
      <trkpt lat="42.8127430" lon="-7.6634660">
        <ele>492.2</ele>
        <time>2020-10-19T08:08:42Z</time>
      </trkpt>
      <trkpt lat="42.8127410" lon="-7.6634810">
        <ele>492.3</ele>
        <time>2020-10-19T08:08:43Z</time>
      </trkpt>
      <trkpt lat="42.8127390" lon="-7.6634950">
        <ele>492.4</ele>
        <time>2020-10-19T08:08:44Z</time>
      </trkpt>
      <trkpt lat="42.8127370" lon="-7.6635110">
        <ele>492.5</ele>
        <time>2020-10-19T08:08:45Z</time>
      </trkpt>
      <trkpt lat="42.8127350" lon="-7.6635260">
        <ele>492.5</ele>
        <time>2020-10-19T08:08:46Z</time>
      </trkpt>
      <trkpt lat="42.8127320" lon="-7.6635410">
        <ele>492.6</ele>
        <time>2020-10-19T08:08:47Z</time>
      </trkpt>
      <trkpt lat="42.8127300" lon="-7.6635540">
        <ele>492.7</ele>
        <time>2020-10-19T08:08:48Z</time>
      </trkpt>
      <trkpt lat="42.8127280" lon="-7.6635680">
        <ele>492.8</ele>
        <time>2020-10-19T08:08:49Z</time>
      </trkpt>
      <trkpt lat="42.8127250" lon="-7.6635830">
        <ele>492.9</ele>
        <time>2020-10-19T08:08:50Z</time>
      </trkpt>
      <trkpt lat="42.8127240" lon="-7.6635980">
        <ele>493.0</ele>
        <time>2020-10-19T08:08:51Z</time>
      </trkpt>
      <trkpt lat="42.8127230" lon="-7.6636140">
        <ele>493.1</ele>
        <time>2020-10-19T08:08:52Z</time>
      </trkpt>
      <trkpt lat="42.8127220" lon="-7.6636300">
        <ele>493.2</ele>
        <time>2020-10-19T08:08:53Z</time>
      </trkpt>
      <trkpt lat="42.8127220" lon="-7.6636450">
        <ele>493.3</ele>
        <time>2020-10-19T08:08:54Z</time>
      </trkpt>
      <trkpt lat="42.8127220" lon="-7.6636610">
        <ele>493.4</ele>
        <time>2020-10-19T08:08:55Z</time>
      </trkpt>
      <trkpt lat="42.8127230" lon="-7.6636760">
        <ele>493.5</ele>
        <time>2020-10-19T08:08:56Z</time>
      </trkpt>
      <trkpt lat="42.8127240" lon="-7.6636920">
        <ele>493.6</ele>
        <time>2020-10-19T08:08:57Z</time>
      </trkpt>
      <trkpt lat="42.8127260" lon="-7.6637080">
        <ele>493.7</ele>
        <time>2020-10-19T08:08:58Z</time>
      </trkpt>
      <trkpt lat="42.8127270" lon="-7.6637240">
        <ele>493.9</ele>
        <time>2020-10-19T08:08:59Z</time>
      </trkpt>
      <trkpt lat="42.8127290" lon="-7.6637400">
        <ele>494.0</ele>
        <time>2020-10-19T08:09:00Z</time>
      </trkpt>
      <trkpt lat="42.8127300" lon="-7.6637570">
        <ele>494.1</ele>
        <time>2020-10-19T08:09:01Z</time>
      </trkpt>
      <trkpt lat="42.8127320" lon="-7.6637720">
        <ele>494.2</ele>
        <time>2020-10-19T08:09:02Z</time>
      </trkpt>
      <trkpt lat="42.8127340" lon="-7.6637880">
        <ele>494.3</ele>
        <time>2020-10-19T08:09:03Z</time>
      </trkpt>
      <trkpt lat="42.8127360" lon="-7.6638030">
        <ele>494.5</ele>
        <time>2020-10-19T08:09:04Z</time>
      </trkpt>
      <trkpt lat="42.8127380" lon="-7.6638180">
        <ele>494.6</ele>
        <time>2020-10-19T08:09:05Z</time>
      </trkpt>
      <trkpt lat="42.8127410" lon="-7.6638330">
        <ele>494.7</ele>
        <time>2020-10-19T08:09:06Z</time>
      </trkpt>
      <trkpt lat="42.8127440" lon="-7.6638480">
        <ele>494.8</ele>
        <time>2020-10-19T08:09:07Z</time>
      </trkpt>
      <trkpt lat="42.8127470" lon="-7.6638620">
        <ele>494.9</ele>
        <time>2020-10-19T08:09:08Z</time>
      </trkpt>
      <trkpt lat="42.8127500" lon="-7.6638760">
        <ele>495.0</ele>
        <time>2020-10-19T08:09:09Z</time>
      </trkpt>
      <trkpt lat="42.8127540" lon="-7.6638890">
        <ele>495.1</ele>
        <time>2020-10-19T08:09:10Z</time>
      </trkpt>
      <trkpt lat="42.8127580" lon="-7.6639020">
        <ele>495.2</ele>
        <time>2020-10-19T08:09:11Z</time>
      </trkpt>
      <trkpt lat="42.8127620" lon="-7.6639160">
        <ele>495.3</ele>
        <time>2020-10-19T08:09:12Z</time>
      </trkpt>
      <trkpt lat="42.8127680" lon="-7.6639300">
        <ele>495.5</ele>
        <time>2020-10-19T08:09:13Z</time>
      </trkpt>
      <trkpt lat="42.8127740" lon="-7.6639440">
        <ele>495.6</ele>
        <time>2020-10-19T08:09:14Z</time>
      </trkpt>
      <trkpt lat="42.8127830" lon="-7.6639570">
        <ele>495.7</ele>
        <time>2020-10-19T08:09:15Z</time>
      </trkpt>
      <trkpt lat="42.8127930" lon="-7.6639690">
        <ele>495.8</ele>
        <time>2020-10-19T08:09:16Z</time>
      </trkpt>
      <trkpt lat="42.8128040" lon="-7.6639810">
        <ele>496.0</ele>
        <time>2020-10-19T08:09:17Z</time>
      </trkpt>
      <trkpt lat="42.8128150" lon="-7.6639920">
        <ele>496.1</ele>
        <time>2020-10-19T08:09:18Z</time>
      </trkpt>
      <trkpt lat="42.8128260" lon="-7.6640020">
        <ele>496.2</ele>
        <time>2020-10-19T08:09:19Z</time>
      </trkpt>
      <trkpt lat="42.8128370" lon="-7.6640100">
        <ele>496.3</ele>
        <time>2020-10-19T08:09:20Z</time>
      </trkpt>
      <trkpt lat="42.8128480" lon="-7.6640160">
        <ele>496.4</ele>
        <time>2020-10-19T08:09:21Z</time>
      </trkpt>
      <trkpt lat="42.8128590" lon="-7.6640230">
        <ele>496.5</ele>
        <time>2020-10-19T08:09:22Z</time>
      </trkpt>
      <trkpt lat="42.8128700" lon="-7.6640300">
        <ele>496.6</ele>
        <time>2020-10-19T08:09:23Z</time>
      </trkpt>
      <trkpt lat="42.8128800" lon="-7.6640380">
        <ele>496.8</ele>
        <time>2020-10-19T08:09:24Z</time>
      </trkpt>
      <trkpt lat="42.8128910" lon="-7.6640470">
        <ele>496.9</ele>
        <time>2020-10-19T08:09:25Z</time>
      </trkpt>
      <trkpt lat="42.8129020" lon="-7.6640560">
        <ele>497.0</ele>
        <time>2020-10-19T08:09:26Z</time>
      </trkpt>
      <trkpt lat="42.8129130" lon="-7.6640640">
        <ele>497.1</ele>
        <time>2020-10-19T08:09:27Z</time>
      </trkpt>
      <trkpt lat="42.8129230" lon="-7.6640730">
        <ele>497.2</ele>
        <time>2020-10-19T08:09:28Z</time>
      </trkpt>
      <trkpt lat="42.8129330" lon="-7.6640800">
        <ele>497.3</ele>
        <time>2020-10-19T08:09:29Z</time>
      </trkpt>
      <trkpt lat="42.8129410" lon="-7.6640880">
        <ele>497.4</ele>
        <time>2020-10-19T08:09:30Z</time>
      </trkpt>
      <trkpt lat="42.8129500" lon="-7.6640950">
        <ele>497.5</ele>
        <time>2020-10-19T08:09:31Z</time>
      </trkpt>
      <trkpt lat="42.8129580" lon="-7.6641050">
        <ele>497.6</ele>
        <time>2020-10-19T08:09:32Z</time>
      </trkpt>
      <trkpt lat="42.8129660" lon="-7.6641150">
        <ele>497.7</ele>
        <time>2020-10-19T08:09:33Z</time>
      </trkpt>
      <trkpt lat="42.8129740" lon="-7.6641240">
        <ele>497.8</ele>
        <time>2020-10-19T08:09:34Z</time>
      </trkpt>
      <trkpt lat="42.8129840" lon="-7.6641330">
        <ele>497.9</ele>
        <time>2020-10-19T08:09:35Z</time>
      </trkpt>
      <trkpt lat="42.8129940" lon="-7.6641420">
        <ele>498.0</ele>
        <time>2020-10-19T08:09:36Z</time>
      </trkpt>
      <trkpt lat="42.8130040" lon="-7.6641520">
        <ele>498.1</ele>
        <time>2020-10-19T08:09:37Z</time>
      </trkpt>
      <trkpt lat="42.8130130" lon="-7.6641610">
        <ele>498.3</ele>
        <time>2020-10-19T08:09:38Z</time>
      </trkpt>
      <trkpt lat="42.8130220" lon="-7.6641690">
        <ele>498.4</ele>
        <time>2020-10-19T08:09:39Z</time>
      </trkpt>
      <trkpt lat="42.8130320" lon="-7.6641760">
        <ele>498.5</ele>
        <time>2020-10-19T08:09:40Z</time>
      </trkpt>
      <trkpt lat="42.8130420" lon="-7.6641850">
        <ele>498.6</ele>
        <time>2020-10-19T08:09:41Z</time>
      </trkpt>
      <trkpt lat="42.8130520" lon="-7.6641940">
        <ele>498.7</ele>
        <time>2020-10-19T08:09:42Z</time>
      </trkpt>
      <trkpt lat="42.8130610" lon="-7.6642020">
        <ele>498.9</ele>
        <time>2020-10-19T08:09:43Z</time>
      </trkpt>
      <trkpt lat="42.8130710" lon="-7.6642100">
        <ele>499.0</ele>
        <time>2020-10-19T08:09:44Z</time>
      </trkpt>
      <trkpt lat="42.8130800" lon="-7.6642170">
        <ele>499.1</ele>
        <time>2020-10-19T08:09:45Z</time>
      </trkpt>
      <trkpt lat="42.8130890" lon="-7.6642240">
        <ele>499.2</ele>
        <time>2020-10-19T08:09:46Z</time>
      </trkpt>
      <trkpt lat="42.8130970" lon="-7.6642310">
        <ele>499.4</ele>
        <time>2020-10-19T08:09:47Z</time>
      </trkpt>
      <trkpt lat="42.8131050" lon="-7.6642400">
        <ele>499.5</ele>
        <time>2020-10-19T08:09:48Z</time>
      </trkpt>
      <trkpt lat="42.8131120" lon="-7.6642490">
        <ele>499.6</ele>
        <time>2020-10-19T08:09:49Z</time>
      </trkpt>
      <trkpt lat="42.8131190" lon="-7.6642570">
        <ele>499.7</ele>
        <time>2020-10-19T08:09:50Z</time>
      </trkpt>
      <trkpt lat="42.8131270" lon="-7.6642670">
        <ele>499.8</ele>
        <time>2020-10-19T08:09:51Z</time>
      </trkpt>
      <trkpt lat="42.8131350" lon="-7.6642750">
        <ele>499.9</ele>
        <time>2020-10-19T08:09:52Z</time>
      </trkpt>
      <trkpt lat="42.8131440" lon="-7.6642840">
        <ele>500.1</ele>
        <time>2020-10-19T08:09:53Z</time>
      </trkpt>
      <trkpt lat="42.8131530" lon="-7.6642920">
        <ele>500.2</ele>
        <time>2020-10-19T08:09:54Z</time>
      </trkpt>
      <trkpt lat="42.8131620" lon="-7.6643010">
        <ele>500.3</ele>
        <time>2020-10-19T08:09:55Z</time>
      </trkpt>
      <trkpt lat="42.8131700" lon="-7.6643100">
        <ele>500.5</ele>
        <time>2020-10-19T08:09:56Z</time>
      </trkpt>
      <trkpt lat="42.8131780" lon="-7.6643190">
        <ele>500.6</ele>
        <time>2020-10-19T08:09:57Z</time>
      </trkpt>
      <trkpt lat="42.8131870" lon="-7.6643280">
        <ele>500.7</ele>
        <time>2020-10-19T08:09:58Z</time>
      </trkpt>
      <trkpt lat="42.8131940" lon="-7.6643370">
        <ele>500.8</ele>
        <time>2020-10-19T08:09:59Z</time>
      </trkpt>
      <trkpt lat="42.8132030" lon="-7.6643460">
        <ele>501.0</ele>
        <time>2020-10-19T08:10:00Z</time>
      </trkpt>
      <trkpt lat="42.8132120" lon="-7.6643540">
        <ele>501.1</ele>
        <time>2020-10-19T08:10:01Z</time>
      </trkpt>
      <trkpt lat="42.8132200" lon="-7.6643640">
        <ele>501.2</ele>
        <time>2020-10-19T08:10:02Z</time>
      </trkpt>
      <trkpt lat="42.8132280" lon="-7.6643740">
        <ele>501.3</ele>
        <time>2020-10-19T08:10:03Z</time>
      </trkpt>
      <trkpt lat="42.8132360" lon="-7.6643830">
        <ele>501.4</ele>
        <time>2020-10-19T08:10:04Z</time>
      </trkpt>
      <trkpt lat="42.8132450" lon="-7.6643920">
        <ele>501.5</ele>
        <time>2020-10-19T08:10:05Z</time>
      </trkpt>
      <trkpt lat="42.8132520" lon="-7.6644010">
        <ele>501.6</ele>
        <time>2020-10-19T08:10:06Z</time>
      </trkpt>
      <trkpt lat="42.8132590" lon="-7.6644110">
        <ele>501.7</ele>
        <time>2020-10-19T08:10:07Z</time>
      </trkpt>
      <trkpt lat="42.8132660" lon="-7.6644220">
        <ele>501.8</ele>
        <time>2020-10-19T08:10:08Z</time>
      </trkpt>
      <trkpt lat="42.8132730" lon="-7.6644340">
        <ele>502.0</ele>
        <time>2020-10-19T08:10:09Z</time>
      </trkpt>
      <trkpt lat="42.8132810" lon="-7.6644450">
        <ele>502.1</ele>
        <time>2020-10-19T08:10:10Z</time>
      </trkpt>
      <trkpt lat="42.8132880" lon="-7.6644560">
        <ele>502.2</ele>
        <time>2020-10-19T08:10:11Z</time>
      </trkpt>
      <trkpt lat="42.8132950" lon="-7.6644660">
        <ele>502.3</ele>
        <time>2020-10-19T08:10:12Z</time>
      </trkpt>
      <trkpt lat="42.8133030" lon="-7.6644760">
        <ele>502.4</ele>
        <time>2020-10-19T08:10:13Z</time>
      </trkpt>
      <trkpt lat="42.8133100" lon="-7.6644860">
        <ele>502.4</ele>
        <time>2020-10-19T08:10:14Z</time>
      </trkpt>
      <trkpt lat="42.8133160" lon="-7.6644960">
        <ele>502.5</ele>
        <time>2020-10-19T08:10:15Z</time>
      </trkpt>
      <trkpt lat="42.8133220" lon="-7.6645070">
        <ele>502.6</ele>
        <time>2020-10-19T08:10:16Z</time>
      </trkpt>
      <trkpt lat="42.8133270" lon="-7.6645180">
        <ele>502.7</ele>
        <time>2020-10-19T08:10:17Z</time>
      </trkpt>
      <trkpt lat="42.8133330" lon="-7.6645290">
        <ele>502.8</ele>
        <time>2020-10-19T08:10:18Z</time>
      </trkpt>
      <trkpt lat="42.8133400" lon="-7.6645390">
        <ele>502.8</ele>
        <time>2020-10-19T08:10:19Z</time>
      </trkpt>
      <trkpt lat="42.8133470" lon="-7.6645490">
        <ele>502.9</ele>
        <time>2020-10-19T08:10:20Z</time>
      </trkpt>
      <trkpt lat="42.8133540" lon="-7.6645590">
        <ele>503.0</ele>
        <time>2020-10-19T08:10:21Z</time>
      </trkpt>
      <trkpt lat="42.8133600" lon="-7.6645690">
        <ele>503.1</ele>
        <time>2020-10-19T08:10:22Z</time>
      </trkpt>
      <trkpt lat="42.8133640" lon="-7.6645790">
        <ele>503.1</ele>
        <time>2020-10-19T08:10:23Z</time>
      </trkpt>
      <trkpt lat="42.8133690" lon="-7.6645890">
        <ele>503.2</ele>
        <time>2020-10-19T08:10:24Z</time>
      </trkpt>
      <trkpt lat="42.8133730" lon="-7.6646000">
        <ele>503.3</ele>
        <time>2020-10-19T08:10:25Z</time>
      </trkpt>
      <trkpt lat="42.8133770" lon="-7.6646120">
        <ele>503.3</ele>
        <time>2020-10-19T08:10:26Z</time>
      </trkpt>
      <trkpt lat="42.8133800" lon="-7.6646240">
        <ele>503.4</ele>
        <time>2020-10-19T08:10:27Z</time>
      </trkpt>
      <trkpt lat="42.8133850" lon="-7.6646350">
        <ele>503.4</ele>
        <time>2020-10-19T08:10:28Z</time>
      </trkpt>
      <trkpt lat="42.8133910" lon="-7.6646470">
        <ele>503.5</ele>
        <time>2020-10-19T08:10:29Z</time>
      </trkpt>
      <trkpt lat="42.8134000" lon="-7.6646580">
        <ele>503.6</ele>
        <time>2020-10-19T08:10:30Z</time>
      </trkpt>
      <trkpt lat="42.8134100" lon="-7.6646690">
        <ele>503.6</ele>
        <time>2020-10-19T08:10:31Z</time>
      </trkpt>
      <trkpt lat="42.8134180" lon="-7.6646790">
        <ele>503.7</ele>
        <time>2020-10-19T08:10:32Z</time>
      </trkpt>
      <trkpt lat="42.8134250" lon="-7.6646900">
        <ele>503.8</ele>
        <time>2020-10-19T08:10:33Z</time>
      </trkpt>
      <trkpt lat="42.8134310" lon="-7.6647020">
        <ele>503.8</ele>
        <time>2020-10-19T08:10:34Z</time>
      </trkpt>
      <trkpt lat="42.8134380" lon="-7.6647140">
        <ele>503.9</ele>
        <time>2020-10-19T08:10:35Z</time>
      </trkpt>
      <trkpt lat="42.8134470" lon="-7.6647260">
        <ele>504.0</ele>
        <time>2020-10-19T08:10:36Z</time>
      </trkpt>
      <trkpt lat="42.8134560" lon="-7.6647380">
        <ele>504.0</ele>
        <time>2020-10-19T08:10:37Z</time>
      </trkpt>
      <trkpt lat="42.8134650" lon="-7.6647500">
        <ele>504.1</ele>
        <time>2020-10-19T08:10:38Z</time>
      </trkpt>
      <trkpt lat="42.8134740" lon="-7.6647630">
        <ele>504.2</ele>
        <time>2020-10-19T08:10:39Z</time>
      </trkpt>
      <trkpt lat="42.8134820" lon="-7.6647760">
        <ele>504.3</ele>
        <time>2020-10-19T08:10:40Z</time>
      </trkpt>
      <trkpt lat="42.8134890" lon="-7.6647890">
        <ele>504.4</ele>
        <time>2020-10-19T08:10:41Z</time>
      </trkpt>
      <trkpt lat="42.8134950" lon="-7.6648010">
        <ele>504.4</ele>
        <time>2020-10-19T08:10:42Z</time>
      </trkpt>
      <trkpt lat="42.8135020" lon="-7.6648120">
        <ele>504.5</ele>
        <time>2020-10-19T08:10:43Z</time>
      </trkpt>
      <trkpt lat="42.8135090" lon="-7.6648220">
        <ele>504.6</ele>
        <time>2020-10-19T08:10:44Z</time>
      </trkpt>
      <trkpt lat="42.8135150" lon="-7.6648320">
        <ele>504.6</ele>
        <time>2020-10-19T08:10:45Z</time>
      </trkpt>
      <trkpt lat="42.8135210" lon="-7.6648430">
        <ele>504.7</ele>
        <time>2020-10-19T08:10:46Z</time>
      </trkpt>
      <trkpt lat="42.8135290" lon="-7.6648530">
        <ele>504.8</ele>
        <time>2020-10-19T08:10:47Z</time>
      </trkpt>
      <trkpt lat="42.8135370" lon="-7.6648620">
        <ele>504.9</ele>
        <time>2020-10-19T08:10:48Z</time>
      </trkpt>
      <trkpt lat="42.8135460" lon="-7.6648720">
        <ele>505.0</ele>
        <time>2020-10-19T08:10:49Z</time>
      </trkpt>
      <trkpt lat="42.8135530" lon="-7.6648820">
        <ele>505.1</ele>
        <time>2020-10-19T08:10:50Z</time>
      </trkpt>
      <trkpt lat="42.8135600" lon="-7.6648930">
        <ele>505.2</ele>
        <time>2020-10-19T08:10:51Z</time>
      </trkpt>
      <trkpt lat="42.8135670" lon="-7.6649040">
        <ele>505.3</ele>
        <time>2020-10-19T08:10:52Z</time>
      </trkpt>
      <trkpt lat="42.8135740" lon="-7.6649160">
        <ele>505.4</ele>
        <time>2020-10-19T08:10:53Z</time>
      </trkpt>
      <trkpt lat="42.8135820" lon="-7.6649280">
        <ele>505.5</ele>
        <time>2020-10-19T08:10:54Z</time>
      </trkpt>
      <trkpt lat="42.8135900" lon="-7.6649400">
        <ele>505.6</ele>
        <time>2020-10-19T08:10:55Z</time>
      </trkpt>
      <trkpt lat="42.8135980" lon="-7.6649530">
        <ele>505.7</ele>
        <time>2020-10-19T08:10:56Z</time>
      </trkpt>
      <trkpt lat="42.8136060" lon="-7.6649640">
        <ele>505.8</ele>
        <time>2020-10-19T08:10:57Z</time>
      </trkpt>
      <trkpt lat="42.8136130" lon="-7.6649760">
        <ele>505.9</ele>
        <time>2020-10-19T08:10:58Z</time>
      </trkpt>
      <trkpt lat="42.8136190" lon="-7.6649890">
        <ele>506.0</ele>
        <time>2020-10-19T08:10:59Z</time>
      </trkpt>
      <trkpt lat="42.8136240" lon="-7.6650030">
        <ele>506.1</ele>
        <time>2020-10-19T08:11:00Z</time>
      </trkpt>
      <trkpt lat="42.8136290" lon="-7.6650170">
        <ele>506.2</ele>
        <time>2020-10-19T08:11:01Z</time>
      </trkpt>
      <trkpt lat="42.8136340" lon="-7.6650300">
        <ele>506.3</ele>
        <time>2020-10-19T08:11:02Z</time>
      </trkpt>
      <trkpt lat="42.8136400" lon="-7.6650430">
        <ele>506.4</ele>
        <time>2020-10-19T08:11:03Z</time>
      </trkpt>
      <trkpt lat="42.8136470" lon="-7.6650550">
        <ele>506.5</ele>
        <time>2020-10-19T08:11:04Z</time>
      </trkpt>
      <trkpt lat="42.8136530" lon="-7.6650680">
        <ele>506.6</ele>
        <time>2020-10-19T08:11:05Z</time>
      </trkpt>
      <trkpt lat="42.8136590" lon="-7.6650820">
        <ele>506.7</ele>
        <time>2020-10-19T08:11:06Z</time>
      </trkpt>
      <trkpt lat="42.8136650" lon="-7.6650950">
        <ele>506.8</ele>
        <time>2020-10-19T08:11:07Z</time>
      </trkpt>
      <trkpt lat="42.8136700" lon="-7.6651070">
        <ele>506.9</ele>
        <time>2020-10-19T08:11:08Z</time>
      </trkpt>
      <trkpt lat="42.8136740" lon="-7.6651190">
        <ele>507.0</ele>
        <time>2020-10-19T08:11:09Z</time>
      </trkpt>
      <trkpt lat="42.8136790" lon="-7.6651310">
        <ele>507.1</ele>
        <time>2020-10-19T08:11:10Z</time>
      </trkpt>
      <trkpt lat="42.8136840" lon="-7.6651440">
        <ele>507.2</ele>
        <time>2020-10-19T08:11:11Z</time>
      </trkpt>
      <trkpt lat="42.8136880" lon="-7.6651570">
        <ele>507.3</ele>
        <time>2020-10-19T08:11:12Z</time>
      </trkpt>
      <trkpt lat="42.8136940" lon="-7.6651700">
        <ele>507.4</ele>
        <time>2020-10-19T08:11:13Z</time>
      </trkpt>
      <trkpt lat="42.8137000" lon="-7.6651820">
        <ele>507.4</ele>
        <time>2020-10-19T08:11:14Z</time>
      </trkpt>
      <trkpt lat="42.8137070" lon="-7.6651950">
        <ele>507.6</ele>
        <time>2020-10-19T08:11:15Z</time>
      </trkpt>
      <trkpt lat="42.8137130" lon="-7.6652070">
        <ele>507.6</ele>
        <time>2020-10-19T08:11:16Z</time>
      </trkpt>
      <trkpt lat="42.8137190" lon="-7.6652190">
        <ele>507.7</ele>
        <time>2020-10-19T08:11:17Z</time>
      </trkpt>
      <trkpt lat="42.8137240" lon="-7.6652320">
        <ele>507.8</ele>
        <time>2020-10-19T08:11:18Z</time>
      </trkpt>
      <trkpt lat="42.8137270" lon="-7.6652450">
        <ele>507.9</ele>
        <time>2020-10-19T08:11:19Z</time>
      </trkpt>
      <trkpt lat="42.8137320" lon="-7.6652590">
        <ele>508.0</ele>
        <time>2020-10-19T08:11:20Z</time>
      </trkpt>
      <trkpt lat="42.8137360" lon="-7.6652730">
        <ele>508.1</ele>
        <time>2020-10-19T08:11:21Z</time>
      </trkpt>
      <trkpt lat="42.8137410" lon="-7.6652860">
        <ele>508.2</ele>
        <time>2020-10-19T08:11:22Z</time>
      </trkpt>
      <trkpt lat="42.8137460" lon="-7.6652990">
        <ele>508.3</ele>
        <time>2020-10-19T08:11:23Z</time>
      </trkpt>
      <trkpt lat="42.8137500" lon="-7.6653120">
        <ele>508.4</ele>
        <time>2020-10-19T08:11:24Z</time>
      </trkpt>
      <trkpt lat="42.8137540" lon="-7.6653250">
        <ele>508.5</ele>
        <time>2020-10-19T08:11:25Z</time>
      </trkpt>
      <trkpt lat="42.8137590" lon="-7.6653390">
        <ele>508.6</ele>
        <time>2020-10-19T08:11:26Z</time>
      </trkpt>
      <trkpt lat="42.8137640" lon="-7.6653530">
        <ele>508.7</ele>
        <time>2020-10-19T08:11:27Z</time>
      </trkpt>
      <trkpt lat="42.8137700" lon="-7.6653660">
        <ele>508.8</ele>
        <time>2020-10-19T08:11:28Z</time>
      </trkpt>
      <trkpt lat="42.8137760" lon="-7.6653770">
        <ele>508.9</ele>
        <time>2020-10-19T08:11:29Z</time>
      </trkpt>
      <trkpt lat="42.8137800" lon="-7.6653890">
        <ele>509.0</ele>
        <time>2020-10-19T08:11:30Z</time>
      </trkpt>
      <trkpt lat="42.8137830" lon="-7.6654010">
        <ele>509.1</ele>
        <time>2020-10-19T08:11:31Z</time>
      </trkpt>
      <trkpt lat="42.8137860" lon="-7.6654130">
        <ele>509.1</ele>
        <time>2020-10-19T08:11:32Z</time>
      </trkpt>
      <trkpt lat="42.8137900" lon="-7.6654240">
        <ele>509.2</ele>
        <time>2020-10-19T08:11:33Z</time>
      </trkpt>
      <trkpt lat="42.8137950" lon="-7.6654360">
        <ele>509.3</ele>
        <time>2020-10-19T08:11:34Z</time>
      </trkpt>
      <trkpt lat="42.8138000" lon="-7.6654490">
        <ele>509.4</ele>
        <time>2020-10-19T08:11:35Z</time>
      </trkpt>
      <trkpt lat="42.8138050" lon="-7.6654630">
        <ele>509.5</ele>
        <time>2020-10-19T08:11:36Z</time>
      </trkpt>
      <trkpt lat="42.8138120" lon="-7.6654770">
        <ele>509.6</ele>
        <time>2020-10-19T08:11:37Z</time>
      </trkpt>
      <trkpt lat="42.8138200" lon="-7.6654900">
        <ele>509.7</ele>
        <time>2020-10-19T08:11:38Z</time>
      </trkpt>
      <trkpt lat="42.8138280" lon="-7.6655020">
        <ele>509.8</ele>
        <time>2020-10-19T08:11:39Z</time>
      </trkpt>
      <trkpt lat="42.8138360" lon="-7.6655140">
        <ele>509.9</ele>
        <time>2020-10-19T08:11:40Z</time>
      </trkpt>
      <trkpt lat="42.8138420" lon="-7.6655270">
        <ele>510.0</ele>
        <time>2020-10-19T08:11:41Z</time>
      </trkpt>
      <trkpt lat="42.8138460" lon="-7.6655410">
        <ele>510.1</ele>
        <time>2020-10-19T08:11:42Z</time>
      </trkpt>
      <trkpt lat="42.8138500" lon="-7.6655570">
        <ele>510.2</ele>
        <time>2020-10-19T08:11:43Z</time>
      </trkpt>
      <trkpt lat="42.8138540" lon="-7.6655710">
        <ele>510.3</ele>
        <time>2020-10-19T08:11:44Z</time>
      </trkpt>
      <trkpt lat="42.8138590" lon="-7.6655870">
        <ele>510.4</ele>
        <time>2020-10-19T08:11:45Z</time>
      </trkpt>
      <trkpt lat="42.8138640" lon="-7.6656010">
        <ele>510.5</ele>
        <time>2020-10-19T08:11:46Z</time>
      </trkpt>
      <trkpt lat="42.8138700" lon="-7.6656150">
        <ele>510.6</ele>
        <time>2020-10-19T08:11:47Z</time>
      </trkpt>
      <trkpt lat="42.8138780" lon="-7.6656290">
        <ele>510.7</ele>
        <time>2020-10-19T08:11:48Z</time>
      </trkpt>
      <trkpt lat="42.8138850" lon="-7.6656430">
        <ele>510.8</ele>
        <time>2020-10-19T08:11:49Z</time>
      </trkpt>
      <trkpt lat="42.8138900" lon="-7.6656580">
        <ele>510.9</ele>
        <time>2020-10-19T08:11:50Z</time>
      </trkpt>
      <trkpt lat="42.8138950" lon="-7.6656730">
        <ele>511.0</ele>
        <time>2020-10-19T08:11:51Z</time>
      </trkpt>
      <trkpt lat="42.8138990" lon="-7.6656870">
        <ele>511.1</ele>
        <time>2020-10-19T08:11:52Z</time>
      </trkpt>
      <trkpt lat="42.8139030" lon="-7.6657010">
        <ele>511.2</ele>
        <time>2020-10-19T08:11:53Z</time>
      </trkpt>
      <trkpt lat="42.8139070" lon="-7.6657140">
        <ele>511.3</ele>
        <time>2020-10-19T08:11:54Z</time>
      </trkpt>
      <trkpt lat="42.8139110" lon="-7.6657270">
        <ele>511.4</ele>
        <time>2020-10-19T08:11:55Z</time>
      </trkpt>
      <trkpt lat="42.8139150" lon="-7.6657400">
        <ele>511.5</ele>
        <time>2020-10-19T08:11:56Z</time>
      </trkpt>
      <trkpt lat="42.8139190" lon="-7.6657530">
        <ele>511.6</ele>
        <time>2020-10-19T08:11:57Z</time>
      </trkpt>
      <trkpt lat="42.8139220" lon="-7.6657660">
        <ele>511.7</ele>
        <time>2020-10-19T08:11:58Z</time>
      </trkpt>
      <trkpt lat="42.8139260" lon="-7.6657800">
        <ele>511.8</ele>
        <time>2020-10-19T08:11:59Z</time>
      </trkpt>
      <trkpt lat="42.8139300" lon="-7.6657940">
        <ele>511.9</ele>
        <time>2020-10-19T08:12:00Z</time>
      </trkpt>
      <trkpt lat="42.8139340" lon="-7.6658070">
        <ele>512.0</ele>
        <time>2020-10-19T08:12:01Z</time>
      </trkpt>
      <trkpt lat="42.8139400" lon="-7.6658210">
        <ele>512.1</ele>
        <time>2020-10-19T08:12:02Z</time>
      </trkpt>
      <trkpt lat="42.8139450" lon="-7.6658340">
        <ele>512.2</ele>
        <time>2020-10-19T08:12:03Z</time>
      </trkpt>
      <trkpt lat="42.8139490" lon="-7.6658470">
        <ele>512.2</ele>
        <time>2020-10-19T08:12:04Z</time>
      </trkpt>
      <trkpt lat="42.8139540" lon="-7.6658600">
        <ele>512.3</ele>
        <time>2020-10-19T08:12:05Z</time>
      </trkpt>
      <trkpt lat="42.8139590" lon="-7.6658710">
        <ele>512.4</ele>
        <time>2020-10-19T08:12:06Z</time>
      </trkpt>
      <trkpt lat="42.8139630" lon="-7.6658830">
        <ele>512.5</ele>
        <time>2020-10-19T08:12:07Z</time>
      </trkpt>
      <trkpt lat="42.8139670" lon="-7.6658960">
        <ele>512.6</ele>
        <time>2020-10-19T08:12:08Z</time>
      </trkpt>
      <trkpt lat="42.8139720" lon="-7.6659090">
        <ele>512.7</ele>
        <time>2020-10-19T08:12:09Z</time>
      </trkpt>
      <trkpt lat="42.8139770" lon="-7.6659220">
        <ele>512.8</ele>
        <time>2020-10-19T08:12:10Z</time>
      </trkpt>
      <trkpt lat="42.8139810" lon="-7.6659360">
        <ele>512.9</ele>
        <time>2020-10-19T08:12:11Z</time>
      </trkpt>
      <trkpt lat="42.8139850" lon="-7.6659500">
        <ele>513.0</ele>
        <time>2020-10-19T08:12:12Z</time>
      </trkpt>
      <trkpt lat="42.8139900" lon="-7.6659640">
        <ele>513.1</ele>
        <time>2020-10-19T08:12:13Z</time>
      </trkpt>
      <trkpt lat="42.8139950" lon="-7.6659770">
        <ele>513.2</ele>
        <time>2020-10-19T08:12:14Z</time>
      </trkpt>
      <trkpt lat="42.8139990" lon="-7.6659890">
        <ele>513.3</ele>
        <time>2020-10-19T08:12:15Z</time>
      </trkpt>
      <trkpt lat="42.8140030" lon="-7.6660020">
        <ele>513.4</ele>
        <time>2020-10-19T08:12:16Z</time>
      </trkpt>
      <trkpt lat="42.8140080" lon="-7.6660140">
        <ele>513.5</ele>
        <time>2020-10-19T08:12:17Z</time>
      </trkpt>
      <trkpt lat="42.8140130" lon="-7.6660270">
        <ele>513.6</ele>
        <time>2020-10-19T08:12:18Z</time>
      </trkpt>
      <trkpt lat="42.8140180" lon="-7.6660400">
        <ele>513.7</ele>
        <time>2020-10-19T08:12:19Z</time>
      </trkpt>
      <trkpt lat="42.8140230" lon="-7.6660530">
        <ele>513.8</ele>
        <time>2020-10-19T08:12:20Z</time>
      </trkpt>
      <trkpt lat="42.8140290" lon="-7.6660660">
        <ele>513.9</ele>
        <time>2020-10-19T08:12:21Z</time>
      </trkpt>
      <trkpt lat="42.8140350" lon="-7.6660790">
        <ele>514.0</ele>
        <time>2020-10-19T08:12:22Z</time>
      </trkpt>
      <trkpt lat="42.8140420" lon="-7.6660920">
        <ele>514.1</ele>
        <time>2020-10-19T08:12:23Z</time>
      </trkpt>
      <trkpt lat="42.8140480" lon="-7.6661040">
        <ele>514.2</ele>
        <time>2020-10-19T08:12:24Z</time>
      </trkpt>
      <trkpt lat="42.8140540" lon="-7.6661160">
        <ele>514.3</ele>
        <time>2020-10-19T08:12:25Z</time>
      </trkpt>
      <trkpt lat="42.8140600" lon="-7.6661280">
        <ele>514.5</ele>
        <time>2020-10-19T08:12:26Z</time>
      </trkpt>
      <trkpt lat="42.8140670" lon="-7.6661400">
        <ele>514.6</ele>
        <time>2020-10-19T08:12:27Z</time>
      </trkpt>
      <trkpt lat="42.8140740" lon="-7.6661530">
        <ele>514.7</ele>
        <time>2020-10-19T08:12:28Z</time>
      </trkpt>
      <trkpt lat="42.8140780" lon="-7.6661660">
        <ele>514.8</ele>
        <time>2020-10-19T08:12:29Z</time>
      </trkpt>
      <trkpt lat="42.8140820" lon="-7.6661800">
        <ele>514.9</ele>
        <time>2020-10-19T08:12:30Z</time>
      </trkpt>
      <trkpt lat="42.8140860" lon="-7.6661940">
        <ele>515.0</ele>
        <time>2020-10-19T08:12:31Z</time>
      </trkpt>
      <trkpt lat="42.8140900" lon="-7.6662060">
        <ele>515.1</ele>
        <time>2020-10-19T08:12:32Z</time>
      </trkpt>
      <trkpt lat="42.8140930" lon="-7.6662160">
        <ele>515.2</ele>
        <time>2020-10-19T08:12:33Z</time>
      </trkpt>
      <trkpt lat="42.8140970" lon="-7.6662260">
        <ele>515.2</ele>
        <time>2020-10-19T08:12:34Z</time>
      </trkpt>
      <trkpt lat="42.8141010" lon="-7.6662370">
        <ele>515.3</ele>
        <time>2020-10-19T08:12:35Z</time>
      </trkpt>
      <trkpt lat="42.8141060" lon="-7.6662480">
        <ele>515.4</ele>
        <time>2020-10-19T08:12:36Z</time>
      </trkpt>
      <trkpt lat="42.8141120" lon="-7.6662590">
        <ele>515.5</ele>
        <time>2020-10-19T08:12:37Z</time>
      </trkpt>
      <trkpt lat="42.8141190" lon="-7.6662700">
        <ele>515.6</ele>
        <time>2020-10-19T08:12:38Z</time>
      </trkpt>
      <trkpt lat="42.8141250" lon="-7.6662820">
        <ele>515.7</ele>
        <time>2020-10-19T08:12:39Z</time>
      </trkpt>
      <trkpt lat="42.8141310" lon="-7.6662940">
        <ele>515.8</ele>
        <time>2020-10-19T08:12:40Z</time>
      </trkpt>
      <trkpt lat="42.8141370" lon="-7.6663060">
        <ele>516.0</ele>
        <time>2020-10-19T08:12:41Z</time>
      </trkpt>
      <trkpt lat="42.8141420" lon="-7.6663180">
        <ele>516.1</ele>
        <time>2020-10-19T08:12:42Z</time>
      </trkpt>
      <trkpt lat="42.8141470" lon="-7.6663310">
        <ele>516.2</ele>
        <time>2020-10-19T08:12:43Z</time>
      </trkpt>
      <trkpt lat="42.8141510" lon="-7.6663430">
        <ele>516.3</ele>
        <time>2020-10-19T08:12:44Z</time>
      </trkpt>
      <trkpt lat="42.8141560" lon="-7.6663560">
        <ele>516.4</ele>
        <time>2020-10-19T08:12:45Z</time>
      </trkpt>
      <trkpt lat="42.8141610" lon="-7.6663670">
        <ele>516.5</ele>
        <time>2020-10-19T08:12:46Z</time>
      </trkpt>
      <trkpt lat="42.8141660" lon="-7.6663800">
        <ele>516.6</ele>
        <time>2020-10-19T08:12:47Z</time>
      </trkpt>
      <trkpt lat="42.8141720" lon="-7.6663920">
        <ele>516.7</ele>
        <time>2020-10-19T08:12:48Z</time>
      </trkpt>
      <trkpt lat="42.8141790" lon="-7.6664050">
        <ele>516.9</ele>
        <time>2020-10-19T08:12:49Z</time>
      </trkpt>
      <trkpt lat="42.8141860" lon="-7.6664170">
        <ele>517.0</ele>
        <time>2020-10-19T08:12:50Z</time>
      </trkpt>
      <trkpt lat="42.8141920" lon="-7.6664300">
        <ele>517.1</ele>
        <time>2020-10-19T08:12:51Z</time>
      </trkpt>
      <trkpt lat="42.8141970" lon="-7.6664430">
        <ele>517.2</ele>
        <time>2020-10-19T08:12:52Z</time>
      </trkpt>
      <trkpt lat="42.8142010" lon="-7.6664560">
        <ele>517.3</ele>
        <time>2020-10-19T08:12:53Z</time>
      </trkpt>
      <trkpt lat="42.8142060" lon="-7.6664670">
        <ele>517.4</ele>
        <time>2020-10-19T08:12:54Z</time>
      </trkpt>
      <trkpt lat="42.8142100" lon="-7.6664790">
        <ele>517.5</ele>
        <time>2020-10-19T08:12:55Z</time>
      </trkpt>
      <trkpt lat="42.8142140" lon="-7.6664900">
        <ele>517.6</ele>
        <time>2020-10-19T08:12:56Z</time>
      </trkpt>
      <trkpt lat="42.8142190" lon="-7.6665020">
        <ele>517.8</ele>
        <time>2020-10-19T08:12:57Z</time>
      </trkpt>
      <trkpt lat="42.8142240" lon="-7.6665130">
        <ele>517.9</ele>
        <time>2020-10-19T08:12:58Z</time>
      </trkpt>
      <trkpt lat="42.8142300" lon="-7.6665240">
        <ele>518.0</ele>
        <time>2020-10-19T08:12:59Z</time>
      </trkpt>
      <trkpt lat="42.8142360" lon="-7.6665350">
        <ele>518.1</ele>
        <time>2020-10-19T08:13:00Z</time>
      </trkpt>
      <trkpt lat="42.8142420" lon="-7.6665470">
        <ele>518.2</ele>
        <time>2020-10-19T08:13:01Z</time>
      </trkpt>
      <trkpt lat="42.8142490" lon="-7.6665580">
        <ele>518.3</ele>
        <time>2020-10-19T08:13:02Z</time>
      </trkpt>
      <trkpt lat="42.8142560" lon="-7.6665680">
        <ele>518.4</ele>
        <time>2020-10-19T08:13:03Z</time>
      </trkpt>
      <trkpt lat="42.8142630" lon="-7.6665790">
        <ele>518.5</ele>
        <time>2020-10-19T08:13:04Z</time>
      </trkpt>
      <trkpt lat="42.8142690" lon="-7.6665910">
        <ele>518.6</ele>
        <time>2020-10-19T08:13:05Z</time>
      </trkpt>
      <trkpt lat="42.8142760" lon="-7.6666020">
        <ele>518.8</ele>
        <time>2020-10-19T08:13:06Z</time>
      </trkpt>
      <trkpt lat="42.8142820" lon="-7.6666140">
        <ele>518.9</ele>
        <time>2020-10-19T08:13:07Z</time>
      </trkpt>
      <trkpt lat="42.8142880" lon="-7.6666260">
        <ele>519.0</ele>
        <time>2020-10-19T08:13:08Z</time>
      </trkpt>
      <trkpt lat="42.8142940" lon="-7.6666370">
        <ele>519.1</ele>
        <time>2020-10-19T08:13:09Z</time>
      </trkpt>
      <trkpt lat="42.8143000" lon="-7.6666490">
        <ele>519.2</ele>
        <time>2020-10-19T08:13:10Z</time>
      </trkpt>
      <trkpt lat="42.8143060" lon="-7.6666600">
        <ele>519.3</ele>
        <time>2020-10-19T08:13:11Z</time>
      </trkpt>
      <trkpt lat="42.8143130" lon="-7.6666720">
        <ele>519.5</ele>
        <time>2020-10-19T08:13:12Z</time>
      </trkpt>
      <trkpt lat="42.8143200" lon="-7.6666840">
        <ele>519.6</ele>
        <time>2020-10-19T08:13:13Z</time>
      </trkpt>
      <trkpt lat="42.8143260" lon="-7.6666970">
        <ele>519.7</ele>
        <time>2020-10-19T08:13:14Z</time>
      </trkpt>
      <trkpt lat="42.8143330" lon="-7.6667090">
        <ele>519.8</ele>
        <time>2020-10-19T08:13:15Z</time>
      </trkpt>
      <trkpt lat="42.8143390" lon="-7.6667220">
        <ele>519.9</ele>
        <time>2020-10-19T08:13:16Z</time>
      </trkpt>
      <trkpt lat="42.8143450" lon="-7.6667340">
        <ele>520.1</ele>
        <time>2020-10-19T08:13:17Z</time>
      </trkpt>
      <trkpt lat="42.8143520" lon="-7.6667470">
        <ele>520.2</ele>
        <time>2020-10-19T08:13:18Z</time>
      </trkpt>
      <trkpt lat="42.8143590" lon="-7.6667590">
        <ele>520.3</ele>
        <time>2020-10-19T08:13:19Z</time>
      </trkpt>
      <trkpt lat="42.8143660" lon="-7.6667720">
        <ele>520.4</ele>
        <time>2020-10-19T08:13:20Z</time>
      </trkpt>
      <trkpt lat="42.8143730" lon="-7.6667850">
        <ele>520.5</ele>
        <time>2020-10-19T08:13:21Z</time>
      </trkpt>
      <trkpt lat="42.8143790" lon="-7.6667970">
        <ele>520.7</ele>
        <time>2020-10-19T08:13:22Z</time>
      </trkpt>
      <trkpt lat="42.8143860" lon="-7.6668100">
        <ele>520.8</ele>
        <time>2020-10-19T08:13:23Z</time>
      </trkpt>
      <trkpt lat="42.8143920" lon="-7.6668210">
        <ele>520.9</ele>
        <time>2020-10-19T08:13:24Z</time>
      </trkpt>
      <trkpt lat="42.8143970" lon="-7.6668340">
        <ele>521.0</ele>
        <time>2020-10-19T08:13:25Z</time>
      </trkpt>
      <trkpt lat="42.8144020" lon="-7.6668460">
        <ele>521.1</ele>
        <time>2020-10-19T08:13:26Z</time>
      </trkpt>
      <trkpt lat="42.8144060" lon="-7.6668570">
        <ele>521.2</ele>
        <time>2020-10-19T08:13:27Z</time>
      </trkpt>
      <trkpt lat="42.8144120" lon="-7.6668680">
        <ele>521.3</ele>
        <time>2020-10-19T08:13:28Z</time>
      </trkpt>
      <trkpt lat="42.8144170" lon="-7.6668770">
        <ele>521.3</ele>
        <time>2020-10-19T08:13:29Z</time>
      </trkpt>
      <trkpt lat="42.8144210" lon="-7.6668850">
        <ele>521.4</ele>
        <time>2020-10-19T08:13:30Z</time>
      </trkpt>
      <trkpt lat="42.8144200" lon="-7.6668900">
        <ele>521.4</ele>
        <time>2020-10-19T08:13:31Z</time>
      </trkpt>
      <trkpt lat="42.8144180" lon="-7.6668960">
        <ele>521.5</ele>
        <time>2020-10-19T08:13:32Z</time>
      </trkpt>
      <trkpt lat="42.8144160" lon="-7.6669010">
        <ele>521.5</ele>
        <time>2020-10-19T08:13:33Z</time>
      </trkpt>
      <trkpt lat="42.8144160" lon="-7.6669040">
        <ele>521.6</ele>
        <time>2020-10-19T08:13:34Z</time>
      </trkpt>
      <trkpt lat="42.8144170" lon="-7.6669040">
        <ele>521.6</ele>
        <time>2020-10-19T08:13:35Z</time>
      </trkpt>
      <trkpt lat="42.8144170" lon="-7.6669050">
        <ele>521.6</ele>
        <time>2020-10-19T08:13:36Z</time>
      </trkpt>
      <trkpt lat="42.8144150" lon="-7.6669060">
        <ele>521.6</ele>
        <time>2020-10-19T08:13:37Z</time>
      </trkpt>
      <trkpt lat="42.8144140" lon="-7.6669060">
        <ele>521.6</ele>
        <time>2020-10-19T08:13:38Z</time>
      </trkpt>
      <trkpt lat="42.8144130" lon="-7.6669070">
        <ele>521.6</ele>
        <time>2020-10-19T08:13:39Z</time>
      </trkpt>
      <trkpt lat="42.8144130" lon="-7.6669060">
        <ele>521.6</ele>
        <time>2020-10-19T08:13:40Z</time>
      </trkpt>
      <trkpt lat="42.8144130" lon="-7.6669050">
        <ele>521.6</ele>
        <time>2020-10-19T08:13:41Z</time>
      </trkpt>
      <trkpt lat="42.8144120" lon="-7.6669030">
        <ele>521.6</ele>
        <time>2020-10-19T08:13:42Z</time>
      </trkpt>
      <trkpt lat="42.8144110" lon="-7.6669040">
        <ele>521.7</ele>
        <time>2020-10-19T08:13:43Z</time>
      </trkpt>
      <trkpt lat="42.8144110" lon="-7.6669040">
        <ele>521.7</ele>
        <time>2020-10-19T08:13:44Z</time>
      </trkpt>
      <trkpt lat="42.8144110" lon="-7.6669050">
        <ele>521.7</ele>
        <time>2020-10-19T08:13:45Z</time>
      </trkpt>
      <trkpt lat="42.8144100" lon="-7.6669060">
        <ele>521.7</ele>
        <time>2020-10-19T08:13:46Z</time>
      </trkpt>
      <trkpt lat="42.8144090" lon="-7.6669080">
        <ele>521.7</ele>
        <time>2020-10-19T08:13:47Z</time>
      </trkpt>
      <trkpt lat="42.8144080" lon="-7.6669090">
        <ele>521.7</ele>
        <time>2020-10-19T08:13:48Z</time>
      </trkpt>
      <trkpt lat="42.8144080" lon="-7.6669090">
        <ele>521.7</ele>
        <time>2020-10-19T08:13:49Z</time>
      </trkpt>
      <trkpt lat="42.8144080" lon="-7.6669090">
        <ele>521.7</ele>
        <time>2020-10-19T08:13:50Z</time>
      </trkpt>
      <trkpt lat="42.8144090" lon="-7.6669100">
        <ele>521.7</ele>
        <time>2020-10-19T08:13:51Z</time>
      </trkpt>
      <trkpt lat="42.8144090" lon="-7.6669110">
        <ele>521.7</ele>
        <time>2020-10-19T08:13:52Z</time>
      </trkpt>
      <trkpt lat="42.8144090" lon="-7.6669110">
        <ele>521.7</ele>
        <time>2020-10-19T08:13:53Z</time>
      </trkpt>
      <trkpt lat="42.8144090" lon="-7.6669110">
        <ele>521.7</ele>
        <time>2020-10-19T08:13:54Z</time>
      </trkpt>
      <trkpt lat="42.8144100" lon="-7.6669100">
        <ele>521.7</ele>
        <time>2020-10-19T08:13:55Z</time>
      </trkpt>
      <trkpt lat="42.8144100" lon="-7.6669100">
        <ele>521.7</ele>
        <time>2020-10-19T08:13:56Z</time>
      </trkpt>
      <trkpt lat="42.8144100" lon="-7.6669090">
        <ele>521.7</ele>
        <time>2020-10-19T08:13:57Z</time>
      </trkpt>
      <trkpt lat="42.8144100" lon="-7.6669090">
        <ele>521.7</ele>
        <time>2020-10-19T08:13:58Z</time>
      </trkpt>
      <trkpt lat="42.8144090" lon="-7.6669080">
        <ele>521.8</ele>
        <time>2020-10-19T08:13:59Z</time>
      </trkpt>
      <trkpt lat="42.8144090" lon="-7.6669070">
        <ele>521.8</ele>
        <time>2020-10-19T08:14:00Z</time>
      </trkpt>
      <trkpt lat="42.8144080" lon="-7.6669050">
        <ele>521.8</ele>
        <time>2020-10-19T08:14:01Z</time>
      </trkpt>
      <trkpt lat="42.8144080" lon="-7.6669030">
        <ele>521.8</ele>
        <time>2020-10-19T08:14:02Z</time>
      </trkpt>
      <trkpt lat="42.8144080" lon="-7.6669010">
        <ele>521.8</ele>
        <time>2020-10-19T08:14:03Z</time>
      </trkpt>
      <trkpt lat="42.8144080" lon="-7.6669010">
        <ele>521.8</ele>
        <time>2020-10-19T08:14:04Z</time>
      </trkpt>
      <trkpt lat="42.8144070" lon="-7.6668990">
        <ele>521.8</ele>
        <time>2020-10-19T08:14:05Z</time>
      </trkpt>
      <trkpt lat="42.8144070" lon="-7.6668970">
        <ele>521.8</ele>
        <time>2020-10-19T08:14:06Z</time>
      </trkpt>
      <trkpt lat="42.8144060" lon="-7.6668940">
        <ele>521.9</ele>
        <time>2020-10-19T08:14:07Z</time>
      </trkpt>
      <trkpt lat="42.8144060" lon="-7.6668940">
        <ele>521.9</ele>
        <time>2020-10-19T08:14:08Z</time>
      </trkpt>
      <trkpt lat="42.8144060" lon="-7.6668970">
        <ele>521.9</ele>
        <time>2020-10-19T08:14:09Z</time>
      </trkpt>
      <trkpt lat="42.8144060" lon="-7.6669010">
        <ele>521.9</ele>
        <time>2020-10-19T08:14:10Z</time>
      </trkpt>
      <trkpt lat="42.8144050" lon="-7.6669030">
        <ele>521.9</ele>
        <time>2020-10-19T08:14:11Z</time>
      </trkpt>
      <trkpt lat="42.8144060" lon="-7.6669020">
        <ele>521.9</ele>
        <time>2020-10-19T08:14:12Z</time>
      </trkpt>
      <trkpt lat="42.8144070" lon="-7.6668980">
        <ele>522.0</ele>
        <time>2020-10-19T08:14:13Z</time>
      </trkpt>
      <trkpt lat="42.8144070" lon="-7.6668950">
        <ele>522.0</ele>
        <time>2020-10-19T08:14:14Z</time>
      </trkpt>
      <trkpt lat="42.8144060" lon="-7.6668940">
        <ele>522.0</ele>
        <time>2020-10-19T08:14:15Z</time>
      </trkpt>
      <trkpt lat="42.8144060" lon="-7.6668930">
        <ele>522.0</ele>
        <time>2020-10-19T08:14:16Z</time>
      </trkpt>
      <trkpt lat="42.8144060" lon="-7.6668920">
        <ele>522.0</ele>
        <time>2020-10-19T08:14:17Z</time>
      </trkpt>
      <trkpt lat="42.8144050" lon="-7.6668910">
        <ele>522.0</ele>
        <time>2020-10-19T08:14:18Z</time>
      </trkpt>
      <trkpt lat="42.8144050" lon="-7.6668910">
        <ele>522.0</ele>
        <time>2020-10-19T08:14:19Z</time>
      </trkpt>
      <trkpt lat="42.8144040" lon="-7.6668910">
        <ele>522.0</ele>
        <time>2020-10-19T08:14:20Z</time>
      </trkpt>
      <trkpt lat="42.8144050" lon="-7.6668910">
        <ele>522.1</ele>
        <time>2020-10-19T08:14:21Z</time>
      </trkpt>
      <trkpt lat="42.8144050" lon="-7.6668910">
        <ele>522.1</ele>
        <time>2020-10-19T08:14:22Z</time>
      </trkpt>
      <trkpt lat="42.8144060" lon="-7.6668920">
        <ele>522.1</ele>
        <time>2020-10-19T08:14:23Z</time>
      </trkpt>
      <trkpt lat="42.8144060" lon="-7.6668920">
        <ele>522.1</ele>
        <time>2020-10-19T08:14:24Z</time>
      </trkpt>
      <trkpt lat="42.8144070" lon="-7.6668930">
        <ele>522.1</ele>
        <time>2020-10-19T08:14:25Z</time>
      </trkpt>
      <trkpt lat="42.8144070" lon="-7.6668950">
        <ele>522.1</ele>
        <time>2020-10-19T08:14:26Z</time>
      </trkpt>
      <trkpt lat="42.8144080" lon="-7.6668960">
        <ele>522.1</ele>
        <time>2020-10-19T08:14:27Z</time>
      </trkpt>
      <trkpt lat="42.8144080" lon="-7.6668980">
        <ele>522.1</ele>
        <time>2020-10-19T08:14:28Z</time>
      </trkpt>
      <trkpt lat="42.8144080" lon="-7.6668990">
        <ele>522.1</ele>
        <time>2020-10-19T08:14:29Z</time>
      </trkpt>
      <trkpt lat="42.8144080" lon="-7.6668990">
        <ele>522.1</ele>
        <time>2020-10-19T08:14:30Z</time>
      </trkpt>
      <trkpt lat="42.8144090" lon="-7.6669000">
        <ele>522.1</ele>
        <time>2020-10-19T08:14:31Z</time>
      </trkpt>
      <trkpt lat="42.8144090" lon="-7.6669000">
        <ele>522.1</ele>
        <time>2020-10-19T08:14:32Z</time>
      </trkpt>
      <trkpt lat="42.8144090" lon="-7.6669010">
        <ele>522.1</ele>
        <time>2020-10-19T08:14:33Z</time>
      </trkpt>
      <trkpt lat="42.8144110" lon="-7.6669010">
        <ele>522.2</ele>
        <time>2020-10-19T08:14:34Z</time>
      </trkpt>
      <trkpt lat="42.8144130" lon="-7.6669040">
        <ele>522.2</ele>
        <time>2020-10-19T08:14:35Z</time>
      </trkpt>
      <trkpt lat="42.8144170" lon="-7.6669100">
        <ele>522.2</ele>
        <time>2020-10-19T08:14:36Z</time>
      </trkpt>
      <trkpt lat="42.8144210" lon="-7.6669180">
        <ele>522.3</ele>
        <time>2020-10-19T08:14:37Z</time>
      </trkpt>
      <trkpt lat="42.8144240" lon="-7.6669270">
        <ele>522.4</ele>
        <time>2020-10-19T08:14:38Z</time>
      </trkpt>
      <trkpt lat="42.8144260" lon="-7.6669350">
        <ele>522.4</ele>
        <time>2020-10-19T08:14:39Z</time>
      </trkpt>
      <trkpt lat="42.8144300" lon="-7.6669430">
        <ele>522.5</ele>
        <time>2020-10-19T08:14:40Z</time>
      </trkpt>
      <trkpt lat="42.8144340" lon="-7.6669510">
        <ele>522.6</ele>
        <time>2020-10-19T08:14:41Z</time>
      </trkpt>
      <trkpt lat="42.8144380" lon="-7.6669590">
        <ele>522.6</ele>
        <time>2020-10-19T08:14:42Z</time>
      </trkpt>
      <trkpt lat="42.8144420" lon="-7.6669670">
        <ele>522.7</ele>
        <time>2020-10-19T08:14:43Z</time>
      </trkpt>
      <trkpt lat="42.8144460" lon="-7.6669770">
        <ele>522.8</ele>
        <time>2020-10-19T08:14:44Z</time>
      </trkpt>
      <trkpt lat="42.8144490" lon="-7.6669860">
        <ele>522.9</ele>
        <time>2020-10-19T08:14:45Z</time>
      </trkpt>
      <trkpt lat="42.8144520" lon="-7.6669960">
        <ele>522.9</ele>
        <time>2020-10-19T08:14:46Z</time>
      </trkpt>
      <trkpt lat="42.8144570" lon="-7.6670050">
        <ele>523.0</ele>
        <time>2020-10-19T08:14:47Z</time>
      </trkpt>
      <trkpt lat="42.8144610" lon="-7.6670130">
        <ele>523.1</ele>
        <time>2020-10-19T08:14:48Z</time>
      </trkpt>
      <trkpt lat="42.8144670" lon="-7.6670220">
        <ele>523.2</ele>
        <time>2020-10-19T08:14:49Z</time>
      </trkpt>
      <trkpt lat="42.8144720" lon="-7.6670320">
        <ele>523.3</ele>
        <time>2020-10-19T08:14:50Z</time>
      </trkpt>
      <trkpt lat="42.8144780" lon="-7.6670420">
        <ele>523.4</ele>
        <time>2020-10-19T08:14:51Z</time>
      </trkpt>
      <trkpt lat="42.8144820" lon="-7.6670520">
        <ele>523.4</ele>
        <time>2020-10-19T08:14:52Z</time>
      </trkpt>
      <trkpt lat="42.8144870" lon="-7.6670620">
        <ele>523.5</ele>
        <time>2020-10-19T08:14:53Z</time>
      </trkpt>
      <trkpt lat="42.8144910" lon="-7.6670720">
        <ele>523.6</ele>
        <time>2020-10-19T08:14:54Z</time>
      </trkpt>
      <trkpt lat="42.8144960" lon="-7.6670840">
        <ele>523.7</ele>
        <time>2020-10-19T08:14:55Z</time>
      </trkpt>
      <trkpt lat="42.8145000" lon="-7.6670950">
        <ele>523.8</ele>
        <time>2020-10-19T08:14:56Z</time>
      </trkpt>
      <trkpt lat="42.8145050" lon="-7.6671070">
        <ele>523.9</ele>
        <time>2020-10-19T08:14:57Z</time>
      </trkpt>
      <trkpt lat="42.8145110" lon="-7.6671190">
        <ele>524.0</ele>
        <time>2020-10-19T08:14:58Z</time>
      </trkpt>
      <trkpt lat="42.8145170" lon="-7.6671310">
        <ele>524.1</ele>
        <time>2020-10-19T08:14:59Z</time>
      </trkpt>
      <trkpt lat="42.8145220" lon="-7.6671430">
        <ele>524.2</ele>
        <time>2020-10-19T08:15:00Z</time>
      </trkpt>
      <trkpt lat="42.8145270" lon="-7.6671560">
        <ele>524.3</ele>
        <time>2020-10-19T08:15:01Z</time>
      </trkpt>
      <trkpt lat="42.8145320" lon="-7.6671680">
        <ele>524.4</ele>
        <time>2020-10-19T08:15:02Z</time>
      </trkpt>
      <trkpt lat="42.8145370" lon="-7.6671810">
        <ele>524.5</ele>
        <time>2020-10-19T08:15:03Z</time>
      </trkpt>
      <trkpt lat="42.8145420" lon="-7.6671940">
        <ele>524.6</ele>
        <time>2020-10-19T08:15:04Z</time>
      </trkpt>
      <trkpt lat="42.8145480" lon="-7.6672070">
        <ele>524.7</ele>
        <time>2020-10-19T08:15:05Z</time>
      </trkpt>
      <trkpt lat="42.8145540" lon="-7.6672190">
        <ele>524.8</ele>
        <time>2020-10-19T08:15:06Z</time>
      </trkpt>
      <trkpt lat="42.8145590" lon="-7.6672310">
        <ele>524.9</ele>
        <time>2020-10-19T08:15:07Z</time>
      </trkpt>
      <trkpt lat="42.8145640" lon="-7.6672430">
        <ele>524.9</ele>
        <time>2020-10-19T08:15:08Z</time>
      </trkpt>
      <trkpt lat="42.8145700" lon="-7.6672550">
        <ele>525.0</ele>
        <time>2020-10-19T08:15:09Z</time>
      </trkpt>
      <trkpt lat="42.8145750" lon="-7.6672670">
        <ele>525.1</ele>
        <time>2020-10-19T08:15:10Z</time>
      </trkpt>
      <trkpt lat="42.8145800" lon="-7.6672780">
        <ele>525.2</ele>
        <time>2020-10-19T08:15:11Z</time>
      </trkpt>
      <trkpt lat="42.8145840" lon="-7.6672900">
        <ele>525.3</ele>
        <time>2020-10-19T08:15:12Z</time>
      </trkpt>
      <trkpt lat="42.8145880" lon="-7.6673030">
        <ele>525.4</ele>
        <time>2020-10-19T08:15:13Z</time>
      </trkpt>
      <trkpt lat="42.8145910" lon="-7.6673150">
        <ele>525.5</ele>
        <time>2020-10-19T08:15:14Z</time>
      </trkpt>
      <trkpt lat="42.8145940" lon="-7.6673270">
        <ele>525.6</ele>
        <time>2020-10-19T08:15:15Z</time>
      </trkpt>
      <trkpt lat="42.8145980" lon="-7.6673400">
        <ele>525.6</ele>
        <time>2020-10-19T08:15:16Z</time>
      </trkpt>
      <trkpt lat="42.8146020" lon="-7.6673530">
        <ele>525.7</ele>
        <time>2020-10-19T08:15:17Z</time>
      </trkpt>
      <trkpt lat="42.8146090" lon="-7.6673650">
        <ele>525.8</ele>
        <time>2020-10-19T08:15:18Z</time>
      </trkpt>
      <trkpt lat="42.8146150" lon="-7.6673770">
        <ele>525.9</ele>
        <time>2020-10-19T08:15:19Z</time>
      </trkpt>
      <trkpt lat="42.8146210" lon="-7.6673900">
        <ele>526.0</ele>
        <time>2020-10-19T08:15:20Z</time>
      </trkpt>
      <trkpt lat="42.8146260" lon="-7.6674030">
        <ele>526.1</ele>
        <time>2020-10-19T08:15:21Z</time>
      </trkpt>
      <trkpt lat="42.8146310" lon="-7.6674150">
        <ele>526.2</ele>
        <time>2020-10-19T08:15:22Z</time>
      </trkpt>
      <trkpt lat="42.8146370" lon="-7.6674250">
        <ele>526.3</ele>
        <time>2020-10-19T08:15:23Z</time>
      </trkpt>
      <trkpt lat="42.8146420" lon="-7.6674370">
        <ele>526.3</ele>
        <time>2020-10-19T08:15:24Z</time>
      </trkpt>
      <trkpt lat="42.8146470" lon="-7.6674490">
        <ele>526.4</ele>
        <time>2020-10-19T08:15:25Z</time>
      </trkpt>
      <trkpt lat="42.8146520" lon="-7.6674620">
        <ele>526.5</ele>
        <time>2020-10-19T08:15:26Z</time>
      </trkpt>
      <trkpt lat="42.8146570" lon="-7.6674740">
        <ele>526.6</ele>
        <time>2020-10-19T08:15:27Z</time>
      </trkpt>
      <trkpt lat="42.8146620" lon="-7.6674860">
        <ele>526.7</ele>
        <time>2020-10-19T08:15:28Z</time>
      </trkpt>
      <trkpt lat="42.8146660" lon="-7.6674990">
        <ele>526.7</ele>
        <time>2020-10-19T08:15:29Z</time>
      </trkpt>
      <trkpt lat="42.8146710" lon="-7.6675120">
        <ele>526.8</ele>
        <time>2020-10-19T08:15:30Z</time>
      </trkpt>
      <trkpt lat="42.8146760" lon="-7.6675250">
        <ele>526.9</ele>
        <time>2020-10-19T08:15:31Z</time>
      </trkpt>
      <trkpt lat="42.8146820" lon="-7.6675380">
        <ele>527.0</ele>
        <time>2020-10-19T08:15:32Z</time>
      </trkpt>
      <trkpt lat="42.8146880" lon="-7.6675500">
        <ele>527.1</ele>
        <time>2020-10-19T08:15:33Z</time>
      </trkpt>
      <trkpt lat="42.8146940" lon="-7.6675620">
        <ele>527.2</ele>
        <time>2020-10-19T08:15:34Z</time>
      </trkpt>
      <trkpt lat="42.8146990" lon="-7.6675740">
        <ele>527.3</ele>
        <time>2020-10-19T08:15:35Z</time>
      </trkpt>
      <trkpt lat="42.8147050" lon="-7.6675870">
        <ele>527.3</ele>
        <time>2020-10-19T08:15:36Z</time>
      </trkpt>
      <trkpt lat="42.8147100" lon="-7.6676000">
        <ele>527.4</ele>
        <time>2020-10-19T08:15:37Z</time>
      </trkpt>
      <trkpt lat="42.8147150" lon="-7.6676140">
        <ele>527.5</ele>
        <time>2020-10-19T08:15:38Z</time>
      </trkpt>
      <trkpt lat="42.8147210" lon="-7.6676280">
        <ele>527.6</ele>
        <time>2020-10-19T08:15:39Z</time>
      </trkpt>
      <trkpt lat="42.8147250" lon="-7.6676420">
        <ele>527.7</ele>
        <time>2020-10-19T08:15:40Z</time>
      </trkpt>
      <trkpt lat="42.8147300" lon="-7.6676560">
        <ele>527.8</ele>
        <time>2020-10-19T08:15:41Z</time>
      </trkpt>
      <trkpt lat="42.8147340" lon="-7.6676700">
        <ele>527.9</ele>
        <time>2020-10-19T08:15:42Z</time>
      </trkpt>
      <trkpt lat="42.8147390" lon="-7.6676840">
        <ele>527.9</ele>
        <time>2020-10-19T08:15:43Z</time>
      </trkpt>
      <trkpt lat="42.8147440" lon="-7.6676990">
        <ele>528.0</ele>
        <time>2020-10-19T08:15:44Z</time>
      </trkpt>
      <trkpt lat="42.8147480" lon="-7.6677150">
        <ele>528.1</ele>
        <time>2020-10-19T08:15:45Z</time>
      </trkpt>
      <trkpt lat="42.8147520" lon="-7.6677310">
        <ele>528.2</ele>
        <time>2020-10-19T08:15:46Z</time>
      </trkpt>
      <trkpt lat="42.8147560" lon="-7.6677460">
        <ele>528.3</ele>
        <time>2020-10-19T08:15:47Z</time>
      </trkpt>
      <trkpt lat="42.8147610" lon="-7.6677610">
        <ele>528.4</ele>
        <time>2020-10-19T08:15:48Z</time>
      </trkpt>
      <trkpt lat="42.8147650" lon="-7.6677750">
        <ele>528.4</ele>
        <time>2020-10-19T08:15:49Z</time>
      </trkpt>
      <trkpt lat="42.8147710" lon="-7.6677900">
        <ele>528.5</ele>
        <time>2020-10-19T08:15:50Z</time>
      </trkpt>
      <trkpt lat="42.8147760" lon="-7.6678050">
        <ele>528.6</ele>
        <time>2020-10-19T08:15:51Z</time>
      </trkpt>
      <trkpt lat="42.8147810" lon="-7.6678190">
        <ele>528.7</ele>
        <time>2020-10-19T08:15:52Z</time>
      </trkpt>
      <trkpt lat="42.8147850" lon="-7.6678330">
        <ele>528.8</ele>
        <time>2020-10-19T08:15:53Z</time>
      </trkpt>
      <trkpt lat="42.8147890" lon="-7.6678460">
        <ele>528.9</ele>
        <time>2020-10-19T08:15:54Z</time>
      </trkpt>
      <trkpt lat="42.8147940" lon="-7.6678600">
        <ele>528.9</ele>
        <time>2020-10-19T08:15:55Z</time>
      </trkpt>
      <trkpt lat="42.8147990" lon="-7.6678740">
        <ele>529.0</ele>
        <time>2020-10-19T08:15:56Z</time>
      </trkpt>
      <trkpt lat="42.8148030" lon="-7.6678890">
        <ele>529.1</ele>
        <time>2020-10-19T08:15:57Z</time>
      </trkpt>
      <trkpt lat="42.8148080" lon="-7.6679030">
        <ele>529.2</ele>
        <time>2020-10-19T08:15:58Z</time>
      </trkpt>
      <trkpt lat="42.8148130" lon="-7.6679160">
        <ele>529.3</ele>
        <time>2020-10-19T08:15:59Z</time>
      </trkpt>
      <trkpt lat="42.8148180" lon="-7.6679300">
        <ele>529.4</ele>
        <time>2020-10-19T08:16:00Z</time>
      </trkpt>
      <trkpt lat="42.8148230" lon="-7.6679440">
        <ele>529.4</ele>
        <time>2020-10-19T08:16:01Z</time>
      </trkpt>
      <trkpt lat="42.8148280" lon="-7.6679570">
        <ele>529.5</ele>
        <time>2020-10-19T08:16:02Z</time>
      </trkpt>
      <trkpt lat="42.8148330" lon="-7.6679720">
        <ele>529.6</ele>
        <time>2020-10-19T08:16:03Z</time>
      </trkpt>
      <trkpt lat="42.8148380" lon="-7.6679860">
        <ele>529.7</ele>
        <time>2020-10-19T08:16:04Z</time>
      </trkpt>
      <trkpt lat="42.8148420" lon="-7.6680000">
        <ele>529.8</ele>
        <time>2020-10-19T08:16:05Z</time>
      </trkpt>
      <trkpt lat="42.8148460" lon="-7.6680150">
        <ele>529.9</ele>
        <time>2020-10-19T08:16:06Z</time>
      </trkpt>
      <trkpt lat="42.8148490" lon="-7.6680290">
        <ele>530.0</ele>
        <time>2020-10-19T08:16:07Z</time>
      </trkpt>
      <trkpt lat="42.8148540" lon="-7.6680440">
        <ele>530.0</ele>
        <time>2020-10-19T08:16:08Z</time>
      </trkpt>
      <trkpt lat="42.8148580" lon="-7.6680590">
        <ele>530.1</ele>
        <time>2020-10-19T08:16:09Z</time>
      </trkpt>
      <trkpt lat="42.8148620" lon="-7.6680740">
        <ele>530.2</ele>
        <time>2020-10-19T08:16:10Z</time>
      </trkpt>
      <trkpt lat="42.8148650" lon="-7.6680890">
        <ele>530.3</ele>
        <time>2020-10-19T08:16:11Z</time>
      </trkpt>
      <trkpt lat="42.8148690" lon="-7.6681030">
        <ele>530.4</ele>
        <time>2020-10-19T08:16:12Z</time>
      </trkpt>
      <trkpt lat="42.8148730" lon="-7.6681170">
        <ele>530.5</ele>
        <time>2020-10-19T08:16:13Z</time>
      </trkpt>
      <trkpt lat="42.8148760" lon="-7.6681310">
        <ele>530.5</ele>
        <time>2020-10-19T08:16:14Z</time>
      </trkpt>
      <trkpt lat="42.8148800" lon="-7.6681450">
        <ele>530.6</ele>
        <time>2020-10-19T08:16:15Z</time>
      </trkpt>
      <trkpt lat="42.8148830" lon="-7.6681600">
        <ele>530.7</ele>
        <time>2020-10-19T08:16:16Z</time>
      </trkpt>
      <trkpt lat="42.8148860" lon="-7.6681750">
        <ele>530.8</ele>
        <time>2020-10-19T08:16:17Z</time>
      </trkpt>
      <trkpt lat="42.8148890" lon="-7.6681910">
        <ele>530.8</ele>
        <time>2020-10-19T08:16:18Z</time>
      </trkpt>
      <trkpt lat="42.8148930" lon="-7.6682080">
        <ele>530.9</ele>
        <time>2020-10-19T08:16:19Z</time>
      </trkpt>
      <trkpt lat="42.8148970" lon="-7.6682240">
        <ele>531.0</ele>
        <time>2020-10-19T08:16:20Z</time>
      </trkpt>
      <trkpt lat="42.8149000" lon="-7.6682390">
        <ele>531.1</ele>
        <time>2020-10-19T08:16:21Z</time>
      </trkpt>
      <trkpt lat="42.8149040" lon="-7.6682550">
        <ele>531.1</ele>
        <time>2020-10-19T08:16:22Z</time>
      </trkpt>
      <trkpt lat="42.8149080" lon="-7.6682700">
        <ele>531.2</ele>
        <time>2020-10-19T08:16:23Z</time>
      </trkpt>
      <trkpt lat="42.8149120" lon="-7.6682860">
        <ele>531.3</ele>
        <time>2020-10-19T08:16:24Z</time>
      </trkpt>
      <trkpt lat="42.8149150" lon="-7.6683020">
        <ele>531.3</ele>
        <time>2020-10-19T08:16:25Z</time>
      </trkpt>
      <trkpt lat="42.8149190" lon="-7.6683170">
        <ele>531.4</ele>
        <time>2020-10-19T08:16:26Z</time>
      </trkpt>
      <trkpt lat="42.8149220" lon="-7.6683330">
        <ele>531.5</ele>
        <time>2020-10-19T08:16:27Z</time>
      </trkpt>
      <trkpt lat="42.8149260" lon="-7.6683480">
        <ele>531.5</ele>
        <time>2020-10-19T08:16:28Z</time>
      </trkpt>
      <trkpt lat="42.8149290" lon="-7.6683630">
        <ele>531.6</ele>
        <time>2020-10-19T08:16:29Z</time>
      </trkpt>
      <trkpt lat="42.8149310" lon="-7.6683770">
        <ele>531.6</ele>
        <time>2020-10-19T08:16:30Z</time>
      </trkpt>
      <trkpt lat="42.8149330" lon="-7.6683920">
        <ele>531.7</ele>
        <time>2020-10-19T08:16:31Z</time>
      </trkpt>
      <trkpt lat="42.8149360" lon="-7.6684070">
        <ele>531.7</ele>
        <time>2020-10-19T08:16:32Z</time>
      </trkpt>
      <trkpt lat="42.8149400" lon="-7.6684230">
        <ele>531.8</ele>
        <time>2020-10-19T08:16:33Z</time>
      </trkpt>
      <trkpt lat="42.8149450" lon="-7.6684380">
        <ele>531.8</ele>
        <time>2020-10-19T08:16:34Z</time>
      </trkpt>
      <trkpt lat="42.8149500" lon="-7.6684530">
        <ele>531.9</ele>
        <time>2020-10-19T08:16:35Z</time>
      </trkpt>
      <trkpt lat="42.8149550" lon="-7.6684680">
        <ele>531.9</ele>
        <time>2020-10-19T08:16:36Z</time>
      </trkpt>
      <trkpt lat="42.8149590" lon="-7.6684830">
        <ele>531.9</ele>
        <time>2020-10-19T08:16:37Z</time>
      </trkpt>
      <trkpt lat="42.8149640" lon="-7.6684980">
        <ele>532.0</ele>
        <time>2020-10-19T08:16:38Z</time>
      </trkpt>
      <trkpt lat="42.8149680" lon="-7.6685130">
        <ele>532.0</ele>
        <time>2020-10-19T08:16:39Z</time>
      </trkpt>
      <trkpt lat="42.8149730" lon="-7.6685280">
        <ele>532.0</ele>
        <time>2020-10-19T08:16:40Z</time>
      </trkpt>
      <trkpt lat="42.8149780" lon="-7.6685410">
        <ele>532.1</ele>
        <time>2020-10-19T08:16:41Z</time>
      </trkpt>
      <trkpt lat="42.8149830" lon="-7.6685550">
        <ele>532.1</ele>
        <time>2020-10-19T08:16:42Z</time>
      </trkpt>
      <trkpt lat="42.8149890" lon="-7.6685680">
        <ele>532.1</ele>
        <time>2020-10-19T08:16:43Z</time>
      </trkpt>
      <trkpt lat="42.8149950" lon="-7.6685820">
        <ele>532.2</ele>
        <time>2020-10-19T08:16:44Z</time>
      </trkpt>
      <trkpt lat="42.8150010" lon="-7.6685960">
        <ele>532.2</ele>
        <time>2020-10-19T08:16:45Z</time>
      </trkpt>
      <trkpt lat="42.8150070" lon="-7.6686100">
        <ele>532.2</ele>
        <time>2020-10-19T08:16:46Z</time>
      </trkpt>
      <trkpt lat="42.8150140" lon="-7.6686240">
        <ele>532.2</ele>
        <time>2020-10-19T08:16:47Z</time>
      </trkpt>
      <trkpt lat="42.8150200" lon="-7.6686380">
        <ele>532.2</ele>
        <time>2020-10-19T08:16:48Z</time>
      </trkpt>
      <trkpt lat="42.8150260" lon="-7.6686520">
        <ele>532.3</ele>
        <time>2020-10-19T08:16:49Z</time>
      </trkpt>
      <trkpt lat="42.8150320" lon="-7.6686660">
        <ele>532.3</ele>
        <time>2020-10-19T08:16:50Z</time>
      </trkpt>
      <trkpt lat="42.8150390" lon="-7.6686790">
        <ele>532.3</ele>
        <time>2020-10-19T08:16:51Z</time>
      </trkpt>
      <trkpt lat="42.8150450" lon="-7.6686920">
        <ele>532.3</ele>
        <time>2020-10-19T08:16:52Z</time>
      </trkpt>
      <trkpt lat="42.8150520" lon="-7.6687060">
        <ele>532.3</ele>
        <time>2020-10-19T08:16:53Z</time>
      </trkpt>
      <trkpt lat="42.8150590" lon="-7.6687200">
        <ele>532.3</ele>
        <time>2020-10-19T08:16:54Z</time>
      </trkpt>
      <trkpt lat="42.8150660" lon="-7.6687340">
        <ele>532.3</ele>
        <time>2020-10-19T08:16:55Z</time>
      </trkpt>
      <trkpt lat="42.8150720" lon="-7.6687480">
        <ele>532.4</ele>
        <time>2020-10-19T08:16:56Z</time>
      </trkpt>
      <trkpt lat="42.8150780" lon="-7.6687620">
        <ele>532.4</ele>
        <time>2020-10-19T08:16:57Z</time>
      </trkpt>
      <trkpt lat="42.8150840" lon="-7.6687750">
        <ele>532.4</ele>
        <time>2020-10-19T08:16:58Z</time>
      </trkpt>
      <trkpt lat="42.8150910" lon="-7.6687890">
        <ele>532.4</ele>
        <time>2020-10-19T08:16:59Z</time>
      </trkpt>
      <trkpt lat="42.8150980" lon="-7.6688020">
        <ele>532.4</ele>
        <time>2020-10-19T08:17:00Z</time>
      </trkpt>
      <trkpt lat="42.8151040" lon="-7.6688160">
        <ele>532.4</ele>
        <time>2020-10-19T08:17:01Z</time>
      </trkpt>
      <trkpt lat="42.8151100" lon="-7.6688300">
        <ele>532.4</ele>
        <time>2020-10-19T08:17:02Z</time>
      </trkpt>
      <trkpt lat="42.8151160" lon="-7.6688440">
        <ele>532.5</ele>
        <time>2020-10-19T08:17:03Z</time>
      </trkpt>
      <trkpt lat="42.8151210" lon="-7.6688580">
        <ele>532.5</ele>
        <time>2020-10-19T08:17:04Z</time>
      </trkpt>
      <trkpt lat="42.8151260" lon="-7.6688720">
        <ele>532.5</ele>
        <time>2020-10-19T08:17:05Z</time>
      </trkpt>
      <trkpt lat="42.8151310" lon="-7.6688850">
        <ele>532.5</ele>
        <time>2020-10-19T08:17:06Z</time>
      </trkpt>
      <trkpt lat="42.8151360" lon="-7.6688990">
        <ele>532.5</ele>
        <time>2020-10-19T08:17:07Z</time>
      </trkpt>
      <trkpt lat="42.8151410" lon="-7.6689130">
        <ele>532.5</ele>
        <time>2020-10-19T08:17:08Z</time>
      </trkpt>
      <trkpt lat="42.8151470" lon="-7.6689270">
        <ele>532.5</ele>
        <time>2020-10-19T08:17:09Z</time>
      </trkpt>
      <trkpt lat="42.8151520" lon="-7.6689410">
        <ele>532.5</ele>
        <time>2020-10-19T08:17:10Z</time>
      </trkpt>
      <trkpt lat="42.8151580" lon="-7.6689560">
        <ele>532.5</ele>
        <time>2020-10-19T08:17:11Z</time>
      </trkpt>
      <trkpt lat="42.8151640" lon="-7.6689710">
        <ele>532.6</ele>
        <time>2020-10-19T08:17:12Z</time>
      </trkpt>
      <trkpt lat="42.8151690" lon="-7.6689860">
        <ele>532.6</ele>
        <time>2020-10-19T08:17:13Z</time>
      </trkpt>
      <trkpt lat="42.8151730" lon="-7.6690000">
        <ele>532.6</ele>
        <time>2020-10-19T08:17:14Z</time>
      </trkpt>
      <trkpt lat="42.8151780" lon="-7.6690120">
        <ele>532.6</ele>
        <time>2020-10-19T08:17:15Z</time>
      </trkpt>
      <trkpt lat="42.8151820" lon="-7.6690260">
        <ele>532.6</ele>
        <time>2020-10-19T08:17:16Z</time>
      </trkpt>
      <trkpt lat="42.8151860" lon="-7.6690410">
        <ele>532.6</ele>
        <time>2020-10-19T08:17:17Z</time>
      </trkpt>
      <trkpt lat="42.8151900" lon="-7.6690560">
        <ele>532.6</ele>
        <time>2020-10-19T08:17:18Z</time>
      </trkpt>
      <trkpt lat="42.8151920" lon="-7.6690710">
        <ele>532.6</ele>
        <time>2020-10-19T08:17:19Z</time>
      </trkpt>
      <trkpt lat="42.8151950" lon="-7.6690820">
        <ele>532.6</ele>
        <time>2020-10-19T08:17:20Z</time>
      </trkpt>
      <trkpt lat="42.8151980" lon="-7.6690970">
        <ele>532.6</ele>
        <time>2020-10-19T08:17:21Z</time>
      </trkpt>
      <trkpt lat="42.8152020" lon="-7.6691120">
        <ele>532.6</ele>
        <time>2020-10-19T08:17:22Z</time>
      </trkpt>
      <trkpt lat="42.8152050" lon="-7.6691290">
        <ele>532.6</ele>
        <time>2020-10-19T08:17:23Z</time>
      </trkpt>
      <trkpt lat="42.8152080" lon="-7.6691450">
        <ele>532.6</ele>
        <time>2020-10-19T08:17:24Z</time>
      </trkpt>
      <trkpt lat="42.8152090" lon="-7.6691610">
        <ele>532.6</ele>
        <time>2020-10-19T08:17:25Z</time>
      </trkpt>
      <trkpt lat="42.8152110" lon="-7.6691770">
        <ele>532.6</ele>
        <time>2020-10-19T08:17:26Z</time>
      </trkpt>
      <trkpt lat="42.8152130" lon="-7.6691920">
        <ele>532.6</ele>
        <time>2020-10-19T08:17:27Z</time>
      </trkpt>
      <trkpt lat="42.8152140" lon="-7.6692070">
        <ele>532.6</ele>
        <time>2020-10-19T08:17:28Z</time>
      </trkpt>
      <trkpt lat="42.8152170" lon="-7.6692220">
        <ele>532.6</ele>
        <time>2020-10-19T08:17:29Z</time>
      </trkpt>
      <trkpt lat="42.8152200" lon="-7.6692370">
        <ele>532.6</ele>
        <time>2020-10-19T08:17:30Z</time>
      </trkpt>
      <trkpt lat="42.8152240" lon="-7.6692510">
        <ele>532.6</ele>
        <time>2020-10-19T08:17:31Z</time>
      </trkpt>
      <trkpt lat="42.8152270" lon="-7.6692650">
        <ele>532.6</ele>
        <time>2020-10-19T08:17:32Z</time>
      </trkpt>
      <trkpt lat="42.8152320" lon="-7.6692780">
        <ele>532.6</ele>
        <time>2020-10-19T08:17:33Z</time>
      </trkpt>
      <trkpt lat="42.8152360" lon="-7.6692920">
        <ele>532.6</ele>
        <time>2020-10-19T08:17:34Z</time>
      </trkpt>
      <trkpt lat="42.8152400" lon="-7.6693060">
        <ele>532.5</ele>
        <time>2020-10-19T08:17:35Z</time>
      </trkpt>
      <trkpt lat="42.8152430" lon="-7.6693190">
        <ele>532.5</ele>
        <time>2020-10-19T08:17:36Z</time>
      </trkpt>
      <trkpt lat="42.8152470" lon="-7.6693340">
        <ele>532.5</ele>
        <time>2020-10-19T08:17:37Z</time>
      </trkpt>
      <trkpt lat="42.8152520" lon="-7.6693480">
        <ele>532.5</ele>
        <time>2020-10-19T08:17:38Z</time>
      </trkpt>
      <trkpt lat="42.8152580" lon="-7.6693610">
        <ele>532.5</ele>
        <time>2020-10-19T08:17:39Z</time>
      </trkpt>
      <trkpt lat="42.8152630" lon="-7.6693750">
        <ele>532.5</ele>
        <time>2020-10-19T08:17:40Z</time>
      </trkpt>
      <trkpt lat="42.8152690" lon="-7.6693890">
        <ele>532.5</ele>
        <time>2020-10-19T08:17:41Z</time>
      </trkpt>
      <trkpt lat="42.8152740" lon="-7.6694030">
        <ele>532.5</ele>
        <time>2020-10-19T08:17:42Z</time>
      </trkpt>
      <trkpt lat="42.8152780" lon="-7.6694160">
        <ele>532.4</ele>
        <time>2020-10-19T08:17:43Z</time>
      </trkpt>
      <trkpt lat="42.8152830" lon="-7.6694310">
        <ele>532.4</ele>
        <time>2020-10-19T08:17:44Z</time>
      </trkpt>
      <trkpt lat="42.8152880" lon="-7.6694450">
        <ele>532.4</ele>
        <time>2020-10-19T08:17:45Z</time>
      </trkpt>
      <trkpt lat="42.8152930" lon="-7.6694590">
        <ele>532.4</ele>
        <time>2020-10-19T08:17:46Z</time>
      </trkpt>
      <trkpt lat="42.8152980" lon="-7.6694730">
        <ele>532.4</ele>
        <time>2020-10-19T08:17:47Z</time>
      </trkpt>
      <trkpt lat="42.8153050" lon="-7.6694860">
        <ele>532.4</ele>
        <time>2020-10-19T08:17:48Z</time>
      </trkpt>
      <trkpt lat="42.8153110" lon="-7.6694990">
        <ele>532.4</ele>
        <time>2020-10-19T08:17:49Z</time>
      </trkpt>
      <trkpt lat="42.8153170" lon="-7.6695110">
        <ele>532.4</ele>
        <time>2020-10-19T08:17:50Z</time>
      </trkpt>
      <trkpt lat="42.8153220" lon="-7.6695250">
        <ele>532.3</ele>
        <time>2020-10-19T08:17:51Z</time>
      </trkpt>
      <trkpt lat="42.8153280" lon="-7.6695390">
        <ele>532.3</ele>
        <time>2020-10-19T08:17:52Z</time>
      </trkpt>
      <trkpt lat="42.8153330" lon="-7.6695530">
        <ele>532.3</ele>
        <time>2020-10-19T08:17:53Z</time>
      </trkpt>
      <trkpt lat="42.8153390" lon="-7.6695670">
        <ele>532.3</ele>
        <time>2020-10-19T08:17:54Z</time>
      </trkpt>
      <trkpt lat="42.8153450" lon="-7.6695820">
        <ele>532.3</ele>
        <time>2020-10-19T08:17:55Z</time>
      </trkpt>
      <trkpt lat="42.8153520" lon="-7.6695970">
        <ele>532.2</ele>
        <time>2020-10-19T08:17:56Z</time>
      </trkpt>
      <trkpt lat="42.8153570" lon="-7.6696110">
        <ele>532.2</ele>
        <time>2020-10-19T08:17:57Z</time>
      </trkpt>
      <trkpt lat="42.8153620" lon="-7.6696240">
        <ele>532.2</ele>
        <time>2020-10-19T08:17:58Z</time>
      </trkpt>
      <trkpt lat="42.8153680" lon="-7.6696360">
        <ele>532.2</ele>
        <time>2020-10-19T08:17:59Z</time>
      </trkpt>
      <trkpt lat="42.8153730" lon="-7.6696480">
        <ele>532.2</ele>
        <time>2020-10-19T08:18:00Z</time>
      </trkpt>
      <trkpt lat="42.8153790" lon="-7.6696600">
        <ele>532.1</ele>
        <time>2020-10-19T08:18:01Z</time>
      </trkpt>
      <trkpt lat="42.8153840" lon="-7.6696730">
        <ele>532.1</ele>
        <time>2020-10-19T08:18:02Z</time>
      </trkpt>
      <trkpt lat="42.8153880" lon="-7.6696860">
        <ele>532.1</ele>
        <time>2020-10-19T08:18:03Z</time>
      </trkpt>
      <trkpt lat="42.8153910" lon="-7.6696990">
        <ele>532.1</ele>
        <time>2020-10-19T08:18:04Z</time>
      </trkpt>
      <trkpt lat="42.8153960" lon="-7.6697120">
        <ele>532.1</ele>
        <time>2020-10-19T08:18:05Z</time>
      </trkpt>
      <trkpt lat="42.8154000" lon="-7.6697260">
        <ele>532.0</ele>
        <time>2020-10-19T08:18:06Z</time>
      </trkpt>
      <trkpt lat="42.8154050" lon="-7.6697410">
        <ele>532.0</ele>
        <time>2020-10-19T08:18:07Z</time>
      </trkpt>
      <trkpt lat="42.8154090" lon="-7.6697530">
        <ele>532.0</ele>
        <time>2020-10-19T08:18:08Z</time>
      </trkpt>
      <trkpt lat="42.8154150" lon="-7.6697660">
        <ele>532.0</ele>
        <time>2020-10-19T08:18:09Z</time>
      </trkpt>
      <trkpt lat="42.8154210" lon="-7.6697760">
        <ele>532.0</ele>
        <time>2020-10-19T08:18:10Z</time>
      </trkpt>
      <trkpt lat="42.8154270" lon="-7.6697890">
        <ele>531.9</ele>
        <time>2020-10-19T08:18:11Z</time>
      </trkpt>
      <trkpt lat="42.8154330" lon="-7.6698010">
        <ele>531.9</ele>
        <time>2020-10-19T08:18:12Z</time>
      </trkpt>
      <trkpt lat="42.8154400" lon="-7.6698150">
        <ele>531.9</ele>
        <time>2020-10-19T08:18:13Z</time>
      </trkpt>
      <trkpt lat="42.8154460" lon="-7.6698290">
        <ele>531.8</ele>
        <time>2020-10-19T08:18:14Z</time>
      </trkpt>
      <trkpt lat="42.8154530" lon="-7.6698420">
        <ele>531.8</ele>
        <time>2020-10-19T08:18:15Z</time>
      </trkpt>
      <trkpt lat="42.8154610" lon="-7.6698530">
        <ele>531.8</ele>
        <time>2020-10-19T08:18:16Z</time>
      </trkpt>
      <trkpt lat="42.8154700" lon="-7.6698640">
        <ele>531.8</ele>
        <time>2020-10-19T08:18:17Z</time>
      </trkpt>
      <trkpt lat="42.8154770" lon="-7.6698740">
        <ele>531.7</ele>
        <time>2020-10-19T08:18:18Z</time>
      </trkpt>
      <trkpt lat="42.8154820" lon="-7.6698850">
        <ele>531.7</ele>
        <time>2020-10-19T08:18:19Z</time>
      </trkpt>
      <trkpt lat="42.8154860" lon="-7.6698950">
        <ele>531.7</ele>
        <time>2020-10-19T08:18:20Z</time>
      </trkpt>
      <trkpt lat="42.8154920" lon="-7.6699060">
        <ele>531.7</ele>
        <time>2020-10-19T08:18:21Z</time>
      </trkpt>
      <trkpt lat="42.8154980" lon="-7.6699180">
        <ele>531.7</ele>
        <time>2020-10-19T08:18:22Z</time>
      </trkpt>
      <trkpt lat="42.8155060" lon="-7.6699320">
        <ele>531.6</ele>
        <time>2020-10-19T08:18:23Z</time>
      </trkpt>
      <trkpt lat="42.8155110" lon="-7.6699450">
        <ele>531.6</ele>
        <time>2020-10-19T08:18:24Z</time>
      </trkpt>
      <trkpt lat="42.8155180" lon="-7.6699590">
        <ele>531.6</ele>
        <time>2020-10-19T08:18:25Z</time>
      </trkpt>
      <trkpt lat="42.8155220" lon="-7.6699700">
        <ele>531.6</ele>
        <time>2020-10-19T08:18:26Z</time>
      </trkpt>
      <trkpt lat="42.8155290" lon="-7.6699840">
        <ele>531.5</ele>
        <time>2020-10-19T08:18:27Z</time>
      </trkpt>
      <trkpt lat="42.8155340" lon="-7.6699970">
        <ele>531.5</ele>
        <time>2020-10-19T08:18:28Z</time>
      </trkpt>
      <trkpt lat="42.8155400" lon="-7.6700110">
        <ele>531.5</ele>
        <time>2020-10-19T08:18:29Z</time>
      </trkpt>
      <trkpt lat="42.8155460" lon="-7.6700220">
        <ele>531.5</ele>
        <time>2020-10-19T08:18:30Z</time>
      </trkpt>
      <trkpt lat="42.8155500" lon="-7.6700340">
        <ele>531.5</ele>
        <time>2020-10-19T08:18:31Z</time>
      </trkpt>
      <trkpt lat="42.8155540" lon="-7.6700480">
        <ele>531.4</ele>
        <time>2020-10-19T08:18:32Z</time>
      </trkpt>
      <trkpt lat="42.8155570" lon="-7.6700610">
        <ele>531.4</ele>
        <time>2020-10-19T08:18:33Z</time>
      </trkpt>
      <trkpt lat="42.8155620" lon="-7.6700750">
        <ele>531.4</ele>
        <time>2020-10-19T08:18:34Z</time>
      </trkpt>
      <trkpt lat="42.8155680" lon="-7.6700860">
        <ele>531.4</ele>
        <time>2020-10-19T08:18:35Z</time>
      </trkpt>
      <trkpt lat="42.8155740" lon="-7.6700980">
        <ele>531.4</ele>
        <time>2020-10-19T08:18:36Z</time>
      </trkpt>
      <trkpt lat="42.8155790" lon="-7.6701100">
        <ele>531.3</ele>
        <time>2020-10-19T08:18:37Z</time>
      </trkpt>
      <trkpt lat="42.8155840" lon="-7.6701220">
        <ele>531.3</ele>
        <time>2020-10-19T08:18:38Z</time>
      </trkpt>
      <trkpt lat="42.8155880" lon="-7.6701350">
        <ele>531.3</ele>
        <time>2020-10-19T08:18:39Z</time>
      </trkpt>
      <trkpt lat="42.8155910" lon="-7.6701470">
        <ele>531.3</ele>
        <time>2020-10-19T08:18:40Z</time>
      </trkpt>
      <trkpt lat="42.8155950" lon="-7.6701580">
        <ele>531.3</ele>
        <time>2020-10-19T08:18:41Z</time>
      </trkpt>
      <trkpt lat="42.8156000" lon="-7.6701700">
        <ele>531.3</ele>
        <time>2020-10-19T08:18:42Z</time>
      </trkpt>
      <trkpt lat="42.8156050" lon="-7.6701840">
        <ele>531.2</ele>
        <time>2020-10-19T08:18:43Z</time>
      </trkpt>
      <trkpt lat="42.8156090" lon="-7.6701960">
        <ele>531.2</ele>
        <time>2020-10-19T08:18:44Z</time>
      </trkpt>
      <trkpt lat="42.8156130" lon="-7.6702100">
        <ele>531.2</ele>
        <time>2020-10-19T08:18:45Z</time>
      </trkpt>
      <trkpt lat="42.8156170" lon="-7.6702230">
        <ele>531.2</ele>
        <time>2020-10-19T08:18:46Z</time>
      </trkpt>
      <trkpt lat="42.8156210" lon="-7.6702350">
        <ele>531.2</ele>
        <time>2020-10-19T08:18:47Z</time>
      </trkpt>
      <trkpt lat="42.8156240" lon="-7.6702460">
        <ele>531.1</ele>
        <time>2020-10-19T08:18:48Z</time>
      </trkpt>
      <trkpt lat="42.8156250" lon="-7.6702580">
        <ele>531.1</ele>
        <time>2020-10-19T08:18:49Z</time>
      </trkpt>
      <trkpt lat="42.8156270" lon="-7.6702710">
        <ele>531.1</ele>
        <time>2020-10-19T08:18:50Z</time>
      </trkpt>
      <trkpt lat="42.8156290" lon="-7.6702840">
        <ele>531.1</ele>
        <time>2020-10-19T08:18:51Z</time>
      </trkpt>
      <trkpt lat="42.8156310" lon="-7.6702970">
        <ele>531.1</ele>
        <time>2020-10-19T08:18:52Z</time>
      </trkpt>
      <trkpt lat="42.8156350" lon="-7.6703090">
        <ele>531.1</ele>
        <time>2020-10-19T08:18:53Z</time>
      </trkpt>
      <trkpt lat="42.8156390" lon="-7.6703220">
        <ele>531.0</ele>
        <time>2020-10-19T08:18:54Z</time>
      </trkpt>
      <trkpt lat="42.8156430" lon="-7.6703360">
        <ele>531.0</ele>
        <time>2020-10-19T08:18:55Z</time>
      </trkpt>
      <trkpt lat="42.8156450" lon="-7.6703500">
        <ele>531.0</ele>
        <time>2020-10-19T08:18:56Z</time>
      </trkpt>
      <trkpt lat="42.8156480" lon="-7.6703630">
        <ele>531.0</ele>
        <time>2020-10-19T08:18:57Z</time>
      </trkpt>
      <trkpt lat="42.8156520" lon="-7.6703750">
        <ele>531.0</ele>
        <time>2020-10-19T08:18:58Z</time>
      </trkpt>
      <trkpt lat="42.8156570" lon="-7.6703880">
        <ele>530.9</ele>
        <time>2020-10-19T08:18:59Z</time>
      </trkpt>
      <trkpt lat="42.8156630" lon="-7.6703980">
        <ele>530.9</ele>
        <time>2020-10-19T08:19:00Z</time>
      </trkpt>
      <trkpt lat="42.8156670" lon="-7.6704080">
        <ele>530.9</ele>
        <time>2020-10-19T08:19:01Z</time>
      </trkpt>
      <trkpt lat="42.8156710" lon="-7.6704170">
        <ele>530.9</ele>
        <time>2020-10-19T08:19:02Z</time>
      </trkpt>
      <trkpt lat="42.8156740" lon="-7.6704270">
        <ele>530.9</ele>
        <time>2020-10-19T08:19:03Z</time>
      </trkpt>
      <trkpt lat="42.8156780" lon="-7.6704380">
        <ele>530.9</ele>
        <time>2020-10-19T08:19:04Z</time>
      </trkpt>
      <trkpt lat="42.8156820" lon="-7.6704490">
        <ele>530.9</ele>
        <time>2020-10-19T08:19:05Z</time>
      </trkpt>
      <trkpt lat="42.8156860" lon="-7.6704600">
        <ele>530.8</ele>
        <time>2020-10-19T08:19:06Z</time>
      </trkpt>
      <trkpt lat="42.8156880" lon="-7.6704710">
        <ele>530.8</ele>
        <time>2020-10-19T08:19:07Z</time>
      </trkpt>
      <trkpt lat="42.8156890" lon="-7.6704810">
        <ele>530.8</ele>
        <time>2020-10-19T08:19:08Z</time>
      </trkpt>
      <trkpt lat="42.8156910" lon="-7.6704890">
        <ele>530.8</ele>
        <time>2020-10-19T08:19:09Z</time>
      </trkpt>
      <trkpt lat="42.8156930" lon="-7.6705000">
        <ele>530.8</ele>
        <time>2020-10-19T08:19:10Z</time>
      </trkpt>
      <trkpt lat="42.8156970" lon="-7.6705090">
        <ele>530.8</ele>
        <time>2020-10-19T08:19:11Z</time>
      </trkpt>
      <trkpt lat="42.8156980" lon="-7.6705220">
        <ele>530.8</ele>
        <time>2020-10-19T08:19:12Z</time>
      </trkpt>
      <trkpt lat="42.8156980" lon="-7.6705380">
        <ele>530.7</ele>
        <time>2020-10-19T08:19:13Z</time>
      </trkpt>
      <trkpt lat="42.8156970" lon="-7.6705570">
        <ele>530.7</ele>
        <time>2020-10-19T08:19:14Z</time>
      </trkpt>
      <trkpt lat="42.8156970" lon="-7.6705740">
        <ele>530.7</ele>
        <time>2020-10-19T08:19:15Z</time>
      </trkpt>
      <trkpt lat="42.8156980" lon="-7.6705870">
        <ele>530.7</ele>
        <time>2020-10-19T08:19:16Z</time>
      </trkpt>
      <trkpt lat="42.8157020" lon="-7.6705990">
        <ele>530.6</ele>
        <time>2020-10-19T08:19:17Z</time>
      </trkpt>
      <trkpt lat="42.8157070" lon="-7.6706120">
        <ele>530.6</ele>
        <time>2020-10-19T08:19:18Z</time>
      </trkpt>
      <trkpt lat="42.8157120" lon="-7.6706250">
        <ele>530.6</ele>
        <time>2020-10-19T08:19:19Z</time>
      </trkpt>
      <trkpt lat="42.8157170" lon="-7.6706350">
        <ele>530.6</ele>
        <time>2020-10-19T08:19:20Z</time>
      </trkpt>
      <trkpt lat="42.8157220" lon="-7.6706460">
        <ele>530.6</ele>
        <time>2020-10-19T08:19:21Z</time>
      </trkpt>
      <trkpt lat="42.8157270" lon="-7.6706580">
        <ele>530.6</ele>
        <time>2020-10-19T08:19:22Z</time>
      </trkpt>
      <trkpt lat="42.8157330" lon="-7.6706720">
        <ele>530.5</ele>
        <time>2020-10-19T08:19:23Z</time>
      </trkpt>
      <trkpt lat="42.8157390" lon="-7.6706870">
        <ele>530.5</ele>
        <time>2020-10-19T08:19:24Z</time>
      </trkpt>
      <trkpt lat="42.8157450" lon="-7.6707000">
        <ele>530.5</ele>
        <time>2020-10-19T08:19:25Z</time>
      </trkpt>
      <trkpt lat="42.8157500" lon="-7.6707110">
        <ele>530.5</ele>
        <time>2020-10-19T08:19:26Z</time>
      </trkpt>
      <trkpt lat="42.8157540" lon="-7.6707220">
        <ele>530.5</ele>
        <time>2020-10-19T08:19:27Z</time>
      </trkpt>
      <trkpt lat="42.8157580" lon="-7.6707330">
        <ele>530.4</ele>
        <time>2020-10-19T08:19:28Z</time>
      </trkpt>
      <trkpt lat="42.8157630" lon="-7.6707440">
        <ele>530.4</ele>
        <time>2020-10-19T08:19:29Z</time>
      </trkpt>
      <trkpt lat="42.8157670" lon="-7.6707540">
        <ele>530.4</ele>
        <time>2020-10-19T08:19:30Z</time>
      </trkpt>
      <trkpt lat="42.8157710" lon="-7.6707640">
        <ele>530.4</ele>
        <time>2020-10-19T08:19:31Z</time>
      </trkpt>
      <trkpt lat="42.8157730" lon="-7.6707730">
        <ele>530.4</ele>
        <time>2020-10-19T08:19:32Z</time>
      </trkpt>
      <trkpt lat="42.8157760" lon="-7.6707810">
        <ele>530.4</ele>
        <time>2020-10-19T08:19:33Z</time>
      </trkpt>
      <trkpt lat="42.8157800" lon="-7.6707890">
        <ele>530.4</ele>
        <time>2020-10-19T08:19:34Z</time>
      </trkpt>
      <trkpt lat="42.8157820" lon="-7.6707990">
        <ele>530.4</ele>
        <time>2020-10-19T08:19:35Z</time>
      </trkpt>
      <trkpt lat="42.8157850" lon="-7.6708100">
        <ele>530.4</ele>
        <time>2020-10-19T08:19:36Z</time>
      </trkpt>
      <trkpt lat="42.8157890" lon="-7.6708220">
        <ele>530.3</ele>
        <time>2020-10-19T08:19:37Z</time>
      </trkpt>
      <trkpt lat="42.8157980" lon="-7.6708370">
        <ele>530.3</ele>
        <time>2020-10-19T08:19:38Z</time>
      </trkpt>
      <trkpt lat="42.8158100" lon="-7.6708540">
        <ele>530.3</ele>
        <time>2020-10-19T08:19:39Z</time>
      </trkpt>
      <trkpt lat="42.8158220" lon="-7.6708700">
        <ele>530.3</ele>
        <time>2020-10-19T08:19:40Z</time>
      </trkpt>
      <trkpt lat="42.8158310" lon="-7.6708860">
        <ele>530.3</ele>
        <time>2020-10-19T08:19:41Z</time>
      </trkpt>
      <trkpt lat="42.8158360" lon="-7.6709000">
        <ele>530.3</ele>
        <time>2020-10-19T08:19:42Z</time>
      </trkpt>
      <trkpt lat="42.8158400" lon="-7.6709160">
        <ele>530.3</ele>
        <time>2020-10-19T08:19:43Z</time>
      </trkpt>
      <trkpt lat="42.8158430" lon="-7.6709320">
        <ele>530.3</ele>
        <time>2020-10-19T08:19:44Z</time>
      </trkpt>
      <trkpt lat="42.8158490" lon="-7.6709490">
        <ele>530.3</ele>
        <time>2020-10-19T08:19:45Z</time>
      </trkpt>
      <trkpt lat="42.8158550" lon="-7.6709660">
        <ele>530.2</ele>
        <time>2020-10-19T08:19:46Z</time>
      </trkpt>
      <trkpt lat="42.8158620" lon="-7.6709810">
        <ele>530.2</ele>
        <time>2020-10-19T08:19:47Z</time>
      </trkpt>
      <trkpt lat="42.8158660" lon="-7.6709950">
        <ele>530.2</ele>
        <time>2020-10-19T08:19:48Z</time>
      </trkpt>
      <trkpt lat="42.8158700" lon="-7.6710110">
        <ele>530.2</ele>
        <time>2020-10-19T08:19:49Z</time>
      </trkpt>
      <trkpt lat="42.8158720" lon="-7.6710240">
        <ele>530.2</ele>
        <time>2020-10-19T08:19:50Z</time>
      </trkpt>
      <trkpt lat="42.8158760" lon="-7.6710380">
        <ele>530.2</ele>
        <time>2020-10-19T08:19:51Z</time>
      </trkpt>
      <trkpt lat="42.8158790" lon="-7.6710510">
        <ele>530.2</ele>
        <time>2020-10-19T08:19:52Z</time>
      </trkpt>
      <trkpt lat="42.8158820" lon="-7.6710660">
        <ele>530.2</ele>
        <time>2020-10-19T08:19:53Z</time>
      </trkpt>
      <trkpt lat="42.8158880" lon="-7.6710800">
        <ele>530.2</ele>
        <time>2020-10-19T08:19:54Z</time>
      </trkpt>
      <trkpt lat="42.8158930" lon="-7.6710950">
        <ele>530.2</ele>
        <time>2020-10-19T08:19:55Z</time>
      </trkpt>
      <trkpt lat="42.8158980" lon="-7.6711100">
        <ele>530.2</ele>
        <time>2020-10-19T08:19:56Z</time>
      </trkpt>
      <trkpt lat="42.8159010" lon="-7.6711230">
        <ele>530.2</ele>
        <time>2020-10-19T08:19:57Z</time>
      </trkpt>
      <trkpt lat="42.8159040" lon="-7.6711360">
        <ele>530.2</ele>
        <time>2020-10-19T08:19:58Z</time>
      </trkpt>
      <trkpt lat="42.8159080" lon="-7.6711480">
        <ele>530.1</ele>
        <time>2020-10-19T08:19:59Z</time>
      </trkpt>
      <trkpt lat="42.8159130" lon="-7.6711610">
        <ele>530.1</ele>
        <time>2020-10-19T08:20:00Z</time>
      </trkpt>
      <trkpt lat="42.8159170" lon="-7.6711740">
        <ele>530.1</ele>
        <time>2020-10-19T08:20:01Z</time>
      </trkpt>
      <trkpt lat="42.8159220" lon="-7.6711870">
        <ele>530.1</ele>
        <time>2020-10-19T08:20:02Z</time>
      </trkpt>
      <trkpt lat="42.8159270" lon="-7.6711990">
        <ele>530.1</ele>
        <time>2020-10-19T08:20:03Z</time>
      </trkpt>
      <trkpt lat="42.8159320" lon="-7.6712100">
        <ele>530.1</ele>
        <time>2020-10-19T08:20:04Z</time>
      </trkpt>
      <trkpt lat="42.8159360" lon="-7.6712220">
        <ele>530.1</ele>
        <time>2020-10-19T08:20:05Z</time>
      </trkpt>
      <trkpt lat="42.8159400" lon="-7.6712350">
        <ele>530.1</ele>
        <time>2020-10-19T08:20:06Z</time>
      </trkpt>
      <trkpt lat="42.8159460" lon="-7.6712520">
        <ele>530.1</ele>
        <time>2020-10-19T08:20:07Z</time>
      </trkpt>
      <trkpt lat="42.8159550" lon="-7.6712740">
        <ele>530.1</ele>
        <time>2020-10-19T08:20:08Z</time>
      </trkpt>
      <trkpt lat="42.8159670" lon="-7.6712970">
        <ele>530.2</ele>
        <time>2020-10-19T08:20:09Z</time>
      </trkpt>
      <trkpt lat="42.8159780" lon="-7.6713200">
        <ele>530.2</ele>
        <time>2020-10-19T08:20:10Z</time>
      </trkpt>
      <trkpt lat="42.8159880" lon="-7.6713450">
        <ele>530.2</ele>
        <time>2020-10-19T08:20:11Z</time>
      </trkpt>
      <trkpt lat="42.8159970" lon="-7.6713670">
        <ele>530.2</ele>
        <time>2020-10-19T08:20:12Z</time>
      </trkpt>
      <trkpt lat="42.8160060" lon="-7.6713860">
        <ele>530.2</ele>
        <time>2020-10-19T08:20:13Z</time>
      </trkpt>
      <trkpt lat="42.8160130" lon="-7.6713980">
        <ele>530.2</ele>
        <time>2020-10-19T08:20:14Z</time>
      </trkpt>
      <trkpt lat="42.8160230" lon="-7.6714110">
        <ele>530.2</ele>
        <time>2020-10-19T08:20:15Z</time>
      </trkpt>
      <trkpt lat="42.8160330" lon="-7.6714250">
        <ele>530.3</ele>
        <time>2020-10-19T08:20:16Z</time>
      </trkpt>
      <trkpt lat="42.8160420" lon="-7.6714400">
        <ele>530.3</ele>
        <time>2020-10-19T08:20:17Z</time>
      </trkpt>
      <trkpt lat="42.8160500" lon="-7.6714540">
        <ele>530.3</ele>
        <time>2020-10-19T08:20:18Z</time>
      </trkpt>
      <trkpt lat="42.8160560" lon="-7.6714680">
        <ele>530.3</ele>
        <time>2020-10-19T08:20:19Z</time>
      </trkpt>
      <trkpt lat="42.8160630" lon="-7.6714810">
        <ele>530.3</ele>
        <time>2020-10-19T08:20:20Z</time>
      </trkpt>
      <trkpt lat="42.8160690" lon="-7.6714940">
        <ele>530.3</ele>
        <time>2020-10-19T08:20:21Z</time>
      </trkpt>
      <trkpt lat="42.8160740" lon="-7.6715060">
        <ele>530.3</ele>
        <time>2020-10-19T08:20:22Z</time>
      </trkpt>
      <trkpt lat="42.8160790" lon="-7.6715190">
        <ele>530.3</ele>
        <time>2020-10-19T08:20:23Z</time>
      </trkpt>
      <trkpt lat="42.8160830" lon="-7.6715350">
        <ele>530.4</ele>
        <time>2020-10-19T08:20:24Z</time>
      </trkpt>
      <trkpt lat="42.8160870" lon="-7.6715510">
        <ele>530.4</ele>
        <time>2020-10-19T08:20:25Z</time>
      </trkpt>
      <trkpt lat="42.8160910" lon="-7.6715660">
        <ele>530.4</ele>
        <time>2020-10-19T08:20:26Z</time>
      </trkpt>
      <trkpt lat="42.8160950" lon="-7.6715780">
        <ele>530.4</ele>
        <time>2020-10-19T08:20:27Z</time>
      </trkpt>
      <trkpt lat="42.8160990" lon="-7.6715910">
        <ele>530.4</ele>
        <time>2020-10-19T08:20:28Z</time>
      </trkpt>
      <trkpt lat="42.8161020" lon="-7.6716050">
        <ele>530.4</ele>
        <time>2020-10-19T08:20:29Z</time>
      </trkpt>
      <trkpt lat="42.8161050" lon="-7.6716170">
        <ele>530.4</ele>
        <time>2020-10-19T08:20:30Z</time>
      </trkpt>
      <trkpt lat="42.8161090" lon="-7.6716280">
        <ele>530.4</ele>
        <time>2020-10-19T08:20:31Z</time>
      </trkpt>
      <trkpt lat="42.8161130" lon="-7.6716400">
        <ele>530.4</ele>
        <time>2020-10-19T08:20:32Z</time>
      </trkpt>
      <trkpt lat="42.8161180" lon="-7.6716550">
        <ele>530.4</ele>
        <time>2020-10-19T08:20:33Z</time>
      </trkpt>
      <trkpt lat="42.8161220" lon="-7.6716700">
        <ele>530.4</ele>
        <time>2020-10-19T08:20:34Z</time>
      </trkpt>
      <trkpt lat="42.8161270" lon="-7.6716840">
        <ele>530.4</ele>
        <time>2020-10-19T08:20:35Z</time>
      </trkpt>
      <trkpt lat="42.8161310" lon="-7.6716970">
        <ele>530.4</ele>
        <time>2020-10-19T08:20:36Z</time>
      </trkpt>
      <trkpt lat="42.8161330" lon="-7.6717100">
        <ele>530.4</ele>
        <time>2020-10-19T08:20:37Z</time>
      </trkpt>
      <trkpt lat="42.8161350" lon="-7.6717220">
        <ele>530.4</ele>
        <time>2020-10-19T08:20:38Z</time>
      </trkpt>
      <trkpt lat="42.8161360" lon="-7.6717310">
        <ele>530.4</ele>
        <time>2020-10-19T08:20:39Z</time>
      </trkpt>
      <trkpt lat="42.8161370" lon="-7.6717400">
        <ele>530.4</ele>
        <time>2020-10-19T08:20:40Z</time>
      </trkpt>
      <trkpt lat="42.8161380" lon="-7.6717470">
        <ele>530.4</ele>
        <time>2020-10-19T08:20:41Z</time>
      </trkpt>
      <trkpt lat="42.8161410" lon="-7.6717550">
        <ele>530.4</ele>
        <time>2020-10-19T08:20:42Z</time>
      </trkpt>
      <trkpt lat="42.8161440" lon="-7.6717660">
        <ele>530.4</ele>
        <time>2020-10-19T08:20:43Z</time>
      </trkpt>
      <trkpt lat="42.8161470" lon="-7.6717770">
        <ele>530.4</ele>
        <time>2020-10-19T08:20:44Z</time>
      </trkpt>
      <trkpt lat="42.8161480" lon="-7.6717890">
        <ele>530.5</ele>
        <time>2020-10-19T08:20:45Z</time>
      </trkpt>
      <trkpt lat="42.8161500" lon="-7.6718010">
        <ele>530.5</ele>
        <time>2020-10-19T08:20:46Z</time>
      </trkpt>
      <trkpt lat="42.8161520" lon="-7.6718130">
        <ele>530.5</ele>
        <time>2020-10-19T08:20:47Z</time>
      </trkpt>
      <trkpt lat="42.8161530" lon="-7.6718220">
        <ele>530.5</ele>
        <time>2020-10-19T08:20:48Z</time>
      </trkpt>
      <trkpt lat="42.8161540" lon="-7.6718300">
        <ele>530.5</ele>
        <time>2020-10-19T08:20:49Z</time>
      </trkpt>
      <trkpt lat="42.8161550" lon="-7.6718380">
        <ele>530.5</ele>
        <time>2020-10-19T08:20:50Z</time>
      </trkpt>
      <trkpt lat="42.8161560" lon="-7.6718490">
        <ele>530.5</ele>
        <time>2020-10-19T08:20:51Z</time>
      </trkpt>
      <trkpt lat="42.8161580" lon="-7.6718620">
        <ele>530.5</ele>
        <time>2020-10-19T08:20:52Z</time>
      </trkpt>
      <trkpt lat="42.8161590" lon="-7.6718770">
        <ele>530.5</ele>
        <time>2020-10-19T08:20:53Z</time>
      </trkpt>
      <trkpt lat="42.8161630" lon="-7.6718900">
        <ele>530.5</ele>
        <time>2020-10-19T08:20:54Z</time>
      </trkpt>
      <trkpt lat="42.8161680" lon="-7.6719030">
        <ele>530.5</ele>
        <time>2020-10-19T08:20:55Z</time>
      </trkpt>
      <trkpt lat="42.8161730" lon="-7.6719140">
        <ele>530.5</ele>
        <time>2020-10-19T08:20:56Z</time>
      </trkpt>
      <trkpt lat="42.8161780" lon="-7.6719260">
        <ele>530.5</ele>
        <time>2020-10-19T08:20:57Z</time>
      </trkpt>
      <trkpt lat="42.8161830" lon="-7.6719370">
        <ele>530.5</ele>
        <time>2020-10-19T08:20:58Z</time>
      </trkpt>
      <trkpt lat="42.8161870" lon="-7.6719500">
        <ele>530.5</ele>
        <time>2020-10-19T08:20:59Z</time>
      </trkpt>
      <trkpt lat="42.8161900" lon="-7.6719610">
        <ele>530.5</ele>
        <time>2020-10-19T08:21:00Z</time>
      </trkpt>
      <trkpt lat="42.8161930" lon="-7.6719750">
        <ele>530.5</ele>
        <time>2020-10-19T08:21:01Z</time>
      </trkpt>
      <trkpt lat="42.8161950" lon="-7.6719900">
        <ele>530.5</ele>
        <time>2020-10-19T08:21:02Z</time>
      </trkpt>
      <trkpt lat="42.8161970" lon="-7.6720070">
        <ele>530.5</ele>
        <time>2020-10-19T08:21:03Z</time>
      </trkpt>
      <trkpt lat="42.8161990" lon="-7.6720220">
        <ele>530.5</ele>
        <time>2020-10-19T08:21:04Z</time>
      </trkpt>
      <trkpt lat="42.8162020" lon="-7.6720370">
        <ele>530.5</ele>
        <time>2020-10-19T08:21:05Z</time>
      </trkpt>
      <trkpt lat="42.8162050" lon="-7.6720490">
        <ele>530.5</ele>
        <time>2020-10-19T08:21:06Z</time>
      </trkpt>
      <trkpt lat="42.8162090" lon="-7.6720630">
        <ele>530.5</ele>
        <time>2020-10-19T08:21:07Z</time>
      </trkpt>
      <trkpt lat="42.8162100" lon="-7.6720780">
        <ele>530.5</ele>
        <time>2020-10-19T08:21:08Z</time>
      </trkpt>
      <trkpt lat="42.8162110" lon="-7.6720940">
        <ele>530.6</ele>
        <time>2020-10-19T08:21:09Z</time>
      </trkpt>
      <trkpt lat="42.8162100" lon="-7.6721090">
        <ele>530.6</ele>
        <time>2020-10-19T08:21:10Z</time>
      </trkpt>
      <trkpt lat="42.8162100" lon="-7.6721220">
        <ele>530.6</ele>
        <time>2020-10-19T08:21:11Z</time>
      </trkpt>
      <trkpt lat="42.8162110" lon="-7.6721340">
        <ele>530.6</ele>
        <time>2020-10-19T08:21:12Z</time>
      </trkpt>
      <trkpt lat="42.8162120" lon="-7.6721470">
        <ele>530.6</ele>
        <time>2020-10-19T08:21:13Z</time>
      </trkpt>
      <trkpt lat="42.8162130" lon="-7.6721600">
        <ele>530.6</ele>
        <time>2020-10-19T08:21:14Z</time>
      </trkpt>
      <trkpt lat="42.8162140" lon="-7.6721750">
        <ele>530.6</ele>
        <time>2020-10-19T08:21:15Z</time>
      </trkpt>
      <trkpt lat="42.8162140" lon="-7.6721890">
        <ele>530.6</ele>
        <time>2020-10-19T08:21:16Z</time>
      </trkpt>
      <trkpt lat="42.8162150" lon="-7.6722030">
        <ele>530.6</ele>
        <time>2020-10-19T08:21:17Z</time>
      </trkpt>
      <trkpt lat="42.8162160" lon="-7.6722190">
        <ele>530.6</ele>
        <time>2020-10-19T08:21:18Z</time>
      </trkpt>
      <trkpt lat="42.8162160" lon="-7.6722340">
        <ele>530.7</ele>
        <time>2020-10-19T08:21:19Z</time>
      </trkpt>
      <trkpt lat="42.8162150" lon="-7.6722500">
        <ele>530.7</ele>
        <time>2020-10-19T08:21:20Z</time>
      </trkpt>
      <trkpt lat="42.8162140" lon="-7.6722640">
        <ele>530.7</ele>
        <time>2020-10-19T08:21:21Z</time>
      </trkpt>
      <trkpt lat="42.8162160" lon="-7.6722790">
        <ele>530.7</ele>
        <time>2020-10-19T08:21:22Z</time>
      </trkpt>
      <trkpt lat="42.8162180" lon="-7.6722920">
        <ele>530.7</ele>
        <time>2020-10-19T08:21:23Z</time>
      </trkpt>
      <trkpt lat="42.8162180" lon="-7.6723040">
        <ele>530.7</ele>
        <time>2020-10-19T08:21:24Z</time>
      </trkpt>
      <trkpt lat="42.8162170" lon="-7.6723190">
        <ele>530.7</ele>
        <time>2020-10-19T08:21:25Z</time>
      </trkpt>
      <trkpt lat="42.8162190" lon="-7.6723320">
        <ele>530.8</ele>
        <time>2020-10-19T08:21:26Z</time>
      </trkpt>
      <trkpt lat="42.8162210" lon="-7.6723450">
        <ele>530.8</ele>
        <time>2020-10-19T08:21:27Z</time>
      </trkpt>
      <trkpt lat="42.8162240" lon="-7.6723560">
        <ele>530.8</ele>
        <time>2020-10-19T08:21:28Z</time>
      </trkpt>
      <trkpt lat="42.8162260" lon="-7.6723720">
        <ele>530.8</ele>
        <time>2020-10-19T08:21:29Z</time>
      </trkpt>
      <trkpt lat="42.8162290" lon="-7.6723910">
        <ele>530.8</ele>
        <time>2020-10-19T08:21:30Z</time>
      </trkpt>
      <trkpt lat="42.8162310" lon="-7.6724080">
        <ele>530.9</ele>
        <time>2020-10-19T08:21:31Z</time>
      </trkpt>
      <trkpt lat="42.8162340" lon="-7.6724230">
        <ele>530.9</ele>
        <time>2020-10-19T08:21:32Z</time>
      </trkpt>
      <trkpt lat="42.8162360" lon="-7.6724370">
        <ele>530.9</ele>
        <time>2020-10-19T08:21:33Z</time>
      </trkpt>
      <trkpt lat="42.8162400" lon="-7.6724530">
        <ele>531.0</ele>
        <time>2020-10-19T08:21:34Z</time>
      </trkpt>
      <trkpt lat="42.8162410" lon="-7.6724680">
        <ele>531.0</ele>
        <time>2020-10-19T08:21:35Z</time>
      </trkpt>
      <trkpt lat="42.8162430" lon="-7.6724830">
        <ele>531.0</ele>
        <time>2020-10-19T08:21:36Z</time>
      </trkpt>
      <trkpt lat="42.8162440" lon="-7.6724980">
        <ele>531.1</ele>
        <time>2020-10-19T08:21:37Z</time>
      </trkpt>
      <trkpt lat="42.8162480" lon="-7.6725120">
        <ele>531.1</ele>
        <time>2020-10-19T08:21:38Z</time>
      </trkpt>
      <trkpt lat="42.8162520" lon="-7.6725280">
        <ele>531.1</ele>
        <time>2020-10-19T08:21:39Z</time>
      </trkpt>
      <trkpt lat="42.8162560" lon="-7.6725440">
        <ele>531.2</ele>
        <time>2020-10-19T08:21:40Z</time>
      </trkpt>
      <trkpt lat="42.8162580" lon="-7.6725610">
        <ele>531.2</ele>
        <time>2020-10-19T08:21:41Z</time>
      </trkpt>
      <trkpt lat="42.8162590" lon="-7.6725780">
        <ele>531.2</ele>
        <time>2020-10-19T08:21:42Z</time>
      </trkpt>
      <trkpt lat="42.8162590" lon="-7.6725940">
        <ele>531.3</ele>
        <time>2020-10-19T08:21:43Z</time>
      </trkpt>
      <trkpt lat="42.8162570" lon="-7.6726080">
        <ele>531.3</ele>
        <time>2020-10-19T08:21:44Z</time>
      </trkpt>
      <trkpt lat="42.8162570" lon="-7.6726210">
        <ele>531.4</ele>
        <time>2020-10-19T08:21:45Z</time>
      </trkpt>
      <trkpt lat="42.8162580" lon="-7.6726340">
        <ele>531.4</ele>
        <time>2020-10-19T08:21:46Z</time>
      </trkpt>
      <trkpt lat="42.8162580" lon="-7.6726450">
        <ele>531.4</ele>
        <time>2020-10-19T08:21:47Z</time>
      </trkpt>
      <trkpt lat="42.8162600" lon="-7.6726580">
        <ele>531.5</ele>
        <time>2020-10-19T08:21:48Z</time>
      </trkpt>
      <trkpt lat="42.8162650" lon="-7.6726720">
        <ele>531.5</ele>
        <time>2020-10-19T08:21:49Z</time>
      </trkpt>
      <trkpt lat="42.8162710" lon="-7.6726860">
        <ele>531.5</ele>
        <time>2020-10-19T08:21:50Z</time>
      </trkpt>
      <trkpt lat="42.8162750" lon="-7.6726980">
        <ele>531.6</ele>
        <time>2020-10-19T08:21:51Z</time>
      </trkpt>
      <trkpt lat="42.8162780" lon="-7.6727080">
        <ele>531.6</ele>
        <time>2020-10-19T08:21:52Z</time>
      </trkpt>
      <trkpt lat="42.8162800" lon="-7.6727190">
        <ele>531.6</ele>
        <time>2020-10-19T08:21:53Z</time>
      </trkpt>
      <trkpt lat="42.8162810" lon="-7.6727330">
        <ele>531.7</ele>
        <time>2020-10-19T08:21:54Z</time>
      </trkpt>
      <trkpt lat="42.8162830" lon="-7.6727530">
        <ele>531.7</ele>
        <time>2020-10-19T08:21:55Z</time>
      </trkpt>
      <trkpt lat="42.8162840" lon="-7.6727740">
        <ele>531.8</ele>
        <time>2020-10-19T08:21:56Z</time>
      </trkpt>
      <trkpt lat="42.8162870" lon="-7.6727930">
        <ele>531.8</ele>
        <time>2020-10-19T08:21:57Z</time>
      </trkpt>
      <trkpt lat="42.8162890" lon="-7.6728110">
        <ele>531.9</ele>
        <time>2020-10-19T08:21:58Z</time>
      </trkpt>
      <trkpt lat="42.8162920" lon="-7.6728330">
        <ele>531.9</ele>
        <time>2020-10-19T08:21:59Z</time>
      </trkpt>
      <trkpt lat="42.8162940" lon="-7.6728540">
        <ele>532.0</ele>
        <time>2020-10-19T08:22:00Z</time>
      </trkpt>
      <trkpt lat="42.8162970" lon="-7.6728750">
        <ele>532.0</ele>
        <time>2020-10-19T08:22:01Z</time>
      </trkpt>
      <trkpt lat="42.8163000" lon="-7.6728920">
        <ele>532.1</ele>
        <time>2020-10-19T08:22:02Z</time>
      </trkpt>
      <trkpt lat="42.8163010" lon="-7.6729100">
        <ele>532.1</ele>
        <time>2020-10-19T08:22:03Z</time>
      </trkpt>
      <trkpt lat="42.8163030" lon="-7.6729270">
        <ele>532.1</ele>
        <time>2020-10-19T08:22:04Z</time>
      </trkpt>
      <trkpt lat="42.8163060" lon="-7.6729420">
        <ele>532.2</ele>
        <time>2020-10-19T08:22:05Z</time>
      </trkpt>
      <trkpt lat="42.8163120" lon="-7.6729580">
        <ele>532.2</ele>
        <time>2020-10-19T08:22:06Z</time>
      </trkpt>
      <trkpt lat="42.8163180" lon="-7.6729720">
        <ele>532.3</ele>
        <time>2020-10-19T08:22:07Z</time>
      </trkpt>
      <trkpt lat="42.8163220" lon="-7.6729850">
        <ele>532.3</ele>
        <time>2020-10-19T08:22:08Z</time>
      </trkpt>
      <trkpt lat="42.8163250" lon="-7.6729980">
        <ele>532.3</ele>
        <time>2020-10-19T08:22:09Z</time>
      </trkpt>
      <trkpt lat="42.8163280" lon="-7.6730100">
        <ele>532.4</ele>
        <time>2020-10-19T08:22:10Z</time>
      </trkpt>
      <trkpt lat="42.8163300" lon="-7.6730230">
        <ele>532.4</ele>
        <time>2020-10-19T08:22:11Z</time>
      </trkpt>
      <trkpt lat="42.8163300" lon="-7.6730350">
        <ele>532.4</ele>
        <time>2020-10-19T08:22:12Z</time>
      </trkpt>
      <trkpt lat="42.8163290" lon="-7.6730480">
        <ele>532.4</ele>
        <time>2020-10-19T08:22:13Z</time>
      </trkpt>
      <trkpt lat="42.8163310" lon="-7.6730610">
        <ele>532.5</ele>
        <time>2020-10-19T08:22:14Z</time>
      </trkpt>
      <trkpt lat="42.8163330" lon="-7.6730750">
        <ele>532.5</ele>
        <time>2020-10-19T08:22:15Z</time>
      </trkpt>
      <trkpt lat="42.8163350" lon="-7.6730890">
        <ele>532.5</ele>
        <time>2020-10-19T08:22:16Z</time>
      </trkpt>
      <trkpt lat="42.8163370" lon="-7.6731010">
        <ele>532.6</ele>
        <time>2020-10-19T08:22:17Z</time>
      </trkpt>
      <trkpt lat="42.8163380" lon="-7.6731130">
        <ele>532.6</ele>
        <time>2020-10-19T08:22:18Z</time>
      </trkpt>
      <trkpt lat="42.8163380" lon="-7.6731270">
        <ele>532.6</ele>
        <time>2020-10-19T08:22:19Z</time>
      </trkpt>
      <trkpt lat="42.8163350" lon="-7.6731410">
        <ele>532.7</ele>
        <time>2020-10-19T08:22:20Z</time>
      </trkpt>
      <trkpt lat="42.8163340" lon="-7.6731570">
        <ele>532.7</ele>
        <time>2020-10-19T08:22:21Z</time>
      </trkpt>
      <trkpt lat="42.8163350" lon="-7.6731720">
        <ele>532.7</ele>
        <time>2020-10-19T08:22:22Z</time>
      </trkpt>
      <trkpt lat="42.8163370" lon="-7.6731870">
        <ele>532.8</ele>
        <time>2020-10-19T08:22:23Z</time>
      </trkpt>
      <trkpt lat="42.8163390" lon="-7.6732030">
        <ele>532.8</ele>
        <time>2020-10-19T08:22:24Z</time>
      </trkpt>
      <trkpt lat="42.8163400" lon="-7.6732200">
        <ele>532.8</ele>
        <time>2020-10-19T08:22:25Z</time>
      </trkpt>
      <trkpt lat="42.8163430" lon="-7.6732350">
        <ele>532.9</ele>
        <time>2020-10-19T08:22:26Z</time>
      </trkpt>
      <trkpt lat="42.8163460" lon="-7.6732490">
        <ele>532.9</ele>
        <time>2020-10-19T08:22:27Z</time>
      </trkpt>
      <trkpt lat="42.8163470" lon="-7.6732620">
        <ele>532.9</ele>
        <time>2020-10-19T08:22:28Z</time>
      </trkpt>
      <trkpt lat="42.8163470" lon="-7.6732760">
        <ele>533.0</ele>
        <time>2020-10-19T08:22:29Z</time>
      </trkpt>
      <trkpt lat="42.8163460" lon="-7.6732900">
        <ele>533.0</ele>
        <time>2020-10-19T08:22:30Z</time>
      </trkpt>
      <trkpt lat="42.8163470" lon="-7.6733050">
        <ele>533.0</ele>
        <time>2020-10-19T08:22:31Z</time>
      </trkpt>
      <trkpt lat="42.8163480" lon="-7.6733200">
        <ele>533.1</ele>
        <time>2020-10-19T08:22:32Z</time>
      </trkpt>
      <trkpt lat="42.8163510" lon="-7.6733330">
        <ele>533.1</ele>
        <time>2020-10-19T08:22:33Z</time>
      </trkpt>
      <trkpt lat="42.8163510" lon="-7.6733470">
        <ele>533.1</ele>
        <time>2020-10-19T08:22:34Z</time>
      </trkpt>
      <trkpt lat="42.8163500" lon="-7.6733610">
        <ele>533.1</ele>
        <time>2020-10-19T08:22:35Z</time>
      </trkpt>
      <trkpt lat="42.8163480" lon="-7.6733770">
        <ele>533.2</ele>
        <time>2020-10-19T08:22:36Z</time>
      </trkpt>
      <trkpt lat="42.8163460" lon="-7.6733930">
        <ele>533.2</ele>
        <time>2020-10-19T08:22:37Z</time>
      </trkpt>
      <trkpt lat="42.8163460" lon="-7.6734070">
        <ele>533.2</ele>
        <time>2020-10-19T08:22:38Z</time>
      </trkpt>
      <trkpt lat="42.8163450" lon="-7.6734210">
        <ele>533.3</ele>
        <time>2020-10-19T08:22:39Z</time>
      </trkpt>
      <trkpt lat="42.8163460" lon="-7.6734320">
        <ele>533.3</ele>
        <time>2020-10-19T08:22:40Z</time>
      </trkpt>
      <trkpt lat="42.8163460" lon="-7.6734450">
        <ele>533.3</ele>
        <time>2020-10-19T08:22:41Z</time>
      </trkpt>
      <trkpt lat="42.8163440" lon="-7.6734640">
        <ele>533.4</ele>
        <time>2020-10-19T08:22:42Z</time>
      </trkpt>
      <trkpt lat="42.8163430" lon="-7.6734850">
        <ele>533.4</ele>
        <time>2020-10-19T08:22:43Z</time>
      </trkpt>
      <trkpt lat="42.8163430" lon="-7.6735050">
        <ele>533.5</ele>
        <time>2020-10-19T08:22:44Z</time>
      </trkpt>
      <trkpt lat="42.8163450" lon="-7.6735220">
        <ele>533.5</ele>
        <time>2020-10-19T08:22:45Z</time>
      </trkpt>
      <trkpt lat="42.8163470" lon="-7.6735400">
        <ele>533.5</ele>
        <time>2020-10-19T08:22:46Z</time>
      </trkpt>
      <trkpt lat="42.8163490" lon="-7.6735580">
        <ele>533.6</ele>
        <time>2020-10-19T08:22:47Z</time>
      </trkpt>
      <trkpt lat="42.8163500" lon="-7.6735750">
        <ele>533.6</ele>
        <time>2020-10-19T08:22:48Z</time>
      </trkpt>
      <trkpt lat="42.8163510" lon="-7.6735910">
        <ele>533.6</ele>
        <time>2020-10-19T08:22:49Z</time>
      </trkpt>
      <trkpt lat="42.8163510" lon="-7.6736080">
        <ele>533.7</ele>
        <time>2020-10-19T08:22:50Z</time>
      </trkpt>
      <trkpt lat="42.8163510" lon="-7.6736260">
        <ele>533.7</ele>
        <time>2020-10-19T08:22:51Z</time>
      </trkpt>
      <trkpt lat="42.8163510" lon="-7.6736430">
        <ele>533.8</ele>
        <time>2020-10-19T08:22:52Z</time>
      </trkpt>
      <trkpt lat="42.8163520" lon="-7.6736600">
        <ele>533.8</ele>
        <time>2020-10-19T08:22:53Z</time>
      </trkpt>
      <trkpt lat="42.8163530" lon="-7.6736750">
        <ele>533.9</ele>
        <time>2020-10-19T08:22:54Z</time>
      </trkpt>
      <trkpt lat="42.8163550" lon="-7.6736910">
        <ele>533.9</ele>
        <time>2020-10-19T08:22:55Z</time>
      </trkpt>
      <trkpt lat="42.8163570" lon="-7.6737080">
        <ele>533.9</ele>
        <time>2020-10-19T08:22:56Z</time>
      </trkpt>
      <trkpt lat="42.8163600" lon="-7.6737240">
        <ele>534.0</ele>
        <time>2020-10-19T08:22:57Z</time>
      </trkpt>
      <trkpt lat="42.8163640" lon="-7.6737400">
        <ele>534.0</ele>
        <time>2020-10-19T08:22:58Z</time>
      </trkpt>
      <trkpt lat="42.8163680" lon="-7.6737550">
        <ele>534.1</ele>
        <time>2020-10-19T08:22:59Z</time>
      </trkpt>
      <trkpt lat="42.8163730" lon="-7.6737690">
        <ele>534.1</ele>
        <time>2020-10-19T08:23:00Z</time>
      </trkpt>
      <trkpt lat="42.8163790" lon="-7.6737840">
        <ele>534.1</ele>
        <time>2020-10-19T08:23:01Z</time>
      </trkpt>
      <trkpt lat="42.8163850" lon="-7.6738010">
        <ele>534.2</ele>
        <time>2020-10-19T08:23:02Z</time>
      </trkpt>
      <trkpt lat="42.8163900" lon="-7.6738160">
        <ele>534.2</ele>
        <time>2020-10-19T08:23:03Z</time>
      </trkpt>
      <trkpt lat="42.8163950" lon="-7.6738300">
        <ele>534.3</ele>
        <time>2020-10-19T08:23:04Z</time>
      </trkpt>
      <trkpt lat="42.8164000" lon="-7.6738430">
        <ele>534.3</ele>
        <time>2020-10-19T08:23:05Z</time>
      </trkpt>
      <trkpt lat="42.8164050" lon="-7.6738580">
        <ele>534.3</ele>
        <time>2020-10-19T08:23:06Z</time>
      </trkpt>
      <trkpt lat="42.8164100" lon="-7.6738730">
        <ele>534.4</ele>
        <time>2020-10-19T08:23:07Z</time>
      </trkpt>
      <trkpt lat="42.8164150" lon="-7.6738900">
        <ele>534.4</ele>
        <time>2020-10-19T08:23:08Z</time>
      </trkpt>
      <trkpt lat="42.8164190" lon="-7.6739060">
        <ele>534.5</ele>
        <time>2020-10-19T08:23:09Z</time>
      </trkpt>
      <trkpt lat="42.8164240" lon="-7.6739200">
        <ele>534.5</ele>
        <time>2020-10-19T08:23:10Z</time>
      </trkpt>
      <trkpt lat="42.8164290" lon="-7.6739330">
        <ele>534.6</ele>
        <time>2020-10-19T08:23:11Z</time>
      </trkpt>
      <trkpt lat="42.8164330" lon="-7.6739460">
        <ele>534.6</ele>
        <time>2020-10-19T08:23:12Z</time>
      </trkpt>
      <trkpt lat="42.8164380" lon="-7.6739610">
        <ele>534.6</ele>
        <time>2020-10-19T08:23:13Z</time>
      </trkpt>
      <trkpt lat="42.8164420" lon="-7.6739760">
        <ele>534.7</ele>
        <time>2020-10-19T08:23:14Z</time>
      </trkpt>
      <trkpt lat="42.8164450" lon="-7.6739900">
        <ele>534.7</ele>
        <time>2020-10-19T08:23:15Z</time>
      </trkpt>
      <trkpt lat="42.8164480" lon="-7.6740020">
        <ele>534.7</ele>
        <time>2020-10-19T08:23:16Z</time>
      </trkpt>
      <trkpt lat="42.8164520" lon="-7.6740130">
        <ele>534.8</ele>
        <time>2020-10-19T08:23:17Z</time>
      </trkpt>
      <trkpt lat="42.8164550" lon="-7.6740260">
        <ele>534.8</ele>
        <time>2020-10-19T08:23:18Z</time>
      </trkpt>
      <trkpt lat="42.8164570" lon="-7.6740390">
        <ele>534.8</ele>
        <time>2020-10-19T08:23:19Z</time>
      </trkpt>
      <trkpt lat="42.8164590" lon="-7.6740520">
        <ele>534.9</ele>
        <time>2020-10-19T08:23:20Z</time>
      </trkpt>
      <trkpt lat="42.8164630" lon="-7.6740650">
        <ele>534.9</ele>
        <time>2020-10-19T08:23:21Z</time>
      </trkpt>
      <trkpt lat="42.8164700" lon="-7.6740770">
        <ele>534.9</ele>
        <time>2020-10-19T08:23:22Z</time>
      </trkpt>
      <trkpt lat="42.8164760" lon="-7.6740880">
        <ele>535.0</ele>
        <time>2020-10-19T08:23:23Z</time>
      </trkpt>
      <trkpt lat="42.8164820" lon="-7.6741000">
        <ele>535.0</ele>
        <time>2020-10-19T08:23:24Z</time>
      </trkpt>
      <trkpt lat="42.8164880" lon="-7.6741130">
        <ele>535.1</ele>
        <time>2020-10-19T08:23:25Z</time>
      </trkpt>
      <trkpt lat="42.8164950" lon="-7.6741260">
        <ele>535.1</ele>
        <time>2020-10-19T08:23:26Z</time>
      </trkpt>
      <trkpt lat="42.8165020" lon="-7.6741390">
        <ele>535.1</ele>
        <time>2020-10-19T08:23:27Z</time>
      </trkpt>
      <trkpt lat="42.8165100" lon="-7.6741510">
        <ele>535.2</ele>
        <time>2020-10-19T08:23:28Z</time>
      </trkpt>
      <trkpt lat="42.8165190" lon="-7.6741630">
        <ele>535.2</ele>
        <time>2020-10-19T08:23:29Z</time>
      </trkpt>
      <trkpt lat="42.8165270" lon="-7.6741750">
        <ele>535.3</ele>
        <time>2020-10-19T08:23:30Z</time>
      </trkpt>
      <trkpt lat="42.8165340" lon="-7.6741860">
        <ele>535.3</ele>
        <time>2020-10-19T08:23:31Z</time>
      </trkpt>
      <trkpt lat="42.8165410" lon="-7.6741980">
        <ele>535.3</ele>
        <time>2020-10-19T08:23:32Z</time>
      </trkpt>
      <trkpt lat="42.8165480" lon="-7.6742090">
        <ele>535.4</ele>
        <time>2020-10-19T08:23:33Z</time>
      </trkpt>
      <trkpt lat="42.8165550" lon="-7.6742210">
        <ele>535.4</ele>
        <time>2020-10-19T08:23:34Z</time>
      </trkpt>
      <trkpt lat="42.8165620" lon="-7.6742330">
        <ele>535.4</ele>
        <time>2020-10-19T08:23:35Z</time>
      </trkpt>
      <trkpt lat="42.8165680" lon="-7.6742440">
        <ele>535.5</ele>
        <time>2020-10-19T08:23:36Z</time>
      </trkpt>
      <trkpt lat="42.8165740" lon="-7.6742550">
        <ele>535.5</ele>
        <time>2020-10-19T08:23:37Z</time>
      </trkpt>
      <trkpt lat="42.8165810" lon="-7.6742650">
        <ele>535.5</ele>
        <time>2020-10-19T08:23:38Z</time>
      </trkpt>
      <trkpt lat="42.8165890" lon="-7.6742760">
        <ele>535.6</ele>
        <time>2020-10-19T08:23:39Z</time>
      </trkpt>
      <trkpt lat="42.8165970" lon="-7.6742860">
        <ele>535.6</ele>
        <time>2020-10-19T08:23:40Z</time>
      </trkpt>
      <trkpt lat="42.8166050" lon="-7.6742980">
        <ele>535.6</ele>
        <time>2020-10-19T08:23:41Z</time>
      </trkpt>
      <trkpt lat="42.8166130" lon="-7.6743090">
        <ele>535.7</ele>
        <time>2020-10-19T08:23:42Z</time>
      </trkpt>
      <trkpt lat="42.8166200" lon="-7.6743190">
        <ele>535.7</ele>
        <time>2020-10-19T08:23:43Z</time>
      </trkpt>
      <trkpt lat="42.8166280" lon="-7.6743300">
        <ele>535.7</ele>
        <time>2020-10-19T08:23:44Z</time>
      </trkpt>
      <trkpt lat="42.8166350" lon="-7.6743420">
        <ele>535.7</ele>
        <time>2020-10-19T08:23:45Z</time>
      </trkpt>
      <trkpt lat="42.8166430" lon="-7.6743540">
        <ele>535.8</ele>
        <time>2020-10-19T08:23:46Z</time>
      </trkpt>
      <trkpt lat="42.8166500" lon="-7.6743640">
        <ele>535.8</ele>
        <time>2020-10-19T08:23:47Z</time>
      </trkpt>
      <trkpt lat="42.8166590" lon="-7.6743720">
        <ele>535.8</ele>
        <time>2020-10-19T08:23:48Z</time>
      </trkpt>
      <trkpt lat="42.8166670" lon="-7.6743830">
        <ele>535.8</ele>
        <time>2020-10-19T08:23:49Z</time>
      </trkpt>
      <trkpt lat="42.8166750" lon="-7.6743940">
        <ele>535.9</ele>
        <time>2020-10-19T08:23:50Z</time>
      </trkpt>
      <trkpt lat="42.8166830" lon="-7.6744050">
        <ele>535.9</ele>
        <time>2020-10-19T08:23:51Z</time>
      </trkpt>
      <trkpt lat="42.8166910" lon="-7.6744150">
        <ele>535.9</ele>
        <time>2020-10-19T08:23:52Z</time>
      </trkpt>
      <trkpt lat="42.8167000" lon="-7.6744260">
        <ele>535.9</ele>
        <time>2020-10-19T08:23:53Z</time>
      </trkpt>
      <trkpt lat="42.8167090" lon="-7.6744360">
        <ele>536.0</ele>
        <time>2020-10-19T08:23:54Z</time>
      </trkpt>
      <trkpt lat="42.8167180" lon="-7.6744470">
        <ele>536.0</ele>
        <time>2020-10-19T08:23:55Z</time>
      </trkpt>
      <trkpt lat="42.8167250" lon="-7.6744590">
        <ele>536.0</ele>
        <time>2020-10-19T08:23:56Z</time>
      </trkpt>
      <trkpt lat="42.8167320" lon="-7.6744710">
        <ele>536.0</ele>
        <time>2020-10-19T08:23:57Z</time>
      </trkpt>
      <trkpt lat="42.8167390" lon="-7.6744810">
        <ele>536.1</ele>
        <time>2020-10-19T08:23:58Z</time>
      </trkpt>
      <trkpt lat="42.8167470" lon="-7.6744910">
        <ele>536.1</ele>
        <time>2020-10-19T08:23:59Z</time>
      </trkpt>
      <trkpt lat="42.8167560" lon="-7.6745010">
        <ele>536.1</ele>
        <time>2020-10-19T08:24:00Z</time>
      </trkpt>
      <trkpt lat="42.8167650" lon="-7.6745100">
        <ele>536.1</ele>
        <time>2020-10-19T08:24:01Z</time>
      </trkpt>
      <trkpt lat="42.8167740" lon="-7.6745210">
        <ele>536.1</ele>
        <time>2020-10-19T08:24:02Z</time>
      </trkpt>
      <trkpt lat="42.8167820" lon="-7.6745320">
        <ele>536.2</ele>
        <time>2020-10-19T08:24:03Z</time>
      </trkpt>
      <trkpt lat="42.8167910" lon="-7.6745430">
        <ele>536.2</ele>
        <time>2020-10-19T08:24:04Z</time>
      </trkpt>
      <trkpt lat="42.8167990" lon="-7.6745530">
        <ele>536.2</ele>
        <time>2020-10-19T08:24:05Z</time>
      </trkpt>
      <trkpt lat="42.8168080" lon="-7.6745630">
        <ele>536.2</ele>
        <time>2020-10-19T08:24:06Z</time>
      </trkpt>
      <trkpt lat="42.8168170" lon="-7.6745720">
        <ele>536.3</ele>
        <time>2020-10-19T08:24:07Z</time>
      </trkpt>
      <trkpt lat="42.8168250" lon="-7.6745810">
        <ele>536.3</ele>
        <time>2020-10-19T08:24:08Z</time>
      </trkpt>
      <trkpt lat="42.8168350" lon="-7.6745900">
        <ele>536.3</ele>
        <time>2020-10-19T08:24:09Z</time>
      </trkpt>
      <trkpt lat="42.8168440" lon="-7.6746000">
        <ele>536.3</ele>
        <time>2020-10-19T08:24:10Z</time>
      </trkpt>
      <trkpt lat="42.8168540" lon="-7.6746100">
        <ele>536.3</ele>
        <time>2020-10-19T08:24:11Z</time>
      </trkpt>
      <trkpt lat="42.8168640" lon="-7.6746220">
        <ele>536.4</ele>
        <time>2020-10-19T08:24:12Z</time>
      </trkpt>
      <trkpt lat="42.8168730" lon="-7.6746320">
        <ele>536.4</ele>
        <time>2020-10-19T08:24:13Z</time>
      </trkpt>
      <trkpt lat="42.8168820" lon="-7.6746420">
        <ele>536.4</ele>
        <time>2020-10-19T08:24:14Z</time>
      </trkpt>
      <trkpt lat="42.8168910" lon="-7.6746500">
        <ele>536.4</ele>
        <time>2020-10-19T08:24:15Z</time>
      </trkpt>
      <trkpt lat="42.8169000" lon="-7.6746590">
        <ele>536.4</ele>
        <time>2020-10-19T08:24:16Z</time>
      </trkpt>
      <trkpt lat="42.8169090" lon="-7.6746690">
        <ele>536.5</ele>
        <time>2020-10-19T08:24:17Z</time>
      </trkpt>
      <trkpt lat="42.8169190" lon="-7.6746780">
        <ele>536.5</ele>
        <time>2020-10-19T08:24:18Z</time>
      </trkpt>
      <trkpt lat="42.8169290" lon="-7.6746870">
        <ele>536.5</ele>
        <time>2020-10-19T08:24:19Z</time>
      </trkpt>
      <trkpt lat="42.8169380" lon="-7.6746960">
        <ele>536.5</ele>
        <time>2020-10-19T08:24:20Z</time>
      </trkpt>
      <trkpt lat="42.8169480" lon="-7.6747050">
        <ele>536.5</ele>
        <time>2020-10-19T08:24:21Z</time>
      </trkpt>
      <trkpt lat="42.8169580" lon="-7.6747150">
        <ele>536.6</ele>
        <time>2020-10-19T08:24:22Z</time>
      </trkpt>
      <trkpt lat="42.8169670" lon="-7.6747260">
        <ele>536.6</ele>
        <time>2020-10-19T08:24:23Z</time>
      </trkpt>
      <trkpt lat="42.8169770" lon="-7.6747370">
        <ele>536.6</ele>
        <time>2020-10-19T08:24:24Z</time>
      </trkpt>
      <trkpt lat="42.8169860" lon="-7.6747460">
        <ele>536.6</ele>
        <time>2020-10-19T08:24:25Z</time>
      </trkpt>
      <trkpt lat="42.8169970" lon="-7.6747550">
        <ele>536.6</ele>
        <time>2020-10-19T08:24:26Z</time>
      </trkpt>
      <trkpt lat="42.8170070" lon="-7.6747640">
        <ele>536.6</ele>
        <time>2020-10-19T08:24:27Z</time>
      </trkpt>
      <trkpt lat="42.8170180" lon="-7.6747730">
        <ele>536.6</ele>
        <time>2020-10-19T08:24:28Z</time>
      </trkpt>
      <trkpt lat="42.8170260" lon="-7.6747830">
        <ele>536.7</ele>
        <time>2020-10-19T08:24:29Z</time>
      </trkpt>
      <trkpt lat="42.8170350" lon="-7.6747950">
        <ele>536.7</ele>
        <time>2020-10-19T08:24:30Z</time>
      </trkpt>
      <trkpt lat="42.8170440" lon="-7.6748060">
        <ele>536.7</ele>
        <time>2020-10-19T08:24:31Z</time>
      </trkpt>
      <trkpt lat="42.8170530" lon="-7.6748170">
        <ele>536.7</ele>
        <time>2020-10-19T08:24:32Z</time>
      </trkpt>
      <trkpt lat="42.8170620" lon="-7.6748260">
        <ele>536.7</ele>
        <time>2020-10-19T08:24:33Z</time>
      </trkpt>
      <trkpt lat="42.8170700" lon="-7.6748360">
        <ele>536.7</ele>
        <time>2020-10-19T08:24:34Z</time>
      </trkpt>
      <trkpt lat="42.8170780" lon="-7.6748460">
        <ele>536.7</ele>
        <time>2020-10-19T08:24:35Z</time>
      </trkpt>
      <trkpt lat="42.8170860" lon="-7.6748570">
        <ele>536.7</ele>
        <time>2020-10-19T08:24:36Z</time>
      </trkpt>
      <trkpt lat="42.8170950" lon="-7.6748680">
        <ele>536.7</ele>
        <time>2020-10-19T08:24:37Z</time>
      </trkpt>
      <trkpt lat="42.8171040" lon="-7.6748800">
        <ele>536.7</ele>
        <time>2020-10-19T08:24:38Z</time>
      </trkpt>
      <trkpt lat="42.8171120" lon="-7.6748930">
        <ele>536.7</ele>
        <time>2020-10-19T08:24:39Z</time>
      </trkpt>
      <trkpt lat="42.8171220" lon="-7.6749060">
        <ele>536.7</ele>
        <time>2020-10-19T08:24:40Z</time>
      </trkpt>
      <trkpt lat="42.8171310" lon="-7.6749180">
        <ele>536.7</ele>
        <time>2020-10-19T08:24:41Z</time>
      </trkpt>
      <trkpt lat="42.8171400" lon="-7.6749290">
        <ele>536.7</ele>
        <time>2020-10-19T08:24:42Z</time>
      </trkpt>
      <trkpt lat="42.8171490" lon="-7.6749400">
        <ele>536.7</ele>
        <time>2020-10-19T08:24:43Z</time>
      </trkpt>
      <trkpt lat="42.8171590" lon="-7.6749500">
        <ele>536.7</ele>
        <time>2020-10-19T08:24:44Z</time>
      </trkpt>
      <trkpt lat="42.8171680" lon="-7.6749620">
        <ele>536.7</ele>
        <time>2020-10-19T08:24:45Z</time>
      </trkpt>
      <trkpt lat="42.8171760" lon="-7.6749720">
        <ele>536.7</ele>
        <time>2020-10-19T08:24:46Z</time>
      </trkpt>
      <trkpt lat="42.8171850" lon="-7.6749820">
        <ele>536.6</ele>
        <time>2020-10-19T08:24:47Z</time>
      </trkpt>
      <trkpt lat="42.8171940" lon="-7.6749920">
        <ele>536.6</ele>
        <time>2020-10-19T08:24:48Z</time>
      </trkpt>
      <trkpt lat="42.8172040" lon="-7.6750010">
        <ele>536.6</ele>
        <time>2020-10-19T08:24:49Z</time>
      </trkpt>
      <trkpt lat="42.8172150" lon="-7.6750100">
        <ele>536.6</ele>
        <time>2020-10-19T08:24:50Z</time>
      </trkpt>
      <trkpt lat="42.8172270" lon="-7.6750190">
        <ele>536.6</ele>
        <time>2020-10-19T08:24:51Z</time>
      </trkpt>
      <trkpt lat="42.8172380" lon="-7.6750280">
        <ele>536.6</ele>
        <time>2020-10-19T08:24:52Z</time>
      </trkpt>
      <trkpt lat="42.8172480" lon="-7.6750370">
        <ele>536.6</ele>
        <time>2020-10-19T08:24:53Z</time>
      </trkpt>
      <trkpt lat="42.8172580" lon="-7.6750460">
        <ele>536.6</ele>
        <time>2020-10-19T08:24:54Z</time>
      </trkpt>
      <trkpt lat="42.8172680" lon="-7.6750530">
        <ele>536.6</ele>
        <time>2020-10-19T08:24:55Z</time>
      </trkpt>
      <trkpt lat="42.8172780" lon="-7.6750600">
        <ele>536.6</ele>
        <time>2020-10-19T08:24:56Z</time>
      </trkpt>
      <trkpt lat="42.8172870" lon="-7.6750670">
        <ele>536.6</ele>
        <time>2020-10-19T08:24:57Z</time>
      </trkpt>
      <trkpt lat="42.8172970" lon="-7.6750750">
        <ele>536.6</ele>
        <time>2020-10-19T08:24:58Z</time>
      </trkpt>
      <trkpt lat="42.8173060" lon="-7.6750830">
        <ele>536.6</ele>
        <time>2020-10-19T08:24:59Z</time>
      </trkpt>
      <trkpt lat="42.8173160" lon="-7.6750910">
        <ele>536.6</ele>
        <time>2020-10-19T08:25:00Z</time>
      </trkpt>
      <trkpt lat="42.8173250" lon="-7.6750990">
        <ele>536.6</ele>
        <time>2020-10-19T08:25:01Z</time>
      </trkpt>
      <trkpt lat="42.8173350" lon="-7.6751080">
        <ele>536.6</ele>
        <time>2020-10-19T08:25:02Z</time>
      </trkpt>
      <trkpt lat="42.8173450" lon="-7.6751160">
        <ele>536.6</ele>
        <time>2020-10-19T08:25:03Z</time>
      </trkpt>
      <trkpt lat="42.8173560" lon="-7.6751250">
        <ele>536.6</ele>
        <time>2020-10-19T08:25:04Z</time>
      </trkpt>
      <trkpt lat="42.8173680" lon="-7.6751320">
        <ele>536.6</ele>
        <time>2020-10-19T08:25:05Z</time>
      </trkpt>
      <trkpt lat="42.8173790" lon="-7.6751400">
        <ele>536.6</ele>
        <time>2020-10-19T08:25:06Z</time>
      </trkpt>
      <trkpt lat="42.8173890" lon="-7.6751460">
        <ele>536.6</ele>
        <time>2020-10-19T08:25:07Z</time>
      </trkpt>
      <trkpt lat="42.8173990" lon="-7.6751540">
        <ele>536.6</ele>
        <time>2020-10-19T08:25:08Z</time>
      </trkpt>
      <trkpt lat="42.8174090" lon="-7.6751630">
        <ele>536.6</ele>
        <time>2020-10-19T08:25:09Z</time>
      </trkpt>
      <trkpt lat="42.8174200" lon="-7.6751700">
        <ele>536.6</ele>
        <time>2020-10-19T08:25:10Z</time>
      </trkpt>
      <trkpt lat="42.8174310" lon="-7.6751790">
        <ele>536.6</ele>
        <time>2020-10-19T08:25:11Z</time>
      </trkpt>
      <trkpt lat="42.8174400" lon="-7.6751870">
        <ele>536.6</ele>
        <time>2020-10-19T08:25:12Z</time>
      </trkpt>
      <trkpt lat="42.8174500" lon="-7.6751960">
        <ele>536.6</ele>
        <time>2020-10-19T08:25:13Z</time>
      </trkpt>
      <trkpt lat="42.8174600" lon="-7.6752040">
        <ele>536.6</ele>
        <time>2020-10-19T08:25:14Z</time>
      </trkpt>
      <trkpt lat="42.8174700" lon="-7.6752120">
        <ele>536.6</ele>
        <time>2020-10-19T08:25:15Z</time>
      </trkpt>
      <trkpt lat="42.8174800" lon="-7.6752190">
        <ele>536.6</ele>
        <time>2020-10-19T08:25:16Z</time>
      </trkpt>
      <trkpt lat="42.8174910" lon="-7.6752270">
        <ele>536.6</ele>
        <time>2020-10-19T08:25:17Z</time>
      </trkpt>
      <trkpt lat="42.8175020" lon="-7.6752340">
        <ele>536.6</ele>
        <time>2020-10-19T08:25:18Z</time>
      </trkpt>
      <trkpt lat="42.8175130" lon="-7.6752410">
        <ele>536.6</ele>
        <time>2020-10-19T08:25:19Z</time>
      </trkpt>
      <trkpt lat="42.8175230" lon="-7.6752490">
        <ele>536.6</ele>
        <time>2020-10-19T08:25:20Z</time>
      </trkpt>
      <trkpt lat="42.8175330" lon="-7.6752560">
        <ele>536.6</ele>
        <time>2020-10-19T08:25:21Z</time>
      </trkpt>
      <trkpt lat="42.8175440" lon="-7.6752640">
        <ele>536.6</ele>
        <time>2020-10-19T08:25:22Z</time>
      </trkpt>
      <trkpt lat="42.8175550" lon="-7.6752710">
        <ele>536.6</ele>
        <time>2020-10-19T08:25:23Z</time>
      </trkpt>
      <trkpt lat="42.8175650" lon="-7.6752770">
        <ele>536.6</ele>
        <time>2020-10-19T08:25:24Z</time>
      </trkpt>
      <trkpt lat="42.8175750" lon="-7.6752850">
        <ele>536.6</ele>
        <time>2020-10-19T08:25:25Z</time>
      </trkpt>
      <trkpt lat="42.8175850" lon="-7.6752940">
        <ele>536.6</ele>
        <time>2020-10-19T08:25:26Z</time>
      </trkpt>
      <trkpt lat="42.8175960" lon="-7.6753040">
        <ele>536.6</ele>
        <time>2020-10-19T08:25:27Z</time>
      </trkpt>
      <trkpt lat="42.8176060" lon="-7.6753110">
        <ele>536.6</ele>
        <time>2020-10-19T08:25:28Z</time>
      </trkpt>
      <trkpt lat="42.8176160" lon="-7.6753190">
        <ele>536.6</ele>
        <time>2020-10-19T08:25:29Z</time>
      </trkpt>
      <trkpt lat="42.8176250" lon="-7.6753270">
        <ele>536.7</ele>
        <time>2020-10-19T08:25:30Z</time>
      </trkpt>
      <trkpt lat="42.8176330" lon="-7.6753350">
        <ele>536.7</ele>
        <time>2020-10-19T08:25:31Z</time>
      </trkpt>
      <trkpt lat="42.8176420" lon="-7.6753440">
        <ele>536.7</ele>
        <time>2020-10-19T08:25:32Z</time>
      </trkpt>
      <trkpt lat="42.8176510" lon="-7.6753520">
        <ele>536.7</ele>
        <time>2020-10-19T08:25:33Z</time>
      </trkpt>
      <trkpt lat="42.8176610" lon="-7.6753610">
        <ele>536.7</ele>
        <time>2020-10-19T08:25:34Z</time>
      </trkpt>
      <trkpt lat="42.8176700" lon="-7.6753690">
        <ele>536.7</ele>
        <time>2020-10-19T08:25:35Z</time>
      </trkpt>
      <trkpt lat="42.8176790" lon="-7.6753780">
        <ele>536.7</ele>
        <time>2020-10-19T08:25:36Z</time>
      </trkpt>
      <trkpt lat="42.8176890" lon="-7.6753880">
        <ele>536.7</ele>
        <time>2020-10-19T08:25:37Z</time>
      </trkpt>
      <trkpt lat="42.8176990" lon="-7.6753970">
        <ele>536.7</ele>
        <time>2020-10-19T08:25:38Z</time>
      </trkpt>
      <trkpt lat="42.8177090" lon="-7.6754040">
        <ele>536.7</ele>
        <time>2020-10-19T08:25:39Z</time>
      </trkpt>
      <trkpt lat="42.8177190" lon="-7.6754110">
        <ele>536.7</ele>
        <time>2020-10-19T08:25:40Z</time>
      </trkpt>
      <trkpt lat="42.8177300" lon="-7.6754170">
        <ele>536.7</ele>
        <time>2020-10-19T08:25:41Z</time>
      </trkpt>
      <trkpt lat="42.8177390" lon="-7.6754230">
        <ele>536.7</ele>
        <time>2020-10-19T08:25:42Z</time>
      </trkpt>
      <trkpt lat="42.8177490" lon="-7.6754300">
        <ele>536.7</ele>
        <time>2020-10-19T08:25:43Z</time>
      </trkpt>
      <trkpt lat="42.8177600" lon="-7.6754360">
        <ele>536.7</ele>
        <time>2020-10-19T08:25:44Z</time>
      </trkpt>
      <trkpt lat="42.8177710" lon="-7.6754430">
        <ele>536.7</ele>
        <time>2020-10-19T08:25:45Z</time>
      </trkpt>
      <trkpt lat="42.8177820" lon="-7.6754500">
        <ele>536.7</ele>
        <time>2020-10-19T08:25:46Z</time>
      </trkpt>
      <trkpt lat="42.8177930" lon="-7.6754570">
        <ele>536.8</ele>
        <time>2020-10-19T08:25:47Z</time>
      </trkpt>
      <trkpt lat="42.8178030" lon="-7.6754630">
        <ele>536.8</ele>
        <time>2020-10-19T08:25:48Z</time>
      </trkpt>
      <trkpt lat="42.8178130" lon="-7.6754690">
        <ele>536.8</ele>
        <time>2020-10-19T08:25:49Z</time>
      </trkpt>
      <trkpt lat="42.8178230" lon="-7.6754750">
        <ele>536.8</ele>
        <time>2020-10-19T08:25:50Z</time>
      </trkpt>
      <trkpt lat="42.8178340" lon="-7.6754800">
        <ele>536.8</ele>
        <time>2020-10-19T08:25:51Z</time>
      </trkpt>
      <trkpt lat="42.8178450" lon="-7.6754850">
        <ele>536.8</ele>
        <time>2020-10-19T08:25:52Z</time>
      </trkpt>
      <trkpt lat="42.8178560" lon="-7.6754890">
        <ele>536.8</ele>
        <time>2020-10-19T08:25:53Z</time>
      </trkpt>
      <trkpt lat="42.8178690" lon="-7.6754930">
        <ele>536.8</ele>
        <time>2020-10-19T08:25:54Z</time>
      </trkpt>
      <trkpt lat="42.8178800" lon="-7.6754970">
        <ele>536.8</ele>
        <time>2020-10-19T08:25:55Z</time>
      </trkpt>
      <trkpt lat="42.8178920" lon="-7.6755020">
        <ele>536.8</ele>
        <time>2020-10-19T08:25:56Z</time>
      </trkpt>
      <trkpt lat="42.8179040" lon="-7.6755060">
        <ele>536.8</ele>
        <time>2020-10-19T08:25:57Z</time>
      </trkpt>
      <trkpt lat="42.8179160" lon="-7.6755100">
        <ele>536.8</ele>
        <time>2020-10-19T08:25:58Z</time>
      </trkpt>
      <trkpt lat="42.8179280" lon="-7.6755120">
        <ele>536.8</ele>
        <time>2020-10-19T08:25:59Z</time>
      </trkpt>
      <trkpt lat="42.8179400" lon="-7.6755160">
        <ele>536.9</ele>
        <time>2020-10-19T08:26:00Z</time>
      </trkpt>
      <trkpt lat="42.8179520" lon="-7.6755210">
        <ele>536.9</ele>
        <time>2020-10-19T08:26:01Z</time>
      </trkpt>
      <trkpt lat="42.8179640" lon="-7.6755260">
        <ele>536.9</ele>
        <time>2020-10-19T08:26:02Z</time>
      </trkpt>
      <trkpt lat="42.8179750" lon="-7.6755310">
        <ele>536.9</ele>
        <time>2020-10-19T08:26:03Z</time>
      </trkpt>
      <trkpt lat="42.8179850" lon="-7.6755360">
        <ele>536.9</ele>
        <time>2020-10-19T08:26:04Z</time>
      </trkpt>
      <trkpt lat="42.8179960" lon="-7.6755410">
        <ele>536.9</ele>
        <time>2020-10-19T08:26:05Z</time>
      </trkpt>
      <trkpt lat="42.8180080" lon="-7.6755480">
        <ele>536.9</ele>
        <time>2020-10-19T08:26:06Z</time>
      </trkpt>
      <trkpt lat="42.8180200" lon="-7.6755550">
        <ele>536.9</ele>
        <time>2020-10-19T08:26:07Z</time>
      </trkpt>
      <trkpt lat="42.8180330" lon="-7.6755620">
        <ele>536.9</ele>
        <time>2020-10-19T08:26:08Z</time>
      </trkpt>
      <trkpt lat="42.8180440" lon="-7.6755690">
        <ele>536.9</ele>
        <time>2020-10-19T08:26:09Z</time>
      </trkpt>
      <trkpt lat="42.8180540" lon="-7.6755770">
        <ele>537.0</ele>
        <time>2020-10-19T08:26:10Z</time>
      </trkpt>
      <trkpt lat="42.8180630" lon="-7.6755860">
        <ele>537.0</ele>
        <time>2020-10-19T08:26:11Z</time>
      </trkpt>
      <trkpt lat="42.8180740" lon="-7.6755940">
        <ele>537.0</ele>
        <time>2020-10-19T08:26:12Z</time>
      </trkpt>
      <trkpt lat="42.8180850" lon="-7.6756010">
        <ele>537.0</ele>
        <time>2020-10-19T08:26:13Z</time>
      </trkpt>
      <trkpt lat="42.8180960" lon="-7.6756070">
        <ele>537.0</ele>
        <time>2020-10-19T08:26:14Z</time>
      </trkpt>
      <trkpt lat="42.8181080" lon="-7.6756130">
        <ele>537.0</ele>
        <time>2020-10-19T08:26:15Z</time>
      </trkpt>
      <trkpt lat="42.8181180" lon="-7.6756190">
        <ele>537.0</ele>
        <time>2020-10-19T08:26:16Z</time>
      </trkpt>
      <trkpt lat="42.8181280" lon="-7.6756240">
        <ele>537.0</ele>
        <time>2020-10-19T08:26:17Z</time>
      </trkpt>
      <trkpt lat="42.8181380" lon="-7.6756290">
        <ele>537.1</ele>
        <time>2020-10-19T08:26:18Z</time>
      </trkpt>
      <trkpt lat="42.8181480" lon="-7.6756340">
        <ele>537.1</ele>
        <time>2020-10-19T08:26:19Z</time>
      </trkpt>
      <trkpt lat="42.8181570" lon="-7.6756400">
        <ele>537.1</ele>
        <time>2020-10-19T08:26:20Z</time>
      </trkpt>
      <trkpt lat="42.8181670" lon="-7.6756450">
        <ele>537.1</ele>
        <time>2020-10-19T08:26:21Z</time>
      </trkpt>
      <trkpt lat="42.8181760" lon="-7.6756500">
        <ele>537.1</ele>
        <time>2020-10-19T08:26:22Z</time>
      </trkpt>
      <trkpt lat="42.8181860" lon="-7.6756540">
        <ele>537.1</ele>
        <time>2020-10-19T08:26:23Z</time>
      </trkpt>
      <trkpt lat="42.8181950" lon="-7.6756590">
        <ele>537.1</ele>
        <time>2020-10-19T08:26:24Z</time>
      </trkpt>
      <trkpt lat="42.8182050" lon="-7.6756630">
        <ele>537.1</ele>
        <time>2020-10-19T08:26:25Z</time>
      </trkpt>
      <trkpt lat="42.8182150" lon="-7.6756680">
        <ele>537.1</ele>
        <time>2020-10-19T08:26:26Z</time>
      </trkpt>
      <trkpt lat="42.8182250" lon="-7.6756730">
        <ele>537.1</ele>
        <time>2020-10-19T08:26:27Z</time>
      </trkpt>
      <trkpt lat="42.8182350" lon="-7.6756800">
        <ele>537.2</ele>
        <time>2020-10-19T08:26:28Z</time>
      </trkpt>
      <trkpt lat="42.8182440" lon="-7.6756840">
        <ele>537.2</ele>
        <time>2020-10-19T08:26:29Z</time>
      </trkpt>
      <trkpt lat="42.8182530" lon="-7.6756900">
        <ele>537.2</ele>
        <time>2020-10-19T08:26:30Z</time>
      </trkpt>
      <trkpt lat="42.8182610" lon="-7.6756960">
        <ele>537.2</ele>
        <time>2020-10-19T08:26:31Z</time>
      </trkpt>
      <trkpt lat="42.8182690" lon="-7.6757040">
        <ele>537.2</ele>
        <time>2020-10-19T08:26:32Z</time>
      </trkpt>
      <trkpt lat="42.8182760" lon="-7.6757090">
        <ele>537.2</ele>
        <time>2020-10-19T08:26:33Z</time>
      </trkpt>
      <trkpt lat="42.8182820" lon="-7.6757150">
        <ele>537.2</ele>
        <time>2020-10-19T08:26:34Z</time>
      </trkpt>
      <trkpt lat="42.8182890" lon="-7.6757210">
        <ele>537.2</ele>
        <time>2020-10-19T08:26:35Z</time>
      </trkpt>
      <trkpt lat="42.8182980" lon="-7.6757270">
        <ele>537.2</ele>
        <time>2020-10-19T08:26:36Z</time>
      </trkpt>
      <trkpt lat="42.8183050" lon="-7.6757350">
        <ele>537.2</ele>
        <time>2020-10-19T08:26:37Z</time>
      </trkpt>
      <trkpt lat="42.8183130" lon="-7.6757430">
        <ele>537.2</ele>
        <time>2020-10-19T08:26:38Z</time>
      </trkpt>
      <trkpt lat="42.8183200" lon="-7.6757500">
        <ele>537.2</ele>
        <time>2020-10-19T08:26:39Z</time>
      </trkpt>
      <trkpt lat="42.8183280" lon="-7.6757570">
        <ele>537.2</ele>
        <time>2020-10-19T08:26:40Z</time>
      </trkpt>
      <trkpt lat="42.8183380" lon="-7.6757630">
        <ele>537.2</ele>
        <time>2020-10-19T08:26:41Z</time>
      </trkpt>
      <trkpt lat="42.8183470" lon="-7.6757690">
        <ele>537.2</ele>
        <time>2020-10-19T08:26:42Z</time>
      </trkpt>
      <trkpt lat="42.8183560" lon="-7.6757760">
        <ele>537.2</ele>
        <time>2020-10-19T08:26:43Z</time>
      </trkpt>
      <trkpt lat="42.8183650" lon="-7.6757810">
        <ele>537.2</ele>
        <time>2020-10-19T08:26:44Z</time>
      </trkpt>
      <trkpt lat="42.8183750" lon="-7.6757870">
        <ele>537.2</ele>
        <time>2020-10-19T08:26:45Z</time>
      </trkpt>
      <trkpt lat="42.8183850" lon="-7.6757930">
        <ele>537.2</ele>
        <time>2020-10-19T08:26:46Z</time>
      </trkpt>
      <trkpt lat="42.8183940" lon="-7.6758000">
        <ele>537.2</ele>
        <time>2020-10-19T08:26:47Z</time>
      </trkpt>
      <trkpt lat="42.8184020" lon="-7.6758070">
        <ele>537.2</ele>
        <time>2020-10-19T08:26:48Z</time>
      </trkpt>
      <trkpt lat="42.8184100" lon="-7.6758150">
        <ele>537.2</ele>
        <time>2020-10-19T08:26:49Z</time>
      </trkpt>
      <trkpt lat="42.8184160" lon="-7.6758220">
        <ele>537.2</ele>
        <time>2020-10-19T08:26:50Z</time>
      </trkpt>
      <trkpt lat="42.8184200" lon="-7.6758270">
        <ele>537.2</ele>
        <time>2020-10-19T08:26:51Z</time>
      </trkpt>
      <trkpt lat="42.8184200" lon="-7.6758290">
        <ele>537.2</ele>
        <time>2020-10-19T08:26:52Z</time>
      </trkpt>
      <trkpt lat="42.8184190" lon="-7.6758290">
        <ele>537.2</ele>
        <time>2020-10-19T08:26:53Z</time>
      </trkpt>
      <trkpt lat="42.8184180" lon="-7.6758300">
        <ele>537.2</ele>
        <time>2020-10-19T08:26:54Z</time>
      </trkpt>
      <trkpt lat="42.8184180" lon="-7.6758310">
        <ele>537.2</ele>
        <time>2020-10-19T08:26:55Z</time>
      </trkpt>
      <trkpt lat="42.8184170" lon="-7.6758330">
        <ele>537.2</ele>
        <time>2020-10-19T08:26:56Z</time>
      </trkpt>
      <trkpt lat="42.8184160" lon="-7.6758340">
        <ele>537.2</ele>
        <time>2020-10-19T08:26:57Z</time>
      </trkpt>
      <trkpt lat="42.8184180" lon="-7.6758360">
        <ele>537.2</ele>
        <time>2020-10-19T08:26:58Z</time>
      </trkpt>
      <trkpt lat="42.8184230" lon="-7.6758430">
        <ele>537.2</ele>
        <time>2020-10-19T08:26:59Z</time>
      </trkpt>
      <trkpt lat="42.8184290" lon="-7.6758520">
        <ele>537.3</ele>
        <time>2020-10-19T08:27:00Z</time>
      </trkpt>
      <trkpt lat="42.8184360" lon="-7.6758620">
        <ele>537.3</ele>
        <time>2020-10-19T08:27:01Z</time>
      </trkpt>
      <trkpt lat="42.8184440" lon="-7.6758670">
        <ele>537.3</ele>
        <time>2020-10-19T08:27:02Z</time>
      </trkpt>
      <trkpt lat="42.8184550" lon="-7.6758720">
        <ele>537.3</ele>
        <time>2020-10-19T08:27:03Z</time>
      </trkpt>
      <trkpt lat="42.8184670" lon="-7.6758780">
        <ele>537.3</ele>
        <time>2020-10-19T08:27:04Z</time>
      </trkpt>
      <trkpt lat="42.8184790" lon="-7.6758850">
        <ele>537.3</ele>
        <time>2020-10-19T08:27:05Z</time>
      </trkpt>
      <trkpt lat="42.8184880" lon="-7.6758920">
        <ele>537.3</ele>
        <time>2020-10-19T08:27:06Z</time>
      </trkpt>
      <trkpt lat="42.8184970" lon="-7.6759010">
        <ele>537.3</ele>
        <time>2020-10-19T08:27:07Z</time>
      </trkpt>
      <trkpt lat="42.8185080" lon="-7.6759100">
        <ele>537.3</ele>
        <time>2020-10-19T08:27:08Z</time>
      </trkpt>
      <trkpt lat="42.8185180" lon="-7.6759170">
        <ele>537.3</ele>
        <time>2020-10-19T08:27:09Z</time>
      </trkpt>
      <trkpt lat="42.8185290" lon="-7.6759240">
        <ele>537.3</ele>
        <time>2020-10-19T08:27:10Z</time>
      </trkpt>
      <trkpt lat="42.8185390" lon="-7.6759320">
        <ele>537.3</ele>
        <time>2020-10-19T08:27:11Z</time>
      </trkpt>
      <trkpt lat="42.8185490" lon="-7.6759380">
        <ele>537.4</ele>
        <time>2020-10-19T08:27:12Z</time>
      </trkpt>
      <trkpt lat="42.8185580" lon="-7.6759440">
        <ele>537.4</ele>
        <time>2020-10-19T08:27:13Z</time>
      </trkpt>
      <trkpt lat="42.8185670" lon="-7.6759520">
        <ele>537.4</ele>
        <time>2020-10-19T08:27:14Z</time>
      </trkpt>
      <trkpt lat="42.8185760" lon="-7.6759620">
        <ele>537.4</ele>
        <time>2020-10-19T08:27:15Z</time>
      </trkpt>
      <trkpt lat="42.8185850" lon="-7.6759720">
        <ele>537.4</ele>
        <time>2020-10-19T08:27:16Z</time>
      </trkpt>
      <trkpt lat="42.8185950" lon="-7.6759810">
        <ele>537.4</ele>
        <time>2020-10-19T08:27:17Z</time>
      </trkpt>
      <trkpt lat="42.8186070" lon="-7.6759890">
        <ele>537.4</ele>
        <time>2020-10-19T08:27:18Z</time>
      </trkpt>
      <trkpt lat="42.8186170" lon="-7.6759980">
        <ele>537.4</ele>
        <time>2020-10-19T08:27:19Z</time>
      </trkpt>
      <trkpt lat="42.8186270" lon="-7.6760060">
        <ele>537.4</ele>
        <time>2020-10-19T08:27:20Z</time>
      </trkpt>
      <trkpt lat="42.8186370" lon="-7.6760140">
        <ele>537.4</ele>
        <time>2020-10-19T08:27:21Z</time>
      </trkpt>
      <trkpt lat="42.8186460" lon="-7.6760230">
        <ele>537.5</ele>
        <time>2020-10-19T08:27:22Z</time>
      </trkpt>
      <trkpt lat="42.8186560" lon="-7.6760300">
        <ele>537.5</ele>
        <time>2020-10-19T08:27:23Z</time>
      </trkpt>
      <trkpt lat="42.8186660" lon="-7.6760370">
        <ele>537.5</ele>
        <time>2020-10-19T08:27:24Z</time>
      </trkpt>
      <trkpt lat="42.8186770" lon="-7.6760430">
        <ele>537.5</ele>
        <time>2020-10-19T08:27:25Z</time>
      </trkpt>
      <trkpt lat="42.8186890" lon="-7.6760510">
        <ele>537.5</ele>
        <time>2020-10-19T08:27:26Z</time>
      </trkpt>
      <trkpt lat="42.8187000" lon="-7.6760590">
        <ele>537.5</ele>
        <time>2020-10-19T08:27:27Z</time>
      </trkpt>
      <trkpt lat="42.8187110" lon="-7.6760660">
        <ele>537.5</ele>
        <time>2020-10-19T08:27:28Z</time>
      </trkpt>
      <trkpt lat="42.8187230" lon="-7.6760750">
        <ele>537.5</ele>
        <time>2020-10-19T08:27:29Z</time>
      </trkpt>
      <trkpt lat="42.8187350" lon="-7.6760850">
        <ele>537.5</ele>
        <time>2020-10-19T08:27:30Z</time>
      </trkpt>
      <trkpt lat="42.8187480" lon="-7.6760960">
        <ele>537.5</ele>
        <time>2020-10-19T08:27:31Z</time>
      </trkpt>
      <trkpt lat="42.8187600" lon="-7.6761080">
        <ele>537.6</ele>
        <time>2020-10-19T08:27:32Z</time>
      </trkpt>
      <trkpt lat="42.8187710" lon="-7.6761180">
        <ele>537.6</ele>
        <time>2020-10-19T08:27:33Z</time>
      </trkpt>
      <trkpt lat="42.8187830" lon="-7.6761270">
        <ele>537.6</ele>
        <time>2020-10-19T08:27:34Z</time>
      </trkpt>
      <trkpt lat="42.8187930" lon="-7.6761360">
        <ele>537.6</ele>
        <time>2020-10-19T08:27:35Z</time>
      </trkpt>
      <trkpt lat="42.8188040" lon="-7.6761450">
        <ele>537.6</ele>
        <time>2020-10-19T08:27:36Z</time>
      </trkpt>
      <trkpt lat="42.8188150" lon="-7.6761550">
        <ele>537.6</ele>
        <time>2020-10-19T08:27:37Z</time>
      </trkpt>
      <trkpt lat="42.8188260" lon="-7.6761650">
        <ele>537.6</ele>
        <time>2020-10-19T08:27:38Z</time>
      </trkpt>
      <trkpt lat="42.8188370" lon="-7.6761740">
        <ele>537.7</ele>
        <time>2020-10-19T08:27:39Z</time>
      </trkpt>
      <trkpt lat="42.8188470" lon="-7.6761840">
        <ele>537.7</ele>
        <time>2020-10-19T08:27:40Z</time>
      </trkpt>
      <trkpt lat="42.8188560" lon="-7.6761940">
        <ele>537.7</ele>
        <time>2020-10-19T08:27:41Z</time>
      </trkpt>
      <trkpt lat="42.8188650" lon="-7.6762050">
        <ele>537.7</ele>
        <time>2020-10-19T08:27:42Z</time>
      </trkpt>
      <trkpt lat="42.8188750" lon="-7.6762150">
        <ele>537.7</ele>
        <time>2020-10-19T08:27:43Z</time>
      </trkpt>
      <trkpt lat="42.8188850" lon="-7.6762250">
        <ele>537.7</ele>
        <time>2020-10-19T08:27:44Z</time>
      </trkpt>
      <trkpt lat="42.8188960" lon="-7.6762350">
        <ele>537.7</ele>
        <time>2020-10-19T08:27:45Z</time>
      </trkpt>
      <trkpt lat="42.8189070" lon="-7.6762440">
        <ele>537.8</ele>
        <time>2020-10-19T08:27:46Z</time>
      </trkpt>
      <trkpt lat="42.8189170" lon="-7.6762550">
        <ele>537.8</ele>
        <time>2020-10-19T08:27:47Z</time>
      </trkpt>
      <trkpt lat="42.8189260" lon="-7.6762660">
        <ele>537.8</ele>
        <time>2020-10-19T08:27:48Z</time>
      </trkpt>
      <trkpt lat="42.8189360" lon="-7.6762760">
        <ele>537.8</ele>
        <time>2020-10-19T08:27:49Z</time>
      </trkpt>
      <trkpt lat="42.8189450" lon="-7.6762860">
        <ele>537.8</ele>
        <time>2020-10-19T08:27:50Z</time>
      </trkpt>
      <trkpt lat="42.8189560" lon="-7.6762940">
        <ele>537.8</ele>
        <time>2020-10-19T08:27:51Z</time>
      </trkpt>
      <trkpt lat="42.8189650" lon="-7.6763050">
        <ele>537.8</ele>
        <time>2020-10-19T08:27:52Z</time>
      </trkpt>
      <trkpt lat="42.8189760" lon="-7.6763160">
        <ele>537.8</ele>
        <time>2020-10-19T08:27:53Z</time>
      </trkpt>
      <trkpt lat="42.8189850" lon="-7.6763280">
        <ele>537.9</ele>
        <time>2020-10-19T08:27:54Z</time>
      </trkpt>
      <trkpt lat="42.8189960" lon="-7.6763380">
        <ele>537.9</ele>
        <time>2020-10-19T08:27:55Z</time>
      </trkpt>
      <trkpt lat="42.8190070" lon="-7.6763470">
        <ele>537.9</ele>
        <time>2020-10-19T08:27:56Z</time>
      </trkpt>
      <trkpt lat="42.8190180" lon="-7.6763570">
        <ele>537.9</ele>
        <time>2020-10-19T08:27:57Z</time>
      </trkpt>
      <trkpt lat="42.8190270" lon="-7.6763660">
        <ele>537.9</ele>
        <time>2020-10-19T08:27:58Z</time>
      </trkpt>
      <trkpt lat="42.8190360" lon="-7.6763760">
        <ele>537.9</ele>
        <time>2020-10-19T08:27:59Z</time>
      </trkpt>
      <trkpt lat="42.8190440" lon="-7.6763830">
        <ele>537.9</ele>
        <time>2020-10-19T08:28:00Z</time>
      </trkpt>
      <trkpt lat="42.8190510" lon="-7.6763910">
        <ele>538.0</ele>
        <time>2020-10-19T08:28:01Z</time>
      </trkpt>
      <trkpt lat="42.8190590" lon="-7.6763990">
        <ele>538.0</ele>
        <time>2020-10-19T08:28:02Z</time>
      </trkpt>
      <trkpt lat="42.8190690" lon="-7.6764080">
        <ele>538.0</ele>
        <time>2020-10-19T08:28:03Z</time>
      </trkpt>
      <trkpt lat="42.8190780" lon="-7.6764190">
        <ele>538.0</ele>
        <time>2020-10-19T08:28:04Z</time>
      </trkpt>
      <trkpt lat="42.8190860" lon="-7.6764300">
        <ele>538.0</ele>
        <time>2020-10-19T08:28:05Z</time>
      </trkpt>
      <trkpt lat="42.8190940" lon="-7.6764410">
        <ele>538.0</ele>
        <time>2020-10-19T08:28:06Z</time>
      </trkpt>
      <trkpt lat="42.8191010" lon="-7.6764520">
        <ele>538.0</ele>
        <time>2020-10-19T08:28:07Z</time>
      </trkpt>
      <trkpt lat="42.8191080" lon="-7.6764620">
        <ele>538.1</ele>
        <time>2020-10-19T08:28:08Z</time>
      </trkpt>
      <trkpt lat="42.8191150" lon="-7.6764730">
        <ele>538.1</ele>
        <time>2020-10-19T08:28:09Z</time>
      </trkpt>
      <trkpt lat="42.8191220" lon="-7.6764820">
        <ele>538.1</ele>
        <time>2020-10-19T08:28:10Z</time>
      </trkpt>
      <trkpt lat="42.8191300" lon="-7.6764930">
        <ele>538.1</ele>
        <time>2020-10-19T08:28:11Z</time>
      </trkpt>
      <trkpt lat="42.8191390" lon="-7.6765030">
        <ele>538.1</ele>
        <time>2020-10-19T08:28:12Z</time>
      </trkpt>
      <trkpt lat="42.8191480" lon="-7.6765130">
        <ele>538.2</ele>
        <time>2020-10-19T08:28:13Z</time>
      </trkpt>
      <trkpt lat="42.8191560" lon="-7.6765260">
        <ele>538.2</ele>
        <time>2020-10-19T08:28:14Z</time>
      </trkpt>
      <trkpt lat="42.8191630" lon="-7.6765380">
        <ele>538.2</ele>
        <time>2020-10-19T08:28:15Z</time>
      </trkpt>
      <trkpt lat="42.8191710" lon="-7.6765500">
        <ele>538.2</ele>
        <time>2020-10-19T08:28:16Z</time>
      </trkpt>
      <trkpt lat="42.8191780" lon="-7.6765600">
        <ele>538.3</ele>
        <time>2020-10-19T08:28:17Z</time>
      </trkpt>
      <trkpt lat="42.8191860" lon="-7.6765710">
        <ele>538.3</ele>
        <time>2020-10-19T08:28:18Z</time>
      </trkpt>
      <trkpt lat="42.8191930" lon="-7.6765830">
        <ele>538.4</ele>
        <time>2020-10-19T08:28:19Z</time>
      </trkpt>
      <trkpt lat="42.8192000" lon="-7.6765950">
        <ele>538.4</ele>
        <time>2020-10-19T08:28:20Z</time>
      </trkpt>
      <trkpt lat="42.8192090" lon="-7.6766060">
        <ele>538.4</ele>
        <time>2020-10-19T08:28:21Z</time>
      </trkpt>
      <trkpt lat="42.8192200" lon="-7.6766160">
        <ele>538.5</ele>
        <time>2020-10-19T08:28:22Z</time>
      </trkpt>
      <trkpt lat="42.8192310" lon="-7.6766260">
        <ele>538.5</ele>
        <time>2020-10-19T08:28:23Z</time>
      </trkpt>
      <trkpt lat="42.8192430" lon="-7.6766350">
        <ele>538.6</ele>
        <time>2020-10-19T08:28:24Z</time>
      </trkpt>
      <trkpt lat="42.8192530" lon="-7.6766480">
        <ele>538.7</ele>
        <time>2020-10-19T08:28:25Z</time>
      </trkpt>
      <trkpt lat="42.8192630" lon="-7.6766610">
        <ele>538.7</ele>
        <time>2020-10-19T08:28:26Z</time>
      </trkpt>
      <trkpt lat="42.8192720" lon="-7.6766750">
        <ele>538.8</ele>
        <time>2020-10-19T08:28:27Z</time>
      </trkpt>
      <trkpt lat="42.8192850" lon="-7.6766850">
        <ele>538.9</ele>
        <time>2020-10-19T08:28:28Z</time>
      </trkpt>
      <trkpt lat="42.8192980" lon="-7.6766920">
        <ele>538.9</ele>
        <time>2020-10-19T08:28:29Z</time>
      </trkpt>
      <trkpt lat="42.8193120" lon="-7.6766960">
        <ele>539.0</ele>
        <time>2020-10-19T08:28:30Z</time>
      </trkpt>
      <trkpt lat="42.8193220" lon="-7.6766970">
        <ele>539.0</ele>
        <time>2020-10-19T08:28:31Z</time>
      </trkpt>
      <trkpt lat="42.8193320" lon="-7.6766970">
        <ele>539.1</ele>
        <time>2020-10-19T08:28:32Z</time>
      </trkpt>
      <trkpt lat="42.8193410" lon="-7.6766970">
        <ele>539.1</ele>
        <time>2020-10-19T08:28:33Z</time>
      </trkpt>
      <trkpt lat="42.8193500" lon="-7.6766960">
        <ele>539.2</ele>
        <time>2020-10-19T08:28:34Z</time>
      </trkpt>
      <trkpt lat="42.8193580" lon="-7.6766940">
        <ele>539.2</ele>
        <time>2020-10-19T08:28:35Z</time>
      </trkpt>
      <trkpt lat="42.8193660" lon="-7.6766900">
        <ele>539.2</ele>
        <time>2020-10-19T08:28:36Z</time>
      </trkpt>
      <trkpt lat="42.8193740" lon="-7.6766840">
        <ele>539.3</ele>
        <time>2020-10-19T08:28:37Z</time>
      </trkpt>
      <trkpt lat="42.8193820" lon="-7.6766770">
        <ele>539.3</ele>
        <time>2020-10-19T08:28:38Z</time>
      </trkpt>
      <trkpt lat="42.8193920" lon="-7.6766680">
        <ele>539.3</ele>
        <time>2020-10-19T08:28:39Z</time>
      </trkpt>
      <trkpt lat="42.8194020" lon="-7.6766590">
        <ele>539.4</ele>
        <time>2020-10-19T08:28:40Z</time>
      </trkpt>
      <trkpt lat="42.8194110" lon="-7.6766500">
        <ele>539.4</ele>
        <time>2020-10-19T08:28:41Z</time>
      </trkpt>
      <trkpt lat="42.8194180" lon="-7.6766420">
        <ele>539.5</ele>
        <time>2020-10-19T08:28:42Z</time>
      </trkpt>
      <trkpt lat="42.8194270" lon="-7.6766340">
        <ele>539.5</ele>
        <time>2020-10-19T08:28:43Z</time>
      </trkpt>
      <trkpt lat="42.8194380" lon="-7.6766280">
        <ele>539.6</ele>
        <time>2020-10-19T08:28:44Z</time>
      </trkpt>
      <trkpt lat="42.8194480" lon="-7.6766230">
        <ele>539.6</ele>
        <time>2020-10-19T08:28:45Z</time>
      </trkpt>
      <trkpt lat="42.8194560" lon="-7.6766180">
        <ele>539.6</ele>
        <time>2020-10-19T08:28:46Z</time>
      </trkpt>
      <trkpt lat="42.8194640" lon="-7.6766110">
        <ele>539.7</ele>
        <time>2020-10-19T08:28:47Z</time>
      </trkpt>
      <trkpt lat="42.8194730" lon="-7.6766040">
        <ele>539.7</ele>
        <time>2020-10-19T08:28:48Z</time>
      </trkpt>
      <trkpt lat="42.8194830" lon="-7.6765960">
        <ele>539.8</ele>
        <time>2020-10-19T08:28:49Z</time>
      </trkpt>
      <trkpt lat="42.8194930" lon="-7.6765890">
        <ele>539.8</ele>
        <time>2020-10-19T08:28:50Z</time>
      </trkpt>
      <trkpt lat="42.8195020" lon="-7.6765830">
        <ele>539.9</ele>
        <time>2020-10-19T08:28:51Z</time>
      </trkpt>
      <trkpt lat="42.8195100" lon="-7.6765790">
        <ele>539.9</ele>
        <time>2020-10-19T08:28:52Z</time>
      </trkpt>
      <trkpt lat="42.8195190" lon="-7.6765740">
        <ele>539.9</ele>
        <time>2020-10-19T08:28:53Z</time>
      </trkpt>
      <trkpt lat="42.8195290" lon="-7.6765690">
        <ele>540.0</ele>
        <time>2020-10-19T08:28:54Z</time>
      </trkpt>
      <trkpt lat="42.8195390" lon="-7.6765640">
        <ele>540.0</ele>
        <time>2020-10-19T08:28:55Z</time>
      </trkpt>
      <trkpt lat="42.8195480" lon="-7.6765570">
        <ele>540.1</ele>
        <time>2020-10-19T08:28:56Z</time>
      </trkpt>
      <trkpt lat="42.8195570" lon="-7.6765510">
        <ele>540.1</ele>
        <time>2020-10-19T08:28:57Z</time>
      </trkpt>
      <trkpt lat="42.8195670" lon="-7.6765460">
        <ele>540.2</ele>
        <time>2020-10-19T08:28:58Z</time>
      </trkpt>
      <trkpt lat="42.8195780" lon="-7.6765430">
        <ele>540.2</ele>
        <time>2020-10-19T08:28:59Z</time>
      </trkpt>
      <trkpt lat="42.8195890" lon="-7.6765460">
        <ele>540.3</ele>
        <time>2020-10-19T08:29:00Z</time>
      </trkpt>
      <trkpt lat="42.8195990" lon="-7.6765490">
        <ele>540.3</ele>
        <time>2020-10-19T08:29:01Z</time>
      </trkpt>
      <trkpt lat="42.8196100" lon="-7.6765560">
        <ele>540.4</ele>
        <time>2020-10-19T08:29:02Z</time>
      </trkpt>
      <trkpt lat="42.8196210" lon="-7.6765640">
        <ele>540.4</ele>
        <time>2020-10-19T08:29:03Z</time>
      </trkpt>
      <trkpt lat="42.8196320" lon="-7.6765750">
        <ele>540.4</ele>
        <time>2020-10-19T08:29:04Z</time>
      </trkpt>
      <trkpt lat="42.8196420" lon="-7.6765870">
        <ele>540.5</ele>
        <time>2020-10-19T08:29:05Z</time>
      </trkpt>
      <trkpt lat="42.8196500" lon="-7.6765980">
        <ele>540.5</ele>
        <time>2020-10-19T08:29:06Z</time>
      </trkpt>
      <trkpt lat="42.8196580" lon="-7.6766080">
        <ele>540.5</ele>
        <time>2020-10-19T08:29:07Z</time>
      </trkpt>
      <trkpt lat="42.8196650" lon="-7.6766180">
        <ele>540.6</ele>
        <time>2020-10-19T08:29:08Z</time>
      </trkpt>
      <trkpt lat="42.8196720" lon="-7.6766280">
        <ele>540.6</ele>
        <time>2020-10-19T08:29:09Z</time>
      </trkpt>
      <trkpt lat="42.8196790" lon="-7.6766370">
        <ele>540.6</ele>
        <time>2020-10-19T08:29:10Z</time>
      </trkpt>
      <trkpt lat="42.8196870" lon="-7.6766480">
        <ele>540.6</ele>
        <time>2020-10-19T08:29:11Z</time>
      </trkpt>
      <trkpt lat="42.8196950" lon="-7.6766590">
        <ele>540.6</ele>
        <time>2020-10-19T08:29:12Z</time>
      </trkpt>
      <trkpt lat="42.8197020" lon="-7.6766720">
        <ele>540.7</ele>
        <time>2020-10-19T08:29:13Z</time>
      </trkpt>
      <trkpt lat="42.8197090" lon="-7.6766840">
        <ele>540.7</ele>
        <time>2020-10-19T08:29:14Z</time>
      </trkpt>
      <trkpt lat="42.8197170" lon="-7.6766970">
        <ele>540.7</ele>
        <time>2020-10-19T08:29:15Z</time>
      </trkpt>
      <trkpt lat="42.8197240" lon="-7.6767090">
        <ele>540.7</ele>
        <time>2020-10-19T08:29:16Z</time>
      </trkpt>
      <trkpt lat="42.8197310" lon="-7.6767210">
        <ele>540.7</ele>
        <time>2020-10-19T08:29:17Z</time>
      </trkpt>
      <trkpt lat="42.8197390" lon="-7.6767320">
        <ele>540.7</ele>
        <time>2020-10-19T08:29:18Z</time>
      </trkpt>
      <trkpt lat="42.8197460" lon="-7.6767430">
        <ele>540.8</ele>
        <time>2020-10-19T08:29:19Z</time>
      </trkpt>
      <trkpt lat="42.8197530" lon="-7.6767550">
        <ele>540.8</ele>
        <time>2020-10-19T08:29:20Z</time>
      </trkpt>
      <trkpt lat="42.8197590" lon="-7.6767670">
        <ele>540.8</ele>
        <time>2020-10-19T08:29:21Z</time>
      </trkpt>
      <trkpt lat="42.8197660" lon="-7.6767790">
        <ele>540.8</ele>
        <time>2020-10-19T08:29:22Z</time>
      </trkpt>
      <trkpt lat="42.8197720" lon="-7.6767910">
        <ele>540.8</ele>
        <time>2020-10-19T08:29:23Z</time>
      </trkpt>
      <trkpt lat="42.8197800" lon="-7.6768050">
        <ele>540.8</ele>
        <time>2020-10-19T08:29:24Z</time>
      </trkpt>
      <trkpt lat="42.8197880" lon="-7.6768210">
        <ele>540.8</ele>
        <time>2020-10-19T08:29:25Z</time>
      </trkpt>
      <trkpt lat="42.8197960" lon="-7.6768370">
        <ele>540.8</ele>
        <time>2020-10-19T08:29:26Z</time>
      </trkpt>
      <trkpt lat="42.8198020" lon="-7.6768500">
        <ele>540.8</ele>
        <time>2020-10-19T08:29:27Z</time>
      </trkpt>
      <trkpt lat="42.8198090" lon="-7.6768620">
        <ele>540.8</ele>
        <time>2020-10-19T08:29:28Z</time>
      </trkpt>
      <trkpt lat="42.8198160" lon="-7.6768740">
        <ele>540.8</ele>
        <time>2020-10-19T08:29:29Z</time>
      </trkpt>
      <trkpt lat="42.8198220" lon="-7.6768860">
        <ele>540.8</ele>
        <time>2020-10-19T08:29:30Z</time>
      </trkpt>
      <trkpt lat="42.8198290" lon="-7.6768990">
        <ele>540.8</ele>
        <time>2020-10-19T08:29:31Z</time>
      </trkpt>
      <trkpt lat="42.8198360" lon="-7.6769120">
        <ele>540.8</ele>
        <time>2020-10-19T08:29:32Z</time>
      </trkpt>
      <trkpt lat="42.8198430" lon="-7.6769260">
        <ele>540.8</ele>
        <time>2020-10-19T08:29:33Z</time>
      </trkpt>
      <trkpt lat="42.8198500" lon="-7.6769380">
        <ele>540.8</ele>
        <time>2020-10-19T08:29:34Z</time>
      </trkpt>
      <trkpt lat="42.8198560" lon="-7.6769500">
        <ele>540.9</ele>
        <time>2020-10-19T08:29:35Z</time>
      </trkpt>
      <trkpt lat="42.8198640" lon="-7.6769600">
        <ele>540.9</ele>
        <time>2020-10-19T08:29:36Z</time>
      </trkpt>
      <trkpt lat="42.8198720" lon="-7.6769710">
        <ele>540.9</ele>
        <time>2020-10-19T08:29:37Z</time>
      </trkpt>
      <trkpt lat="42.8198790" lon="-7.6769840">
        <ele>540.9</ele>
        <time>2020-10-19T08:29:38Z</time>
      </trkpt>
      <trkpt lat="42.8198860" lon="-7.6769970">
        <ele>540.9</ele>
        <time>2020-10-19T08:29:39Z</time>
      </trkpt>
      <trkpt lat="42.8198940" lon="-7.6770100">
        <ele>540.9</ele>
        <time>2020-10-19T08:29:40Z</time>
      </trkpt>
      <trkpt lat="42.8199010" lon="-7.6770240">
        <ele>540.9</ele>
        <time>2020-10-19T08:29:41Z</time>
      </trkpt>
      <trkpt lat="42.8199090" lon="-7.6770390">
        <ele>540.9</ele>
        <time>2020-10-19T08:29:42Z</time>
      </trkpt>
      <trkpt lat="42.8199160" lon="-7.6770530">
        <ele>540.9</ele>
        <time>2020-10-19T08:29:43Z</time>
      </trkpt>
      <trkpt lat="42.8199230" lon="-7.6770660">
        <ele>540.9</ele>
        <time>2020-10-19T08:29:44Z</time>
      </trkpt>
      <trkpt lat="42.8199280" lon="-7.6770780">
        <ele>540.9</ele>
        <time>2020-10-19T08:29:45Z</time>
      </trkpt>
      <trkpt lat="42.8199340" lon="-7.6770920">
        <ele>540.9</ele>
        <time>2020-10-19T08:29:46Z</time>
      </trkpt>
      <trkpt lat="42.8199410" lon="-7.6771060">
        <ele>540.9</ele>
        <time>2020-10-19T08:29:47Z</time>
      </trkpt>
      <trkpt lat="42.8199500" lon="-7.6771210">
        <ele>540.9</ele>
        <time>2020-10-19T08:29:48Z</time>
      </trkpt>
      <trkpt lat="42.8199600" lon="-7.6771350">
        <ele>540.9</ele>
        <time>2020-10-19T08:29:49Z</time>
      </trkpt>
      <trkpt lat="42.8199700" lon="-7.6771480">
        <ele>540.9</ele>
        <time>2020-10-19T08:29:50Z</time>
      </trkpt>
      <trkpt lat="42.8199780" lon="-7.6771620">
        <ele>540.9</ele>
        <time>2020-10-19T08:29:51Z</time>
      </trkpt>
      <trkpt lat="42.8199860" lon="-7.6771750">
        <ele>541.0</ele>
        <time>2020-10-19T08:29:52Z</time>
      </trkpt>
      <trkpt lat="42.8199930" lon="-7.6771880">
        <ele>541.0</ele>
        <time>2020-10-19T08:29:53Z</time>
      </trkpt>
      <trkpt lat="42.8199990" lon="-7.6771990">
        <ele>541.0</ele>
        <time>2020-10-19T08:29:54Z</time>
      </trkpt>
      <trkpt lat="42.8200060" lon="-7.6772120">
        <ele>541.0</ele>
        <time>2020-10-19T08:29:55Z</time>
      </trkpt>
      <trkpt lat="42.8200150" lon="-7.6772250">
        <ele>541.0</ele>
        <time>2020-10-19T08:29:56Z</time>
      </trkpt>
      <trkpt lat="42.8200230" lon="-7.6772380">
        <ele>541.0</ele>
        <time>2020-10-19T08:29:57Z</time>
      </trkpt>
      <trkpt lat="42.8200300" lon="-7.6772500">
        <ele>541.0</ele>
        <time>2020-10-19T08:29:58Z</time>
      </trkpt>
      <trkpt lat="42.8200360" lon="-7.6772630">
        <ele>541.0</ele>
        <time>2020-10-19T08:29:59Z</time>
      </trkpt>
      <trkpt lat="42.8200420" lon="-7.6772770">
        <ele>541.0</ele>
        <time>2020-10-19T08:30:00Z</time>
      </trkpt>
      <trkpt lat="42.8200480" lon="-7.6772910">
        <ele>541.0</ele>
        <time>2020-10-19T08:30:01Z</time>
      </trkpt>
      <trkpt lat="42.8200560" lon="-7.6773040">
        <ele>541.0</ele>
        <time>2020-10-19T08:30:02Z</time>
      </trkpt>
      <trkpt lat="42.8200630" lon="-7.6773170">
        <ele>541.0</ele>
        <time>2020-10-19T08:30:03Z</time>
      </trkpt>
      <trkpt lat="42.8200700" lon="-7.6773300">
        <ele>541.0</ele>
        <time>2020-10-19T08:30:04Z</time>
      </trkpt>
      <trkpt lat="42.8200760" lon="-7.6773450">
        <ele>541.0</ele>
        <time>2020-10-19T08:30:05Z</time>
      </trkpt>
      <trkpt lat="42.8200820" lon="-7.6773590">
        <ele>541.0</ele>
        <time>2020-10-19T08:30:06Z</time>
      </trkpt>
      <trkpt lat="42.8200890" lon="-7.6773730">
        <ele>541.0</ele>
        <time>2020-10-19T08:30:07Z</time>
      </trkpt>
      <trkpt lat="42.8200960" lon="-7.6773860">
        <ele>541.0</ele>
        <time>2020-10-19T08:30:08Z</time>
      </trkpt>
      <trkpt lat="42.8201040" lon="-7.6773990">
        <ele>541.1</ele>
        <time>2020-10-19T08:30:09Z</time>
      </trkpt>
      <trkpt lat="42.8201120" lon="-7.6774120">
        <ele>541.1</ele>
        <time>2020-10-19T08:30:10Z</time>
      </trkpt>
      <trkpt lat="42.8201190" lon="-7.6774250">
        <ele>541.1</ele>
        <time>2020-10-19T08:30:11Z</time>
      </trkpt>
      <trkpt lat="42.8201260" lon="-7.6774380">
        <ele>541.1</ele>
        <time>2020-10-19T08:30:12Z</time>
      </trkpt>
      <trkpt lat="42.8201320" lon="-7.6774530">
        <ele>541.1</ele>
        <time>2020-10-19T08:30:13Z</time>
      </trkpt>
      <trkpt lat="42.8201370" lon="-7.6774670">
        <ele>541.1</ele>
        <time>2020-10-19T08:30:14Z</time>
      </trkpt>
      <trkpt lat="42.8201420" lon="-7.6774810">
        <ele>541.1</ele>
        <time>2020-10-19T08:30:15Z</time>
      </trkpt>
      <trkpt lat="42.8201480" lon="-7.6774930">
        <ele>541.1</ele>
        <time>2020-10-19T08:30:16Z</time>
      </trkpt>
      <trkpt lat="42.8201550" lon="-7.6775050">
        <ele>541.1</ele>
        <time>2020-10-19T08:30:17Z</time>
      </trkpt>
      <trkpt lat="42.8201620" lon="-7.6775190">
        <ele>541.1</ele>
        <time>2020-10-19T08:30:18Z</time>
      </trkpt>
      <trkpt lat="42.8201690" lon="-7.6775340">
        <ele>541.1</ele>
        <time>2020-10-19T08:30:19Z</time>
      </trkpt>
      <trkpt lat="42.8201750" lon="-7.6775490">
        <ele>541.2</ele>
        <time>2020-10-19T08:30:20Z</time>
      </trkpt>
      <trkpt lat="42.8201800" lon="-7.6775630">
        <ele>541.2</ele>
        <time>2020-10-19T08:30:21Z</time>
      </trkpt>
      <trkpt lat="42.8201860" lon="-7.6775780">
        <ele>541.2</ele>
        <time>2020-10-19T08:30:22Z</time>
      </trkpt>
      <trkpt lat="42.8201910" lon="-7.6775930">
        <ele>541.2</ele>
        <time>2020-10-19T08:30:23Z</time>
      </trkpt>
      <trkpt lat="42.8201950" lon="-7.6776090">
        <ele>541.2</ele>
        <time>2020-10-19T08:30:24Z</time>
      </trkpt>
      <trkpt lat="42.8201990" lon="-7.6776240">
        <ele>541.3</ele>
        <time>2020-10-19T08:30:25Z</time>
      </trkpt>
      <trkpt lat="42.8202020" lon="-7.6776400">
        <ele>541.3</ele>
        <time>2020-10-19T08:30:26Z</time>
      </trkpt>
      <trkpt lat="42.8202040" lon="-7.6776550">
        <ele>541.3</ele>
        <time>2020-10-19T08:30:27Z</time>
      </trkpt>
      <trkpt lat="42.8202070" lon="-7.6776700">
        <ele>541.3</ele>
        <time>2020-10-19T08:30:28Z</time>
      </trkpt>
      <trkpt lat="42.8202080" lon="-7.6776850">
        <ele>541.4</ele>
        <time>2020-10-19T08:30:29Z</time>
      </trkpt>
      <trkpt lat="42.8202100" lon="-7.6776990">
        <ele>541.4</ele>
        <time>2020-10-19T08:30:30Z</time>
      </trkpt>
      <trkpt lat="42.8202110" lon="-7.6777140">
        <ele>541.4</ele>
        <time>2020-10-19T08:30:31Z</time>
      </trkpt>
      <trkpt lat="42.8202120" lon="-7.6777290">
        <ele>541.4</ele>
        <time>2020-10-19T08:30:32Z</time>
      </trkpt>
      <trkpt lat="42.8202140" lon="-7.6777460">
        <ele>541.5</ele>
        <time>2020-10-19T08:30:33Z</time>
      </trkpt>
      <trkpt lat="42.8202160" lon="-7.6777630">
        <ele>541.5</ele>
        <time>2020-10-19T08:30:34Z</time>
      </trkpt>
      <trkpt lat="42.8202180" lon="-7.6777800">
        <ele>541.5</ele>
        <time>2020-10-19T08:30:35Z</time>
      </trkpt>
      <trkpt lat="42.8202210" lon="-7.6777970">
        <ele>541.6</ele>
        <time>2020-10-19T08:30:36Z</time>
      </trkpt>
      <trkpt lat="42.8202230" lon="-7.6778130">
        <ele>541.6</ele>
        <time>2020-10-19T08:30:37Z</time>
      </trkpt>
      <trkpt lat="42.8202250" lon="-7.6778270">
        <ele>541.6</ele>
        <time>2020-10-19T08:30:38Z</time>
      </trkpt>
      <trkpt lat="42.8202280" lon="-7.6778430">
        <ele>541.7</ele>
        <time>2020-10-19T08:30:39Z</time>
      </trkpt>
      <trkpt lat="42.8202290" lon="-7.6778590">
        <ele>541.7</ele>
        <time>2020-10-19T08:30:40Z</time>
      </trkpt>
      <trkpt lat="42.8202310" lon="-7.6778750">
        <ele>541.7</ele>
        <time>2020-10-19T08:30:41Z</time>
      </trkpt>
      <trkpt lat="42.8202330" lon="-7.6778900">
        <ele>541.8</ele>
        <time>2020-10-19T08:30:42Z</time>
      </trkpt>
      <trkpt lat="42.8202360" lon="-7.6779040">
        <ele>541.8</ele>
        <time>2020-10-19T08:30:43Z</time>
      </trkpt>
      <trkpt lat="42.8202400" lon="-7.6779170">
        <ele>541.8</ele>
        <time>2020-10-19T08:30:44Z</time>
      </trkpt>
      <trkpt lat="42.8202440" lon="-7.6779300">
        <ele>541.8</ele>
        <time>2020-10-19T08:30:45Z</time>
      </trkpt>
      <trkpt lat="42.8202470" lon="-7.6779420">
        <ele>541.9</ele>
        <time>2020-10-19T08:30:46Z</time>
      </trkpt>
      <trkpt lat="42.8202490" lon="-7.6779540">
        <ele>541.9</ele>
        <time>2020-10-19T08:30:47Z</time>
      </trkpt>
      <trkpt lat="42.8202500" lon="-7.6779650">
        <ele>541.9</ele>
        <time>2020-10-19T08:30:48Z</time>
      </trkpt>
      <trkpt lat="42.8202490" lon="-7.6779780">
        <ele>541.9</ele>
        <time>2020-10-19T08:30:49Z</time>
      </trkpt>
      <trkpt lat="42.8202470" lon="-7.6779930">
        <ele>541.9</ele>
        <time>2020-10-19T08:30:50Z</time>
      </trkpt>
      <trkpt lat="42.8202460" lon="-7.6780100">
        <ele>542.0</ele>
        <time>2020-10-19T08:30:51Z</time>
      </trkpt>
      <trkpt lat="42.8202470" lon="-7.6780230">
        <ele>542.0</ele>
        <time>2020-10-19T08:30:52Z</time>
      </trkpt>
      <trkpt lat="42.8202510" lon="-7.6780360">
        <ele>542.0</ele>
        <time>2020-10-19T08:30:53Z</time>
      </trkpt>
      <trkpt lat="42.8202540" lon="-7.6780480">
        <ele>542.0</ele>
        <time>2020-10-19T08:30:54Z</time>
      </trkpt>
      <trkpt lat="42.8202580" lon="-7.6780630">
        <ele>542.0</ele>
        <time>2020-10-19T08:30:55Z</time>
      </trkpt>
      <trkpt lat="42.8202630" lon="-7.6780770">
        <ele>542.1</ele>
        <time>2020-10-19T08:30:56Z</time>
      </trkpt>
      <trkpt lat="42.8202720" lon="-7.6780920">
        <ele>542.1</ele>
        <time>2020-10-19T08:30:57Z</time>
      </trkpt>
      <trkpt lat="42.8202820" lon="-7.6781070">
        <ele>542.1</ele>
        <time>2020-10-19T08:30:58Z</time>
      </trkpt>
      <trkpt lat="42.8202940" lon="-7.6781190">
        <ele>542.2</ele>
        <time>2020-10-19T08:30:59Z</time>
      </trkpt>
      <trkpt lat="42.8203050" lon="-7.6781310">
        <ele>542.2</ele>
        <time>2020-10-19T08:31:00Z</time>
      </trkpt>
      <trkpt lat="42.8203150" lon="-7.6781430">
        <ele>542.2</ele>
        <time>2020-10-19T08:31:01Z</time>
      </trkpt>
      <trkpt lat="42.8203260" lon="-7.6781570">
        <ele>542.3</ele>
        <time>2020-10-19T08:31:02Z</time>
      </trkpt>
      <trkpt lat="42.8203370" lon="-7.6781730">
        <ele>542.3</ele>
        <time>2020-10-19T08:31:03Z</time>
      </trkpt>
      <trkpt lat="42.8203470" lon="-7.6781850">
        <ele>542.3</ele>
        <time>2020-10-19T08:31:04Z</time>
      </trkpt>
      <trkpt lat="42.8203560" lon="-7.6781970">
        <ele>542.4</ele>
        <time>2020-10-19T08:31:05Z</time>
      </trkpt>
      <trkpt lat="42.8203640" lon="-7.6782090">
        <ele>542.4</ele>
        <time>2020-10-19T08:31:06Z</time>
      </trkpt>
      <trkpt lat="42.8203740" lon="-7.6782220">
        <ele>542.4</ele>
        <time>2020-10-19T08:31:07Z</time>
      </trkpt>
      <trkpt lat="42.8203840" lon="-7.6782330">
        <ele>542.4</ele>
        <time>2020-10-19T08:31:08Z</time>
      </trkpt>
      <trkpt lat="42.8203930" lon="-7.6782440">
        <ele>542.5</ele>
        <time>2020-10-19T08:31:09Z</time>
      </trkpt>
      <trkpt lat="42.8204050" lon="-7.6782550">
        <ele>542.5</ele>
        <time>2020-10-19T08:31:10Z</time>
      </trkpt>
      <trkpt lat="42.8204150" lon="-7.6782660">
        <ele>542.6</ele>
        <time>2020-10-19T08:31:11Z</time>
      </trkpt>
      <trkpt lat="42.8204270" lon="-7.6782780">
        <ele>542.6</ele>
        <time>2020-10-19T08:31:12Z</time>
      </trkpt>
      <trkpt lat="42.8204370" lon="-7.6782900">
        <ele>542.6</ele>
        <time>2020-10-19T08:31:13Z</time>
      </trkpt>
      <trkpt lat="42.8204460" lon="-7.6783020">
        <ele>542.7</ele>
        <time>2020-10-19T08:31:14Z</time>
      </trkpt>
      <trkpt lat="42.8204540" lon="-7.6783130">
        <ele>542.7</ele>
        <time>2020-10-19T08:31:15Z</time>
      </trkpt>
      <trkpt lat="42.8204620" lon="-7.6783240">
        <ele>542.7</ele>
        <time>2020-10-19T08:31:16Z</time>
      </trkpt>
      <trkpt lat="42.8204730" lon="-7.6783330">
        <ele>542.8</ele>
        <time>2020-10-19T08:31:17Z</time>
      </trkpt>
      <trkpt lat="42.8204830" lon="-7.6783440">
        <ele>542.8</ele>
        <time>2020-10-19T08:31:18Z</time>
      </trkpt>
      <trkpt lat="42.8204920" lon="-7.6783560">
        <ele>542.9</ele>
        <time>2020-10-19T08:31:19Z</time>
      </trkpt>
      <trkpt lat="42.8205000" lon="-7.6783700">
        <ele>542.9</ele>
        <time>2020-10-19T08:31:20Z</time>
      </trkpt>
      <trkpt lat="42.8205070" lon="-7.6783840">
        <ele>542.9</ele>
        <time>2020-10-19T08:31:21Z</time>
      </trkpt>
      <trkpt lat="42.8205150" lon="-7.6783980">
        <ele>543.0</ele>
        <time>2020-10-19T08:31:22Z</time>
      </trkpt>
      <trkpt lat="42.8205220" lon="-7.6784090">
        <ele>543.0</ele>
        <time>2020-10-19T08:31:23Z</time>
      </trkpt>
      <trkpt lat="42.8205290" lon="-7.6784190">
        <ele>543.0</ele>
        <time>2020-10-19T08:31:24Z</time>
      </trkpt>
      <trkpt lat="42.8205370" lon="-7.6784300">
        <ele>543.1</ele>
        <time>2020-10-19T08:31:25Z</time>
      </trkpt>
      <trkpt lat="42.8205460" lon="-7.6784390">
        <ele>543.1</ele>
        <time>2020-10-19T08:31:26Z</time>
      </trkpt>
      <trkpt lat="42.8205550" lon="-7.6784490">
        <ele>543.1</ele>
        <time>2020-10-19T08:31:27Z</time>
      </trkpt>
      <trkpt lat="42.8205630" lon="-7.6784580">
        <ele>543.1</ele>
        <time>2020-10-19T08:31:28Z</time>
      </trkpt>
      <trkpt lat="42.8205710" lon="-7.6784690">
        <ele>543.2</ele>
        <time>2020-10-19T08:31:29Z</time>
      </trkpt>
      <trkpt lat="42.8205800" lon="-7.6784790">
        <ele>543.2</ele>
        <time>2020-10-19T08:31:30Z</time>
      </trkpt>
      <trkpt lat="42.8205890" lon="-7.6784900">
        <ele>543.2</ele>
        <time>2020-10-19T08:31:31Z</time>
      </trkpt>
      <trkpt lat="42.8205990" lon="-7.6785010">
        <ele>543.3</ele>
        <time>2020-10-19T08:31:32Z</time>
      </trkpt>
      <trkpt lat="42.8206080" lon="-7.6785130">
        <ele>543.3</ele>
        <time>2020-10-19T08:31:33Z</time>
      </trkpt>
      <trkpt lat="42.8206180" lon="-7.6785240">
        <ele>543.3</ele>
        <time>2020-10-19T08:31:34Z</time>
      </trkpt>
      <trkpt lat="42.8206280" lon="-7.6785350">
        <ele>543.4</ele>
        <time>2020-10-19T08:31:35Z</time>
      </trkpt>
      <trkpt lat="42.8206370" lon="-7.6785470">
        <ele>543.4</ele>
        <time>2020-10-19T08:31:36Z</time>
      </trkpt>
      <trkpt lat="42.8206470" lon="-7.6785580">
        <ele>543.4</ele>
        <time>2020-10-19T08:31:37Z</time>
      </trkpt>
      <trkpt lat="42.8206570" lon="-7.6785700">
        <ele>543.5</ele>
        <time>2020-10-19T08:31:38Z</time>
      </trkpt>
      <trkpt lat="42.8206670" lon="-7.6785830">
        <ele>543.5</ele>
        <time>2020-10-19T08:31:39Z</time>
      </trkpt>
      <trkpt lat="42.8206760" lon="-7.6785970">
        <ele>543.5</ele>
        <time>2020-10-19T08:31:40Z</time>
      </trkpt>
      <trkpt lat="42.8206850" lon="-7.6786100">
        <ele>543.6</ele>
        <time>2020-10-19T08:31:41Z</time>
      </trkpt>
      <trkpt lat="42.8206940" lon="-7.6786240">
        <ele>543.6</ele>
        <time>2020-10-19T08:31:42Z</time>
      </trkpt>
      <trkpt lat="42.8207040" lon="-7.6786360">
        <ele>543.7</ele>
        <time>2020-10-19T08:31:43Z</time>
      </trkpt>
      <trkpt lat="42.8207150" lon="-7.6786490">
        <ele>543.7</ele>
        <time>2020-10-19T08:31:44Z</time>
      </trkpt>
      <trkpt lat="42.8207250" lon="-7.6786600">
        <ele>543.8</ele>
        <time>2020-10-19T08:31:45Z</time>
      </trkpt>
      <trkpt lat="42.8207340" lon="-7.6786720">
        <ele>543.8</ele>
        <time>2020-10-19T08:31:46Z</time>
      </trkpt>
      <trkpt lat="42.8207430" lon="-7.6786830">
        <ele>543.9</ele>
        <time>2020-10-19T08:31:47Z</time>
      </trkpt>
      <trkpt lat="42.8207510" lon="-7.6786960">
        <ele>543.9</ele>
        <time>2020-10-19T08:31:48Z</time>
      </trkpt>
      <trkpt lat="42.8207590" lon="-7.6787090">
        <ele>544.0</ele>
        <time>2020-10-19T08:31:49Z</time>
      </trkpt>
      <trkpt lat="42.8207670" lon="-7.6787220">
        <ele>544.0</ele>
        <time>2020-10-19T08:31:50Z</time>
      </trkpt>
      <trkpt lat="42.8207750" lon="-7.6787360">
        <ele>544.1</ele>
        <time>2020-10-19T08:31:51Z</time>
      </trkpt>
      <trkpt lat="42.8207820" lon="-7.6787500">
        <ele>544.2</ele>
        <time>2020-10-19T08:31:52Z</time>
      </trkpt>
      <trkpt lat="42.8207900" lon="-7.6787640">
        <ele>544.2</ele>
        <time>2020-10-19T08:31:53Z</time>
      </trkpt>
      <trkpt lat="42.8207980" lon="-7.6787760">
        <ele>544.3</ele>
        <time>2020-10-19T08:31:54Z</time>
      </trkpt>
      <trkpt lat="42.8208060" lon="-7.6787890">
        <ele>544.3</ele>
        <time>2020-10-19T08:31:55Z</time>
      </trkpt>
      <trkpt lat="42.8208150" lon="-7.6788020">
        <ele>544.4</ele>
        <time>2020-10-19T08:31:56Z</time>
      </trkpt>
      <trkpt lat="42.8208240" lon="-7.6788150">
        <ele>544.5</ele>
        <time>2020-10-19T08:31:57Z</time>
      </trkpt>
      <trkpt lat="42.8208310" lon="-7.6788290">
        <ele>544.6</ele>
        <time>2020-10-19T08:31:58Z</time>
      </trkpt>
      <trkpt lat="42.8208390" lon="-7.6788420">
        <ele>544.6</ele>
        <time>2020-10-19T08:31:59Z</time>
      </trkpt>
      <trkpt lat="42.8208460" lon="-7.6788540">
        <ele>544.7</ele>
        <time>2020-10-19T08:32:00Z</time>
      </trkpt>
      <trkpt lat="42.8208530" lon="-7.6788660">
        <ele>544.7</ele>
        <time>2020-10-19T08:32:01Z</time>
      </trkpt>
      <trkpt lat="42.8208600" lon="-7.6788770">
        <ele>544.8</ele>
        <time>2020-10-19T08:32:02Z</time>
      </trkpt>
      <trkpt lat="42.8208670" lon="-7.6788880">
        <ele>544.9</ele>
        <time>2020-10-19T08:32:03Z</time>
      </trkpt>
      <trkpt lat="42.8208730" lon="-7.6789000">
        <ele>544.9</ele>
        <time>2020-10-19T08:32:04Z</time>
      </trkpt>
      <trkpt lat="42.8208810" lon="-7.6789130">
        <ele>545.0</ele>
        <time>2020-10-19T08:32:05Z</time>
      </trkpt>
      <trkpt lat="42.8208890" lon="-7.6789280">
        <ele>545.0</ele>
        <time>2020-10-19T08:32:06Z</time>
      </trkpt>
      <trkpt lat="42.8208960" lon="-7.6789420">
        <ele>545.1</ele>
        <time>2020-10-19T08:32:07Z</time>
      </trkpt>
      <trkpt lat="42.8209050" lon="-7.6789570">
        <ele>545.2</ele>
        <time>2020-10-19T08:32:08Z</time>
      </trkpt>
      <trkpt lat="42.8209120" lon="-7.6789700">
        <ele>545.3</ele>
        <time>2020-10-19T08:32:09Z</time>
      </trkpt>
      <trkpt lat="42.8209200" lon="-7.6789830">
        <ele>545.3</ele>
        <time>2020-10-19T08:32:10Z</time>
      </trkpt>
      <trkpt lat="42.8209270" lon="-7.6789960">
        <ele>545.4</ele>
        <time>2020-10-19T08:32:11Z</time>
      </trkpt>
      <trkpt lat="42.8209330" lon="-7.6790090">
        <ele>545.4</ele>
        <time>2020-10-19T08:32:12Z</time>
      </trkpt>
      <trkpt lat="42.8209390" lon="-7.6790220">
        <ele>545.5</ele>
        <time>2020-10-19T08:32:13Z</time>
      </trkpt>
      <trkpt lat="42.8209450" lon="-7.6790360">
        <ele>545.6</ele>
        <time>2020-10-19T08:32:14Z</time>
      </trkpt>
      <trkpt lat="42.8209520" lon="-7.6790490">
        <ele>545.6</ele>
        <time>2020-10-19T08:32:15Z</time>
      </trkpt>
      <trkpt lat="42.8209600" lon="-7.6790630">
        <ele>545.7</ele>
        <time>2020-10-19T08:32:16Z</time>
      </trkpt>
      <trkpt lat="42.8209680" lon="-7.6790760">
        <ele>545.7</ele>
        <time>2020-10-19T08:32:17Z</time>
      </trkpt>
      <trkpt lat="42.8209750" lon="-7.6790900">
        <ele>545.8</ele>
        <time>2020-10-19T08:32:18Z</time>
      </trkpt>
      <trkpt lat="42.8209810" lon="-7.6791030">
        <ele>545.8</ele>
        <time>2020-10-19T08:32:19Z</time>
      </trkpt>
      <trkpt lat="42.8209870" lon="-7.6791170">
        <ele>545.9</ele>
        <time>2020-10-19T08:32:20Z</time>
      </trkpt>
      <trkpt lat="42.8209920" lon="-7.6791290">
        <ele>545.9</ele>
        <time>2020-10-19T08:32:21Z</time>
      </trkpt>
      <trkpt lat="42.8209980" lon="-7.6791420">
        <ele>545.9</ele>
        <time>2020-10-19T08:32:22Z</time>
      </trkpt>
      <trkpt lat="42.8210030" lon="-7.6791550">
        <ele>546.0</ele>
        <time>2020-10-19T08:32:23Z</time>
      </trkpt>
      <trkpt lat="42.8210100" lon="-7.6791690">
        <ele>546.0</ele>
        <time>2020-10-19T08:32:24Z</time>
      </trkpt>
      <trkpt lat="42.8210160" lon="-7.6791840">
        <ele>546.0</ele>
        <time>2020-10-19T08:32:25Z</time>
      </trkpt>
      <trkpt lat="42.8210220" lon="-7.6791980">
        <ele>546.1</ele>
        <time>2020-10-19T08:32:26Z</time>
      </trkpt>
      <trkpt lat="42.8210280" lon="-7.6792110">
        <ele>546.1</ele>
        <time>2020-10-19T08:32:27Z</time>
      </trkpt>
      <trkpt lat="42.8210330" lon="-7.6792260">
        <ele>546.1</ele>
        <time>2020-10-19T08:32:28Z</time>
      </trkpt>
      <trkpt lat="42.8210370" lon="-7.6792410">
        <ele>546.1</ele>
        <time>2020-10-19T08:32:29Z</time>
      </trkpt>
      <trkpt lat="42.8210400" lon="-7.6792570">
        <ele>546.2</ele>
        <time>2020-10-19T08:32:30Z</time>
      </trkpt>
      <trkpt lat="42.8210420" lon="-7.6792740">
        <ele>546.2</ele>
        <time>2020-10-19T08:32:31Z</time>
      </trkpt>
      <trkpt lat="42.8210440" lon="-7.6792900">
        <ele>546.2</ele>
        <time>2020-10-19T08:32:32Z</time>
      </trkpt>
      <trkpt lat="42.8210460" lon="-7.6793070">
        <ele>546.2</ele>
        <time>2020-10-19T08:32:33Z</time>
      </trkpt>
      <trkpt lat="42.8210490" lon="-7.6793220">
        <ele>546.2</ele>
        <time>2020-10-19T08:32:34Z</time>
      </trkpt>
      <trkpt lat="42.8210520" lon="-7.6793370">
        <ele>546.2</ele>
        <time>2020-10-19T08:32:35Z</time>
      </trkpt>
      <trkpt lat="42.8210540" lon="-7.6793520">
        <ele>546.2</ele>
        <time>2020-10-19T08:32:36Z</time>
      </trkpt>
      <trkpt lat="42.8210550" lon="-7.6793680">
        <ele>546.2</ele>
        <time>2020-10-19T08:32:37Z</time>
      </trkpt>
      <trkpt lat="42.8210590" lon="-7.6793860">
        <ele>546.2</ele>
        <time>2020-10-19T08:32:38Z</time>
      </trkpt>
      <trkpt lat="42.8210620" lon="-7.6794040">
        <ele>546.2</ele>
        <time>2020-10-19T08:32:39Z</time>
      </trkpt>
      <trkpt lat="42.8210670" lon="-7.6794210">
        <ele>546.2</ele>
        <time>2020-10-19T08:32:40Z</time>
      </trkpt>
      <trkpt lat="42.8210700" lon="-7.6794370">
        <ele>546.2</ele>
        <time>2020-10-19T08:32:41Z</time>
      </trkpt>
      <trkpt lat="42.8210740" lon="-7.6794530">
        <ele>546.2</ele>
        <time>2020-10-19T08:32:42Z</time>
      </trkpt>
      <trkpt lat="42.8210790" lon="-7.6794680">
        <ele>546.2</ele>
        <time>2020-10-19T08:32:43Z</time>
      </trkpt>
      <trkpt lat="42.8210830" lon="-7.6794830">
        <ele>546.2</ele>
        <time>2020-10-19T08:32:44Z</time>
      </trkpt>
      <trkpt lat="42.8210870" lon="-7.6794970">
        <ele>546.2</ele>
        <time>2020-10-19T08:32:45Z</time>
      </trkpt>
      <trkpt lat="42.8210910" lon="-7.6795120">
        <ele>546.2</ele>
        <time>2020-10-19T08:32:46Z</time>
      </trkpt>
      <trkpt lat="42.8210960" lon="-7.6795270">
        <ele>546.2</ele>
        <time>2020-10-19T08:32:47Z</time>
      </trkpt>
      <trkpt lat="42.8210990" lon="-7.6795420">
        <ele>546.2</ele>
        <time>2020-10-19T08:32:48Z</time>
      </trkpt>
      <trkpt lat="42.8211020" lon="-7.6795580">
        <ele>546.2</ele>
        <time>2020-10-19T08:32:49Z</time>
      </trkpt>
      <trkpt lat="42.8211050" lon="-7.6795740">
        <ele>546.1</ele>
        <time>2020-10-19T08:32:50Z</time>
      </trkpt>
      <trkpt lat="42.8211090" lon="-7.6795890">
        <ele>546.1</ele>
        <time>2020-10-19T08:32:51Z</time>
      </trkpt>
      <trkpt lat="42.8211120" lon="-7.6796040">
        <ele>546.1</ele>
        <time>2020-10-19T08:32:52Z</time>
      </trkpt>
      <trkpt lat="42.8211160" lon="-7.6796190">
        <ele>546.1</ele>
        <time>2020-10-19T08:32:53Z</time>
      </trkpt>
      <trkpt lat="42.8211190" lon="-7.6796340">
        <ele>546.1</ele>
        <time>2020-10-19T08:32:54Z</time>
      </trkpt>
      <trkpt lat="42.8211220" lon="-7.6796490">
        <ele>546.0</ele>
        <time>2020-10-19T08:32:55Z</time>
      </trkpt>
      <trkpt lat="42.8211260" lon="-7.6796630">
        <ele>546.0</ele>
        <time>2020-10-19T08:32:56Z</time>
      </trkpt>
      <trkpt lat="42.8211290" lon="-7.6796770">
        <ele>546.0</ele>
        <time>2020-10-19T08:32:57Z</time>
      </trkpt>
      <trkpt lat="42.8211330" lon="-7.6796910">
        <ele>546.0</ele>
        <time>2020-10-19T08:32:58Z</time>
      </trkpt>
      <trkpt lat="42.8211370" lon="-7.6797060">
        <ele>545.9</ele>
        <time>2020-10-19T08:32:59Z</time>
      </trkpt>
      <trkpt lat="42.8211400" lon="-7.6797210">
        <ele>545.9</ele>
        <time>2020-10-19T08:33:00Z</time>
      </trkpt>
      <trkpt lat="42.8211430" lon="-7.6797360">
        <ele>545.9</ele>
        <time>2020-10-19T08:33:01Z</time>
      </trkpt>
      <trkpt lat="42.8211470" lon="-7.6797510">
        <ele>545.8</ele>
        <time>2020-10-19T08:33:02Z</time>
      </trkpt>
      <trkpt lat="42.8211500" lon="-7.6797670">
        <ele>545.8</ele>
        <time>2020-10-19T08:33:03Z</time>
      </trkpt>
      <trkpt lat="42.8211540" lon="-7.6797830">
        <ele>545.7</ele>
        <time>2020-10-19T08:33:04Z</time>
      </trkpt>
      <trkpt lat="42.8211570" lon="-7.6797990">
        <ele>545.7</ele>
        <time>2020-10-19T08:33:05Z</time>
      </trkpt>
      <trkpt lat="42.8211600" lon="-7.6798150">
        <ele>545.6</ele>
        <time>2020-10-19T08:33:06Z</time>
      </trkpt>
      <trkpt lat="42.8211640" lon="-7.6798310">
        <ele>545.6</ele>
        <time>2020-10-19T08:33:07Z</time>
      </trkpt>
      <trkpt lat="42.8211680" lon="-7.6798470">
        <ele>545.5</ele>
        <time>2020-10-19T08:33:08Z</time>
      </trkpt>
      <trkpt lat="42.8211720" lon="-7.6798630">
        <ele>545.5</ele>
        <time>2020-10-19T08:33:09Z</time>
      </trkpt>
      <trkpt lat="42.8211750" lon="-7.6798790">
        <ele>545.4</ele>
        <time>2020-10-19T08:33:10Z</time>
      </trkpt>
      <trkpt lat="42.8211780" lon="-7.6798950">
        <ele>545.4</ele>
        <time>2020-10-19T08:33:11Z</time>
      </trkpt>
      <trkpt lat="42.8211810" lon="-7.6799120">
        <ele>545.3</ele>
        <time>2020-10-19T08:33:12Z</time>
      </trkpt>
      <trkpt lat="42.8211840" lon="-7.6799280">
        <ele>545.3</ele>
        <time>2020-10-19T08:33:13Z</time>
      </trkpt>
      <trkpt lat="42.8211870" lon="-7.6799450">
        <ele>545.2</ele>
        <time>2020-10-19T08:33:14Z</time>
      </trkpt>
      <trkpt lat="42.8211900" lon="-7.6799610">
        <ele>545.2</ele>
        <time>2020-10-19T08:33:15Z</time>
      </trkpt>
      <trkpt lat="42.8211920" lon="-7.6799780">
        <ele>545.1</ele>
        <time>2020-10-19T08:33:16Z</time>
      </trkpt>
      <trkpt lat="42.8211950" lon="-7.6799940">
        <ele>545.1</ele>
        <time>2020-10-19T08:33:17Z</time>
      </trkpt>
      <trkpt lat="42.8211970" lon="-7.6800110">
        <ele>545.0</ele>
        <time>2020-10-19T08:33:18Z</time>
      </trkpt>
      <trkpt lat="42.8212000" lon="-7.6800270">
        <ele>544.9</ele>
        <time>2020-10-19T08:33:19Z</time>
      </trkpt>
      <trkpt lat="42.8212030" lon="-7.6800430">
        <ele>544.9</ele>
        <time>2020-10-19T08:33:20Z</time>
      </trkpt>
      <trkpt lat="42.8212050" lon="-7.6800590">
        <ele>544.8</ele>
        <time>2020-10-19T08:33:21Z</time>
      </trkpt>
      <trkpt lat="42.8212070" lon="-7.6800740">
        <ele>544.8</ele>
        <time>2020-10-19T08:33:22Z</time>
      </trkpt>
      <trkpt lat="42.8212100" lon="-7.6800910">
        <ele>544.7</ele>
        <time>2020-10-19T08:33:23Z</time>
      </trkpt>
      <trkpt lat="42.8212130" lon="-7.6801060">
        <ele>544.6</ele>
        <time>2020-10-19T08:33:24Z</time>
      </trkpt>
      <trkpt lat="42.8212150" lon="-7.6801220">
        <ele>544.6</ele>
        <time>2020-10-19T08:33:25Z</time>
      </trkpt>
      <trkpt lat="42.8212170" lon="-7.6801380">
        <ele>544.5</ele>
        <time>2020-10-19T08:33:26Z</time>
      </trkpt>
      <trkpt lat="42.8212190" lon="-7.6801530">
        <ele>544.5</ele>
        <time>2020-10-19T08:33:27Z</time>
      </trkpt>
      <trkpt lat="42.8212220" lon="-7.6801680">
        <ele>544.4</ele>
        <time>2020-10-19T08:33:28Z</time>
      </trkpt>
      <trkpt lat="42.8212250" lon="-7.6801830">
        <ele>544.3</ele>
        <time>2020-10-19T08:33:29Z</time>
      </trkpt>
      <trkpt lat="42.8212280" lon="-7.6801980">
        <ele>544.3</ele>
        <time>2020-10-19T08:33:30Z</time>
      </trkpt>
      <trkpt lat="42.8212310" lon="-7.6802130">
        <ele>544.2</ele>
        <time>2020-10-19T08:33:31Z</time>
      </trkpt>
      <trkpt lat="42.8212330" lon="-7.6802290">
        <ele>544.1</ele>
        <time>2020-10-19T08:33:32Z</time>
      </trkpt>
      <trkpt lat="42.8212340" lon="-7.6802450">
        <ele>544.1</ele>
        <time>2020-10-19T08:33:33Z</time>
      </trkpt>
      <trkpt lat="42.8212350" lon="-7.6802620">
        <ele>544.0</ele>
        <time>2020-10-19T08:33:34Z</time>
      </trkpt>
      <trkpt lat="42.8212360" lon="-7.6802780">
        <ele>543.9</ele>
        <time>2020-10-19T08:33:35Z</time>
      </trkpt>
      <trkpt lat="42.8212380" lon="-7.6802940">
        <ele>543.8</ele>
        <time>2020-10-19T08:33:36Z</time>
      </trkpt>
      <trkpt lat="42.8212400" lon="-7.6803090">
        <ele>543.8</ele>
        <time>2020-10-19T08:33:37Z</time>
      </trkpt>
      <trkpt lat="42.8212440" lon="-7.6803250">
        <ele>543.7</ele>
        <time>2020-10-19T08:33:38Z</time>
      </trkpt>
      <trkpt lat="42.8212470" lon="-7.6803410">
        <ele>543.6</ele>
        <time>2020-10-19T08:33:39Z</time>
      </trkpt>
      <trkpt lat="42.8212500" lon="-7.6803570">
        <ele>543.5</ele>
        <time>2020-10-19T08:33:40Z</time>
      </trkpt>
      <trkpt lat="42.8212520" lon="-7.6803730">
        <ele>543.4</ele>
        <time>2020-10-19T08:33:41Z</time>
      </trkpt>
      <trkpt lat="42.8212550" lon="-7.6803890">
        <ele>543.4</ele>
        <time>2020-10-19T08:33:42Z</time>
      </trkpt>
      <trkpt lat="42.8212580" lon="-7.6804060">
        <ele>543.3</ele>
        <time>2020-10-19T08:33:43Z</time>
      </trkpt>
      <trkpt lat="42.8212600" lon="-7.6804220">
        <ele>543.2</ele>
        <time>2020-10-19T08:33:44Z</time>
      </trkpt>
      <trkpt lat="42.8212620" lon="-7.6804390">
        <ele>543.1</ele>
        <time>2020-10-19T08:33:45Z</time>
      </trkpt>
      <trkpt lat="42.8212650" lon="-7.6804550">
        <ele>543.0</ele>
        <time>2020-10-19T08:33:46Z</time>
      </trkpt>
      <trkpt lat="42.8212660" lon="-7.6804720">
        <ele>542.9</ele>
        <time>2020-10-19T08:33:47Z</time>
      </trkpt>
      <trkpt lat="42.8212680" lon="-7.6804870">
        <ele>542.8</ele>
        <time>2020-10-19T08:33:48Z</time>
      </trkpt>
      <trkpt lat="42.8212700" lon="-7.6805030">
        <ele>542.7</ele>
        <time>2020-10-19T08:33:49Z</time>
      </trkpt>
      <trkpt lat="42.8212730" lon="-7.6805180">
        <ele>542.6</ele>
        <time>2020-10-19T08:33:50Z</time>
      </trkpt>
      <trkpt lat="42.8212750" lon="-7.6805330">
        <ele>542.6</ele>
        <time>2020-10-19T08:33:51Z</time>
      </trkpt>
      <trkpt lat="42.8212780" lon="-7.6805480">
        <ele>542.5</ele>
        <time>2020-10-19T08:33:52Z</time>
      </trkpt>
      <trkpt lat="42.8212810" lon="-7.6805630">
        <ele>542.4</ele>
        <time>2020-10-19T08:33:53Z</time>
      </trkpt>
      <trkpt lat="42.8212840" lon="-7.6805780">
        <ele>542.3</ele>
        <time>2020-10-19T08:33:54Z</time>
      </trkpt>
      <trkpt lat="42.8212870" lon="-7.6805940">
        <ele>542.2</ele>
        <time>2020-10-19T08:33:55Z</time>
      </trkpt>
      <trkpt lat="42.8212900" lon="-7.6806100">
        <ele>542.1</ele>
        <time>2020-10-19T08:33:56Z</time>
      </trkpt>
      <trkpt lat="42.8212920" lon="-7.6806270">
        <ele>542.0</ele>
        <time>2020-10-19T08:33:57Z</time>
      </trkpt>
      <trkpt lat="42.8212950" lon="-7.6806430">
        <ele>541.9</ele>
        <time>2020-10-19T08:33:58Z</time>
      </trkpt>
      <trkpt lat="42.8212970" lon="-7.6806590">
        <ele>541.8</ele>
        <time>2020-10-19T08:33:59Z</time>
      </trkpt>
      <trkpt lat="42.8213000" lon="-7.6806760">
        <ele>541.7</ele>
        <time>2020-10-19T08:34:00Z</time>
      </trkpt>
      <trkpt lat="42.8213030" lon="-7.6806930">
        <ele>541.6</ele>
        <time>2020-10-19T08:34:01Z</time>
      </trkpt>
      <trkpt lat="42.8213060" lon="-7.6807100">
        <ele>541.5</ele>
        <time>2020-10-19T08:34:02Z</time>
      </trkpt>
      <trkpt lat="42.8213080" lon="-7.6807270">
        <ele>541.4</ele>
        <time>2020-10-19T08:34:03Z</time>
      </trkpt>
      <trkpt lat="42.8213110" lon="-7.6807430">
        <ele>541.3</ele>
        <time>2020-10-19T08:34:04Z</time>
      </trkpt>
      <trkpt lat="42.8213130" lon="-7.6807590">
        <ele>541.2</ele>
        <time>2020-10-19T08:34:05Z</time>
      </trkpt>
      <trkpt lat="42.8213170" lon="-7.6807750">
        <ele>541.1</ele>
        <time>2020-10-19T08:34:06Z</time>
      </trkpt>
      <trkpt lat="42.8213210" lon="-7.6807910">
        <ele>541.0</ele>
        <time>2020-10-19T08:34:07Z</time>
      </trkpt>
      <trkpt lat="42.8213240" lon="-7.6808070">
        <ele>540.9</ele>
        <time>2020-10-19T08:34:08Z</time>
      </trkpt>
      <trkpt lat="42.8213270" lon="-7.6808230">
        <ele>540.8</ele>
        <time>2020-10-19T08:34:09Z</time>
      </trkpt>
      <trkpt lat="42.8213310" lon="-7.6808400">
        <ele>540.7</ele>
        <time>2020-10-19T08:34:10Z</time>
      </trkpt>
      <trkpt lat="42.8213360" lon="-7.6808560">
        <ele>540.6</ele>
        <time>2020-10-19T08:34:11Z</time>
      </trkpt>
      <trkpt lat="42.8213400" lon="-7.6808720">
        <ele>540.5</ele>
        <time>2020-10-19T08:34:12Z</time>
      </trkpt>
      <trkpt lat="42.8213440" lon="-7.6808890">
        <ele>540.4</ele>
        <time>2020-10-19T08:34:13Z</time>
      </trkpt>
      <trkpt lat="42.8213470" lon="-7.6809050">
        <ele>540.3</ele>
        <time>2020-10-19T08:34:14Z</time>
      </trkpt>
      <trkpt lat="42.8213500" lon="-7.6809200">
        <ele>540.2</ele>
        <time>2020-10-19T08:34:15Z</time>
      </trkpt>
      <trkpt lat="42.8213520" lon="-7.6809360">
        <ele>540.1</ele>
        <time>2020-10-19T08:34:16Z</time>
      </trkpt>
      <trkpt lat="42.8213560" lon="-7.6809500">
        <ele>540.0</ele>
        <time>2020-10-19T08:34:17Z</time>
      </trkpt>
      <trkpt lat="42.8213600" lon="-7.6809650">
        <ele>539.9</ele>
        <time>2020-10-19T08:34:18Z</time>
      </trkpt>
      <trkpt lat="42.8213650" lon="-7.6809800">
        <ele>539.8</ele>
        <time>2020-10-19T08:34:19Z</time>
      </trkpt>
      <trkpt lat="42.8213700" lon="-7.6809960">
        <ele>539.7</ele>
        <time>2020-10-19T08:34:20Z</time>
      </trkpt>
      <trkpt lat="42.8213730" lon="-7.6810120">
        <ele>539.6</ele>
        <time>2020-10-19T08:34:21Z</time>
      </trkpt>
      <trkpt lat="42.8213750" lon="-7.6810290">
        <ele>539.5</ele>
        <time>2020-10-19T08:34:22Z</time>
      </trkpt>
      <trkpt lat="42.8213780" lon="-7.6810450">
        <ele>539.4</ele>
        <time>2020-10-19T08:34:23Z</time>
      </trkpt>
      <trkpt lat="42.8213820" lon="-7.6810610">
        <ele>539.3</ele>
        <time>2020-10-19T08:34:24Z</time>
      </trkpt>
      <trkpt lat="42.8213860" lon="-7.6810760">
        <ele>539.2</ele>
        <time>2020-10-19T08:34:25Z</time>
      </trkpt>
      <trkpt lat="42.8213890" lon="-7.6810920">
        <ele>539.1</ele>
        <time>2020-10-19T08:34:26Z</time>
      </trkpt>
      <trkpt lat="42.8213910" lon="-7.6811090">
        <ele>539.0</ele>
        <time>2020-10-19T08:34:27Z</time>
      </trkpt>
      <trkpt lat="42.8213920" lon="-7.6811260">
        <ele>538.9</ele>
        <time>2020-10-19T08:34:28Z</time>
      </trkpt>
      <trkpt lat="42.8213940" lon="-7.6811430">
        <ele>538.8</ele>
        <time>2020-10-19T08:34:29Z</time>
      </trkpt>
      <trkpt lat="42.8213960" lon="-7.6811610">
        <ele>538.7</ele>
        <time>2020-10-19T08:34:30Z</time>
      </trkpt>
      <trkpt lat="42.8213990" lon="-7.6811770">
        <ele>538.6</ele>
        <time>2020-10-19T08:34:31Z</time>
      </trkpt>
      <trkpt lat="42.8214020" lon="-7.6811940">
        <ele>538.5</ele>
        <time>2020-10-19T08:34:32Z</time>
      </trkpt>
      <trkpt lat="42.8214040" lon="-7.6812110">
        <ele>538.4</ele>
        <time>2020-10-19T08:34:33Z</time>
      </trkpt>
      <trkpt lat="42.8214060" lon="-7.6812270">
        <ele>538.3</ele>
        <time>2020-10-19T08:34:34Z</time>
      </trkpt>
      <trkpt lat="42.8214070" lon="-7.6812430">
        <ele>538.2</ele>
        <time>2020-10-19T08:34:35Z</time>
      </trkpt>
      <trkpt lat="42.8214090" lon="-7.6812600">
        <ele>538.1</ele>
        <time>2020-10-19T08:34:36Z</time>
      </trkpt>
      <trkpt lat="42.8214100" lon="-7.6812760">
        <ele>538.1</ele>
        <time>2020-10-19T08:34:37Z</time>
      </trkpt>
      <trkpt lat="42.8214120" lon="-7.6812920">
        <ele>538.0</ele>
        <time>2020-10-19T08:34:38Z</time>
      </trkpt>
      <trkpt lat="42.8214130" lon="-7.6813080">
        <ele>537.9</ele>
        <time>2020-10-19T08:34:39Z</time>
      </trkpt>
      <trkpt lat="42.8214130" lon="-7.6813250">
        <ele>537.8</ele>
        <time>2020-10-19T08:34:40Z</time>
      </trkpt>
      <trkpt lat="42.8214140" lon="-7.6813420">
        <ele>537.7</ele>
        <time>2020-10-19T08:34:41Z</time>
      </trkpt>
      <trkpt lat="42.8214140" lon="-7.6813590">
        <ele>537.7</ele>
        <time>2020-10-19T08:34:42Z</time>
      </trkpt>
      <trkpt lat="42.8214150" lon="-7.6813750">
        <ele>537.6</ele>
        <time>2020-10-19T08:34:43Z</time>
      </trkpt>
      <trkpt lat="42.8214170" lon="-7.6813900">
        <ele>537.5</ele>
        <time>2020-10-19T08:34:44Z</time>
      </trkpt>
      <trkpt lat="42.8214210" lon="-7.6814060">
        <ele>537.4</ele>
        <time>2020-10-19T08:34:45Z</time>
      </trkpt>
      <trkpt lat="42.8214240" lon="-7.6814210">
        <ele>537.4</ele>
        <time>2020-10-19T08:34:46Z</time>
      </trkpt>
      <trkpt lat="42.8214280" lon="-7.6814370">
        <ele>537.3</ele>
        <time>2020-10-19T08:34:47Z</time>
      </trkpt>
      <trkpt lat="42.8214330" lon="-7.6814520">
        <ele>537.2</ele>
        <time>2020-10-19T08:34:48Z</time>
      </trkpt>
      <trkpt lat="42.8214360" lon="-7.6814670">
        <ele>537.1</ele>
        <time>2020-10-19T08:34:49Z</time>
      </trkpt>
      <trkpt lat="42.8214380" lon="-7.6814820">
        <ele>537.0</ele>
        <time>2020-10-19T08:34:50Z</time>
      </trkpt>
      <trkpt lat="42.8214400" lon="-7.6814970">
        <ele>537.0</ele>
        <time>2020-10-19T08:34:51Z</time>
      </trkpt>
      <trkpt lat="42.8214400" lon="-7.6815130">
        <ele>536.9</ele>
        <time>2020-10-19T08:34:52Z</time>
      </trkpt>
      <trkpt lat="42.8214400" lon="-7.6815290">
        <ele>536.8</ele>
        <time>2020-10-19T08:34:53Z</time>
      </trkpt>
      <trkpt lat="42.8214410" lon="-7.6815440">
        <ele>536.8</ele>
        <time>2020-10-19T08:34:54Z</time>
      </trkpt>
      <trkpt lat="42.8214410" lon="-7.6815580">
        <ele>536.7</ele>
        <time>2020-10-19T08:34:55Z</time>
      </trkpt>
      <trkpt lat="42.8214410" lon="-7.6815720">
        <ele>536.6</ele>
        <time>2020-10-19T08:34:56Z</time>
      </trkpt>
      <trkpt lat="42.8214410" lon="-7.6815860">
        <ele>536.6</ele>
        <time>2020-10-19T08:34:57Z</time>
      </trkpt>
      <trkpt lat="42.8214440" lon="-7.6816010">
        <ele>536.5</ele>
        <time>2020-10-19T08:34:58Z</time>
      </trkpt>
      <trkpt lat="42.8214460" lon="-7.6816160">
        <ele>536.4</ele>
        <time>2020-10-19T08:34:59Z</time>
      </trkpt>
      <trkpt lat="42.8214500" lon="-7.6816320">
        <ele>536.3</ele>
        <time>2020-10-19T08:35:00Z</time>
      </trkpt>
      <trkpt lat="42.8214540" lon="-7.6816470">
        <ele>536.3</ele>
        <time>2020-10-19T08:35:01Z</time>
      </trkpt>
      <trkpt lat="42.8214580" lon="-7.6816620">
        <ele>536.2</ele>
        <time>2020-10-19T08:35:02Z</time>
      </trkpt>
      <trkpt lat="42.8214610" lon="-7.6816780">
        <ele>536.1</ele>
        <time>2020-10-19T08:35:03Z</time>
      </trkpt>
      <trkpt lat="42.8214630" lon="-7.6816930">
        <ele>536.0</ele>
        <time>2020-10-19T08:35:04Z</time>
      </trkpt>
      <trkpt lat="42.8214650" lon="-7.6817090">
        <ele>536.0</ele>
        <time>2020-10-19T08:35:05Z</time>
      </trkpt>
      <trkpt lat="42.8214690" lon="-7.6817240">
        <ele>535.9</ele>
        <time>2020-10-19T08:35:06Z</time>
      </trkpt>
      <trkpt lat="42.8214730" lon="-7.6817390">
        <ele>535.8</ele>
        <time>2020-10-19T08:35:07Z</time>
      </trkpt>
      <trkpt lat="42.8214770" lon="-7.6817540">
        <ele>535.8</ele>
        <time>2020-10-19T08:35:08Z</time>
      </trkpt>
      <trkpt lat="42.8214800" lon="-7.6817700">
        <ele>535.7</ele>
        <time>2020-10-19T08:35:09Z</time>
      </trkpt>
      <trkpt lat="42.8214830" lon="-7.6817850">
        <ele>535.6</ele>
        <time>2020-10-19T08:35:10Z</time>
      </trkpt>
      <trkpt lat="42.8214840" lon="-7.6818000">
        <ele>535.6</ele>
        <time>2020-10-19T08:35:11Z</time>
      </trkpt>
      <trkpt lat="42.8214850" lon="-7.6818160">
        <ele>535.5</ele>
        <time>2020-10-19T08:35:12Z</time>
      </trkpt>
      <trkpt lat="42.8214860" lon="-7.6818320">
        <ele>535.4</ele>
        <time>2020-10-19T08:35:13Z</time>
      </trkpt>
      <trkpt lat="42.8214880" lon="-7.6818480">
        <ele>535.3</ele>
        <time>2020-10-19T08:35:14Z</time>
      </trkpt>
      <trkpt lat="42.8214910" lon="-7.6818640">
        <ele>535.3</ele>
        <time>2020-10-19T08:35:15Z</time>
      </trkpt>
      <trkpt lat="42.8214940" lon="-7.6818800">
        <ele>535.2</ele>
        <time>2020-10-19T08:35:16Z</time>
      </trkpt>
      <trkpt lat="42.8214960" lon="-7.6818960">
        <ele>535.1</ele>
        <time>2020-10-19T08:35:17Z</time>
      </trkpt>
      <trkpt lat="42.8214980" lon="-7.6819120">
        <ele>535.1</ele>
        <time>2020-10-19T08:35:18Z</time>
      </trkpt>
      <trkpt lat="42.8215000" lon="-7.6819290">
        <ele>535.0</ele>
        <time>2020-10-19T08:35:19Z</time>
      </trkpt>
      <trkpt lat="42.8215040" lon="-7.6819450">
        <ele>534.9</ele>
        <time>2020-10-19T08:35:20Z</time>
      </trkpt>
      <trkpt lat="42.8215070" lon="-7.6819600">
        <ele>534.9</ele>
        <time>2020-10-19T08:35:21Z</time>
      </trkpt>
      <trkpt lat="42.8215090" lon="-7.6819760">
        <ele>534.8</ele>
        <time>2020-10-19T08:35:22Z</time>
      </trkpt>
      <trkpt lat="42.8215110" lon="-7.6819920">
        <ele>534.7</ele>
        <time>2020-10-19T08:35:23Z</time>
      </trkpt>
      <trkpt lat="42.8215120" lon="-7.6820070">
        <ele>534.7</ele>
        <time>2020-10-19T08:35:24Z</time>
      </trkpt>
      <trkpt lat="42.8215120" lon="-7.6820230">
        <ele>534.6</ele>
        <time>2020-10-19T08:35:25Z</time>
      </trkpt>
      <trkpt lat="42.8215120" lon="-7.6820390">
        <ele>534.6</ele>
        <time>2020-10-19T08:35:26Z</time>
      </trkpt>
      <trkpt lat="42.8215120" lon="-7.6820540">
        <ele>534.5</ele>
        <time>2020-10-19T08:35:27Z</time>
      </trkpt>
      <trkpt lat="42.8215130" lon="-7.6820700">
        <ele>534.4</ele>
        <time>2020-10-19T08:35:28Z</time>
      </trkpt>
      <trkpt lat="42.8215150" lon="-7.6820850">
        <ele>534.4</ele>
        <time>2020-10-19T08:35:29Z</time>
      </trkpt>
      <trkpt lat="42.8215200" lon="-7.6821000">
        <ele>534.3</ele>
        <time>2020-10-19T08:35:30Z</time>
      </trkpt>
      <trkpt lat="42.8215240" lon="-7.6821150">
        <ele>534.3</ele>
        <time>2020-10-19T08:35:31Z</time>
      </trkpt>
      <trkpt lat="42.8215260" lon="-7.6821310">
        <ele>534.2</ele>
        <time>2020-10-19T08:35:32Z</time>
      </trkpt>
      <trkpt lat="42.8215290" lon="-7.6821460">
        <ele>534.2</ele>
        <time>2020-10-19T08:35:33Z</time>
      </trkpt>
      <trkpt lat="42.8215320" lon="-7.6821600">
        <ele>534.1</ele>
        <time>2020-10-19T08:35:34Z</time>
      </trkpt>
      <trkpt lat="42.8215350" lon="-7.6821750">
        <ele>534.1</ele>
        <time>2020-10-19T08:35:35Z</time>
      </trkpt>
      <trkpt lat="42.8215380" lon="-7.6821890">
        <ele>534.0</ele>
        <time>2020-10-19T08:35:36Z</time>
      </trkpt>
      <trkpt lat="42.8215400" lon="-7.6822040">
        <ele>534.0</ele>
        <time>2020-10-19T08:35:37Z</time>
      </trkpt>
      <trkpt lat="42.8215440" lon="-7.6822190">
        <ele>533.9</ele>
        <time>2020-10-19T08:35:38Z</time>
      </trkpt>
      <trkpt lat="42.8215470" lon="-7.6822330">
        <ele>533.9</ele>
        <time>2020-10-19T08:35:39Z</time>
      </trkpt>
      <trkpt lat="42.8215510" lon="-7.6822480">
        <ele>533.8</ele>
        <time>2020-10-19T08:35:40Z</time>
      </trkpt>
      <trkpt lat="42.8215540" lon="-7.6822630">
        <ele>533.8</ele>
        <time>2020-10-19T08:35:41Z</time>
      </trkpt>
      <trkpt lat="42.8215580" lon="-7.6822770">
        <ele>533.8</ele>
        <time>2020-10-19T08:35:42Z</time>
      </trkpt>
      <trkpt lat="42.8215610" lon="-7.6822910">
        <ele>533.7</ele>
        <time>2020-10-19T08:35:43Z</time>
      </trkpt>
      <trkpt lat="42.8215630" lon="-7.6823050">
        <ele>533.7</ele>
        <time>2020-10-19T08:35:44Z</time>
      </trkpt>
      <trkpt lat="42.8215650" lon="-7.6823200">
        <ele>533.7</ele>
        <time>2020-10-19T08:35:45Z</time>
      </trkpt>
      <trkpt lat="42.8215680" lon="-7.6823340">
        <ele>533.6</ele>
        <time>2020-10-19T08:35:46Z</time>
      </trkpt>
      <trkpt lat="42.8215710" lon="-7.6823500">
        <ele>533.6</ele>
        <time>2020-10-19T08:35:47Z</time>
      </trkpt>
      <trkpt lat="42.8215740" lon="-7.6823650">
        <ele>533.6</ele>
        <time>2020-10-19T08:35:48Z</time>
      </trkpt>
      <trkpt lat="42.8215760" lon="-7.6823810">
        <ele>533.5</ele>
        <time>2020-10-19T08:35:49Z</time>
      </trkpt>
      <trkpt lat="42.8215780" lon="-7.6823970">
        <ele>533.5</ele>
        <time>2020-10-19T08:35:50Z</time>
      </trkpt>
      <trkpt lat="42.8215810" lon="-7.6824120">
        <ele>533.5</ele>
        <time>2020-10-19T08:35:51Z</time>
      </trkpt>
      <trkpt lat="42.8215840" lon="-7.6824280">
        <ele>533.4</ele>
        <time>2020-10-19T08:35:52Z</time>
      </trkpt>
      <trkpt lat="42.8215890" lon="-7.6824440">
        <ele>533.4</ele>
        <time>2020-10-19T08:35:53Z</time>
      </trkpt>
      <trkpt lat="42.8215910" lon="-7.6824590">
        <ele>533.4</ele>
        <time>2020-10-19T08:35:54Z</time>
      </trkpt>
      <trkpt lat="42.8215930" lon="-7.6824740">
        <ele>533.4</ele>
        <time>2020-10-19T08:35:55Z</time>
      </trkpt>
      <trkpt lat="42.8215930" lon="-7.6824890">
        <ele>533.3</ele>
        <time>2020-10-19T08:35:56Z</time>
      </trkpt>
      <trkpt lat="42.8215960" lon="-7.6825050">
        <ele>533.3</ele>
        <time>2020-10-19T08:35:57Z</time>
      </trkpt>
      <trkpt lat="42.8215980" lon="-7.6825210">
        <ele>533.3</ele>
        <time>2020-10-19T08:35:58Z</time>
      </trkpt>
      <trkpt lat="42.8216020" lon="-7.6825360">
        <ele>533.3</ele>
        <time>2020-10-19T08:35:59Z</time>
      </trkpt>
      <trkpt lat="42.8216050" lon="-7.6825520">
        <ele>533.2</ele>
        <time>2020-10-19T08:36:00Z</time>
      </trkpt>
      <trkpt lat="42.8216080" lon="-7.6825680">
        <ele>533.2</ele>
        <time>2020-10-19T08:36:01Z</time>
      </trkpt>
      <trkpt lat="42.8216120" lon="-7.6825840">
        <ele>533.2</ele>
        <time>2020-10-19T08:36:02Z</time>
      </trkpt>
      <trkpt lat="42.8216160" lon="-7.6826000">
        <ele>533.2</ele>
        <time>2020-10-19T08:36:03Z</time>
      </trkpt>
      <trkpt lat="42.8216190" lon="-7.6826150">
        <ele>533.1</ele>
        <time>2020-10-19T08:36:04Z</time>
      </trkpt>
      <trkpt lat="42.8216220" lon="-7.6826310">
        <ele>533.1</ele>
        <time>2020-10-19T08:36:05Z</time>
      </trkpt>
      <trkpt lat="42.8216250" lon="-7.6826460">
        <ele>533.1</ele>
        <time>2020-10-19T08:36:06Z</time>
      </trkpt>
      <trkpt lat="42.8216280" lon="-7.6826620">
        <ele>533.1</ele>
        <time>2020-10-19T08:36:07Z</time>
      </trkpt>
      <trkpt lat="42.8216300" lon="-7.6826770">
        <ele>533.1</ele>
        <time>2020-10-19T08:36:08Z</time>
      </trkpt>
      <trkpt lat="42.8216310" lon="-7.6826930">
        <ele>533.1</ele>
        <time>2020-10-19T08:36:09Z</time>
      </trkpt>
      <trkpt lat="42.8216320" lon="-7.6827090">
        <ele>533.0</ele>
        <time>2020-10-19T08:36:10Z</time>
      </trkpt>
      <trkpt lat="42.8216340" lon="-7.6827240">
        <ele>533.0</ele>
        <time>2020-10-19T08:36:11Z</time>
      </trkpt>
      <trkpt lat="42.8216380" lon="-7.6827390">
        <ele>533.0</ele>
        <time>2020-10-19T08:36:12Z</time>
      </trkpt>
      <trkpt lat="42.8216420" lon="-7.6827540">
        <ele>533.0</ele>
        <time>2020-10-19T08:36:13Z</time>
      </trkpt>
      <trkpt lat="42.8216460" lon="-7.6827690">
        <ele>533.0</ele>
        <time>2020-10-19T08:36:14Z</time>
      </trkpt>
      <trkpt lat="42.8216510" lon="-7.6827840">
        <ele>533.0</ele>
        <time>2020-10-19T08:36:15Z</time>
      </trkpt>
      <trkpt lat="42.8216550" lon="-7.6827970">
        <ele>533.0</ele>
        <time>2020-10-19T08:36:16Z</time>
      </trkpt>
      <trkpt lat="42.8216600" lon="-7.6828110">
        <ele>532.9</ele>
        <time>2020-10-19T08:36:17Z</time>
      </trkpt>
      <trkpt lat="42.8216650" lon="-7.6828250">
        <ele>532.9</ele>
        <time>2020-10-19T08:36:18Z</time>
      </trkpt>
      <trkpt lat="42.8216700" lon="-7.6828410">
        <ele>532.9</ele>
        <time>2020-10-19T08:36:19Z</time>
      </trkpt>
      <trkpt lat="42.8216730" lon="-7.6828560">
        <ele>532.9</ele>
        <time>2020-10-19T08:36:20Z</time>
      </trkpt>
      <trkpt lat="42.8216750" lon="-7.6828710">
        <ele>532.9</ele>
        <time>2020-10-19T08:36:21Z</time>
      </trkpt>
      <trkpt lat="42.8216780" lon="-7.6828850">
        <ele>532.9</ele>
        <time>2020-10-19T08:36:22Z</time>
      </trkpt>
      <trkpt lat="42.8216810" lon="-7.6829000">
        <ele>532.9</ele>
        <time>2020-10-19T08:36:23Z</time>
      </trkpt>
      <trkpt lat="42.8216820" lon="-7.6829160">
        <ele>532.9</ele>
        <time>2020-10-19T08:36:24Z</time>
      </trkpt>
      <trkpt lat="42.8216850" lon="-7.6829320">
        <ele>532.9</ele>
        <time>2020-10-19T08:36:25Z</time>
      </trkpt>
      <trkpt lat="42.8216880" lon="-7.6829480">
        <ele>532.9</ele>
        <time>2020-10-19T08:36:26Z</time>
      </trkpt>
      <trkpt lat="42.8216910" lon="-7.6829630">
        <ele>532.9</ele>
        <time>2020-10-19T08:36:27Z</time>
      </trkpt>
      <trkpt lat="42.8216930" lon="-7.6829790">
        <ele>532.8</ele>
        <time>2020-10-19T08:36:28Z</time>
      </trkpt>
      <trkpt lat="42.8216950" lon="-7.6829940">
        <ele>532.8</ele>
        <time>2020-10-19T08:36:29Z</time>
      </trkpt>
      <trkpt lat="42.8216970" lon="-7.6830090">
        <ele>532.8</ele>
        <time>2020-10-19T08:36:30Z</time>
      </trkpt>
      <trkpt lat="42.8216990" lon="-7.6830240">
        <ele>532.8</ele>
        <time>2020-10-19T08:36:31Z</time>
      </trkpt>
      <trkpt lat="42.8216990" lon="-7.6830390">
        <ele>532.8</ele>
        <time>2020-10-19T08:36:32Z</time>
      </trkpt>
      <trkpt lat="42.8217000" lon="-7.6830540">
        <ele>532.8</ele>
        <time>2020-10-19T08:36:33Z</time>
      </trkpt>
      <trkpt lat="42.8217020" lon="-7.6830690">
        <ele>532.8</ele>
        <time>2020-10-19T08:36:34Z</time>
      </trkpt>
      <trkpt lat="42.8217060" lon="-7.6830830">
        <ele>532.8</ele>
        <time>2020-10-19T08:36:35Z</time>
      </trkpt>
      <trkpt lat="42.8217090" lon="-7.6830990">
        <ele>532.8</ele>
        <time>2020-10-19T08:36:36Z</time>
      </trkpt>
      <trkpt lat="42.8217110" lon="-7.6831140">
        <ele>532.8</ele>
        <time>2020-10-19T08:36:37Z</time>
      </trkpt>
      <trkpt lat="42.8217140" lon="-7.6831300">
        <ele>532.8</ele>
        <time>2020-10-19T08:36:38Z</time>
      </trkpt>
      <trkpt lat="42.8217150" lon="-7.6831450">
        <ele>532.8</ele>
        <time>2020-10-19T08:36:39Z</time>
      </trkpt>
      <trkpt lat="42.8217160" lon="-7.6831590">
        <ele>532.8</ele>
        <time>2020-10-19T08:36:40Z</time>
      </trkpt>
      <trkpt lat="42.8217170" lon="-7.6831720">
        <ele>532.8</ele>
        <time>2020-10-19T08:36:41Z</time>
      </trkpt>
      <trkpt lat="42.8217190" lon="-7.6831870">
        <ele>532.9</ele>
        <time>2020-10-19T08:36:42Z</time>
      </trkpt>
      <trkpt lat="42.8217220" lon="-7.6832030">
        <ele>532.9</ele>
        <time>2020-10-19T08:36:43Z</time>
      </trkpt>
      <trkpt lat="42.8217240" lon="-7.6832200">
        <ele>532.9</ele>
        <time>2020-10-19T08:36:44Z</time>
      </trkpt>
      <trkpt lat="42.8217270" lon="-7.6832350">
        <ele>532.9</ele>
        <time>2020-10-19T08:36:45Z</time>
      </trkpt>
      <trkpt lat="42.8217270" lon="-7.6832500">
        <ele>532.9</ele>
        <time>2020-10-19T08:36:46Z</time>
      </trkpt>
      <trkpt lat="42.8217290" lon="-7.6832660">
        <ele>532.9</ele>
        <time>2020-10-19T08:36:47Z</time>
      </trkpt>
      <trkpt lat="42.8217300" lon="-7.6832820">
        <ele>532.9</ele>
        <time>2020-10-19T08:36:48Z</time>
      </trkpt>
      <trkpt lat="42.8217310" lon="-7.6832990">
        <ele>532.9</ele>
        <time>2020-10-19T08:36:49Z</time>
      </trkpt>
      <trkpt lat="42.8217320" lon="-7.6833150">
        <ele>533.0</ele>
        <time>2020-10-19T08:36:50Z</time>
      </trkpt>
      <trkpt lat="42.8217360" lon="-7.6833320">
        <ele>533.0</ele>
        <time>2020-10-19T08:36:51Z</time>
      </trkpt>
      <trkpt lat="42.8217410" lon="-7.6833490">
        <ele>533.0</ele>
        <time>2020-10-19T08:36:52Z</time>
      </trkpt>
      <trkpt lat="42.8217460" lon="-7.6833650">
        <ele>533.0</ele>
        <time>2020-10-19T08:36:53Z</time>
      </trkpt>
      <trkpt lat="42.8217480" lon="-7.6833810">
        <ele>533.0</ele>
        <time>2020-10-19T08:36:54Z</time>
      </trkpt>
      <trkpt lat="42.8217500" lon="-7.6833950">
        <ele>533.1</ele>
        <time>2020-10-19T08:36:55Z</time>
      </trkpt>
      <trkpt lat="42.8217510" lon="-7.6834100">
        <ele>533.1</ele>
        <time>2020-10-19T08:36:56Z</time>
      </trkpt>
      <trkpt lat="42.8217530" lon="-7.6834260">
        <ele>533.1</ele>
        <time>2020-10-19T08:36:57Z</time>
      </trkpt>
      <trkpt lat="42.8217560" lon="-7.6834400">
        <ele>533.1</ele>
        <time>2020-10-19T08:36:58Z</time>
      </trkpt>
      <trkpt lat="42.8217590" lon="-7.6834550">
        <ele>533.2</ele>
        <time>2020-10-19T08:36:59Z</time>
      </trkpt>
      <trkpt lat="42.8217610" lon="-7.6834700">
        <ele>533.2</ele>
        <time>2020-10-19T08:37:00Z</time>
      </trkpt>
      <trkpt lat="42.8217630" lon="-7.6834860">
        <ele>533.2</ele>
        <time>2020-10-19T08:37:01Z</time>
      </trkpt>
      <trkpt lat="42.8217650" lon="-7.6835020">
        <ele>533.2</ele>
        <time>2020-10-19T08:37:02Z</time>
      </trkpt>
      <trkpt lat="42.8217670" lon="-7.6835170">
        <ele>533.3</ele>
        <time>2020-10-19T08:37:03Z</time>
      </trkpt>
      <trkpt lat="42.8217690" lon="-7.6835320">
        <ele>533.3</ele>
        <time>2020-10-19T08:37:04Z</time>
      </trkpt>
      <trkpt lat="42.8217690" lon="-7.6835470">
        <ele>533.3</ele>
        <time>2020-10-19T08:37:05Z</time>
      </trkpt>
      <trkpt lat="42.8217700" lon="-7.6835630">
        <ele>533.4</ele>
        <time>2020-10-19T08:37:06Z</time>
      </trkpt>
      <trkpt lat="42.8217690" lon="-7.6835780">
        <ele>533.4</ele>
        <time>2020-10-19T08:37:07Z</time>
      </trkpt>
      <trkpt lat="42.8217690" lon="-7.6835930">
        <ele>533.4</ele>
        <time>2020-10-19T08:37:08Z</time>
      </trkpt>
      <trkpt lat="42.8217680" lon="-7.6836080">
        <ele>533.4</ele>
        <time>2020-10-19T08:37:09Z</time>
      </trkpt>
      <trkpt lat="42.8217680" lon="-7.6836240">
        <ele>533.5</ele>
        <time>2020-10-19T08:37:10Z</time>
      </trkpt>
      <trkpt lat="42.8217680" lon="-7.6836390">
        <ele>533.5</ele>
        <time>2020-10-19T08:37:11Z</time>
      </trkpt>
      <trkpt lat="42.8217680" lon="-7.6836540">
        <ele>533.5</ele>
        <time>2020-10-19T08:37:12Z</time>
      </trkpt>
      <trkpt lat="42.8217720" lon="-7.6836690">
        <ele>533.6</ele>
        <time>2020-10-19T08:37:13Z</time>
      </trkpt>
      <trkpt lat="42.8217750" lon="-7.6836840">
        <ele>533.6</ele>
        <time>2020-10-19T08:37:14Z</time>
      </trkpt>
      <trkpt lat="42.8217780" lon="-7.6836990">
        <ele>533.6</ele>
        <time>2020-10-19T08:37:15Z</time>
      </trkpt>
      <trkpt lat="42.8217810" lon="-7.6837140">
        <ele>533.7</ele>
        <time>2020-10-19T08:37:16Z</time>
      </trkpt>
      <trkpt lat="42.8217830" lon="-7.6837280">
        <ele>533.7</ele>
        <time>2020-10-19T08:37:17Z</time>
      </trkpt>
      <trkpt lat="42.8217860" lon="-7.6837410">
        <ele>533.7</ele>
        <time>2020-10-19T08:37:18Z</time>
      </trkpt>
      <trkpt lat="42.8217870" lon="-7.6837560">
        <ele>533.7</ele>
        <time>2020-10-19T08:37:19Z</time>
      </trkpt>
      <trkpt lat="42.8217890" lon="-7.6837710">
        <ele>533.8</ele>
        <time>2020-10-19T08:37:20Z</time>
      </trkpt>
      <trkpt lat="42.8217910" lon="-7.6837850">
        <ele>533.8</ele>
        <time>2020-10-19T08:37:21Z</time>
      </trkpt>
      <trkpt lat="42.8217930" lon="-7.6838000">
        <ele>533.8</ele>
        <time>2020-10-19T08:37:22Z</time>
      </trkpt>
      <trkpt lat="42.8217950" lon="-7.6838160">
        <ele>533.8</ele>
        <time>2020-10-19T08:37:23Z</time>
      </trkpt>
      <trkpt lat="42.8217980" lon="-7.6838310">
        <ele>533.9</ele>
        <time>2020-10-19T08:37:24Z</time>
      </trkpt>
      <trkpt lat="42.8218000" lon="-7.6838450">
        <ele>533.9</ele>
        <time>2020-10-19T08:37:25Z</time>
      </trkpt>
      <trkpt lat="42.8218040" lon="-7.6838600">
        <ele>533.9</ele>
        <time>2020-10-19T08:37:26Z</time>
      </trkpt>
      <trkpt lat="42.8218080" lon="-7.6838740">
        <ele>534.0</ele>
        <time>2020-10-19T08:37:27Z</time>
      </trkpt>
      <trkpt lat="42.8218110" lon="-7.6838890">
        <ele>534.0</ele>
        <time>2020-10-19T08:37:28Z</time>
      </trkpt>
      <trkpt lat="42.8218130" lon="-7.6839040">
        <ele>534.0</ele>
        <time>2020-10-19T08:37:29Z</time>
      </trkpt>
      <trkpt lat="42.8218160" lon="-7.6839190">
        <ele>534.0</ele>
        <time>2020-10-19T08:37:30Z</time>
      </trkpt>
      <trkpt lat="42.8218190" lon="-7.6839340">
        <ele>534.1</ele>
        <time>2020-10-19T08:37:31Z</time>
      </trkpt>
      <trkpt lat="42.8218240" lon="-7.6839490">
        <ele>534.1</ele>
        <time>2020-10-19T08:37:32Z</time>
      </trkpt>
      <trkpt lat="42.8218280" lon="-7.6839640">
        <ele>534.1</ele>
        <time>2020-10-19T08:37:33Z</time>
      </trkpt>
      <trkpt lat="42.8218320" lon="-7.6839790">
        <ele>534.2</ele>
        <time>2020-10-19T08:37:34Z</time>
      </trkpt>
      <trkpt lat="42.8218350" lon="-7.6839930">
        <ele>534.2</ele>
        <time>2020-10-19T08:37:35Z</time>
      </trkpt>
      <trkpt lat="42.8218380" lon="-7.6840080">
        <ele>534.2</ele>
        <time>2020-10-19T08:37:36Z</time>
      </trkpt>
      <trkpt lat="42.8218420" lon="-7.6840240">
        <ele>534.3</ele>
        <time>2020-10-19T08:37:37Z</time>
      </trkpt>
      <trkpt lat="42.8218460" lon="-7.6840400">
        <ele>534.3</ele>
        <time>2020-10-19T08:37:38Z</time>
      </trkpt>
      <trkpt lat="42.8218480" lon="-7.6840550">
        <ele>534.3</ele>
        <time>2020-10-19T08:37:39Z</time>
      </trkpt>
      <trkpt lat="42.8218490" lon="-7.6840700">
        <ele>534.3</ele>
        <time>2020-10-19T08:37:40Z</time>
      </trkpt>
      <trkpt lat="42.8218510" lon="-7.6840840">
        <ele>534.4</ele>
        <time>2020-10-19T08:37:41Z</time>
      </trkpt>
      <trkpt lat="42.8218520" lon="-7.6840980">
        <ele>534.4</ele>
        <time>2020-10-19T08:37:42Z</time>
      </trkpt>
      <trkpt lat="42.8218540" lon="-7.6841130">
        <ele>534.4</ele>
        <time>2020-10-19T08:37:43Z</time>
      </trkpt>
      <trkpt lat="42.8218570" lon="-7.6841270">
        <ele>534.5</ele>
        <time>2020-10-19T08:37:44Z</time>
      </trkpt>
      <trkpt lat="42.8218590" lon="-7.6841410">
        <ele>534.5</ele>
        <time>2020-10-19T08:37:45Z</time>
      </trkpt>
      <trkpt lat="42.8218600" lon="-7.6841560">
        <ele>534.5</ele>
        <time>2020-10-19T08:37:46Z</time>
      </trkpt>
      <trkpt lat="42.8218610" lon="-7.6841710">
        <ele>534.6</ele>
        <time>2020-10-19T08:37:47Z</time>
      </trkpt>
      <trkpt lat="42.8218630" lon="-7.6841850">
        <ele>534.6</ele>
        <time>2020-10-19T08:37:48Z</time>
      </trkpt>
      <trkpt lat="42.8218660" lon="-7.6842000">
        <ele>534.6</ele>
        <time>2020-10-19T08:37:49Z</time>
      </trkpt>
      <trkpt lat="42.8218690" lon="-7.6842150">
        <ele>534.6</ele>
        <time>2020-10-19T08:37:50Z</time>
      </trkpt>
      <trkpt lat="42.8218710" lon="-7.6842310">
        <ele>534.7</ele>
        <time>2020-10-19T08:37:51Z</time>
      </trkpt>
      <trkpt lat="42.8218720" lon="-7.6842460">
        <ele>534.7</ele>
        <time>2020-10-19T08:37:52Z</time>
      </trkpt>
      <trkpt lat="42.8218750" lon="-7.6842610">
        <ele>534.7</ele>
        <time>2020-10-19T08:37:53Z</time>
      </trkpt>
      <trkpt lat="42.8218760" lon="-7.6842760">
        <ele>534.8</ele>
        <time>2020-10-19T08:37:54Z</time>
      </trkpt>
      <trkpt lat="42.8218760" lon="-7.6842900">
        <ele>534.8</ele>
        <time>2020-10-19T08:37:55Z</time>
      </trkpt>
      <trkpt lat="42.8218750" lon="-7.6843050">
        <ele>534.8</ele>
        <time>2020-10-19T08:37:56Z</time>
      </trkpt>
      <trkpt lat="42.8218760" lon="-7.6843200">
        <ele>534.9</ele>
        <time>2020-10-19T08:37:57Z</time>
      </trkpt>
      <trkpt lat="42.8218790" lon="-7.6843360">
        <ele>534.9</ele>
        <time>2020-10-19T08:37:58Z</time>
      </trkpt>
      <trkpt lat="42.8218820" lon="-7.6843520">
        <ele>534.9</ele>
        <time>2020-10-19T08:37:59Z</time>
      </trkpt>
      <trkpt lat="42.8218850" lon="-7.6843680">
        <ele>535.0</ele>
        <time>2020-10-19T08:38:00Z</time>
      </trkpt>
      <trkpt lat="42.8218890" lon="-7.6843850">
        <ele>535.0</ele>
        <time>2020-10-19T08:38:01Z</time>
      </trkpt>
      <trkpt lat="42.8218910" lon="-7.6844020">
        <ele>535.0</ele>
        <time>2020-10-19T08:38:02Z</time>
      </trkpt>
      <trkpt lat="42.8218940" lon="-7.6844180">
        <ele>535.1</ele>
        <time>2020-10-19T08:38:03Z</time>
      </trkpt>
      <trkpt lat="42.8218960" lon="-7.6844340">
        <ele>535.1</ele>
        <time>2020-10-19T08:38:04Z</time>
      </trkpt>
      <trkpt lat="42.8218990" lon="-7.6844490">
        <ele>535.1</ele>
        <time>2020-10-19T08:38:05Z</time>
      </trkpt>
      <trkpt lat="42.8219020" lon="-7.6844650">
        <ele>535.2</ele>
        <time>2020-10-19T08:38:06Z</time>
      </trkpt>
      <trkpt lat="42.8219050" lon="-7.6844800">
        <ele>535.2</ele>
        <time>2020-10-19T08:38:07Z</time>
      </trkpt>
      <trkpt lat="42.8219070" lon="-7.6844960">
        <ele>535.2</ele>
        <time>2020-10-19T08:38:08Z</time>
      </trkpt>
      <trkpt lat="42.8219090" lon="-7.6845110">
        <ele>535.2</ele>
        <time>2020-10-19T08:38:09Z</time>
      </trkpt>
      <trkpt lat="42.8219100" lon="-7.6845260">
        <ele>535.3</ele>
        <time>2020-10-19T08:38:10Z</time>
      </trkpt>
      <trkpt lat="42.8219110" lon="-7.6845410">
        <ele>535.3</ele>
        <time>2020-10-19T08:38:11Z</time>
      </trkpt>
      <trkpt lat="42.8219130" lon="-7.6845550">
        <ele>535.3</ele>
        <time>2020-10-19T08:38:12Z</time>
      </trkpt>
      <trkpt lat="42.8219160" lon="-7.6845700">
        <ele>535.4</ele>
        <time>2020-10-19T08:38:13Z</time>
      </trkpt>
      <trkpt lat="42.8219190" lon="-7.6845860">
        <ele>535.4</ele>
        <time>2020-10-19T08:38:14Z</time>
      </trkpt>
      <trkpt lat="42.8219210" lon="-7.6846020">
        <ele>535.4</ele>
        <time>2020-10-19T08:38:15Z</time>
      </trkpt>
      <trkpt lat="42.8219230" lon="-7.6846180">
        <ele>535.4</ele>
        <time>2020-10-19T08:38:16Z</time>
      </trkpt>
      <trkpt lat="42.8219240" lon="-7.6846330">
        <ele>535.5</ele>
        <time>2020-10-19T08:38:17Z</time>
      </trkpt>
      <trkpt lat="42.8219250" lon="-7.6846480">
        <ele>535.5</ele>
        <time>2020-10-19T08:38:18Z</time>
      </trkpt>
      <trkpt lat="42.8219260" lon="-7.6846630">
        <ele>535.5</ele>
        <time>2020-10-19T08:38:19Z</time>
      </trkpt>
      <trkpt lat="42.8219270" lon="-7.6846780">
        <ele>535.5</ele>
        <time>2020-10-19T08:38:20Z</time>
      </trkpt>
      <trkpt lat="42.8219270" lon="-7.6846930">
        <ele>535.6</ele>
        <time>2020-10-19T08:38:21Z</time>
      </trkpt>
      <trkpt lat="42.8219280" lon="-7.6847080">
        <ele>535.6</ele>
        <time>2020-10-19T08:38:22Z</time>
      </trkpt>
      <trkpt lat="42.8219280" lon="-7.6847230">
        <ele>535.6</ele>
        <time>2020-10-19T08:38:23Z</time>
      </trkpt>
      <trkpt lat="42.8219290" lon="-7.6847380">
        <ele>535.7</ele>
        <time>2020-10-19T08:38:24Z</time>
      </trkpt>
      <trkpt lat="42.8219310" lon="-7.6847530">
        <ele>535.7</ele>
        <time>2020-10-19T08:38:25Z</time>
      </trkpt>
      <trkpt lat="42.8219340" lon="-7.6847680">
        <ele>535.7</ele>
        <time>2020-10-19T08:38:26Z</time>
      </trkpt>
      <trkpt lat="42.8219360" lon="-7.6847830">
        <ele>535.7</ele>
        <time>2020-10-19T08:38:27Z</time>
      </trkpt>
      <trkpt lat="42.8219370" lon="-7.6847980">
        <ele>535.8</ele>
        <time>2020-10-19T08:38:28Z</time>
      </trkpt>
      <trkpt lat="42.8219380" lon="-7.6848120">
        <ele>535.8</ele>
        <time>2020-10-19T08:38:29Z</time>
      </trkpt>
      <trkpt lat="42.8219390" lon="-7.6848270">
        <ele>535.8</ele>
        <time>2020-10-19T08:38:30Z</time>
      </trkpt>
      <trkpt lat="42.8219400" lon="-7.6848420">
        <ele>535.8</ele>
        <time>2020-10-19T08:38:31Z</time>
      </trkpt>
      <trkpt lat="42.8219420" lon="-7.6848580">
        <ele>535.9</ele>
        <time>2020-10-19T08:38:32Z</time>
      </trkpt>
      <trkpt lat="42.8219460" lon="-7.6848730">
        <ele>535.9</ele>
        <time>2020-10-19T08:38:33Z</time>
      </trkpt>
      <trkpt lat="42.8219510" lon="-7.6848880">
        <ele>535.9</ele>
        <time>2020-10-19T08:38:34Z</time>
      </trkpt>
      <trkpt lat="42.8219550" lon="-7.6849030">
        <ele>535.9</ele>
        <time>2020-10-19T08:38:35Z</time>
      </trkpt>
      <trkpt lat="42.8219580" lon="-7.6849180">
        <ele>535.9</ele>
        <time>2020-10-19T08:38:36Z</time>
      </trkpt>
      <trkpt lat="42.8219600" lon="-7.6849340">
        <ele>535.9</ele>
        <time>2020-10-19T08:38:37Z</time>
      </trkpt>
      <trkpt lat="42.8219620" lon="-7.6849490">
        <ele>535.9</ele>
        <time>2020-10-19T08:38:38Z</time>
      </trkpt>
      <trkpt lat="42.8219640" lon="-7.6849650">
        <ele>536.0</ele>
        <time>2020-10-19T08:38:39Z</time>
      </trkpt>
      <trkpt lat="42.8219680" lon="-7.6849800">
        <ele>536.0</ele>
        <time>2020-10-19T08:38:40Z</time>
      </trkpt>
      <trkpt lat="42.8219700" lon="-7.6849950">
        <ele>536.0</ele>
        <time>2020-10-19T08:38:41Z</time>
      </trkpt>
      <trkpt lat="42.8219730" lon="-7.6850100">
        <ele>536.0</ele>
        <time>2020-10-19T08:38:42Z</time>
      </trkpt>
      <trkpt lat="42.8219740" lon="-7.6850260">
        <ele>536.0</ele>
        <time>2020-10-19T08:38:43Z</time>
      </trkpt>
      <trkpt lat="42.8219750" lon="-7.6850410">
        <ele>536.0</ele>
        <time>2020-10-19T08:38:44Z</time>
      </trkpt>
      <trkpt lat="42.8219770" lon="-7.6850550">
        <ele>536.0</ele>
        <time>2020-10-19T08:38:45Z</time>
      </trkpt>
      <trkpt lat="42.8219790" lon="-7.6850700">
        <ele>536.0</ele>
        <time>2020-10-19T08:38:46Z</time>
      </trkpt>
      <trkpt lat="42.8219800" lon="-7.6850860">
        <ele>536.0</ele>
        <time>2020-10-19T08:38:47Z</time>
      </trkpt>
      <trkpt lat="42.8219820" lon="-7.6851010">
        <ele>536.0</ele>
        <time>2020-10-19T08:38:48Z</time>
      </trkpt>
      <trkpt lat="42.8219830" lon="-7.6851170">
        <ele>536.0</ele>
        <time>2020-10-19T08:38:49Z</time>
      </trkpt>
      <trkpt lat="42.8219850" lon="-7.6851330">
        <ele>536.0</ele>
        <time>2020-10-19T08:38:50Z</time>
      </trkpt>
      <trkpt lat="42.8219870" lon="-7.6851490">
        <ele>536.1</ele>
        <time>2020-10-19T08:38:51Z</time>
      </trkpt>
      <trkpt lat="42.8219900" lon="-7.6851650">
        <ele>536.1</ele>
        <time>2020-10-19T08:38:52Z</time>
      </trkpt>
      <trkpt lat="42.8219920" lon="-7.6851800">
        <ele>536.1</ele>
        <time>2020-10-19T08:38:53Z</time>
      </trkpt>
      <trkpt lat="42.8219940" lon="-7.6851950">
        <ele>536.1</ele>
        <time>2020-10-19T08:38:54Z</time>
      </trkpt>
      <trkpt lat="42.8219960" lon="-7.6852110">
        <ele>536.1</ele>
        <time>2020-10-19T08:38:55Z</time>
      </trkpt>
      <trkpt lat="42.8219990" lon="-7.6852260">
        <ele>536.1</ele>
        <time>2020-10-19T08:38:56Z</time>
      </trkpt>
      <trkpt lat="42.8220040" lon="-7.6852410">
        <ele>536.1</ele>
        <time>2020-10-19T08:38:57Z</time>
      </trkpt>
      <trkpt lat="42.8220090" lon="-7.6852560">
        <ele>536.1</ele>
        <time>2020-10-19T08:38:58Z</time>
      </trkpt>
      <trkpt lat="42.8220150" lon="-7.6852710">
        <ele>536.1</ele>
        <time>2020-10-19T08:38:59Z</time>
      </trkpt>
      <trkpt lat="42.8220210" lon="-7.6852870">
        <ele>536.1</ele>
        <time>2020-10-19T08:39:00Z</time>
      </trkpt>
      <trkpt lat="42.8220270" lon="-7.6853030">
        <ele>536.1</ele>
        <time>2020-10-19T08:39:01Z</time>
      </trkpt>
      <trkpt lat="42.8220320" lon="-7.6853180">
        <ele>536.1</ele>
        <time>2020-10-19T08:39:02Z</time>
      </trkpt>
      <trkpt lat="42.8220360" lon="-7.6853340">
        <ele>536.1</ele>
        <time>2020-10-19T08:39:03Z</time>
      </trkpt>
      <trkpt lat="42.8220390" lon="-7.6853500">
        <ele>536.1</ele>
        <time>2020-10-19T08:39:04Z</time>
      </trkpt>
      <trkpt lat="42.8220410" lon="-7.6853660">
        <ele>536.1</ele>
        <time>2020-10-19T08:39:05Z</time>
      </trkpt>
      <trkpt lat="42.8220430" lon="-7.6853820">
        <ele>536.1</ele>
        <time>2020-10-19T08:39:06Z</time>
      </trkpt>
      <trkpt lat="42.8220450" lon="-7.6853980">
        <ele>536.1</ele>
        <time>2020-10-19T08:39:07Z</time>
      </trkpt>
      <trkpt lat="42.8220470" lon="-7.6854140">
        <ele>536.1</ele>
        <time>2020-10-19T08:39:08Z</time>
      </trkpt>
      <trkpt lat="42.8220490" lon="-7.6854300">
        <ele>536.1</ele>
        <time>2020-10-19T08:39:09Z</time>
      </trkpt>
      <trkpt lat="42.8220520" lon="-7.6854460">
        <ele>536.1</ele>
        <time>2020-10-19T08:39:10Z</time>
      </trkpt>
      <trkpt lat="42.8220550" lon="-7.6854620">
        <ele>536.1</ele>
        <time>2020-10-19T08:39:11Z</time>
      </trkpt>
      <trkpt lat="42.8220590" lon="-7.6854780">
        <ele>536.0</ele>
        <time>2020-10-19T08:39:12Z</time>
      </trkpt>
      <trkpt lat="42.8220650" lon="-7.6854940">
        <ele>536.0</ele>
        <time>2020-10-19T08:39:13Z</time>
      </trkpt>
      <trkpt lat="42.8220690" lon="-7.6855100">
        <ele>536.0</ele>
        <time>2020-10-19T08:39:14Z</time>
      </trkpt>
      <trkpt lat="42.8220730" lon="-7.6855260">
        <ele>536.0</ele>
        <time>2020-10-19T08:39:15Z</time>
      </trkpt>
      <trkpt lat="42.8220760" lon="-7.6855420">
        <ele>536.0</ele>
        <time>2020-10-19T08:39:16Z</time>
      </trkpt>
      <trkpt lat="42.8220790" lon="-7.6855580">
        <ele>536.0</ele>
        <time>2020-10-19T08:39:17Z</time>
      </trkpt>
      <trkpt lat="42.8220830" lon="-7.6855740">
        <ele>536.0</ele>
        <time>2020-10-19T08:39:18Z</time>
      </trkpt>
      <trkpt lat="42.8220870" lon="-7.6855910">
        <ele>536.0</ele>
        <time>2020-10-19T08:39:19Z</time>
      </trkpt>
      <trkpt lat="42.8220910" lon="-7.6856060">
        <ele>536.0</ele>
        <time>2020-10-19T08:39:20Z</time>
      </trkpt>
      <trkpt lat="42.8220930" lon="-7.6856220">
        <ele>535.9</ele>
        <time>2020-10-19T08:39:21Z</time>
      </trkpt>
      <trkpt lat="42.8220960" lon="-7.6856370">
        <ele>535.9</ele>
        <time>2020-10-19T08:39:22Z</time>
      </trkpt>
      <trkpt lat="42.8220990" lon="-7.6856530">
        <ele>535.9</ele>
        <time>2020-10-19T08:39:23Z</time>
      </trkpt>
      <trkpt lat="42.8221030" lon="-7.6856680">
        <ele>535.9</ele>
        <time>2020-10-19T08:39:24Z</time>
      </trkpt>
      <trkpt lat="42.8221060" lon="-7.6856840">
        <ele>535.9</ele>
        <time>2020-10-19T08:39:25Z</time>
      </trkpt>
      <trkpt lat="42.8221090" lon="-7.6856990">
        <ele>535.8</ele>
        <time>2020-10-19T08:39:26Z</time>
      </trkpt>
      <trkpt lat="42.8221110" lon="-7.6857140">
        <ele>535.8</ele>
        <time>2020-10-19T08:39:27Z</time>
      </trkpt>
      <trkpt lat="42.8221110" lon="-7.6857290">
        <ele>535.8</ele>
        <time>2020-10-19T08:39:28Z</time>
      </trkpt>
      <trkpt lat="42.8221110" lon="-7.6857430">
        <ele>535.8</ele>
        <time>2020-10-19T08:39:29Z</time>
      </trkpt>
      <trkpt lat="42.8221120" lon="-7.6857570">
        <ele>535.7</ele>
        <time>2020-10-19T08:39:30Z</time>
      </trkpt>
      <trkpt lat="42.8221140" lon="-7.6857710">
        <ele>535.7</ele>
        <time>2020-10-19T08:39:31Z</time>
      </trkpt>
      <trkpt lat="42.8221170" lon="-7.6857850">
        <ele>535.7</ele>
        <time>2020-10-19T08:39:32Z</time>
      </trkpt>
      <trkpt lat="42.8221200" lon="-7.6857980">
        <ele>535.7</ele>
        <time>2020-10-19T08:39:33Z</time>
      </trkpt>
      <trkpt lat="42.8221230" lon="-7.6858120">
        <ele>535.6</ele>
        <time>2020-10-19T08:39:34Z</time>
      </trkpt>
      <trkpt lat="42.8221260" lon="-7.6858260">
        <ele>535.6</ele>
        <time>2020-10-19T08:39:35Z</time>
      </trkpt>
      <trkpt lat="42.8221290" lon="-7.6858400">
        <ele>535.6</ele>
        <time>2020-10-19T08:39:36Z</time>
      </trkpt>
      <trkpt lat="42.8221330" lon="-7.6858560">
        <ele>535.5</ele>
        <time>2020-10-19T08:39:37Z</time>
      </trkpt>
      <trkpt lat="42.8221370" lon="-7.6858730">
        <ele>535.5</ele>
        <time>2020-10-19T08:39:38Z</time>
      </trkpt>
      <trkpt lat="42.8221390" lon="-7.6858890">
        <ele>535.5</ele>
        <time>2020-10-19T08:39:39Z</time>
      </trkpt>
      <trkpt lat="42.8221410" lon="-7.6859040">
        <ele>535.4</ele>
        <time>2020-10-19T08:39:40Z</time>
      </trkpt>
      <trkpt lat="42.8221450" lon="-7.6859190">
        <ele>535.4</ele>
        <time>2020-10-19T08:39:41Z</time>
      </trkpt>
      <trkpt lat="42.8221490" lon="-7.6859330">
        <ele>535.4</ele>
        <time>2020-10-19T08:39:42Z</time>
      </trkpt>
      <trkpt lat="42.8221530" lon="-7.6859490">
        <ele>535.3</ele>
        <time>2020-10-19T08:39:43Z</time>
      </trkpt>
      <trkpt lat="42.8221570" lon="-7.6859650">
        <ele>535.3</ele>
        <time>2020-10-19T08:39:44Z</time>
      </trkpt>
      <trkpt lat="42.8221610" lon="-7.6859800">
        <ele>535.2</ele>
        <time>2020-10-19T08:39:45Z</time>
      </trkpt>
      <trkpt lat="42.8221650" lon="-7.6859950">
        <ele>535.2</ele>
        <time>2020-10-19T08:39:46Z</time>
      </trkpt>
      <trkpt lat="42.8221680" lon="-7.6860100">
        <ele>535.2</ele>
        <time>2020-10-19T08:39:47Z</time>
      </trkpt>
      <trkpt lat="42.8221690" lon="-7.6860250">
        <ele>535.1</ele>
        <time>2020-10-19T08:39:48Z</time>
      </trkpt>
      <trkpt lat="42.8221730" lon="-7.6860400">
        <ele>535.1</ele>
        <time>2020-10-19T08:39:49Z</time>
      </trkpt>
      <trkpt lat="42.8221760" lon="-7.6860550">
        <ele>535.0</ele>
        <time>2020-10-19T08:39:50Z</time>
      </trkpt>
      <trkpt lat="42.8221780" lon="-7.6860700">
        <ele>535.0</ele>
        <time>2020-10-19T08:39:51Z</time>
      </trkpt>
      <trkpt lat="42.8221790" lon="-7.6860850">
        <ele>535.0</ele>
        <time>2020-10-19T08:39:52Z</time>
      </trkpt>
      <trkpt lat="42.8221800" lon="-7.6860990">
        <ele>534.9</ele>
        <time>2020-10-19T08:39:53Z</time>
      </trkpt>
      <trkpt lat="42.8221810" lon="-7.6861140">
        <ele>534.9</ele>
        <time>2020-10-19T08:39:54Z</time>
      </trkpt>
      <trkpt lat="42.8221820" lon="-7.6861280">
        <ele>534.8</ele>
        <time>2020-10-19T08:39:55Z</time>
      </trkpt>
      <trkpt lat="42.8221840" lon="-7.6861440">
        <ele>534.8</ele>
        <time>2020-10-19T08:39:56Z</time>
      </trkpt>
      <trkpt lat="42.8221900" lon="-7.6861590">
        <ele>534.7</ele>
        <time>2020-10-19T08:39:57Z</time>
      </trkpt>
      <trkpt lat="42.8221980" lon="-7.6861730">
        <ele>534.7</ele>
        <time>2020-10-19T08:39:58Z</time>
      </trkpt>
      <trkpt lat="42.8222060" lon="-7.6861860">
        <ele>534.6</ele>
        <time>2020-10-19T08:39:59Z</time>
      </trkpt>
      <trkpt lat="42.8222150" lon="-7.6862010">
        <ele>534.5</ele>
        <time>2020-10-19T08:40:00Z</time>
      </trkpt>
      <trkpt lat="42.8222220" lon="-7.6862160">
        <ele>534.5</ele>
        <time>2020-10-19T08:40:01Z</time>
      </trkpt>
      <trkpt lat="42.8222310" lon="-7.6862300">
        <ele>534.4</ele>
        <time>2020-10-19T08:40:02Z</time>
      </trkpt>
      <trkpt lat="42.8222360" lon="-7.6862440">
        <ele>534.3</ele>
        <time>2020-10-19T08:40:03Z</time>
      </trkpt>
      <trkpt lat="42.8222430" lon="-7.6862580">
        <ele>534.3</ele>
        <time>2020-10-19T08:40:04Z</time>
      </trkpt>
      <trkpt lat="42.8222480" lon="-7.6862740">
        <ele>534.2</ele>
        <time>2020-10-19T08:40:05Z</time>
      </trkpt>
      <trkpt lat="42.8222530" lon="-7.6862890">
        <ele>534.1</ele>
        <time>2020-10-19T08:40:06Z</time>
      </trkpt>
      <trkpt lat="42.8222570" lon="-7.6863040">
        <ele>534.1</ele>
        <time>2020-10-19T08:40:07Z</time>
      </trkpt>
      <trkpt lat="42.8222620" lon="-7.6863200">
        <ele>534.0</ele>
        <time>2020-10-19T08:40:08Z</time>
      </trkpt>
      <trkpt lat="42.8222670" lon="-7.6863350">
        <ele>533.9</ele>
        <time>2020-10-19T08:40:09Z</time>
      </trkpt>
      <trkpt lat="42.8222740" lon="-7.6863500">
        <ele>533.8</ele>
        <time>2020-10-19T08:40:10Z</time>
      </trkpt>
      <trkpt lat="42.8222800" lon="-7.6863650">
        <ele>533.8</ele>
        <time>2020-10-19T08:40:11Z</time>
      </trkpt>
      <trkpt lat="42.8222850" lon="-7.6863800">
        <ele>533.7</ele>
        <time>2020-10-19T08:40:12Z</time>
      </trkpt>
      <trkpt lat="42.8222910" lon="-7.6863930">
        <ele>533.6</ele>
        <time>2020-10-19T08:40:13Z</time>
      </trkpt>
      <trkpt lat="42.8222970" lon="-7.6864070">
        <ele>533.5</ele>
        <time>2020-10-19T08:40:14Z</time>
      </trkpt>
      <trkpt lat="42.8223040" lon="-7.6864200">
        <ele>533.5</ele>
        <time>2020-10-19T08:40:15Z</time>
      </trkpt>
      <trkpt lat="42.8223090" lon="-7.6864330">
        <ele>533.4</ele>
        <time>2020-10-19T08:40:16Z</time>
      </trkpt>
      <trkpt lat="42.8223140" lon="-7.6864460">
        <ele>533.3</ele>
        <time>2020-10-19T08:40:17Z</time>
      </trkpt>
      <trkpt lat="42.8223180" lon="-7.6864600">
        <ele>533.2</ele>
        <time>2020-10-19T08:40:18Z</time>
      </trkpt>
      <trkpt lat="42.8223230" lon="-7.6864740">
        <ele>533.2</ele>
        <time>2020-10-19T08:40:19Z</time>
      </trkpt>
      <trkpt lat="42.8223280" lon="-7.6864890">
        <ele>533.1</ele>
        <time>2020-10-19T08:40:20Z</time>
      </trkpt>
      <trkpt lat="42.8223340" lon="-7.6865030">
        <ele>533.0</ele>
        <time>2020-10-19T08:40:21Z</time>
      </trkpt>
      <trkpt lat="42.8223400" lon="-7.6865170">
        <ele>532.9</ele>
        <time>2020-10-19T08:40:22Z</time>
      </trkpt>
      <trkpt lat="42.8223460" lon="-7.6865330">
        <ele>532.8</ele>
        <time>2020-10-19T08:40:23Z</time>
      </trkpt>
      <trkpt lat="42.8223530" lon="-7.6865480">
        <ele>532.7</ele>
        <time>2020-10-19T08:40:24Z</time>
      </trkpt>
      <trkpt lat="42.8223600" lon="-7.6865630">
        <ele>532.6</ele>
        <time>2020-10-19T08:40:25Z</time>
      </trkpt>
      <trkpt lat="42.8223690" lon="-7.6865770">
        <ele>532.5</ele>
        <time>2020-10-19T08:40:26Z</time>
      </trkpt>
      <trkpt lat="42.8223770" lon="-7.6865890">
        <ele>532.5</ele>
        <time>2020-10-19T08:40:27Z</time>
      </trkpt>
      <trkpt lat="42.8223860" lon="-7.6866020">
        <ele>532.4</ele>
        <time>2020-10-19T08:40:28Z</time>
      </trkpt>
      <trkpt lat="42.8223950" lon="-7.6866140">
        <ele>532.3</ele>
        <time>2020-10-19T08:40:29Z</time>
      </trkpt>
      <trkpt lat="42.8224030" lon="-7.6866270">
        <ele>532.2</ele>
        <time>2020-10-19T08:40:30Z</time>
      </trkpt>
      <trkpt lat="42.8224110" lon="-7.6866410">
        <ele>532.1</ele>
        <time>2020-10-19T08:40:31Z</time>
      </trkpt>
      <trkpt lat="42.8224170" lon="-7.6866550">
        <ele>532.0</ele>
        <time>2020-10-19T08:40:32Z</time>
      </trkpt>
      <trkpt lat="42.8224240" lon="-7.6866700">
        <ele>532.0</ele>
        <time>2020-10-19T08:40:33Z</time>
      </trkpt>
      <trkpt lat="42.8224310" lon="-7.6866830">
        <ele>531.9</ele>
        <time>2020-10-19T08:40:34Z</time>
      </trkpt>
      <trkpt lat="42.8224380" lon="-7.6866950">
        <ele>531.8</ele>
        <time>2020-10-19T08:40:35Z</time>
      </trkpt>
      <trkpt lat="42.8224460" lon="-7.6867080">
        <ele>531.7</ele>
        <time>2020-10-19T08:40:36Z</time>
      </trkpt>
      <trkpt lat="42.8224540" lon="-7.6867200">
        <ele>531.7</ele>
        <time>2020-10-19T08:40:37Z</time>
      </trkpt>
      <trkpt lat="42.8224620" lon="-7.6867320">
        <ele>531.6</ele>
        <time>2020-10-19T08:40:38Z</time>
      </trkpt>
      <trkpt lat="42.8224700" lon="-7.6867450">
        <ele>531.5</ele>
        <time>2020-10-19T08:40:39Z</time>
      </trkpt>
      <trkpt lat="42.8224780" lon="-7.6867590">
        <ele>531.4</ele>
        <time>2020-10-19T08:40:40Z</time>
      </trkpt>
      <trkpt lat="42.8224860" lon="-7.6867730">
        <ele>531.4</ele>
        <time>2020-10-19T08:40:41Z</time>
      </trkpt>
      <trkpt lat="42.8224930" lon="-7.6867860">
        <ele>531.3</ele>
        <time>2020-10-19T08:40:42Z</time>
      </trkpt>
      <trkpt lat="42.8224990" lon="-7.6867990">
        <ele>531.3</ele>
        <time>2020-10-19T08:40:43Z</time>
      </trkpt>
      <trkpt lat="42.8225060" lon="-7.6868110">
        <ele>531.2</ele>
        <time>2020-10-19T08:40:44Z</time>
      </trkpt>
      <trkpt lat="42.8225110" lon="-7.6868240">
        <ele>531.1</ele>
        <time>2020-10-19T08:40:45Z</time>
      </trkpt>
      <trkpt lat="42.8225180" lon="-7.6868370">
        <ele>531.1</ele>
        <time>2020-10-19T08:40:46Z</time>
      </trkpt>
      <trkpt lat="42.8225240" lon="-7.6868500">
        <ele>531.1</ele>
        <time>2020-10-19T08:40:47Z</time>
      </trkpt>
      <trkpt lat="42.8225290" lon="-7.6868640">
        <ele>531.0</ele>
        <time>2020-10-19T08:40:48Z</time>
      </trkpt>
      <trkpt lat="42.8225360" lon="-7.6868770">
        <ele>531.0</ele>
        <time>2020-10-19T08:40:49Z</time>
      </trkpt>
      <trkpt lat="42.8225440" lon="-7.6868900">
        <ele>530.9</ele>
        <time>2020-10-19T08:40:50Z</time>
      </trkpt>
      <trkpt lat="42.8225530" lon="-7.6869030">
        <ele>530.9</ele>
        <time>2020-10-19T08:40:51Z</time>
      </trkpt>
      <trkpt lat="42.8225630" lon="-7.6869160">
        <ele>530.8</ele>
        <time>2020-10-19T08:40:52Z</time>
      </trkpt>
      <trkpt lat="42.8225720" lon="-7.6869290">
        <ele>530.8</ele>
        <time>2020-10-19T08:40:53Z</time>
      </trkpt>
      <trkpt lat="42.8225820" lon="-7.6869420">
        <ele>530.7</ele>
        <time>2020-10-19T08:40:54Z</time>
      </trkpt>
      <trkpt lat="42.8225900" lon="-7.6869550">
        <ele>530.7</ele>
        <time>2020-10-19T08:40:55Z</time>
      </trkpt>
      <trkpt lat="42.8225990" lon="-7.6869680">
        <ele>530.6</ele>
        <time>2020-10-19T08:40:56Z</time>
      </trkpt>
      <trkpt lat="42.8226070" lon="-7.6869810">
        <ele>530.6</ele>
        <time>2020-10-19T08:40:57Z</time>
      </trkpt>
      <trkpt lat="42.8226140" lon="-7.6869930">
        <ele>530.5</ele>
        <time>2020-10-19T08:40:58Z</time>
      </trkpt>
      <trkpt lat="42.8226210" lon="-7.6870040">
        <ele>530.5</ele>
        <time>2020-10-19T08:40:59Z</time>
      </trkpt>
      <trkpt lat="42.8226310" lon="-7.6870180">
        <ele>530.4</ele>
        <time>2020-10-19T08:41:00Z</time>
      </trkpt>
      <trkpt lat="42.8226420" lon="-7.6870330">
        <ele>530.4</ele>
        <time>2020-10-19T08:41:01Z</time>
      </trkpt>
      <trkpt lat="42.8226530" lon="-7.6870480">
        <ele>530.3</ele>
        <time>2020-10-19T08:41:02Z</time>
      </trkpt>
      <trkpt lat="42.8226600" lon="-7.6870600">
        <ele>530.2</ele>
        <time>2020-10-19T08:41:03Z</time>
      </trkpt>
      <trkpt lat="42.8226680" lon="-7.6870730">
        <ele>530.2</ele>
        <time>2020-10-19T08:41:04Z</time>
      </trkpt>
      <trkpt lat="42.8226750" lon="-7.6870860">
        <ele>530.1</ele>
        <time>2020-10-19T08:41:05Z</time>
      </trkpt>
      <trkpt lat="42.8226820" lon="-7.6870990">
        <ele>530.1</ele>
        <time>2020-10-19T08:41:06Z</time>
      </trkpt>
      <trkpt lat="42.8226900" lon="-7.6871120">
        <ele>530.0</ele>
        <time>2020-10-19T08:41:07Z</time>
      </trkpt>
      <trkpt lat="42.8226960" lon="-7.6871220">
        <ele>530.0</ele>
        <time>2020-10-19T08:41:08Z</time>
      </trkpt>
      <trkpt lat="42.8227010" lon="-7.6871330">
        <ele>529.9</ele>
        <time>2020-10-19T08:41:09Z</time>
      </trkpt>
      <trkpt lat="42.8227050" lon="-7.6871440">
        <ele>529.9</ele>
        <time>2020-10-19T08:41:10Z</time>
      </trkpt>
      <trkpt lat="42.8227100" lon="-7.6871580">
        <ele>529.8</ele>
        <time>2020-10-19T08:41:11Z</time>
      </trkpt>
      <trkpt lat="42.8227160" lon="-7.6871720">
        <ele>529.8</ele>
        <time>2020-10-19T08:41:12Z</time>
      </trkpt>
      <trkpt lat="42.8227220" lon="-7.6871860">
        <ele>529.7</ele>
        <time>2020-10-19T08:41:13Z</time>
      </trkpt>
      <trkpt lat="42.8227290" lon="-7.6872000">
        <ele>529.7</ele>
        <time>2020-10-19T08:41:14Z</time>
      </trkpt>
      <trkpt lat="42.8227350" lon="-7.6872140">
        <ele>529.6</ele>
        <time>2020-10-19T08:41:15Z</time>
      </trkpt>
      <trkpt lat="42.8227420" lon="-7.6872260">
        <ele>529.6</ele>
        <time>2020-10-19T08:41:16Z</time>
      </trkpt>
      <trkpt lat="42.8227500" lon="-7.6872380">
        <ele>529.5</ele>
        <time>2020-10-19T08:41:17Z</time>
      </trkpt>
      <trkpt lat="42.8227590" lon="-7.6872490">
        <ele>529.4</ele>
        <time>2020-10-19T08:41:18Z</time>
      </trkpt>
      <trkpt lat="42.8227670" lon="-7.6872600">
        <ele>529.4</ele>
        <time>2020-10-19T08:41:19Z</time>
      </trkpt>
      <trkpt lat="42.8227740" lon="-7.6872710">
        <ele>529.4</ele>
        <time>2020-10-19T08:41:20Z</time>
      </trkpt>
      <trkpt lat="42.8227800" lon="-7.6872840">
        <ele>529.3</ele>
        <time>2020-10-19T08:41:21Z</time>
      </trkpt>
      <trkpt lat="42.8227850" lon="-7.6872960">
        <ele>529.3</ele>
        <time>2020-10-19T08:41:22Z</time>
      </trkpt>
      <trkpt lat="42.8227920" lon="-7.6873100">
        <ele>529.2</ele>
        <time>2020-10-19T08:41:23Z</time>
      </trkpt>
      <trkpt lat="42.8227990" lon="-7.6873240">
        <ele>529.1</ele>
        <time>2020-10-19T08:41:24Z</time>
      </trkpt>
      <trkpt lat="42.8228080" lon="-7.6873380">
        <ele>529.1</ele>
        <time>2020-10-19T08:41:25Z</time>
      </trkpt>
      <trkpt lat="42.8228160" lon="-7.6873500">
        <ele>529.0</ele>
        <time>2020-10-19T08:41:26Z</time>
      </trkpt>
      <trkpt lat="42.8228220" lon="-7.6873620">
        <ele>529.0</ele>
        <time>2020-10-19T08:41:27Z</time>
      </trkpt>
      <trkpt lat="42.8228290" lon="-7.6873740">
        <ele>528.9</ele>
        <time>2020-10-19T08:41:28Z</time>
      </trkpt>
      <trkpt lat="42.8228340" lon="-7.6873880">
        <ele>528.9</ele>
        <time>2020-10-19T08:41:29Z</time>
      </trkpt>
      <trkpt lat="42.8228410" lon="-7.6874030">
        <ele>528.8</ele>
        <time>2020-10-19T08:41:30Z</time>
      </trkpt>
      <trkpt lat="42.8228460" lon="-7.6874180">
        <ele>528.8</ele>
        <time>2020-10-19T08:41:31Z</time>
      </trkpt>
      <trkpt lat="42.8228520" lon="-7.6874320">
        <ele>528.8</ele>
        <time>2020-10-19T08:41:32Z</time>
      </trkpt>
      <trkpt lat="42.8228580" lon="-7.6874460">
        <ele>528.7</ele>
        <time>2020-10-19T08:41:33Z</time>
      </trkpt>
      <trkpt lat="42.8228640" lon="-7.6874580">
        <ele>528.7</ele>
        <time>2020-10-19T08:41:34Z</time>
      </trkpt>
      <trkpt lat="42.8228710" lon="-7.6874700">
        <ele>528.7</ele>
        <time>2020-10-19T08:41:35Z</time>
      </trkpt>
      <trkpt lat="42.8228760" lon="-7.6874810">
        <ele>528.6</ele>
        <time>2020-10-19T08:41:36Z</time>
      </trkpt>
      <trkpt lat="42.8228810" lon="-7.6874940">
        <ele>528.6</ele>
        <time>2020-10-19T08:41:37Z</time>
      </trkpt>
      <trkpt lat="42.8228880" lon="-7.6875080">
        <ele>528.6</ele>
        <time>2020-10-19T08:41:38Z</time>
      </trkpt>
      <trkpt lat="42.8228950" lon="-7.6875220">
        <ele>528.5</ele>
        <time>2020-10-19T08:41:39Z</time>
      </trkpt>
      <trkpt lat="42.8229030" lon="-7.6875370">
        <ele>528.5</ele>
        <time>2020-10-19T08:41:40Z</time>
      </trkpt>
      <trkpt lat="42.8229100" lon="-7.6875500">
        <ele>528.5</ele>
        <time>2020-10-19T08:41:41Z</time>
      </trkpt>
      <trkpt lat="42.8229170" lon="-7.6875640">
        <ele>528.4</ele>
        <time>2020-10-19T08:41:42Z</time>
      </trkpt>
      <trkpt lat="42.8229240" lon="-7.6875780">
        <ele>528.4</ele>
        <time>2020-10-19T08:41:43Z</time>
      </trkpt>
      <trkpt lat="42.8229310" lon="-7.6875920">
        <ele>528.4</ele>
        <time>2020-10-19T08:41:44Z</time>
      </trkpt>
      <trkpt lat="42.8229380" lon="-7.6876070">
        <ele>528.3</ele>
        <time>2020-10-19T08:41:45Z</time>
      </trkpt>
      <trkpt lat="42.8229460" lon="-7.6876210">
        <ele>528.3</ele>
        <time>2020-10-19T08:41:46Z</time>
      </trkpt>
      <trkpt lat="42.8229540" lon="-7.6876350">
        <ele>528.3</ele>
        <time>2020-10-19T08:41:47Z</time>
      </trkpt>
      <trkpt lat="42.8229630" lon="-7.6876480">
        <ele>528.3</ele>
        <time>2020-10-19T08:41:48Z</time>
      </trkpt>
      <trkpt lat="42.8229710" lon="-7.6876610">
        <ele>528.2</ele>
        <time>2020-10-19T08:41:49Z</time>
      </trkpt>
      <trkpt lat="42.8229780" lon="-7.6876740">
        <ele>528.2</ele>
        <time>2020-10-19T08:41:50Z</time>
      </trkpt>
      <trkpt lat="42.8229850" lon="-7.6876870">
        <ele>528.2</ele>
        <time>2020-10-19T08:41:51Z</time>
      </trkpt>
      <trkpt lat="42.8229920" lon="-7.6877010">
        <ele>528.2</ele>
        <time>2020-10-19T08:41:52Z</time>
      </trkpt>
      <trkpt lat="42.8229990" lon="-7.6877130">
        <ele>528.2</ele>
        <time>2020-10-19T08:41:53Z</time>
      </trkpt>
      <trkpt lat="42.8230070" lon="-7.6877250">
        <ele>528.1</ele>
        <time>2020-10-19T08:41:54Z</time>
      </trkpt>
      <trkpt lat="42.8230150" lon="-7.6877370">
        <ele>528.1</ele>
        <time>2020-10-19T08:41:55Z</time>
      </trkpt>
      <trkpt lat="42.8230230" lon="-7.6877510">
        <ele>528.1</ele>
        <time>2020-10-19T08:41:56Z</time>
      </trkpt>
      <trkpt lat="42.8230300" lon="-7.6877650">
        <ele>528.1</ele>
        <time>2020-10-19T08:41:57Z</time>
      </trkpt>
      <trkpt lat="42.8230360" lon="-7.6877800">
        <ele>528.1</ele>
        <time>2020-10-19T08:41:58Z</time>
      </trkpt>
      <trkpt lat="42.8230430" lon="-7.6877940">
        <ele>528.0</ele>
        <time>2020-10-19T08:41:59Z</time>
      </trkpt>
      <trkpt lat="42.8230520" lon="-7.6878080">
        <ele>528.0</ele>
        <time>2020-10-19T08:42:00Z</time>
      </trkpt>
      <trkpt lat="42.8230610" lon="-7.6878210">
        <ele>528.0</ele>
        <time>2020-10-19T08:42:01Z</time>
      </trkpt>
      <trkpt lat="42.8230700" lon="-7.6878330">
        <ele>528.0</ele>
        <time>2020-10-19T08:42:02Z</time>
      </trkpt>
      <trkpt lat="42.8230780" lon="-7.6878460">
        <ele>528.0</ele>
        <time>2020-10-19T08:42:03Z</time>
      </trkpt>
      <trkpt lat="42.8230860" lon="-7.6878600">
        <ele>528.0</ele>
        <time>2020-10-19T08:42:04Z</time>
      </trkpt>
      <trkpt lat="42.8230940" lon="-7.6878760">
        <ele>528.0</ele>
        <time>2020-10-19T08:42:05Z</time>
      </trkpt>
      <trkpt lat="42.8231000" lon="-7.6878910">
        <ele>528.0</ele>
        <time>2020-10-19T08:42:06Z</time>
      </trkpt>
      <trkpt lat="42.8231060" lon="-7.6879040">
        <ele>528.0</ele>
        <time>2020-10-19T08:42:07Z</time>
      </trkpt>
      <trkpt lat="42.8231100" lon="-7.6879180">
        <ele>528.0</ele>
        <time>2020-10-19T08:42:08Z</time>
      </trkpt>
      <trkpt lat="42.8231170" lon="-7.6879320">
        <ele>527.9</ele>
        <time>2020-10-19T08:42:09Z</time>
      </trkpt>
      <trkpt lat="42.8231240" lon="-7.6879450">
        <ele>527.9</ele>
        <time>2020-10-19T08:42:10Z</time>
      </trkpt>
      <trkpt lat="42.8231350" lon="-7.6879570">
        <ele>527.9</ele>
        <time>2020-10-19T08:42:11Z</time>
      </trkpt>
      <trkpt lat="42.8231460" lon="-7.6879680">
        <ele>527.9</ele>
        <time>2020-10-19T08:42:12Z</time>
      </trkpt>
      <trkpt lat="42.8231560" lon="-7.6879800">
        <ele>527.9</ele>
        <time>2020-10-19T08:42:13Z</time>
      </trkpt>
      <trkpt lat="42.8231640" lon="-7.6879920">
        <ele>527.9</ele>
        <time>2020-10-19T08:42:14Z</time>
      </trkpt>
      <trkpt lat="42.8231710" lon="-7.6880050">
        <ele>527.9</ele>
        <time>2020-10-19T08:42:15Z</time>
      </trkpt>
      <trkpt lat="42.8231780" lon="-7.6880160">
        <ele>527.9</ele>
        <time>2020-10-19T08:42:16Z</time>
      </trkpt>
      <trkpt lat="42.8231860" lon="-7.6880290">
        <ele>527.9</ele>
        <time>2020-10-19T08:42:17Z</time>
      </trkpt>
      <trkpt lat="42.8231930" lon="-7.6880420">
        <ele>527.9</ele>
        <time>2020-10-19T08:42:18Z</time>
      </trkpt>
      <trkpt lat="42.8232000" lon="-7.6880550">
        <ele>527.9</ele>
        <time>2020-10-19T08:42:19Z</time>
      </trkpt>
      <trkpt lat="42.8232040" lon="-7.6880690">
        <ele>527.9</ele>
        <time>2020-10-19T08:42:20Z</time>
      </trkpt>
      <trkpt lat="42.8232080" lon="-7.6880810">
        <ele>527.9</ele>
        <time>2020-10-19T08:42:21Z</time>
      </trkpt>
      <trkpt lat="42.8232150" lon="-7.6880950">
        <ele>527.9</ele>
        <time>2020-10-19T08:42:22Z</time>
      </trkpt>
      <trkpt lat="42.8232230" lon="-7.6881080">
        <ele>527.9</ele>
        <time>2020-10-19T08:42:23Z</time>
      </trkpt>
      <trkpt lat="42.8232320" lon="-7.6881210">
        <ele>527.9</ele>
        <time>2020-10-19T08:42:24Z</time>
      </trkpt>
      <trkpt lat="42.8232400" lon="-7.6881340">
        <ele>527.9</ele>
        <time>2020-10-19T08:42:25Z</time>
      </trkpt>
      <trkpt lat="42.8232470" lon="-7.6881470">
        <ele>527.9</ele>
        <time>2020-10-19T08:42:26Z</time>
      </trkpt>
      <trkpt lat="42.8232530" lon="-7.6881600">
        <ele>527.9</ele>
        <time>2020-10-19T08:42:27Z</time>
      </trkpt>
      <trkpt lat="42.8232580" lon="-7.6881740">
        <ele>527.9</ele>
        <time>2020-10-19T08:42:28Z</time>
      </trkpt>
      <trkpt lat="42.8232650" lon="-7.6881890">
        <ele>527.9</ele>
        <time>2020-10-19T08:42:29Z</time>
      </trkpt>
      <trkpt lat="42.8232720" lon="-7.6882040">
        <ele>527.8</ele>
        <time>2020-10-19T08:42:30Z</time>
      </trkpt>
      <trkpt lat="42.8232780" lon="-7.6882190">
        <ele>527.8</ele>
        <time>2020-10-19T08:42:31Z</time>
      </trkpt>
      <trkpt lat="42.8232820" lon="-7.6882340">
        <ele>527.8</ele>
        <time>2020-10-19T08:42:32Z</time>
      </trkpt>
      <trkpt lat="42.8232860" lon="-7.6882490">
        <ele>527.8</ele>
        <time>2020-10-19T08:42:33Z</time>
      </trkpt>
      <trkpt lat="42.8232910" lon="-7.6882640">
        <ele>527.7</ele>
        <time>2020-10-19T08:42:34Z</time>
      </trkpt>
      <trkpt lat="42.8232950" lon="-7.6882780">
        <ele>527.7</ele>
        <time>2020-10-19T08:42:35Z</time>
      </trkpt>
      <trkpt lat="42.8232980" lon="-7.6882920">
        <ele>527.7</ele>
        <time>2020-10-19T08:42:36Z</time>
      </trkpt>
      <trkpt lat="42.8233040" lon="-7.6883060">
        <ele>527.6</ele>
        <time>2020-10-19T08:42:37Z</time>
      </trkpt>
      <trkpt lat="42.8233110" lon="-7.6883210">
        <ele>527.6</ele>
        <time>2020-10-19T08:42:38Z</time>
      </trkpt>
      <trkpt lat="42.8233180" lon="-7.6883350">
        <ele>527.5</ele>
        <time>2020-10-19T08:42:39Z</time>
      </trkpt>
      <trkpt lat="42.8233260" lon="-7.6883500">
        <ele>527.5</ele>
        <time>2020-10-19T08:42:40Z</time>
      </trkpt>
      <trkpt lat="42.8233310" lon="-7.6883650">
        <ele>527.4</ele>
        <time>2020-10-19T08:42:41Z</time>
      </trkpt>
      <trkpt lat="42.8233390" lon="-7.6883790">
        <ele>527.4</ele>
        <time>2020-10-19T08:42:42Z</time>
      </trkpt>
      <trkpt lat="42.8233470" lon="-7.6883940">
        <ele>527.3</ele>
        <time>2020-10-19T08:42:43Z</time>
      </trkpt>
      <trkpt lat="42.8233560" lon="-7.6884060">
        <ele>527.3</ele>
        <time>2020-10-19T08:42:44Z</time>
      </trkpt>
      <trkpt lat="42.8233640" lon="-7.6884190">
        <ele>527.2</ele>
        <time>2020-10-19T08:42:45Z</time>
      </trkpt>
      <trkpt lat="42.8233710" lon="-7.6884330">
        <ele>527.2</ele>
        <time>2020-10-19T08:42:46Z</time>
      </trkpt>
      <trkpt lat="42.8233790" lon="-7.6884460">
        <ele>527.1</ele>
        <time>2020-10-19T08:42:47Z</time>
      </trkpt>
      <trkpt lat="42.8233870" lon="-7.6884610">
        <ele>527.1</ele>
        <time>2020-10-19T08:42:48Z</time>
      </trkpt>
      <trkpt lat="42.8233960" lon="-7.6884770">
        <ele>527.0</ele>
        <time>2020-10-19T08:42:49Z</time>
      </trkpt>
      <trkpt lat="42.8234040" lon="-7.6884910">
        <ele>527.0</ele>
        <time>2020-10-19T08:42:50Z</time>
      </trkpt>
      <trkpt lat="42.8234150" lon="-7.6885050">
        <ele>526.9</ele>
        <time>2020-10-19T08:42:51Z</time>
      </trkpt>
      <trkpt lat="42.8234260" lon="-7.6885180">
        <ele>526.9</ele>
        <time>2020-10-19T08:42:52Z</time>
      </trkpt>
      <trkpt lat="42.8234390" lon="-7.6885330">
        <ele>526.9</ele>
        <time>2020-10-19T08:42:53Z</time>
      </trkpt>
      <trkpt lat="42.8234500" lon="-7.6885470">
        <ele>526.8</ele>
        <time>2020-10-19T08:42:54Z</time>
      </trkpt>
      <trkpt lat="42.8234620" lon="-7.6885620">
        <ele>526.8</ele>
        <time>2020-10-19T08:42:55Z</time>
      </trkpt>
      <trkpt lat="42.8234690" lon="-7.6885760">
        <ele>526.8</ele>
        <time>2020-10-19T08:42:56Z</time>
      </trkpt>
      <trkpt lat="42.8234760" lon="-7.6885890">
        <ele>526.8</ele>
        <time>2020-10-19T08:42:57Z</time>
      </trkpt>
      <trkpt lat="42.8234830" lon="-7.6886030">
        <ele>526.8</ele>
        <time>2020-10-19T08:42:58Z</time>
      </trkpt>
      <trkpt lat="42.8234900" lon="-7.6886160">
        <ele>526.8</ele>
        <time>2020-10-19T08:42:59Z</time>
      </trkpt>
      <trkpt lat="42.8234980" lon="-7.6886290">
        <ele>526.8</ele>
        <time>2020-10-19T08:43:00Z</time>
      </trkpt>
      <trkpt lat="42.8235060" lon="-7.6886440">
        <ele>526.8</ele>
        <time>2020-10-19T08:43:01Z</time>
      </trkpt>
      <trkpt lat="42.8235170" lon="-7.6886570">
        <ele>526.8</ele>
        <time>2020-10-19T08:43:02Z</time>
      </trkpt>
      <trkpt lat="42.8235260" lon="-7.6886720">
        <ele>526.8</ele>
        <time>2020-10-19T08:43:03Z</time>
      </trkpt>
      <trkpt lat="42.8235350" lon="-7.6886850">
        <ele>526.8</ele>
        <time>2020-10-19T08:43:04Z</time>
      </trkpt>
      <trkpt lat="42.8235410" lon="-7.6886990">
        <ele>526.8</ele>
        <time>2020-10-19T08:43:05Z</time>
      </trkpt>
      <trkpt lat="42.8235480" lon="-7.6887130">
        <ele>526.8</ele>
        <time>2020-10-19T08:43:06Z</time>
      </trkpt>
      <trkpt lat="42.8235540" lon="-7.6887260">
        <ele>526.8</ele>
        <time>2020-10-19T08:43:07Z</time>
      </trkpt>
      <trkpt lat="42.8235610" lon="-7.6887400">
        <ele>526.8</ele>
        <time>2020-10-19T08:43:08Z</time>
      </trkpt>
      <trkpt lat="42.8235680" lon="-7.6887530">
        <ele>526.8</ele>
        <time>2020-10-19T08:43:09Z</time>
      </trkpt>
      <trkpt lat="42.8235740" lon="-7.6887680">
        <ele>526.9</ele>
        <time>2020-10-19T08:43:10Z</time>
      </trkpt>
      <trkpt lat="42.8235810" lon="-7.6887820">
        <ele>526.9</ele>
        <time>2020-10-19T08:43:11Z</time>
      </trkpt>
      <trkpt lat="42.8235870" lon="-7.6887960">
        <ele>526.9</ele>
        <time>2020-10-19T08:43:12Z</time>
      </trkpt>
      <trkpt lat="42.8235930" lon="-7.6888100">
        <ele>526.9</ele>
        <time>2020-10-19T08:43:13Z</time>
      </trkpt>
      <trkpt lat="42.8235990" lon="-7.6888240">
        <ele>526.9</ele>
        <time>2020-10-19T08:43:14Z</time>
      </trkpt>
      <trkpt lat="42.8236020" lon="-7.6888380">
        <ele>527.0</ele>
        <time>2020-10-19T08:43:15Z</time>
      </trkpt>
      <trkpt lat="42.8236060" lon="-7.6888520">
        <ele>527.0</ele>
        <time>2020-10-19T08:43:16Z</time>
      </trkpt>
      <trkpt lat="42.8236100" lon="-7.6888680">
        <ele>527.0</ele>
        <time>2020-10-19T08:43:17Z</time>
      </trkpt>
      <trkpt lat="42.8236160" lon="-7.6888840">
        <ele>527.0</ele>
        <time>2020-10-19T08:43:18Z</time>
      </trkpt>
      <trkpt lat="42.8236240" lon="-7.6888990">
        <ele>527.1</ele>
        <time>2020-10-19T08:43:19Z</time>
      </trkpt>
      <trkpt lat="42.8236330" lon="-7.6889140">
        <ele>527.1</ele>
        <time>2020-10-19T08:43:20Z</time>
      </trkpt>
      <trkpt lat="42.8236400" lon="-7.6889290">
        <ele>527.1</ele>
        <time>2020-10-19T08:43:21Z</time>
      </trkpt>
      <trkpt lat="42.8236460" lon="-7.6889440">
        <ele>527.1</ele>
        <time>2020-10-19T08:43:22Z</time>
      </trkpt>
      <trkpt lat="42.8236520" lon="-7.6889580">
        <ele>527.2</ele>
        <time>2020-10-19T08:43:23Z</time>
      </trkpt>
      <trkpt lat="42.8236590" lon="-7.6889720">
        <ele>527.2</ele>
        <time>2020-10-19T08:43:24Z</time>
      </trkpt>
      <trkpt lat="42.8236660" lon="-7.6889850">
        <ele>527.2</ele>
        <time>2020-10-19T08:43:25Z</time>
      </trkpt>
      <trkpt lat="42.8236730" lon="-7.6889980">
        <ele>527.3</ele>
        <time>2020-10-19T08:43:26Z</time>
      </trkpt>
      <trkpt lat="42.8236790" lon="-7.6890120">
        <ele>527.3</ele>
        <time>2020-10-19T08:43:27Z</time>
      </trkpt>
      <trkpt lat="42.8236850" lon="-7.6890250">
        <ele>527.3</ele>
        <time>2020-10-19T08:43:28Z</time>
      </trkpt>
      <trkpt lat="42.8236880" lon="-7.6890390">
        <ele>527.3</ele>
        <time>2020-10-19T08:43:29Z</time>
      </trkpt>
      <trkpt lat="42.8236920" lon="-7.6890520">
        <ele>527.4</ele>
        <time>2020-10-19T08:43:30Z</time>
      </trkpt>
      <trkpt lat="42.8236950" lon="-7.6890640">
        <ele>527.4</ele>
        <time>2020-10-19T08:43:31Z</time>
      </trkpt>
      <trkpt lat="42.8237010" lon="-7.6890760">
        <ele>527.4</ele>
        <time>2020-10-19T08:43:32Z</time>
      </trkpt>
      <trkpt lat="42.8237080" lon="-7.6890880">
        <ele>527.5</ele>
        <time>2020-10-19T08:43:33Z</time>
      </trkpt>
      <trkpt lat="42.8237170" lon="-7.6891000">
        <ele>527.5</ele>
        <time>2020-10-19T08:43:34Z</time>
      </trkpt>
      <trkpt lat="42.8237240" lon="-7.6891120">
        <ele>527.5</ele>
        <time>2020-10-19T08:43:35Z</time>
      </trkpt>
      <trkpt lat="42.8237300" lon="-7.6891230">
        <ele>527.5</ele>
        <time>2020-10-19T08:43:36Z</time>
      </trkpt>
      <trkpt lat="42.8237360" lon="-7.6891340">
        <ele>527.6</ele>
        <time>2020-10-19T08:43:37Z</time>
      </trkpt>
      <trkpt lat="42.8237420" lon="-7.6891460">
        <ele>527.6</ele>
        <time>2020-10-19T08:43:38Z</time>
      </trkpt>
      <trkpt lat="42.8237470" lon="-7.6891580">
        <ele>527.6</ele>
        <time>2020-10-19T08:43:39Z</time>
      </trkpt>
      <trkpt lat="42.8237540" lon="-7.6891710">
        <ele>527.6</ele>
        <time>2020-10-19T08:43:40Z</time>
      </trkpt>
      <trkpt lat="42.8237610" lon="-7.6891830">
        <ele>527.7</ele>
        <time>2020-10-19T08:43:41Z</time>
      </trkpt>
      <trkpt lat="42.8237680" lon="-7.6891960">
        <ele>527.7</ele>
        <time>2020-10-19T08:43:42Z</time>
      </trkpt>
      <trkpt lat="42.8237740" lon="-7.6892090">
        <ele>527.7</ele>
        <time>2020-10-19T08:43:43Z</time>
      </trkpt>
      <trkpt lat="42.8237790" lon="-7.6892230">
        <ele>527.8</ele>
        <time>2020-10-19T08:43:44Z</time>
      </trkpt>
      <trkpt lat="42.8237850" lon="-7.6892360">
        <ele>527.8</ele>
        <time>2020-10-19T08:43:45Z</time>
      </trkpt>
      <trkpt lat="42.8237890" lon="-7.6892490">
        <ele>527.8</ele>
        <time>2020-10-19T08:43:46Z</time>
      </trkpt>
      <trkpt lat="42.8237950" lon="-7.6892630">
        <ele>527.8</ele>
        <time>2020-10-19T08:43:47Z</time>
      </trkpt>
      <trkpt lat="42.8238010" lon="-7.6892760">
        <ele>527.9</ele>
        <time>2020-10-19T08:43:48Z</time>
      </trkpt>
      <trkpt lat="42.8238080" lon="-7.6892900">
        <ele>527.9</ele>
        <time>2020-10-19T08:43:49Z</time>
      </trkpt>
      <trkpt lat="42.8238150" lon="-7.6893040">
        <ele>527.9</ele>
        <time>2020-10-19T08:43:50Z</time>
      </trkpt>
      <trkpt lat="42.8238220" lon="-7.6893180">
        <ele>528.0</ele>
        <time>2020-10-19T08:43:51Z</time>
      </trkpt>
      <trkpt lat="42.8238280" lon="-7.6893320">
        <ele>528.0</ele>
        <time>2020-10-19T08:43:52Z</time>
      </trkpt>
      <trkpt lat="42.8238330" lon="-7.6893470">
        <ele>528.0</ele>
        <time>2020-10-19T08:43:53Z</time>
      </trkpt>
      <trkpt lat="42.8238390" lon="-7.6893610">
        <ele>528.1</ele>
        <time>2020-10-19T08:43:54Z</time>
      </trkpt>
      <trkpt lat="42.8238470" lon="-7.6893760">
        <ele>528.1</ele>
        <time>2020-10-19T08:43:55Z</time>
      </trkpt>
      <trkpt lat="42.8238530" lon="-7.6893890">
        <ele>528.1</ele>
        <time>2020-10-19T08:43:56Z</time>
      </trkpt>
      <trkpt lat="42.8238590" lon="-7.6894020">
        <ele>528.2</ele>
        <time>2020-10-19T08:43:57Z</time>
      </trkpt>
      <trkpt lat="42.8238670" lon="-7.6894150">
        <ele>528.2</ele>
        <time>2020-10-19T08:43:58Z</time>
      </trkpt>
      <trkpt lat="42.8238750" lon="-7.6894270">
        <ele>528.2</ele>
        <time>2020-10-19T08:43:59Z</time>
      </trkpt>
      <trkpt lat="42.8238810" lon="-7.6894400">
        <ele>528.3</ele>
        <time>2020-10-19T08:44:00Z</time>
      </trkpt>
      <trkpt lat="42.8238870" lon="-7.6894520">
        <ele>528.3</ele>
        <time>2020-10-19T08:44:01Z</time>
      </trkpt>
      <trkpt lat="42.8238930" lon="-7.6894640">
        <ele>528.3</ele>
        <time>2020-10-19T08:44:02Z</time>
      </trkpt>
      <trkpt lat="42.8239000" lon="-7.6894760">
        <ele>528.4</ele>
        <time>2020-10-19T08:44:03Z</time>
      </trkpt>
      <trkpt lat="42.8239070" lon="-7.6894890">
        <ele>528.4</ele>
        <time>2020-10-19T08:44:04Z</time>
      </trkpt>
      <trkpt lat="42.8239150" lon="-7.6895030">
        <ele>528.4</ele>
        <time>2020-10-19T08:44:05Z</time>
      </trkpt>
      <trkpt lat="42.8239240" lon="-7.6895160">
        <ele>528.5</ele>
        <time>2020-10-19T08:44:06Z</time>
      </trkpt>
      <trkpt lat="42.8239350" lon="-7.6895270">
        <ele>528.5</ele>
        <time>2020-10-19T08:44:07Z</time>
      </trkpt>
      <trkpt lat="42.8239450" lon="-7.6895360">
        <ele>528.6</ele>
        <time>2020-10-19T08:44:08Z</time>
      </trkpt>
      <trkpt lat="42.8239530" lon="-7.6895440">
        <ele>528.6</ele>
        <time>2020-10-19T08:44:09Z</time>
      </trkpt>
      <trkpt lat="42.8239580" lon="-7.6895530">
        <ele>528.6</ele>
        <time>2020-10-19T08:44:10Z</time>
      </trkpt>
      <trkpt lat="42.8239640" lon="-7.6895630">
        <ele>528.7</ele>
        <time>2020-10-19T08:44:11Z</time>
      </trkpt>
      <trkpt lat="42.8239690" lon="-7.6895740">
        <ele>528.7</ele>
        <time>2020-10-19T08:44:12Z</time>
      </trkpt>
      <trkpt lat="42.8239750" lon="-7.6895850">
        <ele>528.7</ele>
        <time>2020-10-19T08:44:13Z</time>
      </trkpt>
      <trkpt lat="42.8239810" lon="-7.6895980">
        <ele>528.8</ele>
        <time>2020-10-19T08:44:14Z</time>
      </trkpt>
      <trkpt lat="42.8239860" lon="-7.6896120">
        <ele>528.8</ele>
        <time>2020-10-19T08:44:15Z</time>
      </trkpt>
      <trkpt lat="42.8239910" lon="-7.6896260">
        <ele>528.9</ele>
        <time>2020-10-19T08:44:16Z</time>
      </trkpt>
      <trkpt lat="42.8239960" lon="-7.6896400">
        <ele>528.9</ele>
        <time>2020-10-19T08:44:17Z</time>
      </trkpt>
      <trkpt lat="42.8240010" lon="-7.6896540">
        <ele>529.0</ele>
        <time>2020-10-19T08:44:18Z</time>
      </trkpt>
      <trkpt lat="42.8240050" lon="-7.6896670">
        <ele>529.0</ele>
        <time>2020-10-19T08:44:19Z</time>
      </trkpt>
      <trkpt lat="42.8240090" lon="-7.6896790">
        <ele>529.0</ele>
        <time>2020-10-19T08:44:20Z</time>
      </trkpt>
      <trkpt lat="42.8240150" lon="-7.6896880">
        <ele>529.1</ele>
        <time>2020-10-19T08:44:21Z</time>
      </trkpt>
      <trkpt lat="42.8240220" lon="-7.6896980">
        <ele>529.1</ele>
        <time>2020-10-19T08:44:22Z</time>
      </trkpt>
      <trkpt lat="42.8240310" lon="-7.6897060">
        <ele>529.2</ele>
        <time>2020-10-19T08:44:23Z</time>
      </trkpt>
      <trkpt lat="42.8240400" lon="-7.6897150">
        <ele>529.3</ele>
        <time>2020-10-19T08:44:24Z</time>
      </trkpt>
      <trkpt lat="42.8240470" lon="-7.6897230">
        <ele>529.3</ele>
        <time>2020-10-19T08:44:25Z</time>
      </trkpt>
      <trkpt lat="42.8240480" lon="-7.6897300">
        <ele>529.4</ele>
        <time>2020-10-19T08:44:26Z</time>
      </trkpt>
      <trkpt lat="42.8240470" lon="-7.6897310">
        <ele>529.4</ele>
        <time>2020-10-19T08:44:27Z</time>
      </trkpt>
      <trkpt lat="42.8240440" lon="-7.6897320">
        <ele>529.4</ele>
        <time>2020-10-19T08:44:28Z</time>
      </trkpt>
      <trkpt lat="42.8240430" lon="-7.6897320">
        <ele>529.4</ele>
        <time>2020-10-19T08:44:29Z</time>
      </trkpt>
      <trkpt lat="42.8240420" lon="-7.6897350">
        <ele>529.4</ele>
        <time>2020-10-19T08:44:30Z</time>
      </trkpt>
      <trkpt lat="42.8240410" lon="-7.6897380">
        <ele>529.4</ele>
        <time>2020-10-19T08:44:31Z</time>
      </trkpt>
      <trkpt lat="42.8240400" lon="-7.6897400">
        <ele>529.4</ele>
        <time>2020-10-19T08:44:32Z</time>
      </trkpt>
      <trkpt lat="42.8240400" lon="-7.6897430">
        <ele>529.4</ele>
        <time>2020-10-19T08:44:33Z</time>
      </trkpt>
      <trkpt lat="42.8240400" lon="-7.6897450">
        <ele>529.4</ele>
        <time>2020-10-19T08:44:34Z</time>
      </trkpt>
      <trkpt lat="42.8240410" lon="-7.6897480">
        <ele>529.4</ele>
        <time>2020-10-19T08:44:35Z</time>
      </trkpt>
      <trkpt lat="42.8240410" lon="-7.6897490">
        <ele>529.4</ele>
        <time>2020-10-19T08:44:36Z</time>
      </trkpt>
      <trkpt lat="42.8240410" lon="-7.6897510">
        <ele>529.4</ele>
        <time>2020-10-19T08:44:37Z</time>
      </trkpt>
      <trkpt lat="42.8240420" lon="-7.6897520">
        <ele>529.4</ele>
        <time>2020-10-19T08:44:38Z</time>
      </trkpt>
      <trkpt lat="42.8240430" lon="-7.6897560">
        <ele>529.4</ele>
        <time>2020-10-19T08:44:39Z</time>
      </trkpt>
      <trkpt lat="42.8240460" lon="-7.6897580">
        <ele>529.4</ele>
        <time>2020-10-19T08:44:40Z</time>
      </trkpt>
      <trkpt lat="42.8240500" lon="-7.6897600">
        <ele>529.5</ele>
        <time>2020-10-19T08:44:41Z</time>
      </trkpt>
      <trkpt lat="42.8240550" lon="-7.6897620">
        <ele>529.5</ele>
        <time>2020-10-19T08:44:42Z</time>
      </trkpt>
      <trkpt lat="42.8240580" lon="-7.6897640">
        <ele>529.5</ele>
        <time>2020-10-19T08:44:43Z</time>
      </trkpt>
      <trkpt lat="42.8240620" lon="-7.6897650">
        <ele>529.5</ele>
        <time>2020-10-19T08:44:44Z</time>
      </trkpt>
      <trkpt lat="42.8240650" lon="-7.6897660">
        <ele>529.5</ele>
        <time>2020-10-19T08:44:45Z</time>
      </trkpt>
      <trkpt lat="42.8240680" lon="-7.6897670">
        <ele>529.5</ele>
        <time>2020-10-19T08:44:46Z</time>
      </trkpt>
      <trkpt lat="42.8240710" lon="-7.6897680">
        <ele>529.5</ele>
        <time>2020-10-19T08:44:47Z</time>
      </trkpt>
      <trkpt lat="42.8240740" lon="-7.6897680">
        <ele>529.5</ele>
        <time>2020-10-19T08:44:48Z</time>
      </trkpt>
      <trkpt lat="42.8240770" lon="-7.6897680">
        <ele>529.5</ele>
        <time>2020-10-19T08:44:49Z</time>
      </trkpt>
      <trkpt lat="42.8240790" lon="-7.6897670">
        <ele>529.5</ele>
        <time>2020-10-19T08:44:50Z</time>
      </trkpt>
      <trkpt lat="42.8240800" lon="-7.6897670">
        <ele>529.6</ele>
        <time>2020-10-19T08:44:51Z</time>
      </trkpt>
      <trkpt lat="42.8240800" lon="-7.6897680">
        <ele>529.6</ele>
        <time>2020-10-19T08:44:52Z</time>
      </trkpt>
      <trkpt lat="42.8240770" lon="-7.6897700">
        <ele>529.6</ele>
        <time>2020-10-19T08:44:53Z</time>
      </trkpt>
      <trkpt lat="42.8240720" lon="-7.6897760">
        <ele>529.6</ele>
        <time>2020-10-19T08:44:54Z</time>
      </trkpt>
      <trkpt lat="42.8240650" lon="-7.6897830">
        <ele>529.6</ele>
        <time>2020-10-19T08:44:55Z</time>
      </trkpt>
      <trkpt lat="42.8240620" lon="-7.6897870">
        <ele>529.6</ele>
        <time>2020-10-19T08:44:56Z</time>
      </trkpt>
      <trkpt lat="42.8240600" lon="-7.6897890">
        <ele>529.6</ele>
        <time>2020-10-19T08:44:57Z</time>
      </trkpt>
      <trkpt lat="42.8240620" lon="-7.6897860">
        <ele>529.6</ele>
        <time>2020-10-19T08:44:58Z</time>
      </trkpt>
      <trkpt lat="42.8240620" lon="-7.6897830">
        <ele>529.6</ele>
        <time>2020-10-19T08:44:59Z</time>
      </trkpt>
      <trkpt lat="42.8240620" lon="-7.6897800">
        <ele>529.7</ele>
        <time>2020-10-19T08:45:00Z</time>
      </trkpt>
      <trkpt lat="42.8240610" lon="-7.6897790">
        <ele>529.7</ele>
        <time>2020-10-19T08:45:01Z</time>
      </trkpt>
      <trkpt lat="42.8240600" lon="-7.6897790">
        <ele>529.7</ele>
        <time>2020-10-19T08:45:02Z</time>
      </trkpt>
      <trkpt lat="42.8240610" lon="-7.6897810">
        <ele>529.7</ele>
        <time>2020-10-19T08:45:03Z</time>
      </trkpt>
      <trkpt lat="42.8240620" lon="-7.6897820">
        <ele>529.7</ele>
        <time>2020-10-19T08:45:04Z</time>
      </trkpt>
      <trkpt lat="42.8240630" lon="-7.6897840">
        <ele>529.7</ele>
        <time>2020-10-19T08:45:05Z</time>
      </trkpt>
      <trkpt lat="42.8240640" lon="-7.6897850">
        <ele>529.7</ele>
        <time>2020-10-19T08:45:06Z</time>
      </trkpt>
      <trkpt lat="42.8240640" lon="-7.6897860">
        <ele>529.7</ele>
        <time>2020-10-19T08:45:07Z</time>
      </trkpt>
      <trkpt lat="42.8240620" lon="-7.6897850">
        <ele>529.7</ele>
        <time>2020-10-19T08:45:08Z</time>
      </trkpt>
      <trkpt lat="42.8240610" lon="-7.6897820">
        <ele>529.7</ele>
        <time>2020-10-19T08:45:09Z</time>
      </trkpt>
      <trkpt lat="42.8240600" lon="-7.6897790">
        <ele>529.7</ele>
        <time>2020-10-19T08:45:10Z</time>
      </trkpt>
      <trkpt lat="42.8240590" lon="-7.6897780">
        <ele>529.7</ele>
        <time>2020-10-19T08:45:11Z</time>
      </trkpt>
      <trkpt lat="42.8240560" lon="-7.6897760">
        <ele>529.7</ele>
        <time>2020-10-19T08:45:12Z</time>
      </trkpt>
      <trkpt lat="42.8240500" lon="-7.6897760">
        <ele>529.7</ele>
        <time>2020-10-19T08:45:13Z</time>
      </trkpt>
      <trkpt lat="42.8240430" lon="-7.6897800">
        <ele>529.8</ele>
        <time>2020-10-19T08:45:14Z</time>
      </trkpt>
      <trkpt lat="42.8240330" lon="-7.6897870">
        <ele>529.8</ele>
        <time>2020-10-19T08:45:15Z</time>
      </trkpt>
      <trkpt lat="42.8240230" lon="-7.6897930">
        <ele>529.8</ele>
        <time>2020-10-19T08:45:16Z</time>
      </trkpt>
      <trkpt lat="42.8240120" lon="-7.6897950">
        <ele>529.9</ele>
        <time>2020-10-19T08:45:17Z</time>
      </trkpt>
      <trkpt lat="42.8240010" lon="-7.6897950">
        <ele>529.9</ele>
        <time>2020-10-19T08:45:18Z</time>
      </trkpt>
      <trkpt lat="42.8239920" lon="-7.6897960">
        <ele>529.9</ele>
        <time>2020-10-19T08:45:19Z</time>
      </trkpt>
      <trkpt lat="42.8239830" lon="-7.6897990">
        <ele>530.0</ele>
        <time>2020-10-19T08:45:20Z</time>
      </trkpt>
      <trkpt lat="42.8239750" lon="-7.6898020">
        <ele>530.0</ele>
        <time>2020-10-19T08:45:21Z</time>
      </trkpt>
      <trkpt lat="42.8239670" lon="-7.6898050">
        <ele>530.0</ele>
        <time>2020-10-19T08:45:22Z</time>
      </trkpt>
      <trkpt lat="42.8239610" lon="-7.6898050">
        <ele>530.1</ele>
        <time>2020-10-19T08:45:23Z</time>
      </trkpt>
      <trkpt lat="42.8239590" lon="-7.6898030">
        <ele>530.1</ele>
        <time>2020-10-19T08:45:24Z</time>
      </trkpt>
      <trkpt lat="42.8239600" lon="-7.6898020">
        <ele>530.1</ele>
        <time>2020-10-19T08:45:25Z</time>
      </trkpt>
      <trkpt lat="42.8239610" lon="-7.6898000">
        <ele>530.1</ele>
        <time>2020-10-19T08:45:26Z</time>
      </trkpt>
      <trkpt lat="42.8239610" lon="-7.6898010">
        <ele>530.1</ele>
        <time>2020-10-19T08:45:27Z</time>
      </trkpt>
      <trkpt lat="42.8239600" lon="-7.6898020">
        <ele>530.1</ele>
        <time>2020-10-19T08:45:28Z</time>
      </trkpt>
      <trkpt lat="42.8239610" lon="-7.6898030">
        <ele>530.1</ele>
        <time>2020-10-19T08:45:29Z</time>
      </trkpt>
      <trkpt lat="42.8239610" lon="-7.6898040">
        <ele>530.1</ele>
        <time>2020-10-19T08:45:30Z</time>
      </trkpt>
      <trkpt lat="42.8239600" lon="-7.6898050">
        <ele>530.1</ele>
        <time>2020-10-19T08:45:31Z</time>
      </trkpt>
      <trkpt lat="42.8239590" lon="-7.6898060">
        <ele>530.1</ele>
        <time>2020-10-19T08:45:32Z</time>
      </trkpt>
      <trkpt lat="42.8239570" lon="-7.6898080">
        <ele>530.1</ele>
        <time>2020-10-19T08:45:33Z</time>
      </trkpt>
      <trkpt lat="42.8239560" lon="-7.6898100">
        <ele>530.1</ele>
        <time>2020-10-19T08:45:34Z</time>
      </trkpt>
      <trkpt lat="42.8239540" lon="-7.6898110">
        <ele>530.1</ele>
        <time>2020-10-19T08:45:35Z</time>
      </trkpt>
      <trkpt lat="42.8239530" lon="-7.6898130">
        <ele>530.1</ele>
        <time>2020-10-19T08:45:36Z</time>
      </trkpt>
      <trkpt lat="42.8239520" lon="-7.6898150">
        <ele>530.1</ele>
        <time>2020-10-19T08:45:37Z</time>
      </trkpt>
      <trkpt lat="42.8239510" lon="-7.6898180">
        <ele>530.1</ele>
        <time>2020-10-19T08:45:38Z</time>
      </trkpt>
      <trkpt lat="42.8239500" lon="-7.6898200">
        <ele>530.1</ele>
        <time>2020-10-19T08:45:39Z</time>
      </trkpt>
      <trkpt lat="42.8239490" lon="-7.6898210">
        <ele>530.1</ele>
        <time>2020-10-19T08:45:40Z</time>
      </trkpt>
      <trkpt lat="42.8239480" lon="-7.6898220">
        <ele>530.1</ele>
        <time>2020-10-19T08:45:41Z</time>
      </trkpt>
      <trkpt lat="42.8239470" lon="-7.6898230">
        <ele>530.2</ele>
        <time>2020-10-19T08:45:42Z</time>
      </trkpt>
      <trkpt lat="42.8239460" lon="-7.6898240">
        <ele>530.2</ele>
        <time>2020-10-19T08:45:43Z</time>
      </trkpt>
      <trkpt lat="42.8239450" lon="-7.6898250">
        <ele>530.2</ele>
        <time>2020-10-19T08:45:44Z</time>
      </trkpt>
      <trkpt lat="42.8239440" lon="-7.6898270">
        <ele>530.2</ele>
        <time>2020-10-19T08:45:45Z</time>
      </trkpt>
      <trkpt lat="42.8239430" lon="-7.6898280">
        <ele>530.2</ele>
        <time>2020-10-19T08:45:46Z</time>
      </trkpt>
      <trkpt lat="42.8239420" lon="-7.6898300">
        <ele>530.2</ele>
        <time>2020-10-19T08:45:47Z</time>
      </trkpt>
      <trkpt lat="42.8239410" lon="-7.6898310">
        <ele>530.2</ele>
        <time>2020-10-19T08:45:48Z</time>
      </trkpt>
      <trkpt lat="42.8239400" lon="-7.6898320">
        <ele>530.2</ele>
        <time>2020-10-19T08:45:49Z</time>
      </trkpt>
      <trkpt lat="42.8239390" lon="-7.6898320">
        <ele>530.2</ele>
        <time>2020-10-19T08:45:50Z</time>
      </trkpt>
      <trkpt lat="42.8239380" lon="-7.6898320">
        <ele>530.2</ele>
        <time>2020-10-19T08:45:51Z</time>
      </trkpt>
      <trkpt lat="42.8239380" lon="-7.6898320">
        <ele>530.2</ele>
        <time>2020-10-19T08:45:52Z</time>
      </trkpt>
      <trkpt lat="42.8239380" lon="-7.6898320">
        <ele>530.2</ele>
        <time>2020-10-19T08:45:53Z</time>
      </trkpt>
      <trkpt lat="42.8239380" lon="-7.6898330">
        <ele>530.2</ele>
        <time>2020-10-19T08:45:54Z</time>
      </trkpt>
      <trkpt lat="42.8239380" lon="-7.6898340">
        <ele>530.2</ele>
        <time>2020-10-19T08:45:55Z</time>
      </trkpt>
      <trkpt lat="42.8239380" lon="-7.6898340">
        <ele>530.2</ele>
        <time>2020-10-19T08:45:56Z</time>
      </trkpt>
      <trkpt lat="42.8239390" lon="-7.6898350">
        <ele>530.2</ele>
        <time>2020-10-19T08:45:57Z</time>
      </trkpt>
      <trkpt lat="42.8239380" lon="-7.6898360">
        <ele>530.2</ele>
        <time>2020-10-19T08:45:58Z</time>
      </trkpt>
      <trkpt lat="42.8239380" lon="-7.6898360">
        <ele>530.2</ele>
        <time>2020-10-19T08:45:59Z</time>
      </trkpt>
      <trkpt lat="42.8239360" lon="-7.6898370">
        <ele>530.2</ele>
        <time>2020-10-19T08:46:00Z</time>
      </trkpt>
      <trkpt lat="42.8239350" lon="-7.6898380">
        <ele>530.2</ele>
        <time>2020-10-19T08:46:01Z</time>
      </trkpt>
      <trkpt lat="42.8239340" lon="-7.6898380">
        <ele>530.2</ele>
        <time>2020-10-19T08:46:02Z</time>
      </trkpt>
      <trkpt lat="42.8239330" lon="-7.6898380">
        <ele>530.2</ele>
        <time>2020-10-19T08:46:03Z</time>
      </trkpt>
      <trkpt lat="42.8239320" lon="-7.6898380">
        <ele>530.2</ele>
        <time>2020-10-19T08:46:04Z</time>
      </trkpt>
      <trkpt lat="42.8239310" lon="-7.6898390">
        <ele>530.2</ele>
        <time>2020-10-19T08:46:05Z</time>
      </trkpt>
      <trkpt lat="42.8239310" lon="-7.6898390">
        <ele>530.2</ele>
        <time>2020-10-19T08:46:06Z</time>
      </trkpt>
      <trkpt lat="42.8239300" lon="-7.6898400">
        <ele>530.2</ele>
        <time>2020-10-19T08:46:07Z</time>
      </trkpt>
      <trkpt lat="42.8239300" lon="-7.6898420">
        <ele>530.2</ele>
        <time>2020-10-19T08:46:08Z</time>
      </trkpt>
      <trkpt lat="42.8239300" lon="-7.6898430">
        <ele>530.2</ele>
        <time>2020-10-19T08:46:09Z</time>
      </trkpt>
      <trkpt lat="42.8239300" lon="-7.6898450">
        <ele>530.3</ele>
        <time>2020-10-19T08:46:10Z</time>
      </trkpt>
      <trkpt lat="42.8239300" lon="-7.6898460">
        <ele>530.3</ele>
        <time>2020-10-19T08:46:11Z</time>
      </trkpt>
      <trkpt lat="42.8239290" lon="-7.6898470">
        <ele>530.3</ele>
        <time>2020-10-19T08:46:12Z</time>
      </trkpt>
      <trkpt lat="42.8239300" lon="-7.6898480">
        <ele>530.3</ele>
        <time>2020-10-19T08:46:13Z</time>
      </trkpt>
      <trkpt lat="42.8239310" lon="-7.6898490">
        <ele>530.3</ele>
        <time>2020-10-19T08:46:14Z</time>
      </trkpt>
      <trkpt lat="42.8239330" lon="-7.6898520">
        <ele>530.3</ele>
        <time>2020-10-19T08:46:15Z</time>
      </trkpt>
      <trkpt lat="42.8239340" lon="-7.6898560">
        <ele>530.3</ele>
        <time>2020-10-19T08:46:16Z</time>
      </trkpt>
      <trkpt lat="42.8239380" lon="-7.6898580">
        <ele>530.3</ele>
        <time>2020-10-19T08:46:17Z</time>
      </trkpt>
      <trkpt lat="42.8239430" lon="-7.6898580">
        <ele>530.3</ele>
        <time>2020-10-19T08:46:18Z</time>
      </trkpt>
      <trkpt lat="42.8239520" lon="-7.6898560">
        <ele>530.4</ele>
        <time>2020-10-19T08:46:19Z</time>
      </trkpt>
      <trkpt lat="42.8239630" lon="-7.6898510">
        <ele>530.4</ele>
        <time>2020-10-19T08:46:20Z</time>
      </trkpt>
      <trkpt lat="42.8239760" lon="-7.6898450">
        <ele>530.5</ele>
        <time>2020-10-19T08:46:21Z</time>
      </trkpt>
      <trkpt lat="42.8239890" lon="-7.6898400">
        <ele>530.6</ele>
        <time>2020-10-19T08:46:22Z</time>
      </trkpt>
      <trkpt lat="42.8240010" lon="-7.6898350">
        <ele>530.6</ele>
        <time>2020-10-19T08:46:23Z</time>
      </trkpt>
      <trkpt lat="42.8240140" lon="-7.6898300">
        <ele>530.7</ele>
        <time>2020-10-19T08:46:24Z</time>
      </trkpt>
      <trkpt lat="42.8240250" lon="-7.6898270">
        <ele>530.7</ele>
        <time>2020-10-19T08:46:25Z</time>
      </trkpt>
      <trkpt lat="42.8240350" lon="-7.6898260">
        <ele>530.8</ele>
        <time>2020-10-19T08:46:26Z</time>
      </trkpt>
      <trkpt lat="42.8240400" lon="-7.6898280">
        <ele>530.8</ele>
        <time>2020-10-19T08:46:27Z</time>
      </trkpt>
      <trkpt lat="42.8240430" lon="-7.6898290">
        <ele>530.8</ele>
        <time>2020-10-19T08:46:28Z</time>
      </trkpt>
      <trkpt lat="42.8240460" lon="-7.6898290">
        <ele>530.9</ele>
        <time>2020-10-19T08:46:29Z</time>
      </trkpt>
      <trkpt lat="42.8240480" lon="-7.6898280">
        <ele>530.9</ele>
        <time>2020-10-19T08:46:30Z</time>
      </trkpt>
      <trkpt lat="42.8240490" lon="-7.6898260">
        <ele>530.9</ele>
        <time>2020-10-19T08:46:31Z</time>
      </trkpt>
      <trkpt lat="42.8240500" lon="-7.6898250">
        <ele>530.9</ele>
        <time>2020-10-19T08:46:32Z</time>
      </trkpt>
      <trkpt lat="42.8240500" lon="-7.6898240">
        <ele>530.9</ele>
        <time>2020-10-19T08:46:33Z</time>
      </trkpt>
      <trkpt lat="42.8240500" lon="-7.6898250">
        <ele>530.9</ele>
        <time>2020-10-19T08:46:34Z</time>
      </trkpt>
      <trkpt lat="42.8240510" lon="-7.6898240">
        <ele>530.9</ele>
        <time>2020-10-19T08:46:35Z</time>
      </trkpt>
      <trkpt lat="42.8240510" lon="-7.6898230">
        <ele>530.9</ele>
        <time>2020-10-19T08:46:36Z</time>
      </trkpt>
      <trkpt lat="42.8240510" lon="-7.6898210">
        <ele>530.9</ele>
        <time>2020-10-19T08:46:37Z</time>
      </trkpt>
      <trkpt lat="42.8240520" lon="-7.6898190">
        <ele>530.9</ele>
        <time>2020-10-19T08:46:38Z</time>
      </trkpt>
      <trkpt lat="42.8240530" lon="-7.6898210">
        <ele>530.9</ele>
        <time>2020-10-19T08:46:39Z</time>
      </trkpt>
      <trkpt lat="42.8240540" lon="-7.6898230">
        <ele>530.9</ele>
        <time>2020-10-19T08:46:40Z</time>
      </trkpt>
      <trkpt lat="42.8240520" lon="-7.6898230">
        <ele>530.9</ele>
        <time>2020-10-19T08:46:41Z</time>
      </trkpt>
      <trkpt lat="42.8240490" lon="-7.6898190">
        <ele>531.0</ele>
        <time>2020-10-19T08:46:42Z</time>
      </trkpt>
      <trkpt lat="42.8240470" lon="-7.6898140">
        <ele>531.0</ele>
        <time>2020-10-19T08:46:43Z</time>
      </trkpt>
      <trkpt lat="42.8240470" lon="-7.6898090">
        <ele>531.0</ele>
        <time>2020-10-19T08:46:44Z</time>
      </trkpt>
      <trkpt lat="42.8240470" lon="-7.6898020">
        <ele>531.1</ele>
        <time>2020-10-19T08:46:45Z</time>
      </trkpt>
      <trkpt lat="42.8240460" lon="-7.6897960">
        <ele>531.1</ele>
        <time>2020-10-19T08:46:46Z</time>
      </trkpt>
      <trkpt lat="42.8240470" lon="-7.6897910">
        <ele>531.1</ele>
        <time>2020-10-19T08:46:47Z</time>
      </trkpt>
      <trkpt lat="42.8240500" lon="-7.6897870">
        <ele>531.1</ele>
        <time>2020-10-19T08:46:48Z</time>
      </trkpt>
      <trkpt lat="42.8240540" lon="-7.6897840">
        <ele>531.2</ele>
        <time>2020-10-19T08:46:49Z</time>
      </trkpt>
      <trkpt lat="42.8240560" lon="-7.6897800">
        <ele>531.2</ele>
        <time>2020-10-19T08:46:50Z</time>
      </trkpt>
      <trkpt lat="42.8240570" lon="-7.6897780">
        <ele>531.2</ele>
        <time>2020-10-19T08:46:51Z</time>
      </trkpt>
      <trkpt lat="42.8240570" lon="-7.6897780">
        <ele>531.2</ele>
        <time>2020-10-19T08:46:52Z</time>
      </trkpt>
      <trkpt lat="42.8240570" lon="-7.6897770">
        <ele>531.2</ele>
        <time>2020-10-19T08:46:53Z</time>
      </trkpt>
      <trkpt lat="42.8240570" lon="-7.6897760">
        <ele>531.2</ele>
        <time>2020-10-19T08:46:54Z</time>
      </trkpt>
      <trkpt lat="42.8240570" lon="-7.6897750">
        <ele>531.2</ele>
        <time>2020-10-19T08:46:55Z</time>
      </trkpt>
      <trkpt lat="42.8240560" lon="-7.6897750">
        <ele>531.2</ele>
        <time>2020-10-19T08:46:56Z</time>
      </trkpt>
      <trkpt lat="42.8240550" lon="-7.6897750">
        <ele>531.2</ele>
        <time>2020-10-19T08:46:57Z</time>
      </trkpt>
      <trkpt lat="42.8240540" lon="-7.6897740">
        <ele>531.2</ele>
        <time>2020-10-19T08:46:58Z</time>
      </trkpt>
      <trkpt lat="42.8240540" lon="-7.6897730">
        <ele>531.2</ele>
        <time>2020-10-19T08:46:59Z</time>
      </trkpt>
      <trkpt lat="42.8240540" lon="-7.6897710">
        <ele>531.2</ele>
        <time>2020-10-19T08:47:00Z</time>
      </trkpt>
      <trkpt lat="42.8240540" lon="-7.6897690">
        <ele>531.2</ele>
        <time>2020-10-19T08:47:01Z</time>
      </trkpt>
      <trkpt lat="42.8240550" lon="-7.6897660">
        <ele>531.3</ele>
        <time>2020-10-19T08:47:02Z</time>
      </trkpt>
      <trkpt lat="42.8240550" lon="-7.6897640">
        <ele>531.3</ele>
        <time>2020-10-19T08:47:03Z</time>
      </trkpt>
      <trkpt lat="42.8240550" lon="-7.6897620">
        <ele>531.3</ele>
        <time>2020-10-19T08:47:04Z</time>
      </trkpt>
      <trkpt lat="42.8240540" lon="-7.6897610">
        <ele>531.3</ele>
        <time>2020-10-19T08:47:05Z</time>
      </trkpt>
      <trkpt lat="42.8240530" lon="-7.6897590">
        <ele>531.3</ele>
        <time>2020-10-19T08:47:06Z</time>
      </trkpt>
      <trkpt lat="42.8240520" lon="-7.6897570">
        <ele>531.3</ele>
        <time>2020-10-19T08:47:07Z</time>
      </trkpt>
      <trkpt lat="42.8240510" lon="-7.6897540">
        <ele>531.3</ele>
        <time>2020-10-19T08:47:08Z</time>
      </trkpt>
      <trkpt lat="42.8240500" lon="-7.6897530">
        <ele>531.3</ele>
        <time>2020-10-19T08:47:09Z</time>
      </trkpt>
      <trkpt lat="42.8240510" lon="-7.6897520">
        <ele>531.3</ele>
        <time>2020-10-19T08:47:10Z</time>
      </trkpt>
      <trkpt lat="42.8240550" lon="-7.6897520">
        <ele>531.4</ele>
        <time>2020-10-19T08:47:11Z</time>
      </trkpt>
      <trkpt lat="42.8240620" lon="-7.6897520">
        <ele>531.4</ele>
        <time>2020-10-19T08:47:12Z</time>
      </trkpt>
      <trkpt lat="42.8240700" lon="-7.6897570">
        <ele>531.5</ele>
        <time>2020-10-19T08:47:13Z</time>
      </trkpt>
      <trkpt lat="42.8240770" lon="-7.6897640">
        <ele>531.6</ele>
        <time>2020-10-19T08:47:14Z</time>
      </trkpt>
      <trkpt lat="42.8240830" lon="-7.6897750">
        <ele>531.6</ele>
        <time>2020-10-19T08:47:15Z</time>
      </trkpt>
      <trkpt lat="42.8240900" lon="-7.6897850">
        <ele>531.7</ele>
        <time>2020-10-19T08:47:16Z</time>
      </trkpt>
      <trkpt lat="42.8240970" lon="-7.6897970">
        <ele>531.8</ele>
        <time>2020-10-19T08:47:17Z</time>
      </trkpt>
      <trkpt lat="42.8241050" lon="-7.6898090">
        <ele>531.9</ele>
        <time>2020-10-19T08:47:18Z</time>
      </trkpt>
      <trkpt lat="42.8241130" lon="-7.6898210">
        <ele>532.0</ele>
        <time>2020-10-19T08:47:19Z</time>
      </trkpt>
      <trkpt lat="42.8241210" lon="-7.6898330">
        <ele>532.1</ele>
        <time>2020-10-19T08:47:20Z</time>
      </trkpt>
      <trkpt lat="42.8241290" lon="-7.6898440">
        <ele>532.1</ele>
        <time>2020-10-19T08:47:21Z</time>
      </trkpt>
      <trkpt lat="42.8241360" lon="-7.6898550">
        <ele>532.2</ele>
        <time>2020-10-19T08:47:22Z</time>
      </trkpt>
      <trkpt lat="42.8241440" lon="-7.6898650">
        <ele>532.3</ele>
        <time>2020-10-19T08:47:23Z</time>
      </trkpt>
      <trkpt lat="42.8241520" lon="-7.6898760">
        <ele>532.4</ele>
        <time>2020-10-19T08:47:24Z</time>
      </trkpt>
      <trkpt lat="42.8241600" lon="-7.6898880">
        <ele>532.5</ele>
        <time>2020-10-19T08:47:25Z</time>
      </trkpt>
      <trkpt lat="42.8241710" lon="-7.6898990">
        <ele>532.6</ele>
        <time>2020-10-19T08:47:26Z</time>
      </trkpt>
      <trkpt lat="42.8241840" lon="-7.6899090">
        <ele>532.7</ele>
        <time>2020-10-19T08:47:27Z</time>
      </trkpt>
      <trkpt lat="42.8241970" lon="-7.6899190">
        <ele>532.8</ele>
        <time>2020-10-19T08:47:28Z</time>
      </trkpt>
      <trkpt lat="42.8242100" lon="-7.6899300">
        <ele>532.9</ele>
        <time>2020-10-19T08:47:29Z</time>
      </trkpt>
      <trkpt lat="42.8242210" lon="-7.6899430">
        <ele>533.0</ele>
        <time>2020-10-19T08:47:30Z</time>
      </trkpt>
      <trkpt lat="42.8242310" lon="-7.6899580">
        <ele>533.1</ele>
        <time>2020-10-19T08:47:31Z</time>
      </trkpt>
      <trkpt lat="42.8242420" lon="-7.6899720">
        <ele>533.2</ele>
        <time>2020-10-19T08:47:32Z</time>
      </trkpt>
      <trkpt lat="42.8242520" lon="-7.6899850">
        <ele>533.3</ele>
        <time>2020-10-19T08:47:33Z</time>
      </trkpt>
      <trkpt lat="42.8242620" lon="-7.6899980">
        <ele>533.4</ele>
        <time>2020-10-19T08:47:34Z</time>
      </trkpt>
      <trkpt lat="42.8242720" lon="-7.6900120">
        <ele>533.5</ele>
        <time>2020-10-19T08:47:35Z</time>
      </trkpt>
      <trkpt lat="42.8242810" lon="-7.6900260">
        <ele>533.5</ele>
        <time>2020-10-19T08:47:36Z</time>
      </trkpt>
      <trkpt lat="42.8242910" lon="-7.6900400">
        <ele>533.6</ele>
        <time>2020-10-19T08:47:37Z</time>
      </trkpt>
      <trkpt lat="42.8243010" lon="-7.6900550">
        <ele>533.7</ele>
        <time>2020-10-19T08:47:38Z</time>
      </trkpt>
      <trkpt lat="42.8243110" lon="-7.6900700">
        <ele>533.8</ele>
        <time>2020-10-19T08:47:39Z</time>
      </trkpt>
      <trkpt lat="42.8243210" lon="-7.6900840">
        <ele>533.9</ele>
        <time>2020-10-19T08:47:40Z</time>
      </trkpt>
      <trkpt lat="42.8243310" lon="-7.6900990">
        <ele>534.0</ele>
        <time>2020-10-19T08:47:41Z</time>
      </trkpt>
      <trkpt lat="42.8243420" lon="-7.6901110">
        <ele>534.0</ele>
        <time>2020-10-19T08:47:42Z</time>
      </trkpt>
      <trkpt lat="42.8243540" lon="-7.6901250">
        <ele>534.1</ele>
        <time>2020-10-19T08:47:43Z</time>
      </trkpt>
      <trkpt lat="42.8243650" lon="-7.6901370">
        <ele>534.2</ele>
        <time>2020-10-19T08:47:44Z</time>
      </trkpt>
      <trkpt lat="42.8243760" lon="-7.6901500">
        <ele>534.3</ele>
        <time>2020-10-19T08:47:45Z</time>
      </trkpt>
      <trkpt lat="42.8243870" lon="-7.6901630">
        <ele>534.4</ele>
        <time>2020-10-19T08:47:46Z</time>
      </trkpt>
      <trkpt lat="42.8244000" lon="-7.6901770">
        <ele>534.4</ele>
        <time>2020-10-19T08:47:47Z</time>
      </trkpt>
      <trkpt lat="42.8244110" lon="-7.6901900">
        <ele>534.5</ele>
        <time>2020-10-19T08:47:48Z</time>
      </trkpt>
      <trkpt lat="42.8244230" lon="-7.6902030">
        <ele>534.6</ele>
        <time>2020-10-19T08:47:49Z</time>
      </trkpt>
      <trkpt lat="42.8244330" lon="-7.6902160">
        <ele>534.7</ele>
        <time>2020-10-19T08:47:50Z</time>
      </trkpt>
      <trkpt lat="42.8244430" lon="-7.6902280">
        <ele>534.8</ele>
        <time>2020-10-19T08:47:51Z</time>
      </trkpt>
      <trkpt lat="42.8244530" lon="-7.6902390">
        <ele>534.8</ele>
        <time>2020-10-19T08:47:52Z</time>
      </trkpt>
      <trkpt lat="42.8244650" lon="-7.6902510">
        <ele>534.9</ele>
        <time>2020-10-19T08:47:53Z</time>
      </trkpt>
      <trkpt lat="42.8244770" lon="-7.6902630">
        <ele>535.0</ele>
        <time>2020-10-19T08:47:54Z</time>
      </trkpt>
      <trkpt lat="42.8244870" lon="-7.6902770">
        <ele>535.1</ele>
        <time>2020-10-19T08:47:55Z</time>
      </trkpt>
      <trkpt lat="42.8244970" lon="-7.6902910">
        <ele>535.1</ele>
        <time>2020-10-19T08:47:56Z</time>
      </trkpt>
      <trkpt lat="42.8245060" lon="-7.6903040">
        <ele>535.2</ele>
        <time>2020-10-19T08:47:57Z</time>
      </trkpt>
      <trkpt lat="42.8245160" lon="-7.6903180">
        <ele>535.3</ele>
        <time>2020-10-19T08:47:58Z</time>
      </trkpt>
      <trkpt lat="42.8245250" lon="-7.6903330">
        <ele>535.4</ele>
        <time>2020-10-19T08:47:59Z</time>
      </trkpt>
      <trkpt lat="42.8245350" lon="-7.6903480">
        <ele>535.5</ele>
        <time>2020-10-19T08:48:00Z</time>
      </trkpt>
      <trkpt lat="42.8245440" lon="-7.6903630">
        <ele>535.6</ele>
        <time>2020-10-19T08:48:01Z</time>
      </trkpt>
      <trkpt lat="42.8245520" lon="-7.6903780">
        <ele>535.6</ele>
        <time>2020-10-19T08:48:02Z</time>
      </trkpt>
      <trkpt lat="42.8245600" lon="-7.6903940">
        <ele>535.7</ele>
        <time>2020-10-19T08:48:03Z</time>
      </trkpt>
      <trkpt lat="42.8245670" lon="-7.6904110">
        <ele>535.8</ele>
        <time>2020-10-19T08:48:04Z</time>
      </trkpt>
      <trkpt lat="42.8245740" lon="-7.6904290">
        <ele>535.9</ele>
        <time>2020-10-19T08:48:05Z</time>
      </trkpt>
      <trkpt lat="42.8245810" lon="-7.6904460">
        <ele>536.0</ele>
        <time>2020-10-19T08:48:06Z</time>
      </trkpt>
      <trkpt lat="42.8245900" lon="-7.6904610">
        <ele>536.1</ele>
        <time>2020-10-19T08:48:07Z</time>
      </trkpt>
      <trkpt lat="42.8245980" lon="-7.6904750">
        <ele>536.1</ele>
        <time>2020-10-19T08:48:08Z</time>
      </trkpt>
      <trkpt lat="42.8246050" lon="-7.6904910">
        <ele>536.2</ele>
        <time>2020-10-19T08:48:09Z</time>
      </trkpt>
      <trkpt lat="42.8246120" lon="-7.6905070">
        <ele>536.3</ele>
        <time>2020-10-19T08:48:10Z</time>
      </trkpt>
      <trkpt lat="42.8246180" lon="-7.6905230">
        <ele>536.4</ele>
        <time>2020-10-19T08:48:11Z</time>
      </trkpt>
      <trkpt lat="42.8246240" lon="-7.6905390">
        <ele>536.5</ele>
        <time>2020-10-19T08:48:12Z</time>
      </trkpt>
      <trkpt lat="42.8246300" lon="-7.6905550">
        <ele>536.5</ele>
        <time>2020-10-19T08:48:13Z</time>
      </trkpt>
      <trkpt lat="42.8246360" lon="-7.6905710">
        <ele>536.6</ele>
        <time>2020-10-19T08:48:14Z</time>
      </trkpt>
      <trkpt lat="42.8246420" lon="-7.6905880">
        <ele>536.7</ele>
        <time>2020-10-19T08:48:15Z</time>
      </trkpt>
      <trkpt lat="42.8246480" lon="-7.6906050">
        <ele>536.8</ele>
        <time>2020-10-19T08:48:16Z</time>
      </trkpt>
      <trkpt lat="42.8246550" lon="-7.6906210">
        <ele>536.9</ele>
        <time>2020-10-19T08:48:17Z</time>
      </trkpt>
      <trkpt lat="42.8246610" lon="-7.6906380">
        <ele>537.0</ele>
        <time>2020-10-19T08:48:18Z</time>
      </trkpt>
      <trkpt lat="42.8246680" lon="-7.6906550">
        <ele>537.1</ele>
        <time>2020-10-19T08:48:19Z</time>
      </trkpt>
      <trkpt lat="42.8246740" lon="-7.6906720">
        <ele>537.1</ele>
        <time>2020-10-19T08:48:20Z</time>
      </trkpt>
      <trkpt lat="42.8246800" lon="-7.6906890">
        <ele>537.2</ele>
        <time>2020-10-19T08:48:21Z</time>
      </trkpt>
      <trkpt lat="42.8246850" lon="-7.6907050">
        <ele>537.3</ele>
        <time>2020-10-19T08:48:22Z</time>
      </trkpt>
      <trkpt lat="42.8246900" lon="-7.6907220">
        <ele>537.4</ele>
        <time>2020-10-19T08:48:23Z</time>
      </trkpt>
      <trkpt lat="42.8246950" lon="-7.6907390">
        <ele>537.5</ele>
        <time>2020-10-19T08:48:24Z</time>
      </trkpt>
      <trkpt lat="42.8247010" lon="-7.6907550">
        <ele>537.6</ele>
        <time>2020-10-19T08:48:25Z</time>
      </trkpt>
      <trkpt lat="42.8247060" lon="-7.6907720">
        <ele>537.6</ele>
        <time>2020-10-19T08:48:26Z</time>
      </trkpt>
      <trkpt lat="42.8247120" lon="-7.6907870">
        <ele>537.7</ele>
        <time>2020-10-19T08:48:27Z</time>
      </trkpt>
      <trkpt lat="42.8247180" lon="-7.6908020">
        <ele>537.8</ele>
        <time>2020-10-19T08:48:28Z</time>
      </trkpt>
      <trkpt lat="42.8247240" lon="-7.6908180">
        <ele>537.9</ele>
        <time>2020-10-19T08:48:29Z</time>
      </trkpt>
      <trkpt lat="42.8247290" lon="-7.6908340">
        <ele>538.0</ele>
        <time>2020-10-19T08:48:30Z</time>
      </trkpt>
      <trkpt lat="42.8247340" lon="-7.6908510">
        <ele>538.1</ele>
        <time>2020-10-19T08:48:31Z</time>
      </trkpt>
      <trkpt lat="42.8247390" lon="-7.6908680">
        <ele>538.2</ele>
        <time>2020-10-19T08:48:32Z</time>
      </trkpt>
      <trkpt lat="42.8247450" lon="-7.6908860">
        <ele>538.2</ele>
        <time>2020-10-19T08:48:33Z</time>
      </trkpt>
      <trkpt lat="42.8247510" lon="-7.6909030">
        <ele>538.3</ele>
        <time>2020-10-19T08:48:34Z</time>
      </trkpt>
      <trkpt lat="42.8247560" lon="-7.6909200">
        <ele>538.4</ele>
        <time>2020-10-19T08:48:35Z</time>
      </trkpt>
      <trkpt lat="42.8247620" lon="-7.6909360">
        <ele>538.5</ele>
        <time>2020-10-19T08:48:36Z</time>
      </trkpt>
      <trkpt lat="42.8247670" lon="-7.6909530">
        <ele>538.6</ele>
        <time>2020-10-19T08:48:37Z</time>
      </trkpt>
      <trkpt lat="42.8247720" lon="-7.6909680">
        <ele>538.7</ele>
        <time>2020-10-19T08:48:38Z</time>
      </trkpt>
      <trkpt lat="42.8247780" lon="-7.6909840">
        <ele>538.8</ele>
        <time>2020-10-19T08:48:39Z</time>
      </trkpt>
      <trkpt lat="42.8247840" lon="-7.6910000">
        <ele>538.9</ele>
        <time>2020-10-19T08:48:40Z</time>
      </trkpt>
      <trkpt lat="42.8247910" lon="-7.6910150">
        <ele>538.9</ele>
        <time>2020-10-19T08:48:41Z</time>
      </trkpt>
      <trkpt lat="42.8247980" lon="-7.6910310">
        <ele>539.0</ele>
        <time>2020-10-19T08:48:42Z</time>
      </trkpt>
      <trkpt lat="42.8248040" lon="-7.6910480">
        <ele>539.1</ele>
        <time>2020-10-19T08:48:43Z</time>
      </trkpt>
      <trkpt lat="42.8248100" lon="-7.6910650">
        <ele>539.2</ele>
        <time>2020-10-19T08:48:44Z</time>
      </trkpt>
      <trkpt lat="42.8248160" lon="-7.6910820">
        <ele>539.3</ele>
        <time>2020-10-19T08:48:45Z</time>
      </trkpt>
      <trkpt lat="42.8248210" lon="-7.6910990">
        <ele>539.4</ele>
        <time>2020-10-19T08:48:46Z</time>
      </trkpt>
      <trkpt lat="42.8248260" lon="-7.6911160">
        <ele>539.5</ele>
        <time>2020-10-19T08:48:47Z</time>
      </trkpt>
      <trkpt lat="42.8248310" lon="-7.6911330">
        <ele>539.5</ele>
        <time>2020-10-19T08:48:48Z</time>
      </trkpt>
      <trkpt lat="42.8248360" lon="-7.6911490">
        <ele>539.6</ele>
        <time>2020-10-19T08:48:49Z</time>
      </trkpt>
      <trkpt lat="42.8248420" lon="-7.6911660">
        <ele>539.7</ele>
        <time>2020-10-19T08:48:50Z</time>
      </trkpt>
      <trkpt lat="42.8248470" lon="-7.6911830">
        <ele>539.8</ele>
        <time>2020-10-19T08:48:51Z</time>
      </trkpt>
      <trkpt lat="42.8248530" lon="-7.6911990">
        <ele>539.9</ele>
        <time>2020-10-19T08:48:52Z</time>
      </trkpt>
      <trkpt lat="42.8248590" lon="-7.6912160">
        <ele>539.9</ele>
        <time>2020-10-19T08:48:53Z</time>
      </trkpt>
      <trkpt lat="42.8248650" lon="-7.6912330">
        <ele>540.0</ele>
        <time>2020-10-19T08:48:54Z</time>
      </trkpt>
      <trkpt lat="42.8248700" lon="-7.6912500">
        <ele>540.1</ele>
        <time>2020-10-19T08:48:55Z</time>
      </trkpt>
      <trkpt lat="42.8248760" lon="-7.6912670">
        <ele>540.2</ele>
        <time>2020-10-19T08:48:56Z</time>
      </trkpt>
      <trkpt lat="42.8248820" lon="-7.6912830">
        <ele>540.2</ele>
        <time>2020-10-19T08:48:57Z</time>
      </trkpt>
      <trkpt lat="42.8248870" lon="-7.6913000">
        <ele>540.3</ele>
        <time>2020-10-19T08:48:58Z</time>
      </trkpt>
      <trkpt lat="42.8248920" lon="-7.6913170">
        <ele>540.4</ele>
        <time>2020-10-19T08:48:59Z</time>
      </trkpt>
      <trkpt lat="42.8248960" lon="-7.6913350">
        <ele>540.4</ele>
        <time>2020-10-19T08:49:00Z</time>
      </trkpt>
      <trkpt lat="42.8249000" lon="-7.6913530">
        <ele>540.5</ele>
        <time>2020-10-19T08:49:01Z</time>
      </trkpt>
      <trkpt lat="42.8249050" lon="-7.6913700">
        <ele>540.5</ele>
        <time>2020-10-19T08:49:02Z</time>
      </trkpt>
      <trkpt lat="42.8249120" lon="-7.6913860">
        <ele>540.6</ele>
        <time>2020-10-19T08:49:03Z</time>
      </trkpt>
      <trkpt lat="42.8249180" lon="-7.6914020">
        <ele>540.7</ele>
        <time>2020-10-19T08:49:04Z</time>
      </trkpt>
      <trkpt lat="42.8249240" lon="-7.6914170">
        <ele>540.7</ele>
        <time>2020-10-19T08:49:05Z</time>
      </trkpt>
      <trkpt lat="42.8249300" lon="-7.6914340">
        <ele>540.8</ele>
        <time>2020-10-19T08:49:06Z</time>
      </trkpt>
      <trkpt lat="42.8249350" lon="-7.6914500">
        <ele>540.8</ele>
        <time>2020-10-19T08:49:07Z</time>
      </trkpt>
      <trkpt lat="42.8249400" lon="-7.6914660">
        <ele>540.9</ele>
        <time>2020-10-19T08:49:08Z</time>
      </trkpt>
      <trkpt lat="42.8249450" lon="-7.6914830">
        <ele>540.9</ele>
        <time>2020-10-19T08:49:09Z</time>
      </trkpt>
      <trkpt lat="42.8249500" lon="-7.6915000">
        <ele>541.0</ele>
        <time>2020-10-19T08:49:10Z</time>
      </trkpt>
      <trkpt lat="42.8249550" lon="-7.6915160">
        <ele>541.0</ele>
        <time>2020-10-19T08:49:11Z</time>
      </trkpt>
      <trkpt lat="42.8249600" lon="-7.6915330">
        <ele>541.1</ele>
        <time>2020-10-19T08:49:12Z</time>
      </trkpt>
      <trkpt lat="42.8249660" lon="-7.6915490">
        <ele>541.1</ele>
        <time>2020-10-19T08:49:13Z</time>
      </trkpt>
      <trkpt lat="42.8249710" lon="-7.6915660">
        <ele>541.2</ele>
        <time>2020-10-19T08:49:14Z</time>
      </trkpt>
      <trkpt lat="42.8249770" lon="-7.6915830">
        <ele>541.2</ele>
        <time>2020-10-19T08:49:15Z</time>
      </trkpt>
      <trkpt lat="42.8249820" lon="-7.6916000">
        <ele>541.3</ele>
        <time>2020-10-19T08:49:16Z</time>
      </trkpt>
      <trkpt lat="42.8249880" lon="-7.6916180">
        <ele>541.4</ele>
        <time>2020-10-19T08:49:17Z</time>
      </trkpt>
      <trkpt lat="42.8249930" lon="-7.6916350">
        <ele>541.4</ele>
        <time>2020-10-19T08:49:18Z</time>
      </trkpt>
      <trkpt lat="42.8249990" lon="-7.6916530">
        <ele>541.4</ele>
        <time>2020-10-19T08:49:19Z</time>
      </trkpt>
      <trkpt lat="42.8250040" lon="-7.6916700">
        <ele>541.5</ele>
        <time>2020-10-19T08:49:20Z</time>
      </trkpt>
      <trkpt lat="42.8250090" lon="-7.6916860">
        <ele>541.5</ele>
        <time>2020-10-19T08:49:21Z</time>
      </trkpt>
      <trkpt lat="42.8250140" lon="-7.6917020">
        <ele>541.6</ele>
        <time>2020-10-19T08:49:22Z</time>
      </trkpt>
      <trkpt lat="42.8250190" lon="-7.6917180">
        <ele>541.6</ele>
        <time>2020-10-19T08:49:23Z</time>
      </trkpt>
      <trkpt lat="42.8250260" lon="-7.6917320">
        <ele>541.6</ele>
        <time>2020-10-19T08:49:24Z</time>
      </trkpt>
      <trkpt lat="42.8250310" lon="-7.6917450">
        <ele>541.7</ele>
        <time>2020-10-19T08:49:25Z</time>
      </trkpt>
      <trkpt lat="42.8250360" lon="-7.6917610">
        <ele>541.7</ele>
        <time>2020-10-19T08:49:26Z</time>
      </trkpt>
      <trkpt lat="42.8250390" lon="-7.6917770">
        <ele>541.7</ele>
        <time>2020-10-19T08:49:27Z</time>
      </trkpt>
      <trkpt lat="42.8250410" lon="-7.6917950">
        <ele>541.8</ele>
        <time>2020-10-19T08:49:28Z</time>
      </trkpt>
      <trkpt lat="42.8250450" lon="-7.6918110">
        <ele>541.8</ele>
        <time>2020-10-19T08:49:29Z</time>
      </trkpt>
      <trkpt lat="42.8250510" lon="-7.6918290">
        <ele>541.9</ele>
        <time>2020-10-19T08:49:30Z</time>
      </trkpt>
      <trkpt lat="42.8250580" lon="-7.6918460">
        <ele>541.9</ele>
        <time>2020-10-19T08:49:31Z</time>
      </trkpt>
      <trkpt lat="42.8250640" lon="-7.6918630">
        <ele>541.9</ele>
        <time>2020-10-19T08:49:32Z</time>
      </trkpt>
      <trkpt lat="42.8250700" lon="-7.6918810">
        <ele>542.0</ele>
        <time>2020-10-19T08:49:33Z</time>
      </trkpt>
      <trkpt lat="42.8250760" lon="-7.6919000">
        <ele>542.0</ele>
        <time>2020-10-19T08:49:34Z</time>
      </trkpt>
      <trkpt lat="42.8250820" lon="-7.6919170">
        <ele>542.1</ele>
        <time>2020-10-19T08:49:35Z</time>
      </trkpt>
      <trkpt lat="42.8250870" lon="-7.6919340">
        <ele>542.1</ele>
        <time>2020-10-19T08:49:36Z</time>
      </trkpt>
      <trkpt lat="42.8250910" lon="-7.6919510">
        <ele>542.1</ele>
        <time>2020-10-19T08:49:37Z</time>
      </trkpt>
      <trkpt lat="42.8250960" lon="-7.6919680">
        <ele>542.2</ele>
        <time>2020-10-19T08:49:38Z</time>
      </trkpt>
      <trkpt lat="42.8251010" lon="-7.6919860">
        <ele>542.2</ele>
        <time>2020-10-19T08:49:39Z</time>
      </trkpt>
      <trkpt lat="42.8251060" lon="-7.6920030">
        <ele>542.3</ele>
        <time>2020-10-19T08:49:40Z</time>
      </trkpt>
      <trkpt lat="42.8251100" lon="-7.6920200">
        <ele>542.3</ele>
        <time>2020-10-19T08:49:41Z</time>
      </trkpt>
      <trkpt lat="42.8251150" lon="-7.6920370">
        <ele>542.3</ele>
        <time>2020-10-19T08:49:42Z</time>
      </trkpt>
      <trkpt lat="42.8251200" lon="-7.6920520">
        <ele>542.4</ele>
        <time>2020-10-19T08:49:43Z</time>
      </trkpt>
      <trkpt lat="42.8251240" lon="-7.6920690">
        <ele>542.4</ele>
        <time>2020-10-19T08:49:44Z</time>
      </trkpt>
      <trkpt lat="42.8251280" lon="-7.6920860">
        <ele>542.4</ele>
        <time>2020-10-19T08:49:45Z</time>
      </trkpt>
      <trkpt lat="42.8251340" lon="-7.6921050">
        <ele>542.5</ele>
        <time>2020-10-19T08:49:46Z</time>
      </trkpt>
      <trkpt lat="42.8251390" lon="-7.6921210">
        <ele>542.5</ele>
        <time>2020-10-19T08:49:47Z</time>
      </trkpt>
      <trkpt lat="42.8251440" lon="-7.6921370">
        <ele>542.5</ele>
        <time>2020-10-19T08:49:48Z</time>
      </trkpt>
      <trkpt lat="42.8251490" lon="-7.6921540">
        <ele>542.6</ele>
        <time>2020-10-19T08:49:49Z</time>
      </trkpt>
      <trkpt lat="42.8251540" lon="-7.6921730">
        <ele>542.6</ele>
        <time>2020-10-19T08:49:50Z</time>
      </trkpt>
      <trkpt lat="42.8251580" lon="-7.6921930">
        <ele>542.6</ele>
        <time>2020-10-19T08:49:51Z</time>
      </trkpt>
      <trkpt lat="42.8251620" lon="-7.6922120">
        <ele>542.7</ele>
        <time>2020-10-19T08:49:52Z</time>
      </trkpt>
      <trkpt lat="42.8251670" lon="-7.6922290">
        <ele>542.7</ele>
        <time>2020-10-19T08:49:53Z</time>
      </trkpt>
      <trkpt lat="42.8251720" lon="-7.6922460">
        <ele>542.7</ele>
        <time>2020-10-19T08:49:54Z</time>
      </trkpt>
      <trkpt lat="42.8251780" lon="-7.6922640">
        <ele>542.8</ele>
        <time>2020-10-19T08:49:55Z</time>
      </trkpt>
      <trkpt lat="42.8251830" lon="-7.6922820">
        <ele>542.8</ele>
        <time>2020-10-19T08:49:56Z</time>
      </trkpt>
      <trkpt lat="42.8251880" lon="-7.6923000">
        <ele>542.8</ele>
        <time>2020-10-19T08:49:57Z</time>
      </trkpt>
      <trkpt lat="42.8251920" lon="-7.6923190">
        <ele>542.9</ele>
        <time>2020-10-19T08:49:58Z</time>
      </trkpt>
      <trkpt lat="42.8251970" lon="-7.6923370">
        <ele>542.9</ele>
        <time>2020-10-19T08:49:59Z</time>
      </trkpt>
      <trkpt lat="42.8252030" lon="-7.6923540">
        <ele>542.9</ele>
        <time>2020-10-19T08:50:00Z</time>
      </trkpt>
      <trkpt lat="42.8252090" lon="-7.6923720">
        <ele>543.0</ele>
        <time>2020-10-19T08:50:01Z</time>
      </trkpt>
      <trkpt lat="42.8252140" lon="-7.6923900">
        <ele>543.0</ele>
        <time>2020-10-19T08:50:02Z</time>
      </trkpt>
      <trkpt lat="42.8252200" lon="-7.6924080">
        <ele>543.0</ele>
        <time>2020-10-19T08:50:03Z</time>
      </trkpt>
      <trkpt lat="42.8252260" lon="-7.6924240">
        <ele>543.1</ele>
        <time>2020-10-19T08:50:04Z</time>
      </trkpt>
      <trkpt lat="42.8252330" lon="-7.6924410">
        <ele>543.1</ele>
        <time>2020-10-19T08:50:05Z</time>
      </trkpt>
      <trkpt lat="42.8252390" lon="-7.6924590">
        <ele>543.1</ele>
        <time>2020-10-19T08:50:06Z</time>
      </trkpt>
      <trkpt lat="42.8252470" lon="-7.6924760">
        <ele>543.2</ele>
        <time>2020-10-19T08:50:07Z</time>
      </trkpt>
      <trkpt lat="42.8252530" lon="-7.6924950">
        <ele>543.2</ele>
        <time>2020-10-19T08:50:08Z</time>
      </trkpt>
      <trkpt lat="42.8252590" lon="-7.6925130">
        <ele>543.2</ele>
        <time>2020-10-19T08:50:09Z</time>
      </trkpt>
      <trkpt lat="42.8252640" lon="-7.6925310">
        <ele>543.3</ele>
        <time>2020-10-19T08:50:10Z</time>
      </trkpt>
      <trkpt lat="42.8252690" lon="-7.6925490">
        <ele>543.3</ele>
        <time>2020-10-19T08:50:11Z</time>
      </trkpt>
      <trkpt lat="42.8252740" lon="-7.6925660">
        <ele>543.3</ele>
        <time>2020-10-19T08:50:12Z</time>
      </trkpt>
      <trkpt lat="42.8252790" lon="-7.6925830">
        <ele>543.4</ele>
        <time>2020-10-19T08:50:13Z</time>
      </trkpt>
      <trkpt lat="42.8252840" lon="-7.6926010">
        <ele>543.4</ele>
        <time>2020-10-19T08:50:14Z</time>
      </trkpt>
      <trkpt lat="42.8252900" lon="-7.6926170">
        <ele>543.4</ele>
        <time>2020-10-19T08:50:15Z</time>
      </trkpt>
      <trkpt lat="42.8252970" lon="-7.6926330">
        <ele>543.5</ele>
        <time>2020-10-19T08:50:16Z</time>
      </trkpt>
      <trkpt lat="42.8253030" lon="-7.6926500">
        <ele>543.5</ele>
        <time>2020-10-19T08:50:17Z</time>
      </trkpt>
      <trkpt lat="42.8253080" lon="-7.6926670">
        <ele>543.5</ele>
        <time>2020-10-19T08:50:18Z</time>
      </trkpt>
      <trkpt lat="42.8253130" lon="-7.6926840">
        <ele>543.6</ele>
        <time>2020-10-19T08:50:19Z</time>
      </trkpt>
      <trkpt lat="42.8253180" lon="-7.6927010">
        <ele>543.6</ele>
        <time>2020-10-19T08:50:20Z</time>
      </trkpt>
      <trkpt lat="42.8253220" lon="-7.6927180">
        <ele>543.6</ele>
        <time>2020-10-19T08:50:21Z</time>
      </trkpt>
      <trkpt lat="42.8253260" lon="-7.6927350">
        <ele>543.7</ele>
        <time>2020-10-19T08:50:22Z</time>
      </trkpt>
      <trkpt lat="42.8253320" lon="-7.6927520">
        <ele>543.7</ele>
        <time>2020-10-19T08:50:23Z</time>
      </trkpt>
      <trkpt lat="42.8253370" lon="-7.6927690">
        <ele>543.7</ele>
        <time>2020-10-19T08:50:24Z</time>
      </trkpt>
      <trkpt lat="42.8253420" lon="-7.6927850">
        <ele>543.8</ele>
        <time>2020-10-19T08:50:25Z</time>
      </trkpt>
      <trkpt lat="42.8253470" lon="-7.6928020">
        <ele>543.8</ele>
        <time>2020-10-19T08:50:26Z</time>
      </trkpt>
      <trkpt lat="42.8253520" lon="-7.6928190">
        <ele>543.8</ele>
        <time>2020-10-19T08:50:27Z</time>
      </trkpt>
      <trkpt lat="42.8253570" lon="-7.6928360">
        <ele>543.9</ele>
        <time>2020-10-19T08:50:28Z</time>
      </trkpt>
      <trkpt lat="42.8253630" lon="-7.6928530">
        <ele>543.9</ele>
        <time>2020-10-19T08:50:29Z</time>
      </trkpt>
      <trkpt lat="42.8253690" lon="-7.6928690">
        <ele>544.0</ele>
        <time>2020-10-19T08:50:30Z</time>
      </trkpt>
      <trkpt lat="42.8253750" lon="-7.6928860">
        <ele>544.0</ele>
        <time>2020-10-19T08:50:31Z</time>
      </trkpt>
      <trkpt lat="42.8253810" lon="-7.6929020">
        <ele>544.0</ele>
        <time>2020-10-19T08:50:32Z</time>
      </trkpt>
      <trkpt lat="42.8253870" lon="-7.6929190">
        <ele>544.1</ele>
        <time>2020-10-19T08:50:33Z</time>
      </trkpt>
      <trkpt lat="42.8253920" lon="-7.6929370">
        <ele>544.1</ele>
        <time>2020-10-19T08:50:34Z</time>
      </trkpt>
      <trkpt lat="42.8253960" lon="-7.6929560">
        <ele>544.1</ele>
        <time>2020-10-19T08:50:35Z</time>
      </trkpt>
      <trkpt lat="42.8254010" lon="-7.6929740">
        <ele>544.2</ele>
        <time>2020-10-19T08:50:36Z</time>
      </trkpt>
      <trkpt lat="42.8254060" lon="-7.6929910">
        <ele>544.2</ele>
        <time>2020-10-19T08:50:37Z</time>
      </trkpt>
      <trkpt lat="42.8254110" lon="-7.6930090">
        <ele>544.3</ele>
        <time>2020-10-19T08:50:38Z</time>
      </trkpt>
      <trkpt lat="42.8254150" lon="-7.6930260">
        <ele>544.3</ele>
        <time>2020-10-19T08:50:39Z</time>
      </trkpt>
      <trkpt lat="42.8254200" lon="-7.6930420">
        <ele>544.3</ele>
        <time>2020-10-19T08:50:40Z</time>
      </trkpt>
      <trkpt lat="42.8254250" lon="-7.6930580">
        <ele>544.4</ele>
        <time>2020-10-19T08:50:41Z</time>
      </trkpt>
      <trkpt lat="42.8254300" lon="-7.6930750">
        <ele>544.4</ele>
        <time>2020-10-19T08:50:42Z</time>
      </trkpt>
      <trkpt lat="42.8254350" lon="-7.6930930">
        <ele>544.4</ele>
        <time>2020-10-19T08:50:43Z</time>
      </trkpt>
      <trkpt lat="42.8254400" lon="-7.6931100">
        <ele>544.5</ele>
        <time>2020-10-19T08:50:44Z</time>
      </trkpt>
      <trkpt lat="42.8254450" lon="-7.6931280">
        <ele>544.5</ele>
        <time>2020-10-19T08:50:45Z</time>
      </trkpt>
      <trkpt lat="42.8254500" lon="-7.6931450">
        <ele>544.6</ele>
        <time>2020-10-19T08:50:46Z</time>
      </trkpt>
      <trkpt lat="42.8254570" lon="-7.6931630">
        <ele>544.6</ele>
        <time>2020-10-19T08:50:47Z</time>
      </trkpt>
      <trkpt lat="42.8254630" lon="-7.6931810">
        <ele>544.6</ele>
        <time>2020-10-19T08:50:48Z</time>
      </trkpt>
      <trkpt lat="42.8254680" lon="-7.6931990">
        <ele>544.7</ele>
        <time>2020-10-19T08:50:49Z</time>
      </trkpt>
      <trkpt lat="42.8254730" lon="-7.6932170">
        <ele>544.7</ele>
        <time>2020-10-19T08:50:50Z</time>
      </trkpt>
      <trkpt lat="42.8254770" lon="-7.6932340">
        <ele>544.8</ele>
        <time>2020-10-19T08:50:51Z</time>
      </trkpt>
      <trkpt lat="42.8254820" lon="-7.6932510">
        <ele>544.8</ele>
        <time>2020-10-19T08:50:52Z</time>
      </trkpt>
      <trkpt lat="42.8254860" lon="-7.6932670">
        <ele>544.8</ele>
        <time>2020-10-19T08:50:53Z</time>
      </trkpt>
      <trkpt lat="42.8254910" lon="-7.6932830">
        <ele>544.9</ele>
        <time>2020-10-19T08:50:54Z</time>
      </trkpt>
      <trkpt lat="42.8254970" lon="-7.6933020">
        <ele>544.9</ele>
        <time>2020-10-19T08:50:55Z</time>
      </trkpt>
      <trkpt lat="42.8255020" lon="-7.6933200">
        <ele>545.0</ele>
        <time>2020-10-19T08:50:56Z</time>
      </trkpt>
      <trkpt lat="42.8255070" lon="-7.6933380">
        <ele>545.0</ele>
        <time>2020-10-19T08:50:57Z</time>
      </trkpt>
      <trkpt lat="42.8255130" lon="-7.6933540">
        <ele>545.0</ele>
        <time>2020-10-19T08:50:58Z</time>
      </trkpt>
      <trkpt lat="42.8255190" lon="-7.6933720">
        <ele>545.1</ele>
        <time>2020-10-19T08:50:59Z</time>
      </trkpt>
      <trkpt lat="42.8255250" lon="-7.6933900">
        <ele>545.1</ele>
        <time>2020-10-19T08:51:00Z</time>
      </trkpt>
      <trkpt lat="42.8255310" lon="-7.6934080">
        <ele>545.1</ele>
        <time>2020-10-19T08:51:01Z</time>
      </trkpt>
      <trkpt lat="42.8255360" lon="-7.6934250">
        <ele>545.2</ele>
        <time>2020-10-19T08:51:02Z</time>
      </trkpt>
      <trkpt lat="42.8255410" lon="-7.6934430">
        <ele>545.2</ele>
        <time>2020-10-19T08:51:03Z</time>
      </trkpt>
      <trkpt lat="42.8255460" lon="-7.6934610">
        <ele>545.3</ele>
        <time>2020-10-19T08:51:04Z</time>
      </trkpt>
      <trkpt lat="42.8255510" lon="-7.6934800">
        <ele>545.3</ele>
        <time>2020-10-19T08:51:05Z</time>
      </trkpt>
      <trkpt lat="42.8255560" lon="-7.6934990">
        <ele>545.3</ele>
        <time>2020-10-19T08:51:06Z</time>
      </trkpt>
      <trkpt lat="42.8255600" lon="-7.6935180">
        <ele>545.4</ele>
        <time>2020-10-19T08:51:07Z</time>
      </trkpt>
      <trkpt lat="42.8255650" lon="-7.6935360">
        <ele>545.4</ele>
        <time>2020-10-19T08:51:08Z</time>
      </trkpt>
      <trkpt lat="42.8255700" lon="-7.6935540">
        <ele>545.4</ele>
        <time>2020-10-19T08:51:09Z</time>
      </trkpt>
      <trkpt lat="42.8255770" lon="-7.6935700">
        <ele>545.5</ele>
        <time>2020-10-19T08:51:10Z</time>
      </trkpt>
      <trkpt lat="42.8255830" lon="-7.6935860">
        <ele>545.5</ele>
        <time>2020-10-19T08:51:11Z</time>
      </trkpt>
      <trkpt lat="42.8255870" lon="-7.6936030">
        <ele>545.5</ele>
        <time>2020-10-19T08:51:12Z</time>
      </trkpt>
      <trkpt lat="42.8255880" lon="-7.6936210">
        <ele>545.6</ele>
        <time>2020-10-19T08:51:13Z</time>
      </trkpt>
      <trkpt lat="42.8255890" lon="-7.6936380">
        <ele>545.6</ele>
        <time>2020-10-19T08:51:14Z</time>
      </trkpt>
      <trkpt lat="42.8255910" lon="-7.6936550">
        <ele>545.6</ele>
        <time>2020-10-19T08:51:15Z</time>
      </trkpt>
      <trkpt lat="42.8255930" lon="-7.6936720">
        <ele>545.7</ele>
        <time>2020-10-19T08:51:16Z</time>
      </trkpt>
      <trkpt lat="42.8255970" lon="-7.6936880">
        <ele>545.7</ele>
        <time>2020-10-19T08:51:17Z</time>
      </trkpt>
      <trkpt lat="42.8256020" lon="-7.6937050">
        <ele>545.7</ele>
        <time>2020-10-19T08:51:18Z</time>
      </trkpt>
      <trkpt lat="42.8256070" lon="-7.6937220">
        <ele>545.8</ele>
        <time>2020-10-19T08:51:19Z</time>
      </trkpt>
      <trkpt lat="42.8256130" lon="-7.6937400">
        <ele>545.8</ele>
        <time>2020-10-19T08:51:20Z</time>
      </trkpt>
      <trkpt lat="42.8256190" lon="-7.6937580">
        <ele>545.8</ele>
        <time>2020-10-19T08:51:21Z</time>
      </trkpt>
      <trkpt lat="42.8256250" lon="-7.6937750">
        <ele>545.9</ele>
        <time>2020-10-19T08:51:22Z</time>
      </trkpt>
      <trkpt lat="42.8256300" lon="-7.6937930">
        <ele>545.9</ele>
        <time>2020-10-19T08:51:23Z</time>
      </trkpt>
      <trkpt lat="42.8256360" lon="-7.6938100">
        <ele>545.9</ele>
        <time>2020-10-19T08:51:24Z</time>
      </trkpt>
      <trkpt lat="42.8256420" lon="-7.6938280">
        <ele>546.0</ele>
        <time>2020-10-19T08:51:25Z</time>
      </trkpt>
      <trkpt lat="42.8256470" lon="-7.6938450">
        <ele>546.0</ele>
        <time>2020-10-19T08:51:26Z</time>
      </trkpt>
      <trkpt lat="42.8256520" lon="-7.6938620">
        <ele>546.0</ele>
        <time>2020-10-19T08:51:27Z</time>
      </trkpt>
      <trkpt lat="42.8256570" lon="-7.6938790">
        <ele>546.1</ele>
        <time>2020-10-19T08:51:28Z</time>
      </trkpt>
      <trkpt lat="42.8256630" lon="-7.6938960">
        <ele>546.1</ele>
        <time>2020-10-19T08:51:29Z</time>
      </trkpt>
      <trkpt lat="42.8256680" lon="-7.6939140">
        <ele>546.1</ele>
        <time>2020-10-19T08:51:30Z</time>
      </trkpt>
      <trkpt lat="42.8256730" lon="-7.6939310">
        <ele>546.2</ele>
        <time>2020-10-19T08:51:31Z</time>
      </trkpt>
      <trkpt lat="42.8256770" lon="-7.6939480">
        <ele>546.2</ele>
        <time>2020-10-19T08:51:32Z</time>
      </trkpt>
      <trkpt lat="42.8256810" lon="-7.6939670">
        <ele>546.3</ele>
        <time>2020-10-19T08:51:33Z</time>
      </trkpt>
      <trkpt lat="42.8256860" lon="-7.6939850">
        <ele>546.3</ele>
        <time>2020-10-19T08:51:34Z</time>
      </trkpt>
      <trkpt lat="42.8256900" lon="-7.6940030">
        <ele>546.3</ele>
        <time>2020-10-19T08:51:35Z</time>
      </trkpt>
      <trkpt lat="42.8256950" lon="-7.6940200">
        <ele>546.4</ele>
        <time>2020-10-19T08:51:36Z</time>
      </trkpt>
      <trkpt lat="42.8257000" lon="-7.6940380">
        <ele>546.4</ele>
        <time>2020-10-19T08:51:37Z</time>
      </trkpt>
      <trkpt lat="42.8257040" lon="-7.6940550">
        <ele>546.4</ele>
        <time>2020-10-19T08:51:38Z</time>
      </trkpt>
      <trkpt lat="42.8257090" lon="-7.6940720">
        <ele>546.5</ele>
        <time>2020-10-19T08:51:39Z</time>
      </trkpt>
      <trkpt lat="42.8257140" lon="-7.6940890">
        <ele>546.5</ele>
        <time>2020-10-19T08:51:40Z</time>
      </trkpt>
      <trkpt lat="42.8257200" lon="-7.6941060">
        <ele>546.5</ele>
        <time>2020-10-19T08:51:41Z</time>
      </trkpt>
      <trkpt lat="42.8257260" lon="-7.6941220">
        <ele>546.6</ele>
        <time>2020-10-19T08:51:42Z</time>
      </trkpt>
      <trkpt lat="42.8257320" lon="-7.6941380">
        <ele>546.6</ele>
        <time>2020-10-19T08:51:43Z</time>
      </trkpt>
      <trkpt lat="42.8257380" lon="-7.6941540">
        <ele>546.6</ele>
        <time>2020-10-19T08:51:44Z</time>
      </trkpt>
      <trkpt lat="42.8257440" lon="-7.6941710">
        <ele>546.7</ele>
        <time>2020-10-19T08:51:45Z</time>
      </trkpt>
      <trkpt lat="42.8257500" lon="-7.6941880">
        <ele>546.7</ele>
        <time>2020-10-19T08:51:46Z</time>
      </trkpt>
      <trkpt lat="42.8257550" lon="-7.6942060">
        <ele>546.8</ele>
        <time>2020-10-19T08:51:47Z</time>
      </trkpt>
      <trkpt lat="42.8257600" lon="-7.6942230">
        <ele>546.8</ele>
        <time>2020-10-19T08:51:48Z</time>
      </trkpt>
      <trkpt lat="42.8257660" lon="-7.6942410">
        <ele>546.8</ele>
        <time>2020-10-19T08:51:49Z</time>
      </trkpt>
      <trkpt lat="42.8257720" lon="-7.6942580">
        <ele>546.9</ele>
        <time>2020-10-19T08:51:50Z</time>
      </trkpt>
      <trkpt lat="42.8257780" lon="-7.6942750">
        <ele>546.9</ele>
        <time>2020-10-19T08:51:51Z</time>
      </trkpt>
      <trkpt lat="42.8257850" lon="-7.6942920">
        <ele>547.0</ele>
        <time>2020-10-19T08:51:52Z</time>
      </trkpt>
      <trkpt lat="42.8257920" lon="-7.6943080">
        <ele>547.0</ele>
        <time>2020-10-19T08:51:53Z</time>
      </trkpt>
      <trkpt lat="42.8257990" lon="-7.6943250">
        <ele>547.1</ele>
        <time>2020-10-19T08:51:54Z</time>
      </trkpt>
      <trkpt lat="42.8258060" lon="-7.6943420">
        <ele>547.1</ele>
        <time>2020-10-19T08:51:55Z</time>
      </trkpt>
      <trkpt lat="42.8258130" lon="-7.6943600">
        <ele>547.1</ele>
        <time>2020-10-19T08:51:56Z</time>
      </trkpt>
      <trkpt lat="42.8258190" lon="-7.6943760">
        <ele>547.2</ele>
        <time>2020-10-19T08:51:57Z</time>
      </trkpt>
      <trkpt lat="42.8258230" lon="-7.6943930">
        <ele>547.2</ele>
        <time>2020-10-19T08:51:58Z</time>
      </trkpt>
      <trkpt lat="42.8258280" lon="-7.6944070">
        <ele>547.3</ele>
        <time>2020-10-19T08:51:59Z</time>
      </trkpt>
      <trkpt lat="42.8258320" lon="-7.6944210">
        <ele>547.3</ele>
        <time>2020-10-19T08:52:00Z</time>
      </trkpt>
      <trkpt lat="42.8258360" lon="-7.6944350">
        <ele>547.3</ele>
        <time>2020-10-19T08:52:01Z</time>
      </trkpt>
      <trkpt lat="42.8258400" lon="-7.6944480">
        <ele>547.4</ele>
        <time>2020-10-19T08:52:02Z</time>
      </trkpt>
      <trkpt lat="42.8258440" lon="-7.6944600">
        <ele>547.4</ele>
        <time>2020-10-19T08:52:03Z</time>
      </trkpt>
      <trkpt lat="42.8258480" lon="-7.6944720">
        <ele>547.4</ele>
        <time>2020-10-19T08:52:04Z</time>
      </trkpt>
      <trkpt lat="42.8258490" lon="-7.6944850">
        <ele>547.4</ele>
        <time>2020-10-19T08:52:05Z</time>
      </trkpt>
      <trkpt lat="42.8258480" lon="-7.6944970">
        <ele>547.5</ele>
        <time>2020-10-19T08:52:06Z</time>
      </trkpt>
      <trkpt lat="42.8258450" lon="-7.6945080">
        <ele>547.5</ele>
        <time>2020-10-19T08:52:07Z</time>
      </trkpt>
      <trkpt lat="42.8258430" lon="-7.6945130">
        <ele>547.5</ele>
        <time>2020-10-19T08:52:08Z</time>
      </trkpt>
      <trkpt lat="42.8258430" lon="-7.6945150">
        <ele>547.5</ele>
        <time>2020-10-19T08:52:09Z</time>
      </trkpt>
      <trkpt lat="42.8258440" lon="-7.6945130">
        <ele>547.5</ele>
        <time>2020-10-19T08:52:10Z</time>
      </trkpt>
      <trkpt lat="42.8258450" lon="-7.6945130">
        <ele>547.5</ele>
        <time>2020-10-19T08:52:11Z</time>
      </trkpt>
      <trkpt lat="42.8258450" lon="-7.6945140">
        <ele>547.5</ele>
        <time>2020-10-19T08:52:12Z</time>
      </trkpt>
      <trkpt lat="42.8258450" lon="-7.6945140">
        <ele>547.5</ele>
        <time>2020-10-19T08:52:13Z</time>
      </trkpt>
      <trkpt lat="42.8258440" lon="-7.6945150">
        <ele>547.5</ele>
        <time>2020-10-19T08:52:14Z</time>
      </trkpt>
      <trkpt lat="42.8258430" lon="-7.6945150">
        <ele>547.5</ele>
        <time>2020-10-19T08:52:15Z</time>
      </trkpt>
      <trkpt lat="42.8258430" lon="-7.6945150">
        <ele>547.5</ele>
        <time>2020-10-19T08:52:16Z</time>
      </trkpt>
      <trkpt lat="42.8258440" lon="-7.6945150">
        <ele>547.5</ele>
        <time>2020-10-19T08:52:17Z</time>
      </trkpt>
      <trkpt lat="42.8258440" lon="-7.6945160">
        <ele>547.5</ele>
        <time>2020-10-19T08:52:18Z</time>
      </trkpt>
      <trkpt lat="42.8258450" lon="-7.6945180">
        <ele>547.5</ele>
        <time>2020-10-19T08:52:19Z</time>
      </trkpt>
      <trkpt lat="42.8258470" lon="-7.6945220">
        <ele>547.5</ele>
        <time>2020-10-19T08:52:20Z</time>
      </trkpt>
      <trkpt lat="42.8258510" lon="-7.6945320">
        <ele>547.6</ele>
        <time>2020-10-19T08:52:21Z</time>
      </trkpt>
      <trkpt lat="42.8258570" lon="-7.6945460">
        <ele>547.6</ele>
        <time>2020-10-19T08:52:22Z</time>
      </trkpt>
      <trkpt lat="42.8258630" lon="-7.6945620">
        <ele>547.6</ele>
        <time>2020-10-19T08:52:23Z</time>
      </trkpt>
      <trkpt lat="42.8258680" lon="-7.6945790">
        <ele>547.7</ele>
        <time>2020-10-19T08:52:24Z</time>
      </trkpt>
      <trkpt lat="42.8258740" lon="-7.6945960">
        <ele>547.7</ele>
        <time>2020-10-19T08:52:25Z</time>
      </trkpt>
      <trkpt lat="42.8258800" lon="-7.6946110">
        <ele>547.7</ele>
        <time>2020-10-19T08:52:26Z</time>
      </trkpt>
      <trkpt lat="42.8258860" lon="-7.6946280">
        <ele>547.8</ele>
        <time>2020-10-19T08:52:27Z</time>
      </trkpt>
      <trkpt lat="42.8258920" lon="-7.6946440">
        <ele>547.8</ele>
        <time>2020-10-19T08:52:28Z</time>
      </trkpt>
      <trkpt lat="42.8258980" lon="-7.6946620">
        <ele>547.9</ele>
        <time>2020-10-19T08:52:29Z</time>
      </trkpt>
      <trkpt lat="42.8259040" lon="-7.6946800">
        <ele>547.9</ele>
        <time>2020-10-19T08:52:30Z</time>
      </trkpt>
      <trkpt lat="42.8259090" lon="-7.6946980">
        <ele>547.9</ele>
        <time>2020-10-19T08:52:31Z</time>
      </trkpt>
      <trkpt lat="42.8259130" lon="-7.6947160">
        <ele>547.9</ele>
        <time>2020-10-19T08:52:32Z</time>
      </trkpt>
      <trkpt lat="42.8259170" lon="-7.6947330">
        <ele>548.0</ele>
        <time>2020-10-19T08:52:33Z</time>
      </trkpt>
      <trkpt lat="42.8259210" lon="-7.6947500">
        <ele>548.0</ele>
        <time>2020-10-19T08:52:34Z</time>
      </trkpt>
      <trkpt lat="42.8259250" lon="-7.6947660">
        <ele>548.0</ele>
        <time>2020-10-19T08:52:35Z</time>
      </trkpt>
      <trkpt lat="42.8259300" lon="-7.6947810">
        <ele>548.1</ele>
        <time>2020-10-19T08:52:36Z</time>
      </trkpt>
      <trkpt lat="42.8259350" lon="-7.6947980">
        <ele>548.1</ele>
        <time>2020-10-19T08:52:37Z</time>
      </trkpt>
      <trkpt lat="42.8259410" lon="-7.6948150">
        <ele>548.1</ele>
        <time>2020-10-19T08:52:38Z</time>
      </trkpt>
      <trkpt lat="42.8259450" lon="-7.6948310">
        <ele>548.1</ele>
        <time>2020-10-19T08:52:39Z</time>
      </trkpt>
      <trkpt lat="42.8259500" lon="-7.6948480">
        <ele>548.2</ele>
        <time>2020-10-19T08:52:40Z</time>
      </trkpt>
      <trkpt lat="42.8259550" lon="-7.6948650">
        <ele>548.2</ele>
        <time>2020-10-19T08:52:41Z</time>
      </trkpt>
      <trkpt lat="42.8259610" lon="-7.6948810">
        <ele>548.2</ele>
        <time>2020-10-19T08:52:42Z</time>
      </trkpt>
      <trkpt lat="42.8259670" lon="-7.6948970">
        <ele>548.3</ele>
        <time>2020-10-19T08:52:43Z</time>
      </trkpt>
      <trkpt lat="42.8259720" lon="-7.6949130">
        <ele>548.3</ele>
        <time>2020-10-19T08:52:44Z</time>
      </trkpt>
      <trkpt lat="42.8259770" lon="-7.6949290">
        <ele>548.3</ele>
        <time>2020-10-19T08:52:45Z</time>
      </trkpt>
      <trkpt lat="42.8259820" lon="-7.6949450">
        <ele>548.4</ele>
        <time>2020-10-19T08:52:46Z</time>
      </trkpt>
      <trkpt lat="42.8259880" lon="-7.6949610">
        <ele>548.4</ele>
        <time>2020-10-19T08:52:47Z</time>
      </trkpt>
      <trkpt lat="42.8259940" lon="-7.6949770">
        <ele>548.4</ele>
        <time>2020-10-19T08:52:48Z</time>
      </trkpt>
      <trkpt lat="42.8259990" lon="-7.6949930">
        <ele>548.5</ele>
        <time>2020-10-19T08:52:49Z</time>
      </trkpt>
      <trkpt lat="42.8260040" lon="-7.6950090">
        <ele>548.5</ele>
        <time>2020-10-19T08:52:50Z</time>
      </trkpt>
      <trkpt lat="42.8260090" lon="-7.6950250">
        <ele>548.5</ele>
        <time>2020-10-19T08:52:51Z</time>
      </trkpt>
      <trkpt lat="42.8260130" lon="-7.6950410">
        <ele>548.6</ele>
        <time>2020-10-19T08:52:52Z</time>
      </trkpt>
      <trkpt lat="42.8260180" lon="-7.6950580">
        <ele>548.6</ele>
        <time>2020-10-19T08:52:53Z</time>
      </trkpt>
      <trkpt lat="42.8260230" lon="-7.6950740">
        <ele>548.6</ele>
        <time>2020-10-19T08:52:54Z</time>
      </trkpt>
      <trkpt lat="42.8260280" lon="-7.6950900">
        <ele>548.7</ele>
        <time>2020-10-19T08:52:55Z</time>
      </trkpt>
      <trkpt lat="42.8260320" lon="-7.6951060">
        <ele>548.7</ele>
        <time>2020-10-19T08:52:56Z</time>
      </trkpt>
      <trkpt lat="42.8260370" lon="-7.6951210">
        <ele>548.7</ele>
        <time>2020-10-19T08:52:57Z</time>
      </trkpt>
      <trkpt lat="42.8260420" lon="-7.6951360">
        <ele>548.8</ele>
        <time>2020-10-19T08:52:58Z</time>
      </trkpt>
      <trkpt lat="42.8260480" lon="-7.6951500">
        <ele>548.8</ele>
        <time>2020-10-19T08:52:59Z</time>
      </trkpt>
      <trkpt lat="42.8260550" lon="-7.6951630">
        <ele>548.8</ele>
        <time>2020-10-19T08:53:00Z</time>
      </trkpt>
      <trkpt lat="42.8260620" lon="-7.6951760">
        <ele>548.9</ele>
        <time>2020-10-19T08:53:01Z</time>
      </trkpt>
      <trkpt lat="42.8260700" lon="-7.6951910">
        <ele>548.9</ele>
        <time>2020-10-19T08:53:02Z</time>
      </trkpt>
      <trkpt lat="42.8260760" lon="-7.6952060">
        <ele>549.0</ele>
        <time>2020-10-19T08:53:03Z</time>
      </trkpt>
      <trkpt lat="42.8260810" lon="-7.6952220">
        <ele>549.0</ele>
        <time>2020-10-19T08:53:04Z</time>
      </trkpt>
      <trkpt lat="42.8260860" lon="-7.6952390">
        <ele>549.1</ele>
        <time>2020-10-19T08:53:05Z</time>
      </trkpt>
      <trkpt lat="42.8260920" lon="-7.6952550">
        <ele>549.1</ele>
        <time>2020-10-19T08:53:06Z</time>
      </trkpt>
      <trkpt lat="42.8260980" lon="-7.6952710">
        <ele>549.2</ele>
        <time>2020-10-19T08:53:07Z</time>
      </trkpt>
      <trkpt lat="42.8261030" lon="-7.6952880">
        <ele>549.2</ele>
        <time>2020-10-19T08:53:08Z</time>
      </trkpt>
      <trkpt lat="42.8261070" lon="-7.6953040">
        <ele>549.3</ele>
        <time>2020-10-19T08:53:09Z</time>
      </trkpt>
      <trkpt lat="42.8261110" lon="-7.6953210">
        <ele>549.3</ele>
        <time>2020-10-19T08:53:10Z</time>
      </trkpt>
      <trkpt lat="42.8261150" lon="-7.6953380">
        <ele>549.4</ele>
        <time>2020-10-19T08:53:11Z</time>
      </trkpt>
      <trkpt lat="42.8261210" lon="-7.6953560">
        <ele>549.4</ele>
        <time>2020-10-19T08:53:12Z</time>
      </trkpt>
      <trkpt lat="42.8261270" lon="-7.6953730">
        <ele>549.5</ele>
        <time>2020-10-19T08:53:13Z</time>
      </trkpt>
      <trkpt lat="42.8261330" lon="-7.6953890">
        <ele>549.6</ele>
        <time>2020-10-19T08:53:14Z</time>
      </trkpt>
      <trkpt lat="42.8261390" lon="-7.6954060">
        <ele>549.6</ele>
        <time>2020-10-19T08:53:15Z</time>
      </trkpt>
      <trkpt lat="42.8261440" lon="-7.6954240">
        <ele>549.7</ele>
        <time>2020-10-19T08:53:16Z</time>
      </trkpt>
      <trkpt lat="42.8261490" lon="-7.6954400">
        <ele>549.7</ele>
        <time>2020-10-19T08:53:17Z</time>
      </trkpt>
      <trkpt lat="42.8261540" lon="-7.6954570">
        <ele>549.8</ele>
        <time>2020-10-19T08:53:18Z</time>
      </trkpt>
      <trkpt lat="42.8261590" lon="-7.6954730">
        <ele>549.8</ele>
        <time>2020-10-19T08:53:19Z</time>
      </trkpt>
      <trkpt lat="42.8261640" lon="-7.6954900">
        <ele>549.9</ele>
        <time>2020-10-19T08:53:20Z</time>
      </trkpt>
      <trkpt lat="42.8261690" lon="-7.6955070">
        <ele>549.9</ele>
        <time>2020-10-19T08:53:21Z</time>
      </trkpt>
      <trkpt lat="42.8261740" lon="-7.6955240">
        <ele>550.0</ele>
        <time>2020-10-19T08:53:22Z</time>
      </trkpt>
      <trkpt lat="42.8261790" lon="-7.6955400">
        <ele>550.0</ele>
        <time>2020-10-19T08:53:23Z</time>
      </trkpt>
      <trkpt lat="42.8261840" lon="-7.6955560">
        <ele>550.1</ele>
        <time>2020-10-19T08:53:24Z</time>
      </trkpt>
      <trkpt lat="42.8261890" lon="-7.6955710">
        <ele>550.1</ele>
        <time>2020-10-19T08:53:25Z</time>
      </trkpt>
      <trkpt lat="42.8261940" lon="-7.6955870">
        <ele>550.2</ele>
        <time>2020-10-19T08:53:26Z</time>
      </trkpt>
      <trkpt lat="42.8261990" lon="-7.6956040">
        <ele>550.2</ele>
        <time>2020-10-19T08:53:27Z</time>
      </trkpt>
      <trkpt lat="42.8262040" lon="-7.6956190">
        <ele>550.3</ele>
        <time>2020-10-19T08:53:28Z</time>
      </trkpt>
      <trkpt lat="42.8262090" lon="-7.6956340">
        <ele>550.3</ele>
        <time>2020-10-19T08:53:29Z</time>
      </trkpt>
      <trkpt lat="42.8262160" lon="-7.6956490">
        <ele>550.4</ele>
        <time>2020-10-19T08:53:30Z</time>
      </trkpt>
      <trkpt lat="42.8262220" lon="-7.6956660">
        <ele>550.4</ele>
        <time>2020-10-19T08:53:31Z</time>
      </trkpt>
      <trkpt lat="42.8262280" lon="-7.6956840">
        <ele>550.5</ele>
        <time>2020-10-19T08:53:32Z</time>
      </trkpt>
      <trkpt lat="42.8262340" lon="-7.6957000">
        <ele>550.5</ele>
        <time>2020-10-19T08:53:33Z</time>
      </trkpt>
      <trkpt lat="42.8262400" lon="-7.6957170">
        <ele>550.6</ele>
        <time>2020-10-19T08:53:34Z</time>
      </trkpt>
      <trkpt lat="42.8262470" lon="-7.6957330">
        <ele>550.7</ele>
        <time>2020-10-19T08:53:35Z</time>
      </trkpt>
      <trkpt lat="42.8262540" lon="-7.6957500">
        <ele>550.7</ele>
        <time>2020-10-19T08:53:36Z</time>
      </trkpt>
      <trkpt lat="42.8262620" lon="-7.6957660">
        <ele>550.8</ele>
        <time>2020-10-19T08:53:37Z</time>
      </trkpt>
      <trkpt lat="42.8262690" lon="-7.6957820">
        <ele>550.8</ele>
        <time>2020-10-19T08:53:38Z</time>
      </trkpt>
      <trkpt lat="42.8262760" lon="-7.6957990">
        <ele>550.9</ele>
        <time>2020-10-19T08:53:39Z</time>
      </trkpt>
      <trkpt lat="42.8262830" lon="-7.6958140">
        <ele>550.9</ele>
        <time>2020-10-19T08:53:40Z</time>
      </trkpt>
      <trkpt lat="42.8262900" lon="-7.6958310">
        <ele>551.0</ele>
        <time>2020-10-19T08:53:41Z</time>
      </trkpt>
      <trkpt lat="42.8262980" lon="-7.6958470">
        <ele>551.0</ele>
        <time>2020-10-19T08:53:42Z</time>
      </trkpt>
      <trkpt lat="42.8263050" lon="-7.6958640">
        <ele>551.1</ele>
        <time>2020-10-19T08:53:43Z</time>
      </trkpt>
      <trkpt lat="42.8263130" lon="-7.6958790">
        <ele>551.1</ele>
        <time>2020-10-19T08:53:44Z</time>
      </trkpt>
      <trkpt lat="42.8263200" lon="-7.6958930">
        <ele>551.2</ele>
        <time>2020-10-19T08:53:45Z</time>
      </trkpt>
      <trkpt lat="42.8263270" lon="-7.6959090">
        <ele>551.2</ele>
        <time>2020-10-19T08:53:46Z</time>
      </trkpt>
      <trkpt lat="42.8263320" lon="-7.6959250">
        <ele>551.3</ele>
        <time>2020-10-19T08:53:47Z</time>
      </trkpt>
      <trkpt lat="42.8263370" lon="-7.6959410">
        <ele>551.3</ele>
        <time>2020-10-19T08:53:48Z</time>
      </trkpt>
      <trkpt lat="42.8263430" lon="-7.6959570">
        <ele>551.4</ele>
        <time>2020-10-19T08:53:49Z</time>
      </trkpt>
      <trkpt lat="42.8263490" lon="-7.6959720">
        <ele>551.4</ele>
        <time>2020-10-19T08:53:50Z</time>
      </trkpt>
      <trkpt lat="42.8263560" lon="-7.6959870">
        <ele>551.4</ele>
        <time>2020-10-19T08:53:51Z</time>
      </trkpt>
      <trkpt lat="42.8263620" lon="-7.6960020">
        <ele>551.5</ele>
        <time>2020-10-19T08:53:52Z</time>
      </trkpt>
      <trkpt lat="42.8263690" lon="-7.6960160">
        <ele>551.5</ele>
        <time>2020-10-19T08:53:53Z</time>
      </trkpt>
      <trkpt lat="42.8263760" lon="-7.6960310">
        <ele>551.6</ele>
        <time>2020-10-19T08:53:54Z</time>
      </trkpt>
      <trkpt lat="42.8263840" lon="-7.6960450">
        <ele>551.6</ele>
        <time>2020-10-19T08:53:55Z</time>
      </trkpt>
      <trkpt lat="42.8263910" lon="-7.6960590">
        <ele>551.6</ele>
        <time>2020-10-19T08:53:56Z</time>
      </trkpt>
      <trkpt lat="42.8263990" lon="-7.6960730">
        <ele>551.7</ele>
        <time>2020-10-19T08:53:57Z</time>
      </trkpt>
      <trkpt lat="42.8264060" lon="-7.6960880">
        <ele>551.7</ele>
        <time>2020-10-19T08:53:58Z</time>
      </trkpt>
      <trkpt lat="42.8264140" lon="-7.6961030">
        <ele>551.7</ele>
        <time>2020-10-19T08:53:59Z</time>
      </trkpt>
      <trkpt lat="42.8264200" lon="-7.6961170">
        <ele>551.8</ele>
        <time>2020-10-19T08:54:00Z</time>
      </trkpt>
      <trkpt lat="42.8264280" lon="-7.6961310">
        <ele>551.8</ele>
        <time>2020-10-19T08:54:01Z</time>
      </trkpt>
      <trkpt lat="42.8264350" lon="-7.6961460">
        <ele>551.8</ele>
        <time>2020-10-19T08:54:02Z</time>
      </trkpt>
      <trkpt lat="42.8264440" lon="-7.6961600">
        <ele>551.9</ele>
        <time>2020-10-19T08:54:03Z</time>
      </trkpt>
      <trkpt lat="42.8264530" lon="-7.6961740">
        <ele>551.9</ele>
        <time>2020-10-19T08:54:04Z</time>
      </trkpt>
      <trkpt lat="42.8264630" lon="-7.6961870">
        <ele>552.0</ele>
        <time>2020-10-19T08:54:05Z</time>
      </trkpt>
      <trkpt lat="42.8264700" lon="-7.6962010">
        <ele>552.0</ele>
        <time>2020-10-19T08:54:06Z</time>
      </trkpt>
      <trkpt lat="42.8264770" lon="-7.6962170">
        <ele>552.0</ele>
        <time>2020-10-19T08:54:07Z</time>
      </trkpt>
      <trkpt lat="42.8264830" lon="-7.6962320">
        <ele>552.0</ele>
        <time>2020-10-19T08:54:08Z</time>
      </trkpt>
      <trkpt lat="42.8264890" lon="-7.6962470">
        <ele>552.1</ele>
        <time>2020-10-19T08:54:09Z</time>
      </trkpt>
      <trkpt lat="42.8264960" lon="-7.6962620">
        <ele>552.1</ele>
        <time>2020-10-19T08:54:10Z</time>
      </trkpt>
      <trkpt lat="42.8265040" lon="-7.6962760">
        <ele>552.1</ele>
        <time>2020-10-19T08:54:11Z</time>
      </trkpt>
      <trkpt lat="42.8265130" lon="-7.6962910">
        <ele>552.2</ele>
        <time>2020-10-19T08:54:12Z</time>
      </trkpt>
      <trkpt lat="42.8265220" lon="-7.6963060">
        <ele>552.2</ele>
        <time>2020-10-19T08:54:13Z</time>
      </trkpt>
      <trkpt lat="42.8265300" lon="-7.6963220">
        <ele>552.2</ele>
        <time>2020-10-19T08:54:14Z</time>
      </trkpt>
      <trkpt lat="42.8265370" lon="-7.6963370">
        <ele>552.2</ele>
        <time>2020-10-19T08:54:15Z</time>
      </trkpt>
      <trkpt lat="42.8265450" lon="-7.6963510">
        <ele>552.2</ele>
        <time>2020-10-19T08:54:16Z</time>
      </trkpt>
      <trkpt lat="42.8265530" lon="-7.6963660">
        <ele>552.2</ele>
        <time>2020-10-19T08:54:17Z</time>
      </trkpt>
      <trkpt lat="42.8265610" lon="-7.6963810">
        <ele>552.3</ele>
        <time>2020-10-19T08:54:18Z</time>
      </trkpt>
      <trkpt lat="42.8265680" lon="-7.6963960">
        <ele>552.3</ele>
        <time>2020-10-19T08:54:19Z</time>
      </trkpt>
      <trkpt lat="42.8265760" lon="-7.6964100">
        <ele>552.3</ele>
        <time>2020-10-19T08:54:20Z</time>
      </trkpt>
      <trkpt lat="42.8265830" lon="-7.6964230">
        <ele>552.3</ele>
        <time>2020-10-19T08:54:21Z</time>
      </trkpt>
      <trkpt lat="42.8265880" lon="-7.6964380">
        <ele>552.3</ele>
        <time>2020-10-19T08:54:22Z</time>
      </trkpt>
      <trkpt lat="42.8265920" lon="-7.6964520">
        <ele>552.3</ele>
        <time>2020-10-19T08:54:23Z</time>
      </trkpt>
      <trkpt lat="42.8265950" lon="-7.6964660">
        <ele>552.3</ele>
        <time>2020-10-19T08:54:24Z</time>
      </trkpt>
      <trkpt lat="42.8265990" lon="-7.6964780">
        <ele>552.4</ele>
        <time>2020-10-19T08:54:25Z</time>
      </trkpt>
      <trkpt lat="42.8266040" lon="-7.6964880">
        <ele>552.4</ele>
        <time>2020-10-19T08:54:26Z</time>
      </trkpt>
      <trkpt lat="42.8266090" lon="-7.6964970">
        <ele>552.4</ele>
        <time>2020-10-19T08:54:27Z</time>
      </trkpt>
      <trkpt lat="42.8266150" lon="-7.6965060">
        <ele>552.4</ele>
        <time>2020-10-19T08:54:28Z</time>
      </trkpt>
      <trkpt lat="42.8266230" lon="-7.6965170">
        <ele>552.4</ele>
        <time>2020-10-19T08:54:29Z</time>
      </trkpt>
      <trkpt lat="42.8266310" lon="-7.6965290">
        <ele>552.4</ele>
        <time>2020-10-19T08:54:30Z</time>
      </trkpt>
      <trkpt lat="42.8266400" lon="-7.6965430">
        <ele>552.4</ele>
        <time>2020-10-19T08:54:31Z</time>
      </trkpt>
      <trkpt lat="42.8266490" lon="-7.6965590">
        <ele>552.4</ele>
        <time>2020-10-19T08:54:32Z</time>
      </trkpt>
      <trkpt lat="42.8266560" lon="-7.6965740">
        <ele>552.4</ele>
        <time>2020-10-19T08:54:33Z</time>
      </trkpt>
      <trkpt lat="42.8266640" lon="-7.6965860">
        <ele>552.5</ele>
        <time>2020-10-19T08:54:34Z</time>
      </trkpt>
      <trkpt lat="42.8266710" lon="-7.6965980">
        <ele>552.5</ele>
        <time>2020-10-19T08:54:35Z</time>
      </trkpt>
      <trkpt lat="42.8266800" lon="-7.6966080">
        <ele>552.5</ele>
        <time>2020-10-19T08:54:36Z</time>
      </trkpt>
      <trkpt lat="42.8266870" lon="-7.6966200">
        <ele>552.5</ele>
        <time>2020-10-19T08:54:37Z</time>
      </trkpt>
      <trkpt lat="42.8266930" lon="-7.6966300">
        <ele>552.5</ele>
        <time>2020-10-19T08:54:38Z</time>
      </trkpt>
      <trkpt lat="42.8266970" lon="-7.6966380">
        <ele>552.5</ele>
        <time>2020-10-19T08:54:39Z</time>
      </trkpt>
      <trkpt lat="42.8266990" lon="-7.6966470">
        <ele>552.5</ele>
        <time>2020-10-19T08:54:40Z</time>
      </trkpt>
      <trkpt lat="42.8267040" lon="-7.6966580">
        <ele>552.5</ele>
        <time>2020-10-19T08:54:41Z</time>
      </trkpt>
      <trkpt lat="42.8267100" lon="-7.6966700">
        <ele>552.5</ele>
        <time>2020-10-19T08:54:42Z</time>
      </trkpt>
      <trkpt lat="42.8267170" lon="-7.6966820">
        <ele>552.5</ele>
        <time>2020-10-19T08:54:43Z</time>
      </trkpt>
      <trkpt lat="42.8267250" lon="-7.6966940">
        <ele>552.5</ele>
        <time>2020-10-19T08:54:44Z</time>
      </trkpt>
      <trkpt lat="42.8267330" lon="-7.6967050">
        <ele>552.6</ele>
        <time>2020-10-19T08:54:45Z</time>
      </trkpt>
      <trkpt lat="42.8267400" lon="-7.6967160">
        <ele>552.6</ele>
        <time>2020-10-19T08:54:46Z</time>
      </trkpt>
      <trkpt lat="42.8267460" lon="-7.6967270">
        <ele>552.6</ele>
        <time>2020-10-19T08:54:47Z</time>
      </trkpt>
      <trkpt lat="42.8267520" lon="-7.6967390">
        <ele>552.6</ele>
        <time>2020-10-19T08:54:48Z</time>
      </trkpt>
      <trkpt lat="42.8267580" lon="-7.6967500">
        <ele>552.6</ele>
        <time>2020-10-19T08:54:49Z</time>
      </trkpt>
      <trkpt lat="42.8267650" lon="-7.6967620">
        <ele>552.6</ele>
        <time>2020-10-19T08:54:50Z</time>
      </trkpt>
      <trkpt lat="42.8267720" lon="-7.6967750">
        <ele>552.6</ele>
        <time>2020-10-19T08:54:51Z</time>
      </trkpt>
      <trkpt lat="42.8267800" lon="-7.6967870">
        <ele>552.7</ele>
        <time>2020-10-19T08:54:52Z</time>
      </trkpt>
      <trkpt lat="42.8267880" lon="-7.6967990">
        <ele>552.7</ele>
        <time>2020-10-19T08:54:53Z</time>
      </trkpt>
      <trkpt lat="42.8267950" lon="-7.6968110">
        <ele>552.7</ele>
        <time>2020-10-19T08:54:54Z</time>
      </trkpt>
      <trkpt lat="42.8268030" lon="-7.6968220">
        <ele>552.7</ele>
        <time>2020-10-19T08:54:55Z</time>
      </trkpt>
      <trkpt lat="42.8268100" lon="-7.6968320">
        <ele>552.7</ele>
        <time>2020-10-19T08:54:56Z</time>
      </trkpt>
      <trkpt lat="42.8268170" lon="-7.6968420">
        <ele>552.8</ele>
        <time>2020-10-19T08:54:57Z</time>
      </trkpt>
      <trkpt lat="42.8268240" lon="-7.6968520">
        <ele>552.8</ele>
        <time>2020-10-19T08:54:58Z</time>
      </trkpt>
      <trkpt lat="42.8268300" lon="-7.6968630">
        <ele>552.8</ele>
        <time>2020-10-19T08:54:59Z</time>
      </trkpt>
      <trkpt lat="42.8268360" lon="-7.6968720">
        <ele>552.8</ele>
        <time>2020-10-19T08:55:00Z</time>
      </trkpt>
      <trkpt lat="42.8268420" lon="-7.6968800">
        <ele>552.9</ele>
        <time>2020-10-19T08:55:01Z</time>
      </trkpt>
      <trkpt lat="42.8268490" lon="-7.6968890">
        <ele>552.9</ele>
        <time>2020-10-19T08:55:02Z</time>
      </trkpt>
      <trkpt lat="42.8268560" lon="-7.6969000">
        <ele>552.9</ele>
        <time>2020-10-19T08:55:03Z</time>
      </trkpt>
      <trkpt lat="42.8268610" lon="-7.6969130">
        <ele>553.0</ele>
        <time>2020-10-19T08:55:04Z</time>
      </trkpt>
      <trkpt lat="42.8268670" lon="-7.6969270">
        <ele>553.0</ele>
        <time>2020-10-19T08:55:05Z</time>
      </trkpt>
      <trkpt lat="42.8268750" lon="-7.6969410">
        <ele>553.1</ele>
        <time>2020-10-19T08:55:06Z</time>
      </trkpt>
      <trkpt lat="42.8268820" lon="-7.6969550">
        <ele>553.1</ele>
        <time>2020-10-19T08:55:07Z</time>
      </trkpt>
      <trkpt lat="42.8268900" lon="-7.6969680">
        <ele>553.2</ele>
        <time>2020-10-19T08:55:08Z</time>
      </trkpt>
      <trkpt lat="42.8268980" lon="-7.6969810">
        <ele>553.2</ele>
        <time>2020-10-19T08:55:09Z</time>
      </trkpt>
      <trkpt lat="42.8269060" lon="-7.6969920">
        <ele>553.3</ele>
        <time>2020-10-19T08:55:10Z</time>
      </trkpt>
      <trkpt lat="42.8269140" lon="-7.6970050">
        <ele>553.3</ele>
        <time>2020-10-19T08:55:11Z</time>
      </trkpt>
      <trkpt lat="42.8269210" lon="-7.6970180">
        <ele>553.4</ele>
        <time>2020-10-19T08:55:12Z</time>
      </trkpt>
      <trkpt lat="42.8269290" lon="-7.6970310">
        <ele>553.4</ele>
        <time>2020-10-19T08:55:13Z</time>
      </trkpt>
      <trkpt lat="42.8269360" lon="-7.6970430">
        <ele>553.5</ele>
        <time>2020-10-19T08:55:14Z</time>
      </trkpt>
      <trkpt lat="42.8269440" lon="-7.6970550">
        <ele>553.5</ele>
        <time>2020-10-19T08:55:15Z</time>
      </trkpt>
      <trkpt lat="42.8269530" lon="-7.6970660">
        <ele>553.6</ele>
        <time>2020-10-19T08:55:16Z</time>
      </trkpt>
      <trkpt lat="42.8269610" lon="-7.6970780">
        <ele>553.6</ele>
        <time>2020-10-19T08:55:17Z</time>
      </trkpt>
      <trkpt lat="42.8269690" lon="-7.6970900">
        <ele>553.7</ele>
        <time>2020-10-19T08:55:18Z</time>
      </trkpt>
      <trkpt lat="42.8269760" lon="-7.6971010">
        <ele>553.7</ele>
        <time>2020-10-19T08:55:19Z</time>
      </trkpt>
      <trkpt lat="42.8269830" lon="-7.6971100">
        <ele>553.8</ele>
        <time>2020-10-19T08:55:20Z</time>
      </trkpt>
      <trkpt lat="42.8269880" lon="-7.6971170">
        <ele>553.8</ele>
        <time>2020-10-19T08:55:21Z</time>
      </trkpt>
      <trkpt lat="42.8269910" lon="-7.6971260">
        <ele>553.8</ele>
        <time>2020-10-19T08:55:22Z</time>
      </trkpt>
      <trkpt lat="42.8269920" lon="-7.6971380">
        <ele>553.8</ele>
        <time>2020-10-19T08:55:23Z</time>
      </trkpt>
      <trkpt lat="42.8269930" lon="-7.6971530">
        <ele>553.8</ele>
        <time>2020-10-19T08:55:24Z</time>
      </trkpt>
      <trkpt lat="42.8269950" lon="-7.6971680">
        <ele>553.8</ele>
        <time>2020-10-19T08:55:25Z</time>
      </trkpt>
      <trkpt lat="42.8269970" lon="-7.6971850">
        <ele>553.8</ele>
        <time>2020-10-19T08:55:26Z</time>
      </trkpt>
      <trkpt lat="42.8269980" lon="-7.6972010">
        <ele>553.8</ele>
        <time>2020-10-19T08:55:27Z</time>
      </trkpt>
      <trkpt lat="42.8269970" lon="-7.6972160">
        <ele>553.8</ele>
        <time>2020-10-19T08:55:28Z</time>
      </trkpt>
      <trkpt lat="42.8269960" lon="-7.6972300">
        <ele>553.7</ele>
        <time>2020-10-19T08:55:29Z</time>
      </trkpt>
      <trkpt lat="42.8269930" lon="-7.6972450">
        <ele>553.7</ele>
        <time>2020-10-19T08:55:30Z</time>
      </trkpt>
      <trkpt lat="42.8269910" lon="-7.6972600">
        <ele>553.7</ele>
        <time>2020-10-19T08:55:31Z</time>
      </trkpt>
      <trkpt lat="42.8269890" lon="-7.6972750">
        <ele>553.7</ele>
        <time>2020-10-19T08:55:32Z</time>
      </trkpt>
      <trkpt lat="42.8269880" lon="-7.6972890">
        <ele>553.7</ele>
        <time>2020-10-19T08:55:33Z</time>
      </trkpt>
      <trkpt lat="42.8269870" lon="-7.6973020">
        <ele>553.7</ele>
        <time>2020-10-19T08:55:34Z</time>
      </trkpt>
      <trkpt lat="42.8269860" lon="-7.6973170">
        <ele>553.7</ele>
        <time>2020-10-19T08:55:35Z</time>
      </trkpt>
      <trkpt lat="42.8269850" lon="-7.6973330">
        <ele>553.7</ele>
        <time>2020-10-19T08:55:36Z</time>
      </trkpt>
      <trkpt lat="42.8269850" lon="-7.6973490">
        <ele>553.7</ele>
        <time>2020-10-19T08:55:37Z</time>
      </trkpt>
      <trkpt lat="42.8269840" lon="-7.6973650">
        <ele>553.6</ele>
        <time>2020-10-19T08:55:38Z</time>
      </trkpt>
      <trkpt lat="42.8269850" lon="-7.6973800">
        <ele>553.6</ele>
        <time>2020-10-19T08:55:39Z</time>
      </trkpt>
      <trkpt lat="42.8269850" lon="-7.6973950">
        <ele>553.6</ele>
        <time>2020-10-19T08:55:40Z</time>
      </trkpt>
      <trkpt lat="42.8269850" lon="-7.6974090">
        <ele>553.6</ele>
        <time>2020-10-19T08:55:41Z</time>
      </trkpt>
      <trkpt lat="42.8269840" lon="-7.6974250">
        <ele>553.6</ele>
        <time>2020-10-19T08:55:42Z</time>
      </trkpt>
      <trkpt lat="42.8269820" lon="-7.6974410">
        <ele>553.6</ele>
        <time>2020-10-19T08:55:43Z</time>
      </trkpt>
      <trkpt lat="42.8269810" lon="-7.6974570">
        <ele>553.6</ele>
        <time>2020-10-19T08:55:44Z</time>
      </trkpt>
      <trkpt lat="42.8269790" lon="-7.6974720">
        <ele>553.6</ele>
        <time>2020-10-19T08:55:45Z</time>
      </trkpt>
      <trkpt lat="42.8269780" lon="-7.6974860">
        <ele>553.6</ele>
        <time>2020-10-19T08:55:46Z</time>
      </trkpt>
      <trkpt lat="42.8269770" lon="-7.6975000">
        <ele>553.6</ele>
        <time>2020-10-19T08:55:47Z</time>
      </trkpt>
      <trkpt lat="42.8269740" lon="-7.6975140">
        <ele>553.6</ele>
        <time>2020-10-19T08:55:48Z</time>
      </trkpt>
      <trkpt lat="42.8269710" lon="-7.6975290">
        <ele>553.6</ele>
        <time>2020-10-19T08:55:49Z</time>
      </trkpt>
      <trkpt lat="42.8269680" lon="-7.6975450">
        <ele>553.6</ele>
        <time>2020-10-19T08:55:50Z</time>
      </trkpt>
      <trkpt lat="42.8269670" lon="-7.6975620">
        <ele>553.6</ele>
        <time>2020-10-19T08:55:51Z</time>
      </trkpt>
      <trkpt lat="42.8269660" lon="-7.6975800">
        <ele>553.6</ele>
        <time>2020-10-19T08:55:52Z</time>
      </trkpt>
      <trkpt lat="42.8269630" lon="-7.6975990">
        <ele>553.6</ele>
        <time>2020-10-19T08:55:53Z</time>
      </trkpt>
      <trkpt lat="42.8269600" lon="-7.6976150">
        <ele>553.6</ele>
        <time>2020-10-19T08:55:54Z</time>
      </trkpt>
      <trkpt lat="42.8269560" lon="-7.6976310">
        <ele>553.6</ele>
        <time>2020-10-19T08:55:55Z</time>
      </trkpt>
      <trkpt lat="42.8269520" lon="-7.6976450">
        <ele>553.7</ele>
        <time>2020-10-19T08:55:56Z</time>
      </trkpt>
      <trkpt lat="42.8269490" lon="-7.6976600">
        <ele>553.7</ele>
        <time>2020-10-19T08:55:57Z</time>
      </trkpt>
      <trkpt lat="42.8269460" lon="-7.6976760">
        <ele>553.7</ele>
        <time>2020-10-19T08:55:58Z</time>
      </trkpt>
      <trkpt lat="42.8269430" lon="-7.6976940">
        <ele>553.7</ele>
        <time>2020-10-19T08:55:59Z</time>
      </trkpt>
      <trkpt lat="42.8269380" lon="-7.6977110">
        <ele>553.8</ele>
        <time>2020-10-19T08:56:00Z</time>
      </trkpt>
      <trkpt lat="42.8269340" lon="-7.6977280">
        <ele>553.8</ele>
        <time>2020-10-19T08:56:01Z</time>
      </trkpt>
      <trkpt lat="42.8269280" lon="-7.6977450">
        <ele>553.8</ele>
        <time>2020-10-19T08:56:02Z</time>
      </trkpt>
      <trkpt lat="42.8269220" lon="-7.6977610">
        <ele>553.9</ele>
        <time>2020-10-19T08:56:03Z</time>
      </trkpt>
      <trkpt lat="42.8269170" lon="-7.6977770">
        <ele>553.9</ele>
        <time>2020-10-19T08:56:04Z</time>
      </trkpt>
      <trkpt lat="42.8269110" lon="-7.6977930">
        <ele>554.0</ele>
        <time>2020-10-19T08:56:05Z</time>
      </trkpt>
      <trkpt lat="42.8269060" lon="-7.6978080">
        <ele>554.0</ele>
        <time>2020-10-19T08:56:06Z</time>
      </trkpt>
      <trkpt lat="42.8268990" lon="-7.6978230">
        <ele>554.1</ele>
        <time>2020-10-19T08:56:07Z</time>
      </trkpt>
      <trkpt lat="42.8268930" lon="-7.6978380">
        <ele>554.1</ele>
        <time>2020-10-19T08:56:08Z</time>
      </trkpt>
      <trkpt lat="42.8268860" lon="-7.6978530">
        <ele>554.2</ele>
        <time>2020-10-19T08:56:09Z</time>
      </trkpt>
      <trkpt lat="42.8268790" lon="-7.6978680">
        <ele>554.2</ele>
        <time>2020-10-19T08:56:10Z</time>
      </trkpt>
      <trkpt lat="42.8268720" lon="-7.6978830">
        <ele>554.3</ele>
        <time>2020-10-19T08:56:11Z</time>
      </trkpt>
      <trkpt lat="42.8268660" lon="-7.6978970">
        <ele>554.3</ele>
        <time>2020-10-19T08:56:12Z</time>
      </trkpt>
      <trkpt lat="42.8268600" lon="-7.6979110">
        <ele>554.4</ele>
        <time>2020-10-19T08:56:13Z</time>
      </trkpt>
      <trkpt lat="42.8268570" lon="-7.6979260">
        <ele>554.5</ele>
        <time>2020-10-19T08:56:14Z</time>
      </trkpt>
      <trkpt lat="42.8268550" lon="-7.6979410">
        <ele>554.5</ele>
        <time>2020-10-19T08:56:15Z</time>
      </trkpt>
      <trkpt lat="42.8268540" lon="-7.6979540">
        <ele>554.6</ele>
        <time>2020-10-19T08:56:16Z</time>
      </trkpt>
      <trkpt lat="42.8268510" lon="-7.6979680">
        <ele>554.6</ele>
        <time>2020-10-19T08:56:17Z</time>
      </trkpt>
      <trkpt lat="42.8268470" lon="-7.6979810">
        <ele>554.7</ele>
        <time>2020-10-19T08:56:18Z</time>
      </trkpt>
      <trkpt lat="42.8268430" lon="-7.6979930">
        <ele>554.7</ele>
        <time>2020-10-19T08:56:19Z</time>
      </trkpt>
      <trkpt lat="42.8268380" lon="-7.6980050">
        <ele>554.8</ele>
        <time>2020-10-19T08:56:20Z</time>
      </trkpt>
      <trkpt lat="42.8268340" lon="-7.6980180">
        <ele>554.9</ele>
        <time>2020-10-19T08:56:21Z</time>
      </trkpt>
      <trkpt lat="42.8268290" lon="-7.6980300">
        <ele>554.9</ele>
        <time>2020-10-19T08:56:22Z</time>
      </trkpt>
      <trkpt lat="42.8268250" lon="-7.6980400">
        <ele>555.0</ele>
        <time>2020-10-19T08:56:23Z</time>
      </trkpt>
      <trkpt lat="42.8268210" lon="-7.6980500">
        <ele>555.0</ele>
        <time>2020-10-19T08:56:24Z</time>
      </trkpt>
      <trkpt lat="42.8268180" lon="-7.6980600">
        <ele>555.1</ele>
        <time>2020-10-19T08:56:25Z</time>
      </trkpt>
      <trkpt lat="42.8268130" lon="-7.6980700">
        <ele>555.1</ele>
        <time>2020-10-19T08:56:26Z</time>
      </trkpt>
      <trkpt lat="42.8268070" lon="-7.6980820">
        <ele>555.2</ele>
        <time>2020-10-19T08:56:27Z</time>
      </trkpt>
      <trkpt lat="42.8268010" lon="-7.6980940">
        <ele>555.2</ele>
        <time>2020-10-19T08:56:28Z</time>
      </trkpt>
      <trkpt lat="42.8267950" lon="-7.6981060">
        <ele>555.3</ele>
        <time>2020-10-19T08:56:29Z</time>
      </trkpt>
      <trkpt lat="42.8267900" lon="-7.6981170">
        <ele>555.4</ele>
        <time>2020-10-19T08:56:30Z</time>
      </trkpt>
      <trkpt lat="42.8267850" lon="-7.6981250">
        <ele>555.4</ele>
        <time>2020-10-19T08:56:31Z</time>
      </trkpt>
      <trkpt lat="42.8267850" lon="-7.6981330">
        <ele>555.5</ele>
        <time>2020-10-19T08:56:32Z</time>
      </trkpt>
      <trkpt lat="42.8267840" lon="-7.6981360">
        <ele>555.5</ele>
        <time>2020-10-19T08:56:33Z</time>
      </trkpt>
      <trkpt lat="42.8267830" lon="-7.6981380">
        <ele>555.5</ele>
        <time>2020-10-19T08:56:34Z</time>
      </trkpt>
      <trkpt lat="42.8267800" lon="-7.6981380">
        <ele>555.5</ele>
        <time>2020-10-19T08:56:35Z</time>
      </trkpt>
      <trkpt lat="42.8267770" lon="-7.6981400">
        <ele>555.5</ele>
        <time>2020-10-19T08:56:36Z</time>
      </trkpt>
      <trkpt lat="42.8267750" lon="-7.6981430">
        <ele>555.5</ele>
        <time>2020-10-19T08:56:37Z</time>
      </trkpt>
      <trkpt lat="42.8267720" lon="-7.6981490">
        <ele>555.6</ele>
        <time>2020-10-19T08:56:38Z</time>
      </trkpt>
      <trkpt lat="42.8267710" lon="-7.6981590">
        <ele>555.6</ele>
        <time>2020-10-19T08:56:39Z</time>
      </trkpt>
      <trkpt lat="42.8267710" lon="-7.6981710">
        <ele>555.9</ele>
        <time>2020-10-19T08:56:40Z</time>
      </trkpt>
      <trkpt lat="42.8267720" lon="-7.6981860">
        <ele>556.0</ele>
        <time>2020-10-19T08:56:41Z</time>
      </trkpt>
      <trkpt lat="42.8267740" lon="-7.6982020">
        <ele>556.1</ele>
        <time>2020-10-19T08:56:42Z</time>
      </trkpt>
      <trkpt lat="42.8267770" lon="-7.6982150">
        <ele>556.2</ele>
        <time>2020-10-19T08:56:43Z</time>
      </trkpt>
      <trkpt lat="42.8267820" lon="-7.6982280">
        <ele>556.3</ele>
        <time>2020-10-19T08:56:44Z</time>
      </trkpt>
      <trkpt lat="42.8267880" lon="-7.6982400">
        <ele>556.4</ele>
        <time>2020-10-19T08:56:45Z</time>
      </trkpt>
      <trkpt lat="42.8267930" lon="-7.6982510">
        <ele>556.4</ele>
        <time>2020-10-19T08:56:46Z</time>
      </trkpt>
      <trkpt lat="42.8267980" lon="-7.6982630">
        <ele>556.5</ele>
        <time>2020-10-19T08:56:47Z</time>
      </trkpt>
      <trkpt lat="42.8268040" lon="-7.6982740">
        <ele>556.6</ele>
        <time>2020-10-19T08:56:48Z</time>
      </trkpt>
      <trkpt lat="42.8268080" lon="-7.6982840">
        <ele>556.7</ele>
        <time>2020-10-19T08:56:49Z</time>
      </trkpt>
      <trkpt lat="42.8268110" lon="-7.6982930">
        <ele>556.8</ele>
        <time>2020-10-19T08:56:50Z</time>
      </trkpt>
      <trkpt lat="42.8268140" lon="-7.6983030">
        <ele>556.8</ele>
        <time>2020-10-19T08:56:51Z</time>
      </trkpt>
      <trkpt lat="42.8268160" lon="-7.6983170">
        <ele>556.9</ele>
        <time>2020-10-19T08:56:52Z</time>
      </trkpt>
      <trkpt lat="42.8268180" lon="-7.6983300">
        <ele>557.0</ele>
        <time>2020-10-19T08:56:53Z</time>
      </trkpt>
      <trkpt lat="42.8268200" lon="-7.6983430">
        <ele>557.1</ele>
        <time>2020-10-19T08:56:54Z</time>
      </trkpt>
      <trkpt lat="42.8268240" lon="-7.6983560">
        <ele>557.2</ele>
        <time>2020-10-19T08:56:55Z</time>
      </trkpt>
      <trkpt lat="42.8268290" lon="-7.6983700">
        <ele>557.3</ele>
        <time>2020-10-19T08:56:56Z</time>
      </trkpt>
      <trkpt lat="42.8268390" lon="-7.6983820">
        <ele>557.4</ele>
        <time>2020-10-19T08:56:57Z</time>
      </trkpt>
      <trkpt lat="42.8268500" lon="-7.6983930">
        <ele>557.6</ele>
        <time>2020-10-19T08:56:58Z</time>
      </trkpt>
      <trkpt lat="42.8268610" lon="-7.6984040">
        <ele>557.7</ele>
        <time>2020-10-19T08:56:59Z</time>
      </trkpt>
      <trkpt lat="42.8268680" lon="-7.6984150">
        <ele>557.8</ele>
        <time>2020-10-19T08:57:00Z</time>
      </trkpt>
      <trkpt lat="42.8268740" lon="-7.6984280">
        <ele>557.9</ele>
        <time>2020-10-19T08:57:01Z</time>
      </trkpt>
      <trkpt lat="42.8268770" lon="-7.6984410">
        <ele>558.0</ele>
        <time>2020-10-19T08:57:02Z</time>
      </trkpt>
      <trkpt lat="42.8268790" lon="-7.6984530">
        <ele>558.1</ele>
        <time>2020-10-19T08:57:03Z</time>
      </trkpt>
      <trkpt lat="42.8268800" lon="-7.6984600">
        <ele>558.1</ele>
        <time>2020-10-19T08:57:04Z</time>
      </trkpt>
      <trkpt lat="42.8268810" lon="-7.6984630">
        <ele>558.1</ele>
        <time>2020-10-19T08:57:05Z</time>
      </trkpt>
      <trkpt lat="42.8268810" lon="-7.6984630">
        <ele>558.1</ele>
        <time>2020-10-19T08:57:06Z</time>
      </trkpt>
      <trkpt lat="42.8268820" lon="-7.6984630">
        <ele>558.1</ele>
        <time>2020-10-19T08:57:07Z</time>
      </trkpt>
      <trkpt lat="42.8268830" lon="-7.6984660">
        <ele>558.2</ele>
        <time>2020-10-19T08:57:08Z</time>
      </trkpt>
      <trkpt lat="42.8268860" lon="-7.6984730">
        <ele>558.2</ele>
        <time>2020-10-19T08:57:09Z</time>
      </trkpt>
      <trkpt lat="42.8268880" lon="-7.6984840">
        <ele>558.3</ele>
        <time>2020-10-19T08:57:10Z</time>
      </trkpt>
      <trkpt lat="42.8268920" lon="-7.6984970">
        <ele>558.4</ele>
        <time>2020-10-19T08:57:11Z</time>
      </trkpt>
      <trkpt lat="42.8268950" lon="-7.6985100">
        <ele>558.5</ele>
        <time>2020-10-19T08:57:12Z</time>
      </trkpt>
      <trkpt lat="42.8269000" lon="-7.6985230">
        <ele>558.6</ele>
        <time>2020-10-19T08:57:13Z</time>
      </trkpt>
      <trkpt lat="42.8269060" lon="-7.6985350">
        <ele>558.7</ele>
        <time>2020-10-19T08:57:14Z</time>
      </trkpt>
      <trkpt lat="42.8269130" lon="-7.6985480">
        <ele>558.8</ele>
        <time>2020-10-19T08:57:15Z</time>
      </trkpt>
      <trkpt lat="42.8269180" lon="-7.6985610">
        <ele>558.8</ele>
        <time>2020-10-19T08:57:16Z</time>
      </trkpt>
      <trkpt lat="42.8269230" lon="-7.6985740">
        <ele>558.9</ele>
        <time>2020-10-19T08:57:17Z</time>
      </trkpt>
      <trkpt lat="42.8269260" lon="-7.6985870">
        <ele>559.0</ele>
        <time>2020-10-19T08:57:18Z</time>
      </trkpt>
      <trkpt lat="42.8269290" lon="-7.6985990">
        <ele>559.1</ele>
        <time>2020-10-19T08:57:19Z</time>
      </trkpt>
      <trkpt lat="42.8269330" lon="-7.6986110">
        <ele>559.2</ele>
        <time>2020-10-19T08:57:20Z</time>
      </trkpt>
      <trkpt lat="42.8269370" lon="-7.6986230">
        <ele>559.3</ele>
        <time>2020-10-19T08:57:21Z</time>
      </trkpt>
      <trkpt lat="42.8269400" lon="-7.6986350">
        <ele>559.4</ele>
        <time>2020-10-19T08:57:22Z</time>
      </trkpt>
      <trkpt lat="42.8269430" lon="-7.6986470">
        <ele>559.4</ele>
        <time>2020-10-19T08:57:23Z</time>
      </trkpt>
      <trkpt lat="42.8269480" lon="-7.6986580">
        <ele>559.6</ele>
        <time>2020-10-19T08:57:24Z</time>
      </trkpt>
      <trkpt lat="42.8269530" lon="-7.6986690">
        <ele>559.6</ele>
        <time>2020-10-19T08:57:25Z</time>
      </trkpt>
      <trkpt lat="42.8269590" lon="-7.6986770">
        <ele>559.7</ele>
        <time>2020-10-19T08:57:26Z</time>
      </trkpt>
      <trkpt lat="42.8269670" lon="-7.6986830">
        <ele>559.8</ele>
        <time>2020-10-19T08:57:27Z</time>
      </trkpt>
      <trkpt lat="42.8269750" lon="-7.6986900">
        <ele>559.9</ele>
        <time>2020-10-19T08:57:28Z</time>
      </trkpt>
      <trkpt lat="42.8269830" lon="-7.6986970">
        <ele>560.0</ele>
        <time>2020-10-19T08:57:29Z</time>
      </trkpt>
      <trkpt lat="42.8269920" lon="-7.6987050">
        <ele>560.1</ele>
        <time>2020-10-19T08:57:30Z</time>
      </trkpt>
      <trkpt lat="42.8270000" lon="-7.6987140">
        <ele>560.1</ele>
        <time>2020-10-19T08:57:31Z</time>
      </trkpt>
      <trkpt lat="42.8270080" lon="-7.6987240">
        <ele>560.2</ele>
        <time>2020-10-19T08:57:32Z</time>
      </trkpt>
      <trkpt lat="42.8270130" lon="-7.6987360">
        <ele>560.3</ele>
        <time>2020-10-19T08:57:33Z</time>
      </trkpt>
      <trkpt lat="42.8270180" lon="-7.6987470">
        <ele>560.4</ele>
        <time>2020-10-19T08:57:34Z</time>
      </trkpt>
      <trkpt lat="42.8270230" lon="-7.6987580">
        <ele>560.5</ele>
        <time>2020-10-19T08:57:35Z</time>
      </trkpt>
      <trkpt lat="42.8270280" lon="-7.6987680">
        <ele>560.6</ele>
        <time>2020-10-19T08:57:36Z</time>
      </trkpt>
      <trkpt lat="42.8270340" lon="-7.6987790">
        <ele>560.7</ele>
        <time>2020-10-19T08:57:37Z</time>
      </trkpt>
      <trkpt lat="42.8270380" lon="-7.6987890">
        <ele>560.7</ele>
        <time>2020-10-19T08:57:38Z</time>
      </trkpt>
      <trkpt lat="42.8270410" lon="-7.6988000">
        <ele>560.8</ele>
        <time>2020-10-19T08:57:39Z</time>
      </trkpt>
      <trkpt lat="42.8270430" lon="-7.6988110">
        <ele>560.9</ele>
        <time>2020-10-19T08:57:40Z</time>
      </trkpt>
      <trkpt lat="42.8270460" lon="-7.6988220">
        <ele>560.9</ele>
        <time>2020-10-19T08:57:41Z</time>
      </trkpt>
      <trkpt lat="42.8270500" lon="-7.6988310">
        <ele>561.0</ele>
        <time>2020-10-19T08:57:42Z</time>
      </trkpt>
      <trkpt lat="42.8270530" lon="-7.6988410">
        <ele>561.1</ele>
        <time>2020-10-19T08:57:43Z</time>
      </trkpt>
      <trkpt lat="42.8270590" lon="-7.6988510">
        <ele>561.1</ele>
        <time>2020-10-19T08:57:44Z</time>
      </trkpt>
      <trkpt lat="42.8270650" lon="-7.6988610">
        <ele>561.2</ele>
        <time>2020-10-19T08:57:45Z</time>
      </trkpt>
      <trkpt lat="42.8270710" lon="-7.6988720">
        <ele>561.3</ele>
        <time>2020-10-19T08:57:46Z</time>
      </trkpt>
      <trkpt lat="42.8270770" lon="-7.6988830">
        <ele>561.4</ele>
        <time>2020-10-19T08:57:47Z</time>
      </trkpt>
      <trkpt lat="42.8270840" lon="-7.6988950">
        <ele>561.5</ele>
        <time>2020-10-19T08:57:48Z</time>
      </trkpt>
      <trkpt lat="42.8270910" lon="-7.6989080">
        <ele>561.5</ele>
        <time>2020-10-19T08:57:49Z</time>
      </trkpt>
      <trkpt lat="42.8271000" lon="-7.6989210">
        <ele>561.6</ele>
        <time>2020-10-19T08:57:50Z</time>
      </trkpt>
      <trkpt lat="42.8271070" lon="-7.6989340">
        <ele>561.7</ele>
        <time>2020-10-19T08:57:51Z</time>
      </trkpt>
      <trkpt lat="42.8271150" lon="-7.6989440">
        <ele>561.8</ele>
        <time>2020-10-19T08:57:52Z</time>
      </trkpt>
      <trkpt lat="42.8271230" lon="-7.6989520">
        <ele>561.9</ele>
        <time>2020-10-19T08:57:53Z</time>
      </trkpt>
      <trkpt lat="42.8271310" lon="-7.6989580">
        <ele>561.9</ele>
        <time>2020-10-19T08:57:54Z</time>
      </trkpt>
      <trkpt lat="42.8271410" lon="-7.6989620">
        <ele>562.0</ele>
        <time>2020-10-19T08:57:55Z</time>
      </trkpt>
      <trkpt lat="42.8271510" lon="-7.6989690">
        <ele>562.1</ele>
        <time>2020-10-19T08:57:56Z</time>
      </trkpt>
      <trkpt lat="42.8271610" lon="-7.6989770">
        <ele>562.2</ele>
        <time>2020-10-19T08:57:57Z</time>
      </trkpt>
      <trkpt lat="42.8271710" lon="-7.6989860">
        <ele>562.2</ele>
        <time>2020-10-19T08:57:58Z</time>
      </trkpt>
      <trkpt lat="42.8271810" lon="-7.6989950">
        <ele>562.3</ele>
        <time>2020-10-19T08:57:59Z</time>
      </trkpt>
      <trkpt lat="42.8271900" lon="-7.6990050">
        <ele>562.4</ele>
        <time>2020-10-19T08:58:00Z</time>
      </trkpt>
      <trkpt lat="42.8271990" lon="-7.6990150">
        <ele>562.5</ele>
        <time>2020-10-19T08:58:01Z</time>
      </trkpt>
      <trkpt lat="42.8272080" lon="-7.6990240">
        <ele>562.5</ele>
        <time>2020-10-19T08:58:02Z</time>
      </trkpt>
      <trkpt lat="42.8272170" lon="-7.6990340">
        <ele>562.6</ele>
        <time>2020-10-19T08:58:03Z</time>
      </trkpt>
      <trkpt lat="42.8272270" lon="-7.6990430">
        <ele>562.7</ele>
        <time>2020-10-19T08:58:04Z</time>
      </trkpt>
      <trkpt lat="42.8272370" lon="-7.6990500">
        <ele>562.8</ele>
        <time>2020-10-19T08:58:05Z</time>
      </trkpt>
      <trkpt lat="42.8272470" lon="-7.6990580">
        <ele>562.8</ele>
        <time>2020-10-19T08:58:06Z</time>
      </trkpt>
      <trkpt lat="42.8272560" lon="-7.6990650">
        <ele>562.9</ele>
        <time>2020-10-19T08:58:07Z</time>
      </trkpt>
      <trkpt lat="42.8272640" lon="-7.6990760">
        <ele>563.0</ele>
        <time>2020-10-19T08:58:08Z</time>
      </trkpt>
      <trkpt lat="42.8272730" lon="-7.6990880">
        <ele>563.1</ele>
        <time>2020-10-19T08:58:09Z</time>
      </trkpt>
      <trkpt lat="42.8272800" lon="-7.6991010">
        <ele>563.1</ele>
        <time>2020-10-19T08:58:10Z</time>
      </trkpt>
      <trkpt lat="42.8272900" lon="-7.6991110">
        <ele>563.2</ele>
        <time>2020-10-19T08:58:11Z</time>
      </trkpt>
      <trkpt lat="42.8272980" lon="-7.6991180">
        <ele>563.2</ele>
        <time>2020-10-19T08:58:12Z</time>
      </trkpt>
      <trkpt lat="42.8273070" lon="-7.6991260">
        <ele>563.3</ele>
        <time>2020-10-19T08:58:13Z</time>
      </trkpt>
      <trkpt lat="42.8273160" lon="-7.6991310">
        <ele>563.3</ele>
        <time>2020-10-19T08:58:14Z</time>
      </trkpt>
      <trkpt lat="42.8273260" lon="-7.6991380">
        <ele>563.4</ele>
        <time>2020-10-19T08:58:15Z</time>
      </trkpt>
      <trkpt lat="42.8273360" lon="-7.6991460">
        <ele>563.5</ele>
        <time>2020-10-19T08:58:16Z</time>
      </trkpt>
      <trkpt lat="42.8273450" lon="-7.6991550">
        <ele>563.5</ele>
        <time>2020-10-19T08:58:17Z</time>
      </trkpt>
      <trkpt lat="42.8273540" lon="-7.6991640">
        <ele>563.6</ele>
        <time>2020-10-19T08:58:18Z</time>
      </trkpt>
      <trkpt lat="42.8273630" lon="-7.6991750">
        <ele>563.6</ele>
        <time>2020-10-19T08:58:19Z</time>
      </trkpt>
      <trkpt lat="42.8273710" lon="-7.6991870">
        <ele>563.7</ele>
        <time>2020-10-19T08:58:20Z</time>
      </trkpt>
      <trkpt lat="42.8273790" lon="-7.6991990">
        <ele>563.8</ele>
        <time>2020-10-19T08:58:21Z</time>
      </trkpt>
      <trkpt lat="42.8273860" lon="-7.6992100">
        <ele>563.8</ele>
        <time>2020-10-19T08:58:22Z</time>
      </trkpt>
      <trkpt lat="42.8273930" lon="-7.6992200">
        <ele>563.9</ele>
        <time>2020-10-19T08:58:23Z</time>
      </trkpt>
      <trkpt lat="42.8274010" lon="-7.6992290">
        <ele>563.9</ele>
        <time>2020-10-19T08:58:24Z</time>
      </trkpt>
      <trkpt lat="42.8274100" lon="-7.6992380">
        <ele>564.0</ele>
        <time>2020-10-19T08:58:25Z</time>
      </trkpt>
      <trkpt lat="42.8274200" lon="-7.6992470">
        <ele>564.1</ele>
        <time>2020-10-19T08:58:26Z</time>
      </trkpt>
      <trkpt lat="42.8274280" lon="-7.6992570">
        <ele>564.1</ele>
        <time>2020-10-19T08:58:27Z</time>
      </trkpt>
      <trkpt lat="42.8274360" lon="-7.6992680">
        <ele>564.2</ele>
        <time>2020-10-19T08:58:28Z</time>
      </trkpt>
      <trkpt lat="42.8274430" lon="-7.6992790">
        <ele>564.2</ele>
        <time>2020-10-19T08:58:29Z</time>
      </trkpt>
      <trkpt lat="42.8274500" lon="-7.6992900">
        <ele>564.3</ele>
        <time>2020-10-19T08:58:30Z</time>
      </trkpt>
      <trkpt lat="42.8274570" lon="-7.6993020">
        <ele>564.4</ele>
        <time>2020-10-19T08:58:31Z</time>
      </trkpt>
      <trkpt lat="42.8274650" lon="-7.6993140">
        <ele>564.4</ele>
        <time>2020-10-19T08:58:32Z</time>
      </trkpt>
      <trkpt lat="42.8274740" lon="-7.6993230">
        <ele>564.5</ele>
        <time>2020-10-19T08:58:33Z</time>
      </trkpt>
      <trkpt lat="42.8274830" lon="-7.6993340">
        <ele>564.6</ele>
        <time>2020-10-19T08:58:34Z</time>
      </trkpt>
      <trkpt lat="42.8274900" lon="-7.6993460">
        <ele>564.6</ele>
        <time>2020-10-19T08:58:35Z</time>
      </trkpt>
      <trkpt lat="42.8274970" lon="-7.6993600">
        <ele>564.7</ele>
        <time>2020-10-19T08:58:36Z</time>
      </trkpt>
      <trkpt lat="42.8275050" lon="-7.6993740">
        <ele>564.8</ele>
        <time>2020-10-19T08:58:37Z</time>
      </trkpt>
      <trkpt lat="42.8275130" lon="-7.6993860">
        <ele>564.8</ele>
        <time>2020-10-19T08:58:38Z</time>
      </trkpt>
      <trkpt lat="42.8275200" lon="-7.6993980">
        <ele>564.9</ele>
        <time>2020-10-19T08:58:39Z</time>
      </trkpt>
      <trkpt lat="42.8275270" lon="-7.6994090">
        <ele>564.9</ele>
        <time>2020-10-19T08:58:40Z</time>
      </trkpt>
      <trkpt lat="42.8275330" lon="-7.6994210">
        <ele>565.0</ele>
        <time>2020-10-19T08:58:41Z</time>
      </trkpt>
      <trkpt lat="42.8275400" lon="-7.6994340">
        <ele>565.1</ele>
        <time>2020-10-19T08:58:42Z</time>
      </trkpt>
      <trkpt lat="42.8275470" lon="-7.6994460">
        <ele>565.1</ele>
        <time>2020-10-19T08:58:43Z</time>
      </trkpt>
      <trkpt lat="42.8275540" lon="-7.6994580">
        <ele>565.2</ele>
        <time>2020-10-19T08:58:44Z</time>
      </trkpt>
      <trkpt lat="42.8275620" lon="-7.6994690">
        <ele>565.2</ele>
        <time>2020-10-19T08:58:45Z</time>
      </trkpt>
      <trkpt lat="42.8275700" lon="-7.6994790">
        <ele>565.3</ele>
        <time>2020-10-19T08:58:46Z</time>
      </trkpt>
      <trkpt lat="42.8275760" lon="-7.6994890">
        <ele>565.3</ele>
        <time>2020-10-19T08:58:47Z</time>
      </trkpt>
      <trkpt lat="42.8275800" lon="-7.6995000">
        <ele>565.4</ele>
        <time>2020-10-19T08:58:48Z</time>
      </trkpt>
      <trkpt lat="42.8275840" lon="-7.6995110">
        <ele>565.4</ele>
        <time>2020-10-19T08:58:49Z</time>
      </trkpt>
      <trkpt lat="42.8275900" lon="-7.6995220">
        <ele>565.5</ele>
        <time>2020-10-19T08:58:50Z</time>
      </trkpt>
      <trkpt lat="42.8275960" lon="-7.6995320">
        <ele>565.5</ele>
        <time>2020-10-19T08:58:51Z</time>
      </trkpt>
      <trkpt lat="42.8276020" lon="-7.6995420">
        <ele>565.6</ele>
        <time>2020-10-19T08:58:52Z</time>
      </trkpt>
      <trkpt lat="42.8276070" lon="-7.6995530">
        <ele>565.6</ele>
        <time>2020-10-19T08:58:53Z</time>
      </trkpt>
      <trkpt lat="42.8276130" lon="-7.6995620">
        <ele>565.7</ele>
        <time>2020-10-19T08:58:54Z</time>
      </trkpt>
      <trkpt lat="42.8276190" lon="-7.6995720">
        <ele>565.7</ele>
        <time>2020-10-19T08:58:55Z</time>
      </trkpt>
      <trkpt lat="42.8276240" lon="-7.6995810">
        <ele>565.8</ele>
        <time>2020-10-19T08:58:56Z</time>
      </trkpt>
      <trkpt lat="42.8276290" lon="-7.6995920">
        <ele>565.8</ele>
        <time>2020-10-19T08:58:57Z</time>
      </trkpt>
      <trkpt lat="42.8276360" lon="-7.6996050">
        <ele>565.9</ele>
        <time>2020-10-19T08:58:58Z</time>
      </trkpt>
      <trkpt lat="42.8276430" lon="-7.6996190">
        <ele>566.0</ele>
        <time>2020-10-19T08:58:59Z</time>
      </trkpt>
      <trkpt lat="42.8276510" lon="-7.6996350">
        <ele>566.0</ele>
        <time>2020-10-19T08:59:00Z</time>
      </trkpt>
      <trkpt lat="42.8276580" lon="-7.6996480">
        <ele>566.1</ele>
        <time>2020-10-19T08:59:01Z</time>
      </trkpt>
      <trkpt lat="42.8276650" lon="-7.6996600">
        <ele>566.2</ele>
        <time>2020-10-19T08:59:02Z</time>
      </trkpt>
      <trkpt lat="42.8276740" lon="-7.6996700">
        <ele>566.3</ele>
        <time>2020-10-19T08:59:03Z</time>
      </trkpt>
      <trkpt lat="42.8276790" lon="-7.6996790">
        <ele>566.3</ele>
        <time>2020-10-19T08:59:04Z</time>
      </trkpt>
      <trkpt lat="42.8276830" lon="-7.6996880">
        <ele>566.4</ele>
        <time>2020-10-19T08:59:05Z</time>
      </trkpt>
      <trkpt lat="42.8276870" lon="-7.6996980">
        <ele>566.4</ele>
        <time>2020-10-19T08:59:06Z</time>
      </trkpt>
      <trkpt lat="42.8276940" lon="-7.6997100">
        <ele>566.5</ele>
        <time>2020-10-19T08:59:07Z</time>
      </trkpt>
      <trkpt lat="42.8277010" lon="-7.6997220">
        <ele>566.6</ele>
        <time>2020-10-19T08:59:08Z</time>
      </trkpt>
      <trkpt lat="42.8277100" lon="-7.6997340">
        <ele>566.6</ele>
        <time>2020-10-19T08:59:09Z</time>
      </trkpt>
      <trkpt lat="42.8277170" lon="-7.6997460">
        <ele>566.7</ele>
        <time>2020-10-19T08:59:10Z</time>
      </trkpt>
      <trkpt lat="42.8277250" lon="-7.6997580">
        <ele>566.8</ele>
        <time>2020-10-19T08:59:11Z</time>
      </trkpt>
      <trkpt lat="42.8277310" lon="-7.6997700">
        <ele>566.9</ele>
        <time>2020-10-19T08:59:12Z</time>
      </trkpt>
      <trkpt lat="42.8277380" lon="-7.6997820">
        <ele>566.9</ele>
        <time>2020-10-19T08:59:13Z</time>
      </trkpt>
      <trkpt lat="42.8277450" lon="-7.6997930">
        <ele>567.0</ele>
        <time>2020-10-19T08:59:14Z</time>
      </trkpt>
      <trkpt lat="42.8277550" lon="-7.6998030">
        <ele>567.1</ele>
        <time>2020-10-19T08:59:15Z</time>
      </trkpt>
      <trkpt lat="42.8277630" lon="-7.6998140">
        <ele>567.2</ele>
        <time>2020-10-19T08:59:16Z</time>
      </trkpt>
      <trkpt lat="42.8277700" lon="-7.6998230">
        <ele>567.2</ele>
        <time>2020-10-19T08:59:17Z</time>
      </trkpt>
      <trkpt lat="42.8277770" lon="-7.6998320">
        <ele>567.3</ele>
        <time>2020-10-19T08:59:18Z</time>
      </trkpt>
      <trkpt lat="42.8277870" lon="-7.6998400">
        <ele>567.4</ele>
        <time>2020-10-19T08:59:19Z</time>
      </trkpt>
      <trkpt lat="42.8277960" lon="-7.6998470">
        <ele>567.5</ele>
        <time>2020-10-19T08:59:20Z</time>
      </trkpt>
      <trkpt lat="42.8278060" lon="-7.6998570">
        <ele>567.5</ele>
        <time>2020-10-19T08:59:21Z</time>
      </trkpt>
      <trkpt lat="42.8278140" lon="-7.6998660">
        <ele>567.6</ele>
        <time>2020-10-19T08:59:22Z</time>
      </trkpt>
      <trkpt lat="42.8278230" lon="-7.6998790">
        <ele>567.7</ele>
        <time>2020-10-19T08:59:23Z</time>
      </trkpt>
      <trkpt lat="42.8278330" lon="-7.6998890">
        <ele>567.8</ele>
        <time>2020-10-19T08:59:24Z</time>
      </trkpt>
      <trkpt lat="42.8278420" lon="-7.6999010">
        <ele>567.9</ele>
        <time>2020-10-19T08:59:25Z</time>
      </trkpt>
      <trkpt lat="42.8278510" lon="-7.6999130">
        <ele>568.0</ele>
        <time>2020-10-19T08:59:26Z</time>
      </trkpt>
      <trkpt lat="42.8278610" lon="-7.6999250">
        <ele>568.0</ele>
        <time>2020-10-19T08:59:27Z</time>
      </trkpt>
      <trkpt lat="42.8278700" lon="-7.6999370">
        <ele>568.1</ele>
        <time>2020-10-19T08:59:28Z</time>
      </trkpt>
      <trkpt lat="42.8278790" lon="-7.6999470">
        <ele>568.2</ele>
        <time>2020-10-19T08:59:29Z</time>
      </trkpt>
      <trkpt lat="42.8278870" lon="-7.6999580">
        <ele>568.3</ele>
        <time>2020-10-19T08:59:30Z</time>
      </trkpt>
      <trkpt lat="42.8278960" lon="-7.6999680">
        <ele>568.4</ele>
        <time>2020-10-19T08:59:31Z</time>
      </trkpt>
      <trkpt lat="42.8279040" lon="-7.6999780">
        <ele>568.4</ele>
        <time>2020-10-19T08:59:32Z</time>
      </trkpt>
      <trkpt lat="42.8279130" lon="-7.6999890">
        <ele>568.5</ele>
        <time>2020-10-19T08:59:33Z</time>
      </trkpt>
      <trkpt lat="42.8279230" lon="-7.7000010">
        <ele>568.6</ele>
        <time>2020-10-19T08:59:34Z</time>
      </trkpt>
      <trkpt lat="42.8279340" lon="-7.7000140">
        <ele>568.7</ele>
        <time>2020-10-19T08:59:35Z</time>
      </trkpt>
      <trkpt lat="42.8279450" lon="-7.7000260">
        <ele>568.8</ele>
        <time>2020-10-19T08:59:36Z</time>
      </trkpt>
      <trkpt lat="42.8279550" lon="-7.7000380">
        <ele>568.9</ele>
        <time>2020-10-19T08:59:37Z</time>
      </trkpt>
      <trkpt lat="42.8279610" lon="-7.7000500">
        <ele>569.0</ele>
        <time>2020-10-19T08:59:38Z</time>
      </trkpt>
      <trkpt lat="42.8279670" lon="-7.7000610">
        <ele>569.0</ele>
        <time>2020-10-19T08:59:39Z</time>
      </trkpt>
      <trkpt lat="42.8279730" lon="-7.7000730">
        <ele>569.1</ele>
        <time>2020-10-19T08:59:40Z</time>
      </trkpt>
      <trkpt lat="42.8279810" lon="-7.7000830">
        <ele>569.2</ele>
        <time>2020-10-19T08:59:41Z</time>
      </trkpt>
      <trkpt lat="42.8279880" lon="-7.7000920">
        <ele>569.3</ele>
        <time>2020-10-19T08:59:42Z</time>
      </trkpt>
      <trkpt lat="42.8279950" lon="-7.7000980">
        <ele>569.3</ele>
        <time>2020-10-19T08:59:43Z</time>
      </trkpt>
      <trkpt lat="42.8280010" lon="-7.7001060">
        <ele>569.4</ele>
        <time>2020-10-19T08:59:44Z</time>
      </trkpt>
      <trkpt lat="42.8280070" lon="-7.7001160">
        <ele>569.4</ele>
        <time>2020-10-19T08:59:45Z</time>
      </trkpt>
      <trkpt lat="42.8280130" lon="-7.7001270">
        <ele>569.5</ele>
        <time>2020-10-19T08:59:46Z</time>
      </trkpt>
      <trkpt lat="42.8280220" lon="-7.7001380">
        <ele>569.6</ele>
        <time>2020-10-19T08:59:47Z</time>
      </trkpt>
      <trkpt lat="42.8280340" lon="-7.7001490">
        <ele>569.7</ele>
        <time>2020-10-19T08:59:48Z</time>
      </trkpt>
      <trkpt lat="42.8280470" lon="-7.7001600">
        <ele>569.8</ele>
        <time>2020-10-19T08:59:49Z</time>
      </trkpt>
      <trkpt lat="42.8280590" lon="-7.7001710">
        <ele>569.9</ele>
        <time>2020-10-19T08:59:50Z</time>
      </trkpt>
      <trkpt lat="42.8280690" lon="-7.7001820">
        <ele>570.0</ele>
        <time>2020-10-19T08:59:51Z</time>
      </trkpt>
      <trkpt lat="42.8280780" lon="-7.7001940">
        <ele>570.1</ele>
        <time>2020-10-19T08:59:52Z</time>
      </trkpt>
      <trkpt lat="42.8280860" lon="-7.7002050">
        <ele>570.2</ele>
        <time>2020-10-19T08:59:53Z</time>
      </trkpt>
      <trkpt lat="42.8280930" lon="-7.7002180">
        <ele>570.3</ele>
        <time>2020-10-19T08:59:54Z</time>
      </trkpt>
      <trkpt lat="42.8281010" lon="-7.7002330">
        <ele>570.4</ele>
        <time>2020-10-19T08:59:55Z</time>
      </trkpt>
      <trkpt lat="42.8281080" lon="-7.7002460">
        <ele>570.4</ele>
        <time>2020-10-19T08:59:56Z</time>
      </trkpt>
      <trkpt lat="42.8281160" lon="-7.7002590">
        <ele>570.5</ele>
        <time>2020-10-19T08:59:57Z</time>
      </trkpt>
      <trkpt lat="42.8281250" lon="-7.7002710">
        <ele>570.6</ele>
        <time>2020-10-19T08:59:58Z</time>
      </trkpt>
      <trkpt lat="42.8281350" lon="-7.7002830">
        <ele>570.7</ele>
        <time>2020-10-19T08:59:59Z</time>
      </trkpt>
      <trkpt lat="42.8281430" lon="-7.7002930">
        <ele>570.8</ele>
        <time>2020-10-19T09:00:00Z</time>
      </trkpt>
      <trkpt lat="42.8281510" lon="-7.7003030">
        <ele>570.9</ele>
        <time>2020-10-19T09:00:01Z</time>
      </trkpt>
      <trkpt lat="42.8281600" lon="-7.7003110">
        <ele>571.0</ele>
        <time>2020-10-19T09:00:02Z</time>
      </trkpt>
      <trkpt lat="42.8281690" lon="-7.7003200">
        <ele>571.1</ele>
        <time>2020-10-19T09:00:03Z</time>
      </trkpt>
      <trkpt lat="42.8281770" lon="-7.7003290">
        <ele>571.1</ele>
        <time>2020-10-19T09:00:04Z</time>
      </trkpt>
      <trkpt lat="42.8281850" lon="-7.7003390">
        <ele>571.2</ele>
        <time>2020-10-19T09:00:05Z</time>
      </trkpt>
      <trkpt lat="42.8281920" lon="-7.7003510">
        <ele>571.3</ele>
        <time>2020-10-19T09:00:06Z</time>
      </trkpt>
      <trkpt lat="42.8282000" lon="-7.7003640">
        <ele>571.4</ele>
        <time>2020-10-19T09:00:07Z</time>
      </trkpt>
      <trkpt lat="42.8282050" lon="-7.7003760">
        <ele>571.5</ele>
        <time>2020-10-19T09:00:08Z</time>
      </trkpt>
      <trkpt lat="42.8282100" lon="-7.7003870">
        <ele>571.5</ele>
        <time>2020-10-19T09:00:09Z</time>
      </trkpt>
      <trkpt lat="42.8282150" lon="-7.7003980">
        <ele>571.6</ele>
        <time>2020-10-19T09:00:10Z</time>
      </trkpt>
      <trkpt lat="42.8282210" lon="-7.7004090">
        <ele>571.7</ele>
        <time>2020-10-19T09:00:11Z</time>
      </trkpt>
      <trkpt lat="42.8282280" lon="-7.7004190">
        <ele>571.8</ele>
        <time>2020-10-19T09:00:12Z</time>
      </trkpt>
      <trkpt lat="42.8282350" lon="-7.7004310">
        <ele>571.8</ele>
        <time>2020-10-19T09:00:13Z</time>
      </trkpt>
      <trkpt lat="42.8282420" lon="-7.7004420">
        <ele>571.9</ele>
        <time>2020-10-19T09:00:14Z</time>
      </trkpt>
      <trkpt lat="42.8282470" lon="-7.7004550">
        <ele>572.0</ele>
        <time>2020-10-19T09:00:15Z</time>
      </trkpt>
      <trkpt lat="42.8282530" lon="-7.7004680">
        <ele>572.1</ele>
        <time>2020-10-19T09:00:16Z</time>
      </trkpt>
      <trkpt lat="42.8282590" lon="-7.7004820">
        <ele>572.2</ele>
        <time>2020-10-19T09:00:17Z</time>
      </trkpt>
      <trkpt lat="42.8282660" lon="-7.7004950">
        <ele>572.3</ele>
        <time>2020-10-19T09:00:18Z</time>
      </trkpt>
      <trkpt lat="42.8282730" lon="-7.7005090">
        <ele>572.3</ele>
        <time>2020-10-19T09:00:19Z</time>
      </trkpt>
      <trkpt lat="42.8282800" lon="-7.7005220">
        <ele>572.4</ele>
        <time>2020-10-19T09:00:20Z</time>
      </trkpt>
      <trkpt lat="42.8282880" lon="-7.7005350">
        <ele>572.5</ele>
        <time>2020-10-19T09:00:21Z</time>
      </trkpt>
      <trkpt lat="42.8282940" lon="-7.7005480">
        <ele>572.6</ele>
        <time>2020-10-19T09:00:22Z</time>
      </trkpt>
      <trkpt lat="42.8283010" lon="-7.7005610">
        <ele>572.7</ele>
        <time>2020-10-19T09:00:23Z</time>
      </trkpt>
      <trkpt lat="42.8283080" lon="-7.7005750">
        <ele>572.8</ele>
        <time>2020-10-19T09:00:24Z</time>
      </trkpt>
      <trkpt lat="42.8283170" lon="-7.7005870">
        <ele>572.9</ele>
        <time>2020-10-19T09:00:25Z</time>
      </trkpt>
      <trkpt lat="42.8283250" lon="-7.7005980">
        <ele>572.9</ele>
        <time>2020-10-19T09:00:26Z</time>
      </trkpt>
      <trkpt lat="42.8283300" lon="-7.7006080">
        <ele>573.0</ele>
        <time>2020-10-19T09:00:27Z</time>
      </trkpt>
      <trkpt lat="42.8283330" lon="-7.7006180">
        <ele>573.1</ele>
        <time>2020-10-19T09:00:28Z</time>
      </trkpt>
      <trkpt lat="42.8283370" lon="-7.7006280">
        <ele>573.1</ele>
        <time>2020-10-19T09:00:29Z</time>
      </trkpt>
      <trkpt lat="42.8283430" lon="-7.7006390">
        <ele>573.2</ele>
        <time>2020-10-19T09:00:30Z</time>
      </trkpt>
      <trkpt lat="42.8283500" lon="-7.7006500">
        <ele>573.3</ele>
        <time>2020-10-19T09:00:31Z</time>
      </trkpt>
      <trkpt lat="42.8283570" lon="-7.7006610">
        <ele>573.3</ele>
        <time>2020-10-19T09:00:32Z</time>
      </trkpt>
      <trkpt lat="42.8283650" lon="-7.7006720">
        <ele>573.4</ele>
        <time>2020-10-19T09:00:33Z</time>
      </trkpt>
      <trkpt lat="42.8283720" lon="-7.7006810">
        <ele>573.5</ele>
        <time>2020-10-19T09:00:34Z</time>
      </trkpt>
      <trkpt lat="42.8283800" lon="-7.7006900">
        <ele>573.5</ele>
        <time>2020-10-19T09:00:35Z</time>
      </trkpt>
      <trkpt lat="42.8283880" lon="-7.7007000">
        <ele>573.6</ele>
        <time>2020-10-19T09:00:36Z</time>
      </trkpt>
      <trkpt lat="42.8283960" lon="-7.7007100">
        <ele>573.7</ele>
        <time>2020-10-19T09:00:37Z</time>
      </trkpt>
      <trkpt lat="42.8284020" lon="-7.7007210">
        <ele>573.8</ele>
        <time>2020-10-19T09:00:38Z</time>
      </trkpt>
      <trkpt lat="42.8284060" lon="-7.7007330">
        <ele>573.8</ele>
        <time>2020-10-19T09:00:39Z</time>
      </trkpt>
      <trkpt lat="42.8284130" lon="-7.7007440">
        <ele>573.9</ele>
        <time>2020-10-19T09:00:40Z</time>
      </trkpt>
      <trkpt lat="42.8284190" lon="-7.7007550">
        <ele>574.0</ele>
        <time>2020-10-19T09:00:41Z</time>
      </trkpt>
      <trkpt lat="42.8284260" lon="-7.7007670">
        <ele>574.0</ele>
        <time>2020-10-19T09:00:42Z</time>
      </trkpt>
      <trkpt lat="42.8284340" lon="-7.7007780">
        <ele>574.1</ele>
        <time>2020-10-19T09:00:43Z</time>
      </trkpt>
      <trkpt lat="42.8284410" lon="-7.7007890">
        <ele>574.2</ele>
        <time>2020-10-19T09:00:44Z</time>
      </trkpt>
      <trkpt lat="42.8284480" lon="-7.7008000">
        <ele>574.2</ele>
        <time>2020-10-19T09:00:45Z</time>
      </trkpt>
      <trkpt lat="42.8284550" lon="-7.7008100">
        <ele>574.3</ele>
        <time>2020-10-19T09:00:46Z</time>
      </trkpt>
      <trkpt lat="42.8284630" lon="-7.7008220">
        <ele>574.4</ele>
        <time>2020-10-19T09:00:47Z</time>
      </trkpt>
      <trkpt lat="42.8284710" lon="-7.7008330">
        <ele>574.4</ele>
        <time>2020-10-19T09:00:48Z</time>
      </trkpt>
      <trkpt lat="42.8284800" lon="-7.7008430">
        <ele>574.5</ele>
        <time>2020-10-19T09:00:49Z</time>
      </trkpt>
      <trkpt lat="42.8284880" lon="-7.7008540">
        <ele>574.6</ele>
        <time>2020-10-19T09:00:50Z</time>
      </trkpt>
      <trkpt lat="42.8284940" lon="-7.7008660">
        <ele>574.6</ele>
        <time>2020-10-19T09:00:51Z</time>
      </trkpt>
      <trkpt lat="42.8285000" lon="-7.7008810">
        <ele>574.7</ele>
        <time>2020-10-19T09:00:52Z</time>
      </trkpt>
      <trkpt lat="42.8285060" lon="-7.7008950">
        <ele>574.8</ele>
        <time>2020-10-19T09:00:53Z</time>
      </trkpt>
      <trkpt lat="42.8285130" lon="-7.7009090">
        <ele>574.9</ele>
        <time>2020-10-19T09:00:54Z</time>
      </trkpt>
      <trkpt lat="42.8285210" lon="-7.7009220">
        <ele>574.9</ele>
        <time>2020-10-19T09:00:55Z</time>
      </trkpt>
      <trkpt lat="42.8285290" lon="-7.7009340">
        <ele>575.0</ele>
        <time>2020-10-19T09:00:56Z</time>
      </trkpt>
      <trkpt lat="42.8285370" lon="-7.7009450">
        <ele>575.1</ele>
        <time>2020-10-19T09:00:57Z</time>
      </trkpt>
      <trkpt lat="42.8285450" lon="-7.7009560">
        <ele>575.1</ele>
        <time>2020-10-19T09:00:58Z</time>
      </trkpt>
      <trkpt lat="42.8285530" lon="-7.7009690">
        <ele>575.2</ele>
        <time>2020-10-19T09:00:59Z</time>
      </trkpt>
      <trkpt lat="42.8285620" lon="-7.7009800">
        <ele>575.3</ele>
        <time>2020-10-19T09:01:00Z</time>
      </trkpt>
      <trkpt lat="42.8285690" lon="-7.7009910">
        <ele>575.4</ele>
        <time>2020-10-19T09:01:01Z</time>
      </trkpt>
      <trkpt lat="42.8285780" lon="-7.7010000">
        <ele>575.4</ele>
        <time>2020-10-19T09:01:02Z</time>
      </trkpt>
      <trkpt lat="42.8285870" lon="-7.7010090">
        <ele>575.5</ele>
        <time>2020-10-19T09:01:03Z</time>
      </trkpt>
      <trkpt lat="42.8285960" lon="-7.7010180">
        <ele>575.6</ele>
        <time>2020-10-19T09:01:04Z</time>
      </trkpt>
      <trkpt lat="42.8286060" lon="-7.7010260">
        <ele>575.7</ele>
        <time>2020-10-19T09:01:05Z</time>
      </trkpt>
      <trkpt lat="42.8286150" lon="-7.7010350">
        <ele>575.8</ele>
        <time>2020-10-19T09:01:06Z</time>
      </trkpt>
      <trkpt lat="42.8286220" lon="-7.7010440">
        <ele>575.8</ele>
        <time>2020-10-19T09:01:07Z</time>
      </trkpt>
      <trkpt lat="42.8286290" lon="-7.7010560">
        <ele>575.9</ele>
        <time>2020-10-19T09:01:08Z</time>
      </trkpt>
      <trkpt lat="42.8286370" lon="-7.7010660">
        <ele>576.0</ele>
        <time>2020-10-19T09:01:09Z</time>
      </trkpt>
      <trkpt lat="42.8286450" lon="-7.7010770">
        <ele>576.1</ele>
        <time>2020-10-19T09:01:10Z</time>
      </trkpt>
      <trkpt lat="42.8286510" lon="-7.7010860">
        <ele>576.1</ele>
        <time>2020-10-19T09:01:11Z</time>
      </trkpt>
      <trkpt lat="42.8286570" lon="-7.7010960">
        <ele>576.2</ele>
        <time>2020-10-19T09:01:12Z</time>
      </trkpt>
      <trkpt lat="42.8286640" lon="-7.7011040">
        <ele>576.3</ele>
        <time>2020-10-19T09:01:13Z</time>
      </trkpt>
      <trkpt lat="42.8286730" lon="-7.7011140">
        <ele>576.4</ele>
        <time>2020-10-19T09:01:14Z</time>
      </trkpt>
      <trkpt lat="42.8286830" lon="-7.7011210">
        <ele>576.5</ele>
        <time>2020-10-19T09:01:15Z</time>
      </trkpt>
      <trkpt lat="42.8286930" lon="-7.7011280">
        <ele>576.6</ele>
        <time>2020-10-19T09:01:16Z</time>
      </trkpt>
      <trkpt lat="42.8287030" lon="-7.7011330">
        <ele>576.7</ele>
        <time>2020-10-19T09:01:17Z</time>
      </trkpt>
      <trkpt lat="42.8287110" lon="-7.7011410">
        <ele>576.7</ele>
        <time>2020-10-19T09:01:18Z</time>
      </trkpt>
      <trkpt lat="42.8287190" lon="-7.7011530">
        <ele>576.8</ele>
        <time>2020-10-19T09:01:19Z</time>
      </trkpt>
      <trkpt lat="42.8287270" lon="-7.7011640">
        <ele>576.9</ele>
        <time>2020-10-19T09:01:20Z</time>
      </trkpt>
      <trkpt lat="42.8287360" lon="-7.7011760">
        <ele>577.0</ele>
        <time>2020-10-19T09:01:21Z</time>
      </trkpt>
      <trkpt lat="42.8287440" lon="-7.7011870">
        <ele>577.1</ele>
        <time>2020-10-19T09:01:22Z</time>
      </trkpt>
      <trkpt lat="42.8287520" lon="-7.7011980">
        <ele>577.2</ele>
        <time>2020-10-19T09:01:23Z</time>
      </trkpt>
      <trkpt lat="42.8287580" lon="-7.7012090">
        <ele>577.3</ele>
        <time>2020-10-19T09:01:24Z</time>
      </trkpt>
      <trkpt lat="42.8287660" lon="-7.7012190">
        <ele>577.4</ele>
        <time>2020-10-19T09:01:25Z</time>
      </trkpt>
      <trkpt lat="42.8287720" lon="-7.7012300">
        <ele>577.5</ele>
        <time>2020-10-19T09:01:26Z</time>
      </trkpt>
      <trkpt lat="42.8287800" lon="-7.7012400">
        <ele>577.6</ele>
        <time>2020-10-19T09:01:27Z</time>
      </trkpt>
      <trkpt lat="42.8287860" lon="-7.7012500">
        <ele>577.7</ele>
        <time>2020-10-19T09:01:28Z</time>
      </trkpt>
      <trkpt lat="42.8287920" lon="-7.7012610">
        <ele>577.7</ele>
        <time>2020-10-19T09:01:29Z</time>
      </trkpt>
      <trkpt lat="42.8287970" lon="-7.7012720">
        <ele>577.8</ele>
        <time>2020-10-19T09:01:30Z</time>
      </trkpt>
      <trkpt lat="42.8288030" lon="-7.7012830">
        <ele>577.9</ele>
        <time>2020-10-19T09:01:31Z</time>
      </trkpt>
      <trkpt lat="42.8288090" lon="-7.7012960">
        <ele>578.0</ele>
        <time>2020-10-19T09:01:32Z</time>
      </trkpt>
      <trkpt lat="42.8288150" lon="-7.7013110">
        <ele>578.1</ele>
        <time>2020-10-19T09:01:33Z</time>
      </trkpt>
      <trkpt lat="42.8288210" lon="-7.7013270">
        <ele>578.2</ele>
        <time>2020-10-19T09:01:34Z</time>
      </trkpt>
      <trkpt lat="42.8288280" lon="-7.7013420">
        <ele>578.3</ele>
        <time>2020-10-19T09:01:35Z</time>
      </trkpt>
      <trkpt lat="42.8288350" lon="-7.7013560">
        <ele>578.3</ele>
        <time>2020-10-19T09:01:36Z</time>
      </trkpt>
      <trkpt lat="42.8288430" lon="-7.7013680">
        <ele>578.4</ele>
        <time>2020-10-19T09:01:37Z</time>
      </trkpt>
      <trkpt lat="42.8288520" lon="-7.7013790">
        <ele>578.5</ele>
        <time>2020-10-19T09:01:38Z</time>
      </trkpt>
      <trkpt lat="42.8288610" lon="-7.7013900">
        <ele>578.6</ele>
        <time>2020-10-19T09:01:39Z</time>
      </trkpt>
      <trkpt lat="42.8288690" lon="-7.7014010">
        <ele>578.6</ele>
        <time>2020-10-19T09:01:40Z</time>
      </trkpt>
      <trkpt lat="42.8288780" lon="-7.7014100">
        <ele>578.7</ele>
        <time>2020-10-19T09:01:41Z</time>
      </trkpt>
      <trkpt lat="42.8288860" lon="-7.7014190">
        <ele>578.8</ele>
        <time>2020-10-19T09:01:42Z</time>
      </trkpt>
      <trkpt lat="42.8288940" lon="-7.7014280">
        <ele>578.8</ele>
        <time>2020-10-19T09:01:43Z</time>
      </trkpt>
      <trkpt lat="42.8289030" lon="-7.7014370">
        <ele>578.9</ele>
        <time>2020-10-19T09:01:44Z</time>
      </trkpt>
      <trkpt lat="42.8289110" lon="-7.7014460">
        <ele>578.9</ele>
        <time>2020-10-19T09:01:45Z</time>
      </trkpt>
      <trkpt lat="42.8289190" lon="-7.7014550">
        <ele>579.0</ele>
        <time>2020-10-19T09:01:46Z</time>
      </trkpt>
      <trkpt lat="42.8289260" lon="-7.7014630">
        <ele>579.0</ele>
        <time>2020-10-19T09:01:47Z</time>
      </trkpt>
      <trkpt lat="42.8289350" lon="-7.7014710">
        <ele>579.0</ele>
        <time>2020-10-19T09:01:48Z</time>
      </trkpt>
      <trkpt lat="42.8289440" lon="-7.7014780">
        <ele>579.1</ele>
        <time>2020-10-19T09:01:49Z</time>
      </trkpt>
      <trkpt lat="42.8289520" lon="-7.7014870">
        <ele>579.1</ele>
        <time>2020-10-19T09:01:50Z</time>
      </trkpt>
      <trkpt lat="42.8289590" lon="-7.7014980">
        <ele>579.1</ele>
        <time>2020-10-19T09:01:51Z</time>
      </trkpt>
      <trkpt lat="42.8289670" lon="-7.7015120">
        <ele>579.1</ele>
        <time>2020-10-19T09:01:52Z</time>
      </trkpt>
      <trkpt lat="42.8289750" lon="-7.7015260">
        <ele>579.2</ele>
        <time>2020-10-19T09:01:53Z</time>
      </trkpt>
      <trkpt lat="42.8289850" lon="-7.7015380">
        <ele>579.2</ele>
        <time>2020-10-19T09:01:54Z</time>
      </trkpt>
      <trkpt lat="42.8289950" lon="-7.7015480">
        <ele>579.2</ele>
        <time>2020-10-19T09:01:55Z</time>
      </trkpt>
      <trkpt lat="42.8290050" lon="-7.7015570">
        <ele>579.2</ele>
        <time>2020-10-19T09:01:56Z</time>
      </trkpt>
      <trkpt lat="42.8290140" lon="-7.7015660">
        <ele>579.2</ele>
        <time>2020-10-19T09:01:57Z</time>
      </trkpt>
      <trkpt lat="42.8290220" lon="-7.7015760">
        <ele>579.2</ele>
        <time>2020-10-19T09:01:58Z</time>
      </trkpt>
      <trkpt lat="42.8290300" lon="-7.7015850">
        <ele>579.2</ele>
        <time>2020-10-19T09:01:59Z</time>
      </trkpt>
      <trkpt lat="42.8290380" lon="-7.7015940">
        <ele>579.2</ele>
        <time>2020-10-19T09:02:00Z</time>
      </trkpt>
      <trkpt lat="42.8290480" lon="-7.7016020">
        <ele>579.2</ele>
        <time>2020-10-19T09:02:01Z</time>
      </trkpt>
      <trkpt lat="42.8290570" lon="-7.7016110">
        <ele>579.2</ele>
        <time>2020-10-19T09:02:02Z</time>
      </trkpt>
      <trkpt lat="42.8290660" lon="-7.7016220">
        <ele>579.2</ele>
        <time>2020-10-19T09:02:03Z</time>
      </trkpt>
      <trkpt lat="42.8290750" lon="-7.7016330">
        <ele>579.2</ele>
        <time>2020-10-19T09:02:04Z</time>
      </trkpt>
      <trkpt lat="42.8290850" lon="-7.7016420">
        <ele>579.2</ele>
        <time>2020-10-19T09:02:05Z</time>
      </trkpt>
      <trkpt lat="42.8290970" lon="-7.7016490">
        <ele>579.2</ele>
        <time>2020-10-19T09:02:06Z</time>
      </trkpt>
      <trkpt lat="42.8291100" lon="-7.7016550">
        <ele>579.2</ele>
        <time>2020-10-19T09:02:07Z</time>
      </trkpt>
      <trkpt lat="42.8291210" lon="-7.7016650">
        <ele>579.2</ele>
        <time>2020-10-19T09:02:08Z</time>
      </trkpt>
      <trkpt lat="42.8291300" lon="-7.7016780">
        <ele>579.2</ele>
        <time>2020-10-19T09:02:09Z</time>
      </trkpt>
      <trkpt lat="42.8291390" lon="-7.7016930">
        <ele>579.2</ele>
        <time>2020-10-19T09:02:10Z</time>
      </trkpt>
      <trkpt lat="42.8291510" lon="-7.7017050">
        <ele>579.2</ele>
        <time>2020-10-19T09:02:11Z</time>
      </trkpt>
      <trkpt lat="42.8291620" lon="-7.7017160">
        <ele>579.2</ele>
        <time>2020-10-19T09:02:12Z</time>
      </trkpt>
      <trkpt lat="42.8291750" lon="-7.7017270">
        <ele>579.2</ele>
        <time>2020-10-19T09:02:13Z</time>
      </trkpt>
      <trkpt lat="42.8291890" lon="-7.7017370">
        <ele>579.2</ele>
        <time>2020-10-19T09:02:14Z</time>
      </trkpt>
      <trkpt lat="42.8292040" lon="-7.7017490">
        <ele>579.2</ele>
        <time>2020-10-19T09:02:15Z</time>
      </trkpt>
      <trkpt lat="42.8292200" lon="-7.7017610">
        <ele>579.2</ele>
        <time>2020-10-19T09:02:16Z</time>
      </trkpt>
      <trkpt lat="42.8292350" lon="-7.7017750">
        <ele>579.2</ele>
        <time>2020-10-19T09:02:17Z</time>
      </trkpt>
      <trkpt lat="42.8292480" lon="-7.7017870">
        <ele>579.2</ele>
        <time>2020-10-19T09:02:18Z</time>
      </trkpt>
      <trkpt lat="42.8292600" lon="-7.7017970">
        <ele>579.2</ele>
        <time>2020-10-19T09:02:19Z</time>
      </trkpt>
      <trkpt lat="42.8292700" lon="-7.7018070">
        <ele>579.2</ele>
        <time>2020-10-19T09:02:20Z</time>
      </trkpt>
      <trkpt lat="42.8292800" lon="-7.7018160">
        <ele>579.2</ele>
        <time>2020-10-19T09:02:21Z</time>
      </trkpt>
      <trkpt lat="42.8292900" lon="-7.7018280">
        <ele>579.2</ele>
        <time>2020-10-19T09:02:22Z</time>
      </trkpt>
      <trkpt lat="42.8293030" lon="-7.7018390">
        <ele>579.2</ele>
        <time>2020-10-19T09:02:23Z</time>
      </trkpt>
      <trkpt lat="42.8293170" lon="-7.7018490">
        <ele>579.3</ele>
        <time>2020-10-19T09:02:24Z</time>
      </trkpt>
      <trkpt lat="42.8293320" lon="-7.7018590">
        <ele>579.3</ele>
        <time>2020-10-19T09:02:25Z</time>
      </trkpt>
      <trkpt lat="42.8293460" lon="-7.7018690">
        <ele>579.3</ele>
        <time>2020-10-19T09:02:26Z</time>
      </trkpt>
      <trkpt lat="42.8293610" lon="-7.7018790">
        <ele>579.3</ele>
        <time>2020-10-19T09:02:27Z</time>
      </trkpt>
      <trkpt lat="42.8293750" lon="-7.7018870">
        <ele>579.3</ele>
        <time>2020-10-19T09:02:28Z</time>
      </trkpt>
      <trkpt lat="42.8293890" lon="-7.7018960">
        <ele>579.3</ele>
        <time>2020-10-19T09:02:29Z</time>
      </trkpt>
      <trkpt lat="42.8294030" lon="-7.7019040">
        <ele>579.4</ele>
        <time>2020-10-19T09:02:30Z</time>
      </trkpt>
      <trkpt lat="42.8294150" lon="-7.7019140">
        <ele>579.4</ele>
        <time>2020-10-19T09:02:31Z</time>
      </trkpt>
      <trkpt lat="42.8294270" lon="-7.7019240">
        <ele>579.4</ele>
        <time>2020-10-19T09:02:32Z</time>
      </trkpt>
      <trkpt lat="42.8294380" lon="-7.7019360">
        <ele>579.4</ele>
        <time>2020-10-19T09:02:33Z</time>
      </trkpt>
      <trkpt lat="42.8294500" lon="-7.7019470">
        <ele>579.4</ele>
        <time>2020-10-19T09:02:34Z</time>
      </trkpt>
      <trkpt lat="42.8294600" lon="-7.7019570">
        <ele>579.4</ele>
        <time>2020-10-19T09:02:35Z</time>
      </trkpt>
      <trkpt lat="42.8294700" lon="-7.7019670">
        <ele>579.4</ele>
        <time>2020-10-19T09:02:36Z</time>
      </trkpt>
      <trkpt lat="42.8294800" lon="-7.7019760">
        <ele>579.5</ele>
        <time>2020-10-19T09:02:37Z</time>
      </trkpt>
      <trkpt lat="42.8294890" lon="-7.7019850">
        <ele>579.5</ele>
        <time>2020-10-19T09:02:38Z</time>
      </trkpt>
      <trkpt lat="42.8295000" lon="-7.7019950">
        <ele>579.5</ele>
        <time>2020-10-19T09:02:39Z</time>
      </trkpt>
      <trkpt lat="42.8295100" lon="-7.7020050">
        <ele>579.5</ele>
        <time>2020-10-19T09:02:40Z</time>
      </trkpt>
      <trkpt lat="42.8295210" lon="-7.7020150">
        <ele>579.5</ele>
        <time>2020-10-19T09:02:41Z</time>
      </trkpt>
      <trkpt lat="42.8295310" lon="-7.7020240">
        <ele>579.5</ele>
        <time>2020-10-19T09:02:42Z</time>
      </trkpt>
      <trkpt lat="42.8295420" lon="-7.7020320">
        <ele>579.6</ele>
        <time>2020-10-19T09:02:43Z</time>
      </trkpt>
      <trkpt lat="42.8295520" lon="-7.7020410">
        <ele>579.6</ele>
        <time>2020-10-19T09:02:44Z</time>
      </trkpt>
      <trkpt lat="42.8295620" lon="-7.7020500">
        <ele>579.6</ele>
        <time>2020-10-19T09:02:45Z</time>
      </trkpt>
      <trkpt lat="42.8295710" lon="-7.7020600">
        <ele>579.6</ele>
        <time>2020-10-19T09:02:46Z</time>
      </trkpt>
      <trkpt lat="42.8295810" lon="-7.7020690">
        <ele>579.7</ele>
        <time>2020-10-19T09:02:47Z</time>
      </trkpt>
      <trkpt lat="42.8295920" lon="-7.7020800">
        <ele>579.7</ele>
        <time>2020-10-19T09:02:48Z</time>
      </trkpt>
      <trkpt lat="42.8296030" lon="-7.7020900">
        <ele>579.7</ele>
        <time>2020-10-19T09:02:49Z</time>
      </trkpt>
      <trkpt lat="42.8296140" lon="-7.7021010">
        <ele>579.7</ele>
        <time>2020-10-19T09:02:50Z</time>
      </trkpt>
      <trkpt lat="42.8296230" lon="-7.7021120">
        <ele>579.8</ele>
        <time>2020-10-19T09:02:51Z</time>
      </trkpt>
      <trkpt lat="42.8296320" lon="-7.7021240">
        <ele>579.8</ele>
        <time>2020-10-19T09:02:52Z</time>
      </trkpt>
      <trkpt lat="42.8296390" lon="-7.7021370">
        <ele>579.8</ele>
        <time>2020-10-19T09:02:53Z</time>
      </trkpt>
      <trkpt lat="42.8296470" lon="-7.7021500">
        <ele>579.9</ele>
        <time>2020-10-19T09:02:54Z</time>
      </trkpt>
      <trkpt lat="42.8296540" lon="-7.7021640">
        <ele>579.9</ele>
        <time>2020-10-19T09:02:55Z</time>
      </trkpt>
      <trkpt lat="42.8296600" lon="-7.7021770">
        <ele>579.9</ele>
        <time>2020-10-19T09:02:56Z</time>
      </trkpt>
      <trkpt lat="42.8296660" lon="-7.7021900">
        <ele>580.0</ele>
        <time>2020-10-19T09:02:57Z</time>
      </trkpt>
      <trkpt lat="42.8296720" lon="-7.7022050">
        <ele>580.0</ele>
        <time>2020-10-19T09:02:58Z</time>
      </trkpt>
      <trkpt lat="42.8296770" lon="-7.7022230">
        <ele>580.0</ele>
        <time>2020-10-19T09:02:59Z</time>
      </trkpt>
      <trkpt lat="42.8296790" lon="-7.7022440">
        <ele>580.1</ele>
        <time>2020-10-19T09:03:00Z</time>
      </trkpt>
      <trkpt lat="42.8296800" lon="-7.7022620">
        <ele>580.1</ele>
        <time>2020-10-19T09:03:01Z</time>
      </trkpt>
      <trkpt lat="42.8296810" lon="-7.7022790">
        <ele>580.2</ele>
        <time>2020-10-19T09:03:02Z</time>
      </trkpt>
      <trkpt lat="42.8296820" lon="-7.7022930">
        <ele>580.2</ele>
        <time>2020-10-19T09:03:03Z</time>
      </trkpt>
      <trkpt lat="42.8296840" lon="-7.7023100">
        <ele>580.2</ele>
        <time>2020-10-19T09:03:04Z</time>
      </trkpt>
      <trkpt lat="42.8296840" lon="-7.7023280">
        <ele>580.3</ele>
        <time>2020-10-19T09:03:05Z</time>
      </trkpt>
      <trkpt lat="42.8296840" lon="-7.7023460">
        <ele>580.3</ele>
        <time>2020-10-19T09:03:06Z</time>
      </trkpt>
      <trkpt lat="42.8296850" lon="-7.7023610">
        <ele>580.4</ele>
        <time>2020-10-19T09:03:07Z</time>
      </trkpt>
      <trkpt lat="42.8296850" lon="-7.7023760">
        <ele>580.4</ele>
        <time>2020-10-19T09:03:08Z</time>
      </trkpt>
      <trkpt lat="42.8296830" lon="-7.7023920">
        <ele>580.5</ele>
        <time>2020-10-19T09:03:09Z</time>
      </trkpt>
      <trkpt lat="42.8296800" lon="-7.7024090">
        <ele>580.5</ele>
        <time>2020-10-19T09:03:10Z</time>
      </trkpt>
      <trkpt lat="42.8296790" lon="-7.7024240">
        <ele>580.5</ele>
        <time>2020-10-19T09:03:11Z</time>
      </trkpt>
      <trkpt lat="42.8296780" lon="-7.7024390">
        <ele>580.6</ele>
        <time>2020-10-19T09:03:12Z</time>
      </trkpt>
      <trkpt lat="42.8296750" lon="-7.7024540">
        <ele>580.6</ele>
        <time>2020-10-19T09:03:13Z</time>
      </trkpt>
      <trkpt lat="42.8296730" lon="-7.7024690">
        <ele>580.7</ele>
        <time>2020-10-19T09:03:14Z</time>
      </trkpt>
      <trkpt lat="42.8296720" lon="-7.7024820">
        <ele>580.7</ele>
        <time>2020-10-19T09:03:15Z</time>
      </trkpt>
      <trkpt lat="42.8296720" lon="-7.7024970">
        <ele>580.8</ele>
        <time>2020-10-19T09:03:16Z</time>
      </trkpt>
      <trkpt lat="42.8296720" lon="-7.7025100">
        <ele>580.8</ele>
        <time>2020-10-19T09:03:17Z</time>
      </trkpt>
      <trkpt lat="42.8296710" lon="-7.7025230">
        <ele>580.9</ele>
        <time>2020-10-19T09:03:18Z</time>
      </trkpt>
      <trkpt lat="42.8296710" lon="-7.7025370">
        <ele>580.9</ele>
        <time>2020-10-19T09:03:19Z</time>
      </trkpt>
      <trkpt lat="42.8296710" lon="-7.7025520">
        <ele>581.0</ele>
        <time>2020-10-19T09:03:20Z</time>
      </trkpt>
      <trkpt lat="42.8296690" lon="-7.7025690">
        <ele>581.0</ele>
        <time>2020-10-19T09:03:21Z</time>
      </trkpt>
      <trkpt lat="42.8296670" lon="-7.7025850">
        <ele>581.1</ele>
        <time>2020-10-19T09:03:22Z</time>
      </trkpt>
      <trkpt lat="42.8296660" lon="-7.7026000">
        <ele>581.1</ele>
        <time>2020-10-19T09:03:23Z</time>
      </trkpt>
      <trkpt lat="42.8296650" lon="-7.7026150">
        <ele>581.2</ele>
        <time>2020-10-19T09:03:24Z</time>
      </trkpt>
      <trkpt lat="42.8296660" lon="-7.7026300">
        <ele>581.3</ele>
        <time>2020-10-19T09:03:25Z</time>
      </trkpt>
      <trkpt lat="42.8296660" lon="-7.7026460">
        <ele>581.3</ele>
        <time>2020-10-19T09:03:26Z</time>
      </trkpt>
      <trkpt lat="42.8296680" lon="-7.7026600">
        <ele>581.4</ele>
        <time>2020-10-19T09:03:27Z</time>
      </trkpt>
      <trkpt lat="42.8296710" lon="-7.7026740">
        <ele>581.5</ele>
        <time>2020-10-19T09:03:28Z</time>
      </trkpt>
      <trkpt lat="42.8296740" lon="-7.7026880">
        <ele>581.5</ele>
        <time>2020-10-19T09:03:29Z</time>
      </trkpt>
      <trkpt lat="42.8296770" lon="-7.7027010">
        <ele>581.6</ele>
        <time>2020-10-19T09:03:30Z</time>
      </trkpt>
      <trkpt lat="42.8296810" lon="-7.7027150">
        <ele>581.7</ele>
        <time>2020-10-19T09:03:31Z</time>
      </trkpt>
      <trkpt lat="42.8296840" lon="-7.7027270">
        <ele>581.7</ele>
        <time>2020-10-19T09:03:32Z</time>
      </trkpt>
      <trkpt lat="42.8296850" lon="-7.7027380">
        <ele>581.8</ele>
        <time>2020-10-19T09:03:33Z</time>
      </trkpt>
      <trkpt lat="42.8296870" lon="-7.7027490">
        <ele>581.8</ele>
        <time>2020-10-19T09:03:34Z</time>
      </trkpt>
      <trkpt lat="42.8296920" lon="-7.7027610">
        <ele>581.9</ele>
        <time>2020-10-19T09:03:35Z</time>
      </trkpt>
      <trkpt lat="42.8296990" lon="-7.7027740">
        <ele>582.0</ele>
        <time>2020-10-19T09:03:36Z</time>
      </trkpt>
      <trkpt lat="42.8297060" lon="-7.7027870">
        <ele>582.1</ele>
        <time>2020-10-19T09:03:37Z</time>
      </trkpt>
      <trkpt lat="42.8297150" lon="-7.7028030">
        <ele>582.2</ele>
        <time>2020-10-19T09:03:38Z</time>
      </trkpt>
      <trkpt lat="42.8297230" lon="-7.7028190">
        <ele>582.3</ele>
        <time>2020-10-19T09:03:39Z</time>
      </trkpt>
      <trkpt lat="42.8297290" lon="-7.7028330">
        <ele>582.4</ele>
        <time>2020-10-19T09:03:40Z</time>
      </trkpt>
      <trkpt lat="42.8297350" lon="-7.7028460">
        <ele>582.5</ele>
        <time>2020-10-19T09:03:41Z</time>
      </trkpt>
      <trkpt lat="42.8297410" lon="-7.7028580">
        <ele>582.6</ele>
        <time>2020-10-19T09:03:42Z</time>
      </trkpt>
      <trkpt lat="42.8297490" lon="-7.7028700">
        <ele>582.7</ele>
        <time>2020-10-19T09:03:43Z</time>
      </trkpt>
      <trkpt lat="42.8297570" lon="-7.7028830">
        <ele>582.8</ele>
        <time>2020-10-19T09:03:44Z</time>
      </trkpt>
      <trkpt lat="42.8297650" lon="-7.7028950">
        <ele>582.9</ele>
        <time>2020-10-19T09:03:45Z</time>
      </trkpt>
      <trkpt lat="42.8297730" lon="-7.7029070">
        <ele>583.0</ele>
        <time>2020-10-19T09:03:46Z</time>
      </trkpt>
      <trkpt lat="42.8297810" lon="-7.7029200">
        <ele>583.1</ele>
        <time>2020-10-19T09:03:47Z</time>
      </trkpt>
      <trkpt lat="42.8297880" lon="-7.7029350">
        <ele>583.2</ele>
        <time>2020-10-19T09:03:48Z</time>
      </trkpt>
      <trkpt lat="42.8297950" lon="-7.7029490">
        <ele>583.3</ele>
        <time>2020-10-19T09:03:49Z</time>
      </trkpt>
      <trkpt lat="42.8298020" lon="-7.7029620">
        <ele>583.5</ele>
        <time>2020-10-19T09:03:50Z</time>
      </trkpt>
      <trkpt lat="42.8298100" lon="-7.7029740">
        <ele>583.6</ele>
        <time>2020-10-19T09:03:51Z</time>
      </trkpt>
      <trkpt lat="42.8298170" lon="-7.7029870">
        <ele>583.7</ele>
        <time>2020-10-19T09:03:52Z</time>
      </trkpt>
      <trkpt lat="42.8298230" lon="-7.7030010">
        <ele>583.8</ele>
        <time>2020-10-19T09:03:53Z</time>
      </trkpt>
      <trkpt lat="42.8298290" lon="-7.7030150">
        <ele>583.9</ele>
        <time>2020-10-19T09:03:54Z</time>
      </trkpt>
      <trkpt lat="42.8298340" lon="-7.7030280">
        <ele>584.0</ele>
        <time>2020-10-19T09:03:55Z</time>
      </trkpt>
      <trkpt lat="42.8298370" lon="-7.7030400">
        <ele>584.1</ele>
        <time>2020-10-19T09:03:56Z</time>
      </trkpt>
      <trkpt lat="42.8298390" lon="-7.7030530">
        <ele>584.1</ele>
        <time>2020-10-19T09:03:57Z</time>
      </trkpt>
      <trkpt lat="42.8298410" lon="-7.7030670">
        <ele>584.2</ele>
        <time>2020-10-19T09:03:58Z</time>
      </trkpt>
      <trkpt lat="42.8298440" lon="-7.7030810">
        <ele>584.3</ele>
        <time>2020-10-19T09:03:59Z</time>
      </trkpt>
      <trkpt lat="42.8298460" lon="-7.7030940">
        <ele>584.4</ele>
        <time>2020-10-19T09:04:00Z</time>
      </trkpt>
      <trkpt lat="42.8298480" lon="-7.7031070">
        <ele>584.5</ele>
        <time>2020-10-19T09:04:01Z</time>
      </trkpt>
      <trkpt lat="42.8298510" lon="-7.7031200">
        <ele>584.5</ele>
        <time>2020-10-19T09:04:02Z</time>
      </trkpt>
      <trkpt lat="42.8298530" lon="-7.7031330">
        <ele>584.6</ele>
        <time>2020-10-19T09:04:03Z</time>
      </trkpt>
      <trkpt lat="42.8298560" lon="-7.7031460">
        <ele>584.7</ele>
        <time>2020-10-19T09:04:04Z</time>
      </trkpt>
      <trkpt lat="42.8298580" lon="-7.7031580">
        <ele>584.7</ele>
        <time>2020-10-19T09:04:05Z</time>
      </trkpt>
      <trkpt lat="42.8298600" lon="-7.7031700">
        <ele>584.8</ele>
        <time>2020-10-19T09:04:06Z</time>
      </trkpt>
      <trkpt lat="42.8298640" lon="-7.7031820">
        <ele>584.9</ele>
        <time>2020-10-19T09:04:07Z</time>
      </trkpt>
      <trkpt lat="42.8298660" lon="-7.7031970">
        <ele>584.9</ele>
        <time>2020-10-19T09:04:08Z</time>
      </trkpt>
      <trkpt lat="42.8298680" lon="-7.7032130">
        <ele>585.0</ele>
        <time>2020-10-19T09:04:09Z</time>
      </trkpt>
      <trkpt lat="42.8298690" lon="-7.7032300">
        <ele>585.1</ele>
        <time>2020-10-19T09:04:10Z</time>
      </trkpt>
      <trkpt lat="42.8298710" lon="-7.7032470">
        <ele>585.2</ele>
        <time>2020-10-19T09:04:11Z</time>
      </trkpt>
      <trkpt lat="42.8298730" lon="-7.7032630">
        <ele>585.2</ele>
        <time>2020-10-19T09:04:12Z</time>
      </trkpt>
      <trkpt lat="42.8298760" lon="-7.7032800">
        <ele>585.3</ele>
        <time>2020-10-19T09:04:13Z</time>
      </trkpt>
      <trkpt lat="42.8298780" lon="-7.7032970">
        <ele>585.4</ele>
        <time>2020-10-19T09:04:14Z</time>
      </trkpt>
      <trkpt lat="42.8298800" lon="-7.7033130">
        <ele>585.4</ele>
        <time>2020-10-19T09:04:15Z</time>
      </trkpt>
      <trkpt lat="42.8298820" lon="-7.7033310">
        <ele>585.6</ele>
        <time>2020-10-19T09:04:16Z</time>
      </trkpt>
      <trkpt lat="42.8298850" lon="-7.7033490">
        <ele>585.6</ele>
        <time>2020-10-19T09:04:17Z</time>
      </trkpt>
      <trkpt lat="42.8298890" lon="-7.7033670">
        <ele>585.6</ele>
        <time>2020-10-19T09:04:18Z</time>
      </trkpt>
      <trkpt lat="42.8298930" lon="-7.7033860">
        <ele>585.7</ele>
        <time>2020-10-19T09:04:19Z</time>
      </trkpt>
      <trkpt lat="42.8298950" lon="-7.7034040">
        <ele>585.7</ele>
        <time>2020-10-19T09:04:20Z</time>
      </trkpt>
      <trkpt lat="42.8298970" lon="-7.7034200">
        <ele>585.7</ele>
        <time>2020-10-19T09:04:21Z</time>
      </trkpt>
      <trkpt lat="42.8298990" lon="-7.7034370">
        <ele>585.7</ele>
        <time>2020-10-19T09:04:22Z</time>
      </trkpt>
      <trkpt lat="42.8299030" lon="-7.7034540">
        <ele>585.8</ele>
        <time>2020-10-19T09:04:23Z</time>
      </trkpt>
      <trkpt lat="42.8299070" lon="-7.7034710">
        <ele>585.8</ele>
        <time>2020-10-19T09:04:24Z</time>
      </trkpt>
      <trkpt lat="42.8299120" lon="-7.7034860">
        <ele>585.8</ele>
        <time>2020-10-19T09:04:25Z</time>
      </trkpt>
      <trkpt lat="42.8299150" lon="-7.7035000">
        <ele>585.8</ele>
        <time>2020-10-19T09:04:26Z</time>
      </trkpt>
      <trkpt lat="42.8299200" lon="-7.7035160">
        <ele>585.9</ele>
        <time>2020-10-19T09:04:27Z</time>
      </trkpt>
      <trkpt lat="42.8299250" lon="-7.7035310">
        <ele>585.9</ele>
        <time>2020-10-19T09:04:28Z</time>
      </trkpt>
      <trkpt lat="42.8299310" lon="-7.7035470">
        <ele>585.9</ele>
        <time>2020-10-19T09:04:29Z</time>
      </trkpt>
      <trkpt lat="42.8299350" lon="-7.7035590">
        <ele>585.9</ele>
        <time>2020-10-19T09:04:30Z</time>
      </trkpt>
      <trkpt lat="42.8299380" lon="-7.7035710">
        <ele>586.0</ele>
        <time>2020-10-19T09:04:31Z</time>
      </trkpt>
      <trkpt lat="42.8299410" lon="-7.7035790">
        <ele>586.0</ele>
        <time>2020-10-19T09:04:32Z</time>
      </trkpt>
      <trkpt lat="42.8299420" lon="-7.7035840">
        <ele>586.0</ele>
        <time>2020-10-19T09:04:33Z</time>
      </trkpt>
      <trkpt lat="42.8299430" lon="-7.7035870">
        <ele>586.0</ele>
        <time>2020-10-19T09:04:34Z</time>
      </trkpt>
      <trkpt lat="42.8299440" lon="-7.7035880">
        <ele>586.0</ele>
        <time>2020-10-19T09:04:35Z</time>
      </trkpt>
      <trkpt lat="42.8299440" lon="-7.7035900">
        <ele>586.0</ele>
        <time>2020-10-19T09:04:36Z</time>
      </trkpt>
      <trkpt lat="42.8299440" lon="-7.7035920">
        <ele>586.0</ele>
        <time>2020-10-19T09:04:37Z</time>
      </trkpt>
      <trkpt lat="42.8299450" lon="-7.7035930">
        <ele>586.0</ele>
        <time>2020-10-19T09:04:38Z</time>
      </trkpt>
      <trkpt lat="42.8299470" lon="-7.7035960">
        <ele>586.0</ele>
        <time>2020-10-19T09:04:39Z</time>
      </trkpt>
      <trkpt lat="42.8299490" lon="-7.7036020">
        <ele>586.0</ele>
        <time>2020-10-19T09:04:40Z</time>
      </trkpt>
      <trkpt lat="42.8299510" lon="-7.7036140">
        <ele>586.0</ele>
        <time>2020-10-19T09:04:41Z</time>
      </trkpt>
      <trkpt lat="42.8299520" lon="-7.7036280">
        <ele>586.1</ele>
        <time>2020-10-19T09:04:42Z</time>
      </trkpt>
      <trkpt lat="42.8299530" lon="-7.7036430">
        <ele>586.1</ele>
        <time>2020-10-19T09:04:43Z</time>
      </trkpt>
      <trkpt lat="42.8299540" lon="-7.7036560">
        <ele>586.1</ele>
        <time>2020-10-19T09:04:44Z</time>
      </trkpt>
      <trkpt lat="42.8299560" lon="-7.7036690">
        <ele>586.1</ele>
        <time>2020-10-19T09:04:45Z</time>
      </trkpt>
      <trkpt lat="42.8299590" lon="-7.7036800">
        <ele>586.2</ele>
        <time>2020-10-19T09:04:46Z</time>
      </trkpt>
      <trkpt lat="42.8299610" lon="-7.7036870">
        <ele>586.2</ele>
        <time>2020-10-19T09:04:47Z</time>
      </trkpt>
      <trkpt lat="42.8299640" lon="-7.7036920">
        <ele>586.2</ele>
        <time>2020-10-19T09:04:48Z</time>
      </trkpt>
      <trkpt lat="42.8299640" lon="-7.7036980">
        <ele>586.2</ele>
        <time>2020-10-19T09:04:49Z</time>
      </trkpt>
      <trkpt lat="42.8299660" lon="-7.7037040">
        <ele>586.2</ele>
        <time>2020-10-19T09:04:50Z</time>
      </trkpt>
      <trkpt lat="42.8299680" lon="-7.7037090">
        <ele>586.2</ele>
        <time>2020-10-19T09:04:51Z</time>
      </trkpt>
      <trkpt lat="42.8299690" lon="-7.7037130">
        <ele>586.2</ele>
        <time>2020-10-19T09:04:52Z</time>
      </trkpt>
      <trkpt lat="42.8299710" lon="-7.7037140">
        <ele>586.2</ele>
        <time>2020-10-19T09:04:53Z</time>
      </trkpt>
      <trkpt lat="42.8299720" lon="-7.7037130">
        <ele>586.2</ele>
        <time>2020-10-19T09:04:54Z</time>
      </trkpt>
      <trkpt lat="42.8299720" lon="-7.7037110">
        <ele>586.2</ele>
        <time>2020-10-19T09:04:55Z</time>
      </trkpt>
      <trkpt lat="42.8299730" lon="-7.7037110">
        <ele>586.2</ele>
        <time>2020-10-19T09:04:56Z</time>
      </trkpt>
      <trkpt lat="42.8299730" lon="-7.7037110">
        <ele>586.2</ele>
        <time>2020-10-19T09:04:57Z</time>
      </trkpt>
      <trkpt lat="42.8299720" lon="-7.7037120">
        <ele>586.2</ele>
        <time>2020-10-19T09:04:58Z</time>
      </trkpt>
      <trkpt lat="42.8299720" lon="-7.7037110">
        <ele>586.2</ele>
        <time>2020-10-19T09:04:59Z</time>
      </trkpt>
      <trkpt lat="42.8299710" lon="-7.7037130">
        <ele>586.2</ele>
        <time>2020-10-19T09:05:00Z</time>
      </trkpt>
      <trkpt lat="42.8299700" lon="-7.7037130">
        <ele>586.2</ele>
        <time>2020-10-19T09:05:01Z</time>
      </trkpt>
      <trkpt lat="42.8299690" lon="-7.7037130">
        <ele>586.2</ele>
        <time>2020-10-19T09:05:02Z</time>
      </trkpt>
      <trkpt lat="42.8299670" lon="-7.7037080">
        <ele>586.2</ele>
        <time>2020-10-19T09:05:03Z</time>
      </trkpt>
      <trkpt lat="42.8299660" lon="-7.7037070">
        <ele>586.2</ele>
        <time>2020-10-19T09:05:04Z</time>
      </trkpt>
      <trkpt lat="42.8299670" lon="-7.7037110">
        <ele>586.3</ele>
        <time>2020-10-19T09:05:05Z</time>
      </trkpt>
      <trkpt lat="42.8299680" lon="-7.7037200">
        <ele>586.3</ele>
        <time>2020-10-19T09:05:06Z</time>
      </trkpt>
      <trkpt lat="42.8299690" lon="-7.7037270">
        <ele>586.3</ele>
        <time>2020-10-19T09:05:07Z</time>
      </trkpt>
      <trkpt lat="42.8299680" lon="-7.7037300">
        <ele>586.3</ele>
        <time>2020-10-19T09:05:08Z</time>
      </trkpt>
      <trkpt lat="42.8299670" lon="-7.7037310">
        <ele>586.3</ele>
        <time>2020-10-19T09:05:09Z</time>
      </trkpt>
      <trkpt lat="42.8299670" lon="-7.7037290">
        <ele>586.3</ele>
        <time>2020-10-19T09:05:10Z</time>
      </trkpt>
      <trkpt lat="42.8299680" lon="-7.7037280">
        <ele>586.3</ele>
        <time>2020-10-19T09:05:11Z</time>
      </trkpt>
      <trkpt lat="42.8299680" lon="-7.7037260">
        <ele>586.3</ele>
        <time>2020-10-19T09:05:12Z</time>
      </trkpt>
      <trkpt lat="42.8299700" lon="-7.7037240">
        <ele>586.3</ele>
        <time>2020-10-19T09:05:13Z</time>
      </trkpt>
      <trkpt lat="42.8299730" lon="-7.7037220">
        <ele>586.3</ele>
        <time>2020-10-19T09:05:14Z</time>
      </trkpt>
      <trkpt lat="42.8299760" lon="-7.7037190">
        <ele>586.3</ele>
        <time>2020-10-19T09:05:15Z</time>
      </trkpt>
      <trkpt lat="42.8299790" lon="-7.7037170">
        <ele>586.3</ele>
        <time>2020-10-19T09:05:16Z</time>
      </trkpt>
      <trkpt lat="42.8299810" lon="-7.7037160">
        <ele>586.3</ele>
        <time>2020-10-19T09:05:17Z</time>
      </trkpt>
      <trkpt lat="42.8299820" lon="-7.7037150">
        <ele>586.3</ele>
        <time>2020-10-19T09:05:18Z</time>
      </trkpt>
      <trkpt lat="42.8299830" lon="-7.7037150">
        <ele>586.3</ele>
        <time>2020-10-19T09:05:19Z</time>
      </trkpt>
      <trkpt lat="42.8299840" lon="-7.7037140">
        <ele>586.3</ele>
        <time>2020-10-19T09:05:20Z</time>
      </trkpt>
      <trkpt lat="42.8299840" lon="-7.7037130">
        <ele>586.3</ele>
        <time>2020-10-19T09:05:21Z</time>
      </trkpt>
      <trkpt lat="42.8299840" lon="-7.7037120">
        <ele>586.3</ele>
        <time>2020-10-19T09:05:22Z</time>
      </trkpt>
      <trkpt lat="42.8299830" lon="-7.7037110">
        <ele>586.3</ele>
        <time>2020-10-19T09:05:23Z</time>
      </trkpt>
      <trkpt lat="42.8299810" lon="-7.7037110">
        <ele>586.3</ele>
        <time>2020-10-19T09:05:24Z</time>
      </trkpt>
      <trkpt lat="42.8299800" lon="-7.7037140">
        <ele>586.4</ele>
        <time>2020-10-19T09:05:25Z</time>
      </trkpt>
      <trkpt lat="42.8299770" lon="-7.7037250">
        <ele>586.4</ele>
        <time>2020-10-19T09:05:26Z</time>
      </trkpt>
      <trkpt lat="42.8299740" lon="-7.7037400">
        <ele>586.4</ele>
        <time>2020-10-19T09:05:27Z</time>
      </trkpt>
      <trkpt lat="42.8299710" lon="-7.7037540">
        <ele>586.4</ele>
        <time>2020-10-19T09:05:28Z</time>
      </trkpt>
      <trkpt lat="42.8299720" lon="-7.7037630">
        <ele>586.4</ele>
        <time>2020-10-19T09:05:29Z</time>
      </trkpt>
      <trkpt lat="42.8299740" lon="-7.7037710">
        <ele>586.4</ele>
        <time>2020-10-19T09:05:30Z</time>
      </trkpt>
      <trkpt lat="42.8299750" lon="-7.7037790">
        <ele>586.5</ele>
        <time>2020-10-19T09:05:31Z</time>
      </trkpt>
      <trkpt lat="42.8299750" lon="-7.7037840">
        <ele>586.5</ele>
        <time>2020-10-19T09:05:32Z</time>
      </trkpt>
      <trkpt lat="42.8299750" lon="-7.7037890">
        <ele>586.5</ele>
        <time>2020-10-19T09:05:33Z</time>
      </trkpt>
      <trkpt lat="42.8299760" lon="-7.7037940">
        <ele>586.5</ele>
        <time>2020-10-19T09:05:34Z</time>
      </trkpt>
      <trkpt lat="42.8299760" lon="-7.7037980">
        <ele>586.5</ele>
        <time>2020-10-19T09:05:35Z</time>
      </trkpt>
      <trkpt lat="42.8299770" lon="-7.7038000">
        <ele>586.5</ele>
        <time>2020-10-19T09:05:36Z</time>
      </trkpt>
      <trkpt lat="42.8299760" lon="-7.7038020">
        <ele>586.5</ele>
        <time>2020-10-19T09:05:37Z</time>
      </trkpt>
      <trkpt lat="42.8299740" lon="-7.7038070">
        <ele>586.5</ele>
        <time>2020-10-19T09:05:38Z</time>
      </trkpt>
      <trkpt lat="42.8299740" lon="-7.7038150">
        <ele>586.5</ele>
        <time>2020-10-19T09:05:39Z</time>
      </trkpt>
      <trkpt lat="42.8299760" lon="-7.7038260">
        <ele>586.5</ele>
        <time>2020-10-19T09:05:40Z</time>
      </trkpt>
      <trkpt lat="42.8299780" lon="-7.7038400">
        <ele>586.6</ele>
        <time>2020-10-19T09:05:41Z</time>
      </trkpt>
      <trkpt lat="42.8299800" lon="-7.7038570">
        <ele>586.6</ele>
        <time>2020-10-19T09:05:42Z</time>
      </trkpt>
      <trkpt lat="42.8299810" lon="-7.7038740">
        <ele>586.6</ele>
        <time>2020-10-19T09:05:43Z</time>
      </trkpt>
      <trkpt lat="42.8299830" lon="-7.7038920">
        <ele>586.7</ele>
        <time>2020-10-19T09:05:44Z</time>
      </trkpt>
      <trkpt lat="42.8299860" lon="-7.7039090">
        <ele>586.7</ele>
        <time>2020-10-19T09:05:45Z</time>
      </trkpt>
      <trkpt lat="42.8299910" lon="-7.7039250">
        <ele>586.7</ele>
        <time>2020-10-19T09:05:46Z</time>
      </trkpt>
      <trkpt lat="42.8299970" lon="-7.7039410">
        <ele>586.7</ele>
        <time>2020-10-19T09:05:47Z</time>
      </trkpt>
      <trkpt lat="42.8300060" lon="-7.7039620">
        <ele>586.8</ele>
        <time>2020-10-19T09:05:48Z</time>
      </trkpt>
      <trkpt lat="42.8300140" lon="-7.7039870">
        <ele>586.8</ele>
        <time>2020-10-19T09:05:49Z</time>
      </trkpt>
      <trkpt lat="42.8300230" lon="-7.7040150">
        <ele>586.9</ele>
        <time>2020-10-19T09:05:50Z</time>
      </trkpt>
      <trkpt lat="42.8300300" lon="-7.7040440">
        <ele>586.9</ele>
        <time>2020-10-19T09:05:51Z</time>
      </trkpt>
      <trkpt lat="42.8300400" lon="-7.7040720">
        <ele>587.0</ele>
        <time>2020-10-19T09:05:52Z</time>
      </trkpt>
      <trkpt lat="42.8300520" lon="-7.7040980">
        <ele>587.0</ele>
        <time>2020-10-19T09:05:53Z</time>
      </trkpt>
      <trkpt lat="42.8300620" lon="-7.7041210">
        <ele>587.1</ele>
        <time>2020-10-19T09:05:54Z</time>
      </trkpt>
      <trkpt lat="42.8300750" lon="-7.7041390">
        <ele>587.1</ele>
        <time>2020-10-19T09:05:55Z</time>
      </trkpt>
      <trkpt lat="42.8300840" lon="-7.7041530">
        <ele>587.1</ele>
        <time>2020-10-19T09:05:56Z</time>
      </trkpt>
      <trkpt lat="42.8300940" lon="-7.7041640">
        <ele>587.2</ele>
        <time>2020-10-19T09:05:57Z</time>
      </trkpt>
      <trkpt lat="42.8301030" lon="-7.7041770">
        <ele>587.2</ele>
        <time>2020-10-19T09:05:58Z</time>
      </trkpt>
      <trkpt lat="42.8301160" lon="-7.7041870">
        <ele>587.2</ele>
        <time>2020-10-19T09:05:59Z</time>
      </trkpt>
      <trkpt lat="42.8301300" lon="-7.7041950">
        <ele>587.3</ele>
        <time>2020-10-19T09:06:00Z</time>
      </trkpt>
      <trkpt lat="42.8301420" lon="-7.7041990">
        <ele>587.3</ele>
        <time>2020-10-19T09:06:01Z</time>
      </trkpt>
      <trkpt lat="42.8301540" lon="-7.7042040">
        <ele>587.3</ele>
        <time>2020-10-19T09:06:02Z</time>
      </trkpt>
      <trkpt lat="42.8301620" lon="-7.7042090">
        <ele>587.4</ele>
        <time>2020-10-19T09:06:03Z</time>
      </trkpt>
      <trkpt lat="42.8301670" lon="-7.7042130">
        <ele>587.4</ele>
        <time>2020-10-19T09:06:04Z</time>
      </trkpt>
      <trkpt lat="42.8301690" lon="-7.7042140">
        <ele>587.4</ele>
        <time>2020-10-19T09:06:05Z</time>
      </trkpt>
      <trkpt lat="42.8301720" lon="-7.7042150">
        <ele>587.4</ele>
        <time>2020-10-19T09:06:06Z</time>
      </trkpt>
      <trkpt lat="42.8301740" lon="-7.7042140">
        <ele>587.4</ele>
        <time>2020-10-19T09:06:07Z</time>
      </trkpt>
      <trkpt lat="42.8301750" lon="-7.7042160">
        <ele>587.4</ele>
        <time>2020-10-19T09:06:08Z</time>
      </trkpt>
      <trkpt lat="42.8301760" lon="-7.7042170">
        <ele>587.4</ele>
        <time>2020-10-19T09:06:09Z</time>
      </trkpt>
      <trkpt lat="42.8301770" lon="-7.7042180">
        <ele>587.4</ele>
        <time>2020-10-19T09:06:10Z</time>
      </trkpt>
      <trkpt lat="42.8301790" lon="-7.7042170">
        <ele>587.4</ele>
        <time>2020-10-19T09:06:11Z</time>
      </trkpt>
      <trkpt lat="42.8301790" lon="-7.7042160">
        <ele>587.4</ele>
        <time>2020-10-19T09:06:12Z</time>
      </trkpt>
      <trkpt lat="42.8301790" lon="-7.7042160">
        <ele>587.4</ele>
        <time>2020-10-19T09:06:13Z</time>
      </trkpt>
      <trkpt lat="42.8301780" lon="-7.7042150">
        <ele>587.4</ele>
        <time>2020-10-19T09:06:14Z</time>
      </trkpt>
      <trkpt lat="42.8301780" lon="-7.7042140">
        <ele>587.4</ele>
        <time>2020-10-19T09:06:15Z</time>
      </trkpt>
      <trkpt lat="42.8301800" lon="-7.7042120">
        <ele>587.4</ele>
        <time>2020-10-19T09:06:16Z</time>
      </trkpt>
      <trkpt lat="42.8301820" lon="-7.7042110">
        <ele>587.4</ele>
        <time>2020-10-19T09:06:17Z</time>
      </trkpt>
      <trkpt lat="42.8301830" lon="-7.7042120">
        <ele>587.4</ele>
        <time>2020-10-19T09:06:18Z</time>
      </trkpt>
      <trkpt lat="42.8301850" lon="-7.7042120">
        <ele>587.4</ele>
        <time>2020-10-19T09:06:19Z</time>
      </trkpt>
      <trkpt lat="42.8301910" lon="-7.7042070">
        <ele>587.5</ele>
        <time>2020-10-19T09:06:20Z</time>
      </trkpt>
      <trkpt lat="42.8301990" lon="-7.7042000">
        <ele>587.5</ele>
        <time>2020-10-19T09:06:21Z</time>
      </trkpt>
      <trkpt lat="42.8302120" lon="-7.7041900">
        <ele>587.5</ele>
        <time>2020-10-19T09:06:22Z</time>
      </trkpt>
      <trkpt lat="42.8302230" lon="-7.7041830">
        <ele>587.5</ele>
        <time>2020-10-19T09:06:23Z</time>
      </trkpt>
      <trkpt lat="42.8302350" lon="-7.7041790">
        <ele>587.6</ele>
        <time>2020-10-19T09:06:24Z</time>
      </trkpt>
      <trkpt lat="42.8302440" lon="-7.7041780">
        <ele>587.6</ele>
        <time>2020-10-19T09:06:25Z</time>
      </trkpt>
      <trkpt lat="42.8302490" lon="-7.7041780">
        <ele>587.6</ele>
        <time>2020-10-19T09:06:26Z</time>
      </trkpt>
      <trkpt lat="42.8302540" lon="-7.7041790">
        <ele>587.6</ele>
        <time>2020-10-19T09:06:27Z</time>
      </trkpt>
      <trkpt lat="42.8302590" lon="-7.7041790">
        <ele>587.6</ele>
        <time>2020-10-19T09:06:28Z</time>
      </trkpt>
      <trkpt lat="42.8302650" lon="-7.7041790">
        <ele>587.7</ele>
        <time>2020-10-19T09:06:29Z</time>
      </trkpt>
      <trkpt lat="42.8302670" lon="-7.7041790">
        <ele>587.7</ele>
        <time>2020-10-19T09:06:30Z</time>
      </trkpt>
      <trkpt lat="42.8302670" lon="-7.7041800">
        <ele>587.7</ele>
        <time>2020-10-19T09:06:31Z</time>
      </trkpt>
      <trkpt lat="42.8302640" lon="-7.7041800">
        <ele>587.7</ele>
        <time>2020-10-19T09:06:32Z</time>
      </trkpt>
      <trkpt lat="42.8302630" lon="-7.7041800">
        <ele>587.7</ele>
        <time>2020-10-19T09:06:33Z</time>
      </trkpt>
      <trkpt lat="42.8302620" lon="-7.7041800">
        <ele>587.7</ele>
        <time>2020-10-19T09:06:34Z</time>
      </trkpt>
      <trkpt lat="42.8302610" lon="-7.7041810">
        <ele>587.7</ele>
        <time>2020-10-19T09:06:35Z</time>
      </trkpt>
      <trkpt lat="42.8302630" lon="-7.7041800">
        <ele>587.7</ele>
        <time>2020-10-19T09:06:36Z</time>
      </trkpt>
      <trkpt lat="42.8302680" lon="-7.7041770">
        <ele>587.7</ele>
        <time>2020-10-19T09:06:37Z</time>
      </trkpt>
      <trkpt lat="42.8302760" lon="-7.7041750">
        <ele>587.7</ele>
        <time>2020-10-19T09:06:38Z</time>
      </trkpt>
      <trkpt lat="42.8302860" lon="-7.7041760">
        <ele>587.8</ele>
        <time>2020-10-19T09:06:39Z</time>
      </trkpt>
      <trkpt lat="42.8302970" lon="-7.7041780">
        <ele>587.8</ele>
        <time>2020-10-19T09:06:40Z</time>
      </trkpt>
      <trkpt lat="42.8303070" lon="-7.7041800">
        <ele>587.8</ele>
        <time>2020-10-19T09:06:41Z</time>
      </trkpt>
      <trkpt lat="42.8303170" lon="-7.7041830">
        <ele>587.9</ele>
        <time>2020-10-19T09:06:42Z</time>
      </trkpt>
      <trkpt lat="42.8303260" lon="-7.7041850">
        <ele>587.9</ele>
        <time>2020-10-19T09:06:43Z</time>
      </trkpt>
      <trkpt lat="42.8303360" lon="-7.7041880">
        <ele>587.9</ele>
        <time>2020-10-19T09:06:44Z</time>
      </trkpt>
      <trkpt lat="42.8303440" lon="-7.7041890">
        <ele>587.9</ele>
        <time>2020-10-19T09:06:45Z</time>
      </trkpt>
      <trkpt lat="42.8303500" lon="-7.7041910">
        <ele>588.0</ele>
        <time>2020-10-19T09:06:46Z</time>
      </trkpt>
      <trkpt lat="42.8303570" lon="-7.7041900">
        <ele>588.0</ele>
        <time>2020-10-19T09:06:47Z</time>
      </trkpt>
      <trkpt lat="42.8303660" lon="-7.7041890">
        <ele>588.0</ele>
        <time>2020-10-19T09:06:48Z</time>
      </trkpt>
      <trkpt lat="42.8303780" lon="-7.7041870">
        <ele>588.0</ele>
        <time>2020-10-19T09:06:49Z</time>
      </trkpt>
      <trkpt lat="42.8303910" lon="-7.7041850">
        <ele>588.1</ele>
        <time>2020-10-19T09:06:50Z</time>
      </trkpt>
      <trkpt lat="42.8304030" lon="-7.7041810">
        <ele>588.1</ele>
        <time>2020-10-19T09:06:51Z</time>
      </trkpt>
      <trkpt lat="42.8304160" lon="-7.7041760">
        <ele>588.2</ele>
        <time>2020-10-19T09:06:52Z</time>
      </trkpt>
      <trkpt lat="42.8304270" lon="-7.7041700">
        <ele>588.2</ele>
        <time>2020-10-19T09:06:53Z</time>
      </trkpt>
      <trkpt lat="42.8304370" lon="-7.7041650">
        <ele>588.2</ele>
        <time>2020-10-19T09:06:54Z</time>
      </trkpt>
      <trkpt lat="42.8304470" lon="-7.7041620">
        <ele>588.3</ele>
        <time>2020-10-19T09:06:55Z</time>
      </trkpt>
      <trkpt lat="42.8304580" lon="-7.7041600">
        <ele>588.3</ele>
        <time>2020-10-19T09:06:56Z</time>
      </trkpt>
      <trkpt lat="42.8304700" lon="-7.7041600">
        <ele>588.3</ele>
        <time>2020-10-19T09:06:57Z</time>
      </trkpt>
      <trkpt lat="42.8304820" lon="-7.7041680">
        <ele>588.4</ele>
        <time>2020-10-19T09:06:58Z</time>
      </trkpt>
      <trkpt lat="42.8304950" lon="-7.7041790">
        <ele>588.4</ele>
        <time>2020-10-19T09:06:59Z</time>
      </trkpt>
      <trkpt lat="42.8305070" lon="-7.7041920">
        <ele>588.4</ele>
        <time>2020-10-19T09:07:00Z</time>
      </trkpt>
      <trkpt lat="42.8305170" lon="-7.7042030">
        <ele>588.5</ele>
        <time>2020-10-19T09:07:01Z</time>
      </trkpt>
      <trkpt lat="42.8305250" lon="-7.7042130">
        <ele>588.5</ele>
        <time>2020-10-19T09:07:02Z</time>
      </trkpt>
      <trkpt lat="42.8305290" lon="-7.7042240">
        <ele>588.5</ele>
        <time>2020-10-19T09:07:03Z</time>
      </trkpt>
      <trkpt lat="42.8305310" lon="-7.7042330">
        <ele>588.6</ele>
        <time>2020-10-19T09:07:04Z</time>
      </trkpt>
      <trkpt lat="42.8305320" lon="-7.7042400">
        <ele>588.6</ele>
        <time>2020-10-19T09:07:05Z</time>
      </trkpt>
      <trkpt lat="42.8305350" lon="-7.7042470">
        <ele>588.6</ele>
        <time>2020-10-19T09:07:06Z</time>
      </trkpt>
      <trkpt lat="42.8305380" lon="-7.7042550">
        <ele>588.6</ele>
        <time>2020-10-19T09:07:07Z</time>
      </trkpt>
      <trkpt lat="42.8305410" lon="-7.7042620">
        <ele>588.6</ele>
        <time>2020-10-19T09:07:08Z</time>
      </trkpt>
      <trkpt lat="42.8305440" lon="-7.7042680">
        <ele>588.6</ele>
        <time>2020-10-19T09:07:09Z</time>
      </trkpt>
      <trkpt lat="42.8305470" lon="-7.7042720">
        <ele>588.7</ele>
        <time>2020-10-19T09:07:10Z</time>
      </trkpt>
      <trkpt lat="42.8305500" lon="-7.7042760">
        <ele>588.7</ele>
        <time>2020-10-19T09:07:11Z</time>
      </trkpt>
      <trkpt lat="42.8305540" lon="-7.7042800">
        <ele>588.7</ele>
        <time>2020-10-19T09:07:12Z</time>
      </trkpt>
      <trkpt lat="42.8305570" lon="-7.7042840">
        <ele>588.7</ele>
        <time>2020-10-19T09:07:13Z</time>
      </trkpt>
      <trkpt lat="42.8305610" lon="-7.7042860">
        <ele>588.7</ele>
        <time>2020-10-19T09:07:14Z</time>
      </trkpt>
      <trkpt lat="42.8305630" lon="-7.7042860">
        <ele>588.7</ele>
        <time>2020-10-19T09:07:15Z</time>
      </trkpt>
      <trkpt lat="42.8305640" lon="-7.7042850">
        <ele>588.7</ele>
        <time>2020-10-19T09:07:16Z</time>
      </trkpt>
      <trkpt lat="42.8305620" lon="-7.7042820">
        <ele>588.7</ele>
        <time>2020-10-19T09:07:17Z</time>
      </trkpt>
      <trkpt lat="42.8305610" lon="-7.7042790">
        <ele>588.7</ele>
        <time>2020-10-19T09:07:18Z</time>
      </trkpt>
      <trkpt lat="42.8305610" lon="-7.7042760">
        <ele>588.7</ele>
        <time>2020-10-19T09:07:19Z</time>
      </trkpt>
      <trkpt lat="42.8305640" lon="-7.7042700">
        <ele>588.7</ele>
        <time>2020-10-19T09:07:20Z</time>
      </trkpt>
      <trkpt lat="42.8305690" lon="-7.7042620">
        <ele>588.8</ele>
        <time>2020-10-19T09:07:21Z</time>
      </trkpt>
      <trkpt lat="42.8305760" lon="-7.7042570">
        <ele>588.8</ele>
        <time>2020-10-19T09:07:22Z</time>
      </trkpt>
      <trkpt lat="42.8305810" lon="-7.7042560">
        <ele>588.8</ele>
        <time>2020-10-19T09:07:23Z</time>
      </trkpt>
      <trkpt lat="42.8305850" lon="-7.7042570">
        <ele>588.8</ele>
        <time>2020-10-19T09:07:24Z</time>
      </trkpt>
      <trkpt lat="42.8305880" lon="-7.7042560">
        <ele>588.8</ele>
        <time>2020-10-19T09:07:25Z</time>
      </trkpt>
      <trkpt lat="42.8305920" lon="-7.7042530">
        <ele>588.8</ele>
        <time>2020-10-19T09:07:26Z</time>
      </trkpt>
      <trkpt lat="42.8305980" lon="-7.7042500">
        <ele>588.8</ele>
        <time>2020-10-19T09:07:27Z</time>
      </trkpt>
      <trkpt lat="42.8306020" lon="-7.7042460">
        <ele>588.9</ele>
        <time>2020-10-19T09:07:28Z</time>
      </trkpt>
      <trkpt lat="42.8306080" lon="-7.7042420">
        <ele>588.9</ele>
        <time>2020-10-19T09:07:29Z</time>
      </trkpt>
      <trkpt lat="42.8306110" lon="-7.7042400">
        <ele>588.9</ele>
        <time>2020-10-19T09:07:30Z</time>
      </trkpt>
      <trkpt lat="42.8306120" lon="-7.7042400">
        <ele>588.9</ele>
        <time>2020-10-19T09:07:31Z</time>
      </trkpt>
      <trkpt lat="42.8306090" lon="-7.7042450">
        <ele>588.9</ele>
        <time>2020-10-19T09:07:32Z</time>
      </trkpt>
      <trkpt lat="42.8306070" lon="-7.7042510">
        <ele>588.9</ele>
        <time>2020-10-19T09:07:33Z</time>
      </trkpt>
      <trkpt lat="42.8306060" lon="-7.7042540">
        <ele>588.9</ele>
        <time>2020-10-19T09:07:34Z</time>
      </trkpt>
      <trkpt lat="42.8306050" lon="-7.7042570">
        <ele>588.9</ele>
        <time>2020-10-19T09:07:35Z</time>
      </trkpt>
      <trkpt lat="42.8306030" lon="-7.7042600">
        <ele>588.9</ele>
        <time>2020-10-19T09:07:36Z</time>
      </trkpt>
      <trkpt lat="42.8306010" lon="-7.7042630">
        <ele>588.9</ele>
        <time>2020-10-19T09:07:37Z</time>
      </trkpt>
      <trkpt lat="42.8306030" lon="-7.7042650">
        <ele>588.9</ele>
        <time>2020-10-19T09:07:38Z</time>
      </trkpt>
      <trkpt lat="42.8306050" lon="-7.7042650">
        <ele>588.9</ele>
        <time>2020-10-19T09:07:39Z</time>
      </trkpt>
      <trkpt lat="42.8306050" lon="-7.7042650">
        <ele>588.9</ele>
        <time>2020-10-19T09:07:40Z</time>
      </trkpt>
      <trkpt lat="42.8306050" lon="-7.7042650">
        <ele>588.9</ele>
        <time>2020-10-19T09:07:41Z</time>
      </trkpt>
      <trkpt lat="42.8306050" lon="-7.7042650">
        <ele>588.9</ele>
        <time>2020-10-19T09:07:42Z</time>
      </trkpt>
      <trkpt lat="42.8306050" lon="-7.7042650">
        <ele>588.9</ele>
        <time>2020-10-19T09:07:43Z</time>
      </trkpt>
      <trkpt lat="42.8306070" lon="-7.7042660">
        <ele>588.9</ele>
        <time>2020-10-19T09:07:44Z</time>
      </trkpt>
      <trkpt lat="42.8306070" lon="-7.7042680">
        <ele>589.0</ele>
        <time>2020-10-19T09:07:45Z</time>
      </trkpt>
      <trkpt lat="42.8306070" lon="-7.7042680">
        <ele>589.0</ele>
        <time>2020-10-19T09:07:46Z</time>
      </trkpt>
      <trkpt lat="42.8306070" lon="-7.7042680">
        <ele>589.0</ele>
        <time>2020-10-19T09:07:47Z</time>
      </trkpt>
      <trkpt lat="42.8306130" lon="-7.7042740">
        <ele>589.0</ele>
        <time>2020-10-19T09:07:48Z</time>
      </trkpt>
      <trkpt lat="42.8306190" lon="-7.7042790">
        <ele>589.0</ele>
        <time>2020-10-19T09:07:49Z</time>
      </trkpt>
      <trkpt lat="42.8306260" lon="-7.7042810">
        <ele>589.0</ele>
        <time>2020-10-19T09:07:50Z</time>
      </trkpt>
      <trkpt lat="42.8306290" lon="-7.7042770">
        <ele>589.0</ele>
        <time>2020-10-19T09:07:51Z</time>
      </trkpt>
      <trkpt lat="42.8306330" lon="-7.7042740">
        <ele>589.0</ele>
        <time>2020-10-19T09:07:52Z</time>
      </trkpt>
      <trkpt lat="42.8306370" lon="-7.7042720">
        <ele>589.0</ele>
        <time>2020-10-19T09:07:53Z</time>
      </trkpt>
      <trkpt lat="42.8306370" lon="-7.7042720">
        <ele>589.0</ele>
        <time>2020-10-19T09:07:54Z</time>
      </trkpt>
      <trkpt lat="42.8306330" lon="-7.7042700">
        <ele>589.0</ele>
        <time>2020-10-19T09:07:55Z</time>
      </trkpt>
      <trkpt lat="42.8306310" lon="-7.7042700">
        <ele>589.0</ele>
        <time>2020-10-19T09:07:56Z</time>
      </trkpt>
      <trkpt lat="42.8306280" lon="-7.7042710">
        <ele>589.1</ele>
        <time>2020-10-19T09:07:57Z</time>
      </trkpt>
      <trkpt lat="42.8306280" lon="-7.7042710">
        <ele>589.1</ele>
        <time>2020-10-19T09:07:58Z</time>
      </trkpt>
      <trkpt lat="42.8306280" lon="-7.7042690">
        <ele>589.1</ele>
        <time>2020-10-19T09:07:59Z</time>
      </trkpt>
      <trkpt lat="42.8306310" lon="-7.7042680">
        <ele>589.1</ele>
        <time>2020-10-19T09:08:00Z</time>
      </trkpt>
      <trkpt lat="42.8306370" lon="-7.7042690">
        <ele>589.1</ele>
        <time>2020-10-19T09:08:01Z</time>
      </trkpt>
      <trkpt lat="42.8306420" lon="-7.7042700">
        <ele>589.1</ele>
        <time>2020-10-19T09:08:02Z</time>
      </trkpt>
      <trkpt lat="42.8306470" lon="-7.7042720">
        <ele>589.1</ele>
        <time>2020-10-19T09:08:03Z</time>
      </trkpt>
      <trkpt lat="42.8306520" lon="-7.7042760">
        <ele>589.1</ele>
        <time>2020-10-19T09:08:04Z</time>
      </trkpt>
      <trkpt lat="42.8306570" lon="-7.7042780">
        <ele>589.1</ele>
        <time>2020-10-19T09:08:05Z</time>
      </trkpt>
      <trkpt lat="42.8306610" lon="-7.7042800">
        <ele>589.1</ele>
        <time>2020-10-19T09:08:06Z</time>
      </trkpt>
      <trkpt lat="42.8306640" lon="-7.7042810">
        <ele>589.1</ele>
        <time>2020-10-19T09:08:07Z</time>
      </trkpt>
      <trkpt lat="42.8306650" lon="-7.7042830">
        <ele>589.2</ele>
        <time>2020-10-19T09:08:08Z</time>
      </trkpt>
      <trkpt lat="42.8306670" lon="-7.7042830">
        <ele>589.2</ele>
        <time>2020-10-19T09:08:09Z</time>
      </trkpt>
      <trkpt lat="42.8306670" lon="-7.7042800">
        <ele>589.2</ele>
        <time>2020-10-19T09:08:10Z</time>
      </trkpt>
      <trkpt lat="42.8306670" lon="-7.7042740">
        <ele>589.2</ele>
        <time>2020-10-19T09:08:11Z</time>
      </trkpt>
      <trkpt lat="42.8306670" lon="-7.7042680">
        <ele>589.2</ele>
        <time>2020-10-19T09:08:12Z</time>
      </trkpt>
      <trkpt lat="42.8306660" lon="-7.7042650">
        <ele>589.2</ele>
        <time>2020-10-19T09:08:13Z</time>
      </trkpt>
      <trkpt lat="42.8306650" lon="-7.7042620">
        <ele>589.2</ele>
        <time>2020-10-19T09:08:14Z</time>
      </trkpt>
      <trkpt lat="42.8306640" lon="-7.7042600">
        <ele>589.2</ele>
        <time>2020-10-19T09:08:15Z</time>
      </trkpt>
      <trkpt lat="42.8306630" lon="-7.7042590">
        <ele>589.2</ele>
        <time>2020-10-19T09:08:16Z</time>
      </trkpt>
      <trkpt lat="42.8306620" lon="-7.7042550">
        <ele>589.2</ele>
        <time>2020-10-19T09:08:17Z</time>
      </trkpt>
      <trkpt lat="42.8306610" lon="-7.7042550">
        <ele>589.2</ele>
        <time>2020-10-19T09:08:18Z</time>
      </trkpt>
      <trkpt lat="42.8306590" lon="-7.7042560">
        <ele>589.2</ele>
        <time>2020-10-19T09:08:19Z</time>
      </trkpt>
      <trkpt lat="42.8306550" lon="-7.7042590">
        <ele>589.2</ele>
        <time>2020-10-19T09:08:20Z</time>
      </trkpt>
      <trkpt lat="42.8306510" lon="-7.7042590">
        <ele>589.2</ele>
        <time>2020-10-19T09:08:21Z</time>
      </trkpt>
      <trkpt lat="42.8306500" lon="-7.7042580">
        <ele>589.2</ele>
        <time>2020-10-19T09:08:22Z</time>
      </trkpt>
      <trkpt lat="42.8306490" lon="-7.7042570">
        <ele>589.2</ele>
        <time>2020-10-19T09:08:23Z</time>
      </trkpt>
      <trkpt lat="42.8306480" lon="-7.7042570">
        <ele>589.2</ele>
        <time>2020-10-19T09:08:24Z</time>
      </trkpt>
      <trkpt lat="42.8306450" lon="-7.7042560">
        <ele>589.2</ele>
        <time>2020-10-19T09:08:25Z</time>
      </trkpt>
      <trkpt lat="42.8306440" lon="-7.7042550">
        <ele>589.3</ele>
        <time>2020-10-19T09:08:26Z</time>
      </trkpt>
      <trkpt lat="42.8306420" lon="-7.7042540">
        <ele>589.3</ele>
        <time>2020-10-19T09:08:27Z</time>
      </trkpt>
      <trkpt lat="42.8306420" lon="-7.7042550">
        <ele>589.3</ele>
        <time>2020-10-19T09:08:28Z</time>
      </trkpt>
      <trkpt lat="42.8306400" lon="-7.7042560">
        <ele>589.3</ele>
        <time>2020-10-19T09:08:29Z</time>
      </trkpt>
      <trkpt lat="42.8306370" lon="-7.7042600">
        <ele>589.3</ele>
        <time>2020-10-19T09:08:30Z</time>
      </trkpt>
      <trkpt lat="42.8306390" lon="-7.7042590">
        <ele>589.3</ele>
        <time>2020-10-19T09:08:31Z</time>
      </trkpt>
      <trkpt lat="42.8306410" lon="-7.7042560">
        <ele>589.3</ele>
        <time>2020-10-19T09:08:32Z</time>
      </trkpt>
      <trkpt lat="42.8306460" lon="-7.7042510">
        <ele>589.3</ele>
        <time>2020-10-19T09:08:33Z</time>
      </trkpt>
      <trkpt lat="42.8306490" lon="-7.7042480">
        <ele>589.3</ele>
        <time>2020-10-19T09:08:34Z</time>
      </trkpt>
      <trkpt lat="42.8306500" lon="-7.7042460">
        <ele>589.3</ele>
        <time>2020-10-19T09:08:35Z</time>
      </trkpt>
      <trkpt lat="42.8306500" lon="-7.7042460">
        <ele>589.3</ele>
        <time>2020-10-19T09:08:36Z</time>
      </trkpt>
      <trkpt lat="42.8306510" lon="-7.7042490">
        <ele>589.3</ele>
        <time>2020-10-19T09:08:37Z</time>
      </trkpt>
      <trkpt lat="42.8306540" lon="-7.7042530">
        <ele>589.3</ele>
        <time>2020-10-19T09:08:38Z</time>
      </trkpt>
      <trkpt lat="42.8306580" lon="-7.7042560">
        <ele>589.3</ele>
        <time>2020-10-19T09:08:39Z</time>
      </trkpt>
      <trkpt lat="42.8306590" lon="-7.7042570">
        <ele>589.3</ele>
        <time>2020-10-19T09:08:40Z</time>
      </trkpt>
      <trkpt lat="42.8306580" lon="-7.7042590">
        <ele>589.3</ele>
        <time>2020-10-19T09:08:41Z</time>
      </trkpt>
      <trkpt lat="42.8306550" lon="-7.7042580">
        <ele>589.4</ele>
        <time>2020-10-19T09:08:42Z</time>
      </trkpt>
      <trkpt lat="42.8306500" lon="-7.7042580">
        <ele>589.4</ele>
        <time>2020-10-19T09:08:43Z</time>
      </trkpt>
      <trkpt lat="42.8306450" lon="-7.7042600">
        <ele>589.4</ele>
        <time>2020-10-19T09:08:44Z</time>
      </trkpt>
      <trkpt lat="42.8306410" lon="-7.7042590">
        <ele>589.4</ele>
        <time>2020-10-19T09:08:45Z</time>
      </trkpt>
      <trkpt lat="42.8306370" lon="-7.7042570">
        <ele>589.4</ele>
        <time>2020-10-19T09:08:46Z</time>
      </trkpt>
      <trkpt lat="42.8306340" lon="-7.7042540">
        <ele>589.4</ele>
        <time>2020-10-19T09:08:47Z</time>
      </trkpt>
      <trkpt lat="42.8306310" lon="-7.7042530">
        <ele>589.4</ele>
        <time>2020-10-19T09:08:48Z</time>
      </trkpt>
      <trkpt lat="42.8306270" lon="-7.7042550">
        <ele>589.4</ele>
        <time>2020-10-19T09:08:49Z</time>
      </trkpt>
      <trkpt lat="42.8306240" lon="-7.7042560">
        <ele>589.4</ele>
        <time>2020-10-19T09:08:50Z</time>
      </trkpt>
      <trkpt lat="42.8306200" lon="-7.7042570">
        <ele>589.4</ele>
        <time>2020-10-19T09:08:51Z</time>
      </trkpt>
      <trkpt lat="42.8306190" lon="-7.7042570">
        <ele>589.4</ele>
        <time>2020-10-19T09:08:52Z</time>
      </trkpt>
      <trkpt lat="42.8306180" lon="-7.7042590">
        <ele>589.4</ele>
        <time>2020-10-19T09:08:53Z</time>
      </trkpt>
      <trkpt lat="42.8306170" lon="-7.7042620">
        <ele>589.5</ele>
        <time>2020-10-19T09:08:54Z</time>
      </trkpt>
      <trkpt lat="42.8306140" lon="-7.7042630">
        <ele>589.5</ele>
        <time>2020-10-19T09:08:55Z</time>
      </trkpt>
      <trkpt lat="42.8306090" lon="-7.7042640">
        <ele>589.5</ele>
        <time>2020-10-19T09:08:56Z</time>
      </trkpt>
      <trkpt lat="42.8306030" lon="-7.7042650">
        <ele>589.5</ele>
        <time>2020-10-19T09:08:57Z</time>
      </trkpt>
      <trkpt lat="42.8305980" lon="-7.7042650">
        <ele>589.5</ele>
        <time>2020-10-19T09:08:58Z</time>
      </trkpt>
      <trkpt lat="42.8305940" lon="-7.7042660">
        <ele>589.5</ele>
        <time>2020-10-19T09:08:59Z</time>
      </trkpt>
      <trkpt lat="42.8305920" lon="-7.7042680">
        <ele>589.5</ele>
        <time>2020-10-19T09:09:00Z</time>
      </trkpt>
      <trkpt lat="42.8305910" lon="-7.7042720">
        <ele>589.5</ele>
        <time>2020-10-19T09:09:01Z</time>
      </trkpt>
      <trkpt lat="42.8305910" lon="-7.7042720">
        <ele>589.5</ele>
        <time>2020-10-19T09:09:02Z</time>
      </trkpt>
      <trkpt lat="42.8305910" lon="-7.7042720">
        <ele>589.5</ele>
        <time>2020-10-19T09:09:03Z</time>
      </trkpt>
      <trkpt lat="42.8305900" lon="-7.7042760">
        <ele>589.5</ele>
        <time>2020-10-19T09:09:04Z</time>
      </trkpt>
      <trkpt lat="42.8305870" lon="-7.7042800">
        <ele>589.5</ele>
        <time>2020-10-19T09:09:05Z</time>
      </trkpt>
      <trkpt lat="42.8305850" lon="-7.7042840">
        <ele>589.5</ele>
        <time>2020-10-19T09:09:06Z</time>
      </trkpt>
      <trkpt lat="42.8305850" lon="-7.7042880">
        <ele>589.5</ele>
        <time>2020-10-19T09:09:07Z</time>
      </trkpt>
      <trkpt lat="42.8305850" lon="-7.7042920">
        <ele>589.6</ele>
        <time>2020-10-19T09:09:08Z</time>
      </trkpt>
      <trkpt lat="42.8305880" lon="-7.7042950">
        <ele>589.6</ele>
        <time>2020-10-19T09:09:09Z</time>
      </trkpt>
      <trkpt lat="42.8305880" lon="-7.7042950">
        <ele>589.6</ele>
        <time>2020-10-19T09:09:10Z</time>
      </trkpt>
      <trkpt lat="42.8305880" lon="-7.7042950">
        <ele>589.6</ele>
        <time>2020-10-19T09:09:11Z</time>
      </trkpt>
      <trkpt lat="42.8305910" lon="-7.7042980">
        <ele>589.6</ele>
        <time>2020-10-19T09:09:12Z</time>
      </trkpt>
      <trkpt lat="42.8305900" lon="-7.7042980">
        <ele>589.6</ele>
        <time>2020-10-19T09:09:13Z</time>
      </trkpt>
      <trkpt lat="42.8305870" lon="-7.7042980">
        <ele>589.6</ele>
        <time>2020-10-19T09:09:14Z</time>
      </trkpt>
      <trkpt lat="42.8305820" lon="-7.7042970">
        <ele>589.6</ele>
        <time>2020-10-19T09:09:15Z</time>
      </trkpt>
      <trkpt lat="42.8305820" lon="-7.7042960">
        <ele>589.6</ele>
        <time>2020-10-19T09:09:16Z</time>
      </trkpt>
      <trkpt lat="42.8305810" lon="-7.7042940">
        <ele>589.6</ele>
        <time>2020-10-19T09:09:17Z</time>
      </trkpt>
      <trkpt lat="42.8305820" lon="-7.7042900">
        <ele>589.6</ele>
        <time>2020-10-19T09:09:18Z</time>
      </trkpt>
      <trkpt lat="42.8305830" lon="-7.7042870">
        <ele>589.6</ele>
        <time>2020-10-19T09:09:19Z</time>
      </trkpt>
      <trkpt lat="42.8305860" lon="-7.7042840">
        <ele>589.6</ele>
        <time>2020-10-19T09:09:20Z</time>
      </trkpt>
      <trkpt lat="42.8305880" lon="-7.7042820">
        <ele>589.6</ele>
        <time>2020-10-19T09:09:21Z</time>
      </trkpt>
      <trkpt lat="42.8305910" lon="-7.7042790">
        <ele>589.6</ele>
        <time>2020-10-19T09:09:22Z</time>
      </trkpt>
      <trkpt lat="42.8305950" lon="-7.7042780">
        <ele>589.6</ele>
        <time>2020-10-19T09:09:23Z</time>
      </trkpt>
      <trkpt lat="42.8305960" lon="-7.7042770">
        <ele>589.6</ele>
        <time>2020-10-19T09:09:24Z</time>
      </trkpt>
      <trkpt lat="42.8305960" lon="-7.7042760">
        <ele>589.7</ele>
        <time>2020-10-19T09:09:25Z</time>
      </trkpt>
      <trkpt lat="42.8305940" lon="-7.7042730">
        <ele>589.7</ele>
        <time>2020-10-19T09:09:26Z</time>
      </trkpt>
      <trkpt lat="42.8305930" lon="-7.7042710">
        <ele>589.7</ele>
        <time>2020-10-19T09:09:27Z</time>
      </trkpt>
      <trkpt lat="42.8305920" lon="-7.7042700">
        <ele>589.7</ele>
        <time>2020-10-19T09:09:28Z</time>
      </trkpt>
      <trkpt lat="42.8305910" lon="-7.7042690">
        <ele>589.7</ele>
        <time>2020-10-19T09:09:29Z</time>
      </trkpt>
      <trkpt lat="42.8305890" lon="-7.7042690">
        <ele>589.7</ele>
        <time>2020-10-19T09:09:30Z</time>
      </trkpt>
      <trkpt lat="42.8305890" lon="-7.7042680">
        <ele>589.7</ele>
        <time>2020-10-19T09:09:31Z</time>
      </trkpt>
      <trkpt lat="42.8305870" lon="-7.7042670">
        <ele>589.7</ele>
        <time>2020-10-19T09:09:32Z</time>
      </trkpt>
      <trkpt lat="42.8305850" lon="-7.7042670">
        <ele>589.7</ele>
        <time>2020-10-19T09:09:33Z</time>
      </trkpt>
      <trkpt lat="42.8305820" lon="-7.7042660">
        <ele>589.7</ele>
        <time>2020-10-19T09:09:34Z</time>
      </trkpt>
      <trkpt lat="42.8305800" lon="-7.7042680">
        <ele>589.7</ele>
        <time>2020-10-19T09:09:35Z</time>
      </trkpt>
      <trkpt lat="42.8305760" lon="-7.7042690">
        <ele>589.7</ele>
        <time>2020-10-19T09:09:36Z</time>
      </trkpt>
      <trkpt lat="42.8305720" lon="-7.7042700">
        <ele>589.7</ele>
        <time>2020-10-19T09:09:37Z</time>
      </trkpt>
      <trkpt lat="42.8305710" lon="-7.7042670">
        <ele>589.7</ele>
        <time>2020-10-19T09:09:38Z</time>
      </trkpt>
      <trkpt lat="42.8305710" lon="-7.7042650">
        <ele>589.7</ele>
        <time>2020-10-19T09:09:39Z</time>
      </trkpt>
      <trkpt lat="42.8305720" lon="-7.7042640">
        <ele>589.7</ele>
        <time>2020-10-19T09:09:40Z</time>
      </trkpt>
      <trkpt lat="42.8305750" lon="-7.7042650">
        <ele>589.7</ele>
        <time>2020-10-19T09:09:41Z</time>
      </trkpt>
      <trkpt lat="42.8305760" lon="-7.7042650">
        <ele>589.7</ele>
        <time>2020-10-19T09:09:42Z</time>
      </trkpt>
      <trkpt lat="42.8305780" lon="-7.7042660">
        <ele>589.7</ele>
        <time>2020-10-19T09:09:43Z</time>
      </trkpt>
      <trkpt lat="42.8305780" lon="-7.7042680">
        <ele>589.7</ele>
        <time>2020-10-19T09:09:44Z</time>
      </trkpt>
      <trkpt lat="42.8305780" lon="-7.7042700">
        <ele>589.7</ele>
        <time>2020-10-19T09:09:45Z</time>
      </trkpt>
      <trkpt lat="42.8305780" lon="-7.7042710">
        <ele>589.8</ele>
        <time>2020-10-19T09:09:46Z</time>
      </trkpt>
      <trkpt lat="42.8305770" lon="-7.7042710">
        <ele>589.8</ele>
        <time>2020-10-19T09:09:47Z</time>
      </trkpt>
      <trkpt lat="42.8305750" lon="-7.7042710">
        <ele>589.8</ele>
        <time>2020-10-19T09:09:48Z</time>
      </trkpt>
      <trkpt lat="42.8305730" lon="-7.7042710">
        <ele>589.8</ele>
        <time>2020-10-19T09:09:49Z</time>
      </trkpt>
      <trkpt lat="42.8305720" lon="-7.7042720">
        <ele>589.8</ele>
        <time>2020-10-19T09:09:50Z</time>
      </trkpt>
      <trkpt lat="42.8305740" lon="-7.7042680">
        <ele>589.8</ele>
        <time>2020-10-19T09:09:51Z</time>
      </trkpt>
      <trkpt lat="42.8305750" lon="-7.7042640">
        <ele>589.8</ele>
        <time>2020-10-19T09:09:52Z</time>
      </trkpt>
      <trkpt lat="42.8305760" lon="-7.7042600">
        <ele>589.8</ele>
        <time>2020-10-19T09:09:53Z</time>
      </trkpt>
      <trkpt lat="42.8305760" lon="-7.7042570">
        <ele>589.8</ele>
        <time>2020-10-19T09:09:54Z</time>
      </trkpt>
      <trkpt lat="42.8305780" lon="-7.7042530">
        <ele>589.8</ele>
        <time>2020-10-19T09:09:55Z</time>
      </trkpt>
      <trkpt lat="42.8305780" lon="-7.7042500">
        <ele>589.8</ele>
        <time>2020-10-19T09:09:56Z</time>
      </trkpt>
      <trkpt lat="42.8305810" lon="-7.7042470">
        <ele>589.8</ele>
        <time>2020-10-19T09:09:57Z</time>
      </trkpt>
      <trkpt lat="42.8305830" lon="-7.7042440">
        <ele>589.8</ele>
        <time>2020-10-19T09:09:58Z</time>
      </trkpt>
      <trkpt lat="42.8305860" lon="-7.7042390">
        <ele>589.8</ele>
        <time>2020-10-19T09:09:59Z</time>
      </trkpt>
      <trkpt lat="42.8305880" lon="-7.7042340">
        <ele>589.8</ele>
        <time>2020-10-19T09:10:00Z</time>
      </trkpt>
      <trkpt lat="42.8305880" lon="-7.7042320">
        <ele>589.8</ele>
        <time>2020-10-19T09:10:01Z</time>
      </trkpt>
      <trkpt lat="42.8305910" lon="-7.7042310">
        <ele>589.9</ele>
        <time>2020-10-19T09:10:02Z</time>
      </trkpt>
      <trkpt lat="42.8305910" lon="-7.7042310">
        <ele>589.9</ele>
        <time>2020-10-19T09:10:03Z</time>
      </trkpt>
      <trkpt lat="42.8305910" lon="-7.7042300">
        <ele>589.9</ele>
        <time>2020-10-19T09:10:04Z</time>
      </trkpt>
      <trkpt lat="42.8305890" lon="-7.7042280">
        <ele>589.9</ele>
        <time>2020-10-19T09:10:05Z</time>
      </trkpt>
      <trkpt lat="42.8305890" lon="-7.7042260">
        <ele>589.9</ele>
        <time>2020-10-19T09:10:06Z</time>
      </trkpt>
      <trkpt lat="42.8305910" lon="-7.7042250">
        <ele>589.9</ele>
        <time>2020-10-19T09:10:07Z</time>
      </trkpt>
      <trkpt lat="42.8305930" lon="-7.7042270">
        <ele>589.9</ele>
        <time>2020-10-19T09:10:08Z</time>
      </trkpt>
      <trkpt lat="42.8305920" lon="-7.7042290">
        <ele>589.9</ele>
        <time>2020-10-19T09:10:09Z</time>
      </trkpt>
      <trkpt lat="42.8305890" lon="-7.7042300">
        <ele>589.9</ele>
        <time>2020-10-19T09:10:10Z</time>
      </trkpt>
      <trkpt lat="42.8305890" lon="-7.7042260">
        <ele>589.9</ele>
        <time>2020-10-19T09:10:11Z</time>
      </trkpt>
      <trkpt lat="42.8305900" lon="-7.7042210">
        <ele>589.9</ele>
        <time>2020-10-19T09:10:12Z</time>
      </trkpt>
      <trkpt lat="42.8305940" lon="-7.7042200">
        <ele>589.9</ele>
        <time>2020-10-19T09:10:13Z</time>
      </trkpt>
      <trkpt lat="42.8305940" lon="-7.7042230">
        <ele>589.9</ele>
        <time>2020-10-19T09:10:14Z</time>
      </trkpt>
      <trkpt lat="42.8305930" lon="-7.7042270">
        <ele>589.9</ele>
        <time>2020-10-19T09:10:15Z</time>
      </trkpt>
      <trkpt lat="42.8305890" lon="-7.7042270">
        <ele>589.9</ele>
        <time>2020-10-19T09:10:16Z</time>
      </trkpt>
      <trkpt lat="42.8305850" lon="-7.7042250">
        <ele>590.0</ele>
        <time>2020-10-19T09:10:17Z</time>
      </trkpt>
      <trkpt lat="42.8305820" lon="-7.7042250">
        <ele>590.0</ele>
        <time>2020-10-19T09:10:18Z</time>
      </trkpt>
      <trkpt lat="42.8305790" lon="-7.7042240">
        <ele>590.0</ele>
        <time>2020-10-19T09:10:19Z</time>
      </trkpt>
      <trkpt lat="42.8305790" lon="-7.7042240">
        <ele>590.0</ele>
        <time>2020-10-19T09:10:20Z</time>
      </trkpt>
      <trkpt lat="42.8305790" lon="-7.7042240">
        <ele>590.0</ele>
        <time>2020-10-19T09:10:21Z</time>
      </trkpt>
      <trkpt lat="42.8305780" lon="-7.7042250">
        <ele>590.0</ele>
        <time>2020-10-19T09:10:22Z</time>
      </trkpt>
      <trkpt lat="42.8305750" lon="-7.7042270">
        <ele>590.0</ele>
        <time>2020-10-19T09:10:23Z</time>
      </trkpt>
      <trkpt lat="42.8305710" lon="-7.7042290">
        <ele>590.0</ele>
        <time>2020-10-19T09:10:24Z</time>
      </trkpt>
      <trkpt lat="42.8305660" lon="-7.7042320">
        <ele>590.0</ele>
        <time>2020-10-19T09:10:25Z</time>
      </trkpt>
      <trkpt lat="42.8305610" lon="-7.7042310">
        <ele>590.0</ele>
        <time>2020-10-19T09:10:26Z</time>
      </trkpt>
      <trkpt lat="42.8305580" lon="-7.7042270">
        <ele>590.0</ele>
        <time>2020-10-19T09:10:27Z</time>
      </trkpt>
      <trkpt lat="42.8305540" lon="-7.7042230">
        <ele>590.0</ele>
        <time>2020-10-19T09:10:28Z</time>
      </trkpt>
      <trkpt lat="42.8305510" lon="-7.7042200">
        <ele>590.0</ele>
        <time>2020-10-19T09:10:29Z</time>
      </trkpt>
      <trkpt lat="42.8305510" lon="-7.7042200">
        <ele>590.0</ele>
        <time>2020-10-19T09:10:30Z</time>
      </trkpt>
      <trkpt lat="42.8305510" lon="-7.7042200">
        <ele>590.0</ele>
        <time>2020-10-19T09:10:31Z</time>
      </trkpt>
      <trkpt lat="42.8305490" lon="-7.7042200">
        <ele>590.1</ele>
        <time>2020-10-19T09:10:32Z</time>
      </trkpt>
      <trkpt lat="42.8305490" lon="-7.7042220">
        <ele>590.1</ele>
        <time>2020-10-19T09:10:33Z</time>
      </trkpt>
      <trkpt lat="42.8305490" lon="-7.7042250">
        <ele>590.1</ele>
        <time>2020-10-19T09:10:34Z</time>
      </trkpt>
      <trkpt lat="42.8305500" lon="-7.7042280">
        <ele>590.1</ele>
        <time>2020-10-19T09:10:35Z</time>
      </trkpt>
      <trkpt lat="42.8305510" lon="-7.7042320">
        <ele>590.1</ele>
        <time>2020-10-19T09:10:36Z</time>
      </trkpt>
      <trkpt lat="42.8305490" lon="-7.7042390">
        <ele>590.1</ele>
        <time>2020-10-19T09:10:37Z</time>
      </trkpt>
      <trkpt lat="42.8305460" lon="-7.7042440">
        <ele>590.1</ele>
        <time>2020-10-19T09:10:38Z</time>
      </trkpt>
      <trkpt lat="42.8305420" lon="-7.7042440">
        <ele>590.1</ele>
        <time>2020-10-19T09:10:39Z</time>
      </trkpt>
      <trkpt lat="42.8305400" lon="-7.7042400">
        <ele>590.1</ele>
        <time>2020-10-19T09:10:40Z</time>
      </trkpt>
      <trkpt lat="42.8305320" lon="-7.7042390">
        <ele>590.1</ele>
        <time>2020-10-19T09:10:41Z</time>
      </trkpt>
      <trkpt lat="42.8305280" lon="-7.7042410">
        <ele>590.1</ele>
        <time>2020-10-19T09:10:42Z</time>
      </trkpt>
      <trkpt lat="42.8305230" lon="-7.7042460">
        <ele>590.2</ele>
        <time>2020-10-19T09:10:43Z</time>
      </trkpt>
      <trkpt lat="42.8305240" lon="-7.7042480">
        <ele>590.2</ele>
        <time>2020-10-19T09:10:44Z</time>
      </trkpt>
      <trkpt lat="42.8305240" lon="-7.7042450">
        <ele>590.2</ele>
        <time>2020-10-19T09:10:45Z</time>
      </trkpt>
      <trkpt lat="42.8305280" lon="-7.7042400">
        <ele>590.2</ele>
        <time>2020-10-19T09:10:46Z</time>
      </trkpt>
      <trkpt lat="42.8305280" lon="-7.7042400">
        <ele>590.2</ele>
        <time>2020-10-19T09:10:47Z</time>
      </trkpt>
      <trkpt lat="42.8305280" lon="-7.7042400">
        <ele>590.2</ele>
        <time>2020-10-19T09:10:48Z</time>
      </trkpt>
      <trkpt lat="42.8305280" lon="-7.7042400">
        <ele>590.2</ele>
        <time>2020-10-19T09:10:49Z</time>
      </trkpt>
      <trkpt lat="42.8305280" lon="-7.7042400">
        <ele>590.2</ele>
        <time>2020-10-19T09:10:50Z</time>
      </trkpt>
      <trkpt lat="42.8305280" lon="-7.7042400">
        <ele>590.2</ele>
        <time>2020-10-19T09:10:51Z</time>
      </trkpt>
      <trkpt lat="42.8305280" lon="-7.7042400">
        <ele>590.2</ele>
        <time>2020-10-19T09:10:52Z</time>
      </trkpt>
      <trkpt lat="42.8305280" lon="-7.7042400">
        <ele>590.2</ele>
        <time>2020-10-19T09:10:53Z</time>
      </trkpt>
      <trkpt lat="42.8305300" lon="-7.7042360">
        <ele>590.2</ele>
        <time>2020-10-19T09:10:54Z</time>
      </trkpt>
      <trkpt lat="42.8305330" lon="-7.7042350">
        <ele>590.2</ele>
        <time>2020-10-19T09:10:55Z</time>
      </trkpt>
      <trkpt lat="42.8305360" lon="-7.7042340">
        <ele>590.2</ele>
        <time>2020-10-19T09:10:56Z</time>
      </trkpt>
      <trkpt lat="42.8305450" lon="-7.7042310">
        <ele>590.2</ele>
        <time>2020-10-19T09:10:57Z</time>
      </trkpt>
      <trkpt lat="42.8305590" lon="-7.7042320">
        <ele>590.3</ele>
        <time>2020-10-19T09:10:58Z</time>
      </trkpt>
      <trkpt lat="42.8305710" lon="-7.7042320">
        <ele>590.3</ele>
        <time>2020-10-19T09:10:59Z</time>
      </trkpt>
      <trkpt lat="42.8305740" lon="-7.7042330">
        <ele>590.3</ele>
        <time>2020-10-19T09:11:00Z</time>
      </trkpt>
      <trkpt lat="42.8305730" lon="-7.7042310">
        <ele>590.3</ele>
        <time>2020-10-19T09:11:01Z</time>
      </trkpt>
      <trkpt lat="42.8305720" lon="-7.7042320">
        <ele>590.3</ele>
        <time>2020-10-19T09:11:02Z</time>
      </trkpt>
      <trkpt lat="42.8305730" lon="-7.7042350">
        <ele>590.3</ele>
        <time>2020-10-19T09:11:03Z</time>
      </trkpt>
      <trkpt lat="42.8305730" lon="-7.7042350">
        <ele>590.3</ele>
        <time>2020-10-19T09:11:04Z</time>
      </trkpt>
      <trkpt lat="42.8305730" lon="-7.7042350">
        <ele>590.3</ele>
        <time>2020-10-19T09:11:05Z</time>
      </trkpt>
      <trkpt lat="42.8305680" lon="-7.7042360">
        <ele>590.3</ele>
        <time>2020-10-19T09:11:06Z</time>
      </trkpt>
      <trkpt lat="42.8305590" lon="-7.7042340">
        <ele>590.4</ele>
        <time>2020-10-19T09:11:07Z</time>
      </trkpt>
      <trkpt lat="42.8305440" lon="-7.7042290">
        <ele>590.4</ele>
        <time>2020-10-19T09:11:08Z</time>
      </trkpt>
      <trkpt lat="42.8305350" lon="-7.7042240">
        <ele>590.4</ele>
        <time>2020-10-19T09:11:09Z</time>
      </trkpt>
      <trkpt lat="42.8305230" lon="-7.7042200">
        <ele>590.5</ele>
        <time>2020-10-19T09:11:10Z</time>
      </trkpt>
      <trkpt lat="42.8305150" lon="-7.7042170">
        <ele>590.5</ele>
        <time>2020-10-19T09:11:11Z</time>
      </trkpt>
      <trkpt lat="42.8305090" lon="-7.7042170">
        <ele>590.5</ele>
        <time>2020-10-19T09:11:12Z</time>
      </trkpt>
      <trkpt lat="42.8305060" lon="-7.7042200">
        <ele>590.5</ele>
        <time>2020-10-19T09:11:13Z</time>
      </trkpt>
      <trkpt lat="42.8305070" lon="-7.7042260">
        <ele>590.5</ele>
        <time>2020-10-19T09:11:14Z</time>
      </trkpt>
      <trkpt lat="42.8305090" lon="-7.7042290">
        <ele>590.5</ele>
        <time>2020-10-19T09:11:15Z</time>
      </trkpt>
      <trkpt lat="42.8305140" lon="-7.7042290">
        <ele>590.5</ele>
        <time>2020-10-19T09:11:16Z</time>
      </trkpt>
      <trkpt lat="42.8305110" lon="-7.7042290">
        <ele>590.5</ele>
        <time>2020-10-19T09:11:17Z</time>
      </trkpt>
      <trkpt lat="42.8305120" lon="-7.7042340">
        <ele>590.5</ele>
        <time>2020-10-19T09:11:18Z</time>
      </trkpt>
      <trkpt lat="42.8305120" lon="-7.7042440">
        <ele>590.6</ele>
        <time>2020-10-19T09:11:19Z</time>
      </trkpt>
      <trkpt lat="42.8305180" lon="-7.7042530">
        <ele>590.6</ele>
        <time>2020-10-19T09:11:20Z</time>
      </trkpt>
      <trkpt lat="42.8305210" lon="-7.7042590">
        <ele>590.6</ele>
        <time>2020-10-19T09:11:21Z</time>
      </trkpt>
      <trkpt lat="42.8305260" lon="-7.7042580">
        <ele>590.6</ele>
        <time>2020-10-19T09:11:22Z</time>
      </trkpt>
      <trkpt lat="42.8305370" lon="-7.7042510">
        <ele>590.6</ele>
        <time>2020-10-19T09:11:23Z</time>
      </trkpt>
      <trkpt lat="42.8305470" lon="-7.7042410">
        <ele>590.7</ele>
        <time>2020-10-19T09:11:24Z</time>
      </trkpt>
      <trkpt lat="42.8305500" lon="-7.7042240">
        <ele>590.7</ele>
        <time>2020-10-19T09:11:25Z</time>
      </trkpt>
      <trkpt lat="42.8305380" lon="-7.7042050">
        <ele>590.7</ele>
        <time>2020-10-19T09:11:26Z</time>
      </trkpt>
      <trkpt lat="42.8305210" lon="-7.7041870">
        <ele>590.8</ele>
        <time>2020-10-19T09:11:27Z</time>
      </trkpt>
      <trkpt lat="42.8305040" lon="-7.7041780">
        <ele>590.8</ele>
        <time>2020-10-19T09:11:28Z</time>
      </trkpt>
      <trkpt lat="42.8304900" lon="-7.7041740">
        <ele>590.8</ele>
        <time>2020-10-19T09:11:29Z</time>
      </trkpt>
      <trkpt lat="42.8304760" lon="-7.7041750">
        <ele>590.9</ele>
        <time>2020-10-19T09:11:30Z</time>
      </trkpt>
      <trkpt lat="42.8304640" lon="-7.7041770">
        <ele>590.9</ele>
        <time>2020-10-19T09:11:31Z</time>
      </trkpt>
      <trkpt lat="42.8304530" lon="-7.7041830">
        <ele>590.9</ele>
        <time>2020-10-19T09:11:32Z</time>
      </trkpt>
      <trkpt lat="42.8304410" lon="-7.7041900">
        <ele>590.9</ele>
        <time>2020-10-19T09:11:33Z</time>
      </trkpt>
      <trkpt lat="42.8304280" lon="-7.7041980">
        <ele>591.0</ele>
        <time>2020-10-19T09:11:34Z</time>
      </trkpt>
      <trkpt lat="42.8304150" lon="-7.7042040">
        <ele>591.0</ele>
        <time>2020-10-19T09:11:35Z</time>
      </trkpt>
      <trkpt lat="42.8304010" lon="-7.7042080">
        <ele>591.0</ele>
        <time>2020-10-19T09:11:36Z</time>
      </trkpt>
      <trkpt lat="42.8303860" lon="-7.7042090">
        <ele>591.1</ele>
        <time>2020-10-19T09:11:37Z</time>
      </trkpt>
      <trkpt lat="42.8303700" lon="-7.7042080">
        <ele>591.1</ele>
        <time>2020-10-19T09:11:38Z</time>
      </trkpt>
      <trkpt lat="42.8303530" lon="-7.7042060">
        <ele>591.1</ele>
        <time>2020-10-19T09:11:39Z</time>
      </trkpt>
      <trkpt lat="42.8303360" lon="-7.7042020">
        <ele>591.2</ele>
        <time>2020-10-19T09:11:40Z</time>
      </trkpt>
      <trkpt lat="42.8303170" lon="-7.7041990">
        <ele>591.2</ele>
        <time>2020-10-19T09:11:41Z</time>
      </trkpt>
      <trkpt lat="42.8303000" lon="-7.7041970">
        <ele>591.2</ele>
        <time>2020-10-19T09:11:42Z</time>
      </trkpt>
      <trkpt lat="42.8302830" lon="-7.7041960">
        <ele>591.3</ele>
        <time>2020-10-19T09:11:43Z</time>
      </trkpt>
      <trkpt lat="42.8302690" lon="-7.7041970">
        <ele>591.3</ele>
        <time>2020-10-19T09:11:44Z</time>
      </trkpt>
      <trkpt lat="42.8302580" lon="-7.7041980">
        <ele>591.3</ele>
        <time>2020-10-19T09:11:45Z</time>
      </trkpt>
      <trkpt lat="42.8302470" lon="-7.7042030">
        <ele>591.3</ele>
        <time>2020-10-19T09:11:46Z</time>
      </trkpt>
      <trkpt lat="42.8302340" lon="-7.7042090">
        <ele>591.3</ele>
        <time>2020-10-19T09:11:47Z</time>
      </trkpt>
      <trkpt lat="42.8302200" lon="-7.7042170">
        <ele>591.4</ele>
        <time>2020-10-19T09:11:48Z</time>
      </trkpt>
      <trkpt lat="42.8302080" lon="-7.7042260">
        <ele>591.4</ele>
        <time>2020-10-19T09:11:49Z</time>
      </trkpt>
      <trkpt lat="42.8301990" lon="-7.7042390">
        <ele>591.4</ele>
        <time>2020-10-19T09:11:50Z</time>
      </trkpt>
      <trkpt lat="42.8301930" lon="-7.7042570">
        <ele>591.4</ele>
        <time>2020-10-19T09:11:51Z</time>
      </trkpt>
      <trkpt lat="42.8301900" lon="-7.7042770">
        <ele>591.5</ele>
        <time>2020-10-19T09:11:52Z</time>
      </trkpt>
      <trkpt lat="42.8301880" lon="-7.7042990">
        <ele>591.5</ele>
        <time>2020-10-19T09:11:53Z</time>
      </trkpt>
      <trkpt lat="42.8301870" lon="-7.7043200">
        <ele>591.5</ele>
        <time>2020-10-19T09:11:54Z</time>
      </trkpt>
      <trkpt lat="42.8301880" lon="-7.7043400">
        <ele>591.5</ele>
        <time>2020-10-19T09:11:55Z</time>
      </trkpt>
      <trkpt lat="42.8301910" lon="-7.7043560">
        <ele>591.6</ele>
        <time>2020-10-19T09:11:56Z</time>
      </trkpt>
      <trkpt lat="42.8301950" lon="-7.7043720">
        <ele>591.6</ele>
        <time>2020-10-19T09:11:57Z</time>
      </trkpt>
      <trkpt lat="42.8302010" lon="-7.7043880">
        <ele>591.6</ele>
        <time>2020-10-19T09:11:58Z</time>
      </trkpt>
      <trkpt lat="42.8302050" lon="-7.7044050">
        <ele>591.6</ele>
        <time>2020-10-19T09:11:59Z</time>
      </trkpt>
      <trkpt lat="42.8302090" lon="-7.7044190">
        <ele>591.6</ele>
        <time>2020-10-19T09:12:00Z</time>
      </trkpt>
      <trkpt lat="42.8302130" lon="-7.7044320">
        <ele>591.6</ele>
        <time>2020-10-19T09:12:01Z</time>
      </trkpt>
      <trkpt lat="42.8302180" lon="-7.7044430">
        <ele>591.7</ele>
        <time>2020-10-19T09:12:02Z</time>
      </trkpt>
      <trkpt lat="42.8302240" lon="-7.7044540">
        <ele>591.7</ele>
        <time>2020-10-19T09:12:03Z</time>
      </trkpt>
      <trkpt lat="42.8302290" lon="-7.7044670">
        <ele>591.7</ele>
        <time>2020-10-19T09:12:04Z</time>
      </trkpt>
      <trkpt lat="42.8302350" lon="-7.7044800">
        <ele>591.7</ele>
        <time>2020-10-19T09:12:05Z</time>
      </trkpt>
      <trkpt lat="42.8302400" lon="-7.7044940">
        <ele>591.7</ele>
        <time>2020-10-19T09:12:06Z</time>
      </trkpt>
      <trkpt lat="42.8302450" lon="-7.7045060">
        <ele>591.7</ele>
        <time>2020-10-19T09:12:07Z</time>
      </trkpt>
      <trkpt lat="42.8302510" lon="-7.7045190">
        <ele>591.7</ele>
        <time>2020-10-19T09:12:08Z</time>
      </trkpt>
      <trkpt lat="42.8302560" lon="-7.7045320">
        <ele>591.7</ele>
        <time>2020-10-19T09:12:09Z</time>
      </trkpt>
      <trkpt lat="42.8302610" lon="-7.7045450">
        <ele>591.8</ele>
        <time>2020-10-19T09:12:10Z</time>
      </trkpt>
      <trkpt lat="42.8302660" lon="-7.7045580">
        <ele>591.8</ele>
        <time>2020-10-19T09:12:11Z</time>
      </trkpt>
      <trkpt lat="42.8302710" lon="-7.7045710">
        <ele>591.8</ele>
        <time>2020-10-19T09:12:12Z</time>
      </trkpt>
      <trkpt lat="42.8302760" lon="-7.7045830">
        <ele>591.8</ele>
        <time>2020-10-19T09:12:13Z</time>
      </trkpt>
      <trkpt lat="42.8302830" lon="-7.7045950">
        <ele>591.8</ele>
        <time>2020-10-19T09:12:14Z</time>
      </trkpt>
      <trkpt lat="42.8302890" lon="-7.7046070">
        <ele>591.8</ele>
        <time>2020-10-19T09:12:15Z</time>
      </trkpt>
      <trkpt lat="42.8302950" lon="-7.7046190">
        <ele>591.8</ele>
        <time>2020-10-19T09:12:16Z</time>
      </trkpt>
      <trkpt lat="42.8303010" lon="-7.7046310">
        <ele>591.8</ele>
        <time>2020-10-19T09:12:17Z</time>
      </trkpt>
      <trkpt lat="42.8303070" lon="-7.7046450">
        <ele>591.9</ele>
        <time>2020-10-19T09:12:18Z</time>
      </trkpt>
      <trkpt lat="42.8303140" lon="-7.7046600">
        <ele>591.9</ele>
        <time>2020-10-19T09:12:19Z</time>
      </trkpt>
      <trkpt lat="42.8303200" lon="-7.7046760">
        <ele>591.9</ele>
        <time>2020-10-19T09:12:20Z</time>
      </trkpt>
      <trkpt lat="42.8303260" lon="-7.7046910">
        <ele>591.9</ele>
        <time>2020-10-19T09:12:21Z</time>
      </trkpt>
      <trkpt lat="42.8303330" lon="-7.7047060">
        <ele>591.9</ele>
        <time>2020-10-19T09:12:22Z</time>
      </trkpt>
      <trkpt lat="42.8303400" lon="-7.7047200">
        <ele>591.9</ele>
        <time>2020-10-19T09:12:23Z</time>
      </trkpt>
      <trkpt lat="42.8303470" lon="-7.7047350">
        <ele>591.9</ele>
        <time>2020-10-19T09:12:24Z</time>
      </trkpt>
      <trkpt lat="42.8303540" lon="-7.7047490">
        <ele>591.9</ele>
        <time>2020-10-19T09:12:25Z</time>
      </trkpt>
      <trkpt lat="42.8303620" lon="-7.7047640">
        <ele>591.9</ele>
        <time>2020-10-19T09:12:26Z</time>
      </trkpt>
      <trkpt lat="42.8303710" lon="-7.7047780">
        <ele>591.9</ele>
        <time>2020-10-19T09:12:27Z</time>
      </trkpt>
      <trkpt lat="42.8303810" lon="-7.7047920">
        <ele>592.0</ele>
        <time>2020-10-19T09:12:28Z</time>
      </trkpt>
      <trkpt lat="42.8303910" lon="-7.7048070">
        <ele>592.0</ele>
        <time>2020-10-19T09:12:29Z</time>
      </trkpt>
      <trkpt lat="42.8304000" lon="-7.7048230">
        <ele>592.0</ele>
        <time>2020-10-19T09:12:30Z</time>
      </trkpt>
      <trkpt lat="42.8304080" lon="-7.7048390">
        <ele>592.0</ele>
        <time>2020-10-19T09:12:31Z</time>
      </trkpt>
      <trkpt lat="42.8304170" lon="-7.7048550">
        <ele>592.0</ele>
        <time>2020-10-19T09:12:32Z</time>
      </trkpt>
      <trkpt lat="42.8304260" lon="-7.7048720">
        <ele>592.0</ele>
        <time>2020-10-19T09:12:33Z</time>
      </trkpt>
      <trkpt lat="42.8304340" lon="-7.7048880">
        <ele>592.0</ele>
        <time>2020-10-19T09:12:34Z</time>
      </trkpt>
      <trkpt lat="42.8304420" lon="-7.7049030">
        <ele>592.0</ele>
        <time>2020-10-19T09:12:35Z</time>
      </trkpt>
      <trkpt lat="42.8304500" lon="-7.7049160">
        <ele>592.0</ele>
        <time>2020-10-19T09:12:36Z</time>
      </trkpt>
      <trkpt lat="42.8304580" lon="-7.7049290">
        <ele>592.0</ele>
        <time>2020-10-19T09:12:37Z</time>
      </trkpt>
      <trkpt lat="42.8304660" lon="-7.7049410">
        <ele>592.1</ele>
        <time>2020-10-19T09:12:38Z</time>
      </trkpt>
      <trkpt lat="42.8304750" lon="-7.7049560">
        <ele>592.1</ele>
        <time>2020-10-19T09:12:39Z</time>
      </trkpt>
      <trkpt lat="42.8304850" lon="-7.7049710">
        <ele>592.1</ele>
        <time>2020-10-19T09:12:40Z</time>
      </trkpt>
      <trkpt lat="42.8304940" lon="-7.7049880">
        <ele>592.1</ele>
        <time>2020-10-19T09:12:41Z</time>
      </trkpt>
      <trkpt lat="42.8305010" lon="-7.7050050">
        <ele>592.1</ele>
        <time>2020-10-19T09:12:42Z</time>
      </trkpt>
      <trkpt lat="42.8305080" lon="-7.7050220">
        <ele>592.1</ele>
        <time>2020-10-19T09:12:43Z</time>
      </trkpt>
      <trkpt lat="42.8305150" lon="-7.7050390">
        <ele>592.1</ele>
        <time>2020-10-19T09:12:44Z</time>
      </trkpt>
      <trkpt lat="42.8305230" lon="-7.7050560">
        <ele>592.1</ele>
        <time>2020-10-19T09:12:45Z</time>
      </trkpt>
      <trkpt lat="42.8305300" lon="-7.7050710">
        <ele>592.1</ele>
        <time>2020-10-19T09:12:46Z</time>
      </trkpt>
      <trkpt lat="42.8305380" lon="-7.7050870">
        <ele>592.2</ele>
        <time>2020-10-19T09:12:47Z</time>
      </trkpt>
      <trkpt lat="42.8305450" lon="-7.7051030">
        <ele>592.2</ele>
        <time>2020-10-19T09:12:48Z</time>
      </trkpt>
      <trkpt lat="42.8305530" lon="-7.7051200">
        <ele>592.2</ele>
        <time>2020-10-19T09:12:49Z</time>
      </trkpt>
      <trkpt lat="42.8305610" lon="-7.7051370">
        <ele>592.2</ele>
        <time>2020-10-19T09:12:50Z</time>
      </trkpt>
      <trkpt lat="42.8305690" lon="-7.7051540">
        <ele>592.2</ele>
        <time>2020-10-19T09:12:51Z</time>
      </trkpt>
      <trkpt lat="42.8305760" lon="-7.7051700">
        <ele>592.3</ele>
        <time>2020-10-19T09:12:52Z</time>
      </trkpt>
      <trkpt lat="42.8305840" lon="-7.7051860">
        <ele>592.3</ele>
        <time>2020-10-19T09:12:53Z</time>
      </trkpt>
      <trkpt lat="42.8305920" lon="-7.7052010">
        <ele>592.3</ele>
        <time>2020-10-19T09:12:54Z</time>
      </trkpt>
      <trkpt lat="42.8306010" lon="-7.7052160">
        <ele>592.3</ele>
        <time>2020-10-19T09:12:55Z</time>
      </trkpt>
      <trkpt lat="42.8306110" lon="-7.7052320">
        <ele>592.3</ele>
        <time>2020-10-19T09:12:56Z</time>
      </trkpt>
      <trkpt lat="42.8306190" lon="-7.7052480">
        <ele>592.4</ele>
        <time>2020-10-19T09:12:57Z</time>
      </trkpt>
      <trkpt lat="42.8306280" lon="-7.7052640">
        <ele>592.4</ele>
        <time>2020-10-19T09:12:58Z</time>
      </trkpt>
      <trkpt lat="42.8306370" lon="-7.7052810">
        <ele>592.4</ele>
        <time>2020-10-19T09:12:59Z</time>
      </trkpt>
      <trkpt lat="42.8306450" lon="-7.7052980">
        <ele>592.5</ele>
        <time>2020-10-19T09:13:00Z</time>
      </trkpt>
      <trkpt lat="42.8306540" lon="-7.7053150">
        <ele>592.5</ele>
        <time>2020-10-19T09:13:01Z</time>
      </trkpt>
      <trkpt lat="42.8306620" lon="-7.7053320">
        <ele>592.5</ele>
        <time>2020-10-19T09:13:02Z</time>
      </trkpt>
      <trkpt lat="42.8306700" lon="-7.7053480">
        <ele>592.6</ele>
        <time>2020-10-19T09:13:03Z</time>
      </trkpt>
      <trkpt lat="42.8306780" lon="-7.7053650">
        <ele>592.6</ele>
        <time>2020-10-19T09:13:04Z</time>
      </trkpt>
      <trkpt lat="42.8306870" lon="-7.7053800">
        <ele>592.7</ele>
        <time>2020-10-19T09:13:05Z</time>
      </trkpt>
      <trkpt lat="42.8306980" lon="-7.7053950">
        <ele>592.7</ele>
        <time>2020-10-19T09:13:06Z</time>
      </trkpt>
      <trkpt lat="42.8307080" lon="-7.7054100">
        <ele>592.7</ele>
        <time>2020-10-19T09:13:07Z</time>
      </trkpt>
      <trkpt lat="42.8307180" lon="-7.7054250">
        <ele>592.8</ele>
        <time>2020-10-19T09:13:08Z</time>
      </trkpt>
      <trkpt lat="42.8307290" lon="-7.7054380">
        <ele>592.8</ele>
        <time>2020-10-19T09:13:09Z</time>
      </trkpt>
      <trkpt lat="42.8307410" lon="-7.7054500">
        <ele>592.9</ele>
        <time>2020-10-19T09:13:10Z</time>
      </trkpt>
      <trkpt lat="42.8307530" lon="-7.7054610">
        <ele>592.9</ele>
        <time>2020-10-19T09:13:11Z</time>
      </trkpt>
      <trkpt lat="42.8307660" lon="-7.7054720">
        <ele>593.0</ele>
        <time>2020-10-19T09:13:12Z</time>
      </trkpt>
      <trkpt lat="42.8307760" lon="-7.7054830">
        <ele>593.0</ele>
        <time>2020-10-19T09:13:13Z</time>
      </trkpt>
      <trkpt lat="42.8307880" lon="-7.7054930">
        <ele>593.1</ele>
        <time>2020-10-19T09:13:14Z</time>
      </trkpt>
      <trkpt lat="42.8307980" lon="-7.7055040">
        <ele>593.1</ele>
        <time>2020-10-19T09:13:15Z</time>
      </trkpt>
      <trkpt lat="42.8308090" lon="-7.7055150">
        <ele>593.2</ele>
        <time>2020-10-19T09:13:16Z</time>
      </trkpt>
      <trkpt lat="42.8308190" lon="-7.7055270">
        <ele>593.2</ele>
        <time>2020-10-19T09:13:17Z</time>
      </trkpt>
      <trkpt lat="42.8308290" lon="-7.7055390">
        <ele>593.3</ele>
        <time>2020-10-19T09:13:18Z</time>
      </trkpt>
      <trkpt lat="42.8308390" lon="-7.7055520">
        <ele>593.4</ele>
        <time>2020-10-19T09:13:19Z</time>
      </trkpt>
      <trkpt lat="42.8308490" lon="-7.7055650">
        <ele>593.5</ele>
        <time>2020-10-19T09:13:20Z</time>
      </trkpt>
      <trkpt lat="42.8308560" lon="-7.7055790">
        <ele>593.5</ele>
        <time>2020-10-19T09:13:21Z</time>
      </trkpt>
      <trkpt lat="42.8308630" lon="-7.7055920">
        <ele>593.6</ele>
        <time>2020-10-19T09:13:22Z</time>
      </trkpt>
      <trkpt lat="42.8308690" lon="-7.7056070">
        <ele>593.6</ele>
        <time>2020-10-19T09:13:23Z</time>
      </trkpt>
      <trkpt lat="42.8308740" lon="-7.7056240">
        <ele>593.7</ele>
        <time>2020-10-19T09:13:24Z</time>
      </trkpt>
      <trkpt lat="42.8308780" lon="-7.7056390">
        <ele>593.7</ele>
        <time>2020-10-19T09:13:25Z</time>
      </trkpt>
      <trkpt lat="42.8308830" lon="-7.7056550">
        <ele>593.7</ele>
        <time>2020-10-19T09:13:26Z</time>
      </trkpt>
      <trkpt lat="42.8308870" lon="-7.7056710">
        <ele>593.7</ele>
        <time>2020-10-19T09:13:27Z</time>
      </trkpt>
      <trkpt lat="42.8308890" lon="-7.7056900">
        <ele>593.8</ele>
        <time>2020-10-19T09:13:28Z</time>
      </trkpt>
      <trkpt lat="42.8308900" lon="-7.7057120">
        <ele>593.8</ele>
        <time>2020-10-19T09:13:29Z</time>
      </trkpt>
      <trkpt lat="42.8308940" lon="-7.7057310">
        <ele>593.8</ele>
        <time>2020-10-19T09:13:30Z</time>
      </trkpt>
      <trkpt lat="42.8308970" lon="-7.7057500">
        <ele>593.8</ele>
        <time>2020-10-19T09:13:31Z</time>
      </trkpt>
      <trkpt lat="42.8309020" lon="-7.7057680">
        <ele>593.8</ele>
        <time>2020-10-19T09:13:32Z</time>
      </trkpt>
      <trkpt lat="42.8309060" lon="-7.7057890">
        <ele>593.8</ele>
        <time>2020-10-19T09:13:33Z</time>
      </trkpt>
      <trkpt lat="42.8309090" lon="-7.7058090">
        <ele>593.8</ele>
        <time>2020-10-19T09:13:34Z</time>
      </trkpt>
      <trkpt lat="42.8309130" lon="-7.7058290">
        <ele>593.8</ele>
        <time>2020-10-19T09:13:35Z</time>
      </trkpt>
      <trkpt lat="42.8309170" lon="-7.7058470">
        <ele>593.7</ele>
        <time>2020-10-19T09:13:36Z</time>
      </trkpt>
      <trkpt lat="42.8309210" lon="-7.7058670">
        <ele>593.7</ele>
        <time>2020-10-19T09:13:37Z</time>
      </trkpt>
      <trkpt lat="42.8309240" lon="-7.7058870">
        <ele>593.7</ele>
        <time>2020-10-19T09:13:38Z</time>
      </trkpt>
      <trkpt lat="42.8309270" lon="-7.7059060">
        <ele>593.7</ele>
        <time>2020-10-19T09:13:39Z</time>
      </trkpt>
      <trkpt lat="42.8309310" lon="-7.7059240">
        <ele>593.7</ele>
        <time>2020-10-19T09:13:40Z</time>
      </trkpt>
      <trkpt lat="42.8309350" lon="-7.7059420">
        <ele>593.7</ele>
        <time>2020-10-19T09:13:41Z</time>
      </trkpt>
      <trkpt lat="42.8309390" lon="-7.7059600">
        <ele>593.6</ele>
        <time>2020-10-19T09:13:42Z</time>
      </trkpt>
      <trkpt lat="42.8309440" lon="-7.7059780">
        <ele>593.6</ele>
        <time>2020-10-19T09:13:43Z</time>
      </trkpt>
      <trkpt lat="42.8309510" lon="-7.7059950">
        <ele>593.6</ele>
        <time>2020-10-19T09:13:44Z</time>
      </trkpt>
      <trkpt lat="42.8309580" lon="-7.7060120">
        <ele>593.6</ele>
        <time>2020-10-19T09:13:45Z</time>
      </trkpt>
      <trkpt lat="42.8309630" lon="-7.7060310">
        <ele>593.6</ele>
        <time>2020-10-19T09:13:46Z</time>
      </trkpt>
      <trkpt lat="42.8309670" lon="-7.7060500">
        <ele>593.6</ele>
        <time>2020-10-19T09:13:47Z</time>
      </trkpt>
      <trkpt lat="42.8309700" lon="-7.7060690">
        <ele>593.6</ele>
        <time>2020-10-19T09:13:48Z</time>
      </trkpt>
      <trkpt lat="42.8309720" lon="-7.7060870">
        <ele>593.6</ele>
        <time>2020-10-19T09:13:49Z</time>
      </trkpt>
      <trkpt lat="42.8309770" lon="-7.7061050">
        <ele>593.6</ele>
        <time>2020-10-19T09:13:50Z</time>
      </trkpt>
      <trkpt lat="42.8309830" lon="-7.7061220">
        <ele>593.6</ele>
        <time>2020-10-19T09:13:51Z</time>
      </trkpt>
      <trkpt lat="42.8309900" lon="-7.7061400">
        <ele>593.6</ele>
        <time>2020-10-19T09:13:52Z</time>
      </trkpt>
      <trkpt lat="42.8309950" lon="-7.7061570">
        <ele>593.6</ele>
        <time>2020-10-19T09:13:53Z</time>
      </trkpt>
      <trkpt lat="42.8310010" lon="-7.7061750">
        <ele>593.6</ele>
        <time>2020-10-19T09:13:54Z</time>
      </trkpt>
      <trkpt lat="42.8310060" lon="-7.7061930">
        <ele>593.6</ele>
        <time>2020-10-19T09:13:55Z</time>
      </trkpt>
      <trkpt lat="42.8310100" lon="-7.7062120">
        <ele>593.6</ele>
        <time>2020-10-19T09:13:56Z</time>
      </trkpt>
      <trkpt lat="42.8310150" lon="-7.7062290">
        <ele>593.6</ele>
        <time>2020-10-19T09:13:57Z</time>
      </trkpt>
      <trkpt lat="42.8310200" lon="-7.7062470">
        <ele>593.6</ele>
        <time>2020-10-19T09:13:58Z</time>
      </trkpt>
      <trkpt lat="42.8310240" lon="-7.7062630">
        <ele>593.6</ele>
        <time>2020-10-19T09:13:59Z</time>
      </trkpt>
      <trkpt lat="42.8310290" lon="-7.7062800">
        <ele>593.6</ele>
        <time>2020-10-19T09:14:00Z</time>
      </trkpt>
      <trkpt lat="42.8310320" lon="-7.7062950">
        <ele>593.6</ele>
        <time>2020-10-19T09:14:01Z</time>
      </trkpt>
      <trkpt lat="42.8310360" lon="-7.7063110">
        <ele>593.6</ele>
        <time>2020-10-19T09:14:02Z</time>
      </trkpt>
      <trkpt lat="42.8310390" lon="-7.7063270">
        <ele>593.6</ele>
        <time>2020-10-19T09:14:03Z</time>
      </trkpt>
      <trkpt lat="42.8310440" lon="-7.7063420">
        <ele>593.6</ele>
        <time>2020-10-19T09:14:04Z</time>
      </trkpt>
      <trkpt lat="42.8310480" lon="-7.7063570">
        <ele>593.6</ele>
        <time>2020-10-19T09:14:05Z</time>
      </trkpt>
      <trkpt lat="42.8310490" lon="-7.7063670">
        <ele>593.6</ele>
        <time>2020-10-19T09:14:06Z</time>
      </trkpt>
      <trkpt lat="42.8310470" lon="-7.7063700">
        <ele>593.6</ele>
        <time>2020-10-19T09:14:07Z</time>
      </trkpt>
      <trkpt lat="42.8310450" lon="-7.7063700">
        <ele>593.6</ele>
        <time>2020-10-19T09:14:08Z</time>
      </trkpt>
      <trkpt lat="42.8310440" lon="-7.7063730">
        <ele>593.6</ele>
        <time>2020-10-19T09:14:09Z</time>
      </trkpt>
      <trkpt lat="42.8310450" lon="-7.7063830">
        <ele>593.6</ele>
        <time>2020-10-19T09:14:10Z</time>
      </trkpt>
      <trkpt lat="42.8310460" lon="-7.7063950">
        <ele>593.6</ele>
        <time>2020-10-19T09:14:11Z</time>
      </trkpt>
      <trkpt lat="42.8310480" lon="-7.7064060">
        <ele>593.6</ele>
        <time>2020-10-19T09:14:12Z</time>
      </trkpt>
      <trkpt lat="42.8310530" lon="-7.7064160">
        <ele>593.6</ele>
        <time>2020-10-19T09:14:13Z</time>
      </trkpt>
      <trkpt lat="42.8310600" lon="-7.7064270">
        <ele>593.6</ele>
        <time>2020-10-19T09:14:14Z</time>
      </trkpt>
      <trkpt lat="42.8310660" lon="-7.7064430">
        <ele>593.6</ele>
        <time>2020-10-19T09:14:15Z</time>
      </trkpt>
      <trkpt lat="42.8310700" lon="-7.7064600">
        <ele>593.6</ele>
        <time>2020-10-19T09:14:16Z</time>
      </trkpt>
      <trkpt lat="42.8310730" lon="-7.7064780">
        <ele>593.6</ele>
        <time>2020-10-19T09:14:17Z</time>
      </trkpt>
      <trkpt lat="42.8310770" lon="-7.7064910">
        <ele>593.6</ele>
        <time>2020-10-19T09:14:18Z</time>
      </trkpt>
      <trkpt lat="42.8310830" lon="-7.7065030">
        <ele>593.6</ele>
        <time>2020-10-19T09:14:19Z</time>
      </trkpt>
      <trkpt lat="42.8310900" lon="-7.7065140">
        <ele>593.6</ele>
        <time>2020-10-19T09:14:20Z</time>
      </trkpt>
      <trkpt lat="42.8310960" lon="-7.7065270">
        <ele>593.6</ele>
        <time>2020-10-19T09:14:21Z</time>
      </trkpt>
      <trkpt lat="42.8311000" lon="-7.7065410">
        <ele>593.6</ele>
        <time>2020-10-19T09:14:22Z</time>
      </trkpt>
      <trkpt lat="42.8311030" lon="-7.7065560">
        <ele>593.6</ele>
        <time>2020-10-19T09:14:23Z</time>
      </trkpt>
      <trkpt lat="42.8311030" lon="-7.7065740">
        <ele>593.6</ele>
        <time>2020-10-19T09:14:24Z</time>
      </trkpt>
      <trkpt lat="42.8311050" lon="-7.7065930">
        <ele>593.6</ele>
        <time>2020-10-19T09:14:25Z</time>
      </trkpt>
      <trkpt lat="42.8311070" lon="-7.7066100">
        <ele>593.6</ele>
        <time>2020-10-19T09:14:26Z</time>
      </trkpt>
      <trkpt lat="42.8311110" lon="-7.7066270">
        <ele>593.6</ele>
        <time>2020-10-19T09:14:27Z</time>
      </trkpt>
      <trkpt lat="42.8311160" lon="-7.7066430">
        <ele>593.6</ele>
        <time>2020-10-19T09:14:28Z</time>
      </trkpt>
      <trkpt lat="42.8311220" lon="-7.7066610">
        <ele>593.6</ele>
        <time>2020-10-19T09:14:29Z</time>
      </trkpt>
      <trkpt lat="42.8311280" lon="-7.7066800">
        <ele>593.5</ele>
        <time>2020-10-19T09:14:30Z</time>
      </trkpt>
      <trkpt lat="42.8311330" lon="-7.7066980">
        <ele>593.5</ele>
        <time>2020-10-19T09:14:31Z</time>
      </trkpt>
      <trkpt lat="42.8311400" lon="-7.7067170">
        <ele>593.5</ele>
        <time>2020-10-19T09:14:32Z</time>
      </trkpt>
      <trkpt lat="42.8311460" lon="-7.7067370">
        <ele>593.5</ele>
        <time>2020-10-19T09:14:33Z</time>
      </trkpt>
      <trkpt lat="42.8311540" lon="-7.7067570">
        <ele>593.5</ele>
        <time>2020-10-19T09:14:34Z</time>
      </trkpt>
      <trkpt lat="42.8311600" lon="-7.7067750">
        <ele>593.5</ele>
        <time>2020-10-19T09:14:35Z</time>
      </trkpt>
      <trkpt lat="42.8311630" lon="-7.7067940">
        <ele>593.4</ele>
        <time>2020-10-19T09:14:36Z</time>
      </trkpt>
      <trkpt lat="42.8311650" lon="-7.7068140">
        <ele>593.4</ele>
        <time>2020-10-19T09:14:37Z</time>
      </trkpt>
      <trkpt lat="42.8311680" lon="-7.7068350">
        <ele>593.4</ele>
        <time>2020-10-19T09:14:38Z</time>
      </trkpt>
      <trkpt lat="42.8311720" lon="-7.7068550">
        <ele>593.4</ele>
        <time>2020-10-19T09:14:39Z</time>
      </trkpt>
      <trkpt lat="42.8311770" lon="-7.7068760">
        <ele>593.3</ele>
        <time>2020-10-19T09:14:40Z</time>
      </trkpt>
      <trkpt lat="42.8311840" lon="-7.7068960">
        <ele>593.3</ele>
        <time>2020-10-19T09:14:41Z</time>
      </trkpt>
      <trkpt lat="42.8311900" lon="-7.7069170">
        <ele>593.2</ele>
        <time>2020-10-19T09:14:42Z</time>
      </trkpt>
      <trkpt lat="42.8311950" lon="-7.7069380">
        <ele>593.2</ele>
        <time>2020-10-19T09:14:43Z</time>
      </trkpt>
      <trkpt lat="42.8311980" lon="-7.7069580">
        <ele>593.2</ele>
        <time>2020-10-19T09:14:44Z</time>
      </trkpt>
      <trkpt lat="42.8312020" lon="-7.7069770">
        <ele>593.1</ele>
        <time>2020-10-19T09:14:45Z</time>
      </trkpt>
      <trkpt lat="42.8312060" lon="-7.7069950">
        <ele>593.1</ele>
        <time>2020-10-19T09:14:46Z</time>
      </trkpt>
      <trkpt lat="42.8312090" lon="-7.7070130">
        <ele>593.0</ele>
        <time>2020-10-19T09:14:47Z</time>
      </trkpt>
      <trkpt lat="42.8312130" lon="-7.7070310">
        <ele>593.0</ele>
        <time>2020-10-19T09:14:48Z</time>
      </trkpt>
      <trkpt lat="42.8312170" lon="-7.7070490">
        <ele>593.0</ele>
        <time>2020-10-19T09:14:49Z</time>
      </trkpt>
      <trkpt lat="42.8312220" lon="-7.7070670">
        <ele>592.9</ele>
        <time>2020-10-19T09:14:50Z</time>
      </trkpt>
      <trkpt lat="42.8312260" lon="-7.7070860">
        <ele>592.9</ele>
        <time>2020-10-19T09:14:51Z</time>
      </trkpt>
      <trkpt lat="42.8312320" lon="-7.7071060">
        <ele>592.8</ele>
        <time>2020-10-19T09:14:52Z</time>
      </trkpt>
      <trkpt lat="42.8312380" lon="-7.7071250">
        <ele>592.8</ele>
        <time>2020-10-19T09:14:53Z</time>
      </trkpt>
      <trkpt lat="42.8312460" lon="-7.7071430">
        <ele>592.8</ele>
        <time>2020-10-19T09:14:54Z</time>
      </trkpt>
      <trkpt lat="42.8312530" lon="-7.7071610">
        <ele>592.7</ele>
        <time>2020-10-19T09:14:55Z</time>
      </trkpt>
      <trkpt lat="42.8312580" lon="-7.7071800">
        <ele>592.7</ele>
        <time>2020-10-19T09:14:56Z</time>
      </trkpt>
      <trkpt lat="42.8312640" lon="-7.7071990">
        <ele>592.7</ele>
        <time>2020-10-19T09:14:57Z</time>
      </trkpt>
      <trkpt lat="42.8312690" lon="-7.7072180">
        <ele>592.6</ele>
        <time>2020-10-19T09:14:58Z</time>
      </trkpt>
      <trkpt lat="42.8312740" lon="-7.7072380">
        <ele>592.6</ele>
        <time>2020-10-19T09:14:59Z</time>
      </trkpt>
      <trkpt lat="42.8312770" lon="-7.7072570">
        <ele>592.6</ele>
        <time>2020-10-19T09:15:00Z</time>
      </trkpt>
      <trkpt lat="42.8312820" lon="-7.7072760">
        <ele>592.6</ele>
        <time>2020-10-19T09:15:01Z</time>
      </trkpt>
      <trkpt lat="42.8312890" lon="-7.7072950">
        <ele>592.6</ele>
        <time>2020-10-19T09:15:02Z</time>
      </trkpt>
      <trkpt lat="42.8312970" lon="-7.7073160">
        <ele>592.5</ele>
        <time>2020-10-19T09:15:03Z</time>
      </trkpt>
      <trkpt lat="42.8313040" lon="-7.7073360">
        <ele>592.5</ele>
        <time>2020-10-19T09:15:04Z</time>
      </trkpt>
      <trkpt lat="42.8313130" lon="-7.7073550">
        <ele>592.5</ele>
        <time>2020-10-19T09:15:05Z</time>
      </trkpt>
      <trkpt lat="42.8313210" lon="-7.7073730">
        <ele>592.5</ele>
        <time>2020-10-19T09:15:06Z</time>
      </trkpt>
      <trkpt lat="42.8313300" lon="-7.7073920">
        <ele>592.5</ele>
        <time>2020-10-19T09:15:07Z</time>
      </trkpt>
      <trkpt lat="42.8313380" lon="-7.7074100">
        <ele>592.5</ele>
        <time>2020-10-19T09:15:08Z</time>
      </trkpt>
      <trkpt lat="42.8313450" lon="-7.7074290">
        <ele>592.5</ele>
        <time>2020-10-19T09:15:09Z</time>
      </trkpt>
      <trkpt lat="42.8313520" lon="-7.7074470">
        <ele>592.5</ele>
        <time>2020-10-19T09:15:10Z</time>
      </trkpt>
      <trkpt lat="42.8313590" lon="-7.7074660">
        <ele>592.5</ele>
        <time>2020-10-19T09:15:11Z</time>
      </trkpt>
      <trkpt lat="42.8313640" lon="-7.7074850">
        <ele>592.5</ele>
        <time>2020-10-19T09:15:12Z</time>
      </trkpt>
      <trkpt lat="42.8313700" lon="-7.7075040">
        <ele>592.5</ele>
        <time>2020-10-19T09:15:13Z</time>
      </trkpt>
      <trkpt lat="42.8313740" lon="-7.7075240">
        <ele>592.5</ele>
        <time>2020-10-19T09:15:14Z</time>
      </trkpt>
      <trkpt lat="42.8313800" lon="-7.7075430">
        <ele>592.5</ele>
        <time>2020-10-19T09:15:15Z</time>
      </trkpt>
      <trkpt lat="42.8313850" lon="-7.7075630">
        <ele>592.5</ele>
        <time>2020-10-19T09:15:16Z</time>
      </trkpt>
      <trkpt lat="42.8313910" lon="-7.7075820">
        <ele>592.5</ele>
        <time>2020-10-19T09:15:17Z</time>
      </trkpt>
      <trkpt lat="42.8313970" lon="-7.7076030">
        <ele>592.5</ele>
        <time>2020-10-19T09:15:18Z</time>
      </trkpt>
      <trkpt lat="42.8314020" lon="-7.7076230">
        <ele>592.5</ele>
        <time>2020-10-19T09:15:19Z</time>
      </trkpt>
      <trkpt lat="42.8314080" lon="-7.7076440">
        <ele>592.5</ele>
        <time>2020-10-19T09:15:20Z</time>
      </trkpt>
      <trkpt lat="42.8314150" lon="-7.7076630">
        <ele>592.5</ele>
        <time>2020-10-19T09:15:21Z</time>
      </trkpt>
      <trkpt lat="42.8314240" lon="-7.7076840">
        <ele>592.5</ele>
        <time>2020-10-19T09:15:22Z</time>
      </trkpt>
      <trkpt lat="42.8314320" lon="-7.7077040">
        <ele>592.5</ele>
        <time>2020-10-19T09:15:23Z</time>
      </trkpt>
      <trkpt lat="42.8314390" lon="-7.7077250">
        <ele>592.5</ele>
        <time>2020-10-19T09:15:24Z</time>
      </trkpt>
      <trkpt lat="42.8314440" lon="-7.7077460">
        <ele>592.5</ele>
        <time>2020-10-19T09:15:25Z</time>
      </trkpt>
      <trkpt lat="42.8314500" lon="-7.7077680">
        <ele>592.5</ele>
        <time>2020-10-19T09:15:26Z</time>
      </trkpt>
      <trkpt lat="42.8314560" lon="-7.7077920">
        <ele>592.5</ele>
        <time>2020-10-19T09:15:27Z</time>
      </trkpt>
      <trkpt lat="42.8314610" lon="-7.7078150">
        <ele>592.6</ele>
        <time>2020-10-19T09:15:28Z</time>
      </trkpt>
      <trkpt lat="42.8314660" lon="-7.7078390">
        <ele>592.6</ele>
        <time>2020-10-19T09:15:29Z</time>
      </trkpt>
      <trkpt lat="42.8314700" lon="-7.7078620">
        <ele>592.6</ele>
        <time>2020-10-19T09:15:30Z</time>
      </trkpt>
      <trkpt lat="42.8314740" lon="-7.7078840">
        <ele>592.6</ele>
        <time>2020-10-19T09:15:31Z</time>
      </trkpt>
      <trkpt lat="42.8314770" lon="-7.7079060">
        <ele>592.6</ele>
        <time>2020-10-19T09:15:32Z</time>
      </trkpt>
      <trkpt lat="42.8314800" lon="-7.7079260">
        <ele>592.6</ele>
        <time>2020-10-19T09:15:33Z</time>
      </trkpt>
      <trkpt lat="42.8314820" lon="-7.7079470">
        <ele>592.6</ele>
        <time>2020-10-19T09:15:34Z</time>
      </trkpt>
      <trkpt lat="42.8314860" lon="-7.7079670">
        <ele>592.7</ele>
        <time>2020-10-19T09:15:35Z</time>
      </trkpt>
      <trkpt lat="42.8314900" lon="-7.7079870">
        <ele>592.7</ele>
        <time>2020-10-19T09:15:36Z</time>
      </trkpt>
      <trkpt lat="42.8314940" lon="-7.7080070">
        <ele>592.7</ele>
        <time>2020-10-19T09:15:37Z</time>
      </trkpt>
      <trkpt lat="42.8314980" lon="-7.7080270">
        <ele>592.7</ele>
        <time>2020-10-19T09:15:38Z</time>
      </trkpt>
      <trkpt lat="42.8315030" lon="-7.7080480">
        <ele>592.8</ele>
        <time>2020-10-19T09:15:39Z</time>
      </trkpt>
      <trkpt lat="42.8315070" lon="-7.7080690">
        <ele>592.8</ele>
        <time>2020-10-19T09:15:40Z</time>
      </trkpt>
      <trkpt lat="42.8315110" lon="-7.7080910">
        <ele>592.8</ele>
        <time>2020-10-19T09:15:41Z</time>
      </trkpt>
      <trkpt lat="42.8315150" lon="-7.7081120">
        <ele>592.8</ele>
        <time>2020-10-19T09:15:42Z</time>
      </trkpt>
      <trkpt lat="42.8315180" lon="-7.7081330">
        <ele>592.9</ele>
        <time>2020-10-19T09:15:43Z</time>
      </trkpt>
      <trkpt lat="42.8315210" lon="-7.7081530">
        <ele>592.9</ele>
        <time>2020-10-19T09:15:44Z</time>
      </trkpt>
      <trkpt lat="42.8315220" lon="-7.7081730">
        <ele>592.9</ele>
        <time>2020-10-19T09:15:45Z</time>
      </trkpt>
      <trkpt lat="42.8315220" lon="-7.7081930">
        <ele>593.0</ele>
        <time>2020-10-19T09:15:46Z</time>
      </trkpt>
      <trkpt lat="42.8315240" lon="-7.7082130">
        <ele>593.0</ele>
        <time>2020-10-19T09:15:47Z</time>
      </trkpt>
      <trkpt lat="42.8315260" lon="-7.7082320">
        <ele>593.1</ele>
        <time>2020-10-19T09:15:48Z</time>
      </trkpt>
      <trkpt lat="42.8315280" lon="-7.7082520">
        <ele>593.1</ele>
        <time>2020-10-19T09:15:49Z</time>
      </trkpt>
      <trkpt lat="42.8315290" lon="-7.7082720">
        <ele>593.1</ele>
        <time>2020-10-19T09:15:50Z</time>
      </trkpt>
      <trkpt lat="42.8315310" lon="-7.7082910">
        <ele>593.2</ele>
        <time>2020-10-19T09:15:51Z</time>
      </trkpt>
      <trkpt lat="42.8315320" lon="-7.7083120">
        <ele>593.2</ele>
        <time>2020-10-19T09:15:52Z</time>
      </trkpt>
      <trkpt lat="42.8315330" lon="-7.7083310">
        <ele>593.3</ele>
        <time>2020-10-19T09:15:53Z</time>
      </trkpt>
      <trkpt lat="42.8315330" lon="-7.7083530">
        <ele>593.3</ele>
        <time>2020-10-19T09:15:54Z</time>
      </trkpt>
      <trkpt lat="42.8315320" lon="-7.7083720">
        <ele>593.4</ele>
        <time>2020-10-19T09:15:55Z</time>
      </trkpt>
      <trkpt lat="42.8315340" lon="-7.7083930">
        <ele>593.5</ele>
        <time>2020-10-19T09:15:56Z</time>
      </trkpt>
      <trkpt lat="42.8315390" lon="-7.7084130">
        <ele>593.5</ele>
        <time>2020-10-19T09:15:57Z</time>
      </trkpt>
      <trkpt lat="42.8315450" lon="-7.7084340">
        <ele>593.6</ele>
        <time>2020-10-19T09:15:58Z</time>
      </trkpt>
      <trkpt lat="42.8315520" lon="-7.7084530">
        <ele>593.7</ele>
        <time>2020-10-19T09:15:59Z</time>
      </trkpt>
      <trkpt lat="42.8315590" lon="-7.7084720">
        <ele>593.7</ele>
        <time>2020-10-19T09:16:00Z</time>
      </trkpt>
      <trkpt lat="42.8315660" lon="-7.7084890">
        <ele>593.8</ele>
        <time>2020-10-19T09:16:01Z</time>
      </trkpt>
      <trkpt lat="42.8315720" lon="-7.7085060">
        <ele>593.9</ele>
        <time>2020-10-19T09:16:02Z</time>
      </trkpt>
      <trkpt lat="42.8315780" lon="-7.7085220">
        <ele>594.0</ele>
        <time>2020-10-19T09:16:03Z</time>
      </trkpt>
      <trkpt lat="42.8315840" lon="-7.7085380">
        <ele>594.2</ele>
        <time>2020-10-19T09:16:04Z</time>
      </trkpt>
      <trkpt lat="42.8315910" lon="-7.7085540">
        <ele>594.3</ele>
        <time>2020-10-19T09:16:05Z</time>
      </trkpt>
      <trkpt lat="42.8315990" lon="-7.7085690">
        <ele>594.4</ele>
        <time>2020-10-19T09:16:06Z</time>
      </trkpt>
      <trkpt lat="42.8316080" lon="-7.7085810">
        <ele>594.5</ele>
        <time>2020-10-19T09:16:07Z</time>
      </trkpt>
      <trkpt lat="42.8316180" lon="-7.7085930">
        <ele>594.6</ele>
        <time>2020-10-19T09:16:08Z</time>
      </trkpt>
      <trkpt lat="42.8316290" lon="-7.7086050">
        <ele>594.8</ele>
        <time>2020-10-19T09:16:09Z</time>
      </trkpt>
      <trkpt lat="42.8316400" lon="-7.7086180">
        <ele>594.9</ele>
        <time>2020-10-19T09:16:10Z</time>
      </trkpt>
      <trkpt lat="42.8316510" lon="-7.7086310">
        <ele>595.1</ele>
        <time>2020-10-19T09:16:11Z</time>
      </trkpt>
      <trkpt lat="42.8316630" lon="-7.7086430">
        <ele>595.2</ele>
        <time>2020-10-19T09:16:12Z</time>
      </trkpt>
      <trkpt lat="42.8316730" lon="-7.7086550">
        <ele>595.3</ele>
        <time>2020-10-19T09:16:13Z</time>
      </trkpt>
      <trkpt lat="42.8316830" lon="-7.7086670">
        <ele>595.5</ele>
        <time>2020-10-19T09:16:14Z</time>
      </trkpt>
      <trkpt lat="42.8316930" lon="-7.7086810">
        <ele>595.6</ele>
        <time>2020-10-19T09:16:15Z</time>
      </trkpt>
      <trkpt lat="42.8317030" lon="-7.7086950">
        <ele>595.8</ele>
        <time>2020-10-19T09:16:16Z</time>
      </trkpt>
      <trkpt lat="42.8317120" lon="-7.7087100">
        <ele>595.9</ele>
        <time>2020-10-19T09:16:17Z</time>
      </trkpt>
      <trkpt lat="42.8317210" lon="-7.7087250">
        <ele>596.1</ele>
        <time>2020-10-19T09:16:18Z</time>
      </trkpt>
      <trkpt lat="42.8317290" lon="-7.7087420">
        <ele>596.2</ele>
        <time>2020-10-19T09:16:19Z</time>
      </trkpt>
      <trkpt lat="42.8317340" lon="-7.7087600">
        <ele>596.3</ele>
        <time>2020-10-19T09:16:20Z</time>
      </trkpt>
      <trkpt lat="42.8317390" lon="-7.7087790">
        <ele>596.5</ele>
        <time>2020-10-19T09:16:21Z</time>
      </trkpt>
      <trkpt lat="42.8317440" lon="-7.7087990">
        <ele>596.6</ele>
        <time>2020-10-19T09:16:22Z</time>
      </trkpt>
      <trkpt lat="42.8317480" lon="-7.7088180">
        <ele>596.8</ele>
        <time>2020-10-19T09:16:23Z</time>
      </trkpt>
      <trkpt lat="42.8317520" lon="-7.7088380">
        <ele>596.9</ele>
        <time>2020-10-19T09:16:24Z</time>
      </trkpt>
      <trkpt lat="42.8317530" lon="-7.7088590">
        <ele>597.0</ele>
        <time>2020-10-19T09:16:25Z</time>
      </trkpt>
      <trkpt lat="42.8317550" lon="-7.7088800">
        <ele>597.2</ele>
        <time>2020-10-19T09:16:26Z</time>
      </trkpt>
      <trkpt lat="42.8317550" lon="-7.7089010">
        <ele>597.3</ele>
        <time>2020-10-19T09:16:27Z</time>
      </trkpt>
      <trkpt lat="42.8317550" lon="-7.7089210">
        <ele>597.4</ele>
        <time>2020-10-19T09:16:28Z</time>
      </trkpt>
      <trkpt lat="42.8317510" lon="-7.7089400">
        <ele>597.5</ele>
        <time>2020-10-19T09:16:29Z</time>
      </trkpt>
      <trkpt lat="42.8317480" lon="-7.7089600">
        <ele>597.6</ele>
        <time>2020-10-19T09:16:30Z</time>
      </trkpt>
      <trkpt lat="42.8317460" lon="-7.7089790">
        <ele>597.7</ele>
        <time>2020-10-19T09:16:31Z</time>
      </trkpt>
      <trkpt lat="42.8317470" lon="-7.7089970">
        <ele>597.8</ele>
        <time>2020-10-19T09:16:32Z</time>
      </trkpt>
      <trkpt lat="42.8317480" lon="-7.7090170">
        <ele>598.0</ele>
        <time>2020-10-19T09:16:33Z</time>
      </trkpt>
      <trkpt lat="42.8317480" lon="-7.7090370">
        <ele>598.1</ele>
        <time>2020-10-19T09:16:34Z</time>
      </trkpt>
      <trkpt lat="42.8317490" lon="-7.7090570">
        <ele>598.2</ele>
        <time>2020-10-19T09:16:35Z</time>
      </trkpt>
      <trkpt lat="42.8317510" lon="-7.7090760">
        <ele>598.4</ele>
        <time>2020-10-19T09:16:36Z</time>
      </trkpt>
      <trkpt lat="42.8317560" lon="-7.7090940">
        <ele>598.5</ele>
        <time>2020-10-19T09:16:37Z</time>
      </trkpt>
      <trkpt lat="42.8317610" lon="-7.7091120">
        <ele>598.6</ele>
        <time>2020-10-19T09:16:38Z</time>
      </trkpt>
      <trkpt lat="42.8317660" lon="-7.7091290">
        <ele>598.7</ele>
        <time>2020-10-19T09:16:39Z</time>
      </trkpt>
      <trkpt lat="42.8317710" lon="-7.7091460">
        <ele>598.8</ele>
        <time>2020-10-19T09:16:40Z</time>
      </trkpt>
      <trkpt lat="42.8317770" lon="-7.7091630">
        <ele>598.9</ele>
        <time>2020-10-19T09:16:41Z</time>
      </trkpt>
      <trkpt lat="42.8317840" lon="-7.7091800">
        <ele>599.0</ele>
        <time>2020-10-19T09:16:42Z</time>
      </trkpt>
      <trkpt lat="42.8317900" lon="-7.7091970">
        <ele>599.1</ele>
        <time>2020-10-19T09:16:43Z</time>
      </trkpt>
      <trkpt lat="42.8317950" lon="-7.7092150">
        <ele>599.2</ele>
        <time>2020-10-19T09:16:44Z</time>
      </trkpt>
      <trkpt lat="42.8317980" lon="-7.7092340">
        <ele>599.3</ele>
        <time>2020-10-19T09:16:45Z</time>
      </trkpt>
      <trkpt lat="42.8318020" lon="-7.7092530">
        <ele>599.4</ele>
        <time>2020-10-19T09:16:46Z</time>
      </trkpt>
      <trkpt lat="42.8318080" lon="-7.7092710">
        <ele>599.5</ele>
        <time>2020-10-19T09:16:47Z</time>
      </trkpt>
      <trkpt lat="42.8318130" lon="-7.7092890">
        <ele>599.6</ele>
        <time>2020-10-19T09:16:48Z</time>
      </trkpt>
      <trkpt lat="42.8318180" lon="-7.7093060">
        <ele>599.7</ele>
        <time>2020-10-19T09:16:49Z</time>
      </trkpt>
      <trkpt lat="42.8318230" lon="-7.7093230">
        <ele>599.8</ele>
        <time>2020-10-19T09:16:50Z</time>
      </trkpt>
      <trkpt lat="42.8318270" lon="-7.7093400">
        <ele>599.8</ele>
        <time>2020-10-19T09:16:51Z</time>
      </trkpt>
      <trkpt lat="42.8318320" lon="-7.7093580">
        <ele>599.9</ele>
        <time>2020-10-19T09:16:52Z</time>
      </trkpt>
      <trkpt lat="42.8318360" lon="-7.7093760">
        <ele>600.0</ele>
        <time>2020-10-19T09:16:53Z</time>
      </trkpt>
      <trkpt lat="42.8318410" lon="-7.7093940">
        <ele>600.1</ele>
        <time>2020-10-19T09:16:54Z</time>
      </trkpt>
      <trkpt lat="42.8318440" lon="-7.7094100">
        <ele>600.2</ele>
        <time>2020-10-19T09:16:55Z</time>
      </trkpt>
      <trkpt lat="42.8318490" lon="-7.7094250">
        <ele>600.2</ele>
        <time>2020-10-19T09:16:56Z</time>
      </trkpt>
      <trkpt lat="42.8318540" lon="-7.7094390">
        <ele>600.3</ele>
        <time>2020-10-19T09:16:57Z</time>
      </trkpt>
      <trkpt lat="42.8318610" lon="-7.7094540">
        <ele>600.4</ele>
        <time>2020-10-19T09:16:58Z</time>
      </trkpt>
      <trkpt lat="42.8318680" lon="-7.7094680">
        <ele>600.5</ele>
        <time>2020-10-19T09:16:59Z</time>
      </trkpt>
      <trkpt lat="42.8318740" lon="-7.7094830">
        <ele>600.5</ele>
        <time>2020-10-19T09:17:00Z</time>
      </trkpt>
      <trkpt lat="42.8318820" lon="-7.7094980">
        <ele>600.6</ele>
        <time>2020-10-19T09:17:01Z</time>
      </trkpt>
      <trkpt lat="42.8318910" lon="-7.7095130">
        <ele>600.7</ele>
        <time>2020-10-19T09:17:02Z</time>
      </trkpt>
      <trkpt lat="42.8319020" lon="-7.7095280">
        <ele>600.8</ele>
        <time>2020-10-19T09:17:03Z</time>
      </trkpt>
      <trkpt lat="42.8319130" lon="-7.7095450">
        <ele>600.9</ele>
        <time>2020-10-19T09:17:04Z</time>
      </trkpt>
      <trkpt lat="42.8319210" lon="-7.7095620">
        <ele>601.0</ele>
        <time>2020-10-19T09:17:05Z</time>
      </trkpt>
      <trkpt lat="42.8319290" lon="-7.7095790">
        <ele>601.1</ele>
        <time>2020-10-19T09:17:06Z</time>
      </trkpt>
      <trkpt lat="42.8319360" lon="-7.7095940">
        <ele>601.2</ele>
        <time>2020-10-19T09:17:07Z</time>
      </trkpt>
      <trkpt lat="42.8319430" lon="-7.7096090">
        <ele>601.3</ele>
        <time>2020-10-19T09:17:08Z</time>
      </trkpt>
      <trkpt lat="42.8319500" lon="-7.7096240">
        <ele>601.4</ele>
        <time>2020-10-19T09:17:09Z</time>
      </trkpt>
      <trkpt lat="42.8319570" lon="-7.7096380">
        <ele>601.5</ele>
        <time>2020-10-19T09:17:10Z</time>
      </trkpt>
      <trkpt lat="42.8319670" lon="-7.7096510">
        <ele>601.6</ele>
        <time>2020-10-19T09:17:11Z</time>
      </trkpt>
      <trkpt lat="42.8319760" lon="-7.7096640">
        <ele>601.7</ele>
        <time>2020-10-19T09:17:12Z</time>
      </trkpt>
      <trkpt lat="42.8319850" lon="-7.7096760">
        <ele>601.8</ele>
        <time>2020-10-19T09:17:13Z</time>
      </trkpt>
      <trkpt lat="42.8319940" lon="-7.7096880">
        <ele>601.9</ele>
        <time>2020-10-19T09:17:14Z</time>
      </trkpt>
      <trkpt lat="42.8320040" lon="-7.7097000">
        <ele>602.0</ele>
        <time>2020-10-19T09:17:15Z</time>
      </trkpt>
      <trkpt lat="42.8320130" lon="-7.7097120">
        <ele>602.2</ele>
        <time>2020-10-19T09:17:16Z</time>
      </trkpt>
      <trkpt lat="42.8320230" lon="-7.7097250">
        <ele>602.3</ele>
        <time>2020-10-19T09:17:17Z</time>
      </trkpt>
      <trkpt lat="42.8320330" lon="-7.7097370">
        <ele>602.4</ele>
        <time>2020-10-19T09:17:18Z</time>
      </trkpt>
      <trkpt lat="42.8320420" lon="-7.7097490">
        <ele>602.5</ele>
        <time>2020-10-19T09:17:19Z</time>
      </trkpt>
      <trkpt lat="42.8320510" lon="-7.7097620">
        <ele>602.7</ele>
        <time>2020-10-19T09:17:20Z</time>
      </trkpt>
      <trkpt lat="42.8320590" lon="-7.7097760">
        <ele>602.8</ele>
        <time>2020-10-19T09:17:21Z</time>
      </trkpt>
      <trkpt lat="42.8320680" lon="-7.7097890">
        <ele>603.0</ele>
        <time>2020-10-19T09:17:22Z</time>
      </trkpt>
      <trkpt lat="42.8320760" lon="-7.7098040">
        <ele>603.1</ele>
        <time>2020-10-19T09:17:23Z</time>
      </trkpt>
      <trkpt lat="42.8320840" lon="-7.7098190">
        <ele>603.3</ele>
        <time>2020-10-19T09:17:24Z</time>
      </trkpt>
      <trkpt lat="42.8320910" lon="-7.7098350">
        <ele>603.4</ele>
        <time>2020-10-19T09:17:25Z</time>
      </trkpt>
      <trkpt lat="42.8320960" lon="-7.7098510">
        <ele>603.6</ele>
        <time>2020-10-19T09:17:26Z</time>
      </trkpt>
      <trkpt lat="42.8321020" lon="-7.7098680">
        <ele>603.7</ele>
        <time>2020-10-19T09:17:27Z</time>
      </trkpt>
      <trkpt lat="42.8321070" lon="-7.7098840">
        <ele>603.9</ele>
        <time>2020-10-19T09:17:28Z</time>
      </trkpt>
      <trkpt lat="42.8321140" lon="-7.7099000">
        <ele>604.1</ele>
        <time>2020-10-19T09:17:29Z</time>
      </trkpt>
      <trkpt lat="42.8321210" lon="-7.7099170">
        <ele>604.2</ele>
        <time>2020-10-19T09:17:30Z</time>
      </trkpt>
      <trkpt lat="42.8321290" lon="-7.7099340">
        <ele>604.4</ele>
        <time>2020-10-19T09:17:31Z</time>
      </trkpt>
      <trkpt lat="42.8321340" lon="-7.7099520">
        <ele>604.6</ele>
        <time>2020-10-19T09:17:32Z</time>
      </trkpt>
      <trkpt lat="42.8321380" lon="-7.7099700">
        <ele>604.8</ele>
        <time>2020-10-19T09:17:33Z</time>
      </trkpt>
      <trkpt lat="42.8321400" lon="-7.7099890">
        <ele>604.9</ele>
        <time>2020-10-19T09:17:34Z</time>
      </trkpt>
      <trkpt lat="42.8321420" lon="-7.7100070">
        <ele>605.1</ele>
        <time>2020-10-19T09:17:35Z</time>
      </trkpt>
      <trkpt lat="42.8321440" lon="-7.7100240">
        <ele>605.3</ele>
        <time>2020-10-19T09:17:36Z</time>
      </trkpt>
      <trkpt lat="42.8321470" lon="-7.7100410">
        <ele>605.4</ele>
        <time>2020-10-19T09:17:37Z</time>
      </trkpt>
      <trkpt lat="42.8321500" lon="-7.7100560">
        <ele>605.6</ele>
        <time>2020-10-19T09:17:38Z</time>
      </trkpt>
      <trkpt lat="42.8321550" lon="-7.7100670">
        <ele>605.8</ele>
        <time>2020-10-19T09:17:39Z</time>
      </trkpt>
      <trkpt lat="42.8321590" lon="-7.7100720">
        <ele>605.8</ele>
        <time>2020-10-19T09:17:40Z</time>
      </trkpt>
      <trkpt lat="42.8321630" lon="-7.7100740">
        <ele>605.9</ele>
        <time>2020-10-19T09:17:41Z</time>
      </trkpt>
      <trkpt lat="42.8321650" lon="-7.7100790">
        <ele>606.0</ele>
        <time>2020-10-19T09:17:42Z</time>
      </trkpt>
      <trkpt lat="42.8321680" lon="-7.7100890">
        <ele>606.1</ele>
        <time>2020-10-19T09:17:43Z</time>
      </trkpt>
      <trkpt lat="42.8321730" lon="-7.7101010">
        <ele>606.2</ele>
        <time>2020-10-19T09:17:44Z</time>
      </trkpt>
      <trkpt lat="42.8321780" lon="-7.7101170">
        <ele>606.4</ele>
        <time>2020-10-19T09:17:45Z</time>
      </trkpt>
      <trkpt lat="42.8321820" lon="-7.7101350">
        <ele>606.6</ele>
        <time>2020-10-19T09:17:46Z</time>
      </trkpt>
      <trkpt lat="42.8321860" lon="-7.7101520">
        <ele>606.8</ele>
        <time>2020-10-19T09:17:47Z</time>
      </trkpt>
      <trkpt lat="42.8321920" lon="-7.7101680">
        <ele>606.9</ele>
        <time>2020-10-19T09:17:48Z</time>
      </trkpt>
      <trkpt lat="42.8321990" lon="-7.7101830">
        <ele>607.1</ele>
        <time>2020-10-19T09:17:49Z</time>
      </trkpt>
      <trkpt lat="42.8322050" lon="-7.7101980">
        <ele>607.3</ele>
        <time>2020-10-19T09:17:50Z</time>
      </trkpt>
      <trkpt lat="42.8322120" lon="-7.7102130">
        <ele>607.5</ele>
        <time>2020-10-19T09:17:51Z</time>
      </trkpt>
      <trkpt lat="42.8322200" lon="-7.7102270">
        <ele>607.7</ele>
        <time>2020-10-19T09:17:52Z</time>
      </trkpt>
      <trkpt lat="42.8322280" lon="-7.7102420">
        <ele>607.9</ele>
        <time>2020-10-19T09:17:53Z</time>
      </trkpt>
      <trkpt lat="42.8322360" lon="-7.7102570">
        <ele>608.0</ele>
        <time>2020-10-19T09:17:54Z</time>
      </trkpt>
      <trkpt lat="42.8322430" lon="-7.7102720">
        <ele>608.2</ele>
        <time>2020-10-19T09:17:55Z</time>
      </trkpt>
      <trkpt lat="42.8322490" lon="-7.7102870">
        <ele>608.4</ele>
        <time>2020-10-19T09:17:56Z</time>
      </trkpt>
      <trkpt lat="42.8322560" lon="-7.7103020">
        <ele>608.6</ele>
        <time>2020-10-19T09:17:57Z</time>
      </trkpt>
      <trkpt lat="42.8322640" lon="-7.7103160">
        <ele>608.8</ele>
        <time>2020-10-19T09:17:58Z</time>
      </trkpt>
      <trkpt lat="42.8322720" lon="-7.7103290">
        <ele>609.0</ele>
        <time>2020-10-19T09:17:59Z</time>
      </trkpt>
      <trkpt lat="42.8322790" lon="-7.7103430">
        <ele>609.1</ele>
        <time>2020-10-19T09:18:00Z</time>
      </trkpt>
      <trkpt lat="42.8322870" lon="-7.7103560">
        <ele>609.3</ele>
        <time>2020-10-19T09:18:01Z</time>
      </trkpt>
      <trkpt lat="42.8322960" lon="-7.7103680">
        <ele>609.5</ele>
        <time>2020-10-19T09:18:02Z</time>
      </trkpt>
      <trkpt lat="42.8323050" lon="-7.7103790">
        <ele>609.7</ele>
        <time>2020-10-19T09:18:03Z</time>
      </trkpt>
      <trkpt lat="42.8323130" lon="-7.7103910">
        <ele>609.9</ele>
        <time>2020-10-19T09:18:04Z</time>
      </trkpt>
      <trkpt lat="42.8323220" lon="-7.7104030">
        <ele>610.0</ele>
        <time>2020-10-19T09:18:05Z</time>
      </trkpt>
      <trkpt lat="42.8323290" lon="-7.7104180">
        <ele>610.2</ele>
        <time>2020-10-19T09:18:06Z</time>
      </trkpt>
      <trkpt lat="42.8323350" lon="-7.7104310">
        <ele>610.4</ele>
        <time>2020-10-19T09:18:07Z</time>
      </trkpt>
      <trkpt lat="42.8323390" lon="-7.7104440">
        <ele>610.5</ele>
        <time>2020-10-19T09:18:08Z</time>
      </trkpt>
      <trkpt lat="42.8323430" lon="-7.7104540">
        <ele>610.6</ele>
        <time>2020-10-19T09:18:09Z</time>
      </trkpt>
      <trkpt lat="42.8323480" lon="-7.7104650">
        <ele>610.8</ele>
        <time>2020-10-19T09:18:10Z</time>
      </trkpt>
      <trkpt lat="42.8323550" lon="-7.7104750">
        <ele>610.9</ele>
        <time>2020-10-19T09:18:11Z</time>
      </trkpt>
      <trkpt lat="42.8323610" lon="-7.7104860">
        <ele>611.0</ele>
        <time>2020-10-19T09:18:12Z</time>
      </trkpt>
      <trkpt lat="42.8323680" lon="-7.7104970">
        <ele>611.2</ele>
        <time>2020-10-19T09:18:13Z</time>
      </trkpt>
      <trkpt lat="42.8323740" lon="-7.7105070">
        <ele>611.3</ele>
        <time>2020-10-19T09:18:14Z</time>
      </trkpt>
      <trkpt lat="42.8323800" lon="-7.7105170">
        <ele>611.4</ele>
        <time>2020-10-19T09:18:15Z</time>
      </trkpt>
      <trkpt lat="42.8323860" lon="-7.7105280">
        <ele>611.6</ele>
        <time>2020-10-19T09:18:16Z</time>
      </trkpt>
      <trkpt lat="42.8323920" lon="-7.7105380">
        <ele>611.7</ele>
        <time>2020-10-19T09:18:17Z</time>
      </trkpt>
      <trkpt lat="42.8323990" lon="-7.7105490">
        <ele>611.8</ele>
        <time>2020-10-19T09:18:18Z</time>
      </trkpt>
      <trkpt lat="42.8324050" lon="-7.7105570">
        <ele>611.9</ele>
        <time>2020-10-19T09:18:19Z</time>
      </trkpt>
      <trkpt lat="42.8324120" lon="-7.7105670">
        <ele>612.1</ele>
        <time>2020-10-19T09:18:20Z</time>
      </trkpt>
      <trkpt lat="42.8324210" lon="-7.7105780">
        <ele>612.2</ele>
        <time>2020-10-19T09:18:21Z</time>
      </trkpt>
      <trkpt lat="42.8324290" lon="-7.7105920">
        <ele>612.4</ele>
        <time>2020-10-19T09:18:22Z</time>
      </trkpt>
      <trkpt lat="42.8324380" lon="-7.7106050">
        <ele>612.6</ele>
        <time>2020-10-19T09:18:23Z</time>
      </trkpt>
      <trkpt lat="42.8324470" lon="-7.7106180">
        <ele>612.7</ele>
        <time>2020-10-19T09:18:24Z</time>
      </trkpt>
      <trkpt lat="42.8324570" lon="-7.7106330">
        <ele>612.9</ele>
        <time>2020-10-19T09:18:25Z</time>
      </trkpt>
      <trkpt lat="42.8324660" lon="-7.7106470">
        <ele>613.1</ele>
        <time>2020-10-19T09:18:26Z</time>
      </trkpt>
      <trkpt lat="42.8324740" lon="-7.7106630">
        <ele>613.3</ele>
        <time>2020-10-19T09:18:27Z</time>
      </trkpt>
      <trkpt lat="42.8324820" lon="-7.7106780">
        <ele>613.4</ele>
        <time>2020-10-19T09:18:28Z</time>
      </trkpt>
      <trkpt lat="42.8324900" lon="-7.7106930">
        <ele>613.6</ele>
        <time>2020-10-19T09:18:29Z</time>
      </trkpt>
      <trkpt lat="42.8324980" lon="-7.7107090">
        <ele>613.8</ele>
        <time>2020-10-19T09:18:30Z</time>
      </trkpt>
      <trkpt lat="42.8325060" lon="-7.7107260">
        <ele>614.0</ele>
        <time>2020-10-19T09:18:31Z</time>
      </trkpt>
      <trkpt lat="42.8325150" lon="-7.7107430">
        <ele>614.2</ele>
        <time>2020-10-19T09:18:32Z</time>
      </trkpt>
      <trkpt lat="42.8325250" lon="-7.7107600">
        <ele>614.4</ele>
        <time>2020-10-19T09:18:33Z</time>
      </trkpt>
      <trkpt lat="42.8325350" lon="-7.7107760">
        <ele>614.6</ele>
        <time>2020-10-19T09:18:34Z</time>
      </trkpt>
      <trkpt lat="42.8325450" lon="-7.7107930">
        <ele>614.7</ele>
        <time>2020-10-19T09:18:35Z</time>
      </trkpt>
      <trkpt lat="42.8325550" lon="-7.7108090">
        <ele>614.9</ele>
        <time>2020-10-19T09:18:36Z</time>
      </trkpt>
      <trkpt lat="42.8325650" lon="-7.7108240">
        <ele>615.1</ele>
        <time>2020-10-19T09:18:37Z</time>
      </trkpt>
      <trkpt lat="42.8325760" lon="-7.7108400">
        <ele>615.3</ele>
        <time>2020-10-19T09:18:38Z</time>
      </trkpt>
      <trkpt lat="42.8325860" lon="-7.7108560">
        <ele>615.5</ele>
        <time>2020-10-19T09:18:39Z</time>
      </trkpt>
      <trkpt lat="42.8325950" lon="-7.7108730">
        <ele>615.7</ele>
        <time>2020-10-19T09:18:40Z</time>
      </trkpt>
      <trkpt lat="42.8326030" lon="-7.7108890">
        <ele>615.9</ele>
        <time>2020-10-19T09:18:41Z</time>
      </trkpt>
      <trkpt lat="42.8326120" lon="-7.7109050">
        <ele>616.0</ele>
        <time>2020-10-19T09:18:42Z</time>
      </trkpt>
      <trkpt lat="42.8326220" lon="-7.7109200">
        <ele>616.2</ele>
        <time>2020-10-19T09:18:43Z</time>
      </trkpt>
      <trkpt lat="42.8326320" lon="-7.7109340">
        <ele>616.3</ele>
        <time>2020-10-19T09:18:44Z</time>
      </trkpt>
      <trkpt lat="42.8326410" lon="-7.7109490">
        <ele>616.5</ele>
        <time>2020-10-19T09:18:45Z</time>
      </trkpt>
      <trkpt lat="42.8326500" lon="-7.7109650">
        <ele>616.6</ele>
        <time>2020-10-19T09:18:46Z</time>
      </trkpt>
      <trkpt lat="42.8326570" lon="-7.7109820">
        <ele>616.8</ele>
        <time>2020-10-19T09:18:47Z</time>
      </trkpt>
      <trkpt lat="42.8326630" lon="-7.7109980">
        <ele>616.9</ele>
        <time>2020-10-19T09:18:48Z</time>
      </trkpt>
      <trkpt lat="42.8326700" lon="-7.7110140">
        <ele>617.1</ele>
        <time>2020-10-19T09:18:49Z</time>
      </trkpt>
      <trkpt lat="42.8326790" lon="-7.7110290">
        <ele>617.2</ele>
        <time>2020-10-19T09:18:50Z</time>
      </trkpt>
      <trkpt lat="42.8326890" lon="-7.7110440">
        <ele>617.4</ele>
        <time>2020-10-19T09:18:51Z</time>
      </trkpt>
      <trkpt lat="42.8326990" lon="-7.7110600">
        <ele>617.6</ele>
        <time>2020-10-19T09:18:52Z</time>
      </trkpt>
      <trkpt lat="42.8327080" lon="-7.7110760">
        <ele>617.7</ele>
        <time>2020-10-19T09:18:53Z</time>
      </trkpt>
      <trkpt lat="42.8327190" lon="-7.7110920">
        <ele>617.9</ele>
        <time>2020-10-19T09:18:54Z</time>
      </trkpt>
      <trkpt lat="42.8327290" lon="-7.7111070">
        <ele>618.1</ele>
        <time>2020-10-19T09:18:55Z</time>
      </trkpt>
      <trkpt lat="42.8327390" lon="-7.7111220">
        <ele>618.2</ele>
        <time>2020-10-19T09:18:56Z</time>
      </trkpt>
      <trkpt lat="42.8327480" lon="-7.7111370">
        <ele>618.4</ele>
        <time>2020-10-19T09:18:57Z</time>
      </trkpt>
      <trkpt lat="42.8327570" lon="-7.7111530">
        <ele>618.5</ele>
        <time>2020-10-19T09:18:58Z</time>
      </trkpt>
      <trkpt lat="42.8327650" lon="-7.7111690">
        <ele>618.7</ele>
        <time>2020-10-19T09:18:59Z</time>
      </trkpt>
      <trkpt lat="42.8327740" lon="-7.7111850">
        <ele>618.9</ele>
        <time>2020-10-19T09:19:00Z</time>
      </trkpt>
      <trkpt lat="42.8327810" lon="-7.7112020">
        <ele>619.0</ele>
        <time>2020-10-19T09:19:01Z</time>
      </trkpt>
      <trkpt lat="42.8327900" lon="-7.7112190">
        <ele>619.2</ele>
        <time>2020-10-19T09:19:02Z</time>
      </trkpt>
      <trkpt lat="42.8327970" lon="-7.7112350">
        <ele>619.3</ele>
        <time>2020-10-19T09:19:03Z</time>
      </trkpt>
      <trkpt lat="42.8328050" lon="-7.7112500">
        <ele>619.5</ele>
        <time>2020-10-19T09:19:04Z</time>
      </trkpt>
      <trkpt lat="42.8328140" lon="-7.7112650">
        <ele>619.6</ele>
        <time>2020-10-19T09:19:05Z</time>
      </trkpt>
      <trkpt lat="42.8328220" lon="-7.7112800">
        <ele>619.8</ele>
        <time>2020-10-19T09:19:06Z</time>
      </trkpt>
      <trkpt lat="42.8328300" lon="-7.7112960">
        <ele>619.9</ele>
        <time>2020-10-19T09:19:07Z</time>
      </trkpt>
      <trkpt lat="42.8328370" lon="-7.7113130">
        <ele>620.1</ele>
        <time>2020-10-19T09:19:08Z</time>
      </trkpt>
      <trkpt lat="42.8328440" lon="-7.7113300">
        <ele>620.2</ele>
        <time>2020-10-19T09:19:09Z</time>
      </trkpt>
      <trkpt lat="42.8328500" lon="-7.7113470">
        <ele>620.4</ele>
        <time>2020-10-19T09:19:10Z</time>
      </trkpt>
      <trkpt lat="42.8328560" lon="-7.7113650">
        <ele>620.5</ele>
        <time>2020-10-19T09:19:11Z</time>
      </trkpt>
      <trkpt lat="42.8328620" lon="-7.7113830">
        <ele>620.7</ele>
        <time>2020-10-19T09:19:12Z</time>
      </trkpt>
      <trkpt lat="42.8328700" lon="-7.7114000">
        <ele>620.8</ele>
        <time>2020-10-19T09:19:13Z</time>
      </trkpt>
      <trkpt lat="42.8328790" lon="-7.7114170">
        <ele>621.0</ele>
        <time>2020-10-19T09:19:14Z</time>
      </trkpt>
      <trkpt lat="42.8328870" lon="-7.7114330">
        <ele>621.1</ele>
        <time>2020-10-19T09:19:15Z</time>
      </trkpt>
      <trkpt lat="42.8328950" lon="-7.7114500">
        <ele>621.3</ele>
        <time>2020-10-19T09:19:16Z</time>
      </trkpt>
      <trkpt lat="42.8329030" lon="-7.7114660">
        <ele>621.4</ele>
        <time>2020-10-19T09:19:17Z</time>
      </trkpt>
      <trkpt lat="42.8329120" lon="-7.7114830">
        <ele>621.6</ele>
        <time>2020-10-19T09:19:18Z</time>
      </trkpt>
      <trkpt lat="42.8329220" lon="-7.7114980">
        <ele>621.8</ele>
        <time>2020-10-19T09:19:19Z</time>
      </trkpt>
      <trkpt lat="42.8329310" lon="-7.7115140">
        <ele>621.9</ele>
        <time>2020-10-19T09:19:20Z</time>
      </trkpt>
      <trkpt lat="42.8329410" lon="-7.7115290">
        <ele>622.1</ele>
        <time>2020-10-19T09:19:21Z</time>
      </trkpt>
      <trkpt lat="42.8329500" lon="-7.7115440">
        <ele>622.2</ele>
        <time>2020-10-19T09:19:22Z</time>
      </trkpt>
      <trkpt lat="42.8329600" lon="-7.7115600">
        <ele>622.4</ele>
        <time>2020-10-19T09:19:23Z</time>
      </trkpt>
      <trkpt lat="42.8329680" lon="-7.7115760">
        <ele>622.6</ele>
        <time>2020-10-19T09:19:24Z</time>
      </trkpt>
      <trkpt lat="42.8329770" lon="-7.7115930">
        <ele>622.7</ele>
        <time>2020-10-19T09:19:25Z</time>
      </trkpt>
      <trkpt lat="42.8329850" lon="-7.7116110">
        <ele>622.9</ele>
        <time>2020-10-19T09:19:26Z</time>
      </trkpt>
      <trkpt lat="42.8329940" lon="-7.7116280">
        <ele>623.0</ele>
        <time>2020-10-19T09:19:27Z</time>
      </trkpt>
      <trkpt lat="42.8330040" lon="-7.7116440">
        <ele>623.2</ele>
        <time>2020-10-19T09:19:28Z</time>
      </trkpt>
      <trkpt lat="42.8330130" lon="-7.7116610">
        <ele>623.4</ele>
        <time>2020-10-19T09:19:29Z</time>
      </trkpt>
      <trkpt lat="42.8330220" lon="-7.7116770">
        <ele>623.5</ele>
        <time>2020-10-19T09:19:30Z</time>
      </trkpt>
      <trkpt lat="42.8330300" lon="-7.7116950">
        <ele>623.7</ele>
        <time>2020-10-19T09:19:31Z</time>
      </trkpt>
      <trkpt lat="42.8330380" lon="-7.7117110">
        <ele>623.8</ele>
        <time>2020-10-19T09:19:32Z</time>
      </trkpt>
      <trkpt lat="42.8330470" lon="-7.7117270">
        <ele>624.0</ele>
        <time>2020-10-19T09:19:33Z</time>
      </trkpt>
      <trkpt lat="42.8330560" lon="-7.7117420">
        <ele>624.1</ele>
        <time>2020-10-19T09:19:34Z</time>
      </trkpt>
      <trkpt lat="42.8330650" lon="-7.7117570">
        <ele>624.3</ele>
        <time>2020-10-19T09:19:35Z</time>
      </trkpt>
      <trkpt lat="42.8330750" lon="-7.7117720">
        <ele>624.4</ele>
        <time>2020-10-19T09:19:36Z</time>
      </trkpt>
      <trkpt lat="42.8330840" lon="-7.7117870">
        <ele>624.5</ele>
        <time>2020-10-19T09:19:37Z</time>
      </trkpt>
      <trkpt lat="42.8330930" lon="-7.7118020">
        <ele>624.7</ele>
        <time>2020-10-19T09:19:38Z</time>
      </trkpt>
      <trkpt lat="42.8331020" lon="-7.7118180">
        <ele>624.8</ele>
        <time>2020-10-19T09:19:39Z</time>
      </trkpt>
      <trkpt lat="42.8331110" lon="-7.7118330">
        <ele>625.0</ele>
        <time>2020-10-19T09:19:40Z</time>
      </trkpt>
      <trkpt lat="42.8331190" lon="-7.7118500">
        <ele>625.1</ele>
        <time>2020-10-19T09:19:41Z</time>
      </trkpt>
      <trkpt lat="42.8331260" lon="-7.7118670">
        <ele>625.3</ele>
        <time>2020-10-19T09:19:42Z</time>
      </trkpt>
      <trkpt lat="42.8331330" lon="-7.7118860">
        <ele>625.4</ele>
        <time>2020-10-19T09:19:43Z</time>
      </trkpt>
      <trkpt lat="42.8331400" lon="-7.7119040">
        <ele>625.6</ele>
        <time>2020-10-19T09:19:44Z</time>
      </trkpt>
      <trkpt lat="42.8331470" lon="-7.7119230">
        <ele>625.7</ele>
        <time>2020-10-19T09:19:45Z</time>
      </trkpt>
      <trkpt lat="42.8331540" lon="-7.7119410">
        <ele>625.9</ele>
        <time>2020-10-19T09:19:46Z</time>
      </trkpt>
      <trkpt lat="42.8331600" lon="-7.7119590">
        <ele>626.0</ele>
        <time>2020-10-19T09:19:47Z</time>
      </trkpt>
      <trkpt lat="42.8331640" lon="-7.7119760">
        <ele>626.2</ele>
        <time>2020-10-19T09:19:48Z</time>
      </trkpt>
      <trkpt lat="42.8331690" lon="-7.7119940">
        <ele>626.3</ele>
        <time>2020-10-19T09:19:49Z</time>
      </trkpt>
      <trkpt lat="42.8331730" lon="-7.7120130">
        <ele>626.7</ele>
        <time>2020-10-19T09:19:50Z</time>
      </trkpt>
      <trkpt lat="42.8331770" lon="-7.7120320">
        <ele>626.9</ele>
        <time>2020-10-19T09:19:51Z</time>
      </trkpt>
      <trkpt lat="42.8331800" lon="-7.7120520">
        <ele>627.0</ele>
        <time>2020-10-19T09:19:52Z</time>
      </trkpt>
      <trkpt lat="42.8331830" lon="-7.7120700">
        <ele>627.1</ele>
        <time>2020-10-19T09:19:53Z</time>
      </trkpt>
      <trkpt lat="42.8331860" lon="-7.7120890">
        <ele>627.3</ele>
        <time>2020-10-19T09:19:54Z</time>
      </trkpt>
      <trkpt lat="42.8331900" lon="-7.7121060">
        <ele>627.4</ele>
        <time>2020-10-19T09:19:55Z</time>
      </trkpt>
      <trkpt lat="42.8331940" lon="-7.7121230">
        <ele>627.5</ele>
        <time>2020-10-19T09:19:56Z</time>
      </trkpt>
      <trkpt lat="42.8332000" lon="-7.7121400">
        <ele>627.6</ele>
        <time>2020-10-19T09:19:57Z</time>
      </trkpt>
      <trkpt lat="42.8332070" lon="-7.7121570">
        <ele>627.7</ele>
        <time>2020-10-19T09:19:58Z</time>
      </trkpt>
      <trkpt lat="42.8332130" lon="-7.7121740">
        <ele>627.8</ele>
        <time>2020-10-19T09:19:59Z</time>
      </trkpt>
      <trkpt lat="42.8332200" lon="-7.7121920">
        <ele>627.9</ele>
        <time>2020-10-19T09:20:00Z</time>
      </trkpt>
      <trkpt lat="42.8332280" lon="-7.7122080">
        <ele>628.0</ele>
        <time>2020-10-19T09:20:01Z</time>
      </trkpt>
      <trkpt lat="42.8332350" lon="-7.7122270">
        <ele>628.1</ele>
        <time>2020-10-19T09:20:02Z</time>
      </trkpt>
      <trkpt lat="42.8332410" lon="-7.7122460">
        <ele>628.2</ele>
        <time>2020-10-19T09:20:03Z</time>
      </trkpt>
      <trkpt lat="42.8332470" lon="-7.7122660">
        <ele>628.3</ele>
        <time>2020-10-19T09:20:04Z</time>
      </trkpt>
      <trkpt lat="42.8332530" lon="-7.7122840">
        <ele>628.4</ele>
        <time>2020-10-19T09:20:05Z</time>
      </trkpt>
      <trkpt lat="42.8332590" lon="-7.7123040">
        <ele>628.5</ele>
        <time>2020-10-19T09:20:06Z</time>
      </trkpt>
      <trkpt lat="42.8332670" lon="-7.7123210">
        <ele>628.6</ele>
        <time>2020-10-19T09:20:07Z</time>
      </trkpt>
      <trkpt lat="42.8332760" lon="-7.7123380">
        <ele>628.7</ele>
        <time>2020-10-19T09:20:08Z</time>
      </trkpt>
      <trkpt lat="42.8332850" lon="-7.7123550">
        <ele>628.8</ele>
        <time>2020-10-19T09:20:09Z</time>
      </trkpt>
      <trkpt lat="42.8332940" lon="-7.7123720">
        <ele>628.9</ele>
        <time>2020-10-19T09:20:10Z</time>
      </trkpt>
      <trkpt lat="42.8333030" lon="-7.7123900">
        <ele>629.0</ele>
        <time>2020-10-19T09:20:11Z</time>
      </trkpt>
      <trkpt lat="42.8333110" lon="-7.7124070">
        <ele>629.1</ele>
        <time>2020-10-19T09:20:12Z</time>
      </trkpt>
      <trkpt lat="42.8333190" lon="-7.7124230">
        <ele>629.2</ele>
        <time>2020-10-19T09:20:13Z</time>
      </trkpt>
      <trkpt lat="42.8333260" lon="-7.7124410">
        <ele>629.4</ele>
        <time>2020-10-19T09:20:14Z</time>
      </trkpt>
      <trkpt lat="42.8333330" lon="-7.7124580">
        <ele>629.5</ele>
        <time>2020-10-19T09:20:15Z</time>
      </trkpt>
      <trkpt lat="42.8333410" lon="-7.7124750">
        <ele>629.6</ele>
        <time>2020-10-19T09:20:16Z</time>
      </trkpt>
      <trkpt lat="42.8333490" lon="-7.7124900">
        <ele>629.7</ele>
        <time>2020-10-19T09:20:17Z</time>
      </trkpt>
      <trkpt lat="42.8333570" lon="-7.7125050">
        <ele>629.8</ele>
        <time>2020-10-19T09:20:18Z</time>
      </trkpt>
      <trkpt lat="42.8333640" lon="-7.7125210">
        <ele>629.9</ele>
        <time>2020-10-19T09:20:19Z</time>
      </trkpt>
      <trkpt lat="42.8333710" lon="-7.7125380">
        <ele>630.0</ele>
        <time>2020-10-19T09:20:20Z</time>
      </trkpt>
      <trkpt lat="42.8333780" lon="-7.7125560">
        <ele>630.1</ele>
        <time>2020-10-19T09:20:21Z</time>
      </trkpt>
      <trkpt lat="42.8333850" lon="-7.7125740">
        <ele>630.2</ele>
        <time>2020-10-19T09:20:22Z</time>
      </trkpt>
      <trkpt lat="42.8333920" lon="-7.7125910">
        <ele>630.3</ele>
        <time>2020-10-19T09:20:23Z</time>
      </trkpt>
      <trkpt lat="42.8333980" lon="-7.7126080">
        <ele>630.4</ele>
        <time>2020-10-19T09:20:24Z</time>
      </trkpt>
      <trkpt lat="42.8334050" lon="-7.7126250">
        <ele>630.5</ele>
        <time>2020-10-19T09:20:25Z</time>
      </trkpt>
      <trkpt lat="42.8334120" lon="-7.7126420">
        <ele>630.6</ele>
        <time>2020-10-19T09:20:26Z</time>
      </trkpt>
      <trkpt lat="42.8334190" lon="-7.7126580">
        <ele>630.7</ele>
        <time>2020-10-19T09:20:27Z</time>
      </trkpt>
      <trkpt lat="42.8334260" lon="-7.7126750">
        <ele>630.8</ele>
        <time>2020-10-19T09:20:28Z</time>
      </trkpt>
      <trkpt lat="42.8334340" lon="-7.7126910">
        <ele>630.9</ele>
        <time>2020-10-19T09:20:29Z</time>
      </trkpt>
      <trkpt lat="42.8334420" lon="-7.7127080">
        <ele>631.0</ele>
        <time>2020-10-19T09:20:30Z</time>
      </trkpt>
      <trkpt lat="42.8334490" lon="-7.7127250">
        <ele>631.1</ele>
        <time>2020-10-19T09:20:31Z</time>
      </trkpt>
      <trkpt lat="42.8334550" lon="-7.7127440">
        <ele>631.3</ele>
        <time>2020-10-19T09:20:32Z</time>
      </trkpt>
      <trkpt lat="42.8334610" lon="-7.7127610">
        <ele>631.4</ele>
        <time>2020-10-19T09:20:33Z</time>
      </trkpt>
      <trkpt lat="42.8334670" lon="-7.7127800">
        <ele>631.5</ele>
        <time>2020-10-19T09:20:34Z</time>
      </trkpt>
      <trkpt lat="42.8334740" lon="-7.7127980">
        <ele>631.6</ele>
        <time>2020-10-19T09:20:35Z</time>
      </trkpt>
      <trkpt lat="42.8334810" lon="-7.7128160">
        <ele>631.7</ele>
        <time>2020-10-19T09:20:36Z</time>
      </trkpt>
      <trkpt lat="42.8334890" lon="-7.7128340">
        <ele>631.8</ele>
        <time>2020-10-19T09:20:37Z</time>
      </trkpt>
      <trkpt lat="42.8334960" lon="-7.7128510">
        <ele>631.9</ele>
        <time>2020-10-19T09:20:38Z</time>
      </trkpt>
      <trkpt lat="42.8335040" lon="-7.7128690">
        <ele>632.0</ele>
        <time>2020-10-19T09:20:39Z</time>
      </trkpt>
      <trkpt lat="42.8335120" lon="-7.7128870">
        <ele>632.1</ele>
        <time>2020-10-19T09:20:40Z</time>
      </trkpt>
      <trkpt lat="42.8335180" lon="-7.7129050">
        <ele>632.3</ele>
        <time>2020-10-19T09:20:41Z</time>
      </trkpt>
      <trkpt lat="42.8335250" lon="-7.7129230">
        <ele>632.4</ele>
        <time>2020-10-19T09:20:42Z</time>
      </trkpt>
      <trkpt lat="42.8335310" lon="-7.7129410">
        <ele>632.5</ele>
        <time>2020-10-19T09:20:43Z</time>
      </trkpt>
      <trkpt lat="42.8335380" lon="-7.7129590">
        <ele>632.6</ele>
        <time>2020-10-19T09:20:44Z</time>
      </trkpt>
      <trkpt lat="42.8335450" lon="-7.7129780">
        <ele>632.7</ele>
        <time>2020-10-19T09:20:45Z</time>
      </trkpt>
      <trkpt lat="42.8335510" lon="-7.7129960">
        <ele>632.8</ele>
        <time>2020-10-19T09:20:46Z</time>
      </trkpt>
      <trkpt lat="42.8335570" lon="-7.7130140">
        <ele>633.0</ele>
        <time>2020-10-19T09:20:47Z</time>
      </trkpt>
      <trkpt lat="42.8335630" lon="-7.7130320">
        <ele>633.1</ele>
        <time>2020-10-19T09:20:48Z</time>
      </trkpt>
      <trkpt lat="42.8335670" lon="-7.7130500">
        <ele>633.2</ele>
        <time>2020-10-19T09:20:49Z</time>
      </trkpt>
      <trkpt lat="42.8335720" lon="-7.7130690">
        <ele>633.3</ele>
        <time>2020-10-19T09:20:50Z</time>
      </trkpt>
      <trkpt lat="42.8335760" lon="-7.7130880">
        <ele>633.4</ele>
        <time>2020-10-19T09:20:51Z</time>
      </trkpt>
      <trkpt lat="42.8335810" lon="-7.7131070">
        <ele>633.6</ele>
        <time>2020-10-19T09:20:52Z</time>
      </trkpt>
      <trkpt lat="42.8335860" lon="-7.7131260">
        <ele>633.7</ele>
        <time>2020-10-19T09:20:53Z</time>
      </trkpt>
      <trkpt lat="42.8335930" lon="-7.7131450">
        <ele>633.8</ele>
        <time>2020-10-19T09:20:54Z</time>
      </trkpt>
      <trkpt lat="42.8335990" lon="-7.7131640">
        <ele>633.9</ele>
        <time>2020-10-19T09:20:55Z</time>
      </trkpt>
      <trkpt lat="42.8336060" lon="-7.7131820">
        <ele>634.1</ele>
        <time>2020-10-19T09:20:56Z</time>
      </trkpt>
      <trkpt lat="42.8336120" lon="-7.7132000">
        <ele>634.2</ele>
        <time>2020-10-19T09:20:57Z</time>
      </trkpt>
      <trkpt lat="42.8336180" lon="-7.7132170">
        <ele>634.3</ele>
        <time>2020-10-19T09:20:58Z</time>
      </trkpt>
      <trkpt lat="42.8336220" lon="-7.7132360">
        <ele>634.5</ele>
        <time>2020-10-19T09:20:59Z</time>
      </trkpt>
      <trkpt lat="42.8336260" lon="-7.7132560">
        <ele>634.6</ele>
        <time>2020-10-19T09:21:00Z</time>
      </trkpt>
      <trkpt lat="42.8336300" lon="-7.7132760">
        <ele>634.8</ele>
        <time>2020-10-19T09:21:01Z</time>
      </trkpt>
      <trkpt lat="42.8336340" lon="-7.7132970">
        <ele>634.9</ele>
        <time>2020-10-19T09:21:02Z</time>
      </trkpt>
      <trkpt lat="42.8336390" lon="-7.7133160">
        <ele>635.1</ele>
        <time>2020-10-19T09:21:03Z</time>
      </trkpt>
      <trkpt lat="42.8336450" lon="-7.7133340">
        <ele>635.2</ele>
        <time>2020-10-19T09:21:04Z</time>
      </trkpt>
      <trkpt lat="42.8336500" lon="-7.7133510">
        <ele>635.4</ele>
        <time>2020-10-19T09:21:05Z</time>
      </trkpt>
      <trkpt lat="42.8336550" lon="-7.7133690">
        <ele>635.5</ele>
        <time>2020-10-19T09:21:06Z</time>
      </trkpt>
      <trkpt lat="42.8336580" lon="-7.7133880">
        <ele>635.6</ele>
        <time>2020-10-19T09:21:07Z</time>
      </trkpt>
      <trkpt lat="42.8336610" lon="-7.7134070">
        <ele>635.8</ele>
        <time>2020-10-19T09:21:08Z</time>
      </trkpt>
      <trkpt lat="42.8336620" lon="-7.7134270">
        <ele>635.9</ele>
        <time>2020-10-19T09:21:09Z</time>
      </trkpt>
      <trkpt lat="42.8336620" lon="-7.7134470">
        <ele>636.1</ele>
        <time>2020-10-19T09:21:10Z</time>
      </trkpt>
      <trkpt lat="42.8336610" lon="-7.7134660">
        <ele>636.2</ele>
        <time>2020-10-19T09:21:11Z</time>
      </trkpt>
      <trkpt lat="42.8336600" lon="-7.7134820">
        <ele>636.3</ele>
        <time>2020-10-19T09:21:12Z</time>
      </trkpt>
      <trkpt lat="42.8336600" lon="-7.7134990">
        <ele>636.5</ele>
        <time>2020-10-19T09:21:13Z</time>
      </trkpt>
      <trkpt lat="42.8336620" lon="-7.7135170">
        <ele>636.6</ele>
        <time>2020-10-19T09:21:14Z</time>
      </trkpt>
      <trkpt lat="42.8336640" lon="-7.7135380">
        <ele>636.8</ele>
        <time>2020-10-19T09:21:15Z</time>
      </trkpt>
      <trkpt lat="42.8336650" lon="-7.7135580">
        <ele>636.9</ele>
        <time>2020-10-19T09:21:16Z</time>
      </trkpt>
      <trkpt lat="42.8336680" lon="-7.7135780">
        <ele>637.1</ele>
        <time>2020-10-19T09:21:17Z</time>
      </trkpt>
      <trkpt lat="42.8336730" lon="-7.7135950">
        <ele>637.2</ele>
        <time>2020-10-19T09:21:18Z</time>
      </trkpt>
      <trkpt lat="42.8336810" lon="-7.7136090">
        <ele>637.5</ele>
        <time>2020-10-19T09:21:19Z</time>
      </trkpt>
      <trkpt lat="42.8336900" lon="-7.7136220">
        <ele>637.5</ele>
        <time>2020-10-19T09:21:20Z</time>
      </trkpt>
      <trkpt lat="42.8337020" lon="-7.7136340">
        <ele>637.6</ele>
        <time>2020-10-19T09:21:21Z</time>
      </trkpt>
      <trkpt lat="42.8337130" lon="-7.7136450">
        <ele>637.7</ele>
        <time>2020-10-19T09:21:22Z</time>
      </trkpt>
      <trkpt lat="42.8337250" lon="-7.7136570">
        <ele>637.8</ele>
        <time>2020-10-19T09:21:23Z</time>
      </trkpt>
      <trkpt lat="42.8337340" lon="-7.7136700">
        <ele>637.8</ele>
        <time>2020-10-19T09:21:24Z</time>
      </trkpt>
      <trkpt lat="42.8337430" lon="-7.7136830">
        <ele>638.0</ele>
        <time>2020-10-19T09:21:25Z</time>
      </trkpt>
      <trkpt lat="42.8337490" lon="-7.7136980">
        <ele>638.0</ele>
        <time>2020-10-19T09:21:26Z</time>
      </trkpt>
      <trkpt lat="42.8337550" lon="-7.7137130">
        <ele>638.1</ele>
        <time>2020-10-19T09:21:27Z</time>
      </trkpt>
      <trkpt lat="42.8337590" lon="-7.7137290">
        <ele>638.2</ele>
        <time>2020-10-19T09:21:28Z</time>
      </trkpt>
      <trkpt lat="42.8337650" lon="-7.7137450">
        <ele>638.3</ele>
        <time>2020-10-19T09:21:29Z</time>
      </trkpt>
      <trkpt lat="42.8337700" lon="-7.7137620">
        <ele>638.3</ele>
        <time>2020-10-19T09:21:30Z</time>
      </trkpt>
      <trkpt lat="42.8337760" lon="-7.7137790">
        <ele>638.4</ele>
        <time>2020-10-19T09:21:31Z</time>
      </trkpt>
      <trkpt lat="42.8337810" lon="-7.7137960">
        <ele>638.5</ele>
        <time>2020-10-19T09:21:32Z</time>
      </trkpt>
      <trkpt lat="42.8337860" lon="-7.7138130">
        <ele>638.6</ele>
        <time>2020-10-19T09:21:33Z</time>
      </trkpt>
      <trkpt lat="42.8337890" lon="-7.7138290">
        <ele>638.6</ele>
        <time>2020-10-19T09:21:34Z</time>
      </trkpt>
      <trkpt lat="42.8337910" lon="-7.7138470">
        <ele>638.7</ele>
        <time>2020-10-19T09:21:35Z</time>
      </trkpt>
      <trkpt lat="42.8337930" lon="-7.7138650">
        <ele>638.8</ele>
        <time>2020-10-19T09:21:36Z</time>
      </trkpt>
      <trkpt lat="42.8337950" lon="-7.7138820">
        <ele>638.8</ele>
        <time>2020-10-19T09:21:37Z</time>
      </trkpt>
      <trkpt lat="42.8337970" lon="-7.7138980">
        <ele>638.9</ele>
        <time>2020-10-19T09:21:38Z</time>
      </trkpt>
      <trkpt lat="42.8337990" lon="-7.7139130">
        <ele>639.0</ele>
        <time>2020-10-19T09:21:39Z</time>
      </trkpt>
      <trkpt lat="42.8338010" lon="-7.7139270">
        <ele>639.0</ele>
        <time>2020-10-19T09:21:40Z</time>
      </trkpt>
      <trkpt lat="42.8338030" lon="-7.7139340">
        <ele>639.1</ele>
        <time>2020-10-19T09:21:41Z</time>
      </trkpt>
      <trkpt lat="42.8338030" lon="-7.7139370">
        <ele>639.1</ele>
        <time>2020-10-19T09:21:42Z</time>
      </trkpt>
      <trkpt lat="42.8338010" lon="-7.7139370">
        <ele>639.1</ele>
        <time>2020-10-19T09:21:43Z</time>
      </trkpt>
      <trkpt lat="42.8337990" lon="-7.7139370">
        <ele>639.1</ele>
        <time>2020-10-19T09:21:44Z</time>
      </trkpt>
      <trkpt lat="42.8337970" lon="-7.7139380">
        <ele>639.1</ele>
        <time>2020-10-19T09:21:45Z</time>
      </trkpt>
      <trkpt lat="42.8337970" lon="-7.7139380">
        <ele>639.1</ele>
        <time>2020-10-19T09:21:46Z</time>
      </trkpt>
      <trkpt lat="42.8337990" lon="-7.7139370">
        <ele>639.1</ele>
        <time>2020-10-19T09:21:47Z</time>
      </trkpt>
      <trkpt lat="42.8338020" lon="-7.7139360">
        <ele>639.2</ele>
        <time>2020-10-19T09:21:48Z</time>
      </trkpt>
      <trkpt lat="42.8338030" lon="-7.7139350">
        <ele>639.2</ele>
        <time>2020-10-19T09:21:49Z</time>
      </trkpt>
      <trkpt lat="42.8338040" lon="-7.7139340">
        <ele>639.2</ele>
        <time>2020-10-19T09:21:50Z</time>
      </trkpt>
      <trkpt lat="42.8338050" lon="-7.7139330">
        <ele>639.2</ele>
        <time>2020-10-19T09:21:51Z</time>
      </trkpt>
      <trkpt lat="42.8338040" lon="-7.7139330">
        <ele>639.2</ele>
        <time>2020-10-19T09:21:52Z</time>
      </trkpt>
      <trkpt lat="42.8338030" lon="-7.7139340">
        <ele>639.2</ele>
        <time>2020-10-19T09:21:53Z</time>
      </trkpt>
      <trkpt lat="42.8338030" lon="-7.7139350">
        <ele>639.2</ele>
        <time>2020-10-19T09:21:54Z</time>
      </trkpt>
      <trkpt lat="42.8338030" lon="-7.7139360">
        <ele>639.2</ele>
        <time>2020-10-19T09:21:55Z</time>
      </trkpt>
      <trkpt lat="42.8338030" lon="-7.7139360">
        <ele>639.2</ele>
        <time>2020-10-19T09:21:56Z</time>
      </trkpt>
      <trkpt lat="42.8338040" lon="-7.7139360">
        <ele>639.2</ele>
        <time>2020-10-19T09:21:57Z</time>
      </trkpt>
      <trkpt lat="42.8338050" lon="-7.7139360">
        <ele>639.2</ele>
        <time>2020-10-19T09:21:58Z</time>
      </trkpt>
      <trkpt lat="42.8338070" lon="-7.7139360">
        <ele>639.2</ele>
        <time>2020-10-19T09:21:59Z</time>
      </trkpt>
      <trkpt lat="42.8338060" lon="-7.7139370">
        <ele>639.2</ele>
        <time>2020-10-19T09:22:00Z</time>
      </trkpt>
      <trkpt lat="42.8338050" lon="-7.7139380">
        <ele>639.2</ele>
        <time>2020-10-19T09:22:01Z</time>
      </trkpt>
      <trkpt lat="42.8338040" lon="-7.7139390">
        <ele>639.2</ele>
        <time>2020-10-19T09:22:02Z</time>
      </trkpt>
      <trkpt lat="42.8338030" lon="-7.7139400">
        <ele>639.3</ele>
        <time>2020-10-19T09:22:03Z</time>
      </trkpt>
      <trkpt lat="42.8338020" lon="-7.7139420">
        <ele>639.3</ele>
        <time>2020-10-19T09:22:04Z</time>
      </trkpt>
      <trkpt lat="42.8338000" lon="-7.7139440">
        <ele>639.3</ele>
        <time>2020-10-19T09:22:05Z</time>
      </trkpt>
      <trkpt lat="42.8338000" lon="-7.7139450">
        <ele>639.3</ele>
        <time>2020-10-19T09:22:06Z</time>
      </trkpt>
      <trkpt lat="42.8337990" lon="-7.7139470">
        <ele>639.3</ele>
        <time>2020-10-19T09:22:07Z</time>
      </trkpt>
      <trkpt lat="42.8337990" lon="-7.7139480">
        <ele>639.3</ele>
        <time>2020-10-19T09:22:08Z</time>
      </trkpt>
      <trkpt lat="42.8337990" lon="-7.7139490">
        <ele>639.3</ele>
        <time>2020-10-19T09:22:09Z</time>
      </trkpt>
      <trkpt lat="42.8337980" lon="-7.7139480">
        <ele>639.3</ele>
        <time>2020-10-19T09:22:10Z</time>
      </trkpt>
      <trkpt lat="42.8337980" lon="-7.7139470">
        <ele>639.3</ele>
        <time>2020-10-19T09:22:11Z</time>
      </trkpt>
      <trkpt lat="42.8337970" lon="-7.7139460">
        <ele>639.3</ele>
        <time>2020-10-19T09:22:12Z</time>
      </trkpt>
      <trkpt lat="42.8337970" lon="-7.7139450">
        <ele>639.3</ele>
        <time>2020-10-19T09:22:13Z</time>
      </trkpt>
      <trkpt lat="42.8337960" lon="-7.7139440">
        <ele>639.3</ele>
        <time>2020-10-19T09:22:14Z</time>
      </trkpt>
      <trkpt lat="42.8337960" lon="-7.7139440">
        <ele>639.3</ele>
        <time>2020-10-19T09:22:15Z</time>
      </trkpt>
      <trkpt lat="42.8337950" lon="-7.7139450">
        <ele>639.3</ele>
        <time>2020-10-19T09:22:16Z</time>
      </trkpt>
      <trkpt lat="42.8337940" lon="-7.7139460">
        <ele>639.3</ele>
        <time>2020-10-19T09:22:17Z</time>
      </trkpt>
      <trkpt lat="42.8337930" lon="-7.7139450">
        <ele>639.4</ele>
        <time>2020-10-19T09:22:18Z</time>
      </trkpt>
      <trkpt lat="42.8337930" lon="-7.7139450">
        <ele>639.4</ele>
        <time>2020-10-19T09:22:19Z</time>
      </trkpt>
      <trkpt lat="42.8337920" lon="-7.7139450">
        <ele>639.4</ele>
        <time>2020-10-19T09:22:20Z</time>
      </trkpt>
      <trkpt lat="42.8337910" lon="-7.7139450">
        <ele>639.4</ele>
        <time>2020-10-19T09:22:21Z</time>
      </trkpt>
      <trkpt lat="42.8337900" lon="-7.7139450">
        <ele>639.4</ele>
        <time>2020-10-19T09:22:22Z</time>
      </trkpt>
      <trkpt lat="42.8337890" lon="-7.7139460">
        <ele>639.4</ele>
        <time>2020-10-19T09:22:23Z</time>
      </trkpt>
      <trkpt lat="42.8337890" lon="-7.7139460">
        <ele>639.4</ele>
        <time>2020-10-19T09:22:24Z</time>
      </trkpt>
      <trkpt lat="42.8337900" lon="-7.7139460">
        <ele>639.4</ele>
        <time>2020-10-19T09:22:25Z</time>
      </trkpt>
      <trkpt lat="42.8337900" lon="-7.7139470">
        <ele>639.4</ele>
        <time>2020-10-19T09:22:26Z</time>
      </trkpt>
      <trkpt lat="42.8337900" lon="-7.7139480">
        <ele>639.4</ele>
        <time>2020-10-19T09:22:27Z</time>
      </trkpt>
      <trkpt lat="42.8337880" lon="-7.7139490">
        <ele>639.4</ele>
        <time>2020-10-19T09:22:28Z</time>
      </trkpt>
      <trkpt lat="42.8337850" lon="-7.7139500">
        <ele>639.4</ele>
        <time>2020-10-19T09:22:29Z</time>
      </trkpt>
      <trkpt lat="42.8337840" lon="-7.7139490">
        <ele>639.4</ele>
        <time>2020-10-19T09:22:30Z</time>
      </trkpt>
      <trkpt lat="42.8337840" lon="-7.7139480">
        <ele>639.4</ele>
        <time>2020-10-19T09:22:31Z</time>
      </trkpt>
      <trkpt lat="42.8337860" lon="-7.7139480">
        <ele>639.5</ele>
        <time>2020-10-19T09:22:32Z</time>
      </trkpt>
      <trkpt lat="42.8337890" lon="-7.7139480">
        <ele>639.5</ele>
        <time>2020-10-19T09:22:33Z</time>
      </trkpt>
      <trkpt lat="42.8337920" lon="-7.7139470">
        <ele>639.5</ele>
        <time>2020-10-19T09:22:34Z</time>
      </trkpt>
      <trkpt lat="42.8337930" lon="-7.7139460">
        <ele>639.5</ele>
        <time>2020-10-19T09:22:35Z</time>
      </trkpt>
      <trkpt lat="42.8337930" lon="-7.7139470">
        <ele>639.5</ele>
        <time>2020-10-19T09:22:36Z</time>
      </trkpt>
      <trkpt lat="42.8337930" lon="-7.7139480">
        <ele>639.5</ele>
        <time>2020-10-19T09:22:37Z</time>
      </trkpt>
      <trkpt lat="42.8337930" lon="-7.7139480">
        <ele>639.5</ele>
        <time>2020-10-19T09:22:38Z</time>
      </trkpt>
      <trkpt lat="42.8337940" lon="-7.7139480">
        <ele>639.5</ele>
        <time>2020-10-19T09:22:39Z</time>
      </trkpt>
      <trkpt lat="42.8337950" lon="-7.7139470">
        <ele>639.5</ele>
        <time>2020-10-19T09:22:40Z</time>
      </trkpt>
      <trkpt lat="42.8337960" lon="-7.7139460">
        <ele>639.5</ele>
        <time>2020-10-19T09:22:41Z</time>
      </trkpt>
      <trkpt lat="42.8337960" lon="-7.7139440">
        <ele>639.5</ele>
        <time>2020-10-19T09:22:42Z</time>
      </trkpt>
      <trkpt lat="42.8337960" lon="-7.7139430">
        <ele>639.5</ele>
        <time>2020-10-19T09:22:43Z</time>
      </trkpt>
      <trkpt lat="42.8337970" lon="-7.7139430">
        <ele>639.5</ele>
        <time>2020-10-19T09:22:44Z</time>
      </trkpt>
      <trkpt lat="42.8337970" lon="-7.7139430">
        <ele>639.5</ele>
        <time>2020-10-19T09:22:45Z</time>
      </trkpt>
      <trkpt lat="42.8337970" lon="-7.7139420">
        <ele>639.5</ele>
        <time>2020-10-19T09:22:46Z</time>
      </trkpt>
      <trkpt lat="42.8337960" lon="-7.7139420">
        <ele>639.6</ele>
        <time>2020-10-19T09:22:47Z</time>
      </trkpt>
      <trkpt lat="42.8337960" lon="-7.7139420">
        <ele>639.6</ele>
        <time>2020-10-19T09:22:48Z</time>
      </trkpt>
      <trkpt lat="42.8337950" lon="-7.7139420">
        <ele>639.6</ele>
        <time>2020-10-19T09:22:49Z</time>
      </trkpt>
      <trkpt lat="42.8337950" lon="-7.7139420">
        <ele>639.6</ele>
        <time>2020-10-19T09:22:50Z</time>
      </trkpt>
      <trkpt lat="42.8337940" lon="-7.7139430">
        <ele>639.6</ele>
        <time>2020-10-19T09:22:51Z</time>
      </trkpt>
      <trkpt lat="42.8337940" lon="-7.7139430">
        <ele>639.6</ele>
        <time>2020-10-19T09:22:52Z</time>
      </trkpt>
      <trkpt lat="42.8337940" lon="-7.7139440">
        <ele>639.6</ele>
        <time>2020-10-19T09:22:53Z</time>
      </trkpt>
      <trkpt lat="42.8337940" lon="-7.7139440">
        <ele>639.6</ele>
        <time>2020-10-19T09:22:54Z</time>
      </trkpt>
      <trkpt lat="42.8337940" lon="-7.7139430">
        <ele>639.6</ele>
        <time>2020-10-19T09:22:55Z</time>
      </trkpt>
      <trkpt lat="42.8337930" lon="-7.7139420">
        <ele>639.6</ele>
        <time>2020-10-19T09:22:56Z</time>
      </trkpt>
      <trkpt lat="42.8337940" lon="-7.7139390">
        <ele>639.6</ele>
        <time>2020-10-19T09:22:57Z</time>
      </trkpt>
      <trkpt lat="42.8337950" lon="-7.7139370">
        <ele>639.6</ele>
        <time>2020-10-19T09:22:58Z</time>
      </trkpt>
      <trkpt lat="42.8337960" lon="-7.7139370">
        <ele>639.6</ele>
        <time>2020-10-19T09:22:59Z</time>
      </trkpt>
      <trkpt lat="42.8337950" lon="-7.7139380">
        <ele>639.6</ele>
        <time>2020-10-19T09:23:00Z</time>
      </trkpt>
      <trkpt lat="42.8337950" lon="-7.7139390">
        <ele>639.6</ele>
        <time>2020-10-19T09:23:01Z</time>
      </trkpt>
      <trkpt lat="42.8337950" lon="-7.7139390">
        <ele>639.6</ele>
        <time>2020-10-19T09:23:02Z</time>
      </trkpt>
      <trkpt lat="42.8337960" lon="-7.7139400">
        <ele>639.6</ele>
        <time>2020-10-19T09:23:03Z</time>
      </trkpt>
      <trkpt lat="42.8337960" lon="-7.7139400">
        <ele>639.6</ele>
        <time>2020-10-19T09:23:04Z</time>
      </trkpt>
      <trkpt lat="42.8337970" lon="-7.7139400">
        <ele>639.6</ele>
        <time>2020-10-19T09:23:05Z</time>
      </trkpt>
      <trkpt lat="42.8337970" lon="-7.7139400">
        <ele>639.6</ele>
        <time>2020-10-19T09:23:06Z</time>
      </trkpt>
      <trkpt lat="42.8337980" lon="-7.7139410">
        <ele>639.6</ele>
        <time>2020-10-19T09:23:07Z</time>
      </trkpt>
      <trkpt lat="42.8337980" lon="-7.7139410">
        <ele>639.6</ele>
        <time>2020-10-19T09:23:08Z</time>
      </trkpt>
      <trkpt lat="42.8337980" lon="-7.7139420">
        <ele>639.7</ele>
        <time>2020-10-19T09:23:09Z</time>
      </trkpt>
      <trkpt lat="42.8337990" lon="-7.7139420">
        <ele>639.7</ele>
        <time>2020-10-19T09:23:10Z</time>
      </trkpt>
      <trkpt lat="42.8338000" lon="-7.7139420">
        <ele>639.7</ele>
        <time>2020-10-19T09:23:11Z</time>
      </trkpt>
      <trkpt lat="42.8338010" lon="-7.7139420">
        <ele>639.7</ele>
        <time>2020-10-19T09:23:12Z</time>
      </trkpt>
      <trkpt lat="42.8338020" lon="-7.7139430">
        <ele>639.7</ele>
        <time>2020-10-19T09:23:13Z</time>
      </trkpt>
      <trkpt lat="42.8338020" lon="-7.7139430">
        <ele>639.7</ele>
        <time>2020-10-19T09:23:14Z</time>
      </trkpt>
      <trkpt lat="42.8338020" lon="-7.7139430">
        <ele>639.7</ele>
        <time>2020-10-19T09:23:15Z</time>
      </trkpt>
      <trkpt lat="42.8338020" lon="-7.7139430">
        <ele>639.7</ele>
        <time>2020-10-19T09:23:16Z</time>
      </trkpt>
      <trkpt lat="42.8338020" lon="-7.7139430">
        <ele>639.7</ele>
        <time>2020-10-19T09:23:17Z</time>
      </trkpt>
      <trkpt lat="42.8338020" lon="-7.7139430">
        <ele>639.7</ele>
        <time>2020-10-19T09:23:18Z</time>
      </trkpt>
      <trkpt lat="42.8338020" lon="-7.7139440">
        <ele>639.7</ele>
        <time>2020-10-19T09:23:19Z</time>
      </trkpt>
      <trkpt lat="42.8338030" lon="-7.7139440">
        <ele>639.7</ele>
        <time>2020-10-19T09:23:20Z</time>
      </trkpt>
      <trkpt lat="42.8338030" lon="-7.7139450">
        <ele>639.7</ele>
        <time>2020-10-19T09:23:21Z</time>
      </trkpt>
      <trkpt lat="42.8338040" lon="-7.7139460">
        <ele>639.7</ele>
        <time>2020-10-19T09:23:22Z</time>
      </trkpt>
      <trkpt lat="42.8338030" lon="-7.7139470">
        <ele>639.7</ele>
        <time>2020-10-19T09:23:23Z</time>
      </trkpt>
      <trkpt lat="42.8338030" lon="-7.7139460">
        <ele>639.7</ele>
        <time>2020-10-19T09:23:24Z</time>
      </trkpt>
      <trkpt lat="42.8338020" lon="-7.7139470">
        <ele>639.7</ele>
        <time>2020-10-19T09:23:25Z</time>
      </trkpt>
      <trkpt lat="42.8338030" lon="-7.7139480">
        <ele>639.7</ele>
        <time>2020-10-19T09:23:26Z</time>
      </trkpt>
      <trkpt lat="42.8338030" lon="-7.7139500">
        <ele>639.7</ele>
        <time>2020-10-19T09:23:27Z</time>
      </trkpt>
      <trkpt lat="42.8338030" lon="-7.7139520">
        <ele>639.7</ele>
        <time>2020-10-19T09:23:28Z</time>
      </trkpt>
      <trkpt lat="42.8338040" lon="-7.7139530">
        <ele>639.8</ele>
        <time>2020-10-19T09:23:29Z</time>
      </trkpt>
      <trkpt lat="42.8338040" lon="-7.7139550">
        <ele>639.8</ele>
        <time>2020-10-19T09:23:30Z</time>
      </trkpt>
      <trkpt lat="42.8338050" lon="-7.7139560">
        <ele>639.8</ele>
        <time>2020-10-19T09:23:31Z</time>
      </trkpt>
      <trkpt lat="42.8338050" lon="-7.7139570">
        <ele>639.8</ele>
        <time>2020-10-19T09:23:32Z</time>
      </trkpt>
      <trkpt lat="42.8338040" lon="-7.7139570">
        <ele>639.8</ele>
        <time>2020-10-19T09:23:33Z</time>
      </trkpt>
      <trkpt lat="42.8338040" lon="-7.7139570">
        <ele>639.8</ele>
        <time>2020-10-19T09:23:34Z</time>
      </trkpt>
      <trkpt lat="42.8338040" lon="-7.7139560">
        <ele>639.8</ele>
        <time>2020-10-19T09:23:35Z</time>
      </trkpt>
      <trkpt lat="42.8338040" lon="-7.7139560">
        <ele>639.8</ele>
        <time>2020-10-19T09:23:36Z</time>
      </trkpt>
      <trkpt lat="42.8338040" lon="-7.7139550">
        <ele>639.8</ele>
        <time>2020-10-19T09:23:37Z</time>
      </trkpt>
      <trkpt lat="42.8338050" lon="-7.7139530">
        <ele>639.8</ele>
        <time>2020-10-19T09:23:38Z</time>
      </trkpt>
      <trkpt lat="42.8338060" lon="-7.7139520">
        <ele>639.8</ele>
        <time>2020-10-19T09:23:39Z</time>
      </trkpt>
      <trkpt lat="42.8338060" lon="-7.7139520">
        <ele>639.8</ele>
        <time>2020-10-19T09:23:40Z</time>
      </trkpt>
      <trkpt lat="42.8338060" lon="-7.7139510">
        <ele>639.8</ele>
        <time>2020-10-19T09:23:41Z</time>
      </trkpt>
      <trkpt lat="42.8338050" lon="-7.7139510">
        <ele>639.8</ele>
        <time>2020-10-19T09:23:42Z</time>
      </trkpt>
      <trkpt lat="42.8338040" lon="-7.7139510">
        <ele>639.8</ele>
        <time>2020-10-19T09:23:43Z</time>
      </trkpt>
      <trkpt lat="42.8338040" lon="-7.7139510">
        <ele>639.8</ele>
        <time>2020-10-19T09:23:44Z</time>
      </trkpt>
      <trkpt lat="42.8338040" lon="-7.7139510">
        <ele>639.8</ele>
        <time>2020-10-19T09:23:45Z</time>
      </trkpt>
      <trkpt lat="42.8338040" lon="-7.7139520">
        <ele>639.8</ele>
        <time>2020-10-19T09:23:46Z</time>
      </trkpt>
      <trkpt lat="42.8338040" lon="-7.7139520">
        <ele>639.8</ele>
        <time>2020-10-19T09:23:47Z</time>
      </trkpt>
      <trkpt lat="42.8338040" lon="-7.7139530">
        <ele>639.8</ele>
        <time>2020-10-19T09:23:48Z</time>
      </trkpt>
      <trkpt lat="42.8338040" lon="-7.7139540">
        <ele>639.8</ele>
        <time>2020-10-19T09:23:49Z</time>
      </trkpt>
      <trkpt lat="42.8338040" lon="-7.7139540">
        <ele>639.8</ele>
        <time>2020-10-19T09:23:50Z</time>
      </trkpt>
      <trkpt lat="42.8338030" lon="-7.7139550">
        <ele>639.8</ele>
        <time>2020-10-19T09:23:51Z</time>
      </trkpt>
      <trkpt lat="42.8338030" lon="-7.7139550">
        <ele>639.8</ele>
        <time>2020-10-19T09:23:52Z</time>
      </trkpt>
      <trkpt lat="42.8338030" lon="-7.7139560">
        <ele>639.8</ele>
        <time>2020-10-19T09:23:53Z</time>
      </trkpt>
      <trkpt lat="42.8338020" lon="-7.7139560">
        <ele>639.9</ele>
        <time>2020-10-19T09:23:54Z</time>
      </trkpt>
      <trkpt lat="42.8338020" lon="-7.7139570">
        <ele>639.9</ele>
        <time>2020-10-19T09:23:55Z</time>
      </trkpt>
      <trkpt lat="42.8338030" lon="-7.7139580">
        <ele>639.9</ele>
        <time>2020-10-19T09:23:56Z</time>
      </trkpt>
      <trkpt lat="42.8338040" lon="-7.7139600">
        <ele>639.9</ele>
        <time>2020-10-19T09:23:57Z</time>
      </trkpt>
      <trkpt lat="42.8338050" lon="-7.7139610">
        <ele>639.9</ele>
        <time>2020-10-19T09:23:58Z</time>
      </trkpt>
      <trkpt lat="42.8338050" lon="-7.7139610">
        <ele>639.9</ele>
        <time>2020-10-19T09:23:59Z</time>
      </trkpt>
      <trkpt lat="42.8338050" lon="-7.7139600">
        <ele>639.9</ele>
        <time>2020-10-19T09:24:00Z</time>
      </trkpt>
      <trkpt lat="42.8338050" lon="-7.7139580">
        <ele>639.9</ele>
        <time>2020-10-19T09:24:01Z</time>
      </trkpt>
      <trkpt lat="42.8338040" lon="-7.7139570">
        <ele>639.9</ele>
        <time>2020-10-19T09:24:02Z</time>
      </trkpt>
      <trkpt lat="42.8338040" lon="-7.7139570">
        <ele>639.9</ele>
        <time>2020-10-19T09:24:03Z</time>
      </trkpt>
      <trkpt lat="42.8338030" lon="-7.7139570">
        <ele>639.9</ele>
        <time>2020-10-19T09:24:04Z</time>
      </trkpt>
      <trkpt lat="42.8338030" lon="-7.7139570">
        <ele>639.9</ele>
        <time>2020-10-19T09:24:05Z</time>
      </trkpt>
      <trkpt lat="42.8338030" lon="-7.7139570">
        <ele>639.9</ele>
        <time>2020-10-19T09:24:06Z</time>
      </trkpt>
      <trkpt lat="42.8338030" lon="-7.7139560">
        <ele>639.9</ele>
        <time>2020-10-19T09:24:07Z</time>
      </trkpt>
      <trkpt lat="42.8338020" lon="-7.7139550">
        <ele>639.9</ele>
        <time>2020-10-19T09:24:08Z</time>
      </trkpt>
      <trkpt lat="42.8338020" lon="-7.7139550">
        <ele>639.9</ele>
        <time>2020-10-19T09:24:09Z</time>
      </trkpt>
      <trkpt lat="42.8338020" lon="-7.7139550">
        <ele>639.9</ele>
        <time>2020-10-19T09:24:10Z</time>
      </trkpt>
      <trkpt lat="42.8338020" lon="-7.7139550">
        <ele>639.9</ele>
        <time>2020-10-19T09:24:11Z</time>
      </trkpt>
      <trkpt lat="42.8338020" lon="-7.7139550">
        <ele>639.9</ele>
        <time>2020-10-19T09:24:12Z</time>
      </trkpt>
      <trkpt lat="42.8338020" lon="-7.7139550">
        <ele>639.9</ele>
        <time>2020-10-19T09:24:13Z</time>
      </trkpt>
      <trkpt lat="42.8338020" lon="-7.7139550">
        <ele>639.9</ele>
        <time>2020-10-19T09:24:14Z</time>
      </trkpt>
      <trkpt lat="42.8338020" lon="-7.7139550">
        <ele>639.9</ele>
        <time>2020-10-19T09:24:15Z</time>
      </trkpt>
      <trkpt lat="42.8338020" lon="-7.7139560">
        <ele>639.9</ele>
        <time>2020-10-19T09:24:16Z</time>
      </trkpt>
      <trkpt lat="42.8338020" lon="-7.7139560">
        <ele>639.9</ele>
        <time>2020-10-19T09:24:17Z</time>
      </trkpt>
      <trkpt lat="42.8338020" lon="-7.7139560">
        <ele>639.9</ele>
        <time>2020-10-19T09:24:18Z</time>
      </trkpt>
      <trkpt lat="42.8338020" lon="-7.7139570">
        <ele>639.9</ele>
        <time>2020-10-19T09:24:19Z</time>
      </trkpt>
      <trkpt lat="42.8338020" lon="-7.7139570">
        <ele>639.9</ele>
        <time>2020-10-19T09:24:20Z</time>
      </trkpt>
      <trkpt lat="42.8338020" lon="-7.7139580">
        <ele>639.9</ele>
        <time>2020-10-19T09:24:21Z</time>
      </trkpt>
      <trkpt lat="42.8338020" lon="-7.7139580">
        <ele>639.9</ele>
        <time>2020-10-19T09:24:22Z</time>
      </trkpt>
      <trkpt lat="42.8338020" lon="-7.7139590">
        <ele>639.9</ele>
        <time>2020-10-19T09:24:23Z</time>
      </trkpt>
      <trkpt lat="42.8338010" lon="-7.7139590">
        <ele>639.9</ele>
        <time>2020-10-19T09:24:24Z</time>
      </trkpt>
      <trkpt lat="42.8338010" lon="-7.7139600">
        <ele>639.9</ele>
        <time>2020-10-19T09:24:25Z</time>
      </trkpt>
      <trkpt lat="42.8338010" lon="-7.7139600">
        <ele>639.9</ele>
        <time>2020-10-19T09:24:26Z</time>
      </trkpt>
      <trkpt lat="42.8338000" lon="-7.7139600">
        <ele>640.0</ele>
        <time>2020-10-19T09:24:27Z</time>
      </trkpt>
      <trkpt lat="42.8338000" lon="-7.7139610">
        <ele>640.0</ele>
        <time>2020-10-19T09:24:28Z</time>
      </trkpt>
      <trkpt lat="42.8338000" lon="-7.7139620">
        <ele>640.0</ele>
        <time>2020-10-19T09:24:29Z</time>
      </trkpt>
      <trkpt lat="42.8338000" lon="-7.7139620">
        <ele>640.0</ele>
        <time>2020-10-19T09:24:30Z</time>
      </trkpt>
      <trkpt lat="42.8338010" lon="-7.7139630">
        <ele>640.0</ele>
        <time>2020-10-19T09:24:31Z</time>
      </trkpt>
      <trkpt lat="42.8338010" lon="-7.7139630">
        <ele>640.0</ele>
        <time>2020-10-19T09:24:32Z</time>
      </trkpt>
      <trkpt lat="42.8338010" lon="-7.7139640">
        <ele>640.0</ele>
        <time>2020-10-19T09:24:33Z</time>
      </trkpt>
      <trkpt lat="42.8338020" lon="-7.7139640">
        <ele>640.0</ele>
        <time>2020-10-19T09:24:34Z</time>
      </trkpt>
      <trkpt lat="42.8338030" lon="-7.7139630">
        <ele>640.0</ele>
        <time>2020-10-19T09:24:35Z</time>
      </trkpt>
      <trkpt lat="42.8338030" lon="-7.7139630">
        <ele>640.0</ele>
        <time>2020-10-19T09:24:36Z</time>
      </trkpt>
      <trkpt lat="42.8338020" lon="-7.7139610">
        <ele>640.0</ele>
        <time>2020-10-19T09:24:37Z</time>
      </trkpt>
      <trkpt lat="42.8338010" lon="-7.7139610">
        <ele>640.0</ele>
        <time>2020-10-19T09:24:38Z</time>
      </trkpt>
      <trkpt lat="42.8338000" lon="-7.7139610">
        <ele>640.0</ele>
        <time>2020-10-19T09:24:39Z</time>
      </trkpt>
      <trkpt lat="42.8337990" lon="-7.7139610">
        <ele>640.0</ele>
        <time>2020-10-19T09:24:40Z</time>
      </trkpt>
      <trkpt lat="42.8337980" lon="-7.7139610">
        <ele>640.0</ele>
        <time>2020-10-19T09:24:41Z</time>
      </trkpt>
      <trkpt lat="42.8337980" lon="-7.7139610">
        <ele>640.0</ele>
        <time>2020-10-19T09:24:42Z</time>
      </trkpt>
      <trkpt lat="42.8337980" lon="-7.7139620">
        <ele>640.0</ele>
        <time>2020-10-19T09:24:43Z</time>
      </trkpt>
      <trkpt lat="42.8337980" lon="-7.7139620">
        <ele>640.0</ele>
        <time>2020-10-19T09:24:44Z</time>
      </trkpt>
      <trkpt lat="42.8337990" lon="-7.7139620">
        <ele>640.0</ele>
        <time>2020-10-19T09:24:45Z</time>
      </trkpt>
      <trkpt lat="42.8338000" lon="-7.7139620">
        <ele>640.0</ele>
        <time>2020-10-19T09:24:46Z</time>
      </trkpt>
      <trkpt lat="42.8338000" lon="-7.7139620">
        <ele>640.0</ele>
        <time>2020-10-19T09:24:47Z</time>
      </trkpt>
      <trkpt lat="42.8338010" lon="-7.7139620">
        <ele>640.0</ele>
        <time>2020-10-19T09:24:48Z</time>
      </trkpt>
      <trkpt lat="42.8338010" lon="-7.7139620">
        <ele>640.0</ele>
        <time>2020-10-19T09:24:49Z</time>
      </trkpt>
      <trkpt lat="42.8338010" lon="-7.7139610">
        <ele>640.1</ele>
        <time>2020-10-19T09:24:50Z</time>
      </trkpt>
      <trkpt lat="42.8338020" lon="-7.7139590">
        <ele>640.1</ele>
        <time>2020-10-19T09:24:51Z</time>
      </trkpt>
      <trkpt lat="42.8338020" lon="-7.7139580">
        <ele>640.1</ele>
        <time>2020-10-19T09:24:52Z</time>
      </trkpt>
      <trkpt lat="42.8338030" lon="-7.7139580">
        <ele>640.1</ele>
        <time>2020-10-19T09:24:53Z</time>
      </trkpt>
      <trkpt lat="42.8338030" lon="-7.7139580">
        <ele>640.1</ele>
        <time>2020-10-19T09:24:54Z</time>
      </trkpt>
      <trkpt lat="42.8338030" lon="-7.7139570">
        <ele>640.1</ele>
        <time>2020-10-19T09:24:55Z</time>
      </trkpt>
      <trkpt lat="42.8338030" lon="-7.7139560">
        <ele>640.1</ele>
        <time>2020-10-19T09:24:56Z</time>
      </trkpt>
      <trkpt lat="42.8338030" lon="-7.7139560">
        <ele>640.1</ele>
        <time>2020-10-19T09:24:57Z</time>
      </trkpt>
      <trkpt lat="42.8338040" lon="-7.7139560">
        <ele>640.1</ele>
        <time>2020-10-19T09:24:58Z</time>
      </trkpt>
      <trkpt lat="42.8338030" lon="-7.7139550">
        <ele>640.1</ele>
        <time>2020-10-19T09:24:59Z</time>
      </trkpt>
      <trkpt lat="42.8338040" lon="-7.7139550">
        <ele>640.1</ele>
        <time>2020-10-19T09:25:00Z</time>
      </trkpt>
      <trkpt lat="42.8338040" lon="-7.7139540">
        <ele>640.1</ele>
        <time>2020-10-19T09:25:01Z</time>
      </trkpt>
      <trkpt lat="42.8338040" lon="-7.7139540">
        <ele>640.1</ele>
        <time>2020-10-19T09:25:02Z</time>
      </trkpt>
      <trkpt lat="42.8338040" lon="-7.7139540">
        <ele>640.1</ele>
        <time>2020-10-19T09:25:03Z</time>
      </trkpt>
      <trkpt lat="42.8338030" lon="-7.7139530">
        <ele>640.1</ele>
        <time>2020-10-19T09:25:04Z</time>
      </trkpt>
      <trkpt lat="42.8338030" lon="-7.7139530">
        <ele>640.1</ele>
        <time>2020-10-19T09:25:05Z</time>
      </trkpt>
      <trkpt lat="42.8338030" lon="-7.7139520">
        <ele>640.1</ele>
        <time>2020-10-19T09:25:06Z</time>
      </trkpt>
      <trkpt lat="42.8338030" lon="-7.7139520">
        <ele>640.1</ele>
        <time>2020-10-19T09:25:07Z</time>
      </trkpt>
      <trkpt lat="42.8338030" lon="-7.7139520">
        <ele>640.1</ele>
        <time>2020-10-19T09:25:08Z</time>
      </trkpt>
      <trkpt lat="42.8338030" lon="-7.7139520">
        <ele>640.1</ele>
        <time>2020-10-19T09:25:09Z</time>
      </trkpt>
      <trkpt lat="42.8338030" lon="-7.7139520">
        <ele>640.1</ele>
        <time>2020-10-19T09:25:10Z</time>
      </trkpt>
      <trkpt lat="42.8338030" lon="-7.7139520">
        <ele>640.1</ele>
        <time>2020-10-19T09:25:11Z</time>
      </trkpt>
      <trkpt lat="42.8338040" lon="-7.7139520">
        <ele>640.1</ele>
        <time>2020-10-19T09:25:12Z</time>
      </trkpt>
      <trkpt lat="42.8338040" lon="-7.7139510">
        <ele>640.1</ele>
        <time>2020-10-19T09:25:13Z</time>
      </trkpt>
      <trkpt lat="42.8338030" lon="-7.7139500">
        <ele>640.1</ele>
        <time>2020-10-19T09:25:14Z</time>
      </trkpt>
      <trkpt lat="42.8338030" lon="-7.7139500">
        <ele>640.1</ele>
        <time>2020-10-19T09:25:15Z</time>
      </trkpt>
      <trkpt lat="42.8338020" lon="-7.7139500">
        <ele>640.1</ele>
        <time>2020-10-19T09:25:16Z</time>
      </trkpt>
      <trkpt lat="42.8338030" lon="-7.7139500">
        <ele>640.1</ele>
        <time>2020-10-19T09:25:17Z</time>
      </trkpt>
      <trkpt lat="42.8338030" lon="-7.7139500">
        <ele>640.1</ele>
        <time>2020-10-19T09:25:18Z</time>
      </trkpt>
      <trkpt lat="42.8338030" lon="-7.7139490">
        <ele>640.2</ele>
        <time>2020-10-19T09:25:19Z</time>
      </trkpt>
      <trkpt lat="42.8338030" lon="-7.7139490">
        <ele>640.2</ele>
        <time>2020-10-19T09:25:20Z</time>
      </trkpt>
      <trkpt lat="42.8338030" lon="-7.7139490">
        <ele>640.2</ele>
        <time>2020-10-19T09:25:21Z</time>
      </trkpt>
      <trkpt lat="42.8338040" lon="-7.7139490">
        <ele>640.2</ele>
        <time>2020-10-19T09:25:22Z</time>
      </trkpt>
      <trkpt lat="42.8338040" lon="-7.7139490">
        <ele>640.2</ele>
        <time>2020-10-19T09:25:23Z</time>
      </trkpt>
      <trkpt lat="42.8338040" lon="-7.7139500">
        <ele>640.2</ele>
        <time>2020-10-19T09:25:24Z</time>
      </trkpt>
      <trkpt lat="42.8338040" lon="-7.7139510">
        <ele>640.2</ele>
        <time>2020-10-19T09:25:25Z</time>
      </trkpt>
      <trkpt lat="42.8338040" lon="-7.7139510">
        <ele>640.2</ele>
        <time>2020-10-19T09:25:26Z</time>
      </trkpt>
      <trkpt lat="42.8338040" lon="-7.7139510">
        <ele>640.2</ele>
        <time>2020-10-19T09:25:27Z</time>
      </trkpt>
      <trkpt lat="42.8338040" lon="-7.7139520">
        <ele>640.2</ele>
        <time>2020-10-19T09:25:28Z</time>
      </trkpt>
      <trkpt lat="42.8338050" lon="-7.7139520">
        <ele>640.2</ele>
        <time>2020-10-19T09:25:29Z</time>
      </trkpt>
      <trkpt lat="42.8338050" lon="-7.7139520">
        <ele>640.2</ele>
        <time>2020-10-19T09:25:30Z</time>
      </trkpt>
      <trkpt lat="42.8338050" lon="-7.7139530">
        <ele>640.2</ele>
        <time>2020-10-19T09:25:31Z</time>
      </trkpt>
      <trkpt lat="42.8338050" lon="-7.7139530">
        <ele>640.2</ele>
        <time>2020-10-19T09:25:32Z</time>
      </trkpt>
      <trkpt lat="42.8338050" lon="-7.7139530">
        <ele>640.2</ele>
        <time>2020-10-19T09:25:33Z</time>
      </trkpt>
      <trkpt lat="42.8338050" lon="-7.7139530">
        <ele>640.2</ele>
        <time>2020-10-19T09:25:34Z</time>
      </trkpt>
      <trkpt lat="42.8338050" lon="-7.7139520">
        <ele>640.2</ele>
        <time>2020-10-19T09:25:35Z</time>
      </trkpt>
      <trkpt lat="42.8338050" lon="-7.7139520">
        <ele>640.2</ele>
        <time>2020-10-19T09:25:36Z</time>
      </trkpt>
      <trkpt lat="42.8338050" lon="-7.7139520">
        <ele>640.2</ele>
        <time>2020-10-19T09:25:37Z</time>
      </trkpt>
      <trkpt lat="42.8338050" lon="-7.7139520">
        <ele>640.2</ele>
        <time>2020-10-19T09:25:38Z</time>
      </trkpt>
      <trkpt lat="42.8338050" lon="-7.7139530">
        <ele>640.2</ele>
        <time>2020-10-19T09:25:39Z</time>
      </trkpt>
      <trkpt lat="42.8338050" lon="-7.7139530">
        <ele>640.2</ele>
        <time>2020-10-19T09:25:40Z</time>
      </trkpt>
      <trkpt lat="42.8338050" lon="-7.7139540">
        <ele>640.2</ele>
        <time>2020-10-19T09:25:41Z</time>
      </trkpt>
      <trkpt lat="42.8338040" lon="-7.7139540">
        <ele>640.2</ele>
        <time>2020-10-19T09:25:42Z</time>
      </trkpt>
      <trkpt lat="42.8338040" lon="-7.7139540">
        <ele>640.2</ele>
        <time>2020-10-19T09:25:43Z</time>
      </trkpt>
      <trkpt lat="42.8338040" lon="-7.7139550">
        <ele>640.2</ele>
        <time>2020-10-19T09:25:44Z</time>
      </trkpt>
      <trkpt lat="42.8338040" lon="-7.7139550">
        <ele>640.2</ele>
        <time>2020-10-19T09:25:45Z</time>
      </trkpt>
      <trkpt lat="42.8338040" lon="-7.7139550">
        <ele>640.2</ele>
        <time>2020-10-19T09:25:46Z</time>
      </trkpt>
      <trkpt lat="42.8338040" lon="-7.7139540">
        <ele>640.2</ele>
        <time>2020-10-19T09:25:47Z</time>
      </trkpt>
      <trkpt lat="42.8338040" lon="-7.7139540">
        <ele>640.2</ele>
        <time>2020-10-19T09:25:48Z</time>
      </trkpt>
      <trkpt lat="42.8338040" lon="-7.7139540">
        <ele>640.2</ele>
        <time>2020-10-19T09:25:49Z</time>
      </trkpt>
      <trkpt lat="42.8338040" lon="-7.7139540">
        <ele>640.2</ele>
        <time>2020-10-19T09:25:50Z</time>
      </trkpt>
      <trkpt lat="42.8338040" lon="-7.7139540">
        <ele>640.2</ele>
        <time>2020-10-19T09:25:51Z</time>
      </trkpt>
      <trkpt lat="42.8338040" lon="-7.7139540">
        <ele>640.2</ele>
        <time>2020-10-19T09:25:52Z</time>
      </trkpt>
      <trkpt lat="42.8338050" lon="-7.7139550">
        <ele>640.2</ele>
        <time>2020-10-19T09:25:53Z</time>
      </trkpt>
      <trkpt lat="42.8338050" lon="-7.7139550">
        <ele>640.2</ele>
        <time>2020-10-19T09:25:54Z</time>
      </trkpt>
      <trkpt lat="42.8338050" lon="-7.7139550">
        <ele>640.2</ele>
        <time>2020-10-19T09:25:55Z</time>
      </trkpt>
      <trkpt lat="42.8338050" lon="-7.7139560">
        <ele>640.2</ele>
        <time>2020-10-19T09:25:56Z</time>
      </trkpt>
      <trkpt lat="42.8338050" lon="-7.7139560">
        <ele>640.2</ele>
        <time>2020-10-19T09:25:57Z</time>
      </trkpt>
      <trkpt lat="42.8338050" lon="-7.7139560">
        <ele>640.2</ele>
        <time>2020-10-19T09:25:58Z</time>
      </trkpt>
      <trkpt lat="42.8338040" lon="-7.7139560">
        <ele>640.2</ele>
        <time>2020-10-19T09:25:59Z</time>
      </trkpt>
      <trkpt lat="42.8338040" lon="-7.7139560">
        <ele>640.2</ele>
        <time>2020-10-19T09:26:00Z</time>
      </trkpt>
      <trkpt lat="42.8338040" lon="-7.7139560">
        <ele>640.2</ele>
        <time>2020-10-19T09:26:01Z</time>
      </trkpt>
      <trkpt lat="42.8338040" lon="-7.7139560">
        <ele>640.2</ele>
        <time>2020-10-19T09:26:02Z</time>
      </trkpt>
      <trkpt lat="42.8338040" lon="-7.7139570">
        <ele>640.2</ele>
        <time>2020-10-19T09:26:03Z</time>
      </trkpt>
      <trkpt lat="42.8338050" lon="-7.7139570">
        <ele>640.2</ele>
        <time>2020-10-19T09:26:04Z</time>
      </trkpt>
      <trkpt lat="42.8338050" lon="-7.7139570">
        <ele>640.2</ele>
        <time>2020-10-19T09:26:05Z</time>
      </trkpt>
      <trkpt lat="42.8338050" lon="-7.7139560">
        <ele>640.2</ele>
        <time>2020-10-19T09:26:06Z</time>
      </trkpt>
      <trkpt lat="42.8338050" lon="-7.7139560">
        <ele>640.2</ele>
        <time>2020-10-19T09:26:07Z</time>
      </trkpt>
      <trkpt lat="42.8338040" lon="-7.7139560">
        <ele>640.2</ele>
        <time>2020-10-19T09:26:08Z</time>
      </trkpt>
      <trkpt lat="42.8338050" lon="-7.7139560">
        <ele>640.3</ele>
        <time>2020-10-19T09:26:09Z</time>
      </trkpt>
      <trkpt lat="42.8338050" lon="-7.7139560">
        <ele>640.3</ele>
        <time>2020-10-19T09:26:10Z</time>
      </trkpt>
      <trkpt lat="42.8338050" lon="-7.7139570">
        <ele>640.3</ele>
        <time>2020-10-19T09:26:11Z</time>
      </trkpt>
      <trkpt lat="42.8338040" lon="-7.7139570">
        <ele>640.3</ele>
        <time>2020-10-19T09:26:12Z</time>
      </trkpt>
      <trkpt lat="42.8338040" lon="-7.7139570">
        <ele>640.3</ele>
        <time>2020-10-19T09:26:13Z</time>
      </trkpt>
      <trkpt lat="42.8338040" lon="-7.7139580">
        <ele>640.3</ele>
        <time>2020-10-19T09:26:14Z</time>
      </trkpt>
      <trkpt lat="42.8338030" lon="-7.7139580">
        <ele>640.3</ele>
        <time>2020-10-19T09:26:15Z</time>
      </trkpt>
      <trkpt lat="42.8338030" lon="-7.7139590">
        <ele>640.3</ele>
        <time>2020-10-19T09:26:16Z</time>
      </trkpt>
      <trkpt lat="42.8338020" lon="-7.7139590">
        <ele>640.3</ele>
        <time>2020-10-19T09:26:17Z</time>
      </trkpt>
      <trkpt lat="42.8338010" lon="-7.7139590">
        <ele>640.3</ele>
        <time>2020-10-19T09:26:18Z</time>
      </trkpt>
      <trkpt lat="42.8338010" lon="-7.7139600">
        <ele>640.3</ele>
        <time>2020-10-19T09:26:19Z</time>
      </trkpt>
      <trkpt lat="42.8338000" lon="-7.7139600">
        <ele>640.3</ele>
        <time>2020-10-19T09:26:20Z</time>
      </trkpt>
      <trkpt lat="42.8338000" lon="-7.7139600">
        <ele>640.3</ele>
        <time>2020-10-19T09:26:21Z</time>
      </trkpt>
      <trkpt lat="42.8337990" lon="-7.7139600">
        <ele>640.3</ele>
        <time>2020-10-19T09:26:22Z</time>
      </trkpt>
      <trkpt lat="42.8337990" lon="-7.7139600">
        <ele>640.3</ele>
        <time>2020-10-19T09:26:23Z</time>
      </trkpt>
      <trkpt lat="42.8337990" lon="-7.7139610">
        <ele>640.3</ele>
        <time>2020-10-19T09:26:24Z</time>
      </trkpt>
      <trkpt lat="42.8337980" lon="-7.7139610">
        <ele>640.3</ele>
        <time>2020-10-19T09:26:25Z</time>
      </trkpt>
      <trkpt lat="42.8337980" lon="-7.7139610">
        <ele>640.3</ele>
        <time>2020-10-19T09:26:26Z</time>
      </trkpt>
      <trkpt lat="42.8337970" lon="-7.7139610">
        <ele>640.3</ele>
        <time>2020-10-19T09:26:27Z</time>
      </trkpt>
      <trkpt lat="42.8337970" lon="-7.7139610">
        <ele>640.3</ele>
        <time>2020-10-19T09:26:28Z</time>
      </trkpt>
      <trkpt lat="42.8337970" lon="-7.7139610">
        <ele>640.3</ele>
        <time>2020-10-19T09:26:29Z</time>
      </trkpt>
      <trkpt lat="42.8337970" lon="-7.7139610">
        <ele>640.3</ele>
        <time>2020-10-19T09:26:30Z</time>
      </trkpt>
      <trkpt lat="42.8337970" lon="-7.7139610">
        <ele>640.3</ele>
        <time>2020-10-19T09:26:31Z</time>
      </trkpt>
      <trkpt lat="42.8337970" lon="-7.7139620">
        <ele>640.3</ele>
        <time>2020-10-19T09:26:32Z</time>
      </trkpt>
      <trkpt lat="42.8337960" lon="-7.7139620">
        <ele>640.3</ele>
        <time>2020-10-19T09:26:33Z</time>
      </trkpt>
      <trkpt lat="42.8337970" lon="-7.7139620">
        <ele>640.3</ele>
        <time>2020-10-19T09:26:34Z</time>
      </trkpt>
      <trkpt lat="42.8337970" lon="-7.7139620">
        <ele>640.3</ele>
        <time>2020-10-19T09:26:35Z</time>
      </trkpt>
      <trkpt lat="42.8337970" lon="-7.7139610">
        <ele>640.3</ele>
        <time>2020-10-19T09:26:36Z</time>
      </trkpt>
      <trkpt lat="42.8337970" lon="-7.7139610">
        <ele>640.3</ele>
        <time>2020-10-19T09:26:37Z</time>
      </trkpt>
      <trkpt lat="42.8337970" lon="-7.7139610">
        <ele>640.3</ele>
        <time>2020-10-19T09:26:38Z</time>
      </trkpt>
      <trkpt lat="42.8337970" lon="-7.7139610">
        <ele>640.3</ele>
        <time>2020-10-19T09:26:39Z</time>
      </trkpt>
      <trkpt lat="42.8337970" lon="-7.7139610">
        <ele>640.3</ele>
        <time>2020-10-19T09:26:40Z</time>
      </trkpt>
      <trkpt lat="42.8337970" lon="-7.7139610">
        <ele>640.3</ele>
        <time>2020-10-19T09:26:41Z</time>
      </trkpt>
      <trkpt lat="42.8337960" lon="-7.7139610">
        <ele>640.3</ele>
        <time>2020-10-19T09:26:42Z</time>
      </trkpt>
      <trkpt lat="42.8337950" lon="-7.7139610">
        <ele>640.4</ele>
        <time>2020-10-19T09:26:43Z</time>
      </trkpt>
      <trkpt lat="42.8337950" lon="-7.7139610">
        <ele>640.4</ele>
        <time>2020-10-19T09:26:44Z</time>
      </trkpt>
      <trkpt lat="42.8337970" lon="-7.7139600">
        <ele>640.4</ele>
        <time>2020-10-19T09:26:45Z</time>
      </trkpt>
      <trkpt lat="42.8337980" lon="-7.7139590">
        <ele>640.4</ele>
        <time>2020-10-19T09:26:46Z</time>
      </trkpt>
      <trkpt lat="42.8337990" lon="-7.7139580">
        <ele>640.4</ele>
        <time>2020-10-19T09:26:47Z</time>
      </trkpt>
      <trkpt lat="42.8338000" lon="-7.7139570">
        <ele>640.4</ele>
        <time>2020-10-19T09:26:48Z</time>
      </trkpt>
      <trkpt lat="42.8338000" lon="-7.7139560">
        <ele>640.4</ele>
        <time>2020-10-19T09:26:49Z</time>
      </trkpt>
      <trkpt lat="42.8338010" lon="-7.7139550">
        <ele>640.4</ele>
        <time>2020-10-19T09:26:50Z</time>
      </trkpt>
      <trkpt lat="42.8338020" lon="-7.7139540">
        <ele>640.4</ele>
        <time>2020-10-19T09:26:51Z</time>
      </trkpt>
      <trkpt lat="42.8338020" lon="-7.7139540">
        <ele>640.4</ele>
        <time>2020-10-19T09:26:52Z</time>
      </trkpt>
      <trkpt lat="42.8338030" lon="-7.7139530">
        <ele>640.4</ele>
        <time>2020-10-19T09:26:53Z</time>
      </trkpt>
      <trkpt lat="42.8338030" lon="-7.7139530">
        <ele>640.4</ele>
        <time>2020-10-19T09:26:54Z</time>
      </trkpt>
      <trkpt lat="42.8338040" lon="-7.7139530">
        <ele>640.4</ele>
        <time>2020-10-19T09:26:55Z</time>
      </trkpt>
      <trkpt lat="42.8338040" lon="-7.7139530">
        <ele>640.4</ele>
        <time>2020-10-19T09:26:56Z</time>
      </trkpt>
      <trkpt lat="42.8338040" lon="-7.7139530">
        <ele>640.4</ele>
        <time>2020-10-19T09:26:57Z</time>
      </trkpt>
      <trkpt lat="42.8338040" lon="-7.7139530">
        <ele>640.4</ele>
        <time>2020-10-19T09:26:58Z</time>
      </trkpt>
      <trkpt lat="42.8338040" lon="-7.7139530">
        <ele>640.4</ele>
        <time>2020-10-19T09:26:59Z</time>
      </trkpt>
      <trkpt lat="42.8338030" lon="-7.7139530">
        <ele>640.4</ele>
        <time>2020-10-19T09:27:00Z</time>
      </trkpt>
      <trkpt lat="42.8338030" lon="-7.7139530">
        <ele>640.4</ele>
        <time>2020-10-19T09:27:01Z</time>
      </trkpt>
      <trkpt lat="42.8338030" lon="-7.7139530">
        <ele>640.4</ele>
        <time>2020-10-19T09:27:02Z</time>
      </trkpt>
      <trkpt lat="42.8338040" lon="-7.7139540">
        <ele>640.4</ele>
        <time>2020-10-19T09:27:03Z</time>
      </trkpt>
      <trkpt lat="42.8338040" lon="-7.7139540">
        <ele>640.4</ele>
        <time>2020-10-19T09:27:04Z</time>
      </trkpt>
      <trkpt lat="42.8338030" lon="-7.7139540">
        <ele>640.4</ele>
        <time>2020-10-19T09:27:05Z</time>
      </trkpt>
      <trkpt lat="42.8338020" lon="-7.7139550">
        <ele>640.5</ele>
        <time>2020-10-19T09:27:06Z</time>
      </trkpt>
      <trkpt lat="42.8338020" lon="-7.7139560">
        <ele>640.5</ele>
        <time>2020-10-19T09:27:07Z</time>
      </trkpt>
      <trkpt lat="42.8338010" lon="-7.7139560">
        <ele>640.5</ele>
        <time>2020-10-19T09:27:08Z</time>
      </trkpt>
      <trkpt lat="42.8338010" lon="-7.7139560">
        <ele>640.5</ele>
        <time>2020-10-19T09:27:09Z</time>
      </trkpt>
      <trkpt lat="42.8338010" lon="-7.7139560">
        <ele>640.5</ele>
        <time>2020-10-19T09:27:10Z</time>
      </trkpt>
      <trkpt lat="42.8338010" lon="-7.7139570">
        <ele>640.5</ele>
        <time>2020-10-19T09:27:11Z</time>
      </trkpt>
      <trkpt lat="42.8338020" lon="-7.7139570">
        <ele>640.5</ele>
        <time>2020-10-19T09:27:12Z</time>
      </trkpt>
      <trkpt lat="42.8338020" lon="-7.7139570">
        <ele>640.5</ele>
        <time>2020-10-19T09:27:13Z</time>
      </trkpt>
      <trkpt lat="42.8338020" lon="-7.7139570">
        <ele>640.5</ele>
        <time>2020-10-19T09:27:14Z</time>
      </trkpt>
      <trkpt lat="42.8338010" lon="-7.7139560">
        <ele>640.5</ele>
        <time>2020-10-19T09:27:15Z</time>
      </trkpt>
      <trkpt lat="42.8338010" lon="-7.7139560">
        <ele>640.5</ele>
        <time>2020-10-19T09:27:16Z</time>
      </trkpt>
      <trkpt lat="42.8338000" lon="-7.7139560">
        <ele>640.5</ele>
        <time>2020-10-19T09:27:17Z</time>
      </trkpt>
      <trkpt lat="42.8338000" lon="-7.7139550">
        <ele>640.5</ele>
        <time>2020-10-19T09:27:18Z</time>
      </trkpt>
      <trkpt lat="42.8338000" lon="-7.7139550">
        <ele>640.5</ele>
        <time>2020-10-19T09:27:19Z</time>
      </trkpt>
      <trkpt lat="42.8338000" lon="-7.7139550">
        <ele>640.5</ele>
        <time>2020-10-19T09:27:20Z</time>
      </trkpt>
      <trkpt lat="42.8338000" lon="-7.7139550">
        <ele>640.5</ele>
        <time>2020-10-19T09:27:21Z</time>
      </trkpt>
      <trkpt lat="42.8338000" lon="-7.7139540">
        <ele>640.5</ele>
        <time>2020-10-19T09:27:22Z</time>
      </trkpt>
      <trkpt lat="42.8338010" lon="-7.7139540">
        <ele>640.5</ele>
        <time>2020-10-19T09:27:23Z</time>
      </trkpt>
      <trkpt lat="42.8338010" lon="-7.7139530">
        <ele>640.5</ele>
        <time>2020-10-19T09:27:24Z</time>
      </trkpt>
      <trkpt lat="42.8338020" lon="-7.7139520">
        <ele>640.5</ele>
        <time>2020-10-19T09:27:25Z</time>
      </trkpt>
      <trkpt lat="42.8338030" lon="-7.7139510">
        <ele>640.5</ele>
        <time>2020-10-19T09:27:26Z</time>
      </trkpt>
      <trkpt lat="42.8338030" lon="-7.7139510">
        <ele>640.5</ele>
        <time>2020-10-19T09:27:27Z</time>
      </trkpt>
      <trkpt lat="42.8338030" lon="-7.7139500">
        <ele>640.5</ele>
        <time>2020-10-19T09:27:28Z</time>
      </trkpt>
      <trkpt lat="42.8338030" lon="-7.7139500">
        <ele>640.5</ele>
        <time>2020-10-19T09:27:29Z</time>
      </trkpt>
      <trkpt lat="42.8338030" lon="-7.7139490">
        <ele>640.5</ele>
        <time>2020-10-19T09:27:30Z</time>
      </trkpt>
      <trkpt lat="42.8338030" lon="-7.7139480">
        <ele>640.5</ele>
        <time>2020-10-19T09:27:31Z</time>
      </trkpt>
      <trkpt lat="42.8338030" lon="-7.7139480">
        <ele>640.5</ele>
        <time>2020-10-19T09:27:32Z</time>
      </trkpt>
      <trkpt lat="42.8338040" lon="-7.7139490">
        <ele>640.5</ele>
        <time>2020-10-19T09:27:33Z</time>
      </trkpt>
      <trkpt lat="42.8338030" lon="-7.7139490">
        <ele>640.5</ele>
        <time>2020-10-19T09:27:34Z</time>
      </trkpt>
      <trkpt lat="42.8338040" lon="-7.7139500">
        <ele>640.5</ele>
        <time>2020-10-19T09:27:35Z</time>
      </trkpt>
      <trkpt lat="42.8338030" lon="-7.7139500">
        <ele>640.6</ele>
        <time>2020-10-19T09:27:36Z</time>
      </trkpt>
      <trkpt lat="42.8338020" lon="-7.7139500">
        <ele>640.6</ele>
        <time>2020-10-19T09:27:37Z</time>
      </trkpt>
      <trkpt lat="42.8338010" lon="-7.7139510">
        <ele>640.6</ele>
        <time>2020-10-19T09:27:38Z</time>
      </trkpt>
      <trkpt lat="42.8338010" lon="-7.7139520">
        <ele>640.6</ele>
        <time>2020-10-19T09:27:39Z</time>
      </trkpt>
      <trkpt lat="42.8338020" lon="-7.7139530">
        <ele>640.6</ele>
        <time>2020-10-19T09:27:40Z</time>
      </trkpt>
      <trkpt lat="42.8338020" lon="-7.7139550">
        <ele>640.6</ele>
        <time>2020-10-19T09:27:41Z</time>
      </trkpt>
      <trkpt lat="42.8338010" lon="-7.7139550">
        <ele>640.6</ele>
        <time>2020-10-19T09:27:42Z</time>
      </trkpt>
      <trkpt lat="42.8338010" lon="-7.7139570">
        <ele>640.6</ele>
        <time>2020-10-19T09:27:43Z</time>
      </trkpt>
      <trkpt lat="42.8338010" lon="-7.7139570">
        <ele>640.6</ele>
        <time>2020-10-19T09:27:44Z</time>
      </trkpt>
      <trkpt lat="42.8338020" lon="-7.7139570">
        <ele>640.6</ele>
        <time>2020-10-19T09:27:45Z</time>
      </trkpt>
      <trkpt lat="42.8338010" lon="-7.7139570">
        <ele>640.6</ele>
        <time>2020-10-19T09:27:46Z</time>
      </trkpt>
      <trkpt lat="42.8338000" lon="-7.7139580">
        <ele>640.6</ele>
        <time>2020-10-19T09:27:47Z</time>
      </trkpt>
      <trkpt lat="42.8338000" lon="-7.7139580">
        <ele>640.6</ele>
        <time>2020-10-19T09:27:48Z</time>
      </trkpt>
      <trkpt lat="42.8338000" lon="-7.7139580">
        <ele>640.6</ele>
        <time>2020-10-19T09:27:49Z</time>
      </trkpt>
      <trkpt lat="42.8338000" lon="-7.7139570">
        <ele>640.6</ele>
        <time>2020-10-19T09:27:50Z</time>
      </trkpt>
      <trkpt lat="42.8338000" lon="-7.7139560">
        <ele>640.6</ele>
        <time>2020-10-19T09:27:51Z</time>
      </trkpt>
      <trkpt lat="42.8338000" lon="-7.7139560">
        <ele>640.6</ele>
        <time>2020-10-19T09:27:52Z</time>
      </trkpt>
      <trkpt lat="42.8338000" lon="-7.7139560">
        <ele>640.6</ele>
        <time>2020-10-19T09:27:53Z</time>
      </trkpt>
      <trkpt lat="42.8338010" lon="-7.7139560">
        <ele>640.6</ele>
        <time>2020-10-19T09:27:54Z</time>
      </trkpt>
      <trkpt lat="42.8338010" lon="-7.7139560">
        <ele>640.6</ele>
        <time>2020-10-19T09:27:55Z</time>
      </trkpt>
      <trkpt lat="42.8338000" lon="-7.7139570">
        <ele>640.6</ele>
        <time>2020-10-19T09:27:56Z</time>
      </trkpt>
      <trkpt lat="42.8338000" lon="-7.7139570">
        <ele>640.6</ele>
        <time>2020-10-19T09:27:57Z</time>
      </trkpt>
      <trkpt lat="42.8338000" lon="-7.7139570">
        <ele>640.6</ele>
        <time>2020-10-19T09:27:58Z</time>
      </trkpt>
      <trkpt lat="42.8338010" lon="-7.7139570">
        <ele>640.6</ele>
        <time>2020-10-19T09:27:59Z</time>
      </trkpt>
      <trkpt lat="42.8338000" lon="-7.7139570">
        <ele>640.6</ele>
        <time>2020-10-19T09:28:00Z</time>
      </trkpt>
      <trkpt lat="42.8338010" lon="-7.7139570">
        <ele>640.7</ele>
        <time>2020-10-19T09:28:01Z</time>
      </trkpt>
      <trkpt lat="42.8338000" lon="-7.7139570">
        <ele>640.7</ele>
        <time>2020-10-19T09:28:02Z</time>
      </trkpt>
      <trkpt lat="42.8338000" lon="-7.7139570">
        <ele>640.7</ele>
        <time>2020-10-19T09:28:03Z</time>
      </trkpt>
      <trkpt lat="42.8338000" lon="-7.7139570">
        <ele>640.7</ele>
        <time>2020-10-19T09:28:04Z</time>
      </trkpt>
      <trkpt lat="42.8338000" lon="-7.7139560">
        <ele>640.7</ele>
        <time>2020-10-19T09:28:05Z</time>
      </trkpt>
      <trkpt lat="42.8338000" lon="-7.7139560">
        <ele>640.7</ele>
        <time>2020-10-19T09:28:06Z</time>
      </trkpt>
      <trkpt lat="42.8338000" lon="-7.7139550">
        <ele>640.7</ele>
        <time>2020-10-19T09:28:07Z</time>
      </trkpt>
      <trkpt lat="42.8338000" lon="-7.7139550">
        <ele>640.7</ele>
        <time>2020-10-19T09:28:08Z</time>
      </trkpt>
      <trkpt lat="42.8338000" lon="-7.7139550">
        <ele>640.7</ele>
        <time>2020-10-19T09:28:09Z</time>
      </trkpt>
      <trkpt lat="42.8338010" lon="-7.7139560">
        <ele>640.7</ele>
        <time>2020-10-19T09:28:10Z</time>
      </trkpt>
      <trkpt lat="42.8338030" lon="-7.7139560">
        <ele>640.7</ele>
        <time>2020-10-19T09:28:11Z</time>
      </trkpt>
      <trkpt lat="42.8338050" lon="-7.7139550">
        <ele>640.7</ele>
        <time>2020-10-19T09:28:12Z</time>
      </trkpt>
      <trkpt lat="42.8338050" lon="-7.7139520">
        <ele>640.7</ele>
        <time>2020-10-19T09:28:13Z</time>
      </trkpt>
      <trkpt lat="42.8338050" lon="-7.7139500">
        <ele>640.7</ele>
        <time>2020-10-19T09:28:14Z</time>
      </trkpt>
      <trkpt lat="42.8338060" lon="-7.7139490">
        <ele>640.7</ele>
        <time>2020-10-19T09:28:15Z</time>
      </trkpt>
      <trkpt lat="42.8338060" lon="-7.7139480">
        <ele>640.7</ele>
        <time>2020-10-19T09:28:16Z</time>
      </trkpt>
      <trkpt lat="42.8338050" lon="-7.7139480">
        <ele>640.7</ele>
        <time>2020-10-19T09:28:17Z</time>
      </trkpt>
      <trkpt lat="42.8338050" lon="-7.7139480">
        <ele>640.7</ele>
        <time>2020-10-19T09:28:18Z</time>
      </trkpt>
      <trkpt lat="42.8338050" lon="-7.7139480">
        <ele>640.7</ele>
        <time>2020-10-19T09:28:19Z</time>
      </trkpt>
      <trkpt lat="42.8338050" lon="-7.7139480">
        <ele>640.7</ele>
        <time>2020-10-19T09:28:20Z</time>
      </trkpt>
      <trkpt lat="42.8338050" lon="-7.7139480">
        <ele>640.7</ele>
        <time>2020-10-19T09:28:21Z</time>
      </trkpt>
      <trkpt lat="42.8338050" lon="-7.7139470">
        <ele>640.7</ele>
        <time>2020-10-19T09:28:22Z</time>
      </trkpt>
      <trkpt lat="42.8338060" lon="-7.7139460">
        <ele>640.7</ele>
        <time>2020-10-19T09:28:23Z</time>
      </trkpt>
      <trkpt lat="42.8338070" lon="-7.7139450">
        <ele>640.8</ele>
        <time>2020-10-19T09:28:24Z</time>
      </trkpt>
      <trkpt lat="42.8338080" lon="-7.7139450">
        <ele>640.8</ele>
        <time>2020-10-19T09:28:25Z</time>
      </trkpt>
      <trkpt lat="42.8338080" lon="-7.7139450">
        <ele>640.8</ele>
        <time>2020-10-19T09:28:26Z</time>
      </trkpt>
      <trkpt lat="42.8338080" lon="-7.7139460">
        <ele>640.8</ele>
        <time>2020-10-19T09:28:27Z</time>
      </trkpt>
      <trkpt lat="42.8338080" lon="-7.7139470">
        <ele>640.8</ele>
        <time>2020-10-19T09:28:28Z</time>
      </trkpt>
      <trkpt lat="42.8338080" lon="-7.7139480">
        <ele>640.8</ele>
        <time>2020-10-19T09:28:29Z</time>
      </trkpt>
      <trkpt lat="42.8338070" lon="-7.7139480">
        <ele>640.8</ele>
        <time>2020-10-19T09:28:30Z</time>
      </trkpt>
      <trkpt lat="42.8338060" lon="-7.7139490">
        <ele>640.8</ele>
        <time>2020-10-19T09:28:31Z</time>
      </trkpt>
      <trkpt lat="42.8338060" lon="-7.7139500">
        <ele>640.8</ele>
        <time>2020-10-19T09:28:32Z</time>
      </trkpt>
      <trkpt lat="42.8338050" lon="-7.7139510">
        <ele>640.8</ele>
        <time>2020-10-19T09:28:33Z</time>
      </trkpt>
      <trkpt lat="42.8338040" lon="-7.7139510">
        <ele>640.8</ele>
        <time>2020-10-19T09:28:34Z</time>
      </trkpt>
      <trkpt lat="42.8338040" lon="-7.7139510">
        <ele>640.8</ele>
        <time>2020-10-19T09:28:35Z</time>
      </trkpt>
      <trkpt lat="42.8338040" lon="-7.7139520">
        <ele>640.8</ele>
        <time>2020-10-19T09:28:36Z</time>
      </trkpt>
      <trkpt lat="42.8338040" lon="-7.7139520">
        <ele>640.8</ele>
        <time>2020-10-19T09:28:37Z</time>
      </trkpt>
      <trkpt lat="42.8338040" lon="-7.7139520">
        <ele>640.8</ele>
        <time>2020-10-19T09:28:38Z</time>
      </trkpt>
      <trkpt lat="42.8338030" lon="-7.7139510">
        <ele>640.8</ele>
        <time>2020-10-19T09:28:39Z</time>
      </trkpt>
      <trkpt lat="42.8338030" lon="-7.7139500">
        <ele>640.8</ele>
        <time>2020-10-19T09:28:40Z</time>
      </trkpt>
      <trkpt lat="42.8338030" lon="-7.7139500">
        <ele>640.8</ele>
        <time>2020-10-19T09:28:41Z</time>
      </trkpt>
      <trkpt lat="42.8338020" lon="-7.7139500">
        <ele>640.8</ele>
        <time>2020-10-19T09:28:42Z</time>
      </trkpt>
      <trkpt lat="42.8338020" lon="-7.7139500">
        <ele>640.8</ele>
        <time>2020-10-19T09:28:43Z</time>
      </trkpt>
      <trkpt lat="42.8338020" lon="-7.7139490">
        <ele>640.8</ele>
        <time>2020-10-19T09:28:44Z</time>
      </trkpt>
      <trkpt lat="42.8338020" lon="-7.7139480">
        <ele>640.8</ele>
        <time>2020-10-19T09:28:45Z</time>
      </trkpt>
      <trkpt lat="42.8338020" lon="-7.7139470">
        <ele>640.8</ele>
        <time>2020-10-19T09:28:46Z</time>
      </trkpt>
      <trkpt lat="42.8338020" lon="-7.7139460">
        <ele>640.8</ele>
        <time>2020-10-19T09:28:47Z</time>
      </trkpt>
      <trkpt lat="42.8338030" lon="-7.7139450">
        <ele>640.8</ele>
        <time>2020-10-19T09:28:48Z</time>
      </trkpt>
      <trkpt lat="42.8338040" lon="-7.7139430">
        <ele>640.9</ele>
        <time>2020-10-19T09:28:49Z</time>
      </trkpt>
      <trkpt lat="42.8338060" lon="-7.7139410">
        <ele>640.9</ele>
        <time>2020-10-19T09:28:50Z</time>
      </trkpt>
      <trkpt lat="42.8338070" lon="-7.7139390">
        <ele>640.9</ele>
        <time>2020-10-19T09:28:51Z</time>
      </trkpt>
      <trkpt lat="42.8338070" lon="-7.7139380">
        <ele>640.9</ele>
        <time>2020-10-19T09:28:52Z</time>
      </trkpt>
      <trkpt lat="42.8338070" lon="-7.7139380">
        <ele>640.9</ele>
        <time>2020-10-19T09:28:53Z</time>
      </trkpt>
      <trkpt lat="42.8338070" lon="-7.7139380">
        <ele>640.9</ele>
        <time>2020-10-19T09:28:54Z</time>
      </trkpt>
      <trkpt lat="42.8338070" lon="-7.7139380">
        <ele>640.9</ele>
        <time>2020-10-19T09:28:55Z</time>
      </trkpt>
      <trkpt lat="42.8338070" lon="-7.7139390">
        <ele>640.9</ele>
        <time>2020-10-19T09:28:56Z</time>
      </trkpt>
      <trkpt lat="42.8338070" lon="-7.7139390">
        <ele>640.9</ele>
        <time>2020-10-19T09:28:57Z</time>
      </trkpt>
      <trkpt lat="42.8338070" lon="-7.7139390">
        <ele>640.9</ele>
        <time>2020-10-19T09:28:58Z</time>
      </trkpt>
      <trkpt lat="42.8338070" lon="-7.7139390">
        <ele>640.9</ele>
        <time>2020-10-19T09:28:59Z</time>
      </trkpt>
      <trkpt lat="42.8338070" lon="-7.7139400">
        <ele>640.9</ele>
        <time>2020-10-19T09:29:00Z</time>
      </trkpt>
      <trkpt lat="42.8338080" lon="-7.7139410">
        <ele>640.9</ele>
        <time>2020-10-19T09:29:01Z</time>
      </trkpt>
      <trkpt lat="42.8338080" lon="-7.7139430">
        <ele>640.9</ele>
        <time>2020-10-19T09:29:02Z</time>
      </trkpt>
      <trkpt lat="42.8338080" lon="-7.7139440">
        <ele>640.9</ele>
        <time>2020-10-19T09:29:03Z</time>
      </trkpt>
      <trkpt lat="42.8338070" lon="-7.7139450">
        <ele>640.9</ele>
        <time>2020-10-19T09:29:04Z</time>
      </trkpt>
      <trkpt lat="42.8338070" lon="-7.7139450">
        <ele>640.9</ele>
        <time>2020-10-19T09:29:05Z</time>
      </trkpt>
      <trkpt lat="42.8338070" lon="-7.7139450">
        <ele>640.9</ele>
        <time>2020-10-19T09:29:06Z</time>
      </trkpt>
      <trkpt lat="42.8338060" lon="-7.7139450">
        <ele>640.9</ele>
        <time>2020-10-19T09:29:07Z</time>
      </trkpt>
      <trkpt lat="42.8338060" lon="-7.7139460">
        <ele>640.9</ele>
        <time>2020-10-19T09:29:08Z</time>
      </trkpt>
      <trkpt lat="42.8338060" lon="-7.7139470">
        <ele>640.9</ele>
        <time>2020-10-19T09:29:09Z</time>
      </trkpt>
      <trkpt lat="42.8338060" lon="-7.7139470">
        <ele>640.9</ele>
        <time>2020-10-19T09:29:10Z</time>
      </trkpt>
      <trkpt lat="42.8338060" lon="-7.7139470">
        <ele>640.9</ele>
        <time>2020-10-19T09:29:11Z</time>
      </trkpt>
      <trkpt lat="42.8338060" lon="-7.7139470">
        <ele>640.9</ele>
        <time>2020-10-19T09:29:12Z</time>
      </trkpt>
      <trkpt lat="42.8338060" lon="-7.7139460">
        <ele>640.9</ele>
        <time>2020-10-19T09:29:13Z</time>
      </trkpt>
      <trkpt lat="42.8338050" lon="-7.7139460">
        <ele>640.9</ele>
        <time>2020-10-19T09:29:14Z</time>
      </trkpt>
      <trkpt lat="42.8338050" lon="-7.7139450">
        <ele>640.9</ele>
        <time>2020-10-19T09:29:15Z</time>
      </trkpt>
      <trkpt lat="42.8338040" lon="-7.7139450">
        <ele>640.9</ele>
        <time>2020-10-19T09:29:16Z</time>
      </trkpt>
      <trkpt lat="42.8338040" lon="-7.7139450">
        <ele>640.9</ele>
        <time>2020-10-19T09:29:17Z</time>
      </trkpt>
      <trkpt lat="42.8338040" lon="-7.7139440">
        <ele>641.0</ele>
        <time>2020-10-19T09:29:18Z</time>
      </trkpt>
      <trkpt lat="42.8338040" lon="-7.7139440">
        <ele>641.0</ele>
        <time>2020-10-19T09:29:19Z</time>
      </trkpt>
      <trkpt lat="42.8338030" lon="-7.7139440">
        <ele>641.0</ele>
        <time>2020-10-19T09:29:20Z</time>
      </trkpt>
      <trkpt lat="42.8338030" lon="-7.7139450">
        <ele>641.0</ele>
        <time>2020-10-19T09:29:21Z</time>
      </trkpt>
      <trkpt lat="42.8338030" lon="-7.7139450">
        <ele>641.0</ele>
        <time>2020-10-19T09:29:22Z</time>
      </trkpt>
      <trkpt lat="42.8338030" lon="-7.7139450">
        <ele>641.0</ele>
        <time>2020-10-19T09:29:23Z</time>
      </trkpt>
      <trkpt lat="42.8338020" lon="-7.7139460">
        <ele>641.0</ele>
        <time>2020-10-19T09:29:24Z</time>
      </trkpt>
      <trkpt lat="42.8338020" lon="-7.7139460">
        <ele>641.0</ele>
        <time>2020-10-19T09:29:25Z</time>
      </trkpt>
      <trkpt lat="42.8338010" lon="-7.7139460">
        <ele>641.0</ele>
        <time>2020-10-19T09:29:26Z</time>
      </trkpt>
      <trkpt lat="42.8338000" lon="-7.7139470">
        <ele>641.0</ele>
        <time>2020-10-19T09:29:27Z</time>
      </trkpt>
      <trkpt lat="42.8337990" lon="-7.7139480">
        <ele>641.0</ele>
        <time>2020-10-19T09:29:28Z</time>
      </trkpt>
      <trkpt lat="42.8337990" lon="-7.7139490">
        <ele>641.0</ele>
        <time>2020-10-19T09:29:29Z</time>
      </trkpt>
      <trkpt lat="42.8337980" lon="-7.7139500">
        <ele>641.0</ele>
        <time>2020-10-19T09:29:30Z</time>
      </trkpt>
      <trkpt lat="42.8337980" lon="-7.7139500">
        <ele>641.0</ele>
        <time>2020-10-19T09:29:31Z</time>
      </trkpt>
      <trkpt lat="42.8337970" lon="-7.7139510">
        <ele>641.0</ele>
        <time>2020-10-19T09:29:32Z</time>
      </trkpt>
      <trkpt lat="42.8337970" lon="-7.7139510">
        <ele>641.0</ele>
        <time>2020-10-19T09:29:33Z</time>
      </trkpt>
      <trkpt lat="42.8337960" lon="-7.7139520">
        <ele>641.0</ele>
        <time>2020-10-19T09:29:34Z</time>
      </trkpt>
      <trkpt lat="42.8337950" lon="-7.7139530">
        <ele>641.0</ele>
        <time>2020-10-19T09:29:35Z</time>
      </trkpt>
      <trkpt lat="42.8337950" lon="-7.7139540">
        <ele>641.0</ele>
        <time>2020-10-19T09:29:36Z</time>
      </trkpt>
      <trkpt lat="42.8337940" lon="-7.7139550">
        <ele>641.0</ele>
        <time>2020-10-19T09:29:37Z</time>
      </trkpt>
      <trkpt lat="42.8337930" lon="-7.7139560">
        <ele>641.0</ele>
        <time>2020-10-19T09:29:38Z</time>
      </trkpt>
      <trkpt lat="42.8337930" lon="-7.7139570">
        <ele>641.0</ele>
        <time>2020-10-19T09:29:39Z</time>
      </trkpt>
      <trkpt lat="42.8337920" lon="-7.7139580">
        <ele>641.0</ele>
        <time>2020-10-19T09:29:40Z</time>
      </trkpt>
      <trkpt lat="42.8337920" lon="-7.7139590">
        <ele>641.1</ele>
        <time>2020-10-19T09:29:41Z</time>
      </trkpt>
      <trkpt lat="42.8337920" lon="-7.7139600">
        <ele>641.1</ele>
        <time>2020-10-19T09:29:42Z</time>
      </trkpt>
      <trkpt lat="42.8337920" lon="-7.7139610">
        <ele>641.1</ele>
        <time>2020-10-19T09:29:43Z</time>
      </trkpt>
      <trkpt lat="42.8337920" lon="-7.7139610">
        <ele>641.1</ele>
        <time>2020-10-19T09:29:44Z</time>
      </trkpt>
      <trkpt lat="42.8337930" lon="-7.7139610">
        <ele>641.1</ele>
        <time>2020-10-19T09:29:45Z</time>
      </trkpt>
      <trkpt lat="42.8337930" lon="-7.7139600">
        <ele>641.1</ele>
        <time>2020-10-19T09:29:46Z</time>
      </trkpt>
      <trkpt lat="42.8337940" lon="-7.7139590">
        <ele>641.1</ele>
        <time>2020-10-19T09:29:47Z</time>
      </trkpt>
      <trkpt lat="42.8337940" lon="-7.7139590">
        <ele>641.1</ele>
        <time>2020-10-19T09:29:48Z</time>
      </trkpt>
      <trkpt lat="42.8337940" lon="-7.7139580">
        <ele>641.1</ele>
        <time>2020-10-19T09:29:49Z</time>
      </trkpt>
      <trkpt lat="42.8337940" lon="-7.7139580">
        <ele>641.1</ele>
        <time>2020-10-19T09:29:50Z</time>
      </trkpt>
      <trkpt lat="42.8337940" lon="-7.7139580">
        <ele>641.1</ele>
        <time>2020-10-19T09:29:51Z</time>
      </trkpt>
      <trkpt lat="42.8337940" lon="-7.7139580">
        <ele>641.1</ele>
        <time>2020-10-19T09:29:52Z</time>
      </trkpt>
      <trkpt lat="42.8337940" lon="-7.7139580">
        <ele>641.1</ele>
        <time>2020-10-19T09:29:53Z</time>
      </trkpt>
      <trkpt lat="42.8337940" lon="-7.7139580">
        <ele>641.1</ele>
        <time>2020-10-19T09:29:54Z</time>
      </trkpt>
      <trkpt lat="42.8337940" lon="-7.7139570">
        <ele>641.1</ele>
        <time>2020-10-19T09:29:55Z</time>
      </trkpt>
      <trkpt lat="42.8337950" lon="-7.7139570">
        <ele>641.1</ele>
        <time>2020-10-19T09:29:56Z</time>
      </trkpt>
      <trkpt lat="42.8337950" lon="-7.7139560">
        <ele>641.1</ele>
        <time>2020-10-19T09:29:57Z</time>
      </trkpt>
      <trkpt lat="42.8337960" lon="-7.7139560">
        <ele>641.1</ele>
        <time>2020-10-19T09:29:58Z</time>
      </trkpt>
      <trkpt lat="42.8337960" lon="-7.7139550">
        <ele>641.1</ele>
        <time>2020-10-19T09:29:59Z</time>
      </trkpt>
      <trkpt lat="42.8337970" lon="-7.7139540">
        <ele>641.1</ele>
        <time>2020-10-19T09:30:00Z</time>
      </trkpt>
      <trkpt lat="42.8337970" lon="-7.7139540">
        <ele>641.1</ele>
        <time>2020-10-19T09:30:01Z</time>
      </trkpt>
      <trkpt lat="42.8337970" lon="-7.7139540">
        <ele>641.1</ele>
        <time>2020-10-19T09:30:02Z</time>
      </trkpt>
      <trkpt lat="42.8337970" lon="-7.7139540">
        <ele>641.1</ele>
        <time>2020-10-19T09:30:03Z</time>
      </trkpt>
      <trkpt lat="42.8337970" lon="-7.7139540">
        <ele>641.1</ele>
        <time>2020-10-19T09:30:04Z</time>
      </trkpt>
      <trkpt lat="42.8337960" lon="-7.7139540">
        <ele>641.1</ele>
        <time>2020-10-19T09:30:05Z</time>
      </trkpt>
      <trkpt lat="42.8337960" lon="-7.7139550">
        <ele>641.1</ele>
        <time>2020-10-19T09:30:06Z</time>
      </trkpt>
      <trkpt lat="42.8337950" lon="-7.7139550">
        <ele>641.1</ele>
        <time>2020-10-19T09:30:07Z</time>
      </trkpt>
      <trkpt lat="42.8337940" lon="-7.7139550">
        <ele>641.1</ele>
        <time>2020-10-19T09:30:08Z</time>
      </trkpt>
      <trkpt lat="42.8337920" lon="-7.7139550">
        <ele>641.1</ele>
        <time>2020-10-19T09:30:09Z</time>
      </trkpt>
      <trkpt lat="42.8337920" lon="-7.7139550">
        <ele>641.1</ele>
        <time>2020-10-19T09:30:10Z</time>
      </trkpt>
      <trkpt lat="42.8337910" lon="-7.7139540">
        <ele>641.1</ele>
        <time>2020-10-19T09:30:11Z</time>
      </trkpt>
      <trkpt lat="42.8337910" lon="-7.7139540">
        <ele>641.1</ele>
        <time>2020-10-19T09:30:12Z</time>
      </trkpt>
      <trkpt lat="42.8337890" lon="-7.7139530">
        <ele>641.2</ele>
        <time>2020-10-19T09:30:13Z</time>
      </trkpt>
      <trkpt lat="42.8337870" lon="-7.7139530">
        <ele>641.2</ele>
        <time>2020-10-19T09:30:14Z</time>
      </trkpt>
      <trkpt lat="42.8337860" lon="-7.7139540">
        <ele>641.2</ele>
        <time>2020-10-19T09:30:15Z</time>
      </trkpt>
      <trkpt lat="42.8337860" lon="-7.7139540">
        <ele>641.2</ele>
        <time>2020-10-19T09:30:16Z</time>
      </trkpt>
      <trkpt lat="42.8337860" lon="-7.7139540">
        <ele>641.2</ele>
        <time>2020-10-19T09:30:17Z</time>
      </trkpt>
      <trkpt lat="42.8337850" lon="-7.7139540">
        <ele>641.2</ele>
        <time>2020-10-19T09:30:18Z</time>
      </trkpt>
      <trkpt lat="42.8337850" lon="-7.7139540">
        <ele>641.2</ele>
        <time>2020-10-19T09:30:19Z</time>
      </trkpt>
      <trkpt lat="42.8337850" lon="-7.7139540">
        <ele>641.2</ele>
        <time>2020-10-19T09:30:20Z</time>
      </trkpt>
      <trkpt lat="42.8337850" lon="-7.7139540">
        <ele>641.2</ele>
        <time>2020-10-19T09:30:21Z</time>
      </trkpt>
      <trkpt lat="42.8337850" lon="-7.7139540">
        <ele>641.2</ele>
        <time>2020-10-19T09:30:22Z</time>
      </trkpt>
      <trkpt lat="42.8337850" lon="-7.7139550">
        <ele>641.2</ele>
        <time>2020-10-19T09:30:23Z</time>
      </trkpt>
      <trkpt lat="42.8337850" lon="-7.7139550">
        <ele>641.2</ele>
        <time>2020-10-19T09:30:24Z</time>
      </trkpt>
      <trkpt lat="42.8337850" lon="-7.7139550">
        <ele>641.2</ele>
        <time>2020-10-19T09:30:25Z</time>
      </trkpt>
      <trkpt lat="42.8337850" lon="-7.7139550">
        <ele>641.2</ele>
        <time>2020-10-19T09:30:26Z</time>
      </trkpt>
      <trkpt lat="42.8337850" lon="-7.7139550">
        <ele>641.2</ele>
        <time>2020-10-19T09:30:27Z</time>
      </trkpt>
      <trkpt lat="42.8337850" lon="-7.7139550">
        <ele>641.2</ele>
        <time>2020-10-19T09:30:28Z</time>
      </trkpt>
      <trkpt lat="42.8337860" lon="-7.7139550">
        <ele>641.2</ele>
        <time>2020-10-19T09:30:29Z</time>
      </trkpt>
      <trkpt lat="42.8337860" lon="-7.7139550">
        <ele>641.2</ele>
        <time>2020-10-19T09:30:30Z</time>
      </trkpt>
      <trkpt lat="42.8337860" lon="-7.7139550">
        <ele>641.2</ele>
        <time>2020-10-19T09:30:31Z</time>
      </trkpt>
      <trkpt lat="42.8337860" lon="-7.7139550">
        <ele>641.2</ele>
        <time>2020-10-19T09:30:32Z</time>
      </trkpt>
      <trkpt lat="42.8337870" lon="-7.7139550">
        <ele>641.2</ele>
        <time>2020-10-19T09:30:33Z</time>
      </trkpt>
      <trkpt lat="42.8337870" lon="-7.7139550">
        <ele>641.2</ele>
        <time>2020-10-19T09:30:34Z</time>
      </trkpt>
      <trkpt lat="42.8337870" lon="-7.7139550">
        <ele>641.2</ele>
        <time>2020-10-19T09:30:35Z</time>
      </trkpt>
      <trkpt lat="42.8337860" lon="-7.7139550">
        <ele>641.2</ele>
        <time>2020-10-19T09:30:36Z</time>
      </trkpt>
      <trkpt lat="42.8337860" lon="-7.7139560">
        <ele>641.2</ele>
        <time>2020-10-19T09:30:37Z</time>
      </trkpt>
      <trkpt lat="42.8337850" lon="-7.7139560">
        <ele>641.2</ele>
        <time>2020-10-19T09:30:38Z</time>
      </trkpt>
      <trkpt lat="42.8337850" lon="-7.7139550">
        <ele>641.2</ele>
        <time>2020-10-19T09:30:39Z</time>
      </trkpt>
      <trkpt lat="42.8337840" lon="-7.7139550">
        <ele>641.2</ele>
        <time>2020-10-19T09:30:40Z</time>
      </trkpt>
      <trkpt lat="42.8337840" lon="-7.7139540">
        <ele>641.2</ele>
        <time>2020-10-19T09:30:41Z</time>
      </trkpt>
      <trkpt lat="42.8337840" lon="-7.7139550">
        <ele>641.2</ele>
        <time>2020-10-19T09:30:42Z</time>
      </trkpt>
      <trkpt lat="42.8337850" lon="-7.7139540">
        <ele>641.2</ele>
        <time>2020-10-19T09:30:43Z</time>
      </trkpt>
      <trkpt lat="42.8337860" lon="-7.7139530">
        <ele>641.2</ele>
        <time>2020-10-19T09:30:44Z</time>
      </trkpt>
      <trkpt lat="42.8337860" lon="-7.7139530">
        <ele>641.2</ele>
        <time>2020-10-19T09:30:45Z</time>
      </trkpt>
      <trkpt lat="42.8337870" lon="-7.7139520">
        <ele>641.3</ele>
        <time>2020-10-19T09:30:46Z</time>
      </trkpt>
      <trkpt lat="42.8337880" lon="-7.7139520">
        <ele>641.3</ele>
        <time>2020-10-19T09:30:47Z</time>
      </trkpt>
      <trkpt lat="42.8337890" lon="-7.7139490">
        <ele>641.3</ele>
        <time>2020-10-19T09:30:48Z</time>
      </trkpt>
      <trkpt lat="42.8337890" lon="-7.7139470">
        <ele>641.3</ele>
        <time>2020-10-19T09:30:49Z</time>
      </trkpt>
      <trkpt lat="42.8337900" lon="-7.7139450">
        <ele>641.3</ele>
        <time>2020-10-19T09:30:50Z</time>
      </trkpt>
      <trkpt lat="42.8337900" lon="-7.7139450">
        <ele>641.3</ele>
        <time>2020-10-19T09:30:51Z</time>
      </trkpt>
      <trkpt lat="42.8337900" lon="-7.7139450">
        <ele>641.3</ele>
        <time>2020-10-19T09:30:52Z</time>
      </trkpt>
      <trkpt lat="42.8337900" lon="-7.7139460">
        <ele>641.3</ele>
        <time>2020-10-19T09:30:53Z</time>
      </trkpt>
      <trkpt lat="42.8337900" lon="-7.7139470">
        <ele>641.3</ele>
        <time>2020-10-19T09:30:54Z</time>
      </trkpt>
      <trkpt lat="42.8337900" lon="-7.7139470">
        <ele>641.3</ele>
        <time>2020-10-19T09:30:55Z</time>
      </trkpt>
      <trkpt lat="42.8337900" lon="-7.7139470">
        <ele>641.3</ele>
        <time>2020-10-19T09:30:56Z</time>
      </trkpt>
      <trkpt lat="42.8337900" lon="-7.7139470">
        <ele>641.3</ele>
        <time>2020-10-19T09:30:57Z</time>
      </trkpt>
      <trkpt lat="42.8337900" lon="-7.7139470">
        <ele>641.3</ele>
        <time>2020-10-19T09:30:58Z</time>
      </trkpt>
      <trkpt lat="42.8337910" lon="-7.7139470">
        <ele>641.3</ele>
        <time>2020-10-19T09:30:59Z</time>
      </trkpt>
      <trkpt lat="42.8337910" lon="-7.7139470">
        <ele>641.3</ele>
        <time>2020-10-19T09:31:00Z</time>
      </trkpt>
      <trkpt lat="42.8337910" lon="-7.7139480">
        <ele>641.3</ele>
        <time>2020-10-19T09:31:01Z</time>
      </trkpt>
      <trkpt lat="42.8337900" lon="-7.7139490">
        <ele>641.3</ele>
        <time>2020-10-19T09:31:02Z</time>
      </trkpt>
      <trkpt lat="42.8337900" lon="-7.7139490">
        <ele>641.3</ele>
        <time>2020-10-19T09:31:03Z</time>
      </trkpt>
      <trkpt lat="42.8337890" lon="-7.7139480">
        <ele>641.3</ele>
        <time>2020-10-19T09:31:04Z</time>
      </trkpt>
      <trkpt lat="42.8337870" lon="-7.7139470">
        <ele>641.3</ele>
        <time>2020-10-19T09:31:05Z</time>
      </trkpt>
      <trkpt lat="42.8337850" lon="-7.7139460">
        <ele>641.3</ele>
        <time>2020-10-19T09:31:06Z</time>
      </trkpt>
      <trkpt lat="42.8337850" lon="-7.7139460">
        <ele>641.3</ele>
        <time>2020-10-19T09:31:07Z</time>
      </trkpt>
      <trkpt lat="42.8337840" lon="-7.7139460">
        <ele>641.4</ele>
        <time>2020-10-19T09:31:08Z</time>
      </trkpt>
      <trkpt lat="42.8337840" lon="-7.7139460">
        <ele>641.4</ele>
        <time>2020-10-19T09:31:09Z</time>
      </trkpt>
      <trkpt lat="42.8337830" lon="-7.7139460">
        <ele>641.4</ele>
        <time>2020-10-19T09:31:10Z</time>
      </trkpt>
      <trkpt lat="42.8337830" lon="-7.7139450">
        <ele>641.4</ele>
        <time>2020-10-19T09:31:11Z</time>
      </trkpt>
      <trkpt lat="42.8337820" lon="-7.7139450">
        <ele>641.4</ele>
        <time>2020-10-19T09:31:12Z</time>
      </trkpt>
      <trkpt lat="42.8337830" lon="-7.7139420">
        <ele>641.4</ele>
        <time>2020-10-19T09:31:13Z</time>
      </trkpt>
      <trkpt lat="42.8337850" lon="-7.7139410">
        <ele>641.4</ele>
        <time>2020-10-19T09:31:14Z</time>
      </trkpt>
      <trkpt lat="42.8337880" lon="-7.7139430">
        <ele>641.4</ele>
        <time>2020-10-19T09:31:15Z</time>
      </trkpt>
      <trkpt lat="42.8337910" lon="-7.7139480">
        <ele>641.4</ele>
        <time>2020-10-19T09:31:16Z</time>
      </trkpt>
      <trkpt lat="42.8337940" lon="-7.7139530">
        <ele>641.5</ele>
        <time>2020-10-19T09:31:17Z</time>
      </trkpt>
      <trkpt lat="42.8337960" lon="-7.7139560">
        <ele>641.5</ele>
        <time>2020-10-19T09:31:18Z</time>
      </trkpt>
      <trkpt lat="42.8337960" lon="-7.7139580">
        <ele>641.5</ele>
        <time>2020-10-19T09:31:19Z</time>
      </trkpt>
      <trkpt lat="42.8337960" lon="-7.7139590">
        <ele>641.5</ele>
        <time>2020-10-19T09:31:20Z</time>
      </trkpt>
      <trkpt lat="42.8337950" lon="-7.7139610">
        <ele>641.5</ele>
        <time>2020-10-19T09:31:21Z</time>
      </trkpt>
      <trkpt lat="42.8337940" lon="-7.7139610">
        <ele>641.5</ele>
        <time>2020-10-19T09:31:22Z</time>
      </trkpt>
      <trkpt lat="42.8337930" lon="-7.7139610">
        <ele>641.5</ele>
        <time>2020-10-19T09:31:23Z</time>
      </trkpt>
      <trkpt lat="42.8337920" lon="-7.7139610">
        <ele>641.5</ele>
        <time>2020-10-19T09:31:24Z</time>
      </trkpt>
      <trkpt lat="42.8337930" lon="-7.7139610">
        <ele>641.5</ele>
        <time>2020-10-19T09:31:25Z</time>
      </trkpt>
      <trkpt lat="42.8337930" lon="-7.7139620">
        <ele>641.5</ele>
        <time>2020-10-19T09:31:26Z</time>
      </trkpt>
      <trkpt lat="42.8337930" lon="-7.7139620">
        <ele>641.5</ele>
        <time>2020-10-19T09:31:27Z</time>
      </trkpt>
      <trkpt lat="42.8337910" lon="-7.7139600">
        <ele>641.5</ele>
        <time>2020-10-19T09:31:28Z</time>
      </trkpt>
      <trkpt lat="42.8337900" lon="-7.7139570">
        <ele>641.5</ele>
        <time>2020-10-19T09:31:29Z</time>
      </trkpt>
      <trkpt lat="42.8337890" lon="-7.7139530">
        <ele>641.6</ele>
        <time>2020-10-19T09:31:30Z</time>
      </trkpt>
      <trkpt lat="42.8337900" lon="-7.7139540">
        <ele>641.6</ele>
        <time>2020-10-19T09:31:31Z</time>
      </trkpt>
      <trkpt lat="42.8337910" lon="-7.7139560">
        <ele>641.6</ele>
        <time>2020-10-19T09:31:32Z</time>
      </trkpt>
      <trkpt lat="42.8337920" lon="-7.7139610">
        <ele>641.6</ele>
        <time>2020-10-19T09:31:33Z</time>
      </trkpt>
      <trkpt lat="42.8337930" lon="-7.7139690">
        <ele>641.6</ele>
        <time>2020-10-19T09:31:34Z</time>
      </trkpt>
      <trkpt lat="42.8337930" lon="-7.7139770">
        <ele>641.7</ele>
        <time>2020-10-19T09:31:35Z</time>
      </trkpt>
      <trkpt lat="42.8337940" lon="-7.7139830">
        <ele>641.7</ele>
        <time>2020-10-19T09:31:36Z</time>
      </trkpt>
      <trkpt lat="42.8337950" lon="-7.7139870">
        <ele>641.7</ele>
        <time>2020-10-19T09:31:37Z</time>
      </trkpt>
      <trkpt lat="42.8337960" lon="-7.7139910">
        <ele>641.7</ele>
        <time>2020-10-19T09:31:38Z</time>
      </trkpt>
      <trkpt lat="42.8337960" lon="-7.7139960">
        <ele>641.7</ele>
        <time>2020-10-19T09:31:39Z</time>
      </trkpt>
      <trkpt lat="42.8337970" lon="-7.7140020">
        <ele>641.8</ele>
        <time>2020-10-19T09:31:40Z</time>
      </trkpt>
      <trkpt lat="42.8337970" lon="-7.7140100">
        <ele>641.8</ele>
        <time>2020-10-19T09:31:41Z</time>
      </trkpt>
      <trkpt lat="42.8337980" lon="-7.7140200">
        <ele>641.8</ele>
        <time>2020-10-19T09:31:42Z</time>
      </trkpt>
      <trkpt lat="42.8337990" lon="-7.7140300">
        <ele>641.9</ele>
        <time>2020-10-19T09:31:43Z</time>
      </trkpt>
      <trkpt lat="42.8338000" lon="-7.7140390">
        <ele>641.9</ele>
        <time>2020-10-19T09:31:44Z</time>
      </trkpt>
      <trkpt lat="42.8338020" lon="-7.7140440">
        <ele>641.9</ele>
        <time>2020-10-19T09:31:45Z</time>
      </trkpt>
      <trkpt lat="42.8338020" lon="-7.7140480">
        <ele>641.9</ele>
        <time>2020-10-19T09:31:46Z</time>
      </trkpt>
      <trkpt lat="42.8338010" lon="-7.7140530">
        <ele>642.0</ele>
        <time>2020-10-19T09:31:47Z</time>
      </trkpt>
      <trkpt lat="42.8338000" lon="-7.7140620">
        <ele>642.0</ele>
        <time>2020-10-19T09:31:48Z</time>
      </trkpt>
      <trkpt lat="42.8337990" lon="-7.7140740">
        <ele>642.0</ele>
        <time>2020-10-19T09:31:49Z</time>
      </trkpt>
      <trkpt lat="42.8337980" lon="-7.7140870">
        <ele>642.1</ele>
        <time>2020-10-19T09:31:50Z</time>
      </trkpt>
      <trkpt lat="42.8337970" lon="-7.7141010">
        <ele>642.1</ele>
        <time>2020-10-19T09:31:51Z</time>
      </trkpt>
      <trkpt lat="42.8337960" lon="-7.7141150">
        <ele>642.4</ele>
        <time>2020-10-19T09:31:52Z</time>
      </trkpt>
      <trkpt lat="42.8337950" lon="-7.7141290">
        <ele>642.5</ele>
        <time>2020-10-19T09:31:53Z</time>
      </trkpt>
      <trkpt lat="42.8337930" lon="-7.7141420">
        <ele>642.6</ele>
        <time>2020-10-19T09:31:54Z</time>
      </trkpt>
      <trkpt lat="42.8337910" lon="-7.7141550">
        <ele>642.7</ele>
        <time>2020-10-19T09:31:55Z</time>
      </trkpt>
      <trkpt lat="42.8337900" lon="-7.7141660">
        <ele>642.7</ele>
        <time>2020-10-19T09:31:56Z</time>
      </trkpt>
      <trkpt lat="42.8337880" lon="-7.7141790">
        <ele>642.8</ele>
        <time>2020-10-19T09:31:57Z</time>
      </trkpt>
      <trkpt lat="42.8337860" lon="-7.7141910">
        <ele>642.9</ele>
        <time>2020-10-19T09:31:58Z</time>
      </trkpt>
      <trkpt lat="42.8337830" lon="-7.7142030">
        <ele>643.0</ele>
        <time>2020-10-19T09:31:59Z</time>
      </trkpt>
      <trkpt lat="42.8337810" lon="-7.7142140">
        <ele>643.1</ele>
        <time>2020-10-19T09:32:00Z</time>
      </trkpt>
      <trkpt lat="42.8337790" lon="-7.7142260">
        <ele>643.2</ele>
        <time>2020-10-19T09:32:01Z</time>
      </trkpt>
      <trkpt lat="42.8337760" lon="-7.7142380">
        <ele>643.3</ele>
        <time>2020-10-19T09:32:02Z</time>
      </trkpt>
      <trkpt lat="42.8337740" lon="-7.7142500">
        <ele>643.4</ele>
        <time>2020-10-19T09:32:03Z</time>
      </trkpt>
      <trkpt lat="42.8337720" lon="-7.7142600">
        <ele>643.5</ele>
        <time>2020-10-19T09:32:04Z</time>
      </trkpt>
      <trkpt lat="42.8337700" lon="-7.7142710">
        <ele>643.5</ele>
        <time>2020-10-19T09:32:05Z</time>
      </trkpt>
      <trkpt lat="42.8337680" lon="-7.7142810">
        <ele>643.6</ele>
        <time>2020-10-19T09:32:06Z</time>
      </trkpt>
      <trkpt lat="42.8337670" lon="-7.7142930">
        <ele>643.7</ele>
        <time>2020-10-19T09:32:07Z</time>
      </trkpt>
      <trkpt lat="42.8337640" lon="-7.7143030">
        <ele>643.8</ele>
        <time>2020-10-19T09:32:08Z</time>
      </trkpt>
      <trkpt lat="42.8337610" lon="-7.7143120">
        <ele>643.9</ele>
        <time>2020-10-19T09:32:09Z</time>
      </trkpt>
      <trkpt lat="42.8337570" lon="-7.7143220">
        <ele>644.0</ele>
        <time>2020-10-19T09:32:10Z</time>
      </trkpt>
      <trkpt lat="42.8337540" lon="-7.7143340">
        <ele>644.1</ele>
        <time>2020-10-19T09:32:11Z</time>
      </trkpt>
      <trkpt lat="42.8337520" lon="-7.7143460">
        <ele>644.2</ele>
        <time>2020-10-19T09:32:12Z</time>
      </trkpt>
      <trkpt lat="42.8337490" lon="-7.7143560">
        <ele>644.3</ele>
        <time>2020-10-19T09:32:13Z</time>
      </trkpt>
      <trkpt lat="42.8337470" lon="-7.7143670">
        <ele>644.4</ele>
        <time>2020-10-19T09:32:14Z</time>
      </trkpt>
      <trkpt lat="42.8337450" lon="-7.7143770">
        <ele>644.4</ele>
        <time>2020-10-19T09:32:15Z</time>
      </trkpt>
      <trkpt lat="42.8337420" lon="-7.7143880">
        <ele>644.5</ele>
        <time>2020-10-19T09:32:16Z</time>
      </trkpt>
      <trkpt lat="42.8337400" lon="-7.7143990">
        <ele>644.6</ele>
        <time>2020-10-19T09:32:17Z</time>
      </trkpt>
      <trkpt lat="42.8337370" lon="-7.7144100">
        <ele>644.7</ele>
        <time>2020-10-19T09:32:18Z</time>
      </trkpt>
      <trkpt lat="42.8337350" lon="-7.7144210">
        <ele>644.8</ele>
        <time>2020-10-19T09:32:19Z</time>
      </trkpt>
      <trkpt lat="42.8337320" lon="-7.7144320">
        <ele>644.9</ele>
        <time>2020-10-19T09:32:20Z</time>
      </trkpt>
      <trkpt lat="42.8337290" lon="-7.7144410">
        <ele>645.0</ele>
        <time>2020-10-19T09:32:21Z</time>
      </trkpt>
      <trkpt lat="42.8337280" lon="-7.7144530">
        <ele>645.1</ele>
        <time>2020-10-19T09:32:22Z</time>
      </trkpt>
      <trkpt lat="42.8337260" lon="-7.7144650">
        <ele>645.2</ele>
        <time>2020-10-19T09:32:23Z</time>
      </trkpt>
      <trkpt lat="42.8337250" lon="-7.7144800">
        <ele>645.4</ele>
        <time>2020-10-19T09:32:24Z</time>
      </trkpt>
      <trkpt lat="42.8337220" lon="-7.7144930">
        <ele>645.5</ele>
        <time>2020-10-19T09:32:25Z</time>
      </trkpt>
      <trkpt lat="42.8337200" lon="-7.7145040">
        <ele>645.6</ele>
        <time>2020-10-19T09:32:26Z</time>
      </trkpt>
      <trkpt lat="42.8337170" lon="-7.7145150">
        <ele>645.7</ele>
        <time>2020-10-19T09:32:27Z</time>
      </trkpt>
      <trkpt lat="42.8337140" lon="-7.7145250">
        <ele>645.8</ele>
        <time>2020-10-19T09:32:28Z</time>
      </trkpt>
      <trkpt lat="42.8337120" lon="-7.7145340">
        <ele>645.9</ele>
        <time>2020-10-19T09:32:29Z</time>
      </trkpt>
      <trkpt lat="42.8337100" lon="-7.7145430">
        <ele>646.0</ele>
        <time>2020-10-19T09:32:30Z</time>
      </trkpt>
      <trkpt lat="42.8337080" lon="-7.7145520">
        <ele>646.1</ele>
        <time>2020-10-19T09:32:31Z</time>
      </trkpt>
      <trkpt lat="42.8337060" lon="-7.7145620">
        <ele>646.2</ele>
        <time>2020-10-19T09:32:32Z</time>
      </trkpt>
      <trkpt lat="42.8337040" lon="-7.7145730">
        <ele>646.3</ele>
        <time>2020-10-19T09:32:33Z</time>
      </trkpt>
      <trkpt lat="42.8337030" lon="-7.7145830">
        <ele>646.4</ele>
        <time>2020-10-19T09:32:34Z</time>
      </trkpt>
      <trkpt lat="42.8337010" lon="-7.7145950">
        <ele>646.5</ele>
        <time>2020-10-19T09:32:35Z</time>
      </trkpt>
      <trkpt lat="42.8336990" lon="-7.7146020">
        <ele>646.6</ele>
        <time>2020-10-19T09:32:36Z</time>
      </trkpt>
      <trkpt lat="42.8336940" lon="-7.7146060">
        <ele>646.6</ele>
        <time>2020-10-19T09:32:37Z</time>
      </trkpt>
      <trkpt lat="42.8336910" lon="-7.7146070">
        <ele>646.7</ele>
        <time>2020-10-19T09:32:38Z</time>
      </trkpt>
      <trkpt lat="42.8336880" lon="-7.7146110">
        <ele>646.7</ele>
        <time>2020-10-19T09:32:39Z</time>
      </trkpt>
      <trkpt lat="42.8336860" lon="-7.7146170">
        <ele>646.8</ele>
        <time>2020-10-19T09:32:40Z</time>
      </trkpt>
      <trkpt lat="42.8336840" lon="-7.7146280">
        <ele>646.9</ele>
        <time>2020-10-19T09:32:41Z</time>
      </trkpt>
      <trkpt lat="42.8336810" lon="-7.7146420">
        <ele>647.0</ele>
        <time>2020-10-19T09:32:42Z</time>
      </trkpt>
      <trkpt lat="42.8336790" lon="-7.7146570">
        <ele>647.2</ele>
        <time>2020-10-19T09:32:43Z</time>
      </trkpt>
      <trkpt lat="42.8336770" lon="-7.7146720">
        <ele>647.3</ele>
        <time>2020-10-19T09:32:44Z</time>
      </trkpt>
      <trkpt lat="42.8336750" lon="-7.7146850">
        <ele>647.4</ele>
        <time>2020-10-19T09:32:45Z</time>
      </trkpt>
      <trkpt lat="42.8336740" lon="-7.7146990">
        <ele>647.6</ele>
        <time>2020-10-19T09:32:46Z</time>
      </trkpt>
      <trkpt lat="42.8336720" lon="-7.7147120">
        <ele>647.7</ele>
        <time>2020-10-19T09:32:47Z</time>
      </trkpt>
      <trkpt lat="42.8336700" lon="-7.7147240">
        <ele>647.8</ele>
        <time>2020-10-19T09:32:48Z</time>
      </trkpt>
      <trkpt lat="42.8336670" lon="-7.7147380">
        <ele>647.9</ele>
        <time>2020-10-19T09:32:49Z</time>
      </trkpt>
      <trkpt lat="42.8336630" lon="-7.7147510">
        <ele>648.1</ele>
        <time>2020-10-19T09:32:50Z</time>
      </trkpt>
      <trkpt lat="42.8336610" lon="-7.7147650">
        <ele>648.2</ele>
        <time>2020-10-19T09:32:51Z</time>
      </trkpt>
      <trkpt lat="42.8336590" lon="-7.7147780">
        <ele>648.3</ele>
        <time>2020-10-19T09:32:52Z</time>
      </trkpt>
      <trkpt lat="42.8336570" lon="-7.7147910">
        <ele>648.4</ele>
        <time>2020-10-19T09:32:53Z</time>
      </trkpt>
      <trkpt lat="42.8336540" lon="-7.7148040">
        <ele>648.6</ele>
        <time>2020-10-19T09:32:54Z</time>
      </trkpt>
      <trkpt lat="42.8336510" lon="-7.7148190">
        <ele>648.7</ele>
        <time>2020-10-19T09:32:55Z</time>
      </trkpt>
      <trkpt lat="42.8336470" lon="-7.7148340">
        <ele>648.9</ele>
        <time>2020-10-19T09:32:56Z</time>
      </trkpt>
      <trkpt lat="42.8336440" lon="-7.7148500">
        <ele>649.0</ele>
        <time>2020-10-19T09:32:57Z</time>
      </trkpt>
      <trkpt lat="42.8336410" lon="-7.7148650">
        <ele>649.2</ele>
        <time>2020-10-19T09:32:58Z</time>
      </trkpt>
      <trkpt lat="42.8336390" lon="-7.7148780">
        <ele>649.3</ele>
        <time>2020-10-19T09:32:59Z</time>
      </trkpt>
      <trkpt lat="42.8336370" lon="-7.7148910">
        <ele>649.4</ele>
        <time>2020-10-19T09:33:00Z</time>
      </trkpt>
      <trkpt lat="42.8336350" lon="-7.7149030">
        <ele>649.6</ele>
        <time>2020-10-19T09:33:01Z</time>
      </trkpt>
      <trkpt lat="42.8336320" lon="-7.7149150">
        <ele>649.7</ele>
        <time>2020-10-19T09:33:02Z</time>
      </trkpt>
      <trkpt lat="42.8336290" lon="-7.7149280">
        <ele>649.8</ele>
        <time>2020-10-19T09:33:03Z</time>
      </trkpt>
      <trkpt lat="42.8336270" lon="-7.7149400">
        <ele>649.9</ele>
        <time>2020-10-19T09:33:04Z</time>
      </trkpt>
      <trkpt lat="42.8336250" lon="-7.7149530">
        <ele>650.1</ele>
        <time>2020-10-19T09:33:05Z</time>
      </trkpt>
      <trkpt lat="42.8336230" lon="-7.7149660">
        <ele>650.2</ele>
        <time>2020-10-19T09:33:06Z</time>
      </trkpt>
      <trkpt lat="42.8336200" lon="-7.7149800">
        <ele>650.3</ele>
        <time>2020-10-19T09:33:07Z</time>
      </trkpt>
      <trkpt lat="42.8336170" lon="-7.7149940">
        <ele>650.5</ele>
        <time>2020-10-19T09:33:08Z</time>
      </trkpt>
      <trkpt lat="42.8336140" lon="-7.7150090">
        <ele>650.6</ele>
        <time>2020-10-19T09:33:09Z</time>
      </trkpt>
      <trkpt lat="42.8336110" lon="-7.7150230">
        <ele>650.8</ele>
        <time>2020-10-19T09:33:10Z</time>
      </trkpt>
      <trkpt lat="42.8336080" lon="-7.7150380">
        <ele>650.9</ele>
        <time>2020-10-19T09:33:11Z</time>
      </trkpt>
      <trkpt lat="42.8336050" lon="-7.7150530">
        <ele>651.1</ele>
        <time>2020-10-19T09:33:12Z</time>
      </trkpt>
      <trkpt lat="42.8336020" lon="-7.7150680">
        <ele>651.2</ele>
        <time>2020-10-19T09:33:13Z</time>
      </trkpt>
      <trkpt lat="42.8335990" lon="-7.7150810">
        <ele>651.3</ele>
        <time>2020-10-19T09:33:14Z</time>
      </trkpt>
      <trkpt lat="42.8335960" lon="-7.7150940">
        <ele>651.5</ele>
        <time>2020-10-19T09:33:15Z</time>
      </trkpt>
      <trkpt lat="42.8335930" lon="-7.7151060">
        <ele>651.6</ele>
        <time>2020-10-19T09:33:16Z</time>
      </trkpt>
      <trkpt lat="42.8335910" lon="-7.7151180">
        <ele>651.7</ele>
        <time>2020-10-19T09:33:17Z</time>
      </trkpt>
      <trkpt lat="42.8335890" lon="-7.7151320">
        <ele>651.8</ele>
        <time>2020-10-19T09:33:18Z</time>
      </trkpt>
      <trkpt lat="42.8335870" lon="-7.7151470">
        <ele>652.0</ele>
        <time>2020-10-19T09:33:19Z</time>
      </trkpt>
      <trkpt lat="42.8335850" lon="-7.7151620">
        <ele>652.1</ele>
        <time>2020-10-19T09:33:20Z</time>
      </trkpt>
      <trkpt lat="42.8335810" lon="-7.7151770">
        <ele>652.3</ele>
        <time>2020-10-19T09:33:21Z</time>
      </trkpt>
      <trkpt lat="42.8335770" lon="-7.7151890">
        <ele>652.4</ele>
        <time>2020-10-19T09:33:22Z</time>
      </trkpt>
      <trkpt lat="42.8335740" lon="-7.7152000">
        <ele>652.5</ele>
        <time>2020-10-19T09:33:23Z</time>
      </trkpt>
      <trkpt lat="42.8335720" lon="-7.7152120">
        <ele>652.7</ele>
        <time>2020-10-19T09:33:24Z</time>
      </trkpt>
      <trkpt lat="42.8335700" lon="-7.7152230">
        <ele>652.8</ele>
        <time>2020-10-19T09:33:25Z</time>
      </trkpt>
      <trkpt lat="42.8335680" lon="-7.7152360">
        <ele>652.9</ele>
        <time>2020-10-19T09:33:26Z</time>
      </trkpt>
      <trkpt lat="42.8335670" lon="-7.7152490">
        <ele>653.1</ele>
        <time>2020-10-19T09:33:27Z</time>
      </trkpt>
      <trkpt lat="42.8335650" lon="-7.7152620">
        <ele>653.2</ele>
        <time>2020-10-19T09:33:28Z</time>
      </trkpt>
      <trkpt lat="42.8335650" lon="-7.7152740">
        <ele>653.3</ele>
        <time>2020-10-19T09:33:29Z</time>
      </trkpt>
      <trkpt lat="42.8335640" lon="-7.7152850">
        <ele>653.4</ele>
        <time>2020-10-19T09:33:30Z</time>
      </trkpt>
      <trkpt lat="42.8335630" lon="-7.7152970">
        <ele>653.5</ele>
        <time>2020-10-19T09:33:31Z</time>
      </trkpt>
      <trkpt lat="42.8335620" lon="-7.7153100">
        <ele>653.7</ele>
        <time>2020-10-19T09:33:32Z</time>
      </trkpt>
      <trkpt lat="42.8335600" lon="-7.7153240">
        <ele>653.8</ele>
        <time>2020-10-19T09:33:33Z</time>
      </trkpt>
      <trkpt lat="42.8335590" lon="-7.7153390">
        <ele>654.0</ele>
        <time>2020-10-19T09:33:34Z</time>
      </trkpt>
      <trkpt lat="42.8335580" lon="-7.7153530">
        <ele>654.1</ele>
        <time>2020-10-19T09:33:35Z</time>
      </trkpt>
      <trkpt lat="42.8335570" lon="-7.7153680">
        <ele>654.3</ele>
        <time>2020-10-19T09:33:36Z</time>
      </trkpt>
      <trkpt lat="42.8335550" lon="-7.7153830">
        <ele>654.4</ele>
        <time>2020-10-19T09:33:37Z</time>
      </trkpt>
      <trkpt lat="42.8335520" lon="-7.7153970">
        <ele>654.6</ele>
        <time>2020-10-19T09:33:38Z</time>
      </trkpt>
      <trkpt lat="42.8335480" lon="-7.7154110">
        <ele>654.7</ele>
        <time>2020-10-19T09:33:39Z</time>
      </trkpt>
      <trkpt lat="42.8335450" lon="-7.7154230">
        <ele>654.9</ele>
        <time>2020-10-19T09:33:40Z</time>
      </trkpt>
      <trkpt lat="42.8335440" lon="-7.7154340">
        <ele>655.0</ele>
        <time>2020-10-19T09:33:41Z</time>
      </trkpt>
      <trkpt lat="42.8335430" lon="-7.7154460">
        <ele>655.1</ele>
        <time>2020-10-19T09:33:42Z</time>
      </trkpt>
      <trkpt lat="42.8335440" lon="-7.7154590">
        <ele>655.2</ele>
        <time>2020-10-19T09:33:43Z</time>
      </trkpt>
      <trkpt lat="42.8335430" lon="-7.7154740">
        <ele>655.4</ele>
        <time>2020-10-19T09:33:44Z</time>
      </trkpt>
      <trkpt lat="42.8335430" lon="-7.7154870">
        <ele>655.5</ele>
        <time>2020-10-19T09:33:45Z</time>
      </trkpt>
      <trkpt lat="42.8335420" lon="-7.7154980">
        <ele>655.7</ele>
        <time>2020-10-19T09:33:46Z</time>
      </trkpt>
      <trkpt lat="42.8335420" lon="-7.7155050">
        <ele>655.7</ele>
        <time>2020-10-19T09:33:47Z</time>
      </trkpt>
      <trkpt lat="42.8335420" lon="-7.7155090">
        <ele>655.8</ele>
        <time>2020-10-19T09:33:48Z</time>
      </trkpt>
      <trkpt lat="42.8335420" lon="-7.7155150">
        <ele>655.8</ele>
        <time>2020-10-19T09:33:49Z</time>
      </trkpt>
      <trkpt lat="42.8335400" lon="-7.7155240">
        <ele>655.9</ele>
        <time>2020-10-19T09:33:50Z</time>
      </trkpt>
      <trkpt lat="42.8335370" lon="-7.7155350">
        <ele>656.1</ele>
        <time>2020-10-19T09:33:51Z</time>
      </trkpt>
      <trkpt lat="42.8335330" lon="-7.7155450">
        <ele>656.2</ele>
        <time>2020-10-19T09:33:52Z</time>
      </trkpt>
      <trkpt lat="42.8335290" lon="-7.7155550">
        <ele>656.3</ele>
        <time>2020-10-19T09:33:53Z</time>
      </trkpt>
      <trkpt lat="42.8335270" lon="-7.7155670">
        <ele>656.4</ele>
        <time>2020-10-19T09:33:54Z</time>
      </trkpt>
      <trkpt lat="42.8335260" lon="-7.7155800">
        <ele>656.6</ele>
        <time>2020-10-19T09:33:55Z</time>
      </trkpt>
      <trkpt lat="42.8335260" lon="-7.7155930">
        <ele>656.7</ele>
        <time>2020-10-19T09:33:56Z</time>
      </trkpt>
      <trkpt lat="42.8335260" lon="-7.7156060">
        <ele>656.8</ele>
        <time>2020-10-19T09:33:57Z</time>
      </trkpt>
      <trkpt lat="42.8335250" lon="-7.7156190">
        <ele>657.0</ele>
        <time>2020-10-19T09:33:58Z</time>
      </trkpt>
      <trkpt lat="42.8335240" lon="-7.7156320">
        <ele>657.1</ele>
        <time>2020-10-19T09:33:59Z</time>
      </trkpt>
      <trkpt lat="42.8335240" lon="-7.7156450">
        <ele>657.3</ele>
        <time>2020-10-19T09:34:00Z</time>
      </trkpt>
      <trkpt lat="42.8335240" lon="-7.7156570">
        <ele>657.4</ele>
        <time>2020-10-19T09:34:01Z</time>
      </trkpt>
      <trkpt lat="42.8335240" lon="-7.7156690">
        <ele>657.5</ele>
        <time>2020-10-19T09:34:02Z</time>
      </trkpt>
      <trkpt lat="42.8335230" lon="-7.7156810">
        <ele>657.6</ele>
        <time>2020-10-19T09:34:03Z</time>
      </trkpt>
      <trkpt lat="42.8335210" lon="-7.7156940">
        <ele>657.8</ele>
        <time>2020-10-19T09:34:04Z</time>
      </trkpt>
      <trkpt lat="42.8335190" lon="-7.7157050">
        <ele>657.9</ele>
        <time>2020-10-19T09:34:05Z</time>
      </trkpt>
      <trkpt lat="42.8335180" lon="-7.7157170">
        <ele>658.0</ele>
        <time>2020-10-19T09:34:06Z</time>
      </trkpt>
      <trkpt lat="42.8335170" lon="-7.7157290">
        <ele>658.1</ele>
        <time>2020-10-19T09:34:07Z</time>
      </trkpt>
      <trkpt lat="42.8335170" lon="-7.7157410">
        <ele>658.3</ele>
        <time>2020-10-19T09:34:08Z</time>
      </trkpt>
      <trkpt lat="42.8335160" lon="-7.7157540">
        <ele>658.4</ele>
        <time>2020-10-19T09:34:09Z</time>
      </trkpt>
      <trkpt lat="42.8335160" lon="-7.7157660">
        <ele>658.5</ele>
        <time>2020-10-19T09:34:10Z</time>
      </trkpt>
      <trkpt lat="42.8335150" lon="-7.7157780">
        <ele>658.7</ele>
        <time>2020-10-19T09:34:11Z</time>
      </trkpt>
      <trkpt lat="42.8335140" lon="-7.7157890">
        <ele>658.8</ele>
        <time>2020-10-19T09:34:12Z</time>
      </trkpt>
      <trkpt lat="42.8335120" lon="-7.7158000">
        <ele>658.9</ele>
        <time>2020-10-19T09:34:13Z</time>
      </trkpt>
      <trkpt lat="42.8335100" lon="-7.7158100">
        <ele>659.0</ele>
        <time>2020-10-19T09:34:14Z</time>
      </trkpt>
      <trkpt lat="42.8335090" lon="-7.7158210">
        <ele>659.1</ele>
        <time>2020-10-19T09:34:15Z</time>
      </trkpt>
      <trkpt lat="42.8335080" lon="-7.7158320">
        <ele>659.2</ele>
        <time>2020-10-19T09:34:16Z</time>
      </trkpt>
      <trkpt lat="42.8335090" lon="-7.7158440">
        <ele>659.4</ele>
        <time>2020-10-19T09:34:17Z</time>
      </trkpt>
      <trkpt lat="42.8335090" lon="-7.7158550">
        <ele>659.5</ele>
        <time>2020-10-19T09:34:18Z</time>
      </trkpt>
      <trkpt lat="42.8335100" lon="-7.7158670">
        <ele>659.6</ele>
        <time>2020-10-19T09:34:19Z</time>
      </trkpt>
      <trkpt lat="42.8335110" lon="-7.7158780">
        <ele>659.7</ele>
        <time>2020-10-19T09:34:20Z</time>
      </trkpt>
      <trkpt lat="42.8335110" lon="-7.7158850">
        <ele>659.8</ele>
        <time>2020-10-19T09:34:21Z</time>
      </trkpt>
      <trkpt lat="42.8335110" lon="-7.7158900">
        <ele>659.8</ele>
        <time>2020-10-19T09:34:22Z</time>
      </trkpt>
      <trkpt lat="42.8335100" lon="-7.7158950">
        <ele>659.9</ele>
        <time>2020-10-19T09:34:23Z</time>
      </trkpt>
      <trkpt lat="42.8335100" lon="-7.7159030">
        <ele>660.0</ele>
        <time>2020-10-19T09:34:24Z</time>
      </trkpt>
      <trkpt lat="42.8335090" lon="-7.7159140">
        <ele>660.1</ele>
        <time>2020-10-19T09:34:25Z</time>
      </trkpt>
      <trkpt lat="42.8335090" lon="-7.7159260">
        <ele>660.2</ele>
        <time>2020-10-19T09:34:26Z</time>
      </trkpt>
      <trkpt lat="42.8335090" lon="-7.7159380">
        <ele>660.3</ele>
        <time>2020-10-19T09:34:27Z</time>
      </trkpt>
      <trkpt lat="42.8335100" lon="-7.7159510">
        <ele>660.5</ele>
        <time>2020-10-19T09:34:28Z</time>
      </trkpt>
      <trkpt lat="42.8335100" lon="-7.7159620">
        <ele>660.6</ele>
        <time>2020-10-19T09:34:29Z</time>
      </trkpt>
      <trkpt lat="42.8335100" lon="-7.7159740">
        <ele>660.7</ele>
        <time>2020-10-19T09:34:30Z</time>
      </trkpt>
      <trkpt lat="42.8335100" lon="-7.7159860">
        <ele>660.8</ele>
        <time>2020-10-19T09:34:31Z</time>
      </trkpt>
      <trkpt lat="42.8335110" lon="-7.7159970">
        <ele>660.9</ele>
        <time>2020-10-19T09:34:32Z</time>
      </trkpt>
      <trkpt lat="42.8335120" lon="-7.7160090">
        <ele>661.0</ele>
        <time>2020-10-19T09:34:33Z</time>
      </trkpt>
      <trkpt lat="42.8335130" lon="-7.7160200">
        <ele>661.2</ele>
        <time>2020-10-19T09:34:34Z</time>
      </trkpt>
      <trkpt lat="42.8335130" lon="-7.7160310">
        <ele>661.3</ele>
        <time>2020-10-19T09:34:35Z</time>
      </trkpt>
      <trkpt lat="42.8335110" lon="-7.7160430">
        <ele>661.4</ele>
        <time>2020-10-19T09:34:36Z</time>
      </trkpt>
      <trkpt lat="42.8335100" lon="-7.7160540">
        <ele>661.5</ele>
        <time>2020-10-19T09:34:37Z</time>
      </trkpt>
      <trkpt lat="42.8335070" lon="-7.7160660">
        <ele>661.6</ele>
        <time>2020-10-19T09:34:38Z</time>
      </trkpt>
      <trkpt lat="42.8335060" lon="-7.7160760">
        <ele>661.7</ele>
        <time>2020-10-19T09:34:39Z</time>
      </trkpt>
      <trkpt lat="42.8335070" lon="-7.7160870">
        <ele>661.9</ele>
        <time>2020-10-19T09:34:40Z</time>
      </trkpt>
      <trkpt lat="42.8335080" lon="-7.7160980">
        <ele>662.0</ele>
        <time>2020-10-19T09:34:41Z</time>
      </trkpt>
      <trkpt lat="42.8335100" lon="-7.7161100">
        <ele>662.1</ele>
        <time>2020-10-19T09:34:42Z</time>
      </trkpt>
      <trkpt lat="42.8335100" lon="-7.7161230">
        <ele>662.2</ele>
        <time>2020-10-19T09:34:43Z</time>
      </trkpt>
      <trkpt lat="42.8335090" lon="-7.7161370">
        <ele>662.4</ele>
        <time>2020-10-19T09:34:44Z</time>
      </trkpt>
      <trkpt lat="42.8335080" lon="-7.7161500">
        <ele>662.5</ele>
        <time>2020-10-19T09:34:45Z</time>
      </trkpt>
      <trkpt lat="42.8335060" lon="-7.7161640">
        <ele>662.7</ele>
        <time>2020-10-19T09:34:46Z</time>
      </trkpt>
      <trkpt lat="42.8335040" lon="-7.7161780">
        <ele>662.8</ele>
        <time>2020-10-19T09:34:47Z</time>
      </trkpt>
      <trkpt lat="42.8335040" lon="-7.7161920">
        <ele>663.0</ele>
        <time>2020-10-19T09:34:48Z</time>
      </trkpt>
      <trkpt lat="42.8335040" lon="-7.7162060">
        <ele>663.1</ele>
        <time>2020-10-19T09:34:49Z</time>
      </trkpt>
      <trkpt lat="42.8335040" lon="-7.7162200">
        <ele>663.3</ele>
        <time>2020-10-19T09:34:50Z</time>
      </trkpt>
      <trkpt lat="42.8335030" lon="-7.7162330">
        <ele>663.4</ele>
        <time>2020-10-19T09:34:51Z</time>
      </trkpt>
      <trkpt lat="42.8335020" lon="-7.7162470">
        <ele>663.5</ele>
        <time>2020-10-19T09:34:52Z</time>
      </trkpt>
      <trkpt lat="42.8335010" lon="-7.7162610">
        <ele>663.7</ele>
        <time>2020-10-19T09:34:53Z</time>
      </trkpt>
      <trkpt lat="42.8335000" lon="-7.7162770">
        <ele>663.9</ele>
        <time>2020-10-19T09:34:54Z</time>
      </trkpt>
      <trkpt lat="42.8334990" lon="-7.7162920">
        <ele>664.0</ele>
        <time>2020-10-19T09:34:55Z</time>
      </trkpt>
      <trkpt lat="42.8334990" lon="-7.7163070">
        <ele>664.2</ele>
        <time>2020-10-19T09:34:56Z</time>
      </trkpt>
      <trkpt lat="42.8334980" lon="-7.7163220">
        <ele>664.3</ele>
        <time>2020-10-19T09:34:57Z</time>
      </trkpt>
      <trkpt lat="42.8334980" lon="-7.7163370">
        <ele>664.5</ele>
        <time>2020-10-19T09:34:58Z</time>
      </trkpt>
      <trkpt lat="42.8334990" lon="-7.7163520">
        <ele>664.7</ele>
        <time>2020-10-19T09:34:59Z</time>
      </trkpt>
      <trkpt lat="42.8335000" lon="-7.7163680">
        <ele>664.8</ele>
        <time>2020-10-19T09:35:00Z</time>
      </trkpt>
      <trkpt lat="42.8335020" lon="-7.7163820">
        <ele>665.0</ele>
        <time>2020-10-19T09:35:01Z</time>
      </trkpt>
      <trkpt lat="42.8335040" lon="-7.7163970">
        <ele>665.1</ele>
        <time>2020-10-19T09:35:02Z</time>
      </trkpt>
      <trkpt lat="42.8335060" lon="-7.7164110">
        <ele>665.3</ele>
        <time>2020-10-19T09:35:03Z</time>
      </trkpt>
      <trkpt lat="42.8335070" lon="-7.7164260">
        <ele>665.5</ele>
        <time>2020-10-19T09:35:04Z</time>
      </trkpt>
      <trkpt lat="42.8335070" lon="-7.7164410">
        <ele>665.6</ele>
        <time>2020-10-19T09:35:05Z</time>
      </trkpt>
      <trkpt lat="42.8335070" lon="-7.7164550">
        <ele>665.8</ele>
        <time>2020-10-19T09:35:06Z</time>
      </trkpt>
      <trkpt lat="42.8335060" lon="-7.7164700">
        <ele>665.9</ele>
        <time>2020-10-19T09:35:07Z</time>
      </trkpt>
      <trkpt lat="42.8335060" lon="-7.7164860">
        <ele>666.1</ele>
        <time>2020-10-19T09:35:08Z</time>
      </trkpt>
      <trkpt lat="42.8335060" lon="-7.7165020">
        <ele>666.3</ele>
        <time>2020-10-19T09:35:09Z</time>
      </trkpt>
      <trkpt lat="42.8335050" lon="-7.7165180">
        <ele>666.4</ele>
        <time>2020-10-19T09:35:10Z</time>
      </trkpt>
      <trkpt lat="42.8335040" lon="-7.7165330">
        <ele>666.6</ele>
        <time>2020-10-19T09:35:11Z</time>
      </trkpt>
      <trkpt lat="42.8335020" lon="-7.7165480">
        <ele>666.8</ele>
        <time>2020-10-19T09:35:12Z</time>
      </trkpt>
      <trkpt lat="42.8335000" lon="-7.7165620">
        <ele>666.9</ele>
        <time>2020-10-19T09:35:13Z</time>
      </trkpt>
      <trkpt lat="42.8335000" lon="-7.7165750">
        <ele>667.1</ele>
        <time>2020-10-19T09:35:14Z</time>
      </trkpt>
      <trkpt lat="42.8334990" lon="-7.7165890">
        <ele>667.2</ele>
        <time>2020-10-19T09:35:15Z</time>
      </trkpt>
      <trkpt lat="42.8335000" lon="-7.7166020">
        <ele>667.3</ele>
        <time>2020-10-19T09:35:16Z</time>
      </trkpt>
      <trkpt lat="42.8335010" lon="-7.7166160">
        <ele>667.5</ele>
        <time>2020-10-19T09:35:17Z</time>
      </trkpt>
      <trkpt lat="42.8335010" lon="-7.7166300">
        <ele>667.6</ele>
        <time>2020-10-19T09:35:18Z</time>
      </trkpt>
      <trkpt lat="42.8335010" lon="-7.7166440">
        <ele>667.8</ele>
        <time>2020-10-19T09:35:19Z</time>
      </trkpt>
      <trkpt lat="42.8335020" lon="-7.7166580">
        <ele>667.9</ele>
        <time>2020-10-19T09:35:20Z</time>
      </trkpt>
      <trkpt lat="42.8335040" lon="-7.7166720">
        <ele>668.1</ele>
        <time>2020-10-19T09:35:21Z</time>
      </trkpt>
      <trkpt lat="42.8335060" lon="-7.7166870">
        <ele>668.2</ele>
        <time>2020-10-19T09:35:22Z</time>
      </trkpt>
      <trkpt lat="42.8335070" lon="-7.7167010">
        <ele>668.4</ele>
        <time>2020-10-19T09:35:23Z</time>
      </trkpt>
      <trkpt lat="42.8335070" lon="-7.7167150">
        <ele>668.5</ele>
        <time>2020-10-19T09:35:24Z</time>
      </trkpt>
      <trkpt lat="42.8335070" lon="-7.7167290">
        <ele>668.7</ele>
        <time>2020-10-19T09:35:25Z</time>
      </trkpt>
      <trkpt lat="42.8335070" lon="-7.7167430">
        <ele>668.8</ele>
        <time>2020-10-19T09:35:26Z</time>
      </trkpt>
      <trkpt lat="42.8335070" lon="-7.7167550">
        <ele>669.0</ele>
        <time>2020-10-19T09:35:27Z</time>
      </trkpt>
      <trkpt lat="42.8335050" lon="-7.7167630">
        <ele>669.1</ele>
        <time>2020-10-19T09:35:28Z</time>
      </trkpt>
      <trkpt lat="42.8335030" lon="-7.7167680">
        <ele>669.1</ele>
        <time>2020-10-19T09:35:29Z</time>
      </trkpt>
      <trkpt lat="42.8335020" lon="-7.7167710">
        <ele>669.1</ele>
        <time>2020-10-19T09:35:30Z</time>
      </trkpt>
      <trkpt lat="42.8335020" lon="-7.7167720">
        <ele>669.2</ele>
        <time>2020-10-19T09:35:31Z</time>
      </trkpt>
      <trkpt lat="42.8335010" lon="-7.7167720">
        <ele>669.2</ele>
        <time>2020-10-19T09:35:32Z</time>
      </trkpt>
      <trkpt lat="42.8335010" lon="-7.7167720">
        <ele>669.2</ele>
        <time>2020-10-19T09:35:33Z</time>
      </trkpt>
      <trkpt lat="42.8335010" lon="-7.7167730">
        <ele>669.2</ele>
        <time>2020-10-19T09:35:34Z</time>
      </trkpt>
      <trkpt lat="42.8335010" lon="-7.7167740">
        <ele>669.2</ele>
        <time>2020-10-19T09:35:35Z</time>
      </trkpt>
      <trkpt lat="42.8335020" lon="-7.7167740">
        <ele>669.2</ele>
        <time>2020-10-19T09:35:36Z</time>
      </trkpt>
      <trkpt lat="42.8335010" lon="-7.7167750">
        <ele>669.2</ele>
        <time>2020-10-19T09:35:37Z</time>
      </trkpt>
      <trkpt lat="42.8335010" lon="-7.7167770">
        <ele>669.2</ele>
        <time>2020-10-19T09:35:38Z</time>
      </trkpt>
      <trkpt lat="42.8335010" lon="-7.7167810">
        <ele>669.3</ele>
        <time>2020-10-19T09:35:39Z</time>
      </trkpt>
      <trkpt lat="42.8335010" lon="-7.7167870">
        <ele>669.4</ele>
        <time>2020-10-19T09:35:40Z</time>
      </trkpt>
      <trkpt lat="42.8335010" lon="-7.7167940">
        <ele>669.4</ele>
        <time>2020-10-19T09:35:41Z</time>
      </trkpt>
      <trkpt lat="42.8335020" lon="-7.7168030">
        <ele>669.5</ele>
        <time>2020-10-19T09:35:42Z</time>
      </trkpt>
      <trkpt lat="42.8335030" lon="-7.7168170">
        <ele>669.7</ele>
        <time>2020-10-19T09:35:43Z</time>
      </trkpt>
      <trkpt lat="42.8335050" lon="-7.7168310">
        <ele>669.8</ele>
        <time>2020-10-19T09:35:44Z</time>
      </trkpt>
      <trkpt lat="42.8335060" lon="-7.7168450">
        <ele>670.0</ele>
        <time>2020-10-19T09:35:45Z</time>
      </trkpt>
      <trkpt lat="42.8335070" lon="-7.7168590">
        <ele>670.1</ele>
        <time>2020-10-19T09:35:46Z</time>
      </trkpt>
      <trkpt lat="42.8335080" lon="-7.7168740">
        <ele>670.3</ele>
        <time>2020-10-19T09:35:47Z</time>
      </trkpt>
      <trkpt lat="42.8335090" lon="-7.7168890">
        <ele>670.4</ele>
        <time>2020-10-19T09:35:48Z</time>
      </trkpt>
      <trkpt lat="42.8335090" lon="-7.7169030">
        <ele>670.6</ele>
        <time>2020-10-19T09:35:49Z</time>
      </trkpt>
      <trkpt lat="42.8335090" lon="-7.7169180">
        <ele>670.7</ele>
        <time>2020-10-19T09:35:50Z</time>
      </trkpt>
      <trkpt lat="42.8335100" lon="-7.7169340">
        <ele>670.9</ele>
        <time>2020-10-19T09:35:51Z</time>
      </trkpt>
      <trkpt lat="42.8335090" lon="-7.7169490">
        <ele>671.1</ele>
        <time>2020-10-19T09:35:52Z</time>
      </trkpt>
      <trkpt lat="42.8335090" lon="-7.7169640">
        <ele>671.2</ele>
        <time>2020-10-19T09:35:53Z</time>
      </trkpt>
      <trkpt lat="42.8335070" lon="-7.7169790">
        <ele>671.4</ele>
        <time>2020-10-19T09:35:54Z</time>
      </trkpt>
      <trkpt lat="42.8335060" lon="-7.7169960">
        <ele>671.6</ele>
        <time>2020-10-19T09:35:55Z</time>
      </trkpt>
      <trkpt lat="42.8335060" lon="-7.7170110">
        <ele>671.7</ele>
        <time>2020-10-19T09:35:56Z</time>
      </trkpt>
      <trkpt lat="42.8335070" lon="-7.7170250">
        <ele>671.9</ele>
        <time>2020-10-19T09:35:57Z</time>
      </trkpt>
      <trkpt lat="42.8335070" lon="-7.7170380">
        <ele>672.1</ele>
        <time>2020-10-19T09:35:58Z</time>
      </trkpt>
      <trkpt lat="42.8335070" lon="-7.7170510">
        <ele>672.2</ele>
        <time>2020-10-19T09:35:59Z</time>
      </trkpt>
      <trkpt lat="42.8335080" lon="-7.7170630">
        <ele>672.4</ele>
        <time>2020-10-19T09:36:00Z</time>
      </trkpt>
      <trkpt lat="42.8335100" lon="-7.7170750">
        <ele>672.5</ele>
        <time>2020-10-19T09:36:01Z</time>
      </trkpt>
      <trkpt lat="42.8335140" lon="-7.7170880">
        <ele>672.6</ele>
        <time>2020-10-19T09:36:02Z</time>
      </trkpt>
      <trkpt lat="42.8335170" lon="-7.7171020">
        <ele>672.8</ele>
        <time>2020-10-19T09:36:03Z</time>
      </trkpt>
      <trkpt lat="42.8335190" lon="-7.7171160">
        <ele>672.9</ele>
        <time>2020-10-19T09:36:04Z</time>
      </trkpt>
      <trkpt lat="42.8335210" lon="-7.7171310">
        <ele>673.1</ele>
        <time>2020-10-19T09:36:05Z</time>
      </trkpt>
      <trkpt lat="42.8335250" lon="-7.7171460">
        <ele>673.3</ele>
        <time>2020-10-19T09:36:06Z</time>
      </trkpt>
      <trkpt lat="42.8335280" lon="-7.7171610">
        <ele>673.4</ele>
        <time>2020-10-19T09:36:07Z</time>
      </trkpt>
      <trkpt lat="42.8335330" lon="-7.7171750">
        <ele>673.6</ele>
        <time>2020-10-19T09:36:08Z</time>
      </trkpt>
      <trkpt lat="42.8335360" lon="-7.7171890">
        <ele>673.7</ele>
        <time>2020-10-19T09:36:09Z</time>
      </trkpt>
      <trkpt lat="42.8335390" lon="-7.7172020">
        <ele>673.8</ele>
        <time>2020-10-19T09:36:10Z</time>
      </trkpt>
      <trkpt lat="42.8335450" lon="-7.7172150">
        <ele>674.0</ele>
        <time>2020-10-19T09:36:11Z</time>
      </trkpt>
      <trkpt lat="42.8335520" lon="-7.7172260">
        <ele>674.1</ele>
        <time>2020-10-19T09:36:12Z</time>
      </trkpt>
      <trkpt lat="42.8335600" lon="-7.7172350">
        <ele>674.3</ele>
        <time>2020-10-19T09:36:13Z</time>
      </trkpt>
      <trkpt lat="42.8335680" lon="-7.7172440">
        <ele>674.4</ele>
        <time>2020-10-19T09:36:14Z</time>
      </trkpt>
      <trkpt lat="42.8335760" lon="-7.7172530">
        <ele>674.5</ele>
        <time>2020-10-19T09:36:15Z</time>
      </trkpt>
      <trkpt lat="42.8335840" lon="-7.7172630">
        <ele>674.7</ele>
        <time>2020-10-19T09:36:16Z</time>
      </trkpt>
      <trkpt lat="42.8335920" lon="-7.7172730">
        <ele>674.8</ele>
        <time>2020-10-19T09:36:17Z</time>
      </trkpt>
      <trkpt lat="42.8335990" lon="-7.7172830">
        <ele>674.9</ele>
        <time>2020-10-19T09:36:18Z</time>
      </trkpt>
      <trkpt lat="42.8336080" lon="-7.7172920">
        <ele>675.1</ele>
        <time>2020-10-19T09:36:19Z</time>
      </trkpt>
      <trkpt lat="42.8336150" lon="-7.7173010">
        <ele>675.2</ele>
        <time>2020-10-19T09:36:20Z</time>
      </trkpt>
      <trkpt lat="42.8336230" lon="-7.7173100">
        <ele>675.3</ele>
        <time>2020-10-19T09:36:21Z</time>
      </trkpt>
      <trkpt lat="42.8336330" lon="-7.7173170">
        <ele>675.4</ele>
        <time>2020-10-19T09:36:22Z</time>
      </trkpt>
      <trkpt lat="42.8336420" lon="-7.7173240">
        <ele>675.6</ele>
        <time>2020-10-19T09:36:23Z</time>
      </trkpt>
      <trkpt lat="42.8336520" lon="-7.7173310">
        <ele>675.7</ele>
        <time>2020-10-19T09:36:24Z</time>
      </trkpt>
      <trkpt lat="42.8336620" lon="-7.7173380">
        <ele>675.8</ele>
        <time>2020-10-19T09:36:25Z</time>
      </trkpt>
      <trkpt lat="42.8336720" lon="-7.7173440">
        <ele>676.0</ele>
        <time>2020-10-19T09:36:26Z</time>
      </trkpt>
      <trkpt lat="42.8336820" lon="-7.7173510">
        <ele>676.1</ele>
        <time>2020-10-19T09:36:27Z</time>
      </trkpt>
      <trkpt lat="42.8336920" lon="-7.7173600">
        <ele>676.3</ele>
        <time>2020-10-19T09:36:28Z</time>
      </trkpt>
      <trkpt lat="42.8337020" lon="-7.7173700">
        <ele>676.4</ele>
        <time>2020-10-19T09:36:29Z</time>
      </trkpt>
      <trkpt lat="42.8337110" lon="-7.7173800">
        <ele>676.6</ele>
        <time>2020-10-19T09:36:30Z</time>
      </trkpt>
      <trkpt lat="42.8337190" lon="-7.7173900">
        <ele>676.7</ele>
        <time>2020-10-19T09:36:31Z</time>
      </trkpt>
      <trkpt lat="42.8337270" lon="-7.7174000">
        <ele>676.8</ele>
        <time>2020-10-19T09:36:32Z</time>
      </trkpt>
      <trkpt lat="42.8337350" lon="-7.7174100">
        <ele>676.9</ele>
        <time>2020-10-19T09:36:33Z</time>
      </trkpt>
      <trkpt lat="42.8337430" lon="-7.7174200">
        <ele>677.1</ele>
        <time>2020-10-19T09:36:34Z</time>
      </trkpt>
      <trkpt lat="42.8337500" lon="-7.7174310">
        <ele>677.2</ele>
        <time>2020-10-19T09:36:35Z</time>
      </trkpt>
      <trkpt lat="42.8337560" lon="-7.7174440">
        <ele>677.3</ele>
        <time>2020-10-19T09:36:36Z</time>
      </trkpt>
      <trkpt lat="42.8337620" lon="-7.7174560">
        <ele>677.4</ele>
        <time>2020-10-19T09:36:37Z</time>
      </trkpt>
      <trkpt lat="42.8337680" lon="-7.7174670">
        <ele>677.5</ele>
        <time>2020-10-19T09:36:38Z</time>
      </trkpt>
      <trkpt lat="42.8337750" lon="-7.7174760">
        <ele>677.7</ele>
        <time>2020-10-19T09:36:39Z</time>
      </trkpt>
      <trkpt lat="42.8337840" lon="-7.7174860">
        <ele>677.8</ele>
        <time>2020-10-19T09:36:40Z</time>
      </trkpt>
      <trkpt lat="42.8337920" lon="-7.7174980">
        <ele>677.9</ele>
        <time>2020-10-19T09:36:41Z</time>
      </trkpt>
      <trkpt lat="42.8337990" lon="-7.7175100">
        <ele>678.0</ele>
        <time>2020-10-19T09:36:42Z</time>
      </trkpt>
      <trkpt lat="42.8338060" lon="-7.7175220">
        <ele>678.2</ele>
        <time>2020-10-19T09:36:43Z</time>
      </trkpt>
      <trkpt lat="42.8338120" lon="-7.7175340">
        <ele>678.3</ele>
        <time>2020-10-19T09:36:44Z</time>
      </trkpt>
      <trkpt lat="42.8338180" lon="-7.7175460">
        <ele>678.4</ele>
        <time>2020-10-19T09:36:45Z</time>
      </trkpt>
      <trkpt lat="42.8338240" lon="-7.7175580">
        <ele>678.5</ele>
        <time>2020-10-19T09:36:46Z</time>
      </trkpt>
      <trkpt lat="42.8338310" lon="-7.7175710">
        <ele>678.6</ele>
        <time>2020-10-19T09:36:47Z</time>
      </trkpt>
      <trkpt lat="42.8338370" lon="-7.7175840">
        <ele>678.7</ele>
        <time>2020-10-19T09:36:48Z</time>
      </trkpt>
      <trkpt lat="42.8338440" lon="-7.7175970">
        <ele>678.8</ele>
        <time>2020-10-19T09:36:49Z</time>
      </trkpt>
      <trkpt lat="42.8338490" lon="-7.7176100">
        <ele>678.9</ele>
        <time>2020-10-19T09:36:50Z</time>
      </trkpt>
      <trkpt lat="42.8338550" lon="-7.7176230">
        <ele>679.0</ele>
        <time>2020-10-19T09:36:51Z</time>
      </trkpt>
      <trkpt lat="42.8338600" lon="-7.7176350">
        <ele>679.1</ele>
        <time>2020-10-19T09:36:52Z</time>
      </trkpt>
      <trkpt lat="42.8338650" lon="-7.7176470">
        <ele>679.2</ele>
        <time>2020-10-19T09:36:53Z</time>
      </trkpt>
      <trkpt lat="42.8338700" lon="-7.7176600">
        <ele>679.3</ele>
        <time>2020-10-19T09:36:54Z</time>
      </trkpt>
      <trkpt lat="42.8338760" lon="-7.7176730">
        <ele>679.4</ele>
        <time>2020-10-19T09:36:55Z</time>
      </trkpt>
      <trkpt lat="42.8338810" lon="-7.7176870">
        <ele>679.5</ele>
        <time>2020-10-19T09:36:56Z</time>
      </trkpt>
      <trkpt lat="42.8338860" lon="-7.7176990">
        <ele>679.6</ele>
        <time>2020-10-19T09:36:57Z</time>
      </trkpt>
      <trkpt lat="42.8338910" lon="-7.7177120">
        <ele>679.7</ele>
        <time>2020-10-19T09:36:58Z</time>
      </trkpt>
      <trkpt lat="42.8338960" lon="-7.7177250">
        <ele>679.8</ele>
        <time>2020-10-19T09:36:59Z</time>
      </trkpt>
      <trkpt lat="42.8339000" lon="-7.7177380">
        <ele>679.9</ele>
        <time>2020-10-19T09:37:00Z</time>
      </trkpt>
      <trkpt lat="42.8339040" lon="-7.7177510">
        <ele>680.0</ele>
        <time>2020-10-19T09:37:01Z</time>
      </trkpt>
      <trkpt lat="42.8339090" lon="-7.7177630">
        <ele>680.1</ele>
        <time>2020-10-19T09:37:02Z</time>
      </trkpt>
      <trkpt lat="42.8339130" lon="-7.7177760">
        <ele>680.1</ele>
        <time>2020-10-19T09:37:03Z</time>
      </trkpt>
      <trkpt lat="42.8339170" lon="-7.7177890">
        <ele>680.2</ele>
        <time>2020-10-19T09:37:04Z</time>
      </trkpt>
      <trkpt lat="42.8339210" lon="-7.7178040">
        <ele>680.3</ele>
        <time>2020-10-19T09:37:05Z</time>
      </trkpt>
      <trkpt lat="42.8339250" lon="-7.7178180">
        <ele>680.4</ele>
        <time>2020-10-19T09:37:06Z</time>
      </trkpt>
      <trkpt lat="42.8339290" lon="-7.7178310">
        <ele>680.5</ele>
        <time>2020-10-19T09:37:07Z</time>
      </trkpt>
      <trkpt lat="42.8339330" lon="-7.7178440">
        <ele>680.6</ele>
        <time>2020-10-19T09:37:08Z</time>
      </trkpt>
      <trkpt lat="42.8339360" lon="-7.7178570">
        <ele>680.7</ele>
        <time>2020-10-19T09:37:09Z</time>
      </trkpt>
      <trkpt lat="42.8339380" lon="-7.7178710">
        <ele>680.8</ele>
        <time>2020-10-19T09:37:10Z</time>
      </trkpt>
      <trkpt lat="42.8339390" lon="-7.7178860">
        <ele>680.8</ele>
        <time>2020-10-19T09:37:11Z</time>
      </trkpt>
      <trkpt lat="42.8339420" lon="-7.7179000">
        <ele>680.9</ele>
        <time>2020-10-19T09:37:12Z</time>
      </trkpt>
      <trkpt lat="42.8339440" lon="-7.7179150">
        <ele>681.0</ele>
        <time>2020-10-19T09:37:13Z</time>
      </trkpt>
      <trkpt lat="42.8339480" lon="-7.7179280">
        <ele>681.1</ele>
        <time>2020-10-19T09:37:14Z</time>
      </trkpt>
      <trkpt lat="42.8339530" lon="-7.7179420">
        <ele>681.2</ele>
        <time>2020-10-19T09:37:15Z</time>
      </trkpt>
      <trkpt lat="42.8339560" lon="-7.7179570">
        <ele>681.3</ele>
        <time>2020-10-19T09:37:16Z</time>
      </trkpt>
      <trkpt lat="42.8339600" lon="-7.7179710">
        <ele>681.4</ele>
        <time>2020-10-19T09:37:17Z</time>
      </trkpt>
      <trkpt lat="42.8339620" lon="-7.7179860">
        <ele>681.5</ele>
        <time>2020-10-19T09:37:18Z</time>
      </trkpt>
      <trkpt lat="42.8339650" lon="-7.7180010">
        <ele>681.5</ele>
        <time>2020-10-19T09:37:19Z</time>
      </trkpt>
      <trkpt lat="42.8339690" lon="-7.7180150">
        <ele>681.6</ele>
        <time>2020-10-19T09:37:20Z</time>
      </trkpt>
      <trkpt lat="42.8339730" lon="-7.7180300">
        <ele>681.7</ele>
        <time>2020-10-19T09:37:21Z</time>
      </trkpt>
      <trkpt lat="42.8339780" lon="-7.7180440">
        <ele>681.8</ele>
        <time>2020-10-19T09:37:22Z</time>
      </trkpt>
      <trkpt lat="42.8339820" lon="-7.7180580">
        <ele>681.9</ele>
        <time>2020-10-19T09:37:23Z</time>
      </trkpt>
      <trkpt lat="42.8339850" lon="-7.7180720">
        <ele>681.9</ele>
        <time>2020-10-19T09:37:24Z</time>
      </trkpt>
      <trkpt lat="42.8339880" lon="-7.7180850">
        <ele>682.0</ele>
        <time>2020-10-19T09:37:25Z</time>
      </trkpt>
      <trkpt lat="42.8339920" lon="-7.7181000">
        <ele>682.1</ele>
        <time>2020-10-19T09:37:26Z</time>
      </trkpt>
      <trkpt lat="42.8339960" lon="-7.7181150">
        <ele>682.2</ele>
        <time>2020-10-19T09:37:27Z</time>
      </trkpt>
      <trkpt lat="42.8340020" lon="-7.7181290">
        <ele>682.2</ele>
        <time>2020-10-19T09:37:28Z</time>
      </trkpt>
      <trkpt lat="42.8340070" lon="-7.7181420">
        <ele>682.3</ele>
        <time>2020-10-19T09:37:29Z</time>
      </trkpt>
      <trkpt lat="42.8340130" lon="-7.7181550">
        <ele>682.4</ele>
        <time>2020-10-19T09:37:30Z</time>
      </trkpt>
      <trkpt lat="42.8340180" lon="-7.7181680">
        <ele>682.4</ele>
        <time>2020-10-19T09:37:31Z</time>
      </trkpt>
      <trkpt lat="42.8340240" lon="-7.7181810">
        <ele>682.5</ele>
        <time>2020-10-19T09:37:32Z</time>
      </trkpt>
      <trkpt lat="42.8340290" lon="-7.7181930">
        <ele>682.5</ele>
        <time>2020-10-19T09:37:33Z</time>
      </trkpt>
      <trkpt lat="42.8340350" lon="-7.7182050">
        <ele>682.6</ele>
        <time>2020-10-19T09:37:34Z</time>
      </trkpt>
      <trkpt lat="42.8340400" lon="-7.7182170">
        <ele>682.7</ele>
        <time>2020-10-19T09:37:35Z</time>
      </trkpt>
      <trkpt lat="42.8340460" lon="-7.7182300">
        <ele>682.7</ele>
        <time>2020-10-19T09:37:36Z</time>
      </trkpt>
      <trkpt lat="42.8340510" lon="-7.7182430">
        <ele>682.8</ele>
        <time>2020-10-19T09:37:37Z</time>
      </trkpt>
      <trkpt lat="42.8340550" lon="-7.7182560">
        <ele>682.8</ele>
        <time>2020-10-19T09:37:38Z</time>
      </trkpt>
      <trkpt lat="42.8340590" lon="-7.7182690">
        <ele>682.9</ele>
        <time>2020-10-19T09:37:39Z</time>
      </trkpt>
      <trkpt lat="42.8340640" lon="-7.7182820">
        <ele>682.9</ele>
        <time>2020-10-19T09:37:40Z</time>
      </trkpt>
      <trkpt lat="42.8340690" lon="-7.7182970">
        <ele>683.0</ele>
        <time>2020-10-19T09:37:41Z</time>
      </trkpt>
      <trkpt lat="42.8340730" lon="-7.7183110">
        <ele>683.0</ele>
        <time>2020-10-19T09:37:42Z</time>
      </trkpt>
      <trkpt lat="42.8340790" lon="-7.7183250">
        <ele>683.1</ele>
        <time>2020-10-19T09:37:43Z</time>
      </trkpt>
      <trkpt lat="42.8340840" lon="-7.7183380">
        <ele>683.1</ele>
        <time>2020-10-19T09:37:44Z</time>
      </trkpt>
      <trkpt lat="42.8340880" lon="-7.7183520">
        <ele>683.2</ele>
        <time>2020-10-19T09:37:45Z</time>
      </trkpt>
      <trkpt lat="42.8340910" lon="-7.7183670">
        <ele>683.2</ele>
        <time>2020-10-19T09:37:46Z</time>
      </trkpt>
      <trkpt lat="42.8340950" lon="-7.7183810">
        <ele>683.3</ele>
        <time>2020-10-19T09:37:47Z</time>
      </trkpt>
      <trkpt lat="42.8340990" lon="-7.7183960">
        <ele>683.3</ele>
        <time>2020-10-19T09:37:48Z</time>
      </trkpt>
      <trkpt lat="42.8341040" lon="-7.7184090">
        <ele>683.3</ele>
        <time>2020-10-19T09:37:49Z</time>
      </trkpt>
      <trkpt lat="42.8341090" lon="-7.7184220">
        <ele>683.4</ele>
        <time>2020-10-19T09:37:50Z</time>
      </trkpt>
      <trkpt lat="42.8341140" lon="-7.7184340">
        <ele>683.4</ele>
        <time>2020-10-19T09:37:51Z</time>
      </trkpt>
      <trkpt lat="42.8341190" lon="-7.7184470">
        <ele>683.4</ele>
        <time>2020-10-19T09:37:52Z</time>
      </trkpt>
      <trkpt lat="42.8341220" lon="-7.7184600">
        <ele>683.5</ele>
        <time>2020-10-19T09:37:53Z</time>
      </trkpt>
      <trkpt lat="42.8341260" lon="-7.7184750">
        <ele>683.5</ele>
        <time>2020-10-19T09:37:54Z</time>
      </trkpt>
      <trkpt lat="42.8341290" lon="-7.7184890">
        <ele>683.5</ele>
        <time>2020-10-19T09:37:55Z</time>
      </trkpt>
      <trkpt lat="42.8341320" lon="-7.7185040">
        <ele>683.6</ele>
        <time>2020-10-19T09:37:56Z</time>
      </trkpt>
      <trkpt lat="42.8341360" lon="-7.7185190">
        <ele>683.6</ele>
        <time>2020-10-19T09:37:57Z</time>
      </trkpt>
      <trkpt lat="42.8341380" lon="-7.7185330">
        <ele>683.6</ele>
        <time>2020-10-19T09:37:58Z</time>
      </trkpt>
      <trkpt lat="42.8341410" lon="-7.7185480">
        <ele>683.7</ele>
        <time>2020-10-19T09:37:59Z</time>
      </trkpt>
      <trkpt lat="42.8341430" lon="-7.7185620">
        <ele>683.7</ele>
        <time>2020-10-19T09:38:00Z</time>
      </trkpt>
      <trkpt lat="42.8341440" lon="-7.7185760">
        <ele>683.7</ele>
        <time>2020-10-19T09:38:01Z</time>
      </trkpt>
      <trkpt lat="42.8341470" lon="-7.7185900">
        <ele>683.7</ele>
        <time>2020-10-19T09:38:02Z</time>
      </trkpt>
      <trkpt lat="42.8341480" lon="-7.7186040">
        <ele>683.8</ele>
        <time>2020-10-19T09:38:03Z</time>
      </trkpt>
      <trkpt lat="42.8341500" lon="-7.7186190">
        <ele>683.8</ele>
        <time>2020-10-19T09:38:04Z</time>
      </trkpt>
      <trkpt lat="42.8341520" lon="-7.7186330">
        <ele>683.8</ele>
        <time>2020-10-19T09:38:05Z</time>
      </trkpt>
      <trkpt lat="42.8341540" lon="-7.7186480">
        <ele>683.9</ele>
        <time>2020-10-19T09:38:06Z</time>
      </trkpt>
      <trkpt lat="42.8341560" lon="-7.7186620">
        <ele>683.9</ele>
        <time>2020-10-19T09:38:07Z</time>
      </trkpt>
      <trkpt lat="42.8341580" lon="-7.7186770">
        <ele>683.9</ele>
        <time>2020-10-19T09:38:08Z</time>
      </trkpt>
      <trkpt lat="42.8341590" lon="-7.7186910">
        <ele>683.9</ele>
        <time>2020-10-19T09:38:09Z</time>
      </trkpt>
      <trkpt lat="42.8341600" lon="-7.7187050">
        <ele>684.0</ele>
        <time>2020-10-19T09:38:10Z</time>
      </trkpt>
      <trkpt lat="42.8341600" lon="-7.7187200">
        <ele>684.0</ele>
        <time>2020-10-19T09:38:11Z</time>
      </trkpt>
      <trkpt lat="42.8341610" lon="-7.7187330">
        <ele>684.0</ele>
        <time>2020-10-19T09:38:12Z</time>
      </trkpt>
      <trkpt lat="42.8341620" lon="-7.7187470">
        <ele>684.1</ele>
        <time>2020-10-19T09:38:13Z</time>
      </trkpt>
      <trkpt lat="42.8341620" lon="-7.7187620">
        <ele>684.1</ele>
        <time>2020-10-19T09:38:14Z</time>
      </trkpt>
      <trkpt lat="42.8341630" lon="-7.7187750">
        <ele>684.1</ele>
        <time>2020-10-19T09:38:15Z</time>
      </trkpt>
      <trkpt lat="42.8341640" lon="-7.7187850">
        <ele>684.1</ele>
        <time>2020-10-19T09:38:16Z</time>
      </trkpt>
      <trkpt lat="42.8341640" lon="-7.7187910">
        <ele>684.2</ele>
        <time>2020-10-19T09:38:17Z</time>
      </trkpt>
      <trkpt lat="42.8341630" lon="-7.7187950">
        <ele>684.2</ele>
        <time>2020-10-19T09:38:18Z</time>
      </trkpt>
      <trkpt lat="42.8341620" lon="-7.7187970">
        <ele>684.2</ele>
        <time>2020-10-19T09:38:19Z</time>
      </trkpt>
      <trkpt lat="42.8341630" lon="-7.7187980">
        <ele>684.2</ele>
        <time>2020-10-19T09:38:20Z</time>
      </trkpt>
      <trkpt lat="42.8341640" lon="-7.7187990">
        <ele>684.2</ele>
        <time>2020-10-19T09:38:21Z</time>
      </trkpt>
      <trkpt lat="42.8341640" lon="-7.7187990">
        <ele>684.2</ele>
        <time>2020-10-19T09:38:22Z</time>
      </trkpt>
      <trkpt lat="42.8341640" lon="-7.7188000">
        <ele>684.2</ele>
        <time>2020-10-19T09:38:23Z</time>
      </trkpt>
      <trkpt lat="42.8341640" lon="-7.7188000">
        <ele>684.2</ele>
        <time>2020-10-19T09:38:24Z</time>
      </trkpt>
      <trkpt lat="42.8341640" lon="-7.7188010">
        <ele>684.2</ele>
        <time>2020-10-19T09:38:25Z</time>
      </trkpt>
      <trkpt lat="42.8341640" lon="-7.7188010">
        <ele>684.2</ele>
        <time>2020-10-19T09:38:26Z</time>
      </trkpt>
      <trkpt lat="42.8341640" lon="-7.7188010">
        <ele>684.2</ele>
        <time>2020-10-19T09:38:27Z</time>
      </trkpt>
      <trkpt lat="42.8341650" lon="-7.7188010">
        <ele>684.2</ele>
        <time>2020-10-19T09:38:28Z</time>
      </trkpt>
      <trkpt lat="42.8341640" lon="-7.7188040">
        <ele>684.2</ele>
        <time>2020-10-19T09:38:29Z</time>
      </trkpt>
      <trkpt lat="42.8341640" lon="-7.7188090">
        <ele>684.2</ele>
        <time>2020-10-19T09:38:30Z</time>
      </trkpt>
      <trkpt lat="42.8341640" lon="-7.7188150">
        <ele>684.2</ele>
        <time>2020-10-19T09:38:31Z</time>
      </trkpt>
      <trkpt lat="42.8341650" lon="-7.7188230">
        <ele>684.2</ele>
        <time>2020-10-19T09:38:32Z</time>
      </trkpt>
      <trkpt lat="42.8341650" lon="-7.7188320">
        <ele>684.2</ele>
        <time>2020-10-19T09:38:33Z</time>
      </trkpt>
      <trkpt lat="42.8341650" lon="-7.7188400">
        <ele>684.3</ele>
        <time>2020-10-19T09:38:34Z</time>
      </trkpt>
      <trkpt lat="42.8341660" lon="-7.7188450">
        <ele>684.3</ele>
        <time>2020-10-19T09:38:35Z</time>
      </trkpt>
      <trkpt lat="42.8341670" lon="-7.7188490">
        <ele>684.3</ele>
        <time>2020-10-19T09:38:36Z</time>
      </trkpt>
      <trkpt lat="42.8341680" lon="-7.7188540">
        <ele>684.3</ele>
        <time>2020-10-19T09:38:37Z</time>
      </trkpt>
      <trkpt lat="42.8341700" lon="-7.7188640">
        <ele>684.3</ele>
        <time>2020-10-19T09:38:38Z</time>
      </trkpt>
      <trkpt lat="42.8341720" lon="-7.7188760">
        <ele>684.3</ele>
        <time>2020-10-19T09:38:39Z</time>
      </trkpt>
      <trkpt lat="42.8341740" lon="-7.7188880">
        <ele>684.4</ele>
        <time>2020-10-19T09:38:40Z</time>
      </trkpt>
      <trkpt lat="42.8341750" lon="-7.7188980">
        <ele>684.4</ele>
        <time>2020-10-19T09:38:41Z</time>
      </trkpt>
      <trkpt lat="42.8341760" lon="-7.7189040">
        <ele>684.4</ele>
        <time>2020-10-19T09:38:42Z</time>
      </trkpt>
      <trkpt lat="42.8341790" lon="-7.7189030">
        <ele>684.4</ele>
        <time>2020-10-19T09:38:43Z</time>
      </trkpt>
      <trkpt lat="42.8341810" lon="-7.7189010">
        <ele>684.4</ele>
        <time>2020-10-19T09:38:44Z</time>
      </trkpt>
      <trkpt lat="42.8341840" lon="-7.7189000">
        <ele>684.4</ele>
        <time>2020-10-19T09:38:45Z</time>
      </trkpt>
      <trkpt lat="42.8341830" lon="-7.7189010">
        <ele>684.4</ele>
        <time>2020-10-19T09:38:46Z</time>
      </trkpt>
      <trkpt lat="42.8341840" lon="-7.7189020">
        <ele>684.4</ele>
        <time>2020-10-19T09:38:47Z</time>
      </trkpt>
      <trkpt lat="42.8341840" lon="-7.7189020">
        <ele>684.4</ele>
        <time>2020-10-19T09:38:48Z</time>
      </trkpt>
      <trkpt lat="42.8341840" lon="-7.7189020">
        <ele>684.4</ele>
        <time>2020-10-19T09:38:49Z</time>
      </trkpt>
      <trkpt lat="42.8341830" lon="-7.7189010">
        <ele>684.4</ele>
        <time>2020-10-19T09:38:50Z</time>
      </trkpt>
      <trkpt lat="42.8341810" lon="-7.7188980">
        <ele>684.4</ele>
        <time>2020-10-19T09:38:51Z</time>
      </trkpt>
      <trkpt lat="42.8341790" lon="-7.7188940">
        <ele>684.5</ele>
        <time>2020-10-19T09:38:52Z</time>
      </trkpt>
      <trkpt lat="42.8341770" lon="-7.7188910">
        <ele>684.5</ele>
        <time>2020-10-19T09:38:53Z</time>
      </trkpt>
      <trkpt lat="42.8341760" lon="-7.7188910">
        <ele>684.5</ele>
        <time>2020-10-19T09:38:54Z</time>
      </trkpt>
      <trkpt lat="42.8341750" lon="-7.7188910">
        <ele>684.5</ele>
        <time>2020-10-19T09:38:55Z</time>
      </trkpt>
      <trkpt lat="42.8341730" lon="-7.7188920">
        <ele>684.5</ele>
        <time>2020-10-19T09:38:56Z</time>
      </trkpt>
      <trkpt lat="42.8341730" lon="-7.7188920">
        <ele>684.5</ele>
        <time>2020-10-19T09:38:57Z</time>
      </trkpt>
      <trkpt lat="42.8341730" lon="-7.7188920">
        <ele>684.5</ele>
        <time>2020-10-19T09:38:58Z</time>
      </trkpt>
      <trkpt lat="42.8341730" lon="-7.7188920">
        <ele>684.5</ele>
        <time>2020-10-19T09:38:59Z</time>
      </trkpt>
      <trkpt lat="42.8341730" lon="-7.7188920">
        <ele>684.5</ele>
        <time>2020-10-19T09:39:00Z</time>
      </trkpt>
      <trkpt lat="42.8341720" lon="-7.7188930">
        <ele>684.5</ele>
        <time>2020-10-19T09:39:01Z</time>
      </trkpt>
      <trkpt lat="42.8341720" lon="-7.7188930">
        <ele>684.5</ele>
        <time>2020-10-19T09:39:02Z</time>
      </trkpt>
      <trkpt lat="42.8341730" lon="-7.7188940">
        <ele>684.5</ele>
        <time>2020-10-19T09:39:03Z</time>
      </trkpt>
      <trkpt lat="42.8341730" lon="-7.7188940">
        <ele>684.5</ele>
        <time>2020-10-19T09:39:04Z</time>
      </trkpt>
      <trkpt lat="42.8341730" lon="-7.7188940">
        <ele>684.5</ele>
        <time>2020-10-19T09:39:05Z</time>
      </trkpt>
      <trkpt lat="42.8341720" lon="-7.7188930">
        <ele>684.5</ele>
        <time>2020-10-19T09:39:06Z</time>
      </trkpt>
      <trkpt lat="42.8341710" lon="-7.7188940">
        <ele>684.5</ele>
        <time>2020-10-19T09:39:07Z</time>
      </trkpt>
      <trkpt lat="42.8341690" lon="-7.7188940">
        <ele>684.5</ele>
        <time>2020-10-19T09:39:08Z</time>
      </trkpt>
      <trkpt lat="42.8341670" lon="-7.7188960">
        <ele>684.5</ele>
        <time>2020-10-19T09:39:09Z</time>
      </trkpt>
      <trkpt lat="42.8341650" lon="-7.7189000">
        <ele>684.5</ele>
        <time>2020-10-19T09:39:10Z</time>
      </trkpt>
      <trkpt lat="42.8341630" lon="-7.7189060">
        <ele>684.5</ele>
        <time>2020-10-19T09:39:11Z</time>
      </trkpt>
      <trkpt lat="42.8341610" lon="-7.7189100">
        <ele>684.5</ele>
        <time>2020-10-19T09:39:12Z</time>
      </trkpt>
      <trkpt lat="42.8341600" lon="-7.7189140">
        <ele>684.5</ele>
        <time>2020-10-19T09:39:13Z</time>
      </trkpt>
      <trkpt lat="42.8341580" lon="-7.7189170">
        <ele>684.6</ele>
        <time>2020-10-19T09:39:14Z</time>
      </trkpt>
      <trkpt lat="42.8341580" lon="-7.7189190">
        <ele>684.6</ele>
        <time>2020-10-19T09:39:15Z</time>
      </trkpt>
      <trkpt lat="42.8341570" lon="-7.7189210">
        <ele>684.6</ele>
        <time>2020-10-19T09:39:16Z</time>
      </trkpt>
      <trkpt lat="42.8341570" lon="-7.7189220">
        <ele>684.6</ele>
        <time>2020-10-19T09:39:17Z</time>
      </trkpt>
      <trkpt lat="42.8341560" lon="-7.7189240">
        <ele>684.6</ele>
        <time>2020-10-19T09:39:18Z</time>
      </trkpt>
      <trkpt lat="42.8341560" lon="-7.7189250">
        <ele>684.6</ele>
        <time>2020-10-19T09:39:19Z</time>
      </trkpt>
      <trkpt lat="42.8341570" lon="-7.7189260">
        <ele>684.6</ele>
        <time>2020-10-19T09:39:20Z</time>
      </trkpt>
      <trkpt lat="42.8341570" lon="-7.7189270">
        <ele>684.6</ele>
        <time>2020-10-19T09:39:21Z</time>
      </trkpt>
      <trkpt lat="42.8341570" lon="-7.7189270">
        <ele>684.6</ele>
        <time>2020-10-19T09:39:22Z</time>
      </trkpt>
      <trkpt lat="42.8341570" lon="-7.7189260">
        <ele>684.6</ele>
        <time>2020-10-19T09:39:23Z</time>
      </trkpt>
      <trkpt lat="42.8341570" lon="-7.7189260">
        <ele>684.6</ele>
        <time>2020-10-19T09:39:24Z</time>
      </trkpt>
      <trkpt lat="42.8341570" lon="-7.7189260">
        <ele>684.6</ele>
        <time>2020-10-19T09:39:25Z</time>
      </trkpt>
      <trkpt lat="42.8341570" lon="-7.7189260">
        <ele>684.6</ele>
        <time>2020-10-19T09:39:26Z</time>
      </trkpt>
      <trkpt lat="42.8341570" lon="-7.7189260">
        <ele>684.6</ele>
        <time>2020-10-19T09:39:27Z</time>
      </trkpt>
      <trkpt lat="42.8341570" lon="-7.7189250">
        <ele>684.6</ele>
        <time>2020-10-19T09:39:28Z</time>
      </trkpt>
      <trkpt lat="42.8341570" lon="-7.7189250">
        <ele>684.6</ele>
        <time>2020-10-19T09:39:29Z</time>
      </trkpt>
      <trkpt lat="42.8341570" lon="-7.7189240">
        <ele>684.6</ele>
        <time>2020-10-19T09:39:30Z</time>
      </trkpt>
      <trkpt lat="42.8341560" lon="-7.7189230">
        <ele>684.6</ele>
        <time>2020-10-19T09:39:31Z</time>
      </trkpt>
      <trkpt lat="42.8341560" lon="-7.7189220">
        <ele>684.6</ele>
        <time>2020-10-19T09:39:32Z</time>
      </trkpt>
      <trkpt lat="42.8341560" lon="-7.7189220">
        <ele>684.6</ele>
        <time>2020-10-19T09:39:33Z</time>
      </trkpt>
      <trkpt lat="42.8341550" lon="-7.7189210">
        <ele>684.6</ele>
        <time>2020-10-19T09:39:34Z</time>
      </trkpt>
      <trkpt lat="42.8341540" lon="-7.7189210">
        <ele>684.6</ele>
        <time>2020-10-19T09:39:35Z</time>
      </trkpt>
      <trkpt lat="42.8341530" lon="-7.7189210">
        <ele>684.6</ele>
        <time>2020-10-19T09:39:36Z</time>
      </trkpt>
      <trkpt lat="42.8341530" lon="-7.7189200">
        <ele>684.6</ele>
        <time>2020-10-19T09:39:37Z</time>
      </trkpt>
      <trkpt lat="42.8341530" lon="-7.7189210">
        <ele>684.6</ele>
        <time>2020-10-19T09:39:38Z</time>
      </trkpt>
      <trkpt lat="42.8341520" lon="-7.7189210">
        <ele>684.6</ele>
        <time>2020-10-19T09:39:39Z</time>
      </trkpt>
      <trkpt lat="42.8341520" lon="-7.7189210">
        <ele>684.6</ele>
        <time>2020-10-19T09:39:40Z</time>
      </trkpt>
      <trkpt lat="42.8341520" lon="-7.7189210">
        <ele>684.6</ele>
        <time>2020-10-19T09:39:41Z</time>
      </trkpt>
      <trkpt lat="42.8341510" lon="-7.7189210">
        <ele>684.6</ele>
        <time>2020-10-19T09:39:42Z</time>
      </trkpt>
      <trkpt lat="42.8341510" lon="-7.7189210">
        <ele>684.6</ele>
        <time>2020-10-19T09:39:43Z</time>
      </trkpt>
      <trkpt lat="42.8341510" lon="-7.7189210">
        <ele>684.6</ele>
        <time>2020-10-19T09:39:44Z</time>
      </trkpt>
      <trkpt lat="42.8341510" lon="-7.7189210">
        <ele>684.6</ele>
        <time>2020-10-19T09:39:45Z</time>
      </trkpt>
      <trkpt lat="42.8341510" lon="-7.7189210">
        <ele>684.6</ele>
        <time>2020-10-19T09:39:46Z</time>
      </trkpt>
      <trkpt lat="42.8341510" lon="-7.7189210">
        <ele>684.6</ele>
        <time>2020-10-19T09:39:47Z</time>
      </trkpt>
      <trkpt lat="42.8341500" lon="-7.7189210">
        <ele>684.6</ele>
        <time>2020-10-19T09:39:48Z</time>
      </trkpt>
      <trkpt lat="42.8341500" lon="-7.7189210">
        <ele>684.6</ele>
        <time>2020-10-19T09:39:49Z</time>
      </trkpt>
      <trkpt lat="42.8341500" lon="-7.7189210">
        <ele>684.6</ele>
        <time>2020-10-19T09:39:50Z</time>
      </trkpt>
      <trkpt lat="42.8341510" lon="-7.7189210">
        <ele>684.6</ele>
        <time>2020-10-19T09:39:51Z</time>
      </trkpt>
      <trkpt lat="42.8341510" lon="-7.7189210">
        <ele>684.6</ele>
        <time>2020-10-19T09:39:52Z</time>
      </trkpt>
      <trkpt lat="42.8341510" lon="-7.7189210">
        <ele>684.6</ele>
        <time>2020-10-19T09:39:53Z</time>
      </trkpt>
      <trkpt lat="42.8341510" lon="-7.7189210">
        <ele>684.6</ele>
        <time>2020-10-19T09:39:54Z</time>
      </trkpt>
      <trkpt lat="42.8341510" lon="-7.7189220">
        <ele>684.6</ele>
        <time>2020-10-19T09:39:55Z</time>
      </trkpt>
      <trkpt lat="42.8341510" lon="-7.7189230">
        <ele>684.6</ele>
        <time>2020-10-19T09:39:56Z</time>
      </trkpt>
      <trkpt lat="42.8341510" lon="-7.7189240">
        <ele>684.6</ele>
        <time>2020-10-19T09:39:57Z</time>
      </trkpt>
      <trkpt lat="42.8341520" lon="-7.7189260">
        <ele>684.6</ele>
        <time>2020-10-19T09:39:58Z</time>
      </trkpt>
      <trkpt lat="42.8341520" lon="-7.7189280">
        <ele>684.6</ele>
        <time>2020-10-19T09:39:59Z</time>
      </trkpt>
      <trkpt lat="42.8341540" lon="-7.7189290">
        <ele>684.6</ele>
        <time>2020-10-19T09:40:00Z</time>
      </trkpt>
      <trkpt lat="42.8341560" lon="-7.7189310">
        <ele>684.6</ele>
        <time>2020-10-19T09:40:01Z</time>
      </trkpt>
      <trkpt lat="42.8341580" lon="-7.7189320">
        <ele>684.6</ele>
        <time>2020-10-19T09:40:02Z</time>
      </trkpt>
      <trkpt lat="42.8341580" lon="-7.7189330">
        <ele>684.7</ele>
        <time>2020-10-19T09:40:03Z</time>
      </trkpt>
      <trkpt lat="42.8341580" lon="-7.7189330">
        <ele>684.7</ele>
        <time>2020-10-19T09:40:04Z</time>
      </trkpt>
      <trkpt lat="42.8341570" lon="-7.7189340">
        <ele>684.7</ele>
        <time>2020-10-19T09:40:05Z</time>
      </trkpt>
      <trkpt lat="42.8341570" lon="-7.7189340">
        <ele>684.7</ele>
        <time>2020-10-19T09:40:06Z</time>
      </trkpt>
      <trkpt lat="42.8341570" lon="-7.7189350">
        <ele>684.7</ele>
        <time>2020-10-19T09:40:07Z</time>
      </trkpt>
      <trkpt lat="42.8341570" lon="-7.7189350">
        <ele>684.7</ele>
        <time>2020-10-19T09:40:08Z</time>
      </trkpt>
      <trkpt lat="42.8341560" lon="-7.7189350">
        <ele>684.7</ele>
        <time>2020-10-19T09:40:09Z</time>
      </trkpt>
      <trkpt lat="42.8341550" lon="-7.7189350">
        <ele>684.7</ele>
        <time>2020-10-19T09:40:10Z</time>
      </trkpt>
      <trkpt lat="42.8341550" lon="-7.7189350">
        <ele>684.7</ele>
        <time>2020-10-19T09:40:11Z</time>
      </trkpt>
      <trkpt lat="42.8341540" lon="-7.7189340">
        <ele>684.7</ele>
        <time>2020-10-19T09:40:12Z</time>
      </trkpt>
      <trkpt lat="42.8341540" lon="-7.7189330">
        <ele>684.7</ele>
        <time>2020-10-19T09:40:13Z</time>
      </trkpt>
      <trkpt lat="42.8341530" lon="-7.7189320">
        <ele>684.7</ele>
        <time>2020-10-19T09:40:14Z</time>
      </trkpt>
      <trkpt lat="42.8341530" lon="-7.7189330">
        <ele>684.7</ele>
        <time>2020-10-19T09:40:15Z</time>
      </trkpt>
      <trkpt lat="42.8341530" lon="-7.7189360">
        <ele>684.7</ele>
        <time>2020-10-19T09:40:16Z</time>
      </trkpt>
      <trkpt lat="42.8341540" lon="-7.7189410">
        <ele>684.7</ele>
        <time>2020-10-19T09:40:17Z</time>
      </trkpt>
      <trkpt lat="42.8341540" lon="-7.7189500">
        <ele>684.7</ele>
        <time>2020-10-19T09:40:18Z</time>
      </trkpt>
      <trkpt lat="42.8341540" lon="-7.7189610">
        <ele>684.7</ele>
        <time>2020-10-19T09:40:19Z</time>
      </trkpt>
      <trkpt lat="42.8341550" lon="-7.7189720">
        <ele>684.7</ele>
        <time>2020-10-19T09:40:20Z</time>
      </trkpt>
      <trkpt lat="42.8341560" lon="-7.7189850">
        <ele>684.8</ele>
        <time>2020-10-19T09:40:21Z</time>
      </trkpt>
      <trkpt lat="42.8341580" lon="-7.7189980">
        <ele>684.8</ele>
        <time>2020-10-19T09:40:22Z</time>
      </trkpt>
      <trkpt lat="42.8341600" lon="-7.7190120">
        <ele>684.8</ele>
        <time>2020-10-19T09:40:23Z</time>
      </trkpt>
      <trkpt lat="42.8341630" lon="-7.7190240">
        <ele>684.8</ele>
        <time>2020-10-19T09:40:24Z</time>
      </trkpt>
      <trkpt lat="42.8341660" lon="-7.7190360">
        <ele>684.9</ele>
        <time>2020-10-19T09:40:25Z</time>
      </trkpt>
      <trkpt lat="42.8341700" lon="-7.7190470">
        <ele>684.9</ele>
        <time>2020-10-19T09:40:26Z</time>
      </trkpt>
      <trkpt lat="42.8341750" lon="-7.7190580">
        <ele>684.9</ele>
        <time>2020-10-19T09:40:27Z</time>
      </trkpt>
      <trkpt lat="42.8341800" lon="-7.7190700">
        <ele>684.9</ele>
        <time>2020-10-19T09:40:28Z</time>
      </trkpt>
      <trkpt lat="42.8341870" lon="-7.7190830">
        <ele>684.9</ele>
        <time>2020-10-19T09:40:29Z</time>
      </trkpt>
      <trkpt lat="42.8341930" lon="-7.7190960">
        <ele>685.0</ele>
        <time>2020-10-19T09:40:30Z</time>
      </trkpt>
      <trkpt lat="42.8341980" lon="-7.7191090">
        <ele>685.0</ele>
        <time>2020-10-19T09:40:31Z</time>
      </trkpt>
      <trkpt lat="42.8342010" lon="-7.7191230">
        <ele>685.0</ele>
        <time>2020-10-19T09:40:32Z</time>
      </trkpt>
      <trkpt lat="42.8342030" lon="-7.7191370">
        <ele>685.0</ele>
        <time>2020-10-19T09:40:33Z</time>
      </trkpt>
      <trkpt lat="42.8342050" lon="-7.7191500">
        <ele>685.0</ele>
        <time>2020-10-19T09:40:34Z</time>
      </trkpt>
      <trkpt lat="42.8342080" lon="-7.7191620">
        <ele>685.0</ele>
        <time>2020-10-19T09:40:35Z</time>
      </trkpt>
      <trkpt lat="42.8342110" lon="-7.7191750">
        <ele>685.0</ele>
        <time>2020-10-19T09:40:36Z</time>
      </trkpt>
      <trkpt lat="42.8342140" lon="-7.7191890">
        <ele>685.1</ele>
        <time>2020-10-19T09:40:37Z</time>
      </trkpt>
      <trkpt lat="42.8342160" lon="-7.7192030">
        <ele>685.1</ele>
        <time>2020-10-19T09:40:38Z</time>
      </trkpt>
      <trkpt lat="42.8342170" lon="-7.7192170">
        <ele>685.1</ele>
        <time>2020-10-19T09:40:39Z</time>
      </trkpt>
      <trkpt lat="42.8342190" lon="-7.7192320">
        <ele>685.1</ele>
        <time>2020-10-19T09:40:40Z</time>
      </trkpt>
      <trkpt lat="42.8342190" lon="-7.7192460">
        <ele>685.1</ele>
        <time>2020-10-19T09:40:41Z</time>
      </trkpt>
      <trkpt lat="42.8342190" lon="-7.7192610">
        <ele>685.1</ele>
        <time>2020-10-19T09:40:42Z</time>
      </trkpt>
      <trkpt lat="42.8342190" lon="-7.7192750">
        <ele>685.1</ele>
        <time>2020-10-19T09:40:43Z</time>
      </trkpt>
      <trkpt lat="42.8342180" lon="-7.7192900">
        <ele>685.1</ele>
        <time>2020-10-19T09:40:44Z</time>
      </trkpt>
      <trkpt lat="42.8342190" lon="-7.7193040">
        <ele>685.1</ele>
        <time>2020-10-19T09:40:45Z</time>
      </trkpt>
      <trkpt lat="42.8342210" lon="-7.7193190">
        <ele>685.2</ele>
        <time>2020-10-19T09:40:46Z</time>
      </trkpt>
      <trkpt lat="42.8342230" lon="-7.7193330">
        <ele>685.2</ele>
        <time>2020-10-19T09:40:47Z</time>
      </trkpt>
      <trkpt lat="42.8342260" lon="-7.7193470">
        <ele>685.2</ele>
        <time>2020-10-19T09:40:48Z</time>
      </trkpt>
      <trkpt lat="42.8342280" lon="-7.7193600">
        <ele>685.2</ele>
        <time>2020-10-19T09:40:49Z</time>
      </trkpt>
      <trkpt lat="42.8342290" lon="-7.7193740">
        <ele>685.2</ele>
        <time>2020-10-19T09:40:50Z</time>
      </trkpt>
      <trkpt lat="42.8342290" lon="-7.7193880">
        <ele>685.2</ele>
        <time>2020-10-19T09:40:51Z</time>
      </trkpt>
      <trkpt lat="42.8342300" lon="-7.7194010">
        <ele>685.2</ele>
        <time>2020-10-19T09:40:52Z</time>
      </trkpt>
      <trkpt lat="42.8342330" lon="-7.7194090">
        <ele>685.3</ele>
        <time>2020-10-19T09:40:53Z</time>
      </trkpt>
      <trkpt lat="42.8342360" lon="-7.7194120">
        <ele>685.3</ele>
        <time>2020-10-19T09:40:54Z</time>
      </trkpt>
      <trkpt lat="42.8342390" lon="-7.7194140">
        <ele>685.3</ele>
        <time>2020-10-19T09:40:55Z</time>
      </trkpt>
      <trkpt lat="42.8342400" lon="-7.7194200">
        <ele>685.3</ele>
        <time>2020-10-19T09:40:56Z</time>
      </trkpt>
      <trkpt lat="42.8342410" lon="-7.7194310">
        <ele>685.3</ele>
        <time>2020-10-19T09:40:57Z</time>
      </trkpt>
      <trkpt lat="42.8342410" lon="-7.7194450">
        <ele>685.3</ele>
        <time>2020-10-19T09:40:58Z</time>
      </trkpt>
      <trkpt lat="42.8342410" lon="-7.7194540">
        <ele>685.3</ele>
        <time>2020-10-19T09:40:59Z</time>
      </trkpt>
      <trkpt lat="42.8342420" lon="-7.7194630">
        <ele>685.3</ele>
        <time>2020-10-19T09:41:00Z</time>
      </trkpt>
      <trkpt lat="42.8342440" lon="-7.7194730">
        <ele>685.3</ele>
        <time>2020-10-19T09:41:01Z</time>
      </trkpt>
      <trkpt lat="42.8342460" lon="-7.7194880">
        <ele>685.3</ele>
        <time>2020-10-19T09:41:02Z</time>
      </trkpt>
      <trkpt lat="42.8342460" lon="-7.7195050">
        <ele>685.3</ele>
        <time>2020-10-19T09:41:03Z</time>
      </trkpt>
      <trkpt lat="42.8342470" lon="-7.7195210">
        <ele>685.4</ele>
        <time>2020-10-19T09:41:04Z</time>
      </trkpt>
      <trkpt lat="42.8342470" lon="-7.7195370">
        <ele>685.4</ele>
        <time>2020-10-19T09:41:05Z</time>
      </trkpt>
      <trkpt lat="42.8342470" lon="-7.7195520">
        <ele>685.4</ele>
        <time>2020-10-19T09:41:06Z</time>
      </trkpt>
      <trkpt lat="42.8342470" lon="-7.7195660">
        <ele>685.4</ele>
        <time>2020-10-19T09:41:07Z</time>
      </trkpt>
      <trkpt lat="42.8342470" lon="-7.7195800">
        <ele>685.4</ele>
        <time>2020-10-19T09:41:08Z</time>
      </trkpt>
      <trkpt lat="42.8342480" lon="-7.7195940">
        <ele>685.4</ele>
        <time>2020-10-19T09:41:09Z</time>
      </trkpt>
      <trkpt lat="42.8342490" lon="-7.7196080">
        <ele>685.4</ele>
        <time>2020-10-19T09:41:10Z</time>
      </trkpt>
      <trkpt lat="42.8342500" lon="-7.7196210">
        <ele>685.5</ele>
        <time>2020-10-19T09:41:11Z</time>
      </trkpt>
      <trkpt lat="42.8342500" lon="-7.7196320">
        <ele>685.5</ele>
        <time>2020-10-19T09:41:12Z</time>
      </trkpt>
      <trkpt lat="42.8342490" lon="-7.7196430">
        <ele>685.5</ele>
        <time>2020-10-19T09:41:13Z</time>
      </trkpt>
      <trkpt lat="42.8342480" lon="-7.7196550">
        <ele>685.5</ele>
        <time>2020-10-19T09:41:14Z</time>
      </trkpt>
      <trkpt lat="42.8342480" lon="-7.7196700">
        <ele>685.5</ele>
        <time>2020-10-19T09:41:15Z</time>
      </trkpt>
      <trkpt lat="42.8342470" lon="-7.7196860">
        <ele>685.5</ele>
        <time>2020-10-19T09:41:16Z</time>
      </trkpt>
      <trkpt lat="42.8342470" lon="-7.7197010">
        <ele>685.5</ele>
        <time>2020-10-19T09:41:17Z</time>
      </trkpt>
      <trkpt lat="42.8342460" lon="-7.7197160">
        <ele>685.5</ele>
        <time>2020-10-19T09:41:18Z</time>
      </trkpt>
      <trkpt lat="42.8342470" lon="-7.7197320">
        <ele>685.6</ele>
        <time>2020-10-19T09:41:19Z</time>
      </trkpt>
      <trkpt lat="42.8342480" lon="-7.7197480">
        <ele>685.6</ele>
        <time>2020-10-19T09:41:20Z</time>
      </trkpt>
      <trkpt lat="42.8342480" lon="-7.7197650">
        <ele>685.6</ele>
        <time>2020-10-19T09:41:21Z</time>
      </trkpt>
      <trkpt lat="42.8342480" lon="-7.7197810">
        <ele>685.6</ele>
        <time>2020-10-19T09:41:22Z</time>
      </trkpt>
      <trkpt lat="42.8342480" lon="-7.7197960">
        <ele>685.7</ele>
        <time>2020-10-19T09:41:23Z</time>
      </trkpt>
      <trkpt lat="42.8342490" lon="-7.7198110">
        <ele>685.7</ele>
        <time>2020-10-19T09:41:24Z</time>
      </trkpt>
      <trkpt lat="42.8342490" lon="-7.7198250">
        <ele>685.7</ele>
        <time>2020-10-19T09:41:25Z</time>
      </trkpt>
      <trkpt lat="42.8342490" lon="-7.7198390">
        <ele>685.7</ele>
        <time>2020-10-19T09:41:26Z</time>
      </trkpt>
      <trkpt lat="42.8342490" lon="-7.7198520">
        <ele>685.7</ele>
        <time>2020-10-19T09:41:27Z</time>
      </trkpt>
      <trkpt lat="42.8342490" lon="-7.7198650">
        <ele>685.8</ele>
        <time>2020-10-19T09:41:28Z</time>
      </trkpt>
      <trkpt lat="42.8342480" lon="-7.7198780">
        <ele>685.8</ele>
        <time>2020-10-19T09:41:29Z</time>
      </trkpt>
      <trkpt lat="42.8342490" lon="-7.7198910">
        <ele>685.8</ele>
        <time>2020-10-19T09:41:30Z</time>
      </trkpt>
      <trkpt lat="42.8342500" lon="-7.7199030">
        <ele>685.8</ele>
        <time>2020-10-19T09:41:31Z</time>
      </trkpt>
      <trkpt lat="42.8342500" lon="-7.7199140">
        <ele>685.9</ele>
        <time>2020-10-19T09:41:32Z</time>
      </trkpt>
      <trkpt lat="42.8342510" lon="-7.7199260">
        <ele>685.9</ele>
        <time>2020-10-19T09:41:33Z</time>
      </trkpt>
      <trkpt lat="42.8342510" lon="-7.7199380">
        <ele>685.9</ele>
        <time>2020-10-19T09:41:34Z</time>
      </trkpt>
      <trkpt lat="42.8342510" lon="-7.7199510">
        <ele>686.0</ele>
        <time>2020-10-19T09:41:35Z</time>
      </trkpt>
      <trkpt lat="42.8342520" lon="-7.7199640">
        <ele>686.0</ele>
        <time>2020-10-19T09:41:36Z</time>
      </trkpt>
      <trkpt lat="42.8342520" lon="-7.7199760">
        <ele>686.0</ele>
        <time>2020-10-19T09:41:37Z</time>
      </trkpt>
      <trkpt lat="42.8342520" lon="-7.7199890">
        <ele>686.1</ele>
        <time>2020-10-19T09:41:38Z</time>
      </trkpt>
      <trkpt lat="42.8342520" lon="-7.7200000">
        <ele>686.1</ele>
        <time>2020-10-19T09:41:39Z</time>
      </trkpt>
      <trkpt lat="42.8342530" lon="-7.7200110">
        <ele>686.1</ele>
        <time>2020-10-19T09:41:40Z</time>
      </trkpt>
      <trkpt lat="42.8342540" lon="-7.7200220">
        <ele>686.1</ele>
        <time>2020-10-19T09:41:41Z</time>
      </trkpt>
      <trkpt lat="42.8342540" lon="-7.7200350">
        <ele>686.2</ele>
        <time>2020-10-19T09:41:42Z</time>
      </trkpt>
      <trkpt lat="42.8342540" lon="-7.7200480">
        <ele>686.2</ele>
        <time>2020-10-19T09:41:43Z</time>
      </trkpt>
      <trkpt lat="42.8342540" lon="-7.7200610">
        <ele>686.3</ele>
        <time>2020-10-19T09:41:44Z</time>
      </trkpt>
      <trkpt lat="42.8342550" lon="-7.7200740">
        <ele>686.3</ele>
        <time>2020-10-19T09:41:45Z</time>
      </trkpt>
      <trkpt lat="42.8342550" lon="-7.7200870">
        <ele>686.3</ele>
        <time>2020-10-19T09:41:46Z</time>
      </trkpt>
      <trkpt lat="42.8342550" lon="-7.7201010">
        <ele>686.4</ele>
        <time>2020-10-19T09:41:47Z</time>
      </trkpt>
      <trkpt lat="42.8342550" lon="-7.7201160">
        <ele>686.4</ele>
        <time>2020-10-19T09:41:48Z</time>
      </trkpt>
      <trkpt lat="42.8342540" lon="-7.7201300">
        <ele>686.5</ele>
        <time>2020-10-19T09:41:49Z</time>
      </trkpt>
      <trkpt lat="42.8342530" lon="-7.7201450">
        <ele>686.5</ele>
        <time>2020-10-19T09:41:50Z</time>
      </trkpt>
      <trkpt lat="42.8342520" lon="-7.7201600">
        <ele>686.6</ele>
        <time>2020-10-19T09:41:51Z</time>
      </trkpt>
      <trkpt lat="42.8342490" lon="-7.7201750">
        <ele>686.6</ele>
        <time>2020-10-19T09:41:52Z</time>
      </trkpt>
      <trkpt lat="42.8342470" lon="-7.7201910">
        <ele>686.7</ele>
        <time>2020-10-19T09:41:53Z</time>
      </trkpt>
      <trkpt lat="42.8342440" lon="-7.7202060">
        <ele>686.7</ele>
        <time>2020-10-19T09:41:54Z</time>
      </trkpt>
      <trkpt lat="42.8342430" lon="-7.7202210">
        <ele>686.8</ele>
        <time>2020-10-19T09:41:55Z</time>
      </trkpt>
      <trkpt lat="42.8342410" lon="-7.7202350">
        <ele>686.8</ele>
        <time>2020-10-19T09:41:56Z</time>
      </trkpt>
      <trkpt lat="42.8342400" lon="-7.7202500">
        <ele>686.8</ele>
        <time>2020-10-19T09:41:57Z</time>
      </trkpt>
      <trkpt lat="42.8342390" lon="-7.7202640">
        <ele>686.9</ele>
        <time>2020-10-19T09:41:58Z</time>
      </trkpt>
      <trkpt lat="42.8342380" lon="-7.7202780">
        <ele>686.9</ele>
        <time>2020-10-19T09:41:59Z</time>
      </trkpt>
      <trkpt lat="42.8342370" lon="-7.7202930">
        <ele>687.0</ele>
        <time>2020-10-19T09:42:00Z</time>
      </trkpt>
      <trkpt lat="42.8342360" lon="-7.7203080">
        <ele>687.0</ele>
        <time>2020-10-19T09:42:01Z</time>
      </trkpt>
      <trkpt lat="42.8342360" lon="-7.7203230">
        <ele>687.0</ele>
        <time>2020-10-19T09:42:02Z</time>
      </trkpt>
      <trkpt lat="42.8342360" lon="-7.7203380">
        <ele>687.1</ele>
        <time>2020-10-19T09:42:03Z</time>
      </trkpt>
      <trkpt lat="42.8342350" lon="-7.7203510">
        <ele>687.1</ele>
        <time>2020-10-19T09:42:04Z</time>
      </trkpt>
      <trkpt lat="42.8342340" lon="-7.7203650">
        <ele>687.2</ele>
        <time>2020-10-19T09:42:05Z</time>
      </trkpt>
      <trkpt lat="42.8342330" lon="-7.7203790">
        <ele>687.2</ele>
        <time>2020-10-19T09:42:06Z</time>
      </trkpt>
      <trkpt lat="42.8342310" lon="-7.7203930">
        <ele>687.2</ele>
        <time>2020-10-19T09:42:07Z</time>
      </trkpt>
      <trkpt lat="42.8342300" lon="-7.7204070">
        <ele>687.3</ele>
        <time>2020-10-19T09:42:08Z</time>
      </trkpt>
      <trkpt lat="42.8342280" lon="-7.7204210">
        <ele>687.3</ele>
        <time>2020-10-19T09:42:09Z</time>
      </trkpt>
      <trkpt lat="42.8342270" lon="-7.7204350">
        <ele>687.4</ele>
        <time>2020-10-19T09:42:10Z</time>
      </trkpt>
      <trkpt lat="42.8342260" lon="-7.7204500">
        <ele>687.4</ele>
        <time>2020-10-19T09:42:11Z</time>
      </trkpt>
      <trkpt lat="42.8342260" lon="-7.7204650">
        <ele>687.5</ele>
        <time>2020-10-19T09:42:12Z</time>
      </trkpt>
      <trkpt lat="42.8342240" lon="-7.7204800">
        <ele>687.5</ele>
        <time>2020-10-19T09:42:13Z</time>
      </trkpt>
      <trkpt lat="42.8342220" lon="-7.7204940">
        <ele>687.5</ele>
        <time>2020-10-19T09:42:14Z</time>
      </trkpt>
      <trkpt lat="42.8342200" lon="-7.7205080">
        <ele>687.6</ele>
        <time>2020-10-19T09:42:15Z</time>
      </trkpt>
      <trkpt lat="42.8342190" lon="-7.7205230">
        <ele>687.6</ele>
        <time>2020-10-19T09:42:16Z</time>
      </trkpt>
      <trkpt lat="42.8342190" lon="-7.7205380">
        <ele>687.7</ele>
        <time>2020-10-19T09:42:17Z</time>
      </trkpt>
      <trkpt lat="42.8342180" lon="-7.7205530">
        <ele>687.7</ele>
        <time>2020-10-19T09:42:18Z</time>
      </trkpt>
      <trkpt lat="42.8342170" lon="-7.7205680">
        <ele>687.8</ele>
        <time>2020-10-19T09:42:19Z</time>
      </trkpt>
      <trkpt lat="42.8342160" lon="-7.7205820">
        <ele>687.8</ele>
        <time>2020-10-19T09:42:20Z</time>
      </trkpt>
      <trkpt lat="42.8342150" lon="-7.7205970">
        <ele>687.9</ele>
        <time>2020-10-19T09:42:21Z</time>
      </trkpt>
      <trkpt lat="42.8342130" lon="-7.7206120">
        <ele>687.9</ele>
        <time>2020-10-19T09:42:22Z</time>
      </trkpt>
      <trkpt lat="42.8342110" lon="-7.7206280">
        <ele>688.0</ele>
        <time>2020-10-19T09:42:23Z</time>
      </trkpt>
      <trkpt lat="42.8342080" lon="-7.7206440">
        <ele>688.0</ele>
        <time>2020-10-19T09:42:24Z</time>
      </trkpt>
      <trkpt lat="42.8342050" lon="-7.7206590">
        <ele>688.1</ele>
        <time>2020-10-19T09:42:25Z</time>
      </trkpt>
      <trkpt lat="42.8342030" lon="-7.7206730">
        <ele>688.1</ele>
        <time>2020-10-19T09:42:26Z</time>
      </trkpt>
      <trkpt lat="42.8342020" lon="-7.7206880">
        <ele>688.2</ele>
        <time>2020-10-19T09:42:27Z</time>
      </trkpt>
      <trkpt lat="42.8341990" lon="-7.7207030">
        <ele>688.2</ele>
        <time>2020-10-19T09:42:28Z</time>
      </trkpt>
      <trkpt lat="42.8341970" lon="-7.7207170">
        <ele>688.3</ele>
        <time>2020-10-19T09:42:29Z</time>
      </trkpt>
      <trkpt lat="42.8341940" lon="-7.7207320">
        <ele>688.3</ele>
        <time>2020-10-19T09:42:30Z</time>
      </trkpt>
      <trkpt lat="42.8341910" lon="-7.7207460">
        <ele>688.4</ele>
        <time>2020-10-19T09:42:31Z</time>
      </trkpt>
      <trkpt lat="42.8341870" lon="-7.7207600">
        <ele>688.5</ele>
        <time>2020-10-19T09:42:32Z</time>
      </trkpt>
      <trkpt lat="42.8341850" lon="-7.7207730">
        <ele>688.5</ele>
        <time>2020-10-19T09:42:33Z</time>
      </trkpt>
      <trkpt lat="42.8341820" lon="-7.7207880">
        <ele>688.6</ele>
        <time>2020-10-19T09:42:34Z</time>
      </trkpt>
      <trkpt lat="42.8341790" lon="-7.7208020">
        <ele>688.6</ele>
        <time>2020-10-19T09:42:35Z</time>
      </trkpt>
      <trkpt lat="42.8341760" lon="-7.7208160">
        <ele>688.7</ele>
        <time>2020-10-19T09:42:36Z</time>
      </trkpt>
      <trkpt lat="42.8341730" lon="-7.7208300">
        <ele>688.8</ele>
        <time>2020-10-19T09:42:37Z</time>
      </trkpt>
      <trkpt lat="42.8341690" lon="-7.7208430">
        <ele>688.8</ele>
        <time>2020-10-19T09:42:38Z</time>
      </trkpt>
      <trkpt lat="42.8341640" lon="-7.7208580">
        <ele>688.9</ele>
        <time>2020-10-19T09:42:39Z</time>
      </trkpt>
      <trkpt lat="42.8341600" lon="-7.7208730">
        <ele>689.0</ele>
        <time>2020-10-19T09:42:40Z</time>
      </trkpt>
      <trkpt lat="42.8341560" lon="-7.7208880">
        <ele>689.0</ele>
        <time>2020-10-19T09:42:41Z</time>
      </trkpt>
      <trkpt lat="42.8341520" lon="-7.7209030">
        <ele>689.1</ele>
        <time>2020-10-19T09:42:42Z</time>
      </trkpt>
      <trkpt lat="42.8341480" lon="-7.7209180">
        <ele>689.2</ele>
        <time>2020-10-19T09:42:43Z</time>
      </trkpt>
      <trkpt lat="42.8341430" lon="-7.7209320">
        <ele>689.2</ele>
        <time>2020-10-19T09:42:44Z</time>
      </trkpt>
      <trkpt lat="42.8341390" lon="-7.7209460">
        <ele>689.3</ele>
        <time>2020-10-19T09:42:45Z</time>
      </trkpt>
      <trkpt lat="42.8341340" lon="-7.7209610">
        <ele>689.4</ele>
        <time>2020-10-19T09:42:46Z</time>
      </trkpt>
      <trkpt lat="42.8341290" lon="-7.7209760">
        <ele>689.5</ele>
        <time>2020-10-19T09:42:47Z</time>
      </trkpt>
      <trkpt lat="42.8341250" lon="-7.7209920">
        <ele>689.5</ele>
        <time>2020-10-19T09:42:48Z</time>
      </trkpt>
      <trkpt lat="42.8341200" lon="-7.7210070">
        <ele>689.6</ele>
        <time>2020-10-19T09:42:49Z</time>
      </trkpt>
      <trkpt lat="42.8341150" lon="-7.7210220">
        <ele>689.7</ele>
        <time>2020-10-19T09:42:50Z</time>
      </trkpt>
      <trkpt lat="42.8341090" lon="-7.7210360">
        <ele>689.7</ele>
        <time>2020-10-19T09:42:51Z</time>
      </trkpt>
      <trkpt lat="42.8341030" lon="-7.7210500">
        <ele>689.8</ele>
        <time>2020-10-19T09:42:52Z</time>
      </trkpt>
      <trkpt lat="42.8340970" lon="-7.7210640">
        <ele>689.8</ele>
        <time>2020-10-19T09:42:53Z</time>
      </trkpt>
      <trkpt lat="42.8340910" lon="-7.7210780">
        <ele>689.9</ele>
        <time>2020-10-19T09:42:54Z</time>
      </trkpt>
      <trkpt lat="42.8340850" lon="-7.7210920">
        <ele>689.9</ele>
        <time>2020-10-19T09:42:55Z</time>
      </trkpt>
      <trkpt lat="42.8340790" lon="-7.7211060">
        <ele>690.0</ele>
        <time>2020-10-19T09:42:56Z</time>
      </trkpt>
      <trkpt lat="42.8340720" lon="-7.7211200">
        <ele>690.0</ele>
        <time>2020-10-19T09:42:57Z</time>
      </trkpt>
      <trkpt lat="42.8340660" lon="-7.7211340">
        <ele>690.0</ele>
        <time>2020-10-19T09:42:58Z</time>
      </trkpt>
      <trkpt lat="42.8340600" lon="-7.7211500">
        <ele>690.1</ele>
        <time>2020-10-19T09:42:59Z</time>
      </trkpt>
      <trkpt lat="42.8340540" lon="-7.7211650">
        <ele>690.1</ele>
        <time>2020-10-19T09:43:00Z</time>
      </trkpt>
      <trkpt lat="42.8340500" lon="-7.7211810">
        <ele>690.1</ele>
        <time>2020-10-19T09:43:01Z</time>
      </trkpt>
      <trkpt lat="42.8340460" lon="-7.7211970">
        <ele>690.2</ele>
        <time>2020-10-19T09:43:02Z</time>
      </trkpt>
      <trkpt lat="42.8340420" lon="-7.7212120">
        <ele>690.2</ele>
        <time>2020-10-19T09:43:03Z</time>
      </trkpt>
      <trkpt lat="42.8340380" lon="-7.7212270">
        <ele>690.2</ele>
        <time>2020-10-19T09:43:04Z</time>
      </trkpt>
      <trkpt lat="42.8340360" lon="-7.7212420">
        <ele>690.2</ele>
        <time>2020-10-19T09:43:05Z</time>
      </trkpt>
      <trkpt lat="42.8340340" lon="-7.7212570">
        <ele>690.2</ele>
        <time>2020-10-19T09:43:06Z</time>
      </trkpt>
      <trkpt lat="42.8340320" lon="-7.7212740">
        <ele>690.2</ele>
        <time>2020-10-19T09:43:07Z</time>
      </trkpt>
      <trkpt lat="42.8340310" lon="-7.7212900">
        <ele>690.2</ele>
        <time>2020-10-19T09:43:08Z</time>
      </trkpt>
      <trkpt lat="42.8340300" lon="-7.7213060">
        <ele>690.3</ele>
        <time>2020-10-19T09:43:09Z</time>
      </trkpt>
      <trkpt lat="42.8340290" lon="-7.7213220">
        <ele>690.3</ele>
        <time>2020-10-19T09:43:10Z</time>
      </trkpt>
      <trkpt lat="42.8340280" lon="-7.7213380">
        <ele>690.3</ele>
        <time>2020-10-19T09:43:11Z</time>
      </trkpt>
      <trkpt lat="42.8340290" lon="-7.7213520">
        <ele>690.3</ele>
        <time>2020-10-19T09:43:12Z</time>
      </trkpt>
      <trkpt lat="42.8340300" lon="-7.7213650">
        <ele>690.3</ele>
        <time>2020-10-19T09:43:13Z</time>
      </trkpt>
      <trkpt lat="42.8340310" lon="-7.7213750">
        <ele>690.2</ele>
        <time>2020-10-19T09:43:14Z</time>
      </trkpt>
      <trkpt lat="42.8340310" lon="-7.7213820">
        <ele>690.2</ele>
        <time>2020-10-19T09:43:15Z</time>
      </trkpt>
      <trkpt lat="42.8340300" lon="-7.7213900">
        <ele>690.2</ele>
        <time>2020-10-19T09:43:16Z</time>
      </trkpt>
      <trkpt lat="42.8340330" lon="-7.7213990">
        <ele>690.2</ele>
        <time>2020-10-19T09:43:17Z</time>
      </trkpt>
      <trkpt lat="42.8340380" lon="-7.7214110">
        <ele>690.2</ele>
        <time>2020-10-19T09:43:18Z</time>
      </trkpt>
      <trkpt lat="42.8340430" lon="-7.7214240">
        <ele>690.2</ele>
        <time>2020-10-19T09:43:19Z</time>
      </trkpt>
      <trkpt lat="42.8340470" lon="-7.7214360">
        <ele>690.2</ele>
        <time>2020-10-19T09:43:20Z</time>
      </trkpt>
      <trkpt lat="42.8340510" lon="-7.7214480">
        <ele>690.2</ele>
        <time>2020-10-19T09:43:21Z</time>
      </trkpt>
      <trkpt lat="42.8340560" lon="-7.7214580">
        <ele>690.2</ele>
        <time>2020-10-19T09:43:22Z</time>
      </trkpt>
      <trkpt lat="42.8340610" lon="-7.7214650">
        <ele>690.2</ele>
        <time>2020-10-19T09:43:23Z</time>
      </trkpt>
      <trkpt lat="42.8340670" lon="-7.7214700">
        <ele>690.1</ele>
        <time>2020-10-19T09:43:24Z</time>
      </trkpt>
      <trkpt lat="42.8340740" lon="-7.7214760">
        <ele>690.1</ele>
        <time>2020-10-19T09:43:25Z</time>
      </trkpt>
      <trkpt lat="42.8340800" lon="-7.7214830">
        <ele>690.1</ele>
        <time>2020-10-19T09:43:26Z</time>
      </trkpt>
      <trkpt lat="42.8340870" lon="-7.7214900">
        <ele>690.1</ele>
        <time>2020-10-19T09:43:27Z</time>
      </trkpt>
      <trkpt lat="42.8340930" lon="-7.7214970">
        <ele>690.1</ele>
        <time>2020-10-19T09:43:28Z</time>
      </trkpt>
      <trkpt lat="42.8341010" lon="-7.7215050">
        <ele>690.1</ele>
        <time>2020-10-19T09:43:29Z</time>
      </trkpt>
      <trkpt lat="42.8341090" lon="-7.7215120">
        <ele>690.0</ele>
        <time>2020-10-19T09:43:30Z</time>
      </trkpt>
      <trkpt lat="42.8341170" lon="-7.7215200">
        <ele>690.0</ele>
        <time>2020-10-19T09:43:31Z</time>
      </trkpt>
      <trkpt lat="42.8341250" lon="-7.7215290">
        <ele>690.0</ele>
        <time>2020-10-19T09:43:32Z</time>
      </trkpt>
      <trkpt lat="42.8341330" lon="-7.7215370">
        <ele>690.0</ele>
        <time>2020-10-19T09:43:33Z</time>
      </trkpt>
      <trkpt lat="42.8341410" lon="-7.7215460">
        <ele>690.0</ele>
        <time>2020-10-19T09:43:34Z</time>
      </trkpt>
      <trkpt lat="42.8341490" lon="-7.7215540">
        <ele>689.9</ele>
        <time>2020-10-19T09:43:35Z</time>
      </trkpt>
      <trkpt lat="42.8341570" lon="-7.7215630">
        <ele>689.9</ele>
        <time>2020-10-19T09:43:36Z</time>
      </trkpt>
      <trkpt lat="42.8341650" lon="-7.7215720">
        <ele>689.9</ele>
        <time>2020-10-19T09:43:37Z</time>
      </trkpt>
      <trkpt lat="42.8341730" lon="-7.7215810">
        <ele>689.9</ele>
        <time>2020-10-19T09:43:38Z</time>
      </trkpt>
      <trkpt lat="42.8341800" lon="-7.7215900">
        <ele>689.8</ele>
        <time>2020-10-19T09:43:39Z</time>
      </trkpt>
      <trkpt lat="42.8341860" lon="-7.7216000">
        <ele>689.8</ele>
        <time>2020-10-19T09:43:40Z</time>
      </trkpt>
      <trkpt lat="42.8341920" lon="-7.7216110">
        <ele>689.8</ele>
        <time>2020-10-19T09:43:41Z</time>
      </trkpt>
      <trkpt lat="42.8341980" lon="-7.7216210">
        <ele>689.7</ele>
        <time>2020-10-19T09:43:42Z</time>
      </trkpt>
      <trkpt lat="42.8342050" lon="-7.7216310">
        <ele>689.7</ele>
        <time>2020-10-19T09:43:43Z</time>
      </trkpt>
      <trkpt lat="42.8342130" lon="-7.7216380">
        <ele>689.7</ele>
        <time>2020-10-19T09:43:44Z</time>
      </trkpt>
      <trkpt lat="42.8342210" lon="-7.7216460">
        <ele>689.6</ele>
        <time>2020-10-19T09:43:45Z</time>
      </trkpt>
      <trkpt lat="42.8342300" lon="-7.7216540">
        <ele>689.6</ele>
        <time>2020-10-19T09:43:46Z</time>
      </trkpt>
      <trkpt lat="42.8342390" lon="-7.7216620">
        <ele>689.6</ele>
        <time>2020-10-19T09:43:47Z</time>
      </trkpt>
      <trkpt lat="42.8342470" lon="-7.7216700">
        <ele>689.5</ele>
        <time>2020-10-19T09:43:48Z</time>
      </trkpt>
      <trkpt lat="42.8342550" lon="-7.7216780">
        <ele>689.5</ele>
        <time>2020-10-19T09:43:49Z</time>
      </trkpt>
      <trkpt lat="42.8342640" lon="-7.7216850">
        <ele>689.4</ele>
        <time>2020-10-19T09:43:50Z</time>
      </trkpt>
      <trkpt lat="42.8342720" lon="-7.7216940">
        <ele>689.4</ele>
        <time>2020-10-19T09:43:51Z</time>
      </trkpt>
      <trkpt lat="42.8342810" lon="-7.7217030">
        <ele>689.3</ele>
        <time>2020-10-19T09:43:52Z</time>
      </trkpt>
      <trkpt lat="42.8342880" lon="-7.7217130">
        <ele>689.3</ele>
        <time>2020-10-19T09:43:53Z</time>
      </trkpt>
      <trkpt lat="42.8342960" lon="-7.7217210">
        <ele>689.2</ele>
        <time>2020-10-19T09:43:54Z</time>
      </trkpt>
      <trkpt lat="42.8343040" lon="-7.7217290">
        <ele>689.2</ele>
        <time>2020-10-19T09:43:55Z</time>
      </trkpt>
      <trkpt lat="42.8343110" lon="-7.7217340">
        <ele>689.1</ele>
        <time>2020-10-19T09:43:56Z</time>
      </trkpt>
      <trkpt lat="42.8343190" lon="-7.7217380">
        <ele>689.1</ele>
        <time>2020-10-19T09:43:57Z</time>
      </trkpt>
      <trkpt lat="42.8343280" lon="-7.7217440">
        <ele>689.0</ele>
        <time>2020-10-19T09:43:58Z</time>
      </trkpt>
      <trkpt lat="42.8343380" lon="-7.7217530">
        <ele>689.0</ele>
        <time>2020-10-19T09:43:59Z</time>
      </trkpt>
      <trkpt lat="42.8343480" lon="-7.7217620">
        <ele>688.9</ele>
        <time>2020-10-19T09:44:00Z</time>
      </trkpt>
      <trkpt lat="42.8343570" lon="-7.7217710">
        <ele>688.9</ele>
        <time>2020-10-19T09:44:01Z</time>
      </trkpt>
      <trkpt lat="42.8343670" lon="-7.7217790">
        <ele>688.8</ele>
        <time>2020-10-19T09:44:02Z</time>
      </trkpt>
      <trkpt lat="42.8343760" lon="-7.7217880">
        <ele>688.7</ele>
        <time>2020-10-19T09:44:03Z</time>
      </trkpt>
      <trkpt lat="42.8343860" lon="-7.7217970">
        <ele>688.7</ele>
        <time>2020-10-19T09:44:04Z</time>
      </trkpt>
      <trkpt lat="42.8343960" lon="-7.7218060">
        <ele>688.6</ele>
        <time>2020-10-19T09:44:05Z</time>
      </trkpt>
      <trkpt lat="42.8344050" lon="-7.7218150">
        <ele>688.5</ele>
        <time>2020-10-19T09:44:06Z</time>
      </trkpt>
      <trkpt lat="42.8344140" lon="-7.7218230">
        <ele>688.5</ele>
        <time>2020-10-19T09:44:07Z</time>
      </trkpt>
      <trkpt lat="42.8344240" lon="-7.7218310">
        <ele>688.4</ele>
        <time>2020-10-19T09:44:08Z</time>
      </trkpt>
      <trkpt lat="42.8344330" lon="-7.7218390">
        <ele>688.3</ele>
        <time>2020-10-19T09:44:09Z</time>
      </trkpt>
      <trkpt lat="42.8344420" lon="-7.7218480">
        <ele>688.3</ele>
        <time>2020-10-19T09:44:10Z</time>
      </trkpt>
      <trkpt lat="42.8344500" lon="-7.7218580">
        <ele>688.2</ele>
        <time>2020-10-19T09:44:11Z</time>
      </trkpt>
      <trkpt lat="42.8344590" lon="-7.7218680">
        <ele>688.1</ele>
        <time>2020-10-19T09:44:12Z</time>
      </trkpt>
      <trkpt lat="42.8344700" lon="-7.7218770">
        <ele>688.0</ele>
        <time>2020-10-19T09:44:13Z</time>
      </trkpt>
      <trkpt lat="42.8344800" lon="-7.7218880">
        <ele>688.0</ele>
        <time>2020-10-19T09:44:14Z</time>
      </trkpt>
      <trkpt lat="42.8344900" lon="-7.7218980">
        <ele>687.9</ele>
        <time>2020-10-19T09:44:15Z</time>
      </trkpt>
      <trkpt lat="42.8345000" lon="-7.7219070">
        <ele>687.8</ele>
        <time>2020-10-19T09:44:16Z</time>
      </trkpt>
      <trkpt lat="42.8345100" lon="-7.7219150">
        <ele>687.8</ele>
        <time>2020-10-19T09:44:17Z</time>
      </trkpt>
      <trkpt lat="42.8345210" lon="-7.7219230">
        <ele>687.7</ele>
        <time>2020-10-19T09:44:18Z</time>
      </trkpt>
      <trkpt lat="42.8345320" lon="-7.7219330">
        <ele>687.6</ele>
        <time>2020-10-19T09:44:19Z</time>
      </trkpt>
      <trkpt lat="42.8345410" lon="-7.7219440">
        <ele>687.5</ele>
        <time>2020-10-19T09:44:20Z</time>
      </trkpt>
      <trkpt lat="42.8345490" lon="-7.7219550">
        <ele>687.5</ele>
        <time>2020-10-19T09:44:21Z</time>
      </trkpt>
      <trkpt lat="42.8345580" lon="-7.7219650">
        <ele>687.4</ele>
        <time>2020-10-19T09:44:22Z</time>
      </trkpt>
      <trkpt lat="42.8345660" lon="-7.7219760">
        <ele>687.3</ele>
        <time>2020-10-19T09:44:23Z</time>
      </trkpt>
      <trkpt lat="42.8345740" lon="-7.7219860">
        <ele>687.3</ele>
        <time>2020-10-19T09:44:24Z</time>
      </trkpt>
      <trkpt lat="42.8345820" lon="-7.7219970">
        <ele>687.2</ele>
        <time>2020-10-19T09:44:25Z</time>
      </trkpt>
      <trkpt lat="42.8345890" lon="-7.7220080">
        <ele>687.2</ele>
        <time>2020-10-19T09:44:26Z</time>
      </trkpt>
      <trkpt lat="42.8345960" lon="-7.7220190">
        <ele>687.1</ele>
        <time>2020-10-19T09:44:27Z</time>
      </trkpt>
      <trkpt lat="42.8346030" lon="-7.7220280">
        <ele>687.1</ele>
        <time>2020-10-19T09:44:28Z</time>
      </trkpt>
      <trkpt lat="42.8346110" lon="-7.7220380">
        <ele>687.0</ele>
        <time>2020-10-19T09:44:29Z</time>
      </trkpt>
      <trkpt lat="42.8346190" lon="-7.7220470">
        <ele>687.0</ele>
        <time>2020-10-19T09:44:30Z</time>
      </trkpt>
      <trkpt lat="42.8346270" lon="-7.7220580">
        <ele>686.9</ele>
        <time>2020-10-19T09:44:31Z</time>
      </trkpt>
      <trkpt lat="42.8346350" lon="-7.7220680">
        <ele>686.9</ele>
        <time>2020-10-19T09:44:32Z</time>
      </trkpt>
      <trkpt lat="42.8346440" lon="-7.7220780">
        <ele>686.8</ele>
        <time>2020-10-19T09:44:33Z</time>
      </trkpt>
      <trkpt lat="42.8346520" lon="-7.7220890">
        <ele>686.7</ele>
        <time>2020-10-19T09:44:34Z</time>
      </trkpt>
      <trkpt lat="42.8346600" lon="-7.7220990">
        <ele>686.7</ele>
        <time>2020-10-19T09:44:35Z</time>
      </trkpt>
      <trkpt lat="42.8346670" lon="-7.7221100">
        <ele>686.6</ele>
        <time>2020-10-19T09:44:36Z</time>
      </trkpt>
      <trkpt lat="42.8346750" lon="-7.7221190">
        <ele>686.6</ele>
        <time>2020-10-19T09:44:37Z</time>
      </trkpt>
      <trkpt lat="42.8346830" lon="-7.7221290">
        <ele>686.5</ele>
        <time>2020-10-19T09:44:38Z</time>
      </trkpt>
      <trkpt lat="42.8346930" lon="-7.7221390">
        <ele>686.5</ele>
        <time>2020-10-19T09:44:39Z</time>
      </trkpt>
      <trkpt lat="42.8347030" lon="-7.7221500">
        <ele>686.4</ele>
        <time>2020-10-19T09:44:40Z</time>
      </trkpt>
      <trkpt lat="42.8347140" lon="-7.7221620">
        <ele>686.3</ele>
        <time>2020-10-19T09:44:41Z</time>
      </trkpt>
      <trkpt lat="42.8347230" lon="-7.7221730">
        <ele>686.3</ele>
        <time>2020-10-19T09:44:42Z</time>
      </trkpt>
      <trkpt lat="42.8347320" lon="-7.7221840">
        <ele>686.2</ele>
        <time>2020-10-19T09:44:43Z</time>
      </trkpt>
      <trkpt lat="42.8347410" lon="-7.7221940">
        <ele>686.2</ele>
        <time>2020-10-19T09:44:44Z</time>
      </trkpt>
      <trkpt lat="42.8347500" lon="-7.7222030">
        <ele>686.1</ele>
        <time>2020-10-19T09:44:45Z</time>
      </trkpt>
      <trkpt lat="42.8347600" lon="-7.7222120">
        <ele>686.1</ele>
        <time>2020-10-19T09:44:46Z</time>
      </trkpt>
      <trkpt lat="42.8347700" lon="-7.7222210">
        <ele>686.0</ele>
        <time>2020-10-19T09:44:47Z</time>
      </trkpt>
      <trkpt lat="42.8347800" lon="-7.7222290">
        <ele>685.9</ele>
        <time>2020-10-19T09:44:48Z</time>
      </trkpt>
      <trkpt lat="42.8347910" lon="-7.7222380">
        <ele>685.9</ele>
        <time>2020-10-19T09:44:49Z</time>
      </trkpt>
      <trkpt lat="42.8348010" lon="-7.7222460">
        <ele>685.8</ele>
        <time>2020-10-19T09:44:50Z</time>
      </trkpt>
      <trkpt lat="42.8348120" lon="-7.7222550">
        <ele>685.7</ele>
        <time>2020-10-19T09:44:51Z</time>
      </trkpt>
      <trkpt lat="42.8348220" lon="-7.7222650">
        <ele>685.7</ele>
        <time>2020-10-19T09:44:52Z</time>
      </trkpt>
      <trkpt lat="42.8348320" lon="-7.7222750">
        <ele>685.6</ele>
        <time>2020-10-19T09:44:53Z</time>
      </trkpt>
      <trkpt lat="42.8348420" lon="-7.7222840">
        <ele>685.5</ele>
        <time>2020-10-19T09:44:54Z</time>
      </trkpt>
      <trkpt lat="42.8348520" lon="-7.7222930">
        <ele>685.5</ele>
        <time>2020-10-19T09:44:55Z</time>
      </trkpt>
      <trkpt lat="42.8348630" lon="-7.7223020">
        <ele>685.4</ele>
        <time>2020-10-19T09:44:56Z</time>
      </trkpt>
      <trkpt lat="42.8348740" lon="-7.7223110">
        <ele>685.3</ele>
        <time>2020-10-19T09:44:57Z</time>
      </trkpt>
      <trkpt lat="42.8348840" lon="-7.7223200">
        <ele>685.3</ele>
        <time>2020-10-19T09:44:58Z</time>
      </trkpt>
      <trkpt lat="42.8348950" lon="-7.7223310">
        <ele>685.2</ele>
        <time>2020-10-19T09:44:59Z</time>
      </trkpt>
      <trkpt lat="42.8349050" lon="-7.7223410">
        <ele>685.1</ele>
        <time>2020-10-19T09:45:00Z</time>
      </trkpt>
      <trkpt lat="42.8349150" lon="-7.7223510">
        <ele>685.0</ele>
        <time>2020-10-19T09:45:01Z</time>
      </trkpt>
      <trkpt lat="42.8349260" lon="-7.7223600">
        <ele>684.9</ele>
        <time>2020-10-19T09:45:02Z</time>
      </trkpt>
      <trkpt lat="42.8349360" lon="-7.7223700">
        <ele>684.9</ele>
        <time>2020-10-19T09:45:03Z</time>
      </trkpt>
      <trkpt lat="42.8349450" lon="-7.7223800">
        <ele>684.8</ele>
        <time>2020-10-19T09:45:04Z</time>
      </trkpt>
      <trkpt lat="42.8349540" lon="-7.7223900">
        <ele>684.7</ele>
        <time>2020-10-19T09:45:05Z</time>
      </trkpt>
      <trkpt lat="42.8349620" lon="-7.7224010">
        <ele>684.6</ele>
        <time>2020-10-19T09:45:06Z</time>
      </trkpt>
      <trkpt lat="42.8349700" lon="-7.7224130">
        <ele>684.6</ele>
        <time>2020-10-19T09:45:07Z</time>
      </trkpt>
      <trkpt lat="42.8349780" lon="-7.7224250">
        <ele>684.5</ele>
        <time>2020-10-19T09:45:08Z</time>
      </trkpt>
      <trkpt lat="42.8349860" lon="-7.7224360">
        <ele>684.4</ele>
        <time>2020-10-19T09:45:09Z</time>
      </trkpt>
      <trkpt lat="42.8349940" lon="-7.7224490">
        <ele>684.3</ele>
        <time>2020-10-19T09:45:10Z</time>
      </trkpt>
      <trkpt lat="42.8350020" lon="-7.7224610">
        <ele>684.3</ele>
        <time>2020-10-19T09:45:11Z</time>
      </trkpt>
      <trkpt lat="42.8350090" lon="-7.7224740">
        <ele>684.2</ele>
        <time>2020-10-19T09:45:12Z</time>
      </trkpt>
      <trkpt lat="42.8350170" lon="-7.7224860">
        <ele>684.1</ele>
        <time>2020-10-19T09:45:13Z</time>
      </trkpt>
      <trkpt lat="42.8350240" lon="-7.7224980">
        <ele>684.0</ele>
        <time>2020-10-19T09:45:14Z</time>
      </trkpt>
      <trkpt lat="42.8350320" lon="-7.7225100">
        <ele>684.0</ele>
        <time>2020-10-19T09:45:15Z</time>
      </trkpt>
      <trkpt lat="42.8350390" lon="-7.7225230">
        <ele>683.9</ele>
        <time>2020-10-19T09:45:16Z</time>
      </trkpt>
      <trkpt lat="42.8350470" lon="-7.7225360">
        <ele>683.8</ele>
        <time>2020-10-19T09:45:17Z</time>
      </trkpt>
      <trkpt lat="42.8350540" lon="-7.7225490">
        <ele>683.7</ele>
        <time>2020-10-19T09:45:18Z</time>
      </trkpt>
      <trkpt lat="42.8350600" lon="-7.7225600">
        <ele>683.7</ele>
        <time>2020-10-19T09:45:19Z</time>
      </trkpt>
      <trkpt lat="42.8350660" lon="-7.7225710">
        <ele>683.6</ele>
        <time>2020-10-19T09:45:20Z</time>
      </trkpt>
      <trkpt lat="42.8350700" lon="-7.7225820">
        <ele>683.6</ele>
        <time>2020-10-19T09:45:21Z</time>
      </trkpt>
      <trkpt lat="42.8350760" lon="-7.7225950">
        <ele>683.5</ele>
        <time>2020-10-19T09:45:22Z</time>
      </trkpt>
      <trkpt lat="42.8350830" lon="-7.7226070">
        <ele>683.4</ele>
        <time>2020-10-19T09:45:23Z</time>
      </trkpt>
      <trkpt lat="42.8350900" lon="-7.7226200">
        <ele>683.4</ele>
        <time>2020-10-19T09:45:24Z</time>
      </trkpt>
      <trkpt lat="42.8350970" lon="-7.7226330">
        <ele>683.3</ele>
        <time>2020-10-19T09:45:25Z</time>
      </trkpt>
      <trkpt lat="42.8351040" lon="-7.7226440">
        <ele>683.2</ele>
        <time>2020-10-19T09:45:26Z</time>
      </trkpt>
      <trkpt lat="42.8351100" lon="-7.7226550">
        <ele>683.2</ele>
        <time>2020-10-19T09:45:27Z</time>
      </trkpt>
      <trkpt lat="42.8351170" lon="-7.7226650">
        <ele>683.1</ele>
        <time>2020-10-19T09:45:28Z</time>
      </trkpt>
      <trkpt lat="42.8351240" lon="-7.7226780">
        <ele>683.1</ele>
        <time>2020-10-19T09:45:29Z</time>
      </trkpt>
      <trkpt lat="42.8351310" lon="-7.7226920">
        <ele>683.0</ele>
        <time>2020-10-19T09:45:30Z</time>
      </trkpt>
      <trkpt lat="42.8351390" lon="-7.7227050">
        <ele>682.9</ele>
        <time>2020-10-19T09:45:31Z</time>
      </trkpt>
      <trkpt lat="42.8351460" lon="-7.7227180">
        <ele>682.9</ele>
        <time>2020-10-19T09:45:32Z</time>
      </trkpt>
      <trkpt lat="42.8351540" lon="-7.7227300">
        <ele>682.8</ele>
        <time>2020-10-19T09:45:33Z</time>
      </trkpt>
      <trkpt lat="42.8351610" lon="-7.7227430">
        <ele>682.7</ele>
        <time>2020-10-19T09:45:34Z</time>
      </trkpt>
      <trkpt lat="42.8351680" lon="-7.7227570">
        <ele>682.7</ele>
        <time>2020-10-19T09:45:35Z</time>
      </trkpt>
      <trkpt lat="42.8351760" lon="-7.7227710">
        <ele>682.6</ele>
        <time>2020-10-19T09:45:36Z</time>
      </trkpt>
      <trkpt lat="42.8351850" lon="-7.7227850">
        <ele>682.5</ele>
        <time>2020-10-19T09:45:37Z</time>
      </trkpt>
      <trkpt lat="42.8351930" lon="-7.7227990">
        <ele>682.5</ele>
        <time>2020-10-19T09:45:38Z</time>
      </trkpt>
      <trkpt lat="42.8352020" lon="-7.7228130">
        <ele>682.4</ele>
        <time>2020-10-19T09:45:39Z</time>
      </trkpt>
      <trkpt lat="42.8352090" lon="-7.7228260">
        <ele>682.4</ele>
        <time>2020-10-19T09:45:40Z</time>
      </trkpt>
      <trkpt lat="42.8352170" lon="-7.7228390">
        <ele>682.3</ele>
        <time>2020-10-19T09:45:41Z</time>
      </trkpt>
      <trkpt lat="42.8352250" lon="-7.7228530">
        <ele>682.3</ele>
        <time>2020-10-19T09:45:42Z</time>
      </trkpt>
      <trkpt lat="42.8352330" lon="-7.7228670">
        <ele>682.2</ele>
        <time>2020-10-19T09:45:43Z</time>
      </trkpt>
      <trkpt lat="42.8352410" lon="-7.7228810">
        <ele>682.1</ele>
        <time>2020-10-19T09:45:44Z</time>
      </trkpt>
      <trkpt lat="42.8352500" lon="-7.7228940">
        <ele>682.1</ele>
        <time>2020-10-19T09:45:45Z</time>
      </trkpt>
      <trkpt lat="42.8352590" lon="-7.7229070">
        <ele>682.0</ele>
        <time>2020-10-19T09:45:46Z</time>
      </trkpt>
      <trkpt lat="42.8352690" lon="-7.7229200">
        <ele>682.0</ele>
        <time>2020-10-19T09:45:47Z</time>
      </trkpt>
      <trkpt lat="42.8352790" lon="-7.7229340">
        <ele>681.9</ele>
        <time>2020-10-19T09:45:48Z</time>
      </trkpt>
      <trkpt lat="42.8352880" lon="-7.7229470">
        <ele>681.9</ele>
        <time>2020-10-19T09:45:49Z</time>
      </trkpt>
      <trkpt lat="42.8352970" lon="-7.7229620">
        <ele>681.8</ele>
        <time>2020-10-19T09:45:50Z</time>
      </trkpt>
      <trkpt lat="42.8353060" lon="-7.7229770">
        <ele>681.8</ele>
        <time>2020-10-19T09:45:51Z</time>
      </trkpt>
      <trkpt lat="42.8353150" lon="-7.7229930">
        <ele>681.7</ele>
        <time>2020-10-19T09:45:52Z</time>
      </trkpt>
      <trkpt lat="42.8353230" lon="-7.7230070">
        <ele>681.7</ele>
        <time>2020-10-19T09:45:53Z</time>
      </trkpt>
      <trkpt lat="42.8353320" lon="-7.7230220">
        <ele>681.7</ele>
        <time>2020-10-19T09:45:54Z</time>
      </trkpt>
      <trkpt lat="42.8353390" lon="-7.7230360">
        <ele>681.6</ele>
        <time>2020-10-19T09:45:55Z</time>
      </trkpt>
      <trkpt lat="42.8353460" lon="-7.7230500">
        <ele>681.6</ele>
        <time>2020-10-19T09:45:56Z</time>
      </trkpt>
      <trkpt lat="42.8353530" lon="-7.7230640">
        <ele>681.5</ele>
        <time>2020-10-19T09:45:57Z</time>
      </trkpt>
      <trkpt lat="42.8353610" lon="-7.7230780">
        <ele>681.5</ele>
        <time>2020-10-19T09:45:58Z</time>
      </trkpt>
      <trkpt lat="42.8353690" lon="-7.7230910">
        <ele>681.5</ele>
        <time>2020-10-19T09:45:59Z</time>
      </trkpt>
      <trkpt lat="42.8353780" lon="-7.7231050">
        <ele>681.4</ele>
        <time>2020-10-19T09:46:00Z</time>
      </trkpt>
      <trkpt lat="42.8353870" lon="-7.7231180">
        <ele>681.4</ele>
        <time>2020-10-19T09:46:01Z</time>
      </trkpt>
      <trkpt lat="42.8353940" lon="-7.7231300">
        <ele>681.4</ele>
        <time>2020-10-19T09:46:02Z</time>
      </trkpt>
      <trkpt lat="42.8354010" lon="-7.7231410">
        <ele>681.3</ele>
        <time>2020-10-19T09:46:03Z</time>
      </trkpt>
      <trkpt lat="42.8354090" lon="-7.7231520">
        <ele>681.3</ele>
        <time>2020-10-19T09:46:04Z</time>
      </trkpt>
      <trkpt lat="42.8354170" lon="-7.7231620">
        <ele>681.3</ele>
        <time>2020-10-19T09:46:05Z</time>
      </trkpt>
      <trkpt lat="42.8354250" lon="-7.7231720">
        <ele>681.3</ele>
        <time>2020-10-19T09:46:06Z</time>
      </trkpt>
      <trkpt lat="42.8354320" lon="-7.7231830">
        <ele>681.2</ele>
        <time>2020-10-19T09:46:07Z</time>
      </trkpt>
      <trkpt lat="42.8354400" lon="-7.7231930">
        <ele>681.2</ele>
        <time>2020-10-19T09:46:08Z</time>
      </trkpt>
      <trkpt lat="42.8354470" lon="-7.7232030">
        <ele>681.2</ele>
        <time>2020-10-19T09:46:09Z</time>
      </trkpt>
      <trkpt lat="42.8354550" lon="-7.7232140">
        <ele>681.2</ele>
        <time>2020-10-19T09:46:10Z</time>
      </trkpt>
      <trkpt lat="42.8354620" lon="-7.7232270">
        <ele>681.1</ele>
        <time>2020-10-19T09:46:11Z</time>
      </trkpt>
      <trkpt lat="42.8354690" lon="-7.7232400">
        <ele>681.1</ele>
        <time>2020-10-19T09:46:12Z</time>
      </trkpt>
      <trkpt lat="42.8354750" lon="-7.7232520">
        <ele>681.1</ele>
        <time>2020-10-19T09:46:13Z</time>
      </trkpt>
      <trkpt lat="42.8354830" lon="-7.7232640">
        <ele>681.0</ele>
        <time>2020-10-19T09:46:14Z</time>
      </trkpt>
      <trkpt lat="42.8354910" lon="-7.7232760">
        <ele>681.0</ele>
        <time>2020-10-19T09:46:15Z</time>
      </trkpt>
      <trkpt lat="42.8355000" lon="-7.7232880">
        <ele>681.0</ele>
        <time>2020-10-19T09:46:16Z</time>
      </trkpt>
      <trkpt lat="42.8355090" lon="-7.7232990">
        <ele>680.9</ele>
        <time>2020-10-19T09:46:17Z</time>
      </trkpt>
      <trkpt lat="42.8355180" lon="-7.7233090">
        <ele>680.9</ele>
        <time>2020-10-19T09:46:18Z</time>
      </trkpt>
      <trkpt lat="42.8355290" lon="-7.7233180">
        <ele>680.9</ele>
        <time>2020-10-19T09:46:19Z</time>
      </trkpt>
      <trkpt lat="42.8355390" lon="-7.7233270">
        <ele>680.9</ele>
        <time>2020-10-19T09:46:20Z</time>
      </trkpt>
      <trkpt lat="42.8355490" lon="-7.7233370">
        <ele>680.8</ele>
        <time>2020-10-19T09:46:21Z</time>
      </trkpt>
      <trkpt lat="42.8355590" lon="-7.7233490">
        <ele>680.8</ele>
        <time>2020-10-19T09:46:22Z</time>
      </trkpt>
      <trkpt lat="42.8355690" lon="-7.7233600">
        <ele>680.8</ele>
        <time>2020-10-19T09:46:23Z</time>
      </trkpt>
      <trkpt lat="42.8355790" lon="-7.7233710">
        <ele>680.7</ele>
        <time>2020-10-19T09:46:24Z</time>
      </trkpt>
      <trkpt lat="42.8355890" lon="-7.7233810">
        <ele>680.7</ele>
        <time>2020-10-19T09:46:25Z</time>
      </trkpt>
      <trkpt lat="42.8355970" lon="-7.7233920">
        <ele>680.7</ele>
        <time>2020-10-19T09:46:26Z</time>
      </trkpt>
      <trkpt lat="42.8356070" lon="-7.7234020">
        <ele>680.6</ele>
        <time>2020-10-19T09:46:27Z</time>
      </trkpt>
      <trkpt lat="42.8356180" lon="-7.7234130">
        <ele>680.6</ele>
        <time>2020-10-19T09:46:28Z</time>
      </trkpt>
      <trkpt lat="42.8356300" lon="-7.7234220">
        <ele>680.6</ele>
        <time>2020-10-19T09:46:29Z</time>
      </trkpt>
      <trkpt lat="42.8356410" lon="-7.7234330">
        <ele>680.5</ele>
        <time>2020-10-19T09:46:30Z</time>
      </trkpt>
      <trkpt lat="42.8356510" lon="-7.7234430">
        <ele>680.5</ele>
        <time>2020-10-19T09:46:31Z</time>
      </trkpt>
      <trkpt lat="42.8356630" lon="-7.7234520">
        <ele>680.5</ele>
        <time>2020-10-19T09:46:32Z</time>
      </trkpt>
      <trkpt lat="42.8356730" lon="-7.7234610">
        <ele>680.4</ele>
        <time>2020-10-19T09:46:33Z</time>
      </trkpt>
      <trkpt lat="42.8356840" lon="-7.7234720">
        <ele>680.4</ele>
        <time>2020-10-19T09:46:34Z</time>
      </trkpt>
      <trkpt lat="42.8356930" lon="-7.7234850">
        <ele>680.4</ele>
        <time>2020-10-19T09:46:35Z</time>
      </trkpt>
      <trkpt lat="42.8357030" lon="-7.7234970">
        <ele>680.4</ele>
        <time>2020-10-19T09:46:36Z</time>
      </trkpt>
      <trkpt lat="42.8357120" lon="-7.7235080">
        <ele>680.3</ele>
        <time>2020-10-19T09:46:37Z</time>
      </trkpt>
      <trkpt lat="42.8357210" lon="-7.7235170">
        <ele>680.3</ele>
        <time>2020-10-19T09:46:38Z</time>
      </trkpt>
      <trkpt lat="42.8357300" lon="-7.7235260">
        <ele>680.3</ele>
        <time>2020-10-19T09:46:39Z</time>
      </trkpt>
      <trkpt lat="42.8357390" lon="-7.7235350">
        <ele>680.3</ele>
        <time>2020-10-19T09:46:40Z</time>
      </trkpt>
      <trkpt lat="42.8357460" lon="-7.7235460">
        <ele>680.2</ele>
        <time>2020-10-19T09:46:41Z</time>
      </trkpt>
      <trkpt lat="42.8357530" lon="-7.7235560">
        <ele>680.2</ele>
        <time>2020-10-19T09:46:42Z</time>
      </trkpt>
      <trkpt lat="42.8357590" lon="-7.7235680">
        <ele>680.2</ele>
        <time>2020-10-19T09:46:43Z</time>
      </trkpt>
      <trkpt lat="42.8357650" lon="-7.7235790">
        <ele>680.2</ele>
        <time>2020-10-19T09:46:44Z</time>
      </trkpt>
      <trkpt lat="42.8357700" lon="-7.7235910">
        <ele>680.2</ele>
        <time>2020-10-19T09:46:45Z</time>
      </trkpt>
      <trkpt lat="42.8357760" lon="-7.7236030">
        <ele>680.2</ele>
        <time>2020-10-19T09:46:46Z</time>
      </trkpt>
      <trkpt lat="42.8357800" lon="-7.7236170">
        <ele>680.1</ele>
        <time>2020-10-19T09:46:47Z</time>
      </trkpt>
      <trkpt lat="42.8357850" lon="-7.7236320">
        <ele>680.1</ele>
        <time>2020-10-19T09:46:48Z</time>
      </trkpt>
      <trkpt lat="42.8357900" lon="-7.7236450">
        <ele>680.1</ele>
        <time>2020-10-19T09:46:49Z</time>
      </trkpt>
      <trkpt lat="42.8357950" lon="-7.7236570">
        <ele>680.1</ele>
        <time>2020-10-19T09:46:50Z</time>
      </trkpt>
      <trkpt lat="42.8357990" lon="-7.7236690">
        <ele>680.1</ele>
        <time>2020-10-19T09:46:51Z</time>
      </trkpt>
      <trkpt lat="42.8358040" lon="-7.7236800">
        <ele>680.1</ele>
        <time>2020-10-19T09:46:52Z</time>
      </trkpt>
      <trkpt lat="42.8358090" lon="-7.7236910">
        <ele>680.1</ele>
        <time>2020-10-19T09:46:53Z</time>
      </trkpt>
      <trkpt lat="42.8358150" lon="-7.7237040">
        <ele>680.1</ele>
        <time>2020-10-19T09:46:54Z</time>
      </trkpt>
      <trkpt lat="42.8358200" lon="-7.7237180">
        <ele>680.0</ele>
        <time>2020-10-19T09:46:55Z</time>
      </trkpt>
      <trkpt lat="42.8358250" lon="-7.7237330">
        <ele>680.0</ele>
        <time>2020-10-19T09:46:56Z</time>
      </trkpt>
      <trkpt lat="42.8358300" lon="-7.7237450">
        <ele>680.0</ele>
        <time>2020-10-19T09:46:57Z</time>
      </trkpt>
      <trkpt lat="42.8358360" lon="-7.7237580">
        <ele>680.0</ele>
        <time>2020-10-19T09:46:58Z</time>
      </trkpt>
      <trkpt lat="42.8358420" lon="-7.7237720">
        <ele>680.0</ele>
        <time>2020-10-19T09:46:59Z</time>
      </trkpt>
      <trkpt lat="42.8358480" lon="-7.7237880">
        <ele>680.0</ele>
        <time>2020-10-19T09:47:00Z</time>
      </trkpt>
      <trkpt lat="42.8358540" lon="-7.7238030">
        <ele>680.0</ele>
        <time>2020-10-19T09:47:01Z</time>
      </trkpt>
      <trkpt lat="42.8358600" lon="-7.7238150">
        <ele>680.0</ele>
        <time>2020-10-19T09:47:02Z</time>
      </trkpt>
      <trkpt lat="42.8358670" lon="-7.7238270">
        <ele>680.0</ele>
        <time>2020-10-19T09:47:03Z</time>
      </trkpt>
      <trkpt lat="42.8358730" lon="-7.7238410">
        <ele>680.0</ele>
        <time>2020-10-19T09:47:04Z</time>
      </trkpt>
      <trkpt lat="42.8358780" lon="-7.7238520">
        <ele>680.0</ele>
        <time>2020-10-19T09:47:05Z</time>
      </trkpt>
      <trkpt lat="42.8358810" lon="-7.7238630">
        <ele>680.0</ele>
        <time>2020-10-19T09:47:06Z</time>
      </trkpt>
      <trkpt lat="42.8358850" lon="-7.7238720">
        <ele>680.0</ele>
        <time>2020-10-19T09:47:07Z</time>
      </trkpt>
      <trkpt lat="42.8358910" lon="-7.7238850">
        <ele>680.0</ele>
        <time>2020-10-19T09:47:08Z</time>
      </trkpt>
      <trkpt lat="42.8358960" lon="-7.7238970">
        <ele>680.0</ele>
        <time>2020-10-19T09:47:09Z</time>
      </trkpt>
      <trkpt lat="42.8359020" lon="-7.7239120">
        <ele>680.0</ele>
        <time>2020-10-19T09:47:10Z</time>
      </trkpt>
      <trkpt lat="42.8359080" lon="-7.7239270">
        <ele>680.0</ele>
        <time>2020-10-19T09:47:11Z</time>
      </trkpt>
      <trkpt lat="42.8359150" lon="-7.7239430">
        <ele>680.0</ele>
        <time>2020-10-19T09:47:12Z</time>
      </trkpt>
      <trkpt lat="42.8359200" lon="-7.7239580">
        <ele>680.0</ele>
        <time>2020-10-19T09:47:13Z</time>
      </trkpt>
      <trkpt lat="42.8359280" lon="-7.7239730">
        <ele>680.0</ele>
        <time>2020-10-19T09:47:14Z</time>
      </trkpt>
      <trkpt lat="42.8359370" lon="-7.7239890">
        <ele>680.0</ele>
        <time>2020-10-19T09:47:15Z</time>
      </trkpt>
      <trkpt lat="42.8359460" lon="-7.7240060">
        <ele>680.0</ele>
        <time>2020-10-19T09:47:16Z</time>
      </trkpt>
      <trkpt lat="42.8359540" lon="-7.7240230">
        <ele>680.0</ele>
        <time>2020-10-19T09:47:17Z</time>
      </trkpt>
      <trkpt lat="42.8359600" lon="-7.7240390">
        <ele>680.0</ele>
        <time>2020-10-19T09:47:18Z</time>
      </trkpt>
      <trkpt lat="42.8359670" lon="-7.7240530">
        <ele>680.0</ele>
        <time>2020-10-19T09:47:19Z</time>
      </trkpt>
      <trkpt lat="42.8359730" lon="-7.7240680">
        <ele>680.0</ele>
        <time>2020-10-19T09:47:20Z</time>
      </trkpt>
      <trkpt lat="42.8359800" lon="-7.7240840">
        <ele>680.0</ele>
        <time>2020-10-19T09:47:21Z</time>
      </trkpt>
      <trkpt lat="42.8359860" lon="-7.7241000">
        <ele>680.0</ele>
        <time>2020-10-19T09:47:22Z</time>
      </trkpt>
      <trkpt lat="42.8359910" lon="-7.7241170">
        <ele>680.0</ele>
        <time>2020-10-19T09:47:23Z</time>
      </trkpt>
      <trkpt lat="42.8359960" lon="-7.7241340">
        <ele>680.0</ele>
        <time>2020-10-19T09:47:24Z</time>
      </trkpt>
      <trkpt lat="42.8360010" lon="-7.7241510">
        <ele>680.0</ele>
        <time>2020-10-19T09:47:25Z</time>
      </trkpt>
      <trkpt lat="42.8360050" lon="-7.7241670">
        <ele>680.0</ele>
        <time>2020-10-19T09:47:26Z</time>
      </trkpt>
      <trkpt lat="42.8360100" lon="-7.7241840">
        <ele>680.0</ele>
        <time>2020-10-19T09:47:27Z</time>
      </trkpt>
      <trkpt lat="42.8360140" lon="-7.7242010">
        <ele>680.0</ele>
        <time>2020-10-19T09:47:28Z</time>
      </trkpt>
      <trkpt lat="42.8360180" lon="-7.7242170">
        <ele>680.1</ele>
        <time>2020-10-19T09:47:29Z</time>
      </trkpt>
      <trkpt lat="42.8360240" lon="-7.7242330">
        <ele>680.1</ele>
        <time>2020-10-19T09:47:30Z</time>
      </trkpt>
      <trkpt lat="42.8360310" lon="-7.7242490">
        <ele>680.1</ele>
        <time>2020-10-19T09:47:31Z</time>
      </trkpt>
      <trkpt lat="42.8360380" lon="-7.7242650">
        <ele>680.1</ele>
        <time>2020-10-19T09:47:32Z</time>
      </trkpt>
      <trkpt lat="42.8360440" lon="-7.7242820">
        <ele>680.1</ele>
        <time>2020-10-19T09:47:33Z</time>
      </trkpt>
      <trkpt lat="42.8360500" lon="-7.7242980">
        <ele>680.2</ele>
        <time>2020-10-19T09:47:34Z</time>
      </trkpt>
      <trkpt lat="42.8360580" lon="-7.7243130">
        <ele>680.2</ele>
        <time>2020-10-19T09:47:35Z</time>
      </trkpt>
      <trkpt lat="42.8360650" lon="-7.7243270">
        <ele>680.2</ele>
        <time>2020-10-19T09:47:36Z</time>
      </trkpt>
      <trkpt lat="42.8360720" lon="-7.7243400">
        <ele>680.2</ele>
        <time>2020-10-19T09:47:37Z</time>
      </trkpt>
      <trkpt lat="42.8360800" lon="-7.7243520">
        <ele>680.2</ele>
        <time>2020-10-19T09:47:38Z</time>
      </trkpt>
      <trkpt lat="42.8360890" lon="-7.7243630">
        <ele>680.3</ele>
        <time>2020-10-19T09:47:39Z</time>
      </trkpt>
      <trkpt lat="42.8361000" lon="-7.7243730">
        <ele>680.3</ele>
        <time>2020-10-19T09:47:40Z</time>
      </trkpt>
      <trkpt lat="42.8361110" lon="-7.7243810">
        <ele>680.3</ele>
        <time>2020-10-19T09:47:41Z</time>
      </trkpt>
      <trkpt lat="42.8361230" lon="-7.7243860">
        <ele>680.4</ele>
        <time>2020-10-19T09:47:42Z</time>
      </trkpt>
      <trkpt lat="42.8361350" lon="-7.7243890">
        <ele>680.4</ele>
        <time>2020-10-19T09:47:43Z</time>
      </trkpt>
      <trkpt lat="42.8361490" lon="-7.7243900">
        <ele>680.4</ele>
        <time>2020-10-19T09:47:44Z</time>
      </trkpt>
      <trkpt lat="42.8361600" lon="-7.7243930">
        <ele>680.4</ele>
        <time>2020-10-19T09:47:45Z</time>
      </trkpt>
      <trkpt lat="42.8361670" lon="-7.7243960">
        <ele>680.4</ele>
        <time>2020-10-19T09:47:46Z</time>
      </trkpt>
      <trkpt lat="42.8361700" lon="-7.7243980">
        <ele>680.4</ele>
        <time>2020-10-19T09:47:47Z</time>
      </trkpt>
      <trkpt lat="42.8361710" lon="-7.7244000">
        <ele>680.4</ele>
        <time>2020-10-19T09:47:48Z</time>
      </trkpt>
      <trkpt lat="42.8361710" lon="-7.7244000">
        <ele>680.4</ele>
        <time>2020-10-19T09:47:49Z</time>
      </trkpt>
      <trkpt lat="42.8361700" lon="-7.7244000">
        <ele>680.4</ele>
        <time>2020-10-19T09:47:50Z</time>
      </trkpt>
      <trkpt lat="42.8361700" lon="-7.7243990">
        <ele>680.4</ele>
        <time>2020-10-19T09:47:51Z</time>
      </trkpt>
      <trkpt lat="42.8361700" lon="-7.7243990">
        <ele>680.4</ele>
        <time>2020-10-19T09:47:52Z</time>
      </trkpt>
      <trkpt lat="42.8361720" lon="-7.7243980">
        <ele>680.4</ele>
        <time>2020-10-19T09:47:53Z</time>
      </trkpt>
      <trkpt lat="42.8361780" lon="-7.7243960">
        <ele>680.4</ele>
        <time>2020-10-19T09:47:54Z</time>
      </trkpt>
      <trkpt lat="42.8361870" lon="-7.7243900">
        <ele>680.4</ele>
        <time>2020-10-19T09:47:55Z</time>
      </trkpt>
      <trkpt lat="42.8361980" lon="-7.7243840">
        <ele>680.4</ele>
        <time>2020-10-19T09:47:56Z</time>
      </trkpt>
      <trkpt lat="42.8362100" lon="-7.7243810">
        <ele>680.6</ele>
        <time>2020-10-19T09:47:57Z</time>
      </trkpt>
      <trkpt lat="42.8362230" lon="-7.7243830">
        <ele>680.6</ele>
        <time>2020-10-19T09:47:58Z</time>
      </trkpt>
      <trkpt lat="42.8362350" lon="-7.7243900">
        <ele>680.7</ele>
        <time>2020-10-19T09:47:59Z</time>
      </trkpt>
      <trkpt lat="42.8362460" lon="-7.7244000">
        <ele>680.7</ele>
        <time>2020-10-19T09:48:00Z</time>
      </trkpt>
      <trkpt lat="42.8362550" lon="-7.7244110">
        <ele>680.7</ele>
        <time>2020-10-19T09:48:01Z</time>
      </trkpt>
      <trkpt lat="42.8362630" lon="-7.7244210">
        <ele>680.8</ele>
        <time>2020-10-19T09:48:02Z</time>
      </trkpt>
      <trkpt lat="42.8362690" lon="-7.7244330">
        <ele>680.8</ele>
        <time>2020-10-19T09:48:03Z</time>
      </trkpt>
      <trkpt lat="42.8362760" lon="-7.7244470">
        <ele>680.8</ele>
        <time>2020-10-19T09:48:04Z</time>
      </trkpt>
      <trkpt lat="42.8362820" lon="-7.7244610">
        <ele>680.8</ele>
        <time>2020-10-19T09:48:05Z</time>
      </trkpt>
      <trkpt lat="42.8362880" lon="-7.7244750">
        <ele>680.9</ele>
        <time>2020-10-19T09:48:06Z</time>
      </trkpt>
      <trkpt lat="42.8362940" lon="-7.7244880">
        <ele>680.9</ele>
        <time>2020-10-19T09:48:07Z</time>
      </trkpt>
      <trkpt lat="42.8363000" lon="-7.7245000">
        <ele>680.9</ele>
        <time>2020-10-19T09:48:08Z</time>
      </trkpt>
      <trkpt lat="42.8363060" lon="-7.7245140">
        <ele>680.9</ele>
        <time>2020-10-19T09:48:09Z</time>
      </trkpt>
      <trkpt lat="42.8363120" lon="-7.7245260">
        <ele>681.0</ele>
        <time>2020-10-19T09:48:10Z</time>
      </trkpt>
      <trkpt lat="42.8363180" lon="-7.7245390">
        <ele>681.0</ele>
        <time>2020-10-19T09:48:11Z</time>
      </trkpt>
      <trkpt lat="42.8363240" lon="-7.7245520">
        <ele>681.0</ele>
        <time>2020-10-19T09:48:12Z</time>
      </trkpt>
      <trkpt lat="42.8363310" lon="-7.7245640">
        <ele>681.0</ele>
        <time>2020-10-19T09:48:13Z</time>
      </trkpt>
      <trkpt lat="42.8363380" lon="-7.7245750">
        <ele>681.0</ele>
        <time>2020-10-19T09:48:14Z</time>
      </trkpt>
      <trkpt lat="42.8363460" lon="-7.7245850">
        <ele>681.0</ele>
        <time>2020-10-19T09:48:15Z</time>
      </trkpt>
      <trkpt lat="42.8363560" lon="-7.7245930">
        <ele>681.1</ele>
        <time>2020-10-19T09:48:16Z</time>
      </trkpt>
      <trkpt lat="42.8363670" lon="-7.7246020">
        <ele>681.1</ele>
        <time>2020-10-19T09:48:17Z</time>
      </trkpt>
      <trkpt lat="42.8363780" lon="-7.7246100">
        <ele>681.1</ele>
        <time>2020-10-19T09:48:18Z</time>
      </trkpt>
      <trkpt lat="42.8363880" lon="-7.7246210">
        <ele>681.1</ele>
        <time>2020-10-19T09:48:19Z</time>
      </trkpt>
      <trkpt lat="42.8363970" lon="-7.7246340">
        <ele>681.1</ele>
        <time>2020-10-19T09:48:20Z</time>
      </trkpt>
      <trkpt lat="42.8364050" lon="-7.7246490">
        <ele>681.1</ele>
        <time>2020-10-19T09:48:21Z</time>
      </trkpt>
      <trkpt lat="42.8364120" lon="-7.7246630">
        <ele>681.1</ele>
        <time>2020-10-19T09:48:22Z</time>
      </trkpt>
      <trkpt lat="42.8364180" lon="-7.7246770">
        <ele>681.1</ele>
        <time>2020-10-19T09:48:23Z</time>
      </trkpt>
      <trkpt lat="42.8364230" lon="-7.7246920">
        <ele>681.1</ele>
        <time>2020-10-19T09:48:24Z</time>
      </trkpt>
      <trkpt lat="42.8364260" lon="-7.7247080">
        <ele>681.1</ele>
        <time>2020-10-19T09:48:25Z</time>
      </trkpt>
      <trkpt lat="42.8364300" lon="-7.7247240">
        <ele>681.1</ele>
        <time>2020-10-19T09:48:26Z</time>
      </trkpt>
      <trkpt lat="42.8364340" lon="-7.7247400">
        <ele>681.1</ele>
        <time>2020-10-19T09:48:27Z</time>
      </trkpt>
      <trkpt lat="42.8364390" lon="-7.7247550">
        <ele>681.1</ele>
        <time>2020-10-19T09:48:28Z</time>
      </trkpt>
      <trkpt lat="42.8364440" lon="-7.7247700">
        <ele>681.1</ele>
        <time>2020-10-19T09:48:29Z</time>
      </trkpt>
      <trkpt lat="42.8364490" lon="-7.7247850">
        <ele>681.1</ele>
        <time>2020-10-19T09:48:30Z</time>
      </trkpt>
      <trkpt lat="42.8364540" lon="-7.7248010">
        <ele>681.1</ele>
        <time>2020-10-19T09:48:31Z</time>
      </trkpt>
      <trkpt lat="42.8364580" lon="-7.7248180">
        <ele>681.1</ele>
        <time>2020-10-19T09:48:32Z</time>
      </trkpt>
      <trkpt lat="42.8364620" lon="-7.7248350">
        <ele>681.1</ele>
        <time>2020-10-19T09:48:33Z</time>
      </trkpt>
      <trkpt lat="42.8364670" lon="-7.7248530">
        <ele>681.1</ele>
        <time>2020-10-19T09:48:34Z</time>
      </trkpt>
      <trkpt lat="42.8364730" lon="-7.7248710">
        <ele>681.1</ele>
        <time>2020-10-19T09:48:35Z</time>
      </trkpt>
      <trkpt lat="42.8364780" lon="-7.7248910">
        <ele>681.1</ele>
        <time>2020-10-19T09:48:36Z</time>
      </trkpt>
      <trkpt lat="42.8364830" lon="-7.7249090">
        <ele>681.1</ele>
        <time>2020-10-19T09:48:37Z</time>
      </trkpt>
      <trkpt lat="42.8364870" lon="-7.7249270">
        <ele>681.1</ele>
        <time>2020-10-19T09:48:38Z</time>
      </trkpt>
      <trkpt lat="42.8364920" lon="-7.7249440">
        <ele>681.1</ele>
        <time>2020-10-19T09:48:39Z</time>
      </trkpt>
      <trkpt lat="42.8364970" lon="-7.7249620">
        <ele>681.1</ele>
        <time>2020-10-19T09:48:40Z</time>
      </trkpt>
      <trkpt lat="42.8365020" lon="-7.7249800">
        <ele>681.1</ele>
        <time>2020-10-19T09:48:41Z</time>
      </trkpt>
      <trkpt lat="42.8365070" lon="-7.7249960">
        <ele>681.1</ele>
        <time>2020-10-19T09:48:42Z</time>
      </trkpt>
      <trkpt lat="42.8365130" lon="-7.7250130">
        <ele>681.1</ele>
        <time>2020-10-19T09:48:43Z</time>
      </trkpt>
      <trkpt lat="42.8365190" lon="-7.7250280">
        <ele>681.1</ele>
        <time>2020-10-19T09:48:44Z</time>
      </trkpt>
      <trkpt lat="42.8365250" lon="-7.7250440">
        <ele>681.1</ele>
        <time>2020-10-19T09:48:45Z</time>
      </trkpt>
      <trkpt lat="42.8365320" lon="-7.7250600">
        <ele>681.1</ele>
        <time>2020-10-19T09:48:46Z</time>
      </trkpt>
      <trkpt lat="42.8365380" lon="-7.7250760">
        <ele>681.1</ele>
        <time>2020-10-19T09:48:47Z</time>
      </trkpt>
      <trkpt lat="42.8365440" lon="-7.7250920">
        <ele>681.1</ele>
        <time>2020-10-19T09:48:48Z</time>
      </trkpt>
      <trkpt lat="42.8365510" lon="-7.7251070">
        <ele>681.1</ele>
        <time>2020-10-19T09:48:49Z</time>
      </trkpt>
      <trkpt lat="42.8365570" lon="-7.7251220">
        <ele>681.1</ele>
        <time>2020-10-19T09:48:50Z</time>
      </trkpt>
      <trkpt lat="42.8365650" lon="-7.7251360">
        <ele>681.1</ele>
        <time>2020-10-19T09:48:51Z</time>
      </trkpt>
      <trkpt lat="42.8365720" lon="-7.7251520">
        <ele>681.1</ele>
        <time>2020-10-19T09:48:52Z</time>
      </trkpt>
      <trkpt lat="42.8365790" lon="-7.7251690">
        <ele>681.1</ele>
        <time>2020-10-19T09:48:53Z</time>
      </trkpt>
      <trkpt lat="42.8365840" lon="-7.7251860">
        <ele>681.1</ele>
        <time>2020-10-19T09:48:54Z</time>
      </trkpt>
      <trkpt lat="42.8365890" lon="-7.7252020">
        <ele>681.1</ele>
        <time>2020-10-19T09:48:55Z</time>
      </trkpt>
      <trkpt lat="42.8365940" lon="-7.7252170">
        <ele>681.1</ele>
        <time>2020-10-19T09:48:56Z</time>
      </trkpt>
      <trkpt lat="42.8366000" lon="-7.7252330">
        <ele>681.1</ele>
        <time>2020-10-19T09:48:57Z</time>
      </trkpt>
      <trkpt lat="42.8366050" lon="-7.7252490">
        <ele>681.1</ele>
        <time>2020-10-19T09:48:58Z</time>
      </trkpt>
      <trkpt lat="42.8366100" lon="-7.7252660">
        <ele>681.1</ele>
        <time>2020-10-19T09:48:59Z</time>
      </trkpt>
      <trkpt lat="42.8366150" lon="-7.7252820">
        <ele>681.1</ele>
        <time>2020-10-19T09:49:00Z</time>
      </trkpt>
      <trkpt lat="42.8366210" lon="-7.7252980">
        <ele>681.1</ele>
        <time>2020-10-19T09:49:01Z</time>
      </trkpt>
      <trkpt lat="42.8366260" lon="-7.7253140">
        <ele>681.1</ele>
        <time>2020-10-19T09:49:02Z</time>
      </trkpt>
      <trkpt lat="42.8366310" lon="-7.7253300">
        <ele>681.1</ele>
        <time>2020-10-19T09:49:03Z</time>
      </trkpt>
      <trkpt lat="42.8366360" lon="-7.7253470">
        <ele>681.1</ele>
        <time>2020-10-19T09:49:04Z</time>
      </trkpt>
      <trkpt lat="42.8366410" lon="-7.7253640">
        <ele>681.1</ele>
        <time>2020-10-19T09:49:05Z</time>
      </trkpt>
      <trkpt lat="42.8366470" lon="-7.7253810">
        <ele>681.1</ele>
        <time>2020-10-19T09:49:06Z</time>
      </trkpt>
      <trkpt lat="42.8366530" lon="-7.7253970">
        <ele>681.1</ele>
        <time>2020-10-19T09:49:07Z</time>
      </trkpt>
      <trkpt lat="42.8366600" lon="-7.7254120">
        <ele>681.1</ele>
        <time>2020-10-19T09:49:08Z</time>
      </trkpt>
      <trkpt lat="42.8366660" lon="-7.7254280">
        <ele>681.1</ele>
        <time>2020-10-19T09:49:09Z</time>
      </trkpt>
      <trkpt lat="42.8366710" lon="-7.7254440">
        <ele>681.1</ele>
        <time>2020-10-19T09:49:10Z</time>
      </trkpt>
      <trkpt lat="42.8366760" lon="-7.7254610">
        <ele>681.1</ele>
        <time>2020-10-19T09:49:11Z</time>
      </trkpt>
      <trkpt lat="42.8366800" lon="-7.7254790">
        <ele>681.2</ele>
        <time>2020-10-19T09:49:12Z</time>
      </trkpt>
      <trkpt lat="42.8366850" lon="-7.7254960">
        <ele>681.2</ele>
        <time>2020-10-19T09:49:13Z</time>
      </trkpt>
      <trkpt lat="42.8366900" lon="-7.7255130">
        <ele>681.2</ele>
        <time>2020-10-19T09:49:14Z</time>
      </trkpt>
      <trkpt lat="42.8366950" lon="-7.7255300">
        <ele>681.2</ele>
        <time>2020-10-19T09:49:15Z</time>
      </trkpt>
      <trkpt lat="42.8367000" lon="-7.7255460">
        <ele>681.2</ele>
        <time>2020-10-19T09:49:16Z</time>
      </trkpt>
      <trkpt lat="42.8367060" lon="-7.7255630">
        <ele>681.2</ele>
        <time>2020-10-19T09:49:17Z</time>
      </trkpt>
      <trkpt lat="42.8367110" lon="-7.7255800">
        <ele>681.2</ele>
        <time>2020-10-19T09:49:18Z</time>
      </trkpt>
      <trkpt lat="42.8367160" lon="-7.7255960">
        <ele>681.2</ele>
        <time>2020-10-19T09:49:19Z</time>
      </trkpt>
      <trkpt lat="42.8367210" lon="-7.7256120">
        <ele>681.2</ele>
        <time>2020-10-19T09:49:20Z</time>
      </trkpt>
      <trkpt lat="42.8367260" lon="-7.7256290">
        <ele>681.2</ele>
        <time>2020-10-19T09:49:21Z</time>
      </trkpt>
      <trkpt lat="42.8367310" lon="-7.7256460">
        <ele>681.2</ele>
        <time>2020-10-19T09:49:22Z</time>
      </trkpt>
      <trkpt lat="42.8367350" lon="-7.7256640">
        <ele>681.2</ele>
        <time>2020-10-19T09:49:23Z</time>
      </trkpt>
      <trkpt lat="42.8367390" lon="-7.7256800">
        <ele>681.2</ele>
        <time>2020-10-19T09:49:24Z</time>
      </trkpt>
      <trkpt lat="42.8367440" lon="-7.7256970">
        <ele>681.2</ele>
        <time>2020-10-19T09:49:25Z</time>
      </trkpt>
      <trkpt lat="42.8367490" lon="-7.7257130">
        <ele>681.2</ele>
        <time>2020-10-19T09:49:26Z</time>
      </trkpt>
      <trkpt lat="42.8367540" lon="-7.7257290">
        <ele>681.2</ele>
        <time>2020-10-19T09:49:27Z</time>
      </trkpt>
      <trkpt lat="42.8367590" lon="-7.7257450">
        <ele>681.2</ele>
        <time>2020-10-19T09:49:28Z</time>
      </trkpt>
      <trkpt lat="42.8367630" lon="-7.7257610">
        <ele>681.2</ele>
        <time>2020-10-19T09:49:29Z</time>
      </trkpt>
      <trkpt lat="42.8367680" lon="-7.7257770">
        <ele>681.2</ele>
        <time>2020-10-19T09:49:30Z</time>
      </trkpt>
      <trkpt lat="42.8367730" lon="-7.7257930">
        <ele>681.2</ele>
        <time>2020-10-19T09:49:31Z</time>
      </trkpt>
      <trkpt lat="42.8367780" lon="-7.7258080">
        <ele>681.2</ele>
        <time>2020-10-19T09:49:32Z</time>
      </trkpt>
      <trkpt lat="42.8367840" lon="-7.7258230">
        <ele>681.2</ele>
        <time>2020-10-19T09:49:33Z</time>
      </trkpt>
      <trkpt lat="42.8367890" lon="-7.7258390">
        <ele>681.2</ele>
        <time>2020-10-19T09:49:34Z</time>
      </trkpt>
      <trkpt lat="42.8367940" lon="-7.7258530">
        <ele>681.2</ele>
        <time>2020-10-19T09:49:35Z</time>
      </trkpt>
      <trkpt lat="42.8367990" lon="-7.7258680">
        <ele>681.2</ele>
        <time>2020-10-19T09:49:36Z</time>
      </trkpt>
      <trkpt lat="42.8368050" lon="-7.7258820">
        <ele>681.3</ele>
        <time>2020-10-19T09:49:37Z</time>
      </trkpt>
      <trkpt lat="42.8368090" lon="-7.7258970">
        <ele>681.3</ele>
        <time>2020-10-19T09:49:38Z</time>
      </trkpt>
      <trkpt lat="42.8368140" lon="-7.7259120">
        <ele>681.3</ele>
        <time>2020-10-19T09:49:39Z</time>
      </trkpt>
      <trkpt lat="42.8368170" lon="-7.7259280">
        <ele>681.3</ele>
        <time>2020-10-19T09:49:40Z</time>
      </trkpt>
      <trkpt lat="42.8368220" lon="-7.7259430">
        <ele>681.3</ele>
        <time>2020-10-19T09:49:41Z</time>
      </trkpt>
      <trkpt lat="42.8368270" lon="-7.7259570">
        <ele>681.3</ele>
        <time>2020-10-19T09:49:42Z</time>
      </trkpt>
      <trkpt lat="42.8368320" lon="-7.7259710">
        <ele>681.3</ele>
        <time>2020-10-19T09:49:43Z</time>
      </trkpt>
      <trkpt lat="42.8368380" lon="-7.7259860">
        <ele>681.3</ele>
        <time>2020-10-19T09:49:44Z</time>
      </trkpt>
      <trkpt lat="42.8368430" lon="-7.7260010">
        <ele>681.3</ele>
        <time>2020-10-19T09:49:45Z</time>
      </trkpt>
      <trkpt lat="42.8368480" lon="-7.7260160">
        <ele>681.3</ele>
        <time>2020-10-19T09:49:46Z</time>
      </trkpt>
      <trkpt lat="42.8368530" lon="-7.7260310">
        <ele>681.3</ele>
        <time>2020-10-19T09:49:47Z</time>
      </trkpt>
      <trkpt lat="42.8368580" lon="-7.7260460">
        <ele>681.3</ele>
        <time>2020-10-19T09:49:48Z</time>
      </trkpt>
      <trkpt lat="42.8368630" lon="-7.7260610">
        <ele>681.3</ele>
        <time>2020-10-19T09:49:49Z</time>
      </trkpt>
      <trkpt lat="42.8368680" lon="-7.7260770">
        <ele>681.3</ele>
        <time>2020-10-19T09:49:50Z</time>
      </trkpt>
      <trkpt lat="42.8368720" lon="-7.7260920">
        <ele>681.4</ele>
        <time>2020-10-19T09:49:51Z</time>
      </trkpt>
      <trkpt lat="42.8368760" lon="-7.7261080">
        <ele>681.4</ele>
        <time>2020-10-19T09:49:52Z</time>
      </trkpt>
      <trkpt lat="42.8368790" lon="-7.7261230">
        <ele>681.4</ele>
        <time>2020-10-19T09:49:53Z</time>
      </trkpt>
      <trkpt lat="42.8368840" lon="-7.7261370">
        <ele>681.4</ele>
        <time>2020-10-19T09:49:54Z</time>
      </trkpt>
      <trkpt lat="42.8368880" lon="-7.7261520">
        <ele>681.4</ele>
        <time>2020-10-19T09:49:55Z</time>
      </trkpt>
      <trkpt lat="42.8368940" lon="-7.7261660">
        <ele>681.4</ele>
        <time>2020-10-19T09:49:56Z</time>
      </trkpt>
      <trkpt lat="42.8369000" lon="-7.7261790">
        <ele>681.4</ele>
        <time>2020-10-19T09:49:57Z</time>
      </trkpt>
      <trkpt lat="42.8369040" lon="-7.7261940">
        <ele>681.4</ele>
        <time>2020-10-19T09:49:58Z</time>
      </trkpt>
      <trkpt lat="42.8369080" lon="-7.7262090">
        <ele>681.4</ele>
        <time>2020-10-19T09:49:59Z</time>
      </trkpt>
      <trkpt lat="42.8369120" lon="-7.7262240">
        <ele>681.4</ele>
        <time>2020-10-19T09:50:00Z</time>
      </trkpt>
      <trkpt lat="42.8369150" lon="-7.7262380">
        <ele>681.4</ele>
        <time>2020-10-19T09:50:01Z</time>
      </trkpt>
      <trkpt lat="42.8369190" lon="-7.7262520">
        <ele>681.4</ele>
        <time>2020-10-19T09:50:02Z</time>
      </trkpt>
      <trkpt lat="42.8369230" lon="-7.7262660">
        <ele>681.4</ele>
        <time>2020-10-19T09:50:03Z</time>
      </trkpt>
      <trkpt lat="42.8369270" lon="-7.7262800">
        <ele>681.4</ele>
        <time>2020-10-19T09:50:04Z</time>
      </trkpt>
      <trkpt lat="42.8369310" lon="-7.7262940">
        <ele>681.4</ele>
        <time>2020-10-19T09:50:05Z</time>
      </trkpt>
      <trkpt lat="42.8369360" lon="-7.7263080">
        <ele>681.4</ele>
        <time>2020-10-19T09:50:06Z</time>
      </trkpt>
      <trkpt lat="42.8369420" lon="-7.7263220">
        <ele>681.4</ele>
        <time>2020-10-19T09:50:07Z</time>
      </trkpt>
      <trkpt lat="42.8369470" lon="-7.7263360">
        <ele>681.4</ele>
        <time>2020-10-19T09:50:08Z</time>
      </trkpt>
      <trkpt lat="42.8369510" lon="-7.7263510">
        <ele>681.5</ele>
        <time>2020-10-19T09:50:09Z</time>
      </trkpt>
      <trkpt lat="42.8369560" lon="-7.7263650">
        <ele>681.5</ele>
        <time>2020-10-19T09:50:10Z</time>
      </trkpt>
      <trkpt lat="42.8369610" lon="-7.7263800">
        <ele>681.5</ele>
        <time>2020-10-19T09:50:11Z</time>
      </trkpt>
      <trkpt lat="42.8369660" lon="-7.7263960">
        <ele>681.5</ele>
        <time>2020-10-19T09:50:12Z</time>
      </trkpt>
      <trkpt lat="42.8369700" lon="-7.7264100">
        <ele>681.5</ele>
        <time>2020-10-19T09:50:13Z</time>
      </trkpt>
      <trkpt lat="42.8369740" lon="-7.7264250">
        <ele>681.5</ele>
        <time>2020-10-19T09:50:14Z</time>
      </trkpt>
      <trkpt lat="42.8369790" lon="-7.7264390">
        <ele>681.5</ele>
        <time>2020-10-19T09:50:15Z</time>
      </trkpt>
      <trkpt lat="42.8369840" lon="-7.7264530">
        <ele>681.5</ele>
        <time>2020-10-19T09:50:16Z</time>
      </trkpt>
      <trkpt lat="42.8369890" lon="-7.7264660">
        <ele>681.5</ele>
        <time>2020-10-19T09:50:17Z</time>
      </trkpt>
      <trkpt lat="42.8369940" lon="-7.7264800">
        <ele>681.5</ele>
        <time>2020-10-19T09:50:18Z</time>
      </trkpt>
      <trkpt lat="42.8369980" lon="-7.7264940">
        <ele>681.5</ele>
        <time>2020-10-19T09:50:19Z</time>
      </trkpt>
      <trkpt lat="42.8370020" lon="-7.7265090">
        <ele>681.5</ele>
        <time>2020-10-19T09:50:20Z</time>
      </trkpt>
      <trkpt lat="42.8370070" lon="-7.7265230">
        <ele>681.6</ele>
        <time>2020-10-19T09:50:21Z</time>
      </trkpt>
      <trkpt lat="42.8370130" lon="-7.7265370">
        <ele>681.6</ele>
        <time>2020-10-19T09:50:22Z</time>
      </trkpt>
      <trkpt lat="42.8370180" lon="-7.7265500">
        <ele>681.6</ele>
        <time>2020-10-19T09:50:23Z</time>
      </trkpt>
      <trkpt lat="42.8370240" lon="-7.7265640">
        <ele>681.6</ele>
        <time>2020-10-19T09:50:24Z</time>
      </trkpt>
      <trkpt lat="42.8370290" lon="-7.7265780">
        <ele>681.6</ele>
        <time>2020-10-19T09:50:25Z</time>
      </trkpt>
      <trkpt lat="42.8370340" lon="-7.7265920">
        <ele>681.6</ele>
        <time>2020-10-19T09:50:26Z</time>
      </trkpt>
      <trkpt lat="42.8370380" lon="-7.7266050">
        <ele>681.6</ele>
        <time>2020-10-19T09:50:27Z</time>
      </trkpt>
      <trkpt lat="42.8370430" lon="-7.7266190">
        <ele>681.6</ele>
        <time>2020-10-19T09:50:28Z</time>
      </trkpt>
      <trkpt lat="42.8370480" lon="-7.7266340">
        <ele>681.6</ele>
        <time>2020-10-19T09:50:29Z</time>
      </trkpt>
      <trkpt lat="42.8370520" lon="-7.7266480">
        <ele>681.7</ele>
        <time>2020-10-19T09:50:30Z</time>
      </trkpt>
      <trkpt lat="42.8370570" lon="-7.7266630">
        <ele>681.7</ele>
        <time>2020-10-19T09:50:31Z</time>
      </trkpt>
      <trkpt lat="42.8370620" lon="-7.7266780">
        <ele>681.7</ele>
        <time>2020-10-19T09:50:32Z</time>
      </trkpt>
      <trkpt lat="42.8370670" lon="-7.7266920">
        <ele>681.7</ele>
        <time>2020-10-19T09:50:33Z</time>
      </trkpt>
      <trkpt lat="42.8370710" lon="-7.7267070">
        <ele>681.7</ele>
        <time>2020-10-19T09:50:34Z</time>
      </trkpt>
      <trkpt lat="42.8370760" lon="-7.7267210">
        <ele>681.7</ele>
        <time>2020-10-19T09:50:35Z</time>
      </trkpt>
      <trkpt lat="42.8370810" lon="-7.7267360">
        <ele>681.8</ele>
        <time>2020-10-19T09:50:36Z</time>
      </trkpt>
      <trkpt lat="42.8370850" lon="-7.7267510">
        <ele>681.8</ele>
        <time>2020-10-19T09:50:37Z</time>
      </trkpt>
      <trkpt lat="42.8370890" lon="-7.7267650">
        <ele>681.8</ele>
        <time>2020-10-19T09:50:38Z</time>
      </trkpt>
      <trkpt lat="42.8370930" lon="-7.7267790">
        <ele>681.8</ele>
        <time>2020-10-19T09:50:39Z</time>
      </trkpt>
      <trkpt lat="42.8370970" lon="-7.7267930">
        <ele>681.8</ele>
        <time>2020-10-19T09:50:40Z</time>
      </trkpt>
      <trkpt lat="42.8371010" lon="-7.7268080">
        <ele>681.8</ele>
        <time>2020-10-19T09:50:41Z</time>
      </trkpt>
      <trkpt lat="42.8371050" lon="-7.7268220">
        <ele>681.9</ele>
        <time>2020-10-19T09:50:42Z</time>
      </trkpt>
      <trkpt lat="42.8371100" lon="-7.7268360">
        <ele>681.9</ele>
        <time>2020-10-19T09:50:43Z</time>
      </trkpt>
      <trkpt lat="42.8371160" lon="-7.7268500">
        <ele>681.9</ele>
        <time>2020-10-19T09:50:44Z</time>
      </trkpt>
      <trkpt lat="42.8371210" lon="-7.7268640">
        <ele>681.9</ele>
        <time>2020-10-19T09:50:45Z</time>
      </trkpt>
      <trkpt lat="42.8371270" lon="-7.7268770">
        <ele>681.9</ele>
        <time>2020-10-19T09:50:46Z</time>
      </trkpt>
      <trkpt lat="42.8371320" lon="-7.7268900">
        <ele>682.0</ele>
        <time>2020-10-19T09:50:47Z</time>
      </trkpt>
      <trkpt lat="42.8371370" lon="-7.7269030">
        <ele>682.0</ele>
        <time>2020-10-19T09:50:48Z</time>
      </trkpt>
      <trkpt lat="42.8371420" lon="-7.7269170">
        <ele>682.0</ele>
        <time>2020-10-19T09:50:49Z</time>
      </trkpt>
      <trkpt lat="42.8371460" lon="-7.7269310">
        <ele>682.0</ele>
        <time>2020-10-19T09:50:50Z</time>
      </trkpt>
      <trkpt lat="42.8371510" lon="-7.7269460">
        <ele>682.1</ele>
        <time>2020-10-19T09:50:51Z</time>
      </trkpt>
      <trkpt lat="42.8371560" lon="-7.7269600">
        <ele>682.1</ele>
        <time>2020-10-19T09:50:52Z</time>
      </trkpt>
      <trkpt lat="42.8371600" lon="-7.7269740">
        <ele>682.1</ele>
        <time>2020-10-19T09:50:53Z</time>
      </trkpt>
      <trkpt lat="42.8371650" lon="-7.7269880">
        <ele>682.1</ele>
        <time>2020-10-19T09:50:54Z</time>
      </trkpt>
      <trkpt lat="42.8371700" lon="-7.7270030">
        <ele>682.2</ele>
        <time>2020-10-19T09:50:55Z</time>
      </trkpt>
      <trkpt lat="42.8371730" lon="-7.7270180">
        <ele>682.2</ele>
        <time>2020-10-19T09:50:56Z</time>
      </trkpt>
      <trkpt lat="42.8371770" lon="-7.7270320">
        <ele>682.2</ele>
        <time>2020-10-19T09:50:57Z</time>
      </trkpt>
      <trkpt lat="42.8371810" lon="-7.7270470">
        <ele>682.2</ele>
        <time>2020-10-19T09:50:58Z</time>
      </trkpt>
      <trkpt lat="42.8371860" lon="-7.7270620">
        <ele>682.3</ele>
        <time>2020-10-19T09:50:59Z</time>
      </trkpt>
      <trkpt lat="42.8371900" lon="-7.7270780">
        <ele>682.3</ele>
        <time>2020-10-19T09:51:00Z</time>
      </trkpt>
      <trkpt lat="42.8371950" lon="-7.7270920">
        <ele>682.3</ele>
        <time>2020-10-19T09:51:01Z</time>
      </trkpt>
      <trkpt lat="42.8372000" lon="-7.7271060">
        <ele>682.3</ele>
        <time>2020-10-19T09:51:02Z</time>
      </trkpt>
      <trkpt lat="42.8372050" lon="-7.7271210">
        <ele>682.4</ele>
        <time>2020-10-19T09:51:03Z</time>
      </trkpt>
      <trkpt lat="42.8372100" lon="-7.7271360">
        <ele>682.4</ele>
        <time>2020-10-19T09:51:04Z</time>
      </trkpt>
      <trkpt lat="42.8372150" lon="-7.7271510">
        <ele>682.4</ele>
        <time>2020-10-19T09:51:05Z</time>
      </trkpt>
      <trkpt lat="42.8372200" lon="-7.7271660">
        <ele>682.4</ele>
        <time>2020-10-19T09:51:06Z</time>
      </trkpt>
      <trkpt lat="42.8372250" lon="-7.7271800">
        <ele>682.5</ele>
        <time>2020-10-19T09:51:07Z</time>
      </trkpt>
      <trkpt lat="42.8372290" lon="-7.7271950">
        <ele>682.5</ele>
        <time>2020-10-19T09:51:08Z</time>
      </trkpt>
      <trkpt lat="42.8372330" lon="-7.7272100">
        <ele>682.5</ele>
        <time>2020-10-19T09:51:09Z</time>
      </trkpt>
      <trkpt lat="42.8372380" lon="-7.7272250">
        <ele>682.5</ele>
        <time>2020-10-19T09:51:10Z</time>
      </trkpt>
      <trkpt lat="42.8372420" lon="-7.7272400">
        <ele>682.5</ele>
        <time>2020-10-19T09:51:11Z</time>
      </trkpt>
      <trkpt lat="42.8372470" lon="-7.7272550">
        <ele>682.6</ele>
        <time>2020-10-19T09:51:12Z</time>
      </trkpt>
      <trkpt lat="42.8372520" lon="-7.7272700">
        <ele>682.6</ele>
        <time>2020-10-19T09:51:13Z</time>
      </trkpt>
      <trkpt lat="42.8372580" lon="-7.7272840">
        <ele>682.6</ele>
        <time>2020-10-19T09:51:14Z</time>
      </trkpt>
      <trkpt lat="42.8372630" lon="-7.7272990">
        <ele>682.6</ele>
        <time>2020-10-19T09:51:15Z</time>
      </trkpt>
      <trkpt lat="42.8372670" lon="-7.7273130">
        <ele>682.7</ele>
        <time>2020-10-19T09:51:16Z</time>
      </trkpt>
      <trkpt lat="42.8372710" lon="-7.7273280">
        <ele>682.7</ele>
        <time>2020-10-19T09:51:17Z</time>
      </trkpt>
      <trkpt lat="42.8372750" lon="-7.7273420">
        <ele>682.7</ele>
        <time>2020-10-19T09:51:18Z</time>
      </trkpt>
      <trkpt lat="42.8372790" lon="-7.7273570">
        <ele>682.7</ele>
        <time>2020-10-19T09:51:19Z</time>
      </trkpt>
      <trkpt lat="42.8372840" lon="-7.7273720">
        <ele>682.7</ele>
        <time>2020-10-19T09:51:20Z</time>
      </trkpt>
      <trkpt lat="42.8372880" lon="-7.7273860">
        <ele>682.7</ele>
        <time>2020-10-19T09:51:21Z</time>
      </trkpt>
      <trkpt lat="42.8372930" lon="-7.7274000">
        <ele>682.8</ele>
        <time>2020-10-19T09:51:22Z</time>
      </trkpt>
      <trkpt lat="42.8372960" lon="-7.7274140">
        <ele>682.8</ele>
        <time>2020-10-19T09:51:23Z</time>
      </trkpt>
      <trkpt lat="42.8373010" lon="-7.7274280">
        <ele>682.8</ele>
        <time>2020-10-19T09:51:24Z</time>
      </trkpt>
      <trkpt lat="42.8373050" lon="-7.7274420">
        <ele>682.8</ele>
        <time>2020-10-19T09:51:25Z</time>
      </trkpt>
      <trkpt lat="42.8373100" lon="-7.7274570">
        <ele>682.9</ele>
        <time>2020-10-19T09:51:26Z</time>
      </trkpt>
      <trkpt lat="42.8373150" lon="-7.7274710">
        <ele>682.9</ele>
        <time>2020-10-19T09:51:27Z</time>
      </trkpt>
      <trkpt lat="42.8373210" lon="-7.7274850">
        <ele>682.9</ele>
        <time>2020-10-19T09:51:28Z</time>
      </trkpt>
      <trkpt lat="42.8373260" lon="-7.7275000">
        <ele>683.0</ele>
        <time>2020-10-19T09:51:29Z</time>
      </trkpt>
      <trkpt lat="42.8373300" lon="-7.7275140">
        <ele>683.0</ele>
        <time>2020-10-19T09:51:30Z</time>
      </trkpt>
      <trkpt lat="42.8373340" lon="-7.7275290">
        <ele>683.0</ele>
        <time>2020-10-19T09:51:31Z</time>
      </trkpt>
      <trkpt lat="42.8373390" lon="-7.7275420">
        <ele>683.0</ele>
        <time>2020-10-19T09:51:32Z</time>
      </trkpt>
      <trkpt lat="42.8373450" lon="-7.7275550">
        <ele>683.1</ele>
        <time>2020-10-19T09:51:33Z</time>
      </trkpt>
      <trkpt lat="42.8373520" lon="-7.7275700">
        <ele>683.1</ele>
        <time>2020-10-19T09:51:34Z</time>
      </trkpt>
      <trkpt lat="42.8373570" lon="-7.7275840">
        <ele>683.1</ele>
        <time>2020-10-19T09:51:35Z</time>
      </trkpt>
      <trkpt lat="42.8373620" lon="-7.7275990">
        <ele>683.1</ele>
        <time>2020-10-19T09:51:36Z</time>
      </trkpt>
      <trkpt lat="42.8373670" lon="-7.7276130">
        <ele>683.2</ele>
        <time>2020-10-19T09:51:37Z</time>
      </trkpt>
      <trkpt lat="42.8373730" lon="-7.7276270">
        <ele>683.2</ele>
        <time>2020-10-19T09:51:38Z</time>
      </trkpt>
      <trkpt lat="42.8373780" lon="-7.7276410">
        <ele>683.2</ele>
        <time>2020-10-19T09:51:39Z</time>
      </trkpt>
      <trkpt lat="42.8373820" lon="-7.7276550">
        <ele>683.2</ele>
        <time>2020-10-19T09:51:40Z</time>
      </trkpt>
      <trkpt lat="42.8373870" lon="-7.7276690">
        <ele>683.3</ele>
        <time>2020-10-19T09:51:41Z</time>
      </trkpt>
      <trkpt lat="42.8373920" lon="-7.7276840">
        <ele>683.3</ele>
        <time>2020-10-19T09:51:42Z</time>
      </trkpt>
      <trkpt lat="42.8373960" lon="-7.7276990">
        <ele>683.3</ele>
        <time>2020-10-19T09:51:43Z</time>
      </trkpt>
      <trkpt lat="42.8374000" lon="-7.7277150">
        <ele>683.3</ele>
        <time>2020-10-19T09:51:44Z</time>
      </trkpt>
      <trkpt lat="42.8374030" lon="-7.7277300">
        <ele>683.4</ele>
        <time>2020-10-19T09:51:45Z</time>
      </trkpt>
      <trkpt lat="42.8374080" lon="-7.7277440">
        <ele>683.4</ele>
        <time>2020-10-19T09:51:46Z</time>
      </trkpt>
      <trkpt lat="42.8374130" lon="-7.7277590">
        <ele>683.4</ele>
        <time>2020-10-19T09:51:47Z</time>
      </trkpt>
      <trkpt lat="42.8374180" lon="-7.7277750">
        <ele>683.5</ele>
        <time>2020-10-19T09:51:48Z</time>
      </trkpt>
      <trkpt lat="42.8374240" lon="-7.7277900">
        <ele>683.5</ele>
        <time>2020-10-19T09:51:49Z</time>
      </trkpt>
      <trkpt lat="42.8374280" lon="-7.7278050">
        <ele>683.5</ele>
        <time>2020-10-19T09:51:50Z</time>
      </trkpt>
      <trkpt lat="42.8374330" lon="-7.7278190">
        <ele>683.6</ele>
        <time>2020-10-19T09:51:51Z</time>
      </trkpt>
      <trkpt lat="42.8374370" lon="-7.7278330">
        <ele>683.6</ele>
        <time>2020-10-19T09:51:52Z</time>
      </trkpt>
      <trkpt lat="42.8374420" lon="-7.7278470">
        <ele>683.6</ele>
        <time>2020-10-19T09:51:53Z</time>
      </trkpt>
      <trkpt lat="42.8374470" lon="-7.7278610">
        <ele>683.7</ele>
        <time>2020-10-19T09:51:54Z</time>
      </trkpt>
      <trkpt lat="42.8374520" lon="-7.7278760">
        <ele>683.7</ele>
        <time>2020-10-19T09:51:55Z</time>
      </trkpt>
      <trkpt lat="42.8374580" lon="-7.7278900">
        <ele>683.8</ele>
        <time>2020-10-19T09:51:56Z</time>
      </trkpt>
      <trkpt lat="42.8374620" lon="-7.7279050">
        <ele>683.8</ele>
        <time>2020-10-19T09:51:57Z</time>
      </trkpt>
      <trkpt lat="42.8374670" lon="-7.7279190">
        <ele>683.8</ele>
        <time>2020-10-19T09:51:58Z</time>
      </trkpt>
      <trkpt lat="42.8374720" lon="-7.7279330">
        <ele>683.9</ele>
        <time>2020-10-19T09:51:59Z</time>
      </trkpt>
      <trkpt lat="42.8374760" lon="-7.7279460">
        <ele>683.9</ele>
        <time>2020-10-19T09:52:00Z</time>
      </trkpt>
      <trkpt lat="42.8374810" lon="-7.7279610">
        <ele>683.9</ele>
        <time>2020-10-19T09:52:01Z</time>
      </trkpt>
      <trkpt lat="42.8374850" lon="-7.7279760">
        <ele>684.0</ele>
        <time>2020-10-19T09:52:02Z</time>
      </trkpt>
      <trkpt lat="42.8374890" lon="-7.7279910">
        <ele>684.0</ele>
        <time>2020-10-19T09:52:03Z</time>
      </trkpt>
      <trkpt lat="42.8374930" lon="-7.7280050">
        <ele>684.1</ele>
        <time>2020-10-19T09:52:04Z</time>
      </trkpt>
      <trkpt lat="42.8374990" lon="-7.7280180">
        <ele>684.1</ele>
        <time>2020-10-19T09:52:05Z</time>
      </trkpt>
      <trkpt lat="42.8375050" lon="-7.7280300">
        <ele>684.1</ele>
        <time>2020-10-19T09:52:06Z</time>
      </trkpt>
      <trkpt lat="42.8375120" lon="-7.7280430">
        <ele>684.2</ele>
        <time>2020-10-19T09:52:07Z</time>
      </trkpt>
      <trkpt lat="42.8375180" lon="-7.7280570">
        <ele>684.2</ele>
        <time>2020-10-19T09:52:08Z</time>
      </trkpt>
      <trkpt lat="42.8375240" lon="-7.7280710">
        <ele>684.2</ele>
        <time>2020-10-19T09:52:09Z</time>
      </trkpt>
      <trkpt lat="42.8375300" lon="-7.7280840">
        <ele>684.3</ele>
        <time>2020-10-19T09:52:10Z</time>
      </trkpt>
      <trkpt lat="42.8375360" lon="-7.7280980">
        <ele>684.3</ele>
        <time>2020-10-19T09:52:11Z</time>
      </trkpt>
      <trkpt lat="42.8375410" lon="-7.7281120">
        <ele>684.3</ele>
        <time>2020-10-19T09:52:12Z</time>
      </trkpt>
      <trkpt lat="42.8375460" lon="-7.7281270">
        <ele>684.4</ele>
        <time>2020-10-19T09:52:13Z</time>
      </trkpt>
      <trkpt lat="42.8375510" lon="-7.7281430">
        <ele>684.4</ele>
        <time>2020-10-19T09:52:14Z</time>
      </trkpt>
      <trkpt lat="42.8375560" lon="-7.7281590">
        <ele>684.4</ele>
        <time>2020-10-19T09:52:15Z</time>
      </trkpt>
      <trkpt lat="42.8375610" lon="-7.7281750">
        <ele>684.4</ele>
        <time>2020-10-19T09:52:16Z</time>
      </trkpt>
      <trkpt lat="42.8375660" lon="-7.7281900">
        <ele>684.5</ele>
        <time>2020-10-19T09:52:17Z</time>
      </trkpt>
      <trkpt lat="42.8375710" lon="-7.7282060">
        <ele>684.5</ele>
        <time>2020-10-19T09:52:18Z</time>
      </trkpt>
      <trkpt lat="42.8375760" lon="-7.7282220">
        <ele>684.5</ele>
        <time>2020-10-19T09:52:19Z</time>
      </trkpt>
      <trkpt lat="42.8375810" lon="-7.7282370">
        <ele>684.6</ele>
        <time>2020-10-19T09:52:20Z</time>
      </trkpt>
      <trkpt lat="42.8375870" lon="-7.7282520">
        <ele>684.6</ele>
        <time>2020-10-19T09:52:21Z</time>
      </trkpt>
      <trkpt lat="42.8375920" lon="-7.7282660">
        <ele>684.6</ele>
        <time>2020-10-19T09:52:22Z</time>
      </trkpt>
      <trkpt lat="42.8375980" lon="-7.7282810">
        <ele>684.6</ele>
        <time>2020-10-19T09:52:23Z</time>
      </trkpt>
      <trkpt lat="42.8376030" lon="-7.7282960">
        <ele>684.7</ele>
        <time>2020-10-19T09:52:24Z</time>
      </trkpt>
      <trkpt lat="42.8376090" lon="-7.7283110">
        <ele>684.7</ele>
        <time>2020-10-19T09:52:25Z</time>
      </trkpt>
      <trkpt lat="42.8376140" lon="-7.7283260">
        <ele>684.7</ele>
        <time>2020-10-19T09:52:26Z</time>
      </trkpt>
      <trkpt lat="42.8376190" lon="-7.7283410">
        <ele>684.7</ele>
        <time>2020-10-19T09:52:27Z</time>
      </trkpt>
      <trkpt lat="42.8376240" lon="-7.7283560">
        <ele>684.8</ele>
        <time>2020-10-19T09:52:28Z</time>
      </trkpt>
      <trkpt lat="42.8376300" lon="-7.7283710">
        <ele>684.8</ele>
        <time>2020-10-19T09:52:29Z</time>
      </trkpt>
      <trkpt lat="42.8376360" lon="-7.7283850">
        <ele>684.8</ele>
        <time>2020-10-19T09:52:30Z</time>
      </trkpt>
      <trkpt lat="42.8376420" lon="-7.7283980">
        <ele>684.8</ele>
        <time>2020-10-19T09:52:31Z</time>
      </trkpt>
      <trkpt lat="42.8376480" lon="-7.7284130">
        <ele>684.9</ele>
        <time>2020-10-19T09:52:32Z</time>
      </trkpt>
      <trkpt lat="42.8376540" lon="-7.7284270">
        <ele>684.9</ele>
        <time>2020-10-19T09:52:33Z</time>
      </trkpt>
      <trkpt lat="42.8376600" lon="-7.7284420">
        <ele>684.9</ele>
        <time>2020-10-19T09:52:34Z</time>
      </trkpt>
      <trkpt lat="42.8376660" lon="-7.7284550">
        <ele>684.9</ele>
        <time>2020-10-19T09:52:35Z</time>
      </trkpt>
      <trkpt lat="42.8376720" lon="-7.7284700">
        <ele>685.0</ele>
        <time>2020-10-19T09:52:36Z</time>
      </trkpt>
      <trkpt lat="42.8376780" lon="-7.7284840">
        <ele>685.0</ele>
        <time>2020-10-19T09:52:37Z</time>
      </trkpt>
      <trkpt lat="42.8376820" lon="-7.7285000">
        <ele>685.0</ele>
        <time>2020-10-19T09:52:38Z</time>
      </trkpt>
      <trkpt lat="42.8376860" lon="-7.7285170">
        <ele>685.1</ele>
        <time>2020-10-19T09:52:39Z</time>
      </trkpt>
      <trkpt lat="42.8376890" lon="-7.7285310">
        <ele>685.1</ele>
        <time>2020-10-19T09:52:40Z</time>
      </trkpt>
      <trkpt lat="42.8376920" lon="-7.7285460">
        <ele>685.1</ele>
        <time>2020-10-19T09:52:41Z</time>
      </trkpt>
      <trkpt lat="42.8376970" lon="-7.7285600">
        <ele>685.1</ele>
        <time>2020-10-19T09:52:42Z</time>
      </trkpt>
      <trkpt lat="42.8377030" lon="-7.7285770">
        <ele>685.2</ele>
        <time>2020-10-19T09:52:43Z</time>
      </trkpt>
      <trkpt lat="42.8377100" lon="-7.7285930">
        <ele>685.2</ele>
        <time>2020-10-19T09:52:44Z</time>
      </trkpt>
      <trkpt lat="42.8377160" lon="-7.7286080">
        <ele>685.2</ele>
        <time>2020-10-19T09:52:45Z</time>
      </trkpt>
      <trkpt lat="42.8377200" lon="-7.7286220">
        <ele>685.3</ele>
        <time>2020-10-19T09:52:46Z</time>
      </trkpt>
      <trkpt lat="42.8377240" lon="-7.7286360">
        <ele>685.3</ele>
        <time>2020-10-19T09:52:47Z</time>
      </trkpt>
      <trkpt lat="42.8377280" lon="-7.7286520">
        <ele>685.3</ele>
        <time>2020-10-19T09:52:48Z</time>
      </trkpt>
      <trkpt lat="42.8377330" lon="-7.7286670">
        <ele>685.4</ele>
        <time>2020-10-19T09:52:49Z</time>
      </trkpt>
      <trkpt lat="42.8377380" lon="-7.7286820">
        <ele>685.4</ele>
        <time>2020-10-19T09:52:50Z</time>
      </trkpt>
      <trkpt lat="42.8377430" lon="-7.7286980">
        <ele>685.4</ele>
        <time>2020-10-19T09:52:51Z</time>
      </trkpt>
      <trkpt lat="42.8377480" lon="-7.7287130">
        <ele>685.5</ele>
        <time>2020-10-19T09:52:52Z</time>
      </trkpt>
      <trkpt lat="42.8377540" lon="-7.7287290">
        <ele>685.5</ele>
        <time>2020-10-19T09:52:53Z</time>
      </trkpt>
      <trkpt lat="42.8377590" lon="-7.7287440">
        <ele>685.5</ele>
        <time>2020-10-19T09:52:54Z</time>
      </trkpt>
      <trkpt lat="42.8377640" lon="-7.7287600">
        <ele>685.6</ele>
        <time>2020-10-19T09:52:55Z</time>
      </trkpt>
      <trkpt lat="42.8377680" lon="-7.7287770">
        <ele>685.6</ele>
        <time>2020-10-19T09:52:56Z</time>
      </trkpt>
      <trkpt lat="42.8377730" lon="-7.7287940">
        <ele>685.6</ele>
        <time>2020-10-19T09:52:57Z</time>
      </trkpt>
      <trkpt lat="42.8377780" lon="-7.7288120">
        <ele>685.7</ele>
        <time>2020-10-19T09:52:58Z</time>
      </trkpt>
      <trkpt lat="42.8377830" lon="-7.7288270">
        <ele>685.7</ele>
        <time>2020-10-19T09:52:59Z</time>
      </trkpt>
      <trkpt lat="42.8377880" lon="-7.7288440">
        <ele>685.7</ele>
        <time>2020-10-19T09:53:00Z</time>
      </trkpt>
      <trkpt lat="42.8377930" lon="-7.7288600">
        <ele>685.8</ele>
        <time>2020-10-19T09:53:01Z</time>
      </trkpt>
      <trkpt lat="42.8377990" lon="-7.7288760">
        <ele>685.8</ele>
        <time>2020-10-19T09:53:02Z</time>
      </trkpt>
      <trkpt lat="42.8378050" lon="-7.7288920">
        <ele>685.8</ele>
        <time>2020-10-19T09:53:03Z</time>
      </trkpt>
      <trkpt lat="42.8378110" lon="-7.7289080">
        <ele>685.9</ele>
        <time>2020-10-19T09:53:04Z</time>
      </trkpt>
      <trkpt lat="42.8378180" lon="-7.7289230">
        <ele>685.9</ele>
        <time>2020-10-19T09:53:05Z</time>
      </trkpt>
      <trkpt lat="42.8378250" lon="-7.7289380">
        <ele>685.9</ele>
        <time>2020-10-19T09:53:06Z</time>
      </trkpt>
      <trkpt lat="42.8378310" lon="-7.7289530">
        <ele>686.0</ele>
        <time>2020-10-19T09:53:07Z</time>
      </trkpt>
      <trkpt lat="42.8378370" lon="-7.7289680">
        <ele>686.0</ele>
        <time>2020-10-19T09:53:08Z</time>
      </trkpt>
      <trkpt lat="42.8378410" lon="-7.7289840">
        <ele>686.0</ele>
        <time>2020-10-19T09:53:09Z</time>
      </trkpt>
      <trkpt lat="42.8378450" lon="-7.7289990">
        <ele>686.1</ele>
        <time>2020-10-19T09:53:10Z</time>
      </trkpt>
      <trkpt lat="42.8378500" lon="-7.7290160">
        <ele>686.1</ele>
        <time>2020-10-19T09:53:11Z</time>
      </trkpt>
      <trkpt lat="42.8378540" lon="-7.7290320">
        <ele>686.1</ele>
        <time>2020-10-19T09:53:12Z</time>
      </trkpt>
      <trkpt lat="42.8378590" lon="-7.7290480">
        <ele>686.2</ele>
        <time>2020-10-19T09:53:13Z</time>
      </trkpt>
      <trkpt lat="42.8378630" lon="-7.7290640">
        <ele>686.2</ele>
        <time>2020-10-19T09:53:14Z</time>
      </trkpt>
      <trkpt lat="42.8378690" lon="-7.7290790">
        <ele>686.2</ele>
        <time>2020-10-19T09:53:15Z</time>
      </trkpt>
      <trkpt lat="42.8378760" lon="-7.7290940">
        <ele>686.3</ele>
        <time>2020-10-19T09:53:16Z</time>
      </trkpt>
      <trkpt lat="42.8378820" lon="-7.7291080">
        <ele>686.3</ele>
        <time>2020-10-19T09:53:17Z</time>
      </trkpt>
      <trkpt lat="42.8378880" lon="-7.7291230">
        <ele>686.3</ele>
        <time>2020-10-19T09:53:18Z</time>
      </trkpt>
      <trkpt lat="42.8378940" lon="-7.7291380">
        <ele>686.3</ele>
        <time>2020-10-19T09:53:19Z</time>
      </trkpt>
      <trkpt lat="42.8378990" lon="-7.7291530">
        <ele>686.4</ele>
        <time>2020-10-19T09:53:20Z</time>
      </trkpt>
      <trkpt lat="42.8379030" lon="-7.7291690">
        <ele>686.4</ele>
        <time>2020-10-19T09:53:21Z</time>
      </trkpt>
      <trkpt lat="42.8379080" lon="-7.7291850">
        <ele>686.5</ele>
        <time>2020-10-19T09:53:22Z</time>
      </trkpt>
      <trkpt lat="42.8379130" lon="-7.7292010">
        <ele>686.5</ele>
        <time>2020-10-19T09:53:23Z</time>
      </trkpt>
      <trkpt lat="42.8379190" lon="-7.7292180">
        <ele>686.5</ele>
        <time>2020-10-19T09:53:24Z</time>
      </trkpt>
      <trkpt lat="42.8379250" lon="-7.7292330">
        <ele>686.6</ele>
        <time>2020-10-19T09:53:25Z</time>
      </trkpt>
      <trkpt lat="42.8379310" lon="-7.7292490">
        <ele>686.6</ele>
        <time>2020-10-19T09:53:26Z</time>
      </trkpt>
      <trkpt lat="42.8379370" lon="-7.7292650">
        <ele>686.6</ele>
        <time>2020-10-19T09:53:27Z</time>
      </trkpt>
      <trkpt lat="42.8379420" lon="-7.7292810">
        <ele>686.7</ele>
        <time>2020-10-19T09:53:28Z</time>
      </trkpt>
      <trkpt lat="42.8379480" lon="-7.7292970">
        <ele>686.7</ele>
        <time>2020-10-19T09:53:29Z</time>
      </trkpt>
      <trkpt lat="42.8379540" lon="-7.7293140">
        <ele>686.8</ele>
        <time>2020-10-19T09:53:30Z</time>
      </trkpt>
      <trkpt lat="42.8379600" lon="-7.7293300">
        <ele>686.8</ele>
        <time>2020-10-19T09:53:31Z</time>
      </trkpt>
      <trkpt lat="42.8379670" lon="-7.7293450">
        <ele>686.9</ele>
        <time>2020-10-19T09:53:32Z</time>
      </trkpt>
      <trkpt lat="42.8379760" lon="-7.7293600">
        <ele>686.9</ele>
        <time>2020-10-19T09:53:33Z</time>
      </trkpt>
      <trkpt lat="42.8379820" lon="-7.7293760">
        <ele>687.0</ele>
        <time>2020-10-19T09:53:34Z</time>
      </trkpt>
      <trkpt lat="42.8379870" lon="-7.7293930">
        <ele>687.0</ele>
        <time>2020-10-19T09:53:35Z</time>
      </trkpt>
      <trkpt lat="42.8379900" lon="-7.7294110">
        <ele>687.1</ele>
        <time>2020-10-19T09:53:36Z</time>
      </trkpt>
      <trkpt lat="42.8379940" lon="-7.7294290">
        <ele>687.1</ele>
        <time>2020-10-19T09:53:37Z</time>
      </trkpt>
      <trkpt lat="42.8379970" lon="-7.7294460">
        <ele>687.2</ele>
        <time>2020-10-19T09:53:38Z</time>
      </trkpt>
      <trkpt lat="42.8379960" lon="-7.7294620">
        <ele>687.2</ele>
        <time>2020-10-19T09:53:39Z</time>
      </trkpt>
      <trkpt lat="42.8379940" lon="-7.7294740">
        <ele>687.3</ele>
        <time>2020-10-19T09:53:40Z</time>
      </trkpt>
      <trkpt lat="42.8379930" lon="-7.7294840">
        <ele>687.3</ele>
        <time>2020-10-19T09:53:41Z</time>
      </trkpt>
      <trkpt lat="42.8379920" lon="-7.7294950">
        <ele>687.3</ele>
        <time>2020-10-19T09:53:42Z</time>
      </trkpt>
      <trkpt lat="42.8379880" lon="-7.7295090">
        <ele>687.4</ele>
        <time>2020-10-19T09:53:43Z</time>
      </trkpt>
      <trkpt lat="42.8379820" lon="-7.7295230">
        <ele>687.4</ele>
        <time>2020-10-19T09:53:44Z</time>
      </trkpt>
      <trkpt lat="42.8379760" lon="-7.7295370">
        <ele>687.5</ele>
        <time>2020-10-19T09:53:45Z</time>
      </trkpt>
      <trkpt lat="42.8379710" lon="-7.7295530">
        <ele>687.6</ele>
        <time>2020-10-19T09:53:46Z</time>
      </trkpt>
      <trkpt lat="42.8379680" lon="-7.7295700">
        <ele>687.6</ele>
        <time>2020-10-19T09:53:47Z</time>
      </trkpt>
      <trkpt lat="42.8379650" lon="-7.7295870">
        <ele>687.6</ele>
        <time>2020-10-19T09:53:48Z</time>
      </trkpt>
      <trkpt lat="42.8379640" lon="-7.7296060">
        <ele>687.7</ele>
        <time>2020-10-19T09:53:49Z</time>
      </trkpt>
      <trkpt lat="42.8379630" lon="-7.7296250">
        <ele>687.7</ele>
        <time>2020-10-19T09:53:50Z</time>
      </trkpt>
      <trkpt lat="42.8379640" lon="-7.7296440">
        <ele>687.8</ele>
        <time>2020-10-19T09:53:51Z</time>
      </trkpt>
      <trkpt lat="42.8379660" lon="-7.7296630">
        <ele>687.8</ele>
        <time>2020-10-19T09:53:52Z</time>
      </trkpt>
      <trkpt lat="42.8379690" lon="-7.7296810">
        <ele>687.8</ele>
        <time>2020-10-19T09:53:53Z</time>
      </trkpt>
      <trkpt lat="42.8379730" lon="-7.7296990">
        <ele>687.9</ele>
        <time>2020-10-19T09:53:54Z</time>
      </trkpt>
      <trkpt lat="42.8379780" lon="-7.7297160">
        <ele>687.9</ele>
        <time>2020-10-19T09:53:55Z</time>
      </trkpt>
      <trkpt lat="42.8379820" lon="-7.7297320">
        <ele>687.9</ele>
        <time>2020-10-19T09:53:56Z</time>
      </trkpt>
      <trkpt lat="42.8379870" lon="-7.7297490">
        <ele>687.9</ele>
        <time>2020-10-19T09:53:57Z</time>
      </trkpt>
      <trkpt lat="42.8379920" lon="-7.7297670">
        <ele>687.9</ele>
        <time>2020-10-19T09:53:58Z</time>
      </trkpt>
      <trkpt lat="42.8379960" lon="-7.7297850">
        <ele>688.0</ele>
        <time>2020-10-19T09:53:59Z</time>
      </trkpt>
      <trkpt lat="42.8380000" lon="-7.7298030">
        <ele>688.0</ele>
        <time>2020-10-19T09:54:00Z</time>
      </trkpt>
      <trkpt lat="42.8380020" lon="-7.7298200">
        <ele>688.0</ele>
        <time>2020-10-19T09:54:01Z</time>
      </trkpt>
      <trkpt lat="42.8380020" lon="-7.7298380">
        <ele>688.0</ele>
        <time>2020-10-19T09:54:02Z</time>
      </trkpt>
      <trkpt lat="42.8380020" lon="-7.7298570">
        <ele>688.0</ele>
        <time>2020-10-19T09:54:03Z</time>
      </trkpt>
      <trkpt lat="42.8380030" lon="-7.7298750">
        <ele>688.0</ele>
        <time>2020-10-19T09:54:04Z</time>
      </trkpt>
      <trkpt lat="42.8380040" lon="-7.7298920">
        <ele>688.0</ele>
        <time>2020-10-19T09:54:05Z</time>
      </trkpt>
      <trkpt lat="42.8380060" lon="-7.7299090">
        <ele>688.0</ele>
        <time>2020-10-19T09:54:06Z</time>
      </trkpt>
      <trkpt lat="42.8380080" lon="-7.7299270">
        <ele>688.0</ele>
        <time>2020-10-19T09:54:07Z</time>
      </trkpt>
      <trkpt lat="42.8380120" lon="-7.7299430">
        <ele>688.0</ele>
        <time>2020-10-19T09:54:08Z</time>
      </trkpt>
      <trkpt lat="42.8380160" lon="-7.7299600">
        <ele>688.0</ele>
        <time>2020-10-19T09:54:09Z</time>
      </trkpt>
      <trkpt lat="42.8380210" lon="-7.7299750">
        <ele>688.0</ele>
        <time>2020-10-19T09:54:10Z</time>
      </trkpt>
      <trkpt lat="42.8380230" lon="-7.7299830">
        <ele>688.0</ele>
        <time>2020-10-19T09:54:11Z</time>
      </trkpt>
      <trkpt lat="42.8380250" lon="-7.7299870">
        <ele>688.0</ele>
        <time>2020-10-19T09:54:12Z</time>
      </trkpt>
      <trkpt lat="42.8380290" lon="-7.7299910">
        <ele>688.0</ele>
        <time>2020-10-19T09:54:13Z</time>
      </trkpt>
      <trkpt lat="42.8380380" lon="-7.7300010">
        <ele>687.9</ele>
        <time>2020-10-19T09:54:14Z</time>
      </trkpt>
      <trkpt lat="42.8380450" lon="-7.7300160">
        <ele>687.9</ele>
        <time>2020-10-19T09:54:15Z</time>
      </trkpt>
      <trkpt lat="42.8380500" lon="-7.7300320">
        <ele>687.9</ele>
        <time>2020-10-19T09:54:16Z</time>
      </trkpt>
      <trkpt lat="42.8380540" lon="-7.7300490">
        <ele>687.9</ele>
        <time>2020-10-19T09:54:17Z</time>
      </trkpt>
      <trkpt lat="42.8380600" lon="-7.7300640">
        <ele>687.9</ele>
        <time>2020-10-19T09:54:18Z</time>
      </trkpt>
      <trkpt lat="42.8380660" lon="-7.7300770">
        <ele>687.9</ele>
        <time>2020-10-19T09:54:19Z</time>
      </trkpt>
      <trkpt lat="42.8380720" lon="-7.7300910">
        <ele>687.9</ele>
        <time>2020-10-19T09:54:20Z</time>
      </trkpt>
      <trkpt lat="42.8380800" lon="-7.7301060">
        <ele>687.9</ele>
        <time>2020-10-19T09:54:21Z</time>
      </trkpt>
      <trkpt lat="42.8380880" lon="-7.7301200">
        <ele>687.9</ele>
        <time>2020-10-19T09:54:22Z</time>
      </trkpt>
      <trkpt lat="42.8380960" lon="-7.7301350">
        <ele>687.9</ele>
        <time>2020-10-19T09:54:23Z</time>
      </trkpt>
      <trkpt lat="42.8381020" lon="-7.7301490">
        <ele>687.9</ele>
        <time>2020-10-19T09:54:24Z</time>
      </trkpt>
      <trkpt lat="42.8381080" lon="-7.7301640">
        <ele>687.9</ele>
        <time>2020-10-19T09:54:25Z</time>
      </trkpt>
      <trkpt lat="42.8381140" lon="-7.7301800">
        <ele>687.9</ele>
        <time>2020-10-19T09:54:26Z</time>
      </trkpt>
      <trkpt lat="42.8381220" lon="-7.7301950">
        <ele>688.0</ele>
        <time>2020-10-19T09:54:27Z</time>
      </trkpt>
      <trkpt lat="42.8381290" lon="-7.7302110">
        <ele>688.0</ele>
        <time>2020-10-19T09:54:28Z</time>
      </trkpt>
      <trkpt lat="42.8381370" lon="-7.7302260">
        <ele>688.0</ele>
        <time>2020-10-19T09:54:29Z</time>
      </trkpt>
      <trkpt lat="42.8381460" lon="-7.7302410">
        <ele>688.0</ele>
        <time>2020-10-19T09:54:30Z</time>
      </trkpt>
      <trkpt lat="42.8381540" lon="-7.7302560">
        <ele>688.0</ele>
        <time>2020-10-19T09:54:31Z</time>
      </trkpt>
      <trkpt lat="42.8381630" lon="-7.7302710">
        <ele>688.0</ele>
        <time>2020-10-19T09:54:32Z</time>
      </trkpt>
      <trkpt lat="42.8381690" lon="-7.7302860">
        <ele>688.0</ele>
        <time>2020-10-19T09:54:33Z</time>
      </trkpt>
      <trkpt lat="42.8381750" lon="-7.7302990">
        <ele>688.0</ele>
        <time>2020-10-19T09:54:34Z</time>
      </trkpt>
      <trkpt lat="42.8381820" lon="-7.7303130">
        <ele>688.0</ele>
        <time>2020-10-19T09:54:35Z</time>
      </trkpt>
      <trkpt lat="42.8381890" lon="-7.7303270">
        <ele>688.0</ele>
        <time>2020-10-19T09:54:36Z</time>
      </trkpt>
      <trkpt lat="42.8381970" lon="-7.7303430">
        <ele>688.0</ele>
        <time>2020-10-19T09:54:37Z</time>
      </trkpt>
      <trkpt lat="42.8382050" lon="-7.7303570">
        <ele>688.0</ele>
        <time>2020-10-19T09:54:38Z</time>
      </trkpt>
      <trkpt lat="42.8382150" lon="-7.7303700">
        <ele>688.0</ele>
        <time>2020-10-19T09:54:39Z</time>
      </trkpt>
      <trkpt lat="42.8382250" lon="-7.7303850">
        <ele>688.0</ele>
        <time>2020-10-19T09:54:40Z</time>
      </trkpt>
      <trkpt lat="42.8382340" lon="-7.7304010">
        <ele>688.0</ele>
        <time>2020-10-19T09:54:41Z</time>
      </trkpt>
      <trkpt lat="42.8382430" lon="-7.7304180">
        <ele>688.0</ele>
        <time>2020-10-19T09:54:42Z</time>
      </trkpt>
      <trkpt lat="42.8382520" lon="-7.7304330">
        <ele>688.0</ele>
        <time>2020-10-19T09:54:43Z</time>
      </trkpt>
      <trkpt lat="42.8382610" lon="-7.7304490">
        <ele>688.0</ele>
        <time>2020-10-19T09:54:44Z</time>
      </trkpt>
      <trkpt lat="42.8382710" lon="-7.7304610">
        <ele>688.0</ele>
        <time>2020-10-19T09:54:45Z</time>
      </trkpt>
      <trkpt lat="42.8382800" lon="-7.7304740">
        <ele>688.0</ele>
        <time>2020-10-19T09:54:46Z</time>
      </trkpt>
      <trkpt lat="42.8382890" lon="-7.7304870">
        <ele>688.0</ele>
        <time>2020-10-19T09:54:47Z</time>
      </trkpt>
      <trkpt lat="42.8382970" lon="-7.7305010">
        <ele>687.9</ele>
        <time>2020-10-19T09:54:48Z</time>
      </trkpt>
      <trkpt lat="42.8383040" lon="-7.7305140">
        <ele>687.9</ele>
        <time>2020-10-19T09:54:49Z</time>
      </trkpt>
      <trkpt lat="42.8383130" lon="-7.7305270">
        <ele>687.9</ele>
        <time>2020-10-19T09:54:50Z</time>
      </trkpt>
      <trkpt lat="42.8383210" lon="-7.7305410">
        <ele>687.9</ele>
        <time>2020-10-19T09:54:51Z</time>
      </trkpt>
      <trkpt lat="42.8383290" lon="-7.7305560">
        <ele>687.9</ele>
        <time>2020-10-19T09:54:52Z</time>
      </trkpt>
      <trkpt lat="42.8383360" lon="-7.7305710">
        <ele>687.9</ele>
        <time>2020-10-19T09:54:53Z</time>
      </trkpt>
      <trkpt lat="42.8383420" lon="-7.7305840">
        <ele>687.9</ele>
        <time>2020-10-19T09:54:54Z</time>
      </trkpt>
      <trkpt lat="42.8383480" lon="-7.7305970">
        <ele>687.9</ele>
        <time>2020-10-19T09:54:55Z</time>
      </trkpt>
      <trkpt lat="42.8383540" lon="-7.7306100">
        <ele>687.9</ele>
        <time>2020-10-19T09:54:56Z</time>
      </trkpt>
      <trkpt lat="42.8383610" lon="-7.7306230">
        <ele>687.8</ele>
        <time>2020-10-19T09:54:57Z</time>
      </trkpt>
      <trkpt lat="42.8383670" lon="-7.7306370">
        <ele>687.8</ele>
        <time>2020-10-19T09:54:58Z</time>
      </trkpt>
      <trkpt lat="42.8383740" lon="-7.7306490">
        <ele>687.8</ele>
        <time>2020-10-19T09:54:59Z</time>
      </trkpt>
      <trkpt lat="42.8383800" lon="-7.7306620">
        <ele>687.8</ele>
        <time>2020-10-19T09:55:00Z</time>
      </trkpt>
      <trkpt lat="42.8383870" lon="-7.7306730">
        <ele>687.8</ele>
        <time>2020-10-19T09:55:01Z</time>
      </trkpt>
      <trkpt lat="42.8383950" lon="-7.7306850">
        <ele>687.8</ele>
        <time>2020-10-19T09:55:02Z</time>
      </trkpt>
      <trkpt lat="42.8384020" lon="-7.7306980">
        <ele>687.8</ele>
        <time>2020-10-19T09:55:03Z</time>
      </trkpt>
      <trkpt lat="42.8384090" lon="-7.7307100">
        <ele>687.7</ele>
        <time>2020-10-19T09:55:04Z</time>
      </trkpt>
      <trkpt lat="42.8384160" lon="-7.7307230">
        <ele>687.7</ele>
        <time>2020-10-19T09:55:05Z</time>
      </trkpt>
      <trkpt lat="42.8384240" lon="-7.7307370">
        <ele>687.7</ele>
        <time>2020-10-19T09:55:06Z</time>
      </trkpt>
      <trkpt lat="42.8384310" lon="-7.7307530">
        <ele>687.7</ele>
        <time>2020-10-19T09:55:07Z</time>
      </trkpt>
      <trkpt lat="42.8384370" lon="-7.7307690">
        <ele>687.7</ele>
        <time>2020-10-19T09:55:08Z</time>
      </trkpt>
      <trkpt lat="42.8384440" lon="-7.7307830">
        <ele>687.7</ele>
        <time>2020-10-19T09:55:09Z</time>
      </trkpt>
      <trkpt lat="42.8384520" lon="-7.7307970">
        <ele>687.6</ele>
        <time>2020-10-19T09:55:10Z</time>
      </trkpt>
      <trkpt lat="42.8384580" lon="-7.7308100">
        <ele>687.6</ele>
        <time>2020-10-19T09:55:11Z</time>
      </trkpt>
      <trkpt lat="42.8384620" lon="-7.7308220">
        <ele>687.6</ele>
        <time>2020-10-19T09:55:12Z</time>
      </trkpt>
      <trkpt lat="42.8384660" lon="-7.7308350">
        <ele>687.6</ele>
        <time>2020-10-19T09:55:13Z</time>
      </trkpt>
      <trkpt lat="42.8384700" lon="-7.7308490">
        <ele>687.6</ele>
        <time>2020-10-19T09:55:14Z</time>
      </trkpt>
      <trkpt lat="42.8384770" lon="-7.7308650">
        <ele>687.6</ele>
        <time>2020-10-19T09:55:15Z</time>
      </trkpt>
      <trkpt lat="42.8384840" lon="-7.7308800">
        <ele>687.5</ele>
        <time>2020-10-19T09:55:16Z</time>
      </trkpt>
      <trkpt lat="42.8384910" lon="-7.7308950">
        <ele>687.5</ele>
        <time>2020-10-19T09:55:17Z</time>
      </trkpt>
      <trkpt lat="42.8384990" lon="-7.7309090">
        <ele>687.5</ele>
        <time>2020-10-19T09:55:18Z</time>
      </trkpt>
      <trkpt lat="42.8385080" lon="-7.7309220">
        <ele>687.5</ele>
        <time>2020-10-19T09:55:19Z</time>
      </trkpt>
      <trkpt lat="42.8385170" lon="-7.7309350">
        <ele>687.5</ele>
        <time>2020-10-19T09:55:20Z</time>
      </trkpt>
      <trkpt lat="42.8385260" lon="-7.7309470">
        <ele>687.4</ele>
        <time>2020-10-19T09:55:21Z</time>
      </trkpt>
      <trkpt lat="42.8385340" lon="-7.7309590">
        <ele>687.4</ele>
        <time>2020-10-19T09:55:22Z</time>
      </trkpt>
      <trkpt lat="42.8385440" lon="-7.7309710">
        <ele>687.4</ele>
        <time>2020-10-19T09:55:23Z</time>
      </trkpt>
      <trkpt lat="42.8385550" lon="-7.7309840">
        <ele>687.4</ele>
        <time>2020-10-19T09:55:24Z</time>
      </trkpt>
      <trkpt lat="42.8385650" lon="-7.7309970">
        <ele>687.4</ele>
        <time>2020-10-19T09:55:25Z</time>
      </trkpt>
      <trkpt lat="42.8385730" lon="-7.7310110">
        <ele>687.4</ele>
        <time>2020-10-19T09:55:26Z</time>
      </trkpt>
      <trkpt lat="42.8385800" lon="-7.7310240">
        <ele>687.3</ele>
        <time>2020-10-19T09:55:27Z</time>
      </trkpt>
      <trkpt lat="42.8385870" lon="-7.7310360">
        <ele>687.3</ele>
        <time>2020-10-19T09:55:28Z</time>
      </trkpt>
      <trkpt lat="42.8385930" lon="-7.7310470">
        <ele>687.3</ele>
        <time>2020-10-19T09:55:29Z</time>
      </trkpt>
      <trkpt lat="42.8386000" lon="-7.7310590">
        <ele>687.3</ele>
        <time>2020-10-19T09:55:30Z</time>
      </trkpt>
      <trkpt lat="42.8386060" lon="-7.7310700">
        <ele>687.3</ele>
        <time>2020-10-19T09:55:31Z</time>
      </trkpt>
      <trkpt lat="42.8386110" lon="-7.7310810">
        <ele>687.3</ele>
        <time>2020-10-19T09:55:32Z</time>
      </trkpt>
      <trkpt lat="42.8386170" lon="-7.7310910">
        <ele>687.2</ele>
        <time>2020-10-19T09:55:33Z</time>
      </trkpt>
      <trkpt lat="42.8386240" lon="-7.7311020">
        <ele>687.2</ele>
        <time>2020-10-19T09:55:34Z</time>
      </trkpt>
      <trkpt lat="42.8386310" lon="-7.7311110">
        <ele>687.2</ele>
        <time>2020-10-19T09:55:35Z</time>
      </trkpt>
      <trkpt lat="42.8386360" lon="-7.7311200">
        <ele>687.2</ele>
        <time>2020-10-19T09:55:36Z</time>
      </trkpt>
      <trkpt lat="42.8386380" lon="-7.7311270">
        <ele>687.2</ele>
        <time>2020-10-19T09:55:37Z</time>
      </trkpt>
      <trkpt lat="42.8386370" lon="-7.7311330">
        <ele>687.2</ele>
        <time>2020-10-19T09:55:38Z</time>
      </trkpt>
      <trkpt lat="42.8386360" lon="-7.7311390">
        <ele>687.2</ele>
        <time>2020-10-19T09:55:39Z</time>
      </trkpt>
      <trkpt lat="42.8386360" lon="-7.7311450">
        <ele>687.2</ele>
        <time>2020-10-19T09:55:40Z</time>
      </trkpt>
      <trkpt lat="42.8386370" lon="-7.7311510">
        <ele>687.2</ele>
        <time>2020-10-19T09:55:41Z</time>
      </trkpt>
      <trkpt lat="42.8386400" lon="-7.7311570">
        <ele>687.2</ele>
        <time>2020-10-19T09:55:42Z</time>
      </trkpt>
      <trkpt lat="42.8386420" lon="-7.7311610">
        <ele>687.2</ele>
        <time>2020-10-19T09:55:43Z</time>
      </trkpt>
      <trkpt lat="42.8386440" lon="-7.7311630">
        <ele>687.1</ele>
        <time>2020-10-19T09:55:44Z</time>
      </trkpt>
      <trkpt lat="42.8386460" lon="-7.7311640">
        <ele>687.1</ele>
        <time>2020-10-19T09:55:45Z</time>
      </trkpt>
      <trkpt lat="42.8386480" lon="-7.7311650">
        <ele>687.1</ele>
        <time>2020-10-19T09:55:46Z</time>
      </trkpt>
      <trkpt lat="42.8386490" lon="-7.7311670">
        <ele>687.1</ele>
        <time>2020-10-19T09:55:47Z</time>
      </trkpt>
      <trkpt lat="42.8386500" lon="-7.7311690">
        <ele>687.1</ele>
        <time>2020-10-19T09:55:48Z</time>
      </trkpt>
      <trkpt lat="42.8386510" lon="-7.7311720">
        <ele>687.1</ele>
        <time>2020-10-19T09:55:49Z</time>
      </trkpt>
      <trkpt lat="42.8386530" lon="-7.7311740">
        <ele>687.1</ele>
        <time>2020-10-19T09:55:50Z</time>
      </trkpt>
      <trkpt lat="42.8386550" lon="-7.7311750">
        <ele>687.1</ele>
        <time>2020-10-19T09:55:51Z</time>
      </trkpt>
      <trkpt lat="42.8386570" lon="-7.7311760">
        <ele>687.1</ele>
        <time>2020-10-19T09:55:52Z</time>
      </trkpt>
      <trkpt lat="42.8386600" lon="-7.7311770">
        <ele>687.1</ele>
        <time>2020-10-19T09:55:53Z</time>
      </trkpt>
      <trkpt lat="42.8386620" lon="-7.7311780">
        <ele>687.1</ele>
        <time>2020-10-19T09:55:54Z</time>
      </trkpt>
      <trkpt lat="42.8386640" lon="-7.7311790">
        <ele>687.1</ele>
        <time>2020-10-19T09:55:55Z</time>
      </trkpt>
      <trkpt lat="42.8386660" lon="-7.7311790">
        <ele>687.1</ele>
        <time>2020-10-19T09:55:56Z</time>
      </trkpt>
      <trkpt lat="42.8386680" lon="-7.7311790">
        <ele>687.1</ele>
        <time>2020-10-19T09:55:57Z</time>
      </trkpt>
      <trkpt lat="42.8386690" lon="-7.7311790">
        <ele>687.1</ele>
        <time>2020-10-19T09:55:58Z</time>
      </trkpt>
      <trkpt lat="42.8386710" lon="-7.7311790">
        <ele>687.1</ele>
        <time>2020-10-19T09:55:59Z</time>
      </trkpt>
      <trkpt lat="42.8386750" lon="-7.7311780">
        <ele>687.1</ele>
        <time>2020-10-19T09:56:00Z</time>
      </trkpt>
      <trkpt lat="42.8386780" lon="-7.7311770">
        <ele>687.1</ele>
        <time>2020-10-19T09:56:01Z</time>
      </trkpt>
      <trkpt lat="42.8386800" lon="-7.7311760">
        <ele>687.1</ele>
        <time>2020-10-19T09:56:02Z</time>
      </trkpt>
      <trkpt lat="42.8386830" lon="-7.7311760">
        <ele>687.1</ele>
        <time>2020-10-19T09:56:03Z</time>
      </trkpt>
      <trkpt lat="42.8386860" lon="-7.7311760">
        <ele>687.1</ele>
        <time>2020-10-19T09:56:04Z</time>
      </trkpt>
      <trkpt lat="42.8386890" lon="-7.7311760">
        <ele>687.1</ele>
        <time>2020-10-19T09:56:05Z</time>
      </trkpt>
      <trkpt lat="42.8386900" lon="-7.7311760">
        <ele>687.1</ele>
        <time>2020-10-19T09:56:06Z</time>
      </trkpt>
      <trkpt lat="42.8386910" lon="-7.7311770">
        <ele>687.1</ele>
        <time>2020-10-19T09:56:07Z</time>
      </trkpt>
      <trkpt lat="42.8386900" lon="-7.7311780">
        <ele>687.1</ele>
        <time>2020-10-19T09:56:08Z</time>
      </trkpt>
      <trkpt lat="42.8386890" lon="-7.7311790">
        <ele>687.1</ele>
        <time>2020-10-19T09:56:09Z</time>
      </trkpt>
      <trkpt lat="42.8386890" lon="-7.7311800">
        <ele>687.1</ele>
        <time>2020-10-19T09:56:10Z</time>
      </trkpt>
      <trkpt lat="42.8386900" lon="-7.7311810">
        <ele>687.1</ele>
        <time>2020-10-19T09:56:11Z</time>
      </trkpt>
      <trkpt lat="42.8386900" lon="-7.7311820">
        <ele>687.1</ele>
        <time>2020-10-19T09:56:12Z</time>
      </trkpt>
      <trkpt lat="42.8386900" lon="-7.7311840">
        <ele>687.1</ele>
        <time>2020-10-19T09:56:13Z</time>
      </trkpt>
      <trkpt lat="42.8386900" lon="-7.7311860">
        <ele>687.0</ele>
        <time>2020-10-19T09:56:14Z</time>
      </trkpt>
      <trkpt lat="42.8386910" lon="-7.7311880">
        <ele>687.0</ele>
        <time>2020-10-19T09:56:15Z</time>
      </trkpt>
      <trkpt lat="42.8386930" lon="-7.7311900">
        <ele>687.0</ele>
        <time>2020-10-19T09:56:16Z</time>
      </trkpt>
      <trkpt lat="42.8386930" lon="-7.7311910">
        <ele>687.0</ele>
        <time>2020-10-19T09:56:17Z</time>
      </trkpt>
      <trkpt lat="42.8386920" lon="-7.7311920">
        <ele>687.0</ele>
        <time>2020-10-19T09:56:18Z</time>
      </trkpt>
      <trkpt lat="42.8386920" lon="-7.7311930">
        <ele>687.0</ele>
        <time>2020-10-19T09:56:19Z</time>
      </trkpt>
      <trkpt lat="42.8386930" lon="-7.7311920">
        <ele>687.0</ele>
        <time>2020-10-19T09:56:20Z</time>
      </trkpt>
      <trkpt lat="42.8386940" lon="-7.7311920">
        <ele>687.0</ele>
        <time>2020-10-19T09:56:21Z</time>
      </trkpt>
      <trkpt lat="42.8386950" lon="-7.7311920">
        <ele>687.0</ele>
        <time>2020-10-19T09:56:22Z</time>
      </trkpt>
      <trkpt lat="42.8386960" lon="-7.7311930">
        <ele>687.0</ele>
        <time>2020-10-19T09:56:23Z</time>
      </trkpt>
      <trkpt lat="42.8386970" lon="-7.7311940">
        <ele>687.0</ele>
        <time>2020-10-19T09:56:24Z</time>
      </trkpt>
      <trkpt lat="42.8386970" lon="-7.7311950">
        <ele>687.0</ele>
        <time>2020-10-19T09:56:25Z</time>
      </trkpt>
      <trkpt lat="42.8386980" lon="-7.7311950">
        <ele>687.0</ele>
        <time>2020-10-19T09:56:26Z</time>
      </trkpt>
      <trkpt lat="42.8386990" lon="-7.7311940">
        <ele>687.0</ele>
        <time>2020-10-19T09:56:27Z</time>
      </trkpt>
      <trkpt lat="42.8387000" lon="-7.7311950">
        <ele>687.0</ele>
        <time>2020-10-19T09:56:28Z</time>
      </trkpt>
      <trkpt lat="42.8387000" lon="-7.7311940">
        <ele>687.0</ele>
        <time>2020-10-19T09:56:29Z</time>
      </trkpt>
      <trkpt lat="42.8386980" lon="-7.7311920">
        <ele>687.0</ele>
        <time>2020-10-19T09:56:30Z</time>
      </trkpt>
      <trkpt lat="42.8386940" lon="-7.7311900">
        <ele>687.0</ele>
        <time>2020-10-19T09:56:31Z</time>
      </trkpt>
      <trkpt lat="42.8386900" lon="-7.7311870">
        <ele>687.0</ele>
        <time>2020-10-19T09:56:32Z</time>
      </trkpt>
      <trkpt lat="42.8386870" lon="-7.7311830">
        <ele>687.0</ele>
        <time>2020-10-19T09:56:33Z</time>
      </trkpt>
      <trkpt lat="42.8386860" lon="-7.7311760">
        <ele>687.0</ele>
        <time>2020-10-19T09:56:34Z</time>
      </trkpt>
      <trkpt lat="42.8386880" lon="-7.7311670">
        <ele>687.0</ele>
        <time>2020-10-19T09:56:35Z</time>
      </trkpt>
      <trkpt lat="42.8386930" lon="-7.7311590">
        <ele>687.0</ele>
        <time>2020-10-19T09:56:36Z</time>
      </trkpt>
      <trkpt lat="42.8387000" lon="-7.7311510">
        <ele>686.9</ele>
        <time>2020-10-19T09:56:37Z</time>
      </trkpt>
      <trkpt lat="42.8387030" lon="-7.7311460">
        <ele>686.9</ele>
        <time>2020-10-19T09:56:38Z</time>
      </trkpt>
      <trkpt lat="42.8387030" lon="-7.7311420">
        <ele>686.9</ele>
        <time>2020-10-19T09:56:39Z</time>
      </trkpt>
      <trkpt lat="42.8387010" lon="-7.7311400">
        <ele>686.9</ele>
        <time>2020-10-19T09:56:40Z</time>
      </trkpt>
      <trkpt lat="42.8386980" lon="-7.7311370">
        <ele>686.9</ele>
        <time>2020-10-19T09:56:41Z</time>
      </trkpt>
      <trkpt lat="42.8386970" lon="-7.7311350">
        <ele>686.9</ele>
        <time>2020-10-19T09:56:42Z</time>
      </trkpt>
      <trkpt lat="42.8386970" lon="-7.7311320">
        <ele>686.9</ele>
        <time>2020-10-19T09:56:43Z</time>
      </trkpt>
      <trkpt lat="42.8387000" lon="-7.7311280">
        <ele>686.9</ele>
        <time>2020-10-19T09:56:44Z</time>
      </trkpt>
      <trkpt lat="42.8387050" lon="-7.7311230">
        <ele>686.9</ele>
        <time>2020-10-19T09:56:45Z</time>
      </trkpt>
      <trkpt lat="42.8387130" lon="-7.7311200">
        <ele>686.9</ele>
        <time>2020-10-19T09:56:46Z</time>
      </trkpt>
      <trkpt lat="42.8387210" lon="-7.7311230">
        <ele>686.9</ele>
        <time>2020-10-19T09:56:47Z</time>
      </trkpt>
      <trkpt lat="42.8387260" lon="-7.7311260">
        <ele>686.9</ele>
        <time>2020-10-19T09:56:48Z</time>
      </trkpt>
      <trkpt lat="42.8387280" lon="-7.7311290">
        <ele>686.9</ele>
        <time>2020-10-19T09:56:49Z</time>
      </trkpt>
      <trkpt lat="42.8387280" lon="-7.7311310">
        <ele>686.9</ele>
        <time>2020-10-19T09:56:50Z</time>
      </trkpt>
      <trkpt lat="42.8387280" lon="-7.7311330">
        <ele>686.9</ele>
        <time>2020-10-19T09:56:51Z</time>
      </trkpt>
      <trkpt lat="42.8387280" lon="-7.7311360">
        <ele>686.9</ele>
        <time>2020-10-19T09:56:52Z</time>
      </trkpt>
      <trkpt lat="42.8387290" lon="-7.7311380">
        <ele>686.9</ele>
        <time>2020-10-19T09:56:53Z</time>
      </trkpt>
      <trkpt lat="42.8387310" lon="-7.7311410">
        <ele>686.8</ele>
        <time>2020-10-19T09:56:54Z</time>
      </trkpt>
      <trkpt lat="42.8387340" lon="-7.7311440">
        <ele>686.8</ele>
        <time>2020-10-19T09:56:55Z</time>
      </trkpt>
      <trkpt lat="42.8387380" lon="-7.7311500">
        <ele>686.8</ele>
        <time>2020-10-19T09:56:56Z</time>
      </trkpt>
      <trkpt lat="42.8387450" lon="-7.7311560">
        <ele>686.8</ele>
        <time>2020-10-19T09:56:57Z</time>
      </trkpt>
      <trkpt lat="42.8387540" lon="-7.7311630">
        <ele>686.8</ele>
        <time>2020-10-19T09:56:58Z</time>
      </trkpt>
      <trkpt lat="42.8387630" lon="-7.7311680">
        <ele>686.8</ele>
        <time>2020-10-19T09:56:59Z</time>
      </trkpt>
      <trkpt lat="42.8387710" lon="-7.7311750">
        <ele>686.8</ele>
        <time>2020-10-19T09:57:00Z</time>
      </trkpt>
      <trkpt lat="42.8387790" lon="-7.7311820">
        <ele>686.8</ele>
        <time>2020-10-19T09:57:01Z</time>
      </trkpt>
      <trkpt lat="42.8387890" lon="-7.7311900">
        <ele>686.7</ele>
        <time>2020-10-19T09:57:02Z</time>
      </trkpt>
      <trkpt lat="42.8387990" lon="-7.7311980">
        <ele>686.7</ele>
        <time>2020-10-19T09:57:03Z</time>
      </trkpt>
      <trkpt lat="42.8388070" lon="-7.7312080">
        <ele>686.7</ele>
        <time>2020-10-19T09:57:04Z</time>
      </trkpt>
      <trkpt lat="42.8388140" lon="-7.7312180">
        <ele>686.7</ele>
        <time>2020-10-19T09:57:05Z</time>
      </trkpt>
      <trkpt lat="42.8388230" lon="-7.7312270">
        <ele>686.7</ele>
        <time>2020-10-19T09:57:06Z</time>
      </trkpt>
      <trkpt lat="42.8388330" lon="-7.7312350">
        <ele>686.7</ele>
        <time>2020-10-19T09:57:07Z</time>
      </trkpt>
      <trkpt lat="42.8388420" lon="-7.7312430">
        <ele>686.7</ele>
        <time>2020-10-19T09:57:08Z</time>
      </trkpt>
      <trkpt lat="42.8388500" lon="-7.7312540">
        <ele>686.6</ele>
        <time>2020-10-19T09:57:09Z</time>
      </trkpt>
      <trkpt lat="42.8388560" lon="-7.7312650">
        <ele>686.6</ele>
        <time>2020-10-19T09:57:10Z</time>
      </trkpt>
      <trkpt lat="42.8388620" lon="-7.7312740">
        <ele>686.6</ele>
        <time>2020-10-19T09:57:11Z</time>
      </trkpt>
      <trkpt lat="42.8388690" lon="-7.7312820">
        <ele>686.6</ele>
        <time>2020-10-19T09:57:12Z</time>
      </trkpt>
      <trkpt lat="42.8388780" lon="-7.7312910">
        <ele>686.6</ele>
        <time>2020-10-19T09:57:13Z</time>
      </trkpt>
      <trkpt lat="42.8388880" lon="-7.7313020">
        <ele>686.6</ele>
        <time>2020-10-19T09:57:14Z</time>
      </trkpt>
      <trkpt lat="42.8388970" lon="-7.7313150">
        <ele>686.6</ele>
        <time>2020-10-19T09:57:15Z</time>
      </trkpt>
      <trkpt lat="42.8389050" lon="-7.7313280">
        <ele>686.6</ele>
        <time>2020-10-19T09:57:16Z</time>
      </trkpt>
      <trkpt lat="42.8389120" lon="-7.7313400">
        <ele>686.5</ele>
        <time>2020-10-19T09:57:17Z</time>
      </trkpt>
      <trkpt lat="42.8389190" lon="-7.7313520">
        <ele>686.5</ele>
        <time>2020-10-19T09:57:18Z</time>
      </trkpt>
      <trkpt lat="42.8389260" lon="-7.7313640">
        <ele>686.5</ele>
        <time>2020-10-19T09:57:19Z</time>
      </trkpt>
      <trkpt lat="42.8389350" lon="-7.7313750">
        <ele>686.5</ele>
        <time>2020-10-19T09:57:20Z</time>
      </trkpt>
      <trkpt lat="42.8389450" lon="-7.7313850">
        <ele>686.5</ele>
        <time>2020-10-19T09:57:21Z</time>
      </trkpt>
      <trkpt lat="42.8389540" lon="-7.7313960">
        <ele>686.5</ele>
        <time>2020-10-19T09:57:22Z</time>
      </trkpt>
      <trkpt lat="42.8389630" lon="-7.7314080">
        <ele>686.5</ele>
        <time>2020-10-19T09:57:23Z</time>
      </trkpt>
      <trkpt lat="42.8389720" lon="-7.7314190">
        <ele>686.5</ele>
        <time>2020-10-19T09:57:24Z</time>
      </trkpt>
      <trkpt lat="42.8389800" lon="-7.7314300">
        <ele>686.4</ele>
        <time>2020-10-19T09:57:25Z</time>
      </trkpt>
      <trkpt lat="42.8389890" lon="-7.7314400">
        <ele>686.4</ele>
        <time>2020-10-19T09:57:26Z</time>
      </trkpt>
      <trkpt lat="42.8389990" lon="-7.7314490">
        <ele>686.4</ele>
        <time>2020-10-19T09:57:27Z</time>
      </trkpt>
      <trkpt lat="42.8390090" lon="-7.7314570">
        <ele>686.4</ele>
        <time>2020-10-19T09:57:28Z</time>
      </trkpt>
      <trkpt lat="42.8390190" lon="-7.7314660">
        <ele>686.4</ele>
        <time>2020-10-19T09:57:29Z</time>
      </trkpt>
      <trkpt lat="42.8390290" lon="-7.7314750">
        <ele>686.4</ele>
        <time>2020-10-19T09:57:30Z</time>
      </trkpt>
      <trkpt lat="42.8390390" lon="-7.7314830">
        <ele>686.4</ele>
        <time>2020-10-19T09:57:31Z</time>
      </trkpt>
      <trkpt lat="42.8390490" lon="-7.7314910">
        <ele>686.4</ele>
        <time>2020-10-19T09:57:32Z</time>
      </trkpt>
      <trkpt lat="42.8390590" lon="-7.7314980">
        <ele>686.3</ele>
        <time>2020-10-19T09:57:33Z</time>
      </trkpt>
      <trkpt lat="42.8390680" lon="-7.7315120">
        <ele>686.3</ele>
        <time>2020-10-19T09:57:34Z</time>
      </trkpt>
      <trkpt lat="42.8390770" lon="-7.7315260">
        <ele>686.3</ele>
        <time>2020-10-19T09:57:35Z</time>
      </trkpt>
      <trkpt lat="42.8390850" lon="-7.7315410">
        <ele>686.3</ele>
        <time>2020-10-19T09:57:36Z</time>
      </trkpt>
      <trkpt lat="42.8390950" lon="-7.7315510">
        <ele>686.3</ele>
        <time>2020-10-19T09:57:37Z</time>
      </trkpt>
      <trkpt lat="42.8391040" lon="-7.7315610">
        <ele>686.3</ele>
        <time>2020-10-19T09:57:38Z</time>
      </trkpt>
      <trkpt lat="42.8391140" lon="-7.7315720">
        <ele>686.3</ele>
        <time>2020-10-19T09:57:39Z</time>
      </trkpt>
      <trkpt lat="42.8391230" lon="-7.7315840">
        <ele>686.2</ele>
        <time>2020-10-19T09:57:40Z</time>
      </trkpt>
      <trkpt lat="42.8391300" lon="-7.7315960">
        <ele>686.2</ele>
        <time>2020-10-19T09:57:41Z</time>
      </trkpt>
      <trkpt lat="42.8391390" lon="-7.7316050">
        <ele>686.2</ele>
        <time>2020-10-19T09:57:42Z</time>
      </trkpt>
      <trkpt lat="42.8391470" lon="-7.7316150">
        <ele>686.2</ele>
        <time>2020-10-19T09:57:43Z</time>
      </trkpt>
      <trkpt lat="42.8391560" lon="-7.7316250">
        <ele>686.2</ele>
        <time>2020-10-19T09:57:44Z</time>
      </trkpt>
      <trkpt lat="42.8391640" lon="-7.7316370">
        <ele>686.2</ele>
        <time>2020-10-19T09:57:45Z</time>
      </trkpt>
      <trkpt lat="42.8391740" lon="-7.7316470">
        <ele>686.2</ele>
        <time>2020-10-19T09:57:46Z</time>
      </trkpt>
      <trkpt lat="42.8391840" lon="-7.7316580">
        <ele>686.1</ele>
        <time>2020-10-19T09:57:47Z</time>
      </trkpt>
      <trkpt lat="42.8391930" lon="-7.7316680">
        <ele>686.1</ele>
        <time>2020-10-19T09:57:48Z</time>
      </trkpt>
      <trkpt lat="42.8392030" lon="-7.7316780">
        <ele>686.1</ele>
        <time>2020-10-19T09:57:49Z</time>
      </trkpt>
      <trkpt lat="42.8392130" lon="-7.7316880">
        <ele>686.1</ele>
        <time>2020-10-19T09:57:50Z</time>
      </trkpt>
      <trkpt lat="42.8392230" lon="-7.7316970">
        <ele>686.1</ele>
        <time>2020-10-19T09:57:51Z</time>
      </trkpt>
      <trkpt lat="42.8392340" lon="-7.7317060">
        <ele>686.1</ele>
        <time>2020-10-19T09:57:52Z</time>
      </trkpt>
      <trkpt lat="42.8392450" lon="-7.7317140">
        <ele>686.1</ele>
        <time>2020-10-19T09:57:53Z</time>
      </trkpt>
      <trkpt lat="42.8392540" lon="-7.7317220">
        <ele>686.0</ele>
        <time>2020-10-19T09:57:54Z</time>
      </trkpt>
      <trkpt lat="42.8392640" lon="-7.7317310">
        <ele>686.0</ele>
        <time>2020-10-19T09:57:55Z</time>
      </trkpt>
      <trkpt lat="42.8392730" lon="-7.7317410">
        <ele>686.0</ele>
        <time>2020-10-19T09:57:56Z</time>
      </trkpt>
      <trkpt lat="42.8392830" lon="-7.7317510">
        <ele>686.0</ele>
        <time>2020-10-19T09:57:57Z</time>
      </trkpt>
      <trkpt lat="42.8392940" lon="-7.7317600">
        <ele>686.0</ele>
        <time>2020-10-19T09:57:58Z</time>
      </trkpt>
      <trkpt lat="42.8393050" lon="-7.7317670">
        <ele>686.0</ele>
        <time>2020-10-19T09:57:59Z</time>
      </trkpt>
      <trkpt lat="42.8393160" lon="-7.7317750">
        <ele>685.9</ele>
        <time>2020-10-19T09:58:00Z</time>
      </trkpt>
      <trkpt lat="42.8393260" lon="-7.7317830">
        <ele>685.9</ele>
        <time>2020-10-19T09:58:01Z</time>
      </trkpt>
      <trkpt lat="42.8393380" lon="-7.7317910">
        <ele>685.9</ele>
        <time>2020-10-19T09:58:02Z</time>
      </trkpt>
      <trkpt lat="42.8393510" lon="-7.7317990">
        <ele>685.9</ele>
        <time>2020-10-19T09:58:03Z</time>
      </trkpt>
      <trkpt lat="42.8393630" lon="-7.7318080">
        <ele>685.9</ele>
        <time>2020-10-19T09:58:04Z</time>
      </trkpt>
      <trkpt lat="42.8393740" lon="-7.7318180">
        <ele>685.8</ele>
        <time>2020-10-19T09:58:05Z</time>
      </trkpt>
      <trkpt lat="42.8393840" lon="-7.7318290">
        <ele>685.8</ele>
        <time>2020-10-19T09:58:06Z</time>
      </trkpt>
      <trkpt lat="42.8393950" lon="-7.7318410">
        <ele>685.8</ele>
        <time>2020-10-19T09:58:07Z</time>
      </trkpt>
      <trkpt lat="42.8394040" lon="-7.7318530">
        <ele>685.8</ele>
        <time>2020-10-19T09:58:08Z</time>
      </trkpt>
      <trkpt lat="42.8394130" lon="-7.7318650">
        <ele>685.8</ele>
        <time>2020-10-19T09:58:09Z</time>
      </trkpt>
      <trkpt lat="42.8394230" lon="-7.7318770">
        <ele>685.7</ele>
        <time>2020-10-19T09:58:10Z</time>
      </trkpt>
      <trkpt lat="42.8394330" lon="-7.7318880">
        <ele>685.7</ele>
        <time>2020-10-19T09:58:11Z</time>
      </trkpt>
      <trkpt lat="42.8394430" lon="-7.7319000">
        <ele>685.7</ele>
        <time>2020-10-19T09:58:12Z</time>
      </trkpt>
      <trkpt lat="42.8394530" lon="-7.7319120">
        <ele>685.7</ele>
        <time>2020-10-19T09:58:13Z</time>
      </trkpt>
      <trkpt lat="42.8394640" lon="-7.7319240">
        <ele>685.6</ele>
        <time>2020-10-19T09:58:14Z</time>
      </trkpt>
      <trkpt lat="42.8394730" lon="-7.7319350">
        <ele>685.6</ele>
        <time>2020-10-19T09:58:15Z</time>
      </trkpt>
      <trkpt lat="42.8394820" lon="-7.7319480">
        <ele>685.6</ele>
        <time>2020-10-19T09:58:16Z</time>
      </trkpt>
      <trkpt lat="42.8394910" lon="-7.7319600">
        <ele>685.6</ele>
        <time>2020-10-19T09:58:17Z</time>
      </trkpt>
      <trkpt lat="42.8395010" lon="-7.7319720">
        <ele>685.5</ele>
        <time>2020-10-19T09:58:18Z</time>
      </trkpt>
      <trkpt lat="42.8395130" lon="-7.7319830">
        <ele>685.5</ele>
        <time>2020-10-19T09:58:19Z</time>
      </trkpt>
      <trkpt lat="42.8395240" lon="-7.7319940">
        <ele>685.5</ele>
        <time>2020-10-19T09:58:20Z</time>
      </trkpt>
      <trkpt lat="42.8395350" lon="-7.7320060">
        <ele>685.5</ele>
        <time>2020-10-19T09:58:21Z</time>
      </trkpt>
      <trkpt lat="42.8395450" lon="-7.7320180">
        <ele>685.4</ele>
        <time>2020-10-19T09:58:22Z</time>
      </trkpt>
      <trkpt lat="42.8395550" lon="-7.7320290">
        <ele>685.4</ele>
        <time>2020-10-19T09:58:23Z</time>
      </trkpt>
      <trkpt lat="42.8395660" lon="-7.7320400">
        <ele>685.4</ele>
        <time>2020-10-19T09:58:24Z</time>
      </trkpt>
      <trkpt lat="42.8395770" lon="-7.7320510">
        <ele>685.4</ele>
        <time>2020-10-19T09:58:25Z</time>
      </trkpt>
      <trkpt lat="42.8395870" lon="-7.7320620">
        <ele>685.3</ele>
        <time>2020-10-19T09:58:26Z</time>
      </trkpt>
      <trkpt lat="42.8395970" lon="-7.7320740">
        <ele>685.3</ele>
        <time>2020-10-19T09:58:27Z</time>
      </trkpt>
      <trkpt lat="42.8396070" lon="-7.7320850">
        <ele>685.3</ele>
        <time>2020-10-19T09:58:28Z</time>
      </trkpt>
      <trkpt lat="42.8396170" lon="-7.7320960">
        <ele>685.3</ele>
        <time>2020-10-19T09:58:29Z</time>
      </trkpt>
      <trkpt lat="42.8396280" lon="-7.7321040">
        <ele>685.2</ele>
        <time>2020-10-19T09:58:30Z</time>
      </trkpt>
      <trkpt lat="42.8396370" lon="-7.7321160">
        <ele>685.2</ele>
        <time>2020-10-19T09:58:31Z</time>
      </trkpt>
      <trkpt lat="42.8396470" lon="-7.7321270">
        <ele>685.2</ele>
        <time>2020-10-19T09:58:32Z</time>
      </trkpt>
      <trkpt lat="42.8396580" lon="-7.7321400">
        <ele>685.2</ele>
        <time>2020-10-19T09:58:33Z</time>
      </trkpt>
      <trkpt lat="42.8396680" lon="-7.7321520">
        <ele>685.1</ele>
        <time>2020-10-19T09:58:34Z</time>
      </trkpt>
      <trkpt lat="42.8396770" lon="-7.7321630">
        <ele>685.1</ele>
        <time>2020-10-19T09:58:35Z</time>
      </trkpt>
      <trkpt lat="42.8396870" lon="-7.7321750">
        <ele>685.1</ele>
        <time>2020-10-19T09:58:36Z</time>
      </trkpt>
      <trkpt lat="42.8396960" lon="-7.7321860">
        <ele>685.1</ele>
        <time>2020-10-19T09:58:37Z</time>
      </trkpt>
      <trkpt lat="42.8397060" lon="-7.7321970">
        <ele>685.0</ele>
        <time>2020-10-19T09:58:38Z</time>
      </trkpt>
      <trkpt lat="42.8397170" lon="-7.7322080">
        <ele>685.0</ele>
        <time>2020-10-19T09:58:39Z</time>
      </trkpt>
      <trkpt lat="42.8397280" lon="-7.7322200">
        <ele>685.0</ele>
        <time>2020-10-19T09:58:40Z</time>
      </trkpt>
      <trkpt lat="42.8397380" lon="-7.7322320">
        <ele>685.0</ele>
        <time>2020-10-19T09:58:41Z</time>
      </trkpt>
      <trkpt lat="42.8397470" lon="-7.7322450">
        <ele>684.9</ele>
        <time>2020-10-19T09:58:42Z</time>
      </trkpt>
      <trkpt lat="42.8397560" lon="-7.7322580">
        <ele>684.9</ele>
        <time>2020-10-19T09:58:43Z</time>
      </trkpt>
      <trkpt lat="42.8397650" lon="-7.7322700">
        <ele>684.9</ele>
        <time>2020-10-19T09:58:44Z</time>
      </trkpt>
      <trkpt lat="42.8397730" lon="-7.7322840">
        <ele>684.8</ele>
        <time>2020-10-19T09:58:45Z</time>
      </trkpt>
      <trkpt lat="42.8397810" lon="-7.7322970">
        <ele>684.8</ele>
        <time>2020-10-19T09:58:46Z</time>
      </trkpt>
      <trkpt lat="42.8397880" lon="-7.7323110">
        <ele>684.8</ele>
        <time>2020-10-19T09:58:47Z</time>
      </trkpt>
      <trkpt lat="42.8397970" lon="-7.7323250">
        <ele>684.7</ele>
        <time>2020-10-19T09:58:48Z</time>
      </trkpt>
      <trkpt lat="42.8398040" lon="-7.7323390">
        <ele>684.7</ele>
        <time>2020-10-19T09:58:49Z</time>
      </trkpt>
      <trkpt lat="42.8398120" lon="-7.7323530">
        <ele>684.7</ele>
        <time>2020-10-19T09:58:50Z</time>
      </trkpt>
      <trkpt lat="42.8398190" lon="-7.7323660">
        <ele>684.6</ele>
        <time>2020-10-19T09:58:51Z</time>
      </trkpt>
      <trkpt lat="42.8398260" lon="-7.7323800">
        <ele>684.6</ele>
        <time>2020-10-19T09:58:52Z</time>
      </trkpt>
      <trkpt lat="42.8398320" lon="-7.7323940">
        <ele>684.6</ele>
        <time>2020-10-19T09:58:53Z</time>
      </trkpt>
      <trkpt lat="42.8398400" lon="-7.7324070">
        <ele>684.5</ele>
        <time>2020-10-19T09:58:54Z</time>
      </trkpt>
      <trkpt lat="42.8398460" lon="-7.7324210">
        <ele>684.5</ele>
        <time>2020-10-19T09:58:55Z</time>
      </trkpt>
      <trkpt lat="42.8398520" lon="-7.7324340">
        <ele>684.4</ele>
        <time>2020-10-19T09:58:56Z</time>
      </trkpt>
      <trkpt lat="42.8398600" lon="-7.7324470">
        <ele>684.4</ele>
        <time>2020-10-19T09:58:57Z</time>
      </trkpt>
      <trkpt lat="42.8398670" lon="-7.7324600">
        <ele>684.3</ele>
        <time>2020-10-19T09:58:58Z</time>
      </trkpt>
      <trkpt lat="42.8398750" lon="-7.7324720">
        <ele>684.3</ele>
        <time>2020-10-19T09:58:59Z</time>
      </trkpt>
      <trkpt lat="42.8398810" lon="-7.7324820">
        <ele>684.3</ele>
        <time>2020-10-19T09:59:00Z</time>
      </trkpt>
      <trkpt lat="42.8398890" lon="-7.7324930">
        <ele>684.2</ele>
        <time>2020-10-19T09:59:01Z</time>
      </trkpt>
      <trkpt lat="42.8398970" lon="-7.7325030">
        <ele>684.2</ele>
        <time>2020-10-19T09:59:02Z</time>
      </trkpt>
      <trkpt lat="42.8399050" lon="-7.7325140">
        <ele>684.1</ele>
        <time>2020-10-19T09:59:03Z</time>
      </trkpt>
      <trkpt lat="42.8399130" lon="-7.7325250">
        <ele>684.1</ele>
        <time>2020-10-19T09:59:04Z</time>
      </trkpt>
      <trkpt lat="42.8399210" lon="-7.7325380">
        <ele>684.0</ele>
        <time>2020-10-19T09:59:05Z</time>
      </trkpt>
      <trkpt lat="42.8399290" lon="-7.7325520">
        <ele>684.0</ele>
        <time>2020-10-19T09:59:06Z</time>
      </trkpt>
      <trkpt lat="42.8399370" lon="-7.7325650">
        <ele>683.9</ele>
        <time>2020-10-19T09:59:07Z</time>
      </trkpt>
      <trkpt lat="42.8399430" lon="-7.7325780">
        <ele>683.8</ele>
        <time>2020-10-19T09:59:08Z</time>
      </trkpt>
      <trkpt lat="42.8399490" lon="-7.7325920">
        <ele>683.8</ele>
        <time>2020-10-19T09:59:09Z</time>
      </trkpt>
      <trkpt lat="42.8399550" lon="-7.7326060">
        <ele>683.7</ele>
        <time>2020-10-19T09:59:10Z</time>
      </trkpt>
      <trkpt lat="42.8399620" lon="-7.7326190">
        <ele>683.6</ele>
        <time>2020-10-19T09:59:11Z</time>
      </trkpt>
      <trkpt lat="42.8399690" lon="-7.7326330">
        <ele>683.6</ele>
        <time>2020-10-19T09:59:12Z</time>
      </trkpt>
      <trkpt lat="42.8399750" lon="-7.7326480">
        <ele>683.5</ele>
        <time>2020-10-19T09:59:13Z</time>
      </trkpt>
      <trkpt lat="42.8399800" lon="-7.7326640">
        <ele>683.4</ele>
        <time>2020-10-19T09:59:14Z</time>
      </trkpt>
      <trkpt lat="42.8399850" lon="-7.7326810">
        <ele>683.3</ele>
        <time>2020-10-19T09:59:15Z</time>
      </trkpt>
      <trkpt lat="42.8399910" lon="-7.7326960">
        <ele>683.3</ele>
        <time>2020-10-19T09:59:16Z</time>
      </trkpt>
      <trkpt lat="42.8399970" lon="-7.7327120">
        <ele>683.2</ele>
        <time>2020-10-19T09:59:17Z</time>
      </trkpt>
      <trkpt lat="42.8400030" lon="-7.7327280">
        <ele>683.1</ele>
        <time>2020-10-19T09:59:18Z</time>
      </trkpt>
      <trkpt lat="42.8400090" lon="-7.7327460">
        <ele>683.0</ele>
        <time>2020-10-19T09:59:19Z</time>
      </trkpt>
      <trkpt lat="42.8400160" lon="-7.7327630">
        <ele>682.8</ele>
        <time>2020-10-19T09:59:20Z</time>
      </trkpt>
      <trkpt lat="42.8400240" lon="-7.7327780">
        <ele>682.7</ele>
        <time>2020-10-19T09:59:21Z</time>
      </trkpt>
      <trkpt lat="42.8400310" lon="-7.7327930">
        <ele>682.6</ele>
        <time>2020-10-19T09:59:22Z</time>
      </trkpt>
      <trkpt lat="42.8400360" lon="-7.7328080">
        <ele>682.5</ele>
        <time>2020-10-19T09:59:23Z</time>
      </trkpt>
      <trkpt lat="42.8400420" lon="-7.7328240">
        <ele>682.4</ele>
        <time>2020-10-19T09:59:24Z</time>
      </trkpt>
      <trkpt lat="42.8400470" lon="-7.7328390">
        <ele>682.3</ele>
        <time>2020-10-19T09:59:25Z</time>
      </trkpt>
      <trkpt lat="42.8400520" lon="-7.7328530">
        <ele>682.2</ele>
        <time>2020-10-19T09:59:26Z</time>
      </trkpt>
      <trkpt lat="42.8400580" lon="-7.7328680">
        <ele>682.1</ele>
        <time>2020-10-19T09:59:27Z</time>
      </trkpt>
      <trkpt lat="42.8400640" lon="-7.7328830">
        <ele>682.0</ele>
        <time>2020-10-19T09:59:28Z</time>
      </trkpt>
      <trkpt lat="42.8400690" lon="-7.7328970">
        <ele>681.9</ele>
        <time>2020-10-19T09:59:29Z</time>
      </trkpt>
      <trkpt lat="42.8400740" lon="-7.7329110">
        <ele>681.8</ele>
        <time>2020-10-19T09:59:30Z</time>
      </trkpt>
      <trkpt lat="42.8400810" lon="-7.7329250">
        <ele>681.7</ele>
        <time>2020-10-19T09:59:31Z</time>
      </trkpt>
      <trkpt lat="42.8400870" lon="-7.7329400">
        <ele>681.6</ele>
        <time>2020-10-19T09:59:32Z</time>
      </trkpt>
      <trkpt lat="42.8400930" lon="-7.7329550">
        <ele>681.4</ele>
        <time>2020-10-19T09:59:33Z</time>
      </trkpt>
      <trkpt lat="42.8400990" lon="-7.7329700">
        <ele>681.3</ele>
        <time>2020-10-19T09:59:34Z</time>
      </trkpt>
      <trkpt lat="42.8401040" lon="-7.7329840">
        <ele>681.2</ele>
        <time>2020-10-19T09:59:35Z</time>
      </trkpt>
      <trkpt lat="42.8401090" lon="-7.7329980">
        <ele>681.1</ele>
        <time>2020-10-19T09:59:36Z</time>
      </trkpt>
      <trkpt lat="42.8401140" lon="-7.7330110">
        <ele>681.0</ele>
        <time>2020-10-19T09:59:37Z</time>
      </trkpt>
      <trkpt lat="42.8401200" lon="-7.7330250">
        <ele>680.9</ele>
        <time>2020-10-19T09:59:38Z</time>
      </trkpt>
      <trkpt lat="42.8401270" lon="-7.7330370">
        <ele>680.8</ele>
        <time>2020-10-19T09:59:39Z</time>
      </trkpt>
      <trkpt lat="42.8401360" lon="-7.7330500">
        <ele>680.7</ele>
        <time>2020-10-19T09:59:40Z</time>
      </trkpt>
      <trkpt lat="42.8401440" lon="-7.7330620">
        <ele>680.6</ele>
        <time>2020-10-19T09:59:41Z</time>
      </trkpt>
      <trkpt lat="42.8401510" lon="-7.7330750">
        <ele>680.5</ele>
        <time>2020-10-19T09:59:42Z</time>
      </trkpt>
      <trkpt lat="42.8401580" lon="-7.7330870">
        <ele>680.4</ele>
        <time>2020-10-19T09:59:43Z</time>
      </trkpt>
      <trkpt lat="42.8401650" lon="-7.7331000">
        <ele>680.3</ele>
        <time>2020-10-19T09:59:44Z</time>
      </trkpt>
      <trkpt lat="42.8401710" lon="-7.7331150">
        <ele>680.2</ele>
        <time>2020-10-19T09:59:45Z</time>
      </trkpt>
      <trkpt lat="42.8401760" lon="-7.7331300">
        <ele>680.0</ele>
        <time>2020-10-19T09:59:46Z</time>
      </trkpt>
      <trkpt lat="42.8401810" lon="-7.7331450">
        <ele>679.9</ele>
        <time>2020-10-19T09:59:47Z</time>
      </trkpt>
      <trkpt lat="42.8401870" lon="-7.7331620">
        <ele>679.8</ele>
        <time>2020-10-19T09:59:48Z</time>
      </trkpt>
      <trkpt lat="42.8401930" lon="-7.7331770">
        <ele>679.7</ele>
        <time>2020-10-19T09:59:49Z</time>
      </trkpt>
      <trkpt lat="42.8401990" lon="-7.7331940">
        <ele>679.6</ele>
        <time>2020-10-19T09:59:50Z</time>
      </trkpt>
      <trkpt lat="42.8402060" lon="-7.7332080">
        <ele>679.5</ele>
        <time>2020-10-19T09:59:51Z</time>
      </trkpt>
      <trkpt lat="42.8402130" lon="-7.7332220">
        <ele>679.3</ele>
        <time>2020-10-19T09:59:52Z</time>
      </trkpt>
      <trkpt lat="42.8402210" lon="-7.7332340">
        <ele>679.2</ele>
        <time>2020-10-19T09:59:53Z</time>
      </trkpt>
      <trkpt lat="42.8402290" lon="-7.7332450">
        <ele>679.1</ele>
        <time>2020-10-19T09:59:54Z</time>
      </trkpt>
      <trkpt lat="42.8402370" lon="-7.7332570">
        <ele>679.0</ele>
        <time>2020-10-19T09:59:55Z</time>
      </trkpt>
      <trkpt lat="42.8402460" lon="-7.7332670">
        <ele>678.9</ele>
        <time>2020-10-19T09:59:56Z</time>
      </trkpt>
      <trkpt lat="42.8402540" lon="-7.7332760">
        <ele>678.8</ele>
        <time>2020-10-19T09:59:57Z</time>
      </trkpt>
      <trkpt lat="42.8402630" lon="-7.7332860">
        <ele>678.7</ele>
        <time>2020-10-19T09:59:58Z</time>
      </trkpt>
      <trkpt lat="42.8402730" lon="-7.7332960">
        <ele>678.6</ele>
        <time>2020-10-19T09:59:59Z</time>
      </trkpt>
      <trkpt lat="42.8402820" lon="-7.7333060">
        <ele>678.5</ele>
        <time>2020-10-19T10:00:00Z</time>
      </trkpt>
      <trkpt lat="42.8402910" lon="-7.7333160">
        <ele>678.4</ele>
        <time>2020-10-19T10:00:01Z</time>
      </trkpt>
      <trkpt lat="42.8403010" lon="-7.7333240">
        <ele>678.3</ele>
        <time>2020-10-19T10:00:02Z</time>
      </trkpt>
      <trkpt lat="42.8403100" lon="-7.7333330">
        <ele>678.2</ele>
        <time>2020-10-19T10:00:03Z</time>
      </trkpt>
      <trkpt lat="42.8403190" lon="-7.7333410">
        <ele>678.1</ele>
        <time>2020-10-19T10:00:04Z</time>
      </trkpt>
      <trkpt lat="42.8403260" lon="-7.7333530">
        <ele>678.0</ele>
        <time>2020-10-19T10:00:05Z</time>
      </trkpt>
      <trkpt lat="42.8403340" lon="-7.7333640">
        <ele>677.9</ele>
        <time>2020-10-19T10:00:06Z</time>
      </trkpt>
      <trkpt lat="42.8403400" lon="-7.7333760">
        <ele>677.8</ele>
        <time>2020-10-19T10:00:07Z</time>
      </trkpt>
      <trkpt lat="42.8403450" lon="-7.7333880">
        <ele>677.7</ele>
        <time>2020-10-19T10:00:08Z</time>
      </trkpt>
      <trkpt lat="42.8403490" lon="-7.7334020">
        <ele>677.6</ele>
        <time>2020-10-19T10:00:09Z</time>
      </trkpt>
      <trkpt lat="42.8403560" lon="-7.7334140">
        <ele>677.5</ele>
        <time>2020-10-19T10:00:10Z</time>
      </trkpt>
      <trkpt lat="42.8403630" lon="-7.7334280">
        <ele>677.3</ele>
        <time>2020-10-19T10:00:11Z</time>
      </trkpt>
      <trkpt lat="42.8403710" lon="-7.7334410">
        <ele>677.2</ele>
        <time>2020-10-19T10:00:12Z</time>
      </trkpt>
      <trkpt lat="42.8403790" lon="-7.7334550">
        <ele>677.1</ele>
        <time>2020-10-19T10:00:13Z</time>
      </trkpt>
      <trkpt lat="42.8403860" lon="-7.7334690">
        <ele>677.0</ele>
        <time>2020-10-19T10:00:14Z</time>
      </trkpt>
      <trkpt lat="42.8403940" lon="-7.7334820">
        <ele>676.9</ele>
        <time>2020-10-19T10:00:15Z</time>
      </trkpt>
      <trkpt lat="42.8404020" lon="-7.7334950">
        <ele>676.7</ele>
        <time>2020-10-19T10:00:16Z</time>
      </trkpt>
      <trkpt lat="42.8404090" lon="-7.7335070">
        <ele>676.7</ele>
        <time>2020-10-19T10:00:17Z</time>
      </trkpt>
      <trkpt lat="42.8404170" lon="-7.7335180">
        <ele>676.7</ele>
        <time>2020-10-19T10:00:18Z</time>
      </trkpt>
      <trkpt lat="42.8404250" lon="-7.7335280">
        <ele>676.7</ele>
        <time>2020-10-19T10:00:19Z</time>
      </trkpt>
      <trkpt lat="42.8404320" lon="-7.7335390">
        <ele>676.7</ele>
        <time>2020-10-19T10:00:20Z</time>
      </trkpt>
      <trkpt lat="42.8404400" lon="-7.7335500">
        <ele>676.6</ele>
        <time>2020-10-19T10:00:21Z</time>
      </trkpt>
      <trkpt lat="42.8404480" lon="-7.7335610">
        <ele>676.6</ele>
        <time>2020-10-19T10:00:22Z</time>
      </trkpt>
      <trkpt lat="42.8404570" lon="-7.7335660">
        <ele>676.6</ele>
        <time>2020-10-19T10:00:23Z</time>
      </trkpt>
      <trkpt lat="42.8404630" lon="-7.7335690">
        <ele>676.6</ele>
        <time>2020-10-19T10:00:24Z</time>
      </trkpt>
      <trkpt lat="42.8404660" lon="-7.7335710">
        <ele>676.6</ele>
        <time>2020-10-19T10:00:25Z</time>
      </trkpt>
      <trkpt lat="42.8404640" lon="-7.7335750">
        <ele>676.6</ele>
        <time>2020-10-19T10:00:26Z</time>
      </trkpt>
      <trkpt lat="42.8404610" lon="-7.7335790">
        <ele>676.6</ele>
        <time>2020-10-19T10:00:27Z</time>
      </trkpt>
      <trkpt lat="42.8404580" lon="-7.7335810">
        <ele>676.6</ele>
        <time>2020-10-19T10:00:28Z</time>
      </trkpt>
      <trkpt lat="42.8404560" lon="-7.7335840">
        <ele>676.6</ele>
        <time>2020-10-19T10:00:29Z</time>
      </trkpt>
      <trkpt lat="42.8404550" lon="-7.7335870">
        <ele>676.6</ele>
        <time>2020-10-19T10:00:30Z</time>
      </trkpt>
      <trkpt lat="42.8404530" lon="-7.7335910">
        <ele>676.6</ele>
        <time>2020-10-19T10:00:31Z</time>
      </trkpt>
      <trkpt lat="42.8404520" lon="-7.7335940">
        <ele>676.6</ele>
        <time>2020-10-19T10:00:32Z</time>
      </trkpt>
      <trkpt lat="42.8404510" lon="-7.7335950">
        <ele>676.6</ele>
        <time>2020-10-19T10:00:33Z</time>
      </trkpt>
      <trkpt lat="42.8404510" lon="-7.7335950">
        <ele>676.6</ele>
        <time>2020-10-19T10:00:34Z</time>
      </trkpt>
      <trkpt lat="42.8404500" lon="-7.7335950">
        <ele>676.6</ele>
        <time>2020-10-19T10:00:35Z</time>
      </trkpt>
      <trkpt lat="42.8404490" lon="-7.7336040">
        <ele>676.6</ele>
        <time>2020-10-19T10:00:36Z</time>
      </trkpt>
      <trkpt lat="42.8404500" lon="-7.7336170">
        <ele>676.5</ele>
        <time>2020-10-19T10:00:37Z</time>
      </trkpt>
      <trkpt lat="42.8404520" lon="-7.7336340">
        <ele>676.5</ele>
        <time>2020-10-19T10:00:38Z</time>
      </trkpt>
      <trkpt lat="42.8404570" lon="-7.7336440">
        <ele>676.5</ele>
        <time>2020-10-19T10:00:39Z</time>
      </trkpt>
      <trkpt lat="42.8404630" lon="-7.7336510">
        <ele>676.5</ele>
        <time>2020-10-19T10:00:40Z</time>
      </trkpt>
      <trkpt lat="42.8404700" lon="-7.7336530">
        <ele>676.5</ele>
        <time>2020-10-19T10:00:41Z</time>
      </trkpt>
      <trkpt lat="42.8404780" lon="-7.7336540">
        <ele>676.5</ele>
        <time>2020-10-19T10:00:42Z</time>
      </trkpt>
      <trkpt lat="42.8404850" lon="-7.7336520">
        <ele>676.5</ele>
        <time>2020-10-19T10:00:43Z</time>
      </trkpt>
      <trkpt lat="42.8404900" lon="-7.7336490">
        <ele>676.5</ele>
        <time>2020-10-19T10:00:44Z</time>
      </trkpt>
      <trkpt lat="42.8404940" lon="-7.7336460">
        <ele>676.4</ele>
        <time>2020-10-19T10:00:45Z</time>
      </trkpt>
      <trkpt lat="42.8404950" lon="-7.7336450">
        <ele>676.4</ele>
        <time>2020-10-19T10:00:46Z</time>
      </trkpt>
      <trkpt lat="42.8404960" lon="-7.7336460">
        <ele>676.4</ele>
        <time>2020-10-19T10:00:47Z</time>
      </trkpt>
      <trkpt lat="42.8404950" lon="-7.7336470">
        <ele>676.4</ele>
        <time>2020-10-19T10:00:48Z</time>
      </trkpt>
      <trkpt lat="42.8404960" lon="-7.7336510">
        <ele>676.4</ele>
        <time>2020-10-19T10:00:49Z</time>
      </trkpt>
      <trkpt lat="42.8404980" lon="-7.7336580">
        <ele>676.4</ele>
        <time>2020-10-19T10:00:50Z</time>
      </trkpt>
      <trkpt lat="42.8405010" lon="-7.7336690">
        <ele>676.4</ele>
        <time>2020-10-19T10:00:51Z</time>
      </trkpt>
      <trkpt lat="42.8405040" lon="-7.7336800">
        <ele>676.4</ele>
        <time>2020-10-19T10:00:52Z</time>
      </trkpt>
      <trkpt lat="42.8405080" lon="-7.7336900">
        <ele>676.4</ele>
        <time>2020-10-19T10:00:53Z</time>
      </trkpt>
      <trkpt lat="42.8405110" lon="-7.7336990">
        <ele>676.4</ele>
        <time>2020-10-19T10:00:54Z</time>
      </trkpt>
      <trkpt lat="42.8405160" lon="-7.7337060">
        <ele>676.4</ele>
        <time>2020-10-19T10:00:55Z</time>
      </trkpt>
      <trkpt lat="42.8405220" lon="-7.7337120">
        <ele>676.4</ele>
        <time>2020-10-19T10:00:56Z</time>
      </trkpt>
      <trkpt lat="42.8405280" lon="-7.7337160">
        <ele>676.3</ele>
        <time>2020-10-19T10:00:57Z</time>
      </trkpt>
      <trkpt lat="42.8405330" lon="-7.7337190">
        <ele>676.3</ele>
        <time>2020-10-19T10:00:58Z</time>
      </trkpt>
      <trkpt lat="42.8405350" lon="-7.7337210">
        <ele>676.3</ele>
        <time>2020-10-19T10:00:59Z</time>
      </trkpt>
      <trkpt lat="42.8405360" lon="-7.7337220">
        <ele>676.3</ele>
        <time>2020-10-19T10:01:00Z</time>
      </trkpt>
      <trkpt lat="42.8405350" lon="-7.7337210">
        <ele>676.3</ele>
        <time>2020-10-19T10:01:01Z</time>
      </trkpt>
      <trkpt lat="42.8405360" lon="-7.7337210">
        <ele>676.3</ele>
        <time>2020-10-19T10:01:02Z</time>
      </trkpt>
      <trkpt lat="42.8405380" lon="-7.7337210">
        <ele>676.3</ele>
        <time>2020-10-19T10:01:03Z</time>
      </trkpt>
      <trkpt lat="42.8405390" lon="-7.7337200">
        <ele>676.3</ele>
        <time>2020-10-19T10:01:04Z</time>
      </trkpt>
      <trkpt lat="42.8405400" lon="-7.7337200">
        <ele>676.3</ele>
        <time>2020-10-19T10:01:05Z</time>
      </trkpt>
      <trkpt lat="42.8405400" lon="-7.7337190">
        <ele>676.3</ele>
        <time>2020-10-19T10:01:06Z</time>
      </trkpt>
      <trkpt lat="42.8405410" lon="-7.7337180">
        <ele>676.3</ele>
        <time>2020-10-19T10:01:07Z</time>
      </trkpt>
      <trkpt lat="42.8405410" lon="-7.7337170">
        <ele>676.3</ele>
        <time>2020-10-19T10:01:08Z</time>
      </trkpt>
      <trkpt lat="42.8405410" lon="-7.7337170">
        <ele>676.3</ele>
        <time>2020-10-19T10:01:09Z</time>
      </trkpt>
      <trkpt lat="42.8405410" lon="-7.7337180">
        <ele>676.3</ele>
        <time>2020-10-19T10:01:10Z</time>
      </trkpt>
      <trkpt lat="42.8405400" lon="-7.7337190">
        <ele>676.3</ele>
        <time>2020-10-19T10:01:11Z</time>
      </trkpt>
      <trkpt lat="42.8405400" lon="-7.7337200">
        <ele>676.3</ele>
        <time>2020-10-19T10:01:12Z</time>
      </trkpt>
      <trkpt lat="42.8405390" lon="-7.7337200">
        <ele>676.3</ele>
        <time>2020-10-19T10:01:13Z</time>
      </trkpt>
      <trkpt lat="42.8405390" lon="-7.7337210">
        <ele>676.3</ele>
        <time>2020-10-19T10:01:14Z</time>
      </trkpt>
      <trkpt lat="42.8405390" lon="-7.7337210">
        <ele>676.3</ele>
        <time>2020-10-19T10:01:15Z</time>
      </trkpt>
      <trkpt lat="42.8405380" lon="-7.7337210">
        <ele>676.3</ele>
        <time>2020-10-19T10:01:16Z</time>
      </trkpt>
      <trkpt lat="42.8405390" lon="-7.7337200">
        <ele>676.3</ele>
        <time>2020-10-19T10:01:17Z</time>
      </trkpt>
      <trkpt lat="42.8405400" lon="-7.7337190">
        <ele>676.3</ele>
        <time>2020-10-19T10:01:18Z</time>
      </trkpt>
      <trkpt lat="42.8405420" lon="-7.7337190">
        <ele>676.3</ele>
        <time>2020-10-19T10:01:19Z</time>
      </trkpt>
      <trkpt lat="42.8405440" lon="-7.7337200">
        <ele>676.3</ele>
        <time>2020-10-19T10:01:20Z</time>
      </trkpt>
      <trkpt lat="42.8405430" lon="-7.7337210">
        <ele>676.3</ele>
        <time>2020-10-19T10:01:21Z</time>
      </trkpt>
      <trkpt lat="42.8405420" lon="-7.7337230">
        <ele>676.3</ele>
        <time>2020-10-19T10:01:22Z</time>
      </trkpt>
      <trkpt lat="42.8405400" lon="-7.7337250">
        <ele>676.3</ele>
        <time>2020-10-19T10:01:23Z</time>
      </trkpt>
      <trkpt lat="42.8405400" lon="-7.7337260">
        <ele>676.3</ele>
        <time>2020-10-19T10:01:24Z</time>
      </trkpt>
      <trkpt lat="42.8405410" lon="-7.7337260">
        <ele>676.3</ele>
        <time>2020-10-19T10:01:25Z</time>
      </trkpt>
      <trkpt lat="42.8405410" lon="-7.7337250">
        <ele>676.3</ele>
        <time>2020-10-19T10:01:26Z</time>
      </trkpt>
      <trkpt lat="42.8405410" lon="-7.7337240">
        <ele>676.3</ele>
        <time>2020-10-19T10:01:27Z</time>
      </trkpt>
      <trkpt lat="42.8405380" lon="-7.7337230">
        <ele>676.3</ele>
        <time>2020-10-19T10:01:28Z</time>
      </trkpt>
      <trkpt lat="42.8405340" lon="-7.7337230">
        <ele>676.3</ele>
        <time>2020-10-19T10:01:29Z</time>
      </trkpt>
      <trkpt lat="42.8405290" lon="-7.7337230">
        <ele>676.3</ele>
        <time>2020-10-19T10:01:30Z</time>
      </trkpt>
      <trkpt lat="42.8405250" lon="-7.7337220">
        <ele>676.3</ele>
        <time>2020-10-19T10:01:31Z</time>
      </trkpt>
      <trkpt lat="42.8405230" lon="-7.7337220">
        <ele>676.3</ele>
        <time>2020-10-19T10:01:32Z</time>
      </trkpt>
      <trkpt lat="42.8405220" lon="-7.7337220">
        <ele>676.3</ele>
        <time>2020-10-19T10:01:33Z</time>
      </trkpt>
      <trkpt lat="42.8405190" lon="-7.7337220">
        <ele>676.3</ele>
        <time>2020-10-19T10:01:34Z</time>
      </trkpt>
      <trkpt lat="42.8405160" lon="-7.7337220">
        <ele>676.3</ele>
        <time>2020-10-19T10:01:35Z</time>
      </trkpt>
      <trkpt lat="42.8405130" lon="-7.7337220">
        <ele>676.3</ele>
        <time>2020-10-19T10:01:36Z</time>
      </trkpt>
      <trkpt lat="42.8405130" lon="-7.7337220">
        <ele>676.3</ele>
        <time>2020-10-19T10:01:37Z</time>
      </trkpt>
      <trkpt lat="42.8405130" lon="-7.7337220">
        <ele>676.3</ele>
        <time>2020-10-19T10:01:38Z</time>
      </trkpt>
      <trkpt lat="42.8405120" lon="-7.7337220">
        <ele>676.3</ele>
        <time>2020-10-19T10:01:39Z</time>
      </trkpt>
      <trkpt lat="42.8405120" lon="-7.7337210">
        <ele>676.3</ele>
        <time>2020-10-19T10:01:40Z</time>
      </trkpt>
      <trkpt lat="42.8405140" lon="-7.7337190">
        <ele>676.3</ele>
        <time>2020-10-19T10:01:41Z</time>
      </trkpt>
      <trkpt lat="42.8405180" lon="-7.7337190">
        <ele>676.3</ele>
        <time>2020-10-19T10:01:42Z</time>
      </trkpt>
      <trkpt lat="42.8405240" lon="-7.7337210">
        <ele>676.3</ele>
        <time>2020-10-19T10:01:43Z</time>
      </trkpt>
      <trkpt lat="42.8405310" lon="-7.7337270">
        <ele>676.3</ele>
        <time>2020-10-19T10:01:44Z</time>
      </trkpt>
      <trkpt lat="42.8405380" lon="-7.7337340">
        <ele>676.3</ele>
        <time>2020-10-19T10:01:45Z</time>
      </trkpt>
      <trkpt lat="42.8405460" lon="-7.7337410">
        <ele>676.3</ele>
        <time>2020-10-19T10:01:46Z</time>
      </trkpt>
      <trkpt lat="42.8405530" lon="-7.7337490">
        <ele>676.3</ele>
        <time>2020-10-19T10:01:47Z</time>
      </trkpt>
      <trkpt lat="42.8405610" lon="-7.7337600">
        <ele>676.3</ele>
        <time>2020-10-19T10:01:48Z</time>
      </trkpt>
      <trkpt lat="42.8405680" lon="-7.7337710">
        <ele>676.3</ele>
        <time>2020-10-19T10:01:49Z</time>
      </trkpt>
      <trkpt lat="42.8405750" lon="-7.7337840">
        <ele>676.3</ele>
        <time>2020-10-19T10:01:50Z</time>
      </trkpt>
      <trkpt lat="42.8405840" lon="-7.7337960">
        <ele>676.3</ele>
        <time>2020-10-19T10:01:51Z</time>
      </trkpt>
      <trkpt lat="42.8405910" lon="-7.7338070">
        <ele>676.3</ele>
        <time>2020-10-19T10:01:52Z</time>
      </trkpt>
      <trkpt lat="42.8405990" lon="-7.7338180">
        <ele>676.3</ele>
        <time>2020-10-19T10:01:53Z</time>
      </trkpt>
      <trkpt lat="42.8406070" lon="-7.7338290">
        <ele>676.3</ele>
        <time>2020-10-19T10:01:54Z</time>
      </trkpt>
      <trkpt lat="42.8406140" lon="-7.7338400">
        <ele>676.3</ele>
        <time>2020-10-19T10:01:55Z</time>
      </trkpt>
      <trkpt lat="42.8406220" lon="-7.7338510">
        <ele>676.3</ele>
        <time>2020-10-19T10:01:56Z</time>
      </trkpt>
      <trkpt lat="42.8406300" lon="-7.7338610">
        <ele>676.4</ele>
        <time>2020-10-19T10:01:57Z</time>
      </trkpt>
      <trkpt lat="42.8406380" lon="-7.7338720">
        <ele>676.4</ele>
        <time>2020-10-19T10:01:58Z</time>
      </trkpt>
      <trkpt lat="42.8406460" lon="-7.7338820">
        <ele>676.4</ele>
        <time>2020-10-19T10:01:59Z</time>
      </trkpt>
      <trkpt lat="42.8406550" lon="-7.7338920">
        <ele>676.4</ele>
        <time>2020-10-19T10:02:00Z</time>
      </trkpt>
      <trkpt lat="42.8406630" lon="-7.7339020">
        <ele>676.4</ele>
        <time>2020-10-19T10:02:01Z</time>
      </trkpt>
      <trkpt lat="42.8406710" lon="-7.7339130">
        <ele>676.4</ele>
        <time>2020-10-19T10:02:02Z</time>
      </trkpt>
      <trkpt lat="42.8406780" lon="-7.7339230">
        <ele>676.4</ele>
        <time>2020-10-19T10:02:03Z</time>
      </trkpt>
      <trkpt lat="42.8406870" lon="-7.7339330">
        <ele>676.5</ele>
        <time>2020-10-19T10:02:04Z</time>
      </trkpt>
      <trkpt lat="42.8406960" lon="-7.7339430">
        <ele>676.5</ele>
        <time>2020-10-19T10:02:05Z</time>
      </trkpt>
      <trkpt lat="42.8407040" lon="-7.7339540">
        <ele>676.5</ele>
        <time>2020-10-19T10:02:06Z</time>
      </trkpt>
      <trkpt lat="42.8407120" lon="-7.7339650">
        <ele>676.5</ele>
        <time>2020-10-19T10:02:07Z</time>
      </trkpt>
      <trkpt lat="42.8407200" lon="-7.7339760">
        <ele>676.5</ele>
        <time>2020-10-19T10:02:08Z</time>
      </trkpt>
      <trkpt lat="42.8407290" lon="-7.7339870">
        <ele>676.5</ele>
        <time>2020-10-19T10:02:09Z</time>
      </trkpt>
      <trkpt lat="42.8407380" lon="-7.7339960">
        <ele>676.5</ele>
        <time>2020-10-19T10:02:10Z</time>
      </trkpt>
      <trkpt lat="42.8407470" lon="-7.7340060">
        <ele>676.6</ele>
        <time>2020-10-19T10:02:11Z</time>
      </trkpt>
      <trkpt lat="42.8407560" lon="-7.7340140">
        <ele>676.6</ele>
        <time>2020-10-19T10:02:12Z</time>
      </trkpt>
      <trkpt lat="42.8407660" lon="-7.7340210">
        <ele>676.7</ele>
        <time>2020-10-19T10:02:13Z</time>
      </trkpt>
      <trkpt lat="42.8407750" lon="-7.7340270">
        <ele>676.7</ele>
        <time>2020-10-19T10:02:14Z</time>
      </trkpt>
      <trkpt lat="42.8407840" lon="-7.7340350">
        <ele>676.8</ele>
        <time>2020-10-19T10:02:15Z</time>
      </trkpt>
      <trkpt lat="42.8407920" lon="-7.7340440">
        <ele>676.8</ele>
        <time>2020-10-19T10:02:16Z</time>
      </trkpt>
      <trkpt lat="42.8408000" lon="-7.7340530">
        <ele>676.9</ele>
        <time>2020-10-19T10:02:17Z</time>
      </trkpt>
      <trkpt lat="42.8408080" lon="-7.7340610">
        <ele>677.0</ele>
        <time>2020-10-19T10:02:18Z</time>
      </trkpt>
      <trkpt lat="42.8408170" lon="-7.7340680">
        <ele>677.0</ele>
        <time>2020-10-19T10:02:19Z</time>
      </trkpt>
      <trkpt lat="42.8408230" lon="-7.7340740">
        <ele>677.1</ele>
        <time>2020-10-19T10:02:20Z</time>
      </trkpt>
      <trkpt lat="42.8408270" lon="-7.7340810">
        <ele>677.1</ele>
        <time>2020-10-19T10:02:21Z</time>
      </trkpt>
      <trkpt lat="42.8408300" lon="-7.7340870">
        <ele>677.1</ele>
        <time>2020-10-19T10:02:22Z</time>
      </trkpt>
      <trkpt lat="42.8408320" lon="-7.7340950">
        <ele>677.2</ele>
        <time>2020-10-19T10:02:23Z</time>
      </trkpt>
      <trkpt lat="42.8408350" lon="-7.7341050">
        <ele>677.2</ele>
        <time>2020-10-19T10:02:24Z</time>
      </trkpt>
      <trkpt lat="42.8408380" lon="-7.7341160">
        <ele>677.3</ele>
        <time>2020-10-19T10:02:25Z</time>
      </trkpt>
      <trkpt lat="42.8408410" lon="-7.7341250">
        <ele>677.3</ele>
        <time>2020-10-19T10:02:26Z</time>
      </trkpt>
      <trkpt lat="42.8408470" lon="-7.7341330">
        <ele>677.4</ele>
        <time>2020-10-19T10:02:27Z</time>
      </trkpt>
      <trkpt lat="42.8408530" lon="-7.7341400">
        <ele>677.5</ele>
        <time>2020-10-19T10:02:28Z</time>
      </trkpt>
      <trkpt lat="42.8408600" lon="-7.7341460">
        <ele>677.5</ele>
        <time>2020-10-19T10:02:29Z</time>
      </trkpt>
      <trkpt lat="42.8408660" lon="-7.7341540">
        <ele>677.6</ele>
        <time>2020-10-19T10:02:30Z</time>
      </trkpt>
      <trkpt lat="42.8408720" lon="-7.7341610">
        <ele>677.6</ele>
        <time>2020-10-19T10:02:31Z</time>
      </trkpt>
      <trkpt lat="42.8408780" lon="-7.7341680">
        <ele>677.7</ele>
        <time>2020-10-19T10:02:32Z</time>
      </trkpt>
      <trkpt lat="42.8408850" lon="-7.7341750">
        <ele>677.8</ele>
        <time>2020-10-19T10:02:33Z</time>
      </trkpt>
      <trkpt lat="42.8408940" lon="-7.7341810">
        <ele>677.8</ele>
        <time>2020-10-19T10:02:34Z</time>
      </trkpt>
      <trkpt lat="42.8409010" lon="-7.7341870">
        <ele>677.9</ele>
        <time>2020-10-19T10:02:35Z</time>
      </trkpt>
      <trkpt lat="42.8409050" lon="-7.7341910">
        <ele>677.9</ele>
        <time>2020-10-19T10:02:36Z</time>
      </trkpt>
      <trkpt lat="42.8409060" lon="-7.7341940">
        <ele>678.0</ele>
        <time>2020-10-19T10:02:37Z</time>
      </trkpt>
      <trkpt lat="42.8409060" lon="-7.7341960">
        <ele>678.0</ele>
        <time>2020-10-19T10:02:38Z</time>
      </trkpt>
      <trkpt lat="42.8409070" lon="-7.7341960">
        <ele>678.0</ele>
        <time>2020-10-19T10:02:39Z</time>
      </trkpt>
      <trkpt lat="42.8409090" lon="-7.7341980">
        <ele>678.0</ele>
        <time>2020-10-19T10:02:40Z</time>
      </trkpt>
      <trkpt lat="42.8409120" lon="-7.7342000">
        <ele>678.0</ele>
        <time>2020-10-19T10:02:41Z</time>
      </trkpt>
      <trkpt lat="42.8409160" lon="-7.7342030">
        <ele>678.1</ele>
        <time>2020-10-19T10:02:42Z</time>
      </trkpt>
      <trkpt lat="42.8409200" lon="-7.7342080">
        <ele>678.1</ele>
        <time>2020-10-19T10:02:43Z</time>
      </trkpt>
      <trkpt lat="42.8409240" lon="-7.7342150">
        <ele>678.1</ele>
        <time>2020-10-19T10:02:44Z</time>
      </trkpt>
      <trkpt lat="42.8409280" lon="-7.7342230">
        <ele>678.2</ele>
        <time>2020-10-19T10:02:45Z</time>
      </trkpt>
      <trkpt lat="42.8409320" lon="-7.7342300">
        <ele>678.2</ele>
        <time>2020-10-19T10:02:46Z</time>
      </trkpt>
      <trkpt lat="42.8409370" lon="-7.7342380">
        <ele>678.3</ele>
        <time>2020-10-19T10:02:47Z</time>
      </trkpt>
      <trkpt lat="42.8409430" lon="-7.7342440">
        <ele>678.3</ele>
        <time>2020-10-19T10:02:48Z</time>
      </trkpt>
      <trkpt lat="42.8409480" lon="-7.7342520">
        <ele>678.4</ele>
        <time>2020-10-19T10:02:49Z</time>
      </trkpt>
      <trkpt lat="42.8409530" lon="-7.7342600">
        <ele>678.4</ele>
        <time>2020-10-19T10:02:50Z</time>
      </trkpt>
      <trkpt lat="42.8409580" lon="-7.7342700">
        <ele>678.5</ele>
        <time>2020-10-19T10:02:51Z</time>
      </trkpt>
      <trkpt lat="42.8409610" lon="-7.7342770">
        <ele>678.5</ele>
        <time>2020-10-19T10:02:52Z</time>
      </trkpt>
      <trkpt lat="42.8409630" lon="-7.7342810">
        <ele>678.5</ele>
        <time>2020-10-19T10:02:53Z</time>
      </trkpt>
      <trkpt lat="42.8409640" lon="-7.7342820">
        <ele>678.5</ele>
        <time>2020-10-19T10:02:54Z</time>
      </trkpt>
      <trkpt lat="42.8409650" lon="-7.7342820">
        <ele>678.5</ele>
        <time>2020-10-19T10:02:55Z</time>
      </trkpt>
      <trkpt lat="42.8409670" lon="-7.7342820">
        <ele>678.5</ele>
        <time>2020-10-19T10:02:56Z</time>
      </trkpt>
      <trkpt lat="42.8409690" lon="-7.7342820">
        <ele>678.5</ele>
        <time>2020-10-19T10:02:57Z</time>
      </trkpt>
      <trkpt lat="42.8409710" lon="-7.7342820">
        <ele>678.5</ele>
        <time>2020-10-19T10:02:58Z</time>
      </trkpt>
      <trkpt lat="42.8409750" lon="-7.7342820">
        <ele>678.6</ele>
        <time>2020-10-19T10:02:59Z</time>
      </trkpt>
      <trkpt lat="42.8409770" lon="-7.7342820">
        <ele>678.6</ele>
        <time>2020-10-19T10:03:00Z</time>
      </trkpt>
      <trkpt lat="42.8409780" lon="-7.7342830">
        <ele>678.6</ele>
        <time>2020-10-19T10:03:01Z</time>
      </trkpt>
      <trkpt lat="42.8409790" lon="-7.7342850">
        <ele>678.6</ele>
        <time>2020-10-19T10:03:02Z</time>
      </trkpt>
      <trkpt lat="42.8409800" lon="-7.7342860">
        <ele>678.6</ele>
        <time>2020-10-19T10:03:03Z</time>
      </trkpt>
      <trkpt lat="42.8409820" lon="-7.7342870">
        <ele>678.6</ele>
        <time>2020-10-19T10:03:04Z</time>
      </trkpt>
      <trkpt lat="42.8409840" lon="-7.7342870">
        <ele>678.6</ele>
        <time>2020-10-19T10:03:05Z</time>
      </trkpt>
      <trkpt lat="42.8409860" lon="-7.7342880">
        <ele>678.6</ele>
        <time>2020-10-19T10:03:06Z</time>
      </trkpt>
      <trkpt lat="42.8409870" lon="-7.7342880">
        <ele>678.6</ele>
        <time>2020-10-19T10:03:07Z</time>
      </trkpt>
      <trkpt lat="42.8409900" lon="-7.7342890">
        <ele>678.6</ele>
        <time>2020-10-19T10:03:08Z</time>
      </trkpt>
      <trkpt lat="42.8409920" lon="-7.7342910">
        <ele>678.6</ele>
        <time>2020-10-19T10:03:09Z</time>
      </trkpt>
      <trkpt lat="42.8409940" lon="-7.7342970">
        <ele>678.7</ele>
        <time>2020-10-19T10:03:10Z</time>
      </trkpt>
      <trkpt lat="42.8409990" lon="-7.7343040">
        <ele>678.7</ele>
        <time>2020-10-19T10:03:11Z</time>
      </trkpt>
      <trkpt lat="42.8410060" lon="-7.7343120">
        <ele>678.7</ele>
        <time>2020-10-19T10:03:12Z</time>
      </trkpt>
      <trkpt lat="42.8410140" lon="-7.7343200">
        <ele>678.7</ele>
        <time>2020-10-19T10:03:13Z</time>
      </trkpt>
      <trkpt lat="42.8410230" lon="-7.7343290">
        <ele>678.8</ele>
        <time>2020-10-19T10:03:14Z</time>
      </trkpt>
      <trkpt lat="42.8410290" lon="-7.7343380">
        <ele>678.8</ele>
        <time>2020-10-19T10:03:15Z</time>
      </trkpt>
      <trkpt lat="42.8410360" lon="-7.7343480">
        <ele>678.8</ele>
        <time>2020-10-19T10:03:16Z</time>
      </trkpt>
      <trkpt lat="42.8410430" lon="-7.7343570">
        <ele>678.8</ele>
        <time>2020-10-19T10:03:17Z</time>
      </trkpt>
      <trkpt lat="42.8410490" lon="-7.7343660">
        <ele>678.9</ele>
        <time>2020-10-19T10:03:18Z</time>
      </trkpt>
      <trkpt lat="42.8410560" lon="-7.7343740">
        <ele>678.9</ele>
        <time>2020-10-19T10:03:19Z</time>
      </trkpt>
      <trkpt lat="42.8410620" lon="-7.7343830">
        <ele>678.9</ele>
        <time>2020-10-19T10:03:20Z</time>
      </trkpt>
      <trkpt lat="42.8410670" lon="-7.7343910">
        <ele>678.9</ele>
        <time>2020-10-19T10:03:21Z</time>
      </trkpt>
      <trkpt lat="42.8410730" lon="-7.7344000">
        <ele>678.9</ele>
        <time>2020-10-19T10:03:22Z</time>
      </trkpt>
      <trkpt lat="42.8410780" lon="-7.7344080">
        <ele>678.9</ele>
        <time>2020-10-19T10:03:23Z</time>
      </trkpt>
      <trkpt lat="42.8410830" lon="-7.7344170">
        <ele>679.0</ele>
        <time>2020-10-19T10:03:24Z</time>
      </trkpt>
      <trkpt lat="42.8410880" lon="-7.7344250">
        <ele>679.0</ele>
        <time>2020-10-19T10:03:25Z</time>
      </trkpt>
      <trkpt lat="42.8410940" lon="-7.7344320">
        <ele>678.9</ele>
        <time>2020-10-19T10:03:26Z</time>
      </trkpt>
      <trkpt lat="42.8411010" lon="-7.7344390">
        <ele>678.9</ele>
        <time>2020-10-19T10:03:27Z</time>
      </trkpt>
      <trkpt lat="42.8411090" lon="-7.7344470">
        <ele>678.8</ele>
        <time>2020-10-19T10:03:28Z</time>
      </trkpt>
      <trkpt lat="42.8411170" lon="-7.7344560">
        <ele>678.7</ele>
        <time>2020-10-19T10:03:29Z</time>
      </trkpt>
      <trkpt lat="42.8411240" lon="-7.7344650">
        <ele>678.6</ele>
        <time>2020-10-19T10:03:30Z</time>
      </trkpt>
      <trkpt lat="42.8411320" lon="-7.7344760">
        <ele>678.6</ele>
        <time>2020-10-19T10:03:31Z</time>
      </trkpt>
      <trkpt lat="42.8411380" lon="-7.7344870">
        <ele>678.5</ele>
        <time>2020-10-19T10:03:32Z</time>
      </trkpt>
      <trkpt lat="42.8411440" lon="-7.7344950">
        <ele>678.4</ele>
        <time>2020-10-19T10:03:33Z</time>
      </trkpt>
      <trkpt lat="42.8411490" lon="-7.7344990">
        <ele>678.4</ele>
        <time>2020-10-19T10:03:34Z</time>
      </trkpt>
      <trkpt lat="42.8411510" lon="-7.7345000">
        <ele>678.4</ele>
        <time>2020-10-19T10:03:35Z</time>
      </trkpt>
      <trkpt lat="42.8411530" lon="-7.7344990">
        <ele>678.4</ele>
        <time>2020-10-19T10:03:36Z</time>
      </trkpt>
      <trkpt lat="42.8411520" lon="-7.7344990">
        <ele>678.4</ele>
        <time>2020-10-19T10:03:37Z</time>
      </trkpt>
      <trkpt lat="42.8411510" lon="-7.7345000">
        <ele>678.4</ele>
        <time>2020-10-19T10:03:38Z</time>
      </trkpt>
      <trkpt lat="42.8411480" lon="-7.7345010">
        <ele>678.3</ele>
        <time>2020-10-19T10:03:39Z</time>
      </trkpt>
      <trkpt lat="42.8411460" lon="-7.7345030">
        <ele>678.3</ele>
        <time>2020-10-19T10:03:40Z</time>
      </trkpt>
      <trkpt lat="42.8411460" lon="-7.7345020">
        <ele>678.3</ele>
        <time>2020-10-19T10:03:41Z</time>
      </trkpt>
      <trkpt lat="42.8411460" lon="-7.7345020">
        <ele>678.3</ele>
        <time>2020-10-19T10:03:42Z</time>
      </trkpt>
      <trkpt lat="42.8411470" lon="-7.7345020">
        <ele>678.3</ele>
        <time>2020-10-19T10:03:43Z</time>
      </trkpt>
      <trkpt lat="42.8411480" lon="-7.7345010">
        <ele>678.3</ele>
        <time>2020-10-19T10:03:44Z</time>
      </trkpt>
      <trkpt lat="42.8411490" lon="-7.7345010">
        <ele>678.3</ele>
        <time>2020-10-19T10:03:45Z</time>
      </trkpt>
      <trkpt lat="42.8411500" lon="-7.7345010">
        <ele>678.3</ele>
        <time>2020-10-19T10:03:46Z</time>
      </trkpt>
      <trkpt lat="42.8411510" lon="-7.7345000">
        <ele>678.3</ele>
        <time>2020-10-19T10:03:47Z</time>
      </trkpt>
      <trkpt lat="42.8411520" lon="-7.7344990">
        <ele>678.3</ele>
        <time>2020-10-19T10:03:48Z</time>
      </trkpt>
      <trkpt lat="42.8411530" lon="-7.7344980">
        <ele>678.2</ele>
        <time>2020-10-19T10:03:49Z</time>
      </trkpt>
      <trkpt lat="42.8411540" lon="-7.7344970">
        <ele>678.2</ele>
        <time>2020-10-19T10:03:50Z</time>
      </trkpt>
      <trkpt lat="42.8411550" lon="-7.7344960">
        <ele>678.2</ele>
        <time>2020-10-19T10:03:51Z</time>
      </trkpt>
      <trkpt lat="42.8411550" lon="-7.7344950">
        <ele>678.2</ele>
        <time>2020-10-19T10:03:52Z</time>
      </trkpt>
      <trkpt lat="42.8411560" lon="-7.7344940">
        <ele>678.2</ele>
        <time>2020-10-19T10:03:53Z</time>
      </trkpt>
      <trkpt lat="42.8411560" lon="-7.7344930">
        <ele>678.2</ele>
        <time>2020-10-19T10:03:54Z</time>
      </trkpt>
      <trkpt lat="42.8411570" lon="-7.7344920">
        <ele>678.2</ele>
        <time>2020-10-19T10:03:55Z</time>
      </trkpt>
      <trkpt lat="42.8411570" lon="-7.7344910">
        <ele>678.2</ele>
        <time>2020-10-19T10:03:56Z</time>
      </trkpt>
      <trkpt lat="42.8411570" lon="-7.7344900">
        <ele>678.2</ele>
        <time>2020-10-19T10:03:57Z</time>
      </trkpt>
      <trkpt lat="42.8411570" lon="-7.7344890">
        <ele>678.2</ele>
        <time>2020-10-19T10:03:58Z</time>
      </trkpt>
      <trkpt lat="42.8411570" lon="-7.7344880">
        <ele>678.2</ele>
        <time>2020-10-19T10:03:59Z</time>
      </trkpt>
      <trkpt lat="42.8411570" lon="-7.7344880">
        <ele>678.2</ele>
        <time>2020-10-19T10:04:00Z</time>
      </trkpt>
      <trkpt lat="42.8411560" lon="-7.7344880">
        <ele>678.2</ele>
        <time>2020-10-19T10:04:01Z</time>
      </trkpt>
      <trkpt lat="42.8411560" lon="-7.7344880">
        <ele>678.2</ele>
        <time>2020-10-19T10:04:02Z</time>
      </trkpt>
      <trkpt lat="42.8411560" lon="-7.7344880">
        <ele>678.2</ele>
        <time>2020-10-19T10:04:03Z</time>
      </trkpt>
      <trkpt lat="42.8411550" lon="-7.7344870">
        <ele>678.2</ele>
        <time>2020-10-19T10:04:04Z</time>
      </trkpt>
      <trkpt lat="42.8411550" lon="-7.7344870">
        <ele>678.2</ele>
        <time>2020-10-19T10:04:05Z</time>
      </trkpt>
      <trkpt lat="42.8411540" lon="-7.7344860">
        <ele>678.2</ele>
        <time>2020-10-19T10:04:06Z</time>
      </trkpt>
      <trkpt lat="42.8411550" lon="-7.7344860">
        <ele>678.2</ele>
        <time>2020-10-19T10:04:07Z</time>
      </trkpt>
      <trkpt lat="42.8411550" lon="-7.7344850">
        <ele>678.1</ele>
        <time>2020-10-19T10:04:08Z</time>
      </trkpt>
      <trkpt lat="42.8411560" lon="-7.7344850">
        <ele>678.1</ele>
        <time>2020-10-19T10:04:09Z</time>
      </trkpt>
      <trkpt lat="42.8411570" lon="-7.7344850">
        <ele>678.1</ele>
        <time>2020-10-19T10:04:10Z</time>
      </trkpt>
      <trkpt lat="42.8411580" lon="-7.7344850">
        <ele>678.1</ele>
        <time>2020-10-19T10:04:11Z</time>
      </trkpt>
      <trkpt lat="42.8411590" lon="-7.7344850">
        <ele>678.1</ele>
        <time>2020-10-19T10:04:12Z</time>
      </trkpt>
      <trkpt lat="42.8411600" lon="-7.7344850">
        <ele>678.1</ele>
        <time>2020-10-19T10:04:13Z</time>
      </trkpt>
      <trkpt lat="42.8411610" lon="-7.7344840">
        <ele>678.1</ele>
        <time>2020-10-19T10:04:14Z</time>
      </trkpt>
      <trkpt lat="42.8411620" lon="-7.7344840">
        <ele>678.1</ele>
        <time>2020-10-19T10:04:15Z</time>
      </trkpt>
      <trkpt lat="42.8411620" lon="-7.7344840">
        <ele>678.1</ele>
        <time>2020-10-19T10:04:16Z</time>
      </trkpt>
      <trkpt lat="42.8411630" lon="-7.7344830">
        <ele>678.1</ele>
        <time>2020-10-19T10:04:17Z</time>
      </trkpt>
      <trkpt lat="42.8411630" lon="-7.7344830">
        <ele>678.1</ele>
        <time>2020-10-19T10:04:18Z</time>
      </trkpt>
      <trkpt lat="42.8411630" lon="-7.7344820">
        <ele>678.1</ele>
        <time>2020-10-19T10:04:19Z</time>
      </trkpt>
      <trkpt lat="42.8411630" lon="-7.7344820">
        <ele>678.1</ele>
        <time>2020-10-19T10:04:20Z</time>
      </trkpt>
      <trkpt lat="42.8411620" lon="-7.7344820">
        <ele>678.1</ele>
        <time>2020-10-19T10:04:21Z</time>
      </trkpt>
      <trkpt lat="42.8411610" lon="-7.7344820">
        <ele>678.1</ele>
        <time>2020-10-19T10:04:22Z</time>
      </trkpt>
      <trkpt lat="42.8411610" lon="-7.7344820">
        <ele>678.1</ele>
        <time>2020-10-19T10:04:23Z</time>
      </trkpt>
      <trkpt lat="42.8411600" lon="-7.7344820">
        <ele>678.1</ele>
        <time>2020-10-19T10:04:24Z</time>
      </trkpt>
      <trkpt lat="42.8411600" lon="-7.7344820">
        <ele>678.1</ele>
        <time>2020-10-19T10:04:25Z</time>
      </trkpt>
      <trkpt lat="42.8411590" lon="-7.7344820">
        <ele>678.0</ele>
        <time>2020-10-19T10:04:26Z</time>
      </trkpt>
      <trkpt lat="42.8411590" lon="-7.7344830">
        <ele>678.0</ele>
        <time>2020-10-19T10:04:27Z</time>
      </trkpt>
      <trkpt lat="42.8411580" lon="-7.7344840">
        <ele>678.0</ele>
        <time>2020-10-19T10:04:28Z</time>
      </trkpt>
      <trkpt lat="42.8411590" lon="-7.7344850">
        <ele>678.0</ele>
        <time>2020-10-19T10:04:29Z</time>
      </trkpt>
      <trkpt lat="42.8411610" lon="-7.7344840">
        <ele>678.0</ele>
        <time>2020-10-19T10:04:30Z</time>
      </trkpt>
      <trkpt lat="42.8411660" lon="-7.7344850">
        <ele>678.0</ele>
        <time>2020-10-19T10:04:31Z</time>
      </trkpt>
      <trkpt lat="42.8411720" lon="-7.7344880">
        <ele>677.9</ele>
        <time>2020-10-19T10:04:32Z</time>
      </trkpt>
      <trkpt lat="42.8411800" lon="-7.7344940">
        <ele>677.9</ele>
        <time>2020-10-19T10:04:33Z</time>
      </trkpt>
      <trkpt lat="42.8411880" lon="-7.7345020">
        <ele>677.8</ele>
        <time>2020-10-19T10:04:34Z</time>
      </trkpt>
      <trkpt lat="42.8411960" lon="-7.7345110">
        <ele>677.7</ele>
        <time>2020-10-19T10:04:35Z</time>
      </trkpt>
      <trkpt lat="42.8412040" lon="-7.7345200">
        <ele>677.6</ele>
        <time>2020-10-19T10:04:36Z</time>
      </trkpt>
      <trkpt lat="42.8412100" lon="-7.7345280">
        <ele>677.6</ele>
        <time>2020-10-19T10:04:37Z</time>
      </trkpt>
      <trkpt lat="42.8412130" lon="-7.7345310">
        <ele>677.5</ele>
        <time>2020-10-19T10:04:38Z</time>
      </trkpt>
      <trkpt lat="42.8412140" lon="-7.7345330">
        <ele>677.5</ele>
        <time>2020-10-19T10:04:39Z</time>
      </trkpt>
      <trkpt lat="42.8412150" lon="-7.7345320">
        <ele>677.5</ele>
        <time>2020-10-19T10:04:40Z</time>
      </trkpt>
      <trkpt lat="42.8412150" lon="-7.7345320">
        <ele>677.5</ele>
        <time>2020-10-19T10:04:41Z</time>
      </trkpt>
      <trkpt lat="42.8412150" lon="-7.7345320">
        <ele>677.5</ele>
        <time>2020-10-19T10:04:42Z</time>
      </trkpt>
      <trkpt lat="42.8412150" lon="-7.7345350">
        <ele>677.5</ele>
        <time>2020-10-19T10:04:43Z</time>
      </trkpt>
      <trkpt lat="42.8412140" lon="-7.7345380">
        <ele>677.5</ele>
        <time>2020-10-19T10:04:44Z</time>
      </trkpt>
      <trkpt lat="42.8412140" lon="-7.7345400">
        <ele>677.5</ele>
        <time>2020-10-19T10:04:45Z</time>
      </trkpt>
      <trkpt lat="42.8412150" lon="-7.7345400">
        <ele>677.5</ele>
        <time>2020-10-19T10:04:46Z</time>
      </trkpt>
      <trkpt lat="42.8412160" lon="-7.7345400">
        <ele>677.5</ele>
        <time>2020-10-19T10:04:47Z</time>
      </trkpt>
      <trkpt lat="42.8412180" lon="-7.7345390">
        <ele>677.4</ele>
        <time>2020-10-19T10:04:48Z</time>
      </trkpt>
      <trkpt lat="42.8412200" lon="-7.7345390">
        <ele>677.4</ele>
        <time>2020-10-19T10:04:49Z</time>
      </trkpt>
      <trkpt lat="42.8412230" lon="-7.7345420">
        <ele>677.4</ele>
        <time>2020-10-19T10:04:50Z</time>
      </trkpt>
      <trkpt lat="42.8412270" lon="-7.7345500">
        <ele>677.3</ele>
        <time>2020-10-19T10:04:51Z</time>
      </trkpt>
      <trkpt lat="42.8412320" lon="-7.7345600">
        <ele>677.3</ele>
        <time>2020-10-19T10:04:52Z</time>
      </trkpt>
      <trkpt lat="42.8412350" lon="-7.7345750">
        <ele>677.2</ele>
        <time>2020-10-19T10:04:53Z</time>
      </trkpt>
      <trkpt lat="42.8412350" lon="-7.7345920">
        <ele>677.1</ele>
        <time>2020-10-19T10:04:54Z</time>
      </trkpt>
      <trkpt lat="42.8412330" lon="-7.7346120">
        <ele>677.0</ele>
        <time>2020-10-19T10:04:55Z</time>
      </trkpt>
      <trkpt lat="42.8412290" lon="-7.7346290">
        <ele>676.9</ele>
        <time>2020-10-19T10:04:56Z</time>
      </trkpt>
      <trkpt lat="42.8412250" lon="-7.7346460">
        <ele>676.8</ele>
        <time>2020-10-19T10:04:57Z</time>
      </trkpt>
      <trkpt lat="42.8412220" lon="-7.7346630">
        <ele>676.7</ele>
        <time>2020-10-19T10:04:58Z</time>
      </trkpt>
      <trkpt lat="42.8412180" lon="-7.7346790">
        <ele>676.6</ele>
        <time>2020-10-19T10:04:59Z</time>
      </trkpt>
      <trkpt lat="42.8412120" lon="-7.7346970">
        <ele>676.5</ele>
        <time>2020-10-19T10:05:00Z</time>
      </trkpt>
      <trkpt lat="42.8412060" lon="-7.7347130">
        <ele>676.4</ele>
        <time>2020-10-19T10:05:01Z</time>
      </trkpt>
      <trkpt lat="42.8411990" lon="-7.7347310">
        <ele>676.4</ele>
        <time>2020-10-19T10:05:02Z</time>
      </trkpt>
      <trkpt lat="42.8411940" lon="-7.7347460">
        <ele>676.4</ele>
        <time>2020-10-19T10:05:03Z</time>
      </trkpt>
      <trkpt lat="42.8411890" lon="-7.7347620">
        <ele>676.4</ele>
        <time>2020-10-19T10:05:04Z</time>
      </trkpt>
      <trkpt lat="42.8411820" lon="-7.7347810">
        <ele>676.4</ele>
        <time>2020-10-19T10:05:05Z</time>
      </trkpt>
      <trkpt lat="42.8411760" lon="-7.7348030">
        <ele>676.2</ele>
        <time>2020-10-19T10:05:06Z</time>
      </trkpt>
      <trkpt lat="42.8411710" lon="-7.7348270">
        <ele>676.2</ele>
        <time>2020-10-19T10:05:07Z</time>
      </trkpt>
      <trkpt lat="42.8411660" lon="-7.7348480">
        <ele>676.2</ele>
        <time>2020-10-19T10:05:08Z</time>
      </trkpt>
      <trkpt lat="42.8411610" lon="-7.7348660">
        <ele>676.1</ele>
        <time>2020-10-19T10:05:09Z</time>
      </trkpt>
      <trkpt lat="42.8411580" lon="-7.7348810">
        <ele>676.1</ele>
        <time>2020-10-19T10:05:10Z</time>
      </trkpt>
      <trkpt lat="42.8411560" lon="-7.7348960">
        <ele>676.1</ele>
        <time>2020-10-19T10:05:11Z</time>
      </trkpt>
      <trkpt lat="42.8411570" lon="-7.7349120">
        <ele>676.1</ele>
        <time>2020-10-19T10:05:12Z</time>
      </trkpt>
      <trkpt lat="42.8411600" lon="-7.7349260">
        <ele>676.0</ele>
        <time>2020-10-19T10:05:13Z</time>
      </trkpt>
      <trkpt lat="42.8411650" lon="-7.7349370">
        <ele>676.0</ele>
        <time>2020-10-19T10:05:14Z</time>
      </trkpt>
      <trkpt lat="42.8411690" lon="-7.7349480">
        <ele>676.0</ele>
        <time>2020-10-19T10:05:15Z</time>
      </trkpt>
      <trkpt lat="42.8411720" lon="-7.7349600">
        <ele>676.0</ele>
        <time>2020-10-19T10:05:16Z</time>
      </trkpt>
      <trkpt lat="42.8411760" lon="-7.7349760">
        <ele>676.0</ele>
        <time>2020-10-19T10:05:17Z</time>
      </trkpt>
      <trkpt lat="42.8411800" lon="-7.7349930">
        <ele>676.0</ele>
        <time>2020-10-19T10:05:18Z</time>
      </trkpt>
      <trkpt lat="42.8411830" lon="-7.7350140">
        <ele>675.9</ele>
        <time>2020-10-19T10:05:19Z</time>
      </trkpt>
      <trkpt lat="42.8411850" lon="-7.7350340">
        <ele>675.9</ele>
        <time>2020-10-19T10:05:20Z</time>
      </trkpt>
      <trkpt lat="42.8411880" lon="-7.7350550">
        <ele>675.9</ele>
        <time>2020-10-19T10:05:21Z</time>
      </trkpt>
      <trkpt lat="42.8411900" lon="-7.7350760">
        <ele>675.9</ele>
        <time>2020-10-19T10:05:22Z</time>
      </trkpt>
      <trkpt lat="42.8411940" lon="-7.7350980">
        <ele>675.8</ele>
        <time>2020-10-19T10:05:23Z</time>
      </trkpt>
      <trkpt lat="42.8411980" lon="-7.7351200">
        <ele>675.8</ele>
        <time>2020-10-19T10:05:24Z</time>
      </trkpt>
      <trkpt lat="42.8412040" lon="-7.7351410">
        <ele>675.8</ele>
        <time>2020-10-19T10:05:25Z</time>
      </trkpt>
      <trkpt lat="42.8412090" lon="-7.7351620">
        <ele>675.8</ele>
        <time>2020-10-19T10:05:26Z</time>
      </trkpt>
      <trkpt lat="42.8412140" lon="-7.7351810">
        <ele>675.8</ele>
        <time>2020-10-19T10:05:27Z</time>
      </trkpt>
      <trkpt lat="42.8412200" lon="-7.7352010">
        <ele>675.8</ele>
        <time>2020-10-19T10:05:28Z</time>
      </trkpt>
      <trkpt lat="42.8412240" lon="-7.7352200">
        <ele>675.7</ele>
        <time>2020-10-19T10:05:29Z</time>
      </trkpt>
      <trkpt lat="42.8412290" lon="-7.7352390">
        <ele>675.7</ele>
        <time>2020-10-19T10:05:30Z</time>
      </trkpt>
      <trkpt lat="42.8412330" lon="-7.7352590">
        <ele>675.7</ele>
        <time>2020-10-19T10:05:31Z</time>
      </trkpt>
      <trkpt lat="42.8412380" lon="-7.7352780">
        <ele>675.7</ele>
        <time>2020-10-19T10:05:32Z</time>
      </trkpt>
      <trkpt lat="42.8412430" lon="-7.7352980">
        <ele>675.7</ele>
        <time>2020-10-19T10:05:33Z</time>
      </trkpt>
      <trkpt lat="42.8412490" lon="-7.7353170">
        <ele>675.7</ele>
        <time>2020-10-19T10:05:34Z</time>
      </trkpt>
      <trkpt lat="42.8412530" lon="-7.7353370">
        <ele>675.7</ele>
        <time>2020-10-19T10:05:35Z</time>
      </trkpt>
      <trkpt lat="42.8412570" lon="-7.7353580">
        <ele>675.6</ele>
        <time>2020-10-19T10:05:36Z</time>
      </trkpt>
      <trkpt lat="42.8412590" lon="-7.7353810">
        <ele>675.6</ele>
        <time>2020-10-19T10:05:37Z</time>
      </trkpt>
      <trkpt lat="42.8412630" lon="-7.7354030">
        <ele>675.6</ele>
        <time>2020-10-19T10:05:38Z</time>
      </trkpt>
      <trkpt lat="42.8412680" lon="-7.7354260">
        <ele>675.6</ele>
        <time>2020-10-19T10:05:39Z</time>
      </trkpt>
      <trkpt lat="42.8412720" lon="-7.7354480">
        <ele>675.6</ele>
        <time>2020-10-19T10:05:40Z</time>
      </trkpt>
      <trkpt lat="42.8412760" lon="-7.7354690">
        <ele>675.6</ele>
        <time>2020-10-19T10:05:41Z</time>
      </trkpt>
      <trkpt lat="42.8412800" lon="-7.7354880">
        <ele>675.6</ele>
        <time>2020-10-19T10:05:42Z</time>
      </trkpt>
      <trkpt lat="42.8412820" lon="-7.7355070">
        <ele>675.6</ele>
        <time>2020-10-19T10:05:43Z</time>
      </trkpt>
      <trkpt lat="42.8412830" lon="-7.7355250">
        <ele>675.6</ele>
        <time>2020-10-19T10:05:44Z</time>
      </trkpt>
      <trkpt lat="42.8412830" lon="-7.7355400">
        <ele>675.6</ele>
        <time>2020-10-19T10:05:45Z</time>
      </trkpt>
      <trkpt lat="42.8412780" lon="-7.7355500">
        <ele>675.6</ele>
        <time>2020-10-19T10:05:46Z</time>
      </trkpt>
      <trkpt lat="42.8412710" lon="-7.7355540">
        <ele>675.6</ele>
        <time>2020-10-19T10:05:47Z</time>
      </trkpt>
      <trkpt lat="42.8412650" lon="-7.7355540">
        <ele>675.6</ele>
        <time>2020-10-19T10:05:48Z</time>
      </trkpt>
      <trkpt lat="42.8412630" lon="-7.7355530">
        <ele>675.6</ele>
        <time>2020-10-19T10:05:49Z</time>
      </trkpt>
      <trkpt lat="42.8412640" lon="-7.7355530">
        <ele>675.6</ele>
        <time>2020-10-19T10:05:50Z</time>
      </trkpt>
      <trkpt lat="42.8412680" lon="-7.7355560">
        <ele>675.6</ele>
        <time>2020-10-19T10:05:51Z</time>
      </trkpt>
      <trkpt lat="42.8412710" lon="-7.7355570">
        <ele>675.7</ele>
        <time>2020-10-19T10:05:52Z</time>
      </trkpt>
      <trkpt lat="42.8412750" lon="-7.7355550">
        <ele>675.7</ele>
        <time>2020-10-19T10:05:53Z</time>
      </trkpt>
      <trkpt lat="42.8412780" lon="-7.7355480">
        <ele>675.7</ele>
        <time>2020-10-19T10:05:54Z</time>
      </trkpt>
      <trkpt lat="42.8412790" lon="-7.7355340">
        <ele>675.7</ele>
        <time>2020-10-19T10:05:55Z</time>
      </trkpt>
      <trkpt lat="42.8412750" lon="-7.7355160">
        <ele>675.7</ele>
        <time>2020-10-19T10:05:56Z</time>
      </trkpt>
      <trkpt lat="42.8412700" lon="-7.7354970">
        <ele>675.7</ele>
        <time>2020-10-19T10:05:57Z</time>
      </trkpt>
      <trkpt lat="42.8412660" lon="-7.7354760">
        <ele>675.7</ele>
        <time>2020-10-19T10:05:58Z</time>
      </trkpt>
      <trkpt lat="42.8412630" lon="-7.7354550">
        <ele>675.7</ele>
        <time>2020-10-19T10:05:59Z</time>
      </trkpt>
      <trkpt lat="42.8412600" lon="-7.7354330">
        <ele>675.7</ele>
        <time>2020-10-19T10:06:00Z</time>
      </trkpt>
      <trkpt lat="42.8412570" lon="-7.7354130">
        <ele>675.7</ele>
        <time>2020-10-19T10:06:01Z</time>
      </trkpt>
      <trkpt lat="42.8412530" lon="-7.7353950">
        <ele>675.7</ele>
        <time>2020-10-19T10:06:02Z</time>
      </trkpt>
      <trkpt lat="42.8412500" lon="-7.7353770">
        <ele>675.8</ele>
        <time>2020-10-19T10:06:03Z</time>
      </trkpt>
      <trkpt lat="42.8412460" lon="-7.7353590">
        <ele>675.8</ele>
        <time>2020-10-19T10:06:04Z</time>
      </trkpt>
      <trkpt lat="42.8412430" lon="-7.7353400">
        <ele>675.8</ele>
        <time>2020-10-19T10:06:05Z</time>
      </trkpt>
      <trkpt lat="42.8412380" lon="-7.7353210">
        <ele>675.8</ele>
        <time>2020-10-19T10:06:06Z</time>
      </trkpt>
      <trkpt lat="42.8412320" lon="-7.7353050">
        <ele>675.8</ele>
        <time>2020-10-19T10:06:07Z</time>
      </trkpt>
      <trkpt lat="42.8412260" lon="-7.7352920">
        <ele>675.8</ele>
        <time>2020-10-19T10:06:08Z</time>
      </trkpt>
      <trkpt lat="42.8412190" lon="-7.7352830">
        <ele>675.8</ele>
        <time>2020-10-19T10:06:09Z</time>
      </trkpt>
      <trkpt lat="42.8412140" lon="-7.7352780">
        <ele>675.8</ele>
        <time>2020-10-19T10:06:10Z</time>
      </trkpt>
      <trkpt lat="42.8412100" lon="-7.7352760">
        <ele>675.8</ele>
        <time>2020-10-19T10:06:11Z</time>
      </trkpt>
      <trkpt lat="42.8412080" lon="-7.7352760">
        <ele>675.8</ele>
        <time>2020-10-19T10:06:12Z</time>
      </trkpt>
      <trkpt lat="42.8412070" lon="-7.7352750">
        <ele>675.8</ele>
        <time>2020-10-19T10:06:13Z</time>
      </trkpt>
      <trkpt lat="42.8412050" lon="-7.7352750">
        <ele>675.8</ele>
        <time>2020-10-19T10:06:14Z</time>
      </trkpt>
      <trkpt lat="42.8412040" lon="-7.7352750">
        <ele>675.8</ele>
        <time>2020-10-19T10:06:15Z</time>
      </trkpt>
      <trkpt lat="42.8412030" lon="-7.7352750">
        <ele>675.8</ele>
        <time>2020-10-19T10:06:16Z</time>
      </trkpt>
      <trkpt lat="42.8412020" lon="-7.7352750">
        <ele>675.8</ele>
        <time>2020-10-19T10:06:17Z</time>
      </trkpt>
      <trkpt lat="42.8412020" lon="-7.7352750">
        <ele>675.8</ele>
        <time>2020-10-19T10:06:18Z</time>
      </trkpt>
      <trkpt lat="42.8412020" lon="-7.7352750">
        <ele>675.8</ele>
        <time>2020-10-19T10:06:19Z</time>
      </trkpt>
      <trkpt lat="42.8412010" lon="-7.7352750">
        <ele>675.8</ele>
        <time>2020-10-19T10:06:20Z</time>
      </trkpt>
      <trkpt lat="42.8412010" lon="-7.7352750">
        <ele>675.8</ele>
        <time>2020-10-19T10:06:21Z</time>
      </trkpt>
      <trkpt lat="42.8412010" lon="-7.7352750">
        <ele>675.8</ele>
        <time>2020-10-19T10:06:22Z</time>
      </trkpt>
      <trkpt lat="42.8412010" lon="-7.7352750">
        <ele>675.8</ele>
        <time>2020-10-19T10:06:23Z</time>
      </trkpt>
      <trkpt lat="42.8412010" lon="-7.7352730">
        <ele>675.8</ele>
        <time>2020-10-19T10:06:24Z</time>
      </trkpt>
      <trkpt lat="42.8412030" lon="-7.7352680">
        <ele>675.8</ele>
        <time>2020-10-19T10:06:25Z</time>
      </trkpt>
      <trkpt lat="42.8412050" lon="-7.7352580">
        <ele>675.8</ele>
        <time>2020-10-19T10:06:26Z</time>
      </trkpt>
      <trkpt lat="42.8412060" lon="-7.7352430">
        <ele>675.8</ele>
        <time>2020-10-19T10:06:27Z</time>
      </trkpt>
      <trkpt lat="42.8412080" lon="-7.7352260">
        <ele>675.9</ele>
        <time>2020-10-19T10:06:28Z</time>
      </trkpt>
      <trkpt lat="42.8412090" lon="-7.7352090">
        <ele>675.9</ele>
        <time>2020-10-19T10:06:29Z</time>
      </trkpt>
      <trkpt lat="42.8412100" lon="-7.7351910">
        <ele>675.9</ele>
        <time>2020-10-19T10:06:30Z</time>
      </trkpt>
      <trkpt lat="42.8412090" lon="-7.7351720">
        <ele>675.9</ele>
        <time>2020-10-19T10:06:31Z</time>
      </trkpt>
      <trkpt lat="42.8412080" lon="-7.7351520">
        <ele>675.9</ele>
        <time>2020-10-19T10:06:32Z</time>
      </trkpt>
      <trkpt lat="42.8412050" lon="-7.7351330">
        <ele>675.9</ele>
        <time>2020-10-19T10:06:33Z</time>
      </trkpt>
      <trkpt lat="42.8412020" lon="-7.7351150">
        <ele>675.9</ele>
        <time>2020-10-19T10:06:34Z</time>
      </trkpt>
      <trkpt lat="42.8412000" lon="-7.7350970">
        <ele>675.9</ele>
        <time>2020-10-19T10:06:35Z</time>
      </trkpt>
      <trkpt lat="42.8411980" lon="-7.7350780">
        <ele>676.0</ele>
        <time>2020-10-19T10:06:36Z</time>
      </trkpt>
      <trkpt lat="42.8411950" lon="-7.7350600">
        <ele>676.0</ele>
        <time>2020-10-19T10:06:37Z</time>
      </trkpt>
      <trkpt lat="42.8411910" lon="-7.7350400">
        <ele>676.0</ele>
        <time>2020-10-19T10:06:38Z</time>
      </trkpt>
      <trkpt lat="42.8411870" lon="-7.7350200">
        <ele>676.0</ele>
        <time>2020-10-19T10:06:39Z</time>
      </trkpt>
      <trkpt lat="42.8411840" lon="-7.7349990">
        <ele>676.0</ele>
        <time>2020-10-19T10:06:40Z</time>
      </trkpt>
      <trkpt lat="42.8411830" lon="-7.7349780">
        <ele>676.0</ele>
        <time>2020-10-19T10:06:41Z</time>
      </trkpt>
      <trkpt lat="42.8411810" lon="-7.7349580">
        <ele>676.1</ele>
        <time>2020-10-19T10:06:42Z</time>
      </trkpt>
      <trkpt lat="42.8411790" lon="-7.7349380">
        <ele>676.1</ele>
        <time>2020-10-19T10:06:43Z</time>
      </trkpt>
      <trkpt lat="42.8411760" lon="-7.7349180">
        <ele>676.1</ele>
        <time>2020-10-19T10:06:44Z</time>
      </trkpt>
      <trkpt lat="42.8411740" lon="-7.7348970">
        <ele>676.1</ele>
        <time>2020-10-19T10:06:45Z</time>
      </trkpt>
      <trkpt lat="42.8411720" lon="-7.7348750">
        <ele>676.2</ele>
        <time>2020-10-19T10:06:46Z</time>
      </trkpt>
      <trkpt lat="42.8411700" lon="-7.7348540">
        <ele>676.2</ele>
        <time>2020-10-19T10:06:47Z</time>
      </trkpt>
      <trkpt lat="42.8411690" lon="-7.7348340">
        <ele>676.2</ele>
        <time>2020-10-19T10:06:48Z</time>
      </trkpt>
      <trkpt lat="42.8411690" lon="-7.7348140">
        <ele>676.2</ele>
        <time>2020-10-19T10:06:49Z</time>
      </trkpt>
      <trkpt lat="42.8411710" lon="-7.7347950">
        <ele>676.3</ele>
        <time>2020-10-19T10:06:50Z</time>
      </trkpt>
      <trkpt lat="42.8411730" lon="-7.7347760">
        <ele>676.4</ele>
        <time>2020-10-19T10:06:51Z</time>
      </trkpt>
      <trkpt lat="42.8411760" lon="-7.7347570">
        <ele>676.4</ele>
        <time>2020-10-19T10:06:52Z</time>
      </trkpt>
      <trkpt lat="42.8411800" lon="-7.7347360">
        <ele>676.9</ele>
        <time>2020-10-19T10:06:53Z</time>
      </trkpt>
      <trkpt lat="42.8411830" lon="-7.7347170">
        <ele>677.0</ele>
        <time>2020-10-19T10:06:54Z</time>
      </trkpt>
      <trkpt lat="42.8411870" lon="-7.7346970">
        <ele>677.2</ele>
        <time>2020-10-19T10:06:55Z</time>
      </trkpt>
      <trkpt lat="42.8411920" lon="-7.7346800">
        <ele>677.3</ele>
        <time>2020-10-19T10:06:56Z</time>
      </trkpt>
      <trkpt lat="42.8411990" lon="-7.7346650">
        <ele>677.4</ele>
        <time>2020-10-19T10:06:57Z</time>
      </trkpt>
      <trkpt lat="42.8412060" lon="-7.7346510">
        <ele>677.5</ele>
        <time>2020-10-19T10:06:58Z</time>
      </trkpt>
      <trkpt lat="42.8412120" lon="-7.7346380">
        <ele>677.6</ele>
        <time>2020-10-19T10:06:59Z</time>
      </trkpt>
      <trkpt lat="42.8412140" lon="-7.7346240">
        <ele>677.7</ele>
        <time>2020-10-19T10:07:00Z</time>
      </trkpt>
      <trkpt lat="42.8412130" lon="-7.7346100">
        <ele>677.8</ele>
        <time>2020-10-19T10:07:01Z</time>
      </trkpt>
      <trkpt lat="42.8412080" lon="-7.7345970">
        <ele>677.9</ele>
        <time>2020-10-19T10:07:02Z</time>
      </trkpt>
      <trkpt lat="42.8412020" lon="-7.7345850">
        <ele>678.0</ele>
        <time>2020-10-19T10:07:03Z</time>
      </trkpt>
      <trkpt lat="42.8411980" lon="-7.7345760">
        <ele>678.1</ele>
        <time>2020-10-19T10:07:04Z</time>
      </trkpt>
      <trkpt lat="42.8411960" lon="-7.7345730">
        <ele>678.1</ele>
        <time>2020-10-19T10:07:05Z</time>
      </trkpt>
      <trkpt lat="42.8411950" lon="-7.7345730">
        <ele>678.1</ele>
        <time>2020-10-19T10:07:06Z</time>
      </trkpt>
      <trkpt lat="42.8411960" lon="-7.7345730">
        <ele>678.1</ele>
        <time>2020-10-19T10:07:07Z</time>
      </trkpt>
      <trkpt lat="42.8411970" lon="-7.7345720">
        <ele>678.1</ele>
        <time>2020-10-19T10:07:08Z</time>
      </trkpt>
      <trkpt lat="42.8411970" lon="-7.7345710">
        <ele>678.1</ele>
        <time>2020-10-19T10:07:09Z</time>
      </trkpt>
      <trkpt lat="42.8411980" lon="-7.7345720">
        <ele>678.1</ele>
        <time>2020-10-19T10:07:10Z</time>
      </trkpt>
      <trkpt lat="42.8411990" lon="-7.7345740">
        <ele>678.2</ele>
        <time>2020-10-19T10:07:11Z</time>
      </trkpt>
      <trkpt lat="42.8412010" lon="-7.7345750">
        <ele>678.2</ele>
        <time>2020-10-19T10:07:12Z</time>
      </trkpt>
      <trkpt lat="42.8412020" lon="-7.7345780">
        <ele>678.2</ele>
        <time>2020-10-19T10:07:13Z</time>
      </trkpt>
      <trkpt lat="42.8412010" lon="-7.7345790">
        <ele>678.2</ele>
        <time>2020-10-19T10:07:14Z</time>
      </trkpt>
      <trkpt lat="42.8412000" lon="-7.7345820">
        <ele>678.2</ele>
        <time>2020-10-19T10:07:15Z</time>
      </trkpt>
      <trkpt lat="42.8411990" lon="-7.7345830">
        <ele>678.2</ele>
        <time>2020-10-19T10:07:16Z</time>
      </trkpt>
      <trkpt lat="42.8411990" lon="-7.7345840">
        <ele>678.2</ele>
        <time>2020-10-19T10:07:17Z</time>
      </trkpt>
      <trkpt lat="42.8412010" lon="-7.7345830">
        <ele>678.3</ele>
        <time>2020-10-19T10:07:18Z</time>
      </trkpt>
      <trkpt lat="42.8412010" lon="-7.7345830">
        <ele>678.3</ele>
        <time>2020-10-19T10:07:19Z</time>
      </trkpt>
      <trkpt lat="42.8412000" lon="-7.7345840">
        <ele>678.3</ele>
        <time>2020-10-19T10:07:20Z</time>
      </trkpt>
      <trkpt lat="42.8411970" lon="-7.7345860">
        <ele>678.3</ele>
        <time>2020-10-19T10:07:21Z</time>
      </trkpt>
      <trkpt lat="42.8411950" lon="-7.7345870">
        <ele>678.3</ele>
        <time>2020-10-19T10:07:22Z</time>
      </trkpt>
      <trkpt lat="42.8411920" lon="-7.7345860">
        <ele>678.4</ele>
        <time>2020-10-19T10:07:23Z</time>
      </trkpt>
      <trkpt lat="42.8411910" lon="-7.7345830">
        <ele>678.4</ele>
        <time>2020-10-19T10:07:24Z</time>
      </trkpt>
      <trkpt lat="42.8411900" lon="-7.7345790">
        <ele>678.4</ele>
        <time>2020-10-19T10:07:25Z</time>
      </trkpt>
      <trkpt lat="42.8411890" lon="-7.7345770">
        <ele>678.4</ele>
        <time>2020-10-19T10:07:26Z</time>
      </trkpt>
      <trkpt lat="42.8411870" lon="-7.7345770">
        <ele>678.4</ele>
        <time>2020-10-19T10:07:27Z</time>
      </trkpt>
      <trkpt lat="42.8411870" lon="-7.7345770">
        <ele>678.4</ele>
        <time>2020-10-19T10:07:28Z</time>
      </trkpt>
      <trkpt lat="42.8411860" lon="-7.7345760">
        <ele>678.4</ele>
        <time>2020-10-19T10:07:29Z</time>
      </trkpt>
      <trkpt lat="42.8411860" lon="-7.7345750">
        <ele>678.4</ele>
        <time>2020-10-19T10:07:30Z</time>
      </trkpt>
      <trkpt lat="42.8411860" lon="-7.7345730">
        <ele>678.5</ele>
        <time>2020-10-19T10:07:31Z</time>
      </trkpt>
      <trkpt lat="42.8411860" lon="-7.7345720">
        <ele>678.5</ele>
        <time>2020-10-19T10:07:32Z</time>
      </trkpt>
      <trkpt lat="42.8411850" lon="-7.7345710">
        <ele>678.5</ele>
        <time>2020-10-19T10:07:33Z</time>
      </trkpt>
      <trkpt lat="42.8411850" lon="-7.7345700">
        <ele>678.5</ele>
        <time>2020-10-19T10:07:34Z</time>
      </trkpt>
      <trkpt lat="42.8411860" lon="-7.7345690">
        <ele>678.5</ele>
        <time>2020-10-19T10:07:35Z</time>
      </trkpt>
      <trkpt lat="42.8411870" lon="-7.7345700">
        <ele>678.5</ele>
        <time>2020-10-19T10:07:36Z</time>
      </trkpt>
      <trkpt lat="42.8411910" lon="-7.7345710">
        <ele>678.5</ele>
        <time>2020-10-19T10:07:37Z</time>
      </trkpt>
      <trkpt lat="42.8411960" lon="-7.7345710">
        <ele>678.6</ele>
        <time>2020-10-19T10:07:38Z</time>
      </trkpt>
      <trkpt lat="42.8412000" lon="-7.7345710">
        <ele>678.6</ele>
        <time>2020-10-19T10:07:39Z</time>
      </trkpt>
      <trkpt lat="42.8412040" lon="-7.7345710">
        <ele>678.6</ele>
        <time>2020-10-19T10:07:40Z</time>
      </trkpt>
      <trkpt lat="42.8412070" lon="-7.7345730">
        <ele>678.7</ele>
        <time>2020-10-19T10:07:41Z</time>
      </trkpt>
      <trkpt lat="42.8412090" lon="-7.7345740">
        <ele>678.7</ele>
        <time>2020-10-19T10:07:42Z</time>
      </trkpt>
      <trkpt lat="42.8412110" lon="-7.7345750">
        <ele>678.7</ele>
        <time>2020-10-19T10:07:43Z</time>
      </trkpt>
      <trkpt lat="42.8412150" lon="-7.7345780">
        <ele>678.7</ele>
        <time>2020-10-19T10:07:44Z</time>
      </trkpt>
      <trkpt lat="42.8412210" lon="-7.7345830">
        <ele>678.8</ele>
        <time>2020-10-19T10:07:45Z</time>
      </trkpt>
      <trkpt lat="42.8412270" lon="-7.7345900">
        <ele>678.9</ele>
        <time>2020-10-19T10:07:46Z</time>
      </trkpt>
      <trkpt lat="42.8412340" lon="-7.7345960">
        <ele>678.9</ele>
        <time>2020-10-19T10:07:47Z</time>
      </trkpt>
      <trkpt lat="42.8412430" lon="-7.7346040">
        <ele>679.0</ele>
        <time>2020-10-19T10:07:48Z</time>
      </trkpt>
      <trkpt lat="42.8412520" lon="-7.7346110">
        <ele>679.1</ele>
        <time>2020-10-19T10:07:49Z</time>
      </trkpt>
      <trkpt lat="42.8412610" lon="-7.7346180">
        <ele>679.2</ele>
        <time>2020-10-19T10:07:50Z</time>
      </trkpt>
      <trkpt lat="42.8412700" lon="-7.7346250">
        <ele>679.3</ele>
        <time>2020-10-19T10:07:51Z</time>
      </trkpt>
      <trkpt lat="42.8412790" lon="-7.7346310">
        <ele>679.3</ele>
        <time>2020-10-19T10:07:52Z</time>
      </trkpt>
      <trkpt lat="42.8412880" lon="-7.7346370">
        <ele>679.4</ele>
        <time>2020-10-19T10:07:53Z</time>
      </trkpt>
      <trkpt lat="42.8412960" lon="-7.7346440">
        <ele>679.6</ele>
        <time>2020-10-19T10:07:54Z</time>
      </trkpt>
      <trkpt lat="42.8413040" lon="-7.7346500">
        <ele>679.7</ele>
        <time>2020-10-19T10:07:55Z</time>
      </trkpt>
      <trkpt lat="42.8413120" lon="-7.7346560">
        <ele>679.8</ele>
        <time>2020-10-19T10:07:56Z</time>
      </trkpt>
      <trkpt lat="42.8413220" lon="-7.7346590">
        <ele>679.8</ele>
        <time>2020-10-19T10:07:57Z</time>
      </trkpt>
      <trkpt lat="42.8413320" lon="-7.7346610">
        <ele>679.9</ele>
        <time>2020-10-19T10:07:58Z</time>
      </trkpt>
      <trkpt lat="42.8413430" lon="-7.7346650">
        <ele>680.0</ele>
        <time>2020-10-19T10:07:59Z</time>
      </trkpt>
      <trkpt lat="42.8413540" lon="-7.7346700">
        <ele>680.1</ele>
        <time>2020-10-19T10:08:00Z</time>
      </trkpt>
      <trkpt lat="42.8413650" lon="-7.7346760">
        <ele>680.1</ele>
        <time>2020-10-19T10:08:01Z</time>
      </trkpt>
      <trkpt lat="42.8413760" lon="-7.7346810">
        <ele>680.2</ele>
        <time>2020-10-19T10:08:02Z</time>
      </trkpt>
      <trkpt lat="42.8413880" lon="-7.7346890">
        <ele>680.3</ele>
        <time>2020-10-19T10:08:03Z</time>
      </trkpt>
      <trkpt lat="42.8413980" lon="-7.7346960">
        <ele>680.4</ele>
        <time>2020-10-19T10:08:04Z</time>
      </trkpt>
      <trkpt lat="42.8414090" lon="-7.7347030">
        <ele>680.5</ele>
        <time>2020-10-19T10:08:05Z</time>
      </trkpt>
      <trkpt lat="42.8414180" lon="-7.7347080">
        <ele>680.6</ele>
        <time>2020-10-19T10:08:06Z</time>
      </trkpt>
      <trkpt lat="42.8414280" lon="-7.7347130">
        <ele>680.7</ele>
        <time>2020-10-19T10:08:07Z</time>
      </trkpt>
      <trkpt lat="42.8414390" lon="-7.7347170">
        <ele>680.8</ele>
        <time>2020-10-19T10:08:08Z</time>
      </trkpt>
      <trkpt lat="42.8414520" lon="-7.7347200">
        <ele>681.0</ele>
        <time>2020-10-19T10:08:09Z</time>
      </trkpt>
      <trkpt lat="42.8414610" lon="-7.7347220">
        <ele>681.1</ele>
        <time>2020-10-19T10:08:10Z</time>
      </trkpt>
      <trkpt lat="42.8414690" lon="-7.7347250">
        <ele>681.2</ele>
        <time>2020-10-19T10:08:11Z</time>
      </trkpt>
      <trkpt lat="42.8414760" lon="-7.7347270">
        <ele>681.2</ele>
        <time>2020-10-19T10:08:12Z</time>
      </trkpt>
      <trkpt lat="42.8414860" lon="-7.7347270">
        <ele>681.3</ele>
        <time>2020-10-19T10:08:13Z</time>
      </trkpt>
      <trkpt lat="42.8414980" lon="-7.7347260">
        <ele>681.5</ele>
        <time>2020-10-19T10:08:14Z</time>
      </trkpt>
      <trkpt lat="42.8415120" lon="-7.7347260">
        <ele>681.6</ele>
        <time>2020-10-19T10:08:15Z</time>
      </trkpt>
      <trkpt lat="42.8415250" lon="-7.7347250">
        <ele>681.8</ele>
        <time>2020-10-19T10:08:16Z</time>
      </trkpt>
      <trkpt lat="42.8415370" lon="-7.7347230">
        <ele>681.9</ele>
        <time>2020-10-19T10:08:17Z</time>
      </trkpt>
      <trkpt lat="42.8415500" lon="-7.7347210">
        <ele>682.1</ele>
        <time>2020-10-19T10:08:18Z</time>
      </trkpt>
      <trkpt lat="42.8415620" lon="-7.7347170">
        <ele>682.3</ele>
        <time>2020-10-19T10:08:19Z</time>
      </trkpt>
      <trkpt lat="42.8415710" lon="-7.7347120">
        <ele>682.4</ele>
        <time>2020-10-19T10:08:20Z</time>
      </trkpt>
      <trkpt lat="42.8415790" lon="-7.7347050">
        <ele>682.5</ele>
        <time>2020-10-19T10:08:21Z</time>
      </trkpt>
      <trkpt lat="42.8415870" lon="-7.7346960">
        <ele>682.6</ele>
        <time>2020-10-19T10:08:22Z</time>
      </trkpt>
      <trkpt lat="42.8415940" lon="-7.7346850">
        <ele>682.8</ele>
        <time>2020-10-19T10:08:23Z</time>
      </trkpt>
      <trkpt lat="42.8416000" lon="-7.7346750">
        <ele>682.9</ele>
        <time>2020-10-19T10:08:24Z</time>
      </trkpt>
      <trkpt lat="42.8416060" lon="-7.7346650">
        <ele>682.9</ele>
        <time>2020-10-19T10:08:25Z</time>
      </trkpt>
      <trkpt lat="42.8416110" lon="-7.7346550">
        <ele>682.9</ele>
        <time>2020-10-19T10:08:26Z</time>
      </trkpt>
      <trkpt lat="42.8416160" lon="-7.7346440">
        <ele>683.0</ele>
        <time>2020-10-19T10:08:27Z</time>
      </trkpt>
      <trkpt lat="42.8416180" lon="-7.7346320">
        <ele>683.1</ele>
        <time>2020-10-19T10:08:28Z</time>
      </trkpt>
      <trkpt lat="42.8416210" lon="-7.7346210">
        <ele>683.2</ele>
        <time>2020-10-19T10:08:29Z</time>
      </trkpt>
      <trkpt lat="42.8416250" lon="-7.7346090">
        <ele>683.3</ele>
        <time>2020-10-19T10:08:30Z</time>
      </trkpt>
      <trkpt lat="42.8416290" lon="-7.7345990">
        <ele>683.3</ele>
        <time>2020-10-19T10:08:31Z</time>
      </trkpt>
      <trkpt lat="42.8416330" lon="-7.7345880">
        <ele>683.4</ele>
        <time>2020-10-19T10:08:32Z</time>
      </trkpt>
      <trkpt lat="42.8416340" lon="-7.7345760">
        <ele>683.5</ele>
        <time>2020-10-19T10:08:33Z</time>
      </trkpt>
      <trkpt lat="42.8416360" lon="-7.7345620">
        <ele>683.6</ele>
        <time>2020-10-19T10:08:34Z</time>
      </trkpt>
      <trkpt lat="42.8416380" lon="-7.7345470">
        <ele>683.7</ele>
        <time>2020-10-19T10:08:35Z</time>
      </trkpt>
      <trkpt lat="42.8416400" lon="-7.7345320">
        <ele>683.7</ele>
        <time>2020-10-19T10:08:36Z</time>
      </trkpt>
      <trkpt lat="42.8416420" lon="-7.7345180">
        <ele>683.8</ele>
        <time>2020-10-19T10:08:37Z</time>
      </trkpt>
      <trkpt lat="42.8416440" lon="-7.7345040">
        <ele>683.9</ele>
        <time>2020-10-19T10:08:38Z</time>
      </trkpt>
      <trkpt lat="42.8416450" lon="-7.7344910">
        <ele>684.0</ele>
        <time>2020-10-19T10:08:39Z</time>
      </trkpt>
      <trkpt lat="42.8416470" lon="-7.7344780">
        <ele>684.0</ele>
        <time>2020-10-19T10:08:40Z</time>
      </trkpt>
      <trkpt lat="42.8416490" lon="-7.7344640">
        <ele>684.1</ele>
        <time>2020-10-19T10:08:41Z</time>
      </trkpt>
      <trkpt lat="42.8416500" lon="-7.7344500">
        <ele>684.2</ele>
        <time>2020-10-19T10:08:42Z</time>
      </trkpt>
      <trkpt lat="42.8416510" lon="-7.7344350">
        <ele>684.3</ele>
        <time>2020-10-19T10:08:43Z</time>
      </trkpt>
      <trkpt lat="42.8416520" lon="-7.7344190">
        <ele>684.4</ele>
        <time>2020-10-19T10:08:44Z</time>
      </trkpt>
      <trkpt lat="42.8416540" lon="-7.7344040">
        <ele>684.4</ele>
        <time>2020-10-19T10:08:45Z</time>
      </trkpt>
      <trkpt lat="42.8416550" lon="-7.7343880">
        <ele>684.5</ele>
        <time>2020-10-19T10:08:46Z</time>
      </trkpt>
      <trkpt lat="42.8416560" lon="-7.7343720">
        <ele>684.6</ele>
        <time>2020-10-19T10:08:47Z</time>
      </trkpt>
      <trkpt lat="42.8416580" lon="-7.7343560">
        <ele>684.7</ele>
        <time>2020-10-19T10:08:48Z</time>
      </trkpt>
      <trkpt lat="42.8416590" lon="-7.7343400">
        <ele>684.8</ele>
        <time>2020-10-19T10:08:49Z</time>
      </trkpt>
      <trkpt lat="42.8416610" lon="-7.7343240">
        <ele>684.8</ele>
        <time>2020-10-19T10:08:50Z</time>
      </trkpt>
      <trkpt lat="42.8416630" lon="-7.7343090">
        <ele>684.9</ele>
        <time>2020-10-19T10:08:51Z</time>
      </trkpt>
      <trkpt lat="42.8416640" lon="-7.7342930">
        <ele>685.0</ele>
        <time>2020-10-19T10:08:52Z</time>
      </trkpt>
      <trkpt lat="42.8416650" lon="-7.7342770">
        <ele>685.1</ele>
        <time>2020-10-19T10:08:53Z</time>
      </trkpt>
      <trkpt lat="42.8416670" lon="-7.7342610">
        <ele>685.2</ele>
        <time>2020-10-19T10:08:54Z</time>
      </trkpt>
      <trkpt lat="42.8416680" lon="-7.7342450">
        <ele>685.2</ele>
        <time>2020-10-19T10:08:55Z</time>
      </trkpt>
      <trkpt lat="42.8416710" lon="-7.7342290">
        <ele>685.3</ele>
        <time>2020-10-19T10:08:56Z</time>
      </trkpt>
      <trkpt lat="42.8416740" lon="-7.7342130">
        <ele>685.4</ele>
        <time>2020-10-19T10:08:57Z</time>
      </trkpt>
      <trkpt lat="42.8416760" lon="-7.7341970">
        <ele>685.5</ele>
        <time>2020-10-19T10:08:58Z</time>
      </trkpt>
      <trkpt lat="42.8416780" lon="-7.7341820">
        <ele>685.6</ele>
        <time>2020-10-19T10:08:59Z</time>
      </trkpt>
      <trkpt lat="42.8416810" lon="-7.7341670">
        <ele>685.6</ele>
        <time>2020-10-19T10:09:00Z</time>
      </trkpt>
      <trkpt lat="42.8416840" lon="-7.7341530">
        <ele>685.7</ele>
        <time>2020-10-19T10:09:01Z</time>
      </trkpt>
      <trkpt lat="42.8416880" lon="-7.7341380">
        <ele>685.8</ele>
        <time>2020-10-19T10:09:02Z</time>
      </trkpt>
      <trkpt lat="42.8416910" lon="-7.7341240">
        <ele>685.9</ele>
        <time>2020-10-19T10:09:03Z</time>
      </trkpt>
      <trkpt lat="42.8416950" lon="-7.7341110">
        <ele>685.9</ele>
        <time>2020-10-19T10:09:04Z</time>
      </trkpt>
      <trkpt lat="42.8417000" lon="-7.7340990">
        <ele>686.0</ele>
        <time>2020-10-19T10:09:05Z</time>
      </trkpt>
      <trkpt lat="42.8417040" lon="-7.7340860">
        <ele>686.3</ele>
        <time>2020-10-19T10:09:06Z</time>
      </trkpt>
      <trkpt lat="42.8417100" lon="-7.7340740">
        <ele>686.3</ele>
        <time>2020-10-19T10:09:07Z</time>
      </trkpt>
      <trkpt lat="42.8417150" lon="-7.7340600">
        <ele>686.3</ele>
        <time>2020-10-19T10:09:08Z</time>
      </trkpt>
      <trkpt lat="42.8417200" lon="-7.7340460">
        <ele>686.4</ele>
        <time>2020-10-19T10:09:09Z</time>
      </trkpt>
      <trkpt lat="42.8417250" lon="-7.7340320">
        <ele>686.4</ele>
        <time>2020-10-19T10:09:10Z</time>
      </trkpt>
      <trkpt lat="42.8417300" lon="-7.7340180">
        <ele>686.4</ele>
        <time>2020-10-19T10:09:11Z</time>
      </trkpt>
      <trkpt lat="42.8417350" lon="-7.7340040">
        <ele>686.4</ele>
        <time>2020-10-19T10:09:12Z</time>
      </trkpt>
      <trkpt lat="42.8417390" lon="-7.7339910">
        <ele>686.5</ele>
        <time>2020-10-19T10:09:13Z</time>
      </trkpt>
      <trkpt lat="42.8417450" lon="-7.7339780">
        <ele>686.5</ele>
        <time>2020-10-19T10:09:14Z</time>
      </trkpt>
      <trkpt lat="42.8417510" lon="-7.7339670">
        <ele>686.5</ele>
        <time>2020-10-19T10:09:15Z</time>
      </trkpt>
      <trkpt lat="42.8417580" lon="-7.7339560">
        <ele>686.6</ele>
        <time>2020-10-19T10:09:16Z</time>
      </trkpt>
      <trkpt lat="42.8417660" lon="-7.7339470">
        <ele>686.6</ele>
        <time>2020-10-19T10:09:17Z</time>
      </trkpt>
      <trkpt lat="42.8417730" lon="-7.7339370">
        <ele>686.6</ele>
        <time>2020-10-19T10:09:18Z</time>
      </trkpt>
      <trkpt lat="42.8417810" lon="-7.7339280">
        <ele>686.6</ele>
        <time>2020-10-19T10:09:19Z</time>
      </trkpt>
      <trkpt lat="42.8417900" lon="-7.7339200">
        <ele>686.6</ele>
        <time>2020-10-19T10:09:20Z</time>
      </trkpt>
      <trkpt lat="42.8417990" lon="-7.7339120">
        <ele>686.7</ele>
        <time>2020-10-19T10:09:21Z</time>
      </trkpt>
      <trkpt lat="42.8418090" lon="-7.7339040">
        <ele>686.8</ele>
        <time>2020-10-19T10:09:22Z</time>
      </trkpt>
      <trkpt lat="42.8418170" lon="-7.7338940">
        <ele>686.9</ele>
        <time>2020-10-19T10:09:23Z</time>
      </trkpt>
      <trkpt lat="42.8418230" lon="-7.7338820">
        <ele>687.0</ele>
        <time>2020-10-19T10:09:24Z</time>
      </trkpt>
      <trkpt lat="42.8418280" lon="-7.7338690">
        <ele>687.1</ele>
        <time>2020-10-19T10:09:25Z</time>
      </trkpt>
      <trkpt lat="42.8418310" lon="-7.7338550">
        <ele>687.2</ele>
        <time>2020-10-19T10:09:26Z</time>
      </trkpt>
      <trkpt lat="42.8418340" lon="-7.7338400">
        <ele>687.2</ele>
        <time>2020-10-19T10:09:27Z</time>
      </trkpt>
      <trkpt lat="42.8418370" lon="-7.7338250">
        <ele>687.3</ele>
        <time>2020-10-19T10:09:28Z</time>
      </trkpt>
      <trkpt lat="42.8418410" lon="-7.7338100">
        <ele>687.5</ele>
        <time>2020-10-19T10:09:29Z</time>
      </trkpt>
      <trkpt lat="42.8418460" lon="-7.7337960">
        <ele>687.6</ele>
        <time>2020-10-19T10:09:30Z</time>
      </trkpt>
      <trkpt lat="42.8418510" lon="-7.7337820">
        <ele>687.7</ele>
        <time>2020-10-19T10:09:31Z</time>
      </trkpt>
      <trkpt lat="42.8418580" lon="-7.7337690">
        <ele>687.8</ele>
        <time>2020-10-19T10:09:32Z</time>
      </trkpt>
      <trkpt lat="42.8418650" lon="-7.7337560">
        <ele>687.9</ele>
        <time>2020-10-19T10:09:33Z</time>
      </trkpt>
      <trkpt lat="42.8418740" lon="-7.7337450">
        <ele>688.0</ele>
        <time>2020-10-19T10:09:34Z</time>
      </trkpt>
      <trkpt lat="42.8418840" lon="-7.7337350">
        <ele>688.1</ele>
        <time>2020-10-19T10:09:35Z</time>
      </trkpt>
      <trkpt lat="42.8418950" lon="-7.7337280">
        <ele>688.2</ele>
        <time>2020-10-19T10:09:36Z</time>
      </trkpt>
      <trkpt lat="42.8419070" lon="-7.7337220">
        <ele>688.4</ele>
        <time>2020-10-19T10:09:37Z</time>
      </trkpt>
      <trkpt lat="42.8419180" lon="-7.7337170">
        <ele>688.5</ele>
        <time>2020-10-19T10:09:38Z</time>
      </trkpt>
      <trkpt lat="42.8419290" lon="-7.7337130">
        <ele>688.6</ele>
        <time>2020-10-19T10:09:39Z</time>
      </trkpt>
      <trkpt lat="42.8419400" lon="-7.7337090">
        <ele>688.7</ele>
        <time>2020-10-19T10:09:40Z</time>
      </trkpt>
      <trkpt lat="42.8419510" lon="-7.7337070">
        <ele>688.8</ele>
        <time>2020-10-19T10:09:41Z</time>
      </trkpt>
      <trkpt lat="42.8419620" lon="-7.7337070">
        <ele>688.9</ele>
        <time>2020-10-19T10:09:42Z</time>
      </trkpt>
      <trkpt lat="42.8419740" lon="-7.7337080">
        <ele>689.0</ele>
        <time>2020-10-19T10:09:43Z</time>
      </trkpt>
      <trkpt lat="42.8419860" lon="-7.7337110">
        <ele>689.1</ele>
        <time>2020-10-19T10:09:44Z</time>
      </trkpt>
      <trkpt lat="42.8419970" lon="-7.7337150">
        <ele>689.2</ele>
        <time>2020-10-19T10:09:45Z</time>
      </trkpt>
      <trkpt lat="42.8420070" lon="-7.7337210">
        <ele>689.3</ele>
        <time>2020-10-19T10:09:46Z</time>
      </trkpt>
      <trkpt lat="42.8420170" lon="-7.7337300">
        <ele>689.4</ele>
        <time>2020-10-19T10:09:47Z</time>
      </trkpt>
      <trkpt lat="42.8420270" lon="-7.7337400">
        <ele>689.5</ele>
        <time>2020-10-19T10:09:48Z</time>
      </trkpt>
      <trkpt lat="42.8420350" lon="-7.7337500">
        <ele>689.6</ele>
        <time>2020-10-19T10:09:49Z</time>
      </trkpt>
      <trkpt lat="42.8420420" lon="-7.7337610">
        <ele>689.7</ele>
        <time>2020-10-19T10:09:50Z</time>
      </trkpt>
      <trkpt lat="42.8420490" lon="-7.7337730">
        <ele>689.8</ele>
        <time>2020-10-19T10:09:51Z</time>
      </trkpt>
      <trkpt lat="42.8420560" lon="-7.7337850">
        <ele>689.9</ele>
        <time>2020-10-19T10:09:52Z</time>
      </trkpt>
      <trkpt lat="42.8420630" lon="-7.7337980">
        <ele>690.0</ele>
        <time>2020-10-19T10:09:53Z</time>
      </trkpt>
      <trkpt lat="42.8420710" lon="-7.7338120">
        <ele>690.1</ele>
        <time>2020-10-19T10:09:54Z</time>
      </trkpt>
      <trkpt lat="42.8420780" lon="-7.7338270">
        <ele>690.1</ele>
        <time>2020-10-19T10:09:55Z</time>
      </trkpt>
      <trkpt lat="42.8420860" lon="-7.7338410">
        <ele>690.1</ele>
        <time>2020-10-19T10:09:56Z</time>
      </trkpt>
      <trkpt lat="42.8420940" lon="-7.7338550">
        <ele>690.1</ele>
        <time>2020-10-19T10:09:57Z</time>
      </trkpt>
      <trkpt lat="42.8421020" lon="-7.7338680">
        <ele>690.1</ele>
        <time>2020-10-19T10:09:58Z</time>
      </trkpt>
      <trkpt lat="42.8421110" lon="-7.7338820">
        <ele>690.1</ele>
        <time>2020-10-19T10:09:59Z</time>
      </trkpt>
      <trkpt lat="42.8421200" lon="-7.7338950">
        <ele>690.1</ele>
        <time>2020-10-19T10:10:00Z</time>
      </trkpt>
      <trkpt lat="42.8421290" lon="-7.7339080">
        <ele>690.1</ele>
        <time>2020-10-19T10:10:01Z</time>
      </trkpt>
      <trkpt lat="42.8421370" lon="-7.7339220">
        <ele>690.1</ele>
        <time>2020-10-19T10:10:02Z</time>
      </trkpt>
      <trkpt lat="42.8421440" lon="-7.7339370">
        <ele>690.1</ele>
        <time>2020-10-19T10:10:03Z</time>
      </trkpt>
      <trkpt lat="42.8421520" lon="-7.7339500">
        <ele>690.1</ele>
        <time>2020-10-19T10:10:04Z</time>
      </trkpt>
      <trkpt lat="42.8421600" lon="-7.7339640">
        <ele>690.1</ele>
        <time>2020-10-19T10:10:05Z</time>
      </trkpt>
      <trkpt lat="42.8421680" lon="-7.7339770">
        <ele>690.1</ele>
        <time>2020-10-19T10:10:06Z</time>
      </trkpt>
      <trkpt lat="42.8421760" lon="-7.7339900">
        <ele>690.1</ele>
        <time>2020-10-19T10:10:07Z</time>
      </trkpt>
      <trkpt lat="42.8421840" lon="-7.7340040">
        <ele>690.1</ele>
        <time>2020-10-19T10:10:08Z</time>
      </trkpt>
      <trkpt lat="42.8421910" lon="-7.7340180">
        <ele>690.1</ele>
        <time>2020-10-19T10:10:09Z</time>
      </trkpt>
      <trkpt lat="42.8421990" lon="-7.7340310">
        <ele>690.1</ele>
        <time>2020-10-19T10:10:10Z</time>
      </trkpt>
      <trkpt lat="42.8422060" lon="-7.7340440">
        <ele>690.1</ele>
        <time>2020-10-19T10:10:11Z</time>
      </trkpt>
      <trkpt lat="42.8422140" lon="-7.7340570">
        <ele>690.1</ele>
        <time>2020-10-19T10:10:12Z</time>
      </trkpt>
      <trkpt lat="42.8422210" lon="-7.7340710">
        <ele>690.1</ele>
        <time>2020-10-19T10:10:13Z</time>
      </trkpt>
      <trkpt lat="42.8422280" lon="-7.7340850">
        <ele>690.1</ele>
        <time>2020-10-19T10:10:14Z</time>
      </trkpt>
      <trkpt lat="42.8422350" lon="-7.7340980">
        <ele>690.1</ele>
        <time>2020-10-19T10:10:15Z</time>
      </trkpt>
      <trkpt lat="42.8422430" lon="-7.7341120">
        <ele>690.1</ele>
        <time>2020-10-19T10:10:16Z</time>
      </trkpt>
      <trkpt lat="42.8422510" lon="-7.7341250">
        <ele>690.1</ele>
        <time>2020-10-19T10:10:17Z</time>
      </trkpt>
      <trkpt lat="42.8422590" lon="-7.7341390">
        <ele>690.1</ele>
        <time>2020-10-19T10:10:18Z</time>
      </trkpt>
      <trkpt lat="42.8422670" lon="-7.7341540">
        <ele>690.1</ele>
        <time>2020-10-19T10:10:19Z</time>
      </trkpt>
      <trkpt lat="42.8422740" lon="-7.7341690">
        <ele>690.1</ele>
        <time>2020-10-19T10:10:20Z</time>
      </trkpt>
      <trkpt lat="42.8422800" lon="-7.7341840">
        <ele>690.1</ele>
        <time>2020-10-19T10:10:21Z</time>
      </trkpt>
      <trkpt lat="42.8422870" lon="-7.7341980">
        <ele>690.0</ele>
        <time>2020-10-19T10:10:22Z</time>
      </trkpt>
      <trkpt lat="42.8422940" lon="-7.7342120">
        <ele>690.0</ele>
        <time>2020-10-19T10:10:23Z</time>
      </trkpt>
      <trkpt lat="42.8423020" lon="-7.7342250">
        <ele>690.0</ele>
        <time>2020-10-19T10:10:24Z</time>
      </trkpt>
      <trkpt lat="42.8423110" lon="-7.7342390">
        <ele>690.0</ele>
        <time>2020-10-19T10:10:25Z</time>
      </trkpt>
      <trkpt lat="42.8423190" lon="-7.7342520">
        <ele>690.0</ele>
        <time>2020-10-19T10:10:26Z</time>
      </trkpt>
      <trkpt lat="42.8423260" lon="-7.7342680">
        <ele>689.9</ele>
        <time>2020-10-19T10:10:27Z</time>
      </trkpt>
      <trkpt lat="42.8423320" lon="-7.7342840">
        <ele>689.9</ele>
        <time>2020-10-19T10:10:28Z</time>
      </trkpt>
      <trkpt lat="42.8423380" lon="-7.7343000">
        <ele>689.9</ele>
        <time>2020-10-19T10:10:29Z</time>
      </trkpt>
      <trkpt lat="42.8423430" lon="-7.7343160">
        <ele>689.9</ele>
        <time>2020-10-19T10:10:30Z</time>
      </trkpt>
      <trkpt lat="42.8423470" lon="-7.7343330">
        <ele>689.8</ele>
        <time>2020-10-19T10:10:31Z</time>
      </trkpt>
      <trkpt lat="42.8423490" lon="-7.7343510">
        <ele>689.8</ele>
        <time>2020-10-19T10:10:32Z</time>
      </trkpt>
      <trkpt lat="42.8423470" lon="-7.7343670">
        <ele>689.8</ele>
        <time>2020-10-19T10:10:33Z</time>
      </trkpt>
      <trkpt lat="42.8423430" lon="-7.7343830">
        <ele>689.7</ele>
        <time>2020-10-19T10:10:34Z</time>
      </trkpt>
      <trkpt lat="42.8423360" lon="-7.7343980">
        <ele>689.7</ele>
        <time>2020-10-19T10:10:35Z</time>
      </trkpt>
      <trkpt lat="42.8423290" lon="-7.7344130">
        <ele>689.6</ele>
        <time>2020-10-19T10:10:36Z</time>
      </trkpt>
      <trkpt lat="42.8423210" lon="-7.7344270">
        <ele>689.6</ele>
        <time>2020-10-19T10:10:37Z</time>
      </trkpt>
      <trkpt lat="42.8423120" lon="-7.7344400">
        <ele>689.6</ele>
        <time>2020-10-19T10:10:38Z</time>
      </trkpt>
      <trkpt lat="42.8423030" lon="-7.7344510">
        <ele>689.5</ele>
        <time>2020-10-19T10:10:39Z</time>
      </trkpt>
      <trkpt lat="42.8422940" lon="-7.7344620">
        <ele>689.5</ele>
        <time>2020-10-19T10:10:40Z</time>
      </trkpt>
      <trkpt lat="42.8422850" lon="-7.7344730">
        <ele>689.4</ele>
        <time>2020-10-19T10:10:41Z</time>
      </trkpt>
      <trkpt lat="42.8422750" lon="-7.7344840">
        <ele>689.4</ele>
        <time>2020-10-19T10:10:42Z</time>
      </trkpt>
      <trkpt lat="42.8422650" lon="-7.7344960">
        <ele>689.3</ele>
        <time>2020-10-19T10:10:43Z</time>
      </trkpt>
      <trkpt lat="42.8422550" lon="-7.7345080">
        <ele>689.3</ele>
        <time>2020-10-19T10:10:44Z</time>
      </trkpt>
      <trkpt lat="42.8422450" lon="-7.7345200">
        <ele>689.2</ele>
        <time>2020-10-19T10:10:45Z</time>
      </trkpt>
      <trkpt lat="42.8422350" lon="-7.7345330">
        <ele>689.1</ele>
        <time>2020-10-19T10:10:46Z</time>
      </trkpt>
      <trkpt lat="42.8422250" lon="-7.7345460">
        <ele>689.1</ele>
        <time>2020-10-19T10:10:47Z</time>
      </trkpt>
      <trkpt lat="42.8422150" lon="-7.7345590">
        <ele>689.0</ele>
        <time>2020-10-19T10:10:48Z</time>
      </trkpt>
      <trkpt lat="42.8422050" lon="-7.7345710">
        <ele>688.9</ele>
        <time>2020-10-19T10:10:49Z</time>
      </trkpt>
      <trkpt lat="42.8421960" lon="-7.7345830">
        <ele>688.9</ele>
        <time>2020-10-19T10:10:50Z</time>
      </trkpt>
      <trkpt lat="42.8421870" lon="-7.7345950">
        <ele>688.8</ele>
        <time>2020-10-19T10:10:51Z</time>
      </trkpt>
      <trkpt lat="42.8421790" lon="-7.7346070">
        <ele>688.7</ele>
        <time>2020-10-19T10:10:52Z</time>
      </trkpt>
      <trkpt lat="42.8421710" lon="-7.7346200">
        <ele>688.6</ele>
        <time>2020-10-19T10:10:53Z</time>
      </trkpt>
      <trkpt lat="42.8421630" lon="-7.7346320">
        <ele>688.6</ele>
        <time>2020-10-19T10:10:54Z</time>
      </trkpt>
      <trkpt lat="42.8421560" lon="-7.7346450">
        <ele>688.5</ele>
        <time>2020-10-19T10:10:55Z</time>
      </trkpt>
      <trkpt lat="42.8421480" lon="-7.7346580">
        <ele>688.4</ele>
        <time>2020-10-19T10:10:56Z</time>
      </trkpt>
      <trkpt lat="42.8421390" lon="-7.7346710">
        <ele>688.3</ele>
        <time>2020-10-19T10:10:57Z</time>
      </trkpt>
      <trkpt lat="42.8421310" lon="-7.7346840">
        <ele>688.2</ele>
        <time>2020-10-19T10:10:58Z</time>
      </trkpt>
      <trkpt lat="42.8421230" lon="-7.7346970">
        <ele>688.1</ele>
        <time>2020-10-19T10:10:59Z</time>
      </trkpt>
      <trkpt lat="42.8421140" lon="-7.7347110">
        <ele>688.0</ele>
        <time>2020-10-19T10:11:00Z</time>
      </trkpt>
      <trkpt lat="42.8421060" lon="-7.7347250">
        <ele>687.9</ele>
        <time>2020-10-19T10:11:01Z</time>
      </trkpt>
      <trkpt lat="42.8420990" lon="-7.7347390">
        <ele>687.8</ele>
        <time>2020-10-19T10:11:02Z</time>
      </trkpt>
      <trkpt lat="42.8420920" lon="-7.7347520">
        <ele>687.7</ele>
        <time>2020-10-19T10:11:03Z</time>
      </trkpt>
      <trkpt lat="42.8420840" lon="-7.7347660">
        <ele>687.6</ele>
        <time>2020-10-19T10:11:04Z</time>
      </trkpt>
      <trkpt lat="42.8420780" lon="-7.7347790">
        <ele>687.5</ele>
        <time>2020-10-19T10:11:05Z</time>
      </trkpt>
      <trkpt lat="42.8420710" lon="-7.7347930">
        <ele>687.4</ele>
        <time>2020-10-19T10:11:06Z</time>
      </trkpt>
      <trkpt lat="42.8420650" lon="-7.7348070">
        <ele>687.4</ele>
        <time>2020-10-19T10:11:07Z</time>
      </trkpt>
      <trkpt lat="42.8420580" lon="-7.7348200">
        <ele>687.2</ele>
        <time>2020-10-19T10:11:08Z</time>
      </trkpt>
      <trkpt lat="42.8420510" lon="-7.7348340">
        <ele>687.1</ele>
        <time>2020-10-19T10:11:09Z</time>
      </trkpt>
      <trkpt lat="42.8420440" lon="-7.7348480">
        <ele>687.0</ele>
        <time>2020-10-19T10:11:10Z</time>
      </trkpt>
      <trkpt lat="42.8420370" lon="-7.7348630">
        <ele>686.9</ele>
        <time>2020-10-19T10:11:11Z</time>
      </trkpt>
      <trkpt lat="42.8420290" lon="-7.7348770">
        <ele>686.8</ele>
        <time>2020-10-19T10:11:12Z</time>
      </trkpt>
      <trkpt lat="42.8420220" lon="-7.7348920">
        <ele>686.7</ele>
        <time>2020-10-19T10:11:13Z</time>
      </trkpt>
      <trkpt lat="42.8420140" lon="-7.7349060">
        <ele>686.5</ele>
        <time>2020-10-19T10:11:14Z</time>
      </trkpt>
      <trkpt lat="42.8420070" lon="-7.7349200">
        <ele>686.4</ele>
        <time>2020-10-19T10:11:15Z</time>
      </trkpt>
      <trkpt lat="42.8420010" lon="-7.7349330">
        <ele>686.3</ele>
        <time>2020-10-19T10:11:16Z</time>
      </trkpt>
      <trkpt lat="42.8419950" lon="-7.7349460">
        <ele>686.2</ele>
        <time>2020-10-19T10:11:17Z</time>
      </trkpt>
      <trkpt lat="42.8419910" lon="-7.7349580">
        <ele>686.1</ele>
        <time>2020-10-19T10:11:18Z</time>
      </trkpt>
      <trkpt lat="42.8419880" lon="-7.7349680">
        <ele>686.1</ele>
        <time>2020-10-19T10:11:19Z</time>
      </trkpt>
      <trkpt lat="42.8419860" lon="-7.7349780">
        <ele>686.0</ele>
        <time>2020-10-19T10:11:20Z</time>
      </trkpt>
      <trkpt lat="42.8419830" lon="-7.7349920">
        <ele>685.9</ele>
        <time>2020-10-19T10:11:21Z</time>
      </trkpt>
      <trkpt lat="42.8419780" lon="-7.7350070">
        <ele>685.8</ele>
        <time>2020-10-19T10:11:22Z</time>
      </trkpt>
      <trkpt lat="42.8419720" lon="-7.7350210">
        <ele>685.7</ele>
        <time>2020-10-19T10:11:23Z</time>
      </trkpt>
      <trkpt lat="42.8419660" lon="-7.7350360">
        <ele>685.6</ele>
        <time>2020-10-19T10:11:24Z</time>
      </trkpt>
      <trkpt lat="42.8419600" lon="-7.7350500">
        <ele>685.5</ele>
        <time>2020-10-19T10:11:25Z</time>
      </trkpt>
      <trkpt lat="42.8419540" lon="-7.7350640">
        <ele>685.4</ele>
        <time>2020-10-19T10:11:26Z</time>
      </trkpt>
      <trkpt lat="42.8419480" lon="-7.7350780">
        <ele>685.2</ele>
        <time>2020-10-19T10:11:27Z</time>
      </trkpt>
      <trkpt lat="42.8419420" lon="-7.7350900">
        <ele>685.1</ele>
        <time>2020-10-19T10:11:28Z</time>
      </trkpt>
      <trkpt lat="42.8419380" lon="-7.7351020">
        <ele>685.1</ele>
        <time>2020-10-19T10:11:29Z</time>
      </trkpt>
      <trkpt lat="42.8419360" lon="-7.7351150">
        <ele>685.0</ele>
        <time>2020-10-19T10:11:30Z</time>
      </trkpt>
      <trkpt lat="42.8419360" lon="-7.7351290">
        <ele>684.9</ele>
        <time>2020-10-19T10:11:31Z</time>
      </trkpt>
      <trkpt lat="42.8419380" lon="-7.7351450">
        <ele>684.8</ele>
        <time>2020-10-19T10:11:32Z</time>
      </trkpt>
      <trkpt lat="42.8419430" lon="-7.7351620">
        <ele>684.7</ele>
        <time>2020-10-19T10:11:33Z</time>
      </trkpt>
      <trkpt lat="42.8419480" lon="-7.7351780">
        <ele>684.6</ele>
        <time>2020-10-19T10:11:34Z</time>
      </trkpt>
      <trkpt lat="42.8419540" lon="-7.7351960">
        <ele>684.4</ele>
        <time>2020-10-19T10:11:35Z</time>
      </trkpt>
      <trkpt lat="42.8419590" lon="-7.7352130">
        <ele>684.3</ele>
        <time>2020-10-19T10:11:36Z</time>
      </trkpt>
      <trkpt lat="42.8419620" lon="-7.7352310">
        <ele>684.2</ele>
        <time>2020-10-19T10:11:37Z</time>
      </trkpt>
      <trkpt lat="42.8419640" lon="-7.7352480">
        <ele>684.1</ele>
        <time>2020-10-19T10:11:38Z</time>
      </trkpt>
      <trkpt lat="42.8419630" lon="-7.7352640">
        <ele>684.0</ele>
        <time>2020-10-19T10:11:39Z</time>
      </trkpt>
      <trkpt lat="42.8419600" lon="-7.7352780">
        <ele>683.5</ele>
        <time>2020-10-19T10:11:40Z</time>
      </trkpt>
      <trkpt lat="42.8419560" lon="-7.7352930">
        <ele>683.5</ele>
        <time>2020-10-19T10:11:41Z</time>
      </trkpt>
      <trkpt lat="42.8419510" lon="-7.7353070">
        <ele>683.5</ele>
        <time>2020-10-19T10:11:42Z</time>
      </trkpt>
      <trkpt lat="42.8419470" lon="-7.7353220">
        <ele>683.5</ele>
        <time>2020-10-19T10:11:43Z</time>
      </trkpt>
      <trkpt lat="42.8419450" lon="-7.7353380">
        <ele>683.5</ele>
        <time>2020-10-19T10:11:44Z</time>
      </trkpt>
      <trkpt lat="42.8419440" lon="-7.7353560">
        <ele>683.5</ele>
        <time>2020-10-19T10:11:45Z</time>
      </trkpt>
      <trkpt lat="42.8419440" lon="-7.7353740">
        <ele>683.4</ele>
        <time>2020-10-19T10:11:46Z</time>
      </trkpt>
      <trkpt lat="42.8419450" lon="-7.7353910">
        <ele>683.4</ele>
        <time>2020-10-19T10:11:47Z</time>
      </trkpt>
      <trkpt lat="42.8419460" lon="-7.7354060">
        <ele>683.4</ele>
        <time>2020-10-19T10:11:48Z</time>
      </trkpt>
      <trkpt lat="42.8419480" lon="-7.7354220">
        <ele>683.4</ele>
        <time>2020-10-19T10:11:49Z</time>
      </trkpt>
      <trkpt lat="42.8419500" lon="-7.7354390">
        <ele>683.3</ele>
        <time>2020-10-19T10:11:50Z</time>
      </trkpt>
      <trkpt lat="42.8419530" lon="-7.7354560">
        <ele>683.3</ele>
        <time>2020-10-19T10:11:51Z</time>
      </trkpt>
      <trkpt lat="42.8419560" lon="-7.7354720">
        <ele>683.3</ele>
        <time>2020-10-19T10:11:52Z</time>
      </trkpt>
      <trkpt lat="42.8419580" lon="-7.7354870">
        <ele>683.3</ele>
        <time>2020-10-19T10:11:53Z</time>
      </trkpt>
      <trkpt lat="42.8419610" lon="-7.7355010">
        <ele>683.3</ele>
        <time>2020-10-19T10:11:54Z</time>
      </trkpt>
      <trkpt lat="42.8419640" lon="-7.7355160">
        <ele>683.2</ele>
        <time>2020-10-19T10:11:55Z</time>
      </trkpt>
      <trkpt lat="42.8419670" lon="-7.7355310">
        <ele>683.2</ele>
        <time>2020-10-19T10:11:56Z</time>
      </trkpt>
      <trkpt lat="42.8419710" lon="-7.7355470">
        <ele>683.2</ele>
        <time>2020-10-19T10:11:57Z</time>
      </trkpt>
      <trkpt lat="42.8419740" lon="-7.7355620">
        <ele>683.2</ele>
        <time>2020-10-19T10:11:58Z</time>
      </trkpt>
      <trkpt lat="42.8419770" lon="-7.7355770">
        <ele>683.2</ele>
        <time>2020-10-19T10:11:59Z</time>
      </trkpt>
      <trkpt lat="42.8419810" lon="-7.7355920">
        <ele>683.2</ele>
        <time>2020-10-19T10:12:00Z</time>
      </trkpt>
      <trkpt lat="42.8419870" lon="-7.7356060">
        <ele>683.1</ele>
        <time>2020-10-19T10:12:01Z</time>
      </trkpt>
      <trkpt lat="42.8419920" lon="-7.7356210">
        <ele>683.1</ele>
        <time>2020-10-19T10:12:02Z</time>
      </trkpt>
      <trkpt lat="42.8419980" lon="-7.7356360">
        <ele>683.1</ele>
        <time>2020-10-19T10:12:03Z</time>
      </trkpt>
      <trkpt lat="42.8420020" lon="-7.7356520">
        <ele>683.1</ele>
        <time>2020-10-19T10:12:04Z</time>
      </trkpt>
      <trkpt lat="42.8420060" lon="-7.7356680">
        <ele>683.1</ele>
        <time>2020-10-19T10:12:05Z</time>
      </trkpt>
      <trkpt lat="42.8420070" lon="-7.7356850">
        <ele>683.1</ele>
        <time>2020-10-19T10:12:06Z</time>
      </trkpt>
      <trkpt lat="42.8420060" lon="-7.7357010">
        <ele>683.0</ele>
        <time>2020-10-19T10:12:07Z</time>
      </trkpt>
      <trkpt lat="42.8420040" lon="-7.7357170">
        <ele>683.0</ele>
        <time>2020-10-19T10:12:08Z</time>
      </trkpt>
      <trkpt lat="42.8420020" lon="-7.7357310">
        <ele>683.0</ele>
        <time>2020-10-19T10:12:09Z</time>
      </trkpt>
      <trkpt lat="42.8420000" lon="-7.7357440">
        <ele>683.0</ele>
        <time>2020-10-19T10:12:10Z</time>
      </trkpt>
      <trkpt lat="42.8419980" lon="-7.7357570">
        <ele>683.0</ele>
        <time>2020-10-19T10:12:11Z</time>
      </trkpt>
      <trkpt lat="42.8419960" lon="-7.7357690">
        <ele>683.0</ele>
        <time>2020-10-19T10:12:12Z</time>
      </trkpt>
      <trkpt lat="42.8419930" lon="-7.7357770">
        <ele>683.0</ele>
        <time>2020-10-19T10:12:13Z</time>
      </trkpt>
      <trkpt lat="42.8419910" lon="-7.7357820">
        <ele>683.0</ele>
        <time>2020-10-19T10:12:14Z</time>
      </trkpt>
      <trkpt lat="42.8419890" lon="-7.7357820">
        <ele>683.0</ele>
        <time>2020-10-19T10:12:15Z</time>
      </trkpt>
      <trkpt lat="42.8419880" lon="-7.7357830">
        <ele>683.0</ele>
        <time>2020-10-19T10:12:16Z</time>
      </trkpt>
      <trkpt lat="42.8419870" lon="-7.7357840">
        <ele>683.0</ele>
        <time>2020-10-19T10:12:17Z</time>
      </trkpt>
      <trkpt lat="42.8419870" lon="-7.7357850">
        <ele>683.0</ele>
        <time>2020-10-19T10:12:18Z</time>
      </trkpt>
      <trkpt lat="42.8419880" lon="-7.7357850">
        <ele>683.0</ele>
        <time>2020-10-19T10:12:19Z</time>
      </trkpt>
      <trkpt lat="42.8419880" lon="-7.7357850">
        <ele>683.0</ele>
        <time>2020-10-19T10:12:20Z</time>
      </trkpt>
      <trkpt lat="42.8419890" lon="-7.7357850">
        <ele>683.0</ele>
        <time>2020-10-19T10:12:21Z</time>
      </trkpt>
      <trkpt lat="42.8419890" lon="-7.7357850">
        <ele>683.0</ele>
        <time>2020-10-19T10:12:22Z</time>
      </trkpt>
      <trkpt lat="42.8419900" lon="-7.7357840">
        <ele>683.0</ele>
        <time>2020-10-19T10:12:23Z</time>
      </trkpt>
      <trkpt lat="42.8419900" lon="-7.7357840">
        <ele>683.0</ele>
        <time>2020-10-19T10:12:24Z</time>
      </trkpt>
      <trkpt lat="42.8419900" lon="-7.7357840">
        <ele>683.0</ele>
        <time>2020-10-19T10:12:25Z</time>
      </trkpt>
      <trkpt lat="42.8419920" lon="-7.7357860">
        <ele>683.0</ele>
        <time>2020-10-19T10:12:26Z</time>
      </trkpt>
      <trkpt lat="42.8419920" lon="-7.7357900">
        <ele>683.0</ele>
        <time>2020-10-19T10:12:27Z</time>
      </trkpt>
      <trkpt lat="42.8419930" lon="-7.7357950">
        <ele>683.0</ele>
        <time>2020-10-19T10:12:28Z</time>
      </trkpt>
      <trkpt lat="42.8419930" lon="-7.7357970">
        <ele>683.0</ele>
        <time>2020-10-19T10:12:29Z</time>
      </trkpt>
      <trkpt lat="42.8419930" lon="-7.7357970">
        <ele>683.0</ele>
        <time>2020-10-19T10:12:30Z</time>
      </trkpt>
      <trkpt lat="42.8419920" lon="-7.7357980">
        <ele>683.0</ele>
        <time>2020-10-19T10:12:31Z</time>
      </trkpt>
      <trkpt lat="42.8419920" lon="-7.7358000">
        <ele>683.0</ele>
        <time>2020-10-19T10:12:32Z</time>
      </trkpt>
      <trkpt lat="42.8419920" lon="-7.7358010">
        <ele>683.0</ele>
        <time>2020-10-19T10:12:33Z</time>
      </trkpt>
      <trkpt lat="42.8419920" lon="-7.7358010">
        <ele>683.0</ele>
        <time>2020-10-19T10:12:34Z</time>
      </trkpt>
      <trkpt lat="42.8419920" lon="-7.7358000">
        <ele>683.0</ele>
        <time>2020-10-19T10:12:35Z</time>
      </trkpt>
      <trkpt lat="42.8419910" lon="-7.7357950">
        <ele>683.0</ele>
        <time>2020-10-19T10:12:36Z</time>
      </trkpt>
      <trkpt lat="42.8419910" lon="-7.7357900">
        <ele>683.0</ele>
        <time>2020-10-19T10:12:37Z</time>
      </trkpt>
      <trkpt lat="42.8419900" lon="-7.7357870">
        <ele>683.0</ele>
        <time>2020-10-19T10:12:38Z</time>
      </trkpt>
      <trkpt lat="42.8419910" lon="-7.7357870">
        <ele>683.0</ele>
        <time>2020-10-19T10:12:39Z</time>
      </trkpt>
      <trkpt lat="42.8419900" lon="-7.7357870">
        <ele>683.0</ele>
        <time>2020-10-19T10:12:40Z</time>
      </trkpt>
      <trkpt lat="42.8419910" lon="-7.7357870">
        <ele>683.0</ele>
        <time>2020-10-19T10:12:41Z</time>
      </trkpt>
      <trkpt lat="42.8419900" lon="-7.7357860">
        <ele>683.0</ele>
        <time>2020-10-19T10:12:42Z</time>
      </trkpt>
      <trkpt lat="42.8419900" lon="-7.7357860">
        <ele>683.0</ele>
        <time>2020-10-19T10:12:43Z</time>
      </trkpt>
      <trkpt lat="42.8419900" lon="-7.7357870">
        <ele>683.0</ele>
        <time>2020-10-19T10:12:44Z</time>
      </trkpt>
      <trkpt lat="42.8419880" lon="-7.7357850">
        <ele>683.0</ele>
        <time>2020-10-19T10:12:45Z</time>
      </trkpt>
      <trkpt lat="42.8419840" lon="-7.7357820">
        <ele>683.0</ele>
        <time>2020-10-19T10:12:46Z</time>
      </trkpt>
      <trkpt lat="42.8419770" lon="-7.7357760">
        <ele>683.0</ele>
        <time>2020-10-19T10:12:47Z</time>
      </trkpt>
      <trkpt lat="42.8419700" lon="-7.7357720">
        <ele>683.0</ele>
        <time>2020-10-19T10:12:48Z</time>
      </trkpt>
      <trkpt lat="42.8419640" lon="-7.7357680">
        <ele>683.0</ele>
        <time>2020-10-19T10:12:49Z</time>
      </trkpt>
      <trkpt lat="42.8419600" lon="-7.7357670">
        <ele>683.0</ele>
        <time>2020-10-19T10:12:50Z</time>
      </trkpt>
      <trkpt lat="42.8419590" lon="-7.7357660">
        <ele>683.0</ele>
        <time>2020-10-19T10:12:51Z</time>
      </trkpt>
      <trkpt lat="42.8419580" lon="-7.7357660">
        <ele>683.0</ele>
        <time>2020-10-19T10:12:52Z</time>
      </trkpt>
      <trkpt lat="42.8419590" lon="-7.7357680">
        <ele>683.0</ele>
        <time>2020-10-19T10:12:53Z</time>
      </trkpt>
      <trkpt lat="42.8419590" lon="-7.7357690">
        <ele>683.0</ele>
        <time>2020-10-19T10:12:54Z</time>
      </trkpt>
      <trkpt lat="42.8419600" lon="-7.7357690">
        <ele>683.0</ele>
        <time>2020-10-19T10:12:55Z</time>
      </trkpt>
      <trkpt lat="42.8419600" lon="-7.7357680">
        <ele>683.0</ele>
        <time>2020-10-19T10:12:56Z</time>
      </trkpt>
      <trkpt lat="42.8419590" lon="-7.7357670">
        <ele>683.0</ele>
        <time>2020-10-19T10:12:57Z</time>
      </trkpt>
      <trkpt lat="42.8419600" lon="-7.7357660">
        <ele>683.0</ele>
        <time>2020-10-19T10:12:58Z</time>
      </trkpt>
      <trkpt lat="42.8419620" lon="-7.7357670">
        <ele>683.0</ele>
        <time>2020-10-19T10:12:59Z</time>
      </trkpt>
      <trkpt lat="42.8419630" lon="-7.7357670">
        <ele>683.0</ele>
        <time>2020-10-19T10:13:00Z</time>
      </trkpt>
      <trkpt lat="42.8419630" lon="-7.7357690">
        <ele>683.0</ele>
        <time>2020-10-19T10:13:01Z</time>
      </trkpt>
      <trkpt lat="42.8419620" lon="-7.7357700">
        <ele>683.0</ele>
        <time>2020-10-19T10:13:02Z</time>
      </trkpt>
      <trkpt lat="42.8419630" lon="-7.7357710">
        <ele>683.0</ele>
        <time>2020-10-19T10:13:03Z</time>
      </trkpt>
      <trkpt lat="42.8419640" lon="-7.7357720">
        <ele>683.0</ele>
        <time>2020-10-19T10:13:04Z</time>
      </trkpt>
      <trkpt lat="42.8419660" lon="-7.7357720">
        <ele>683.0</ele>
        <time>2020-10-19T10:13:05Z</time>
      </trkpt>
      <trkpt lat="42.8419660" lon="-7.7357720">
        <ele>683.0</ele>
        <time>2020-10-19T10:13:06Z</time>
      </trkpt>
      <trkpt lat="42.8419660" lon="-7.7357720">
        <ele>683.0</ele>
        <time>2020-10-19T10:13:07Z</time>
      </trkpt>
      <trkpt lat="42.8419660" lon="-7.7357730">
        <ele>683.0</ele>
        <time>2020-10-19T10:13:08Z</time>
      </trkpt>
      <trkpt lat="42.8419670" lon="-7.7357750">
        <ele>683.0</ele>
        <time>2020-10-19T10:13:09Z</time>
      </trkpt>
      <trkpt lat="42.8419680" lon="-7.7357770">
        <ele>683.0</ele>
        <time>2020-10-19T10:13:10Z</time>
      </trkpt>
      <trkpt lat="42.8419680" lon="-7.7357790">
        <ele>683.0</ele>
        <time>2020-10-19T10:13:11Z</time>
      </trkpt>
      <trkpt lat="42.8419680" lon="-7.7357810">
        <ele>683.0</ele>
        <time>2020-10-19T10:13:12Z</time>
      </trkpt>
      <trkpt lat="42.8419680" lon="-7.7357820">
        <ele>683.0</ele>
        <time>2020-10-19T10:13:13Z</time>
      </trkpt>
      <trkpt lat="42.8419670" lon="-7.7357830">
        <ele>683.0</ele>
        <time>2020-10-19T10:13:14Z</time>
      </trkpt>
      <trkpt lat="42.8419650" lon="-7.7357830">
        <ele>683.0</ele>
        <time>2020-10-19T10:13:15Z</time>
      </trkpt>
      <trkpt lat="42.8419630" lon="-7.7357830">
        <ele>683.0</ele>
        <time>2020-10-19T10:13:16Z</time>
      </trkpt>
      <trkpt lat="42.8419630" lon="-7.7357830">
        <ele>683.0</ele>
        <time>2020-10-19T10:13:17Z</time>
      </trkpt>
      <trkpt lat="42.8419620" lon="-7.7357820">
        <ele>683.0</ele>
        <time>2020-10-19T10:13:18Z</time>
      </trkpt>
      <trkpt lat="42.8419620" lon="-7.7357820">
        <ele>683.0</ele>
        <time>2020-10-19T10:13:19Z</time>
      </trkpt>
      <trkpt lat="42.8419600" lon="-7.7357820">
        <ele>683.0</ele>
        <time>2020-10-19T10:13:20Z</time>
      </trkpt>
      <trkpt lat="42.8419580" lon="-7.7357840">
        <ele>683.0</ele>
        <time>2020-10-19T10:13:21Z</time>
      </trkpt>
      <trkpt lat="42.8419570" lon="-7.7357850">
        <ele>683.0</ele>
        <time>2020-10-19T10:13:22Z</time>
      </trkpt>
      <trkpt lat="42.8419570" lon="-7.7357840">
        <ele>683.0</ele>
        <time>2020-10-19T10:13:23Z</time>
      </trkpt>
      <trkpt lat="42.8419570" lon="-7.7357830">
        <ele>683.0</ele>
        <time>2020-10-19T10:13:24Z</time>
      </trkpt>
      <trkpt lat="42.8419570" lon="-7.7357810">
        <ele>683.0</ele>
        <time>2020-10-19T10:13:25Z</time>
      </trkpt>
      <trkpt lat="42.8419570" lon="-7.7357810">
        <ele>683.0</ele>
        <time>2020-10-19T10:13:26Z</time>
      </trkpt>
      <trkpt lat="42.8419560" lon="-7.7357800">
        <ele>683.0</ele>
        <time>2020-10-19T10:13:27Z</time>
      </trkpt>
      <trkpt lat="42.8419560" lon="-7.7357790">
        <ele>683.0</ele>
        <time>2020-10-19T10:13:28Z</time>
      </trkpt>
      <trkpt lat="42.8419560" lon="-7.7357790">
        <ele>683.0</ele>
        <time>2020-10-19T10:13:29Z</time>
      </trkpt>
      <trkpt lat="42.8419560" lon="-7.7357780">
        <ele>683.0</ele>
        <time>2020-10-19T10:13:30Z</time>
      </trkpt>
      <trkpt lat="42.8419550" lon="-7.7357780">
        <ele>683.0</ele>
        <time>2020-10-19T10:13:31Z</time>
      </trkpt>
      <trkpt lat="42.8419550" lon="-7.7357780">
        <ele>683.0</ele>
        <time>2020-10-19T10:13:32Z</time>
      </trkpt>
      <trkpt lat="42.8419550" lon="-7.7357780">
        <ele>683.0</ele>
        <time>2020-10-19T10:13:33Z</time>
      </trkpt>
      <trkpt lat="42.8419540" lon="-7.7357780">
        <ele>683.0</ele>
        <time>2020-10-19T10:13:34Z</time>
      </trkpt>
      <trkpt lat="42.8419540" lon="-7.7357780">
        <ele>683.0</ele>
        <time>2020-10-19T10:13:35Z</time>
      </trkpt>
      <trkpt lat="42.8419540" lon="-7.7357780">
        <ele>683.0</ele>
        <time>2020-10-19T10:13:36Z</time>
      </trkpt>
      <trkpt lat="42.8419540" lon="-7.7357780">
        <ele>683.0</ele>
        <time>2020-10-19T10:13:37Z</time>
      </trkpt>
      <trkpt lat="42.8419540" lon="-7.7357780">
        <ele>683.0</ele>
        <time>2020-10-19T10:13:38Z</time>
      </trkpt>
      <trkpt lat="42.8419540" lon="-7.7357770">
        <ele>683.0</ele>
        <time>2020-10-19T10:13:39Z</time>
      </trkpt>
      <trkpt lat="42.8419540" lon="-7.7357770">
        <ele>683.0</ele>
        <time>2020-10-19T10:13:40Z</time>
      </trkpt>
      <trkpt lat="42.8419540" lon="-7.7357770">
        <ele>683.0</ele>
        <time>2020-10-19T10:13:41Z</time>
      </trkpt>
      <trkpt lat="42.8419530" lon="-7.7357770">
        <ele>683.0</ele>
        <time>2020-10-19T10:13:42Z</time>
      </trkpt>
      <trkpt lat="42.8419530" lon="-7.7357770">
        <ele>683.0</ele>
        <time>2020-10-19T10:13:43Z</time>
      </trkpt>
      <trkpt lat="42.8419530" lon="-7.7357770">
        <ele>683.0</ele>
        <time>2020-10-19T10:13:44Z</time>
      </trkpt>
      <trkpt lat="42.8419530" lon="-7.7357770">
        <ele>683.0</ele>
        <time>2020-10-19T10:13:45Z</time>
      </trkpt>
      <trkpt lat="42.8419530" lon="-7.7357770">
        <ele>683.0</ele>
        <time>2020-10-19T10:13:46Z</time>
      </trkpt>
      <trkpt lat="42.8419530" lon="-7.7357770">
        <ele>683.0</ele>
        <time>2020-10-19T10:13:47Z</time>
      </trkpt>
      <trkpt lat="42.8419530" lon="-7.7357770">
        <ele>683.0</ele>
        <time>2020-10-19T10:13:48Z</time>
      </trkpt>
      <trkpt lat="42.8419530" lon="-7.7357770">
        <ele>683.0</ele>
        <time>2020-10-19T10:13:49Z</time>
      </trkpt>
      <trkpt lat="42.8419530" lon="-7.7357770">
        <ele>683.0</ele>
        <time>2020-10-19T10:13:50Z</time>
      </trkpt>
      <trkpt lat="42.8419520" lon="-7.7357770">
        <ele>683.0</ele>
        <time>2020-10-19T10:13:51Z</time>
      </trkpt>
      <trkpt lat="42.8419520" lon="-7.7357770">
        <ele>683.0</ele>
        <time>2020-10-19T10:13:52Z</time>
      </trkpt>
      <trkpt lat="42.8419530" lon="-7.7357770">
        <ele>683.0</ele>
        <time>2020-10-19T10:13:53Z</time>
      </trkpt>
      <trkpt lat="42.8419530" lon="-7.7357770">
        <ele>683.0</ele>
        <time>2020-10-19T10:13:54Z</time>
      </trkpt>
      <trkpt lat="42.8419540" lon="-7.7357770">
        <ele>683.0</ele>
        <time>2020-10-19T10:13:55Z</time>
      </trkpt>
      <trkpt lat="42.8419540" lon="-7.7357770">
        <ele>683.0</ele>
        <time>2020-10-19T10:13:56Z</time>
      </trkpt>
      <trkpt lat="42.8419540" lon="-7.7357770">
        <ele>683.0</ele>
        <time>2020-10-19T10:13:57Z</time>
      </trkpt>
      <trkpt lat="42.8419540" lon="-7.7357770">
        <ele>683.0</ele>
        <time>2020-10-19T10:13:58Z</time>
      </trkpt>
      <trkpt lat="42.8419550" lon="-7.7357760">
        <ele>683.0</ele>
        <time>2020-10-19T10:13:59Z</time>
      </trkpt>
      <trkpt lat="42.8419550" lon="-7.7357760">
        <ele>683.0</ele>
        <time>2020-10-19T10:14:00Z</time>
      </trkpt>
      <trkpt lat="42.8419550" lon="-7.7357760">
        <ele>683.0</ele>
        <time>2020-10-19T10:14:01Z</time>
      </trkpt>
      <trkpt lat="42.8419550" lon="-7.7357760">
        <ele>683.0</ele>
        <time>2020-10-19T10:14:02Z</time>
      </trkpt>
      <trkpt lat="42.8419550" lon="-7.7357750">
        <ele>683.0</ele>
        <time>2020-10-19T10:14:03Z</time>
      </trkpt>
      <trkpt lat="42.8419550" lon="-7.7357750">
        <ele>683.0</ele>
        <time>2020-10-19T10:14:04Z</time>
      </trkpt>
      <trkpt lat="42.8419550" lon="-7.7357750">
        <ele>683.0</ele>
        <time>2020-10-19T10:14:05Z</time>
      </trkpt>
      <trkpt lat="42.8419550" lon="-7.7357750">
        <ele>683.0</ele>
        <time>2020-10-19T10:14:06Z</time>
      </trkpt>
      <trkpt lat="42.8419550" lon="-7.7357750">
        <ele>683.0</ele>
        <time>2020-10-19T10:14:07Z</time>
      </trkpt>
      <trkpt lat="42.8419540" lon="-7.7357740">
        <ele>683.0</ele>
        <time>2020-10-19T10:14:08Z</time>
      </trkpt>
      <trkpt lat="42.8419540" lon="-7.7357740">
        <ele>683.0</ele>
        <time>2020-10-19T10:14:09Z</time>
      </trkpt>
      <trkpt lat="42.8419540" lon="-7.7357740">
        <ele>683.0</ele>
        <time>2020-10-19T10:14:10Z</time>
      </trkpt>
      <trkpt lat="42.8419530" lon="-7.7357740">
        <ele>683.0</ele>
        <time>2020-10-19T10:14:11Z</time>
      </trkpt>
      <trkpt lat="42.8419530" lon="-7.7357750">
        <ele>683.0</ele>
        <time>2020-10-19T10:14:12Z</time>
      </trkpt>
      <trkpt lat="42.8419530" lon="-7.7357750">
        <ele>683.0</ele>
        <time>2020-10-19T10:14:13Z</time>
      </trkpt>
      <trkpt lat="42.8419520" lon="-7.7357750">
        <ele>683.0</ele>
        <time>2020-10-19T10:14:14Z</time>
      </trkpt>
      <trkpt lat="42.8419510" lon="-7.7357760">
        <ele>683.0</ele>
        <time>2020-10-19T10:14:15Z</time>
      </trkpt>
      <trkpt lat="42.8419510" lon="-7.7357750">
        <ele>683.0</ele>
        <time>2020-10-19T10:14:16Z</time>
      </trkpt>
      <trkpt lat="42.8419500" lon="-7.7357750">
        <ele>683.0</ele>
        <time>2020-10-19T10:14:17Z</time>
      </trkpt>
      <trkpt lat="42.8419500" lon="-7.7357750">
        <ele>683.0</ele>
        <time>2020-10-19T10:14:18Z</time>
      </trkpt>
      <trkpt lat="42.8419490" lon="-7.7357750">
        <ele>683.0</ele>
        <time>2020-10-19T10:14:19Z</time>
      </trkpt>
      <trkpt lat="42.8419490" lon="-7.7357750">
        <ele>683.0</ele>
        <time>2020-10-19T10:14:20Z</time>
      </trkpt>
      <trkpt lat="42.8419480" lon="-7.7357750">
        <ele>683.0</ele>
        <time>2020-10-19T10:14:21Z</time>
      </trkpt>
      <trkpt lat="42.8419480" lon="-7.7357750">
        <ele>683.0</ele>
        <time>2020-10-19T10:14:22Z</time>
      </trkpt>
      <trkpt lat="42.8419480" lon="-7.7357750">
        <ele>683.0</ele>
        <time>2020-10-19T10:14:23Z</time>
      </trkpt>
      <trkpt lat="42.8419480" lon="-7.7357750">
        <ele>683.0</ele>
        <time>2020-10-19T10:14:24Z</time>
      </trkpt>
      <trkpt lat="42.8419470" lon="-7.7357740">
        <ele>683.0</ele>
        <time>2020-10-19T10:14:25Z</time>
      </trkpt>
      <trkpt lat="42.8419470" lon="-7.7357740">
        <ele>683.0</ele>
        <time>2020-10-19T10:14:26Z</time>
      </trkpt>
      <trkpt lat="42.8419460" lon="-7.7357740">
        <ele>683.0</ele>
        <time>2020-10-19T10:14:27Z</time>
      </trkpt>
      <trkpt lat="42.8419460" lon="-7.7357740">
        <ele>683.0</ele>
        <time>2020-10-19T10:14:28Z</time>
      </trkpt>
      <trkpt lat="42.8419470" lon="-7.7357740">
        <ele>683.0</ele>
        <time>2020-10-19T10:14:29Z</time>
      </trkpt>
      <trkpt lat="42.8419490" lon="-7.7357720">
        <ele>683.0</ele>
        <time>2020-10-19T10:14:30Z</time>
      </trkpt>
      <trkpt lat="42.8419530" lon="-7.7357730">
        <ele>683.0</ele>
        <time>2020-10-19T10:14:31Z</time>
      </trkpt>
      <trkpt lat="42.8419570" lon="-7.7357720">
        <ele>683.0</ele>
        <time>2020-10-19T10:14:32Z</time>
      </trkpt>
      <trkpt lat="42.8419610" lon="-7.7357730">
        <ele>683.0</ele>
        <time>2020-10-19T10:14:33Z</time>
      </trkpt>
      <trkpt lat="42.8419640" lon="-7.7357730">
        <ele>683.0</ele>
        <time>2020-10-19T10:14:34Z</time>
      </trkpt>
      <trkpt lat="42.8419650" lon="-7.7357730">
        <ele>683.0</ele>
        <time>2020-10-19T10:14:35Z</time>
      </trkpt>
      <trkpt lat="42.8419660" lon="-7.7357720">
        <ele>683.0</ele>
        <time>2020-10-19T10:14:36Z</time>
      </trkpt>
      <trkpt lat="42.8419670" lon="-7.7357730">
        <ele>683.0</ele>
        <time>2020-10-19T10:14:37Z</time>
      </trkpt>
      <trkpt lat="42.8419680" lon="-7.7357730">
        <ele>683.0</ele>
        <time>2020-10-19T10:14:38Z</time>
      </trkpt>
      <trkpt lat="42.8419690" lon="-7.7357750">
        <ele>683.0</ele>
        <time>2020-10-19T10:14:39Z</time>
      </trkpt>
      <trkpt lat="42.8419690" lon="-7.7357750">
        <ele>683.0</ele>
        <time>2020-10-19T10:14:40Z</time>
      </trkpt>
      <trkpt lat="42.8419690" lon="-7.7357750">
        <ele>683.0</ele>
        <time>2020-10-19T10:14:41Z</time>
      </trkpt>
      <trkpt lat="42.8419680" lon="-7.7357750">
        <ele>683.0</ele>
        <time>2020-10-19T10:14:42Z</time>
      </trkpt>
      <trkpt lat="42.8419680" lon="-7.7357760">
        <ele>683.0</ele>
        <time>2020-10-19T10:14:43Z</time>
      </trkpt>
      <trkpt lat="42.8419680" lon="-7.7357770">
        <ele>683.0</ele>
        <time>2020-10-19T10:14:44Z</time>
      </trkpt>
      <trkpt lat="42.8419680" lon="-7.7357780">
        <ele>683.0</ele>
        <time>2020-10-19T10:14:45Z</time>
      </trkpt>
      <trkpt lat="42.8419680" lon="-7.7357780">
        <ele>683.0</ele>
        <time>2020-10-19T10:14:46Z</time>
      </trkpt>
      <trkpt lat="42.8419680" lon="-7.7357790">
        <ele>683.0</ele>
        <time>2020-10-19T10:14:47Z</time>
      </trkpt>
      <trkpt lat="42.8419680" lon="-7.7357810">
        <ele>683.0</ele>
        <time>2020-10-19T10:14:48Z</time>
      </trkpt>
      <trkpt lat="42.8419680" lon="-7.7357810">
        <ele>683.0</ele>
        <time>2020-10-19T10:14:49Z</time>
      </trkpt>
      <trkpt lat="42.8419680" lon="-7.7357800">
        <ele>683.0</ele>
        <time>2020-10-19T10:14:50Z</time>
      </trkpt>
      <trkpt lat="42.8419660" lon="-7.7357770">
        <ele>683.0</ele>
        <time>2020-10-19T10:14:51Z</time>
      </trkpt>
      <trkpt lat="42.8419650" lon="-7.7357750">
        <ele>683.0</ele>
        <time>2020-10-19T10:14:52Z</time>
      </trkpt>
      <trkpt lat="42.8419640" lon="-7.7357740">
        <ele>683.0</ele>
        <time>2020-10-19T10:14:53Z</time>
      </trkpt>
      <trkpt lat="42.8419640" lon="-7.7357730">
        <ele>683.0</ele>
        <time>2020-10-19T10:14:54Z</time>
      </trkpt>
      <trkpt lat="42.8419650" lon="-7.7357730">
        <ele>683.0</ele>
        <time>2020-10-19T10:14:55Z</time>
      </trkpt>
      <trkpt lat="42.8419660" lon="-7.7357740">
        <ele>683.0</ele>
        <time>2020-10-19T10:14:56Z</time>
      </trkpt>
      <trkpt lat="42.8419670" lon="-7.7357760">
        <ele>683.0</ele>
        <time>2020-10-19T10:14:57Z</time>
      </trkpt>
      <trkpt lat="42.8419670" lon="-7.7357750">
        <ele>683.0</ele>
        <time>2020-10-19T10:14:58Z</time>
      </trkpt>
      <trkpt lat="42.8419680" lon="-7.7357740">
        <ele>683.0</ele>
        <time>2020-10-19T10:14:59Z</time>
      </trkpt>
      <trkpt lat="42.8419680" lon="-7.7357730">
        <ele>683.0</ele>
        <time>2020-10-19T10:15:00Z</time>
      </trkpt>
      <trkpt lat="42.8419680" lon="-7.7357720">
        <ele>683.0</ele>
        <time>2020-10-19T10:15:01Z</time>
      </trkpt>
      <trkpt lat="42.8419680" lon="-7.7357720">
        <ele>683.0</ele>
        <time>2020-10-19T10:15:02Z</time>
      </trkpt>
      <trkpt lat="42.8419670" lon="-7.7357710">
        <ele>683.0</ele>
        <time>2020-10-19T10:15:03Z</time>
      </trkpt>
      <trkpt lat="42.8419670" lon="-7.7357710">
        <ele>683.0</ele>
        <time>2020-10-19T10:15:04Z</time>
      </trkpt>
      <trkpt lat="42.8419670" lon="-7.7357720">
        <ele>683.0</ele>
        <time>2020-10-19T10:15:05Z</time>
      </trkpt>
      <trkpt lat="42.8419670" lon="-7.7357710">
        <ele>683.0</ele>
        <time>2020-10-19T10:15:06Z</time>
      </trkpt>
      <trkpt lat="42.8419660" lon="-7.7357710">
        <ele>683.0</ele>
        <time>2020-10-19T10:15:07Z</time>
      </trkpt>
      <trkpt lat="42.8419670" lon="-7.7357700">
        <ele>683.0</ele>
        <time>2020-10-19T10:15:08Z</time>
      </trkpt>
      <trkpt lat="42.8419660" lon="-7.7357700">
        <ele>683.0</ele>
        <time>2020-10-19T10:15:09Z</time>
      </trkpt>
      <trkpt lat="42.8419660" lon="-7.7357700">
        <ele>683.0</ele>
        <time>2020-10-19T10:15:10Z</time>
      </trkpt>
      <trkpt lat="42.8419660" lon="-7.7357700">
        <ele>683.0</ele>
        <time>2020-10-19T10:15:11Z</time>
      </trkpt>
      <trkpt lat="42.8419670" lon="-7.7357700">
        <ele>683.0</ele>
        <time>2020-10-19T10:15:12Z</time>
      </trkpt>
      <trkpt lat="42.8419680" lon="-7.7357700">
        <ele>683.0</ele>
        <time>2020-10-19T10:15:13Z</time>
      </trkpt>
      <trkpt lat="42.8419720" lon="-7.7357720">
        <ele>683.0</ele>
        <time>2020-10-19T10:15:14Z</time>
      </trkpt>
      <trkpt lat="42.8419750" lon="-7.7357790">
        <ele>683.0</ele>
        <time>2020-10-19T10:15:15Z</time>
      </trkpt>
      <trkpt lat="42.8419790" lon="-7.7357920">
        <ele>683.0</ele>
        <time>2020-10-19T10:15:16Z</time>
      </trkpt>
      <trkpt lat="42.8419800" lon="-7.7358060">
        <ele>683.0</ele>
        <time>2020-10-19T10:15:17Z</time>
      </trkpt>
      <trkpt lat="42.8419790" lon="-7.7358190">
        <ele>683.0</ele>
        <time>2020-10-19T10:15:18Z</time>
      </trkpt>
      <trkpt lat="42.8419770" lon="-7.7358270">
        <ele>683.0</ele>
        <time>2020-10-19T10:15:19Z</time>
      </trkpt>
      <trkpt lat="42.8419750" lon="-7.7358310">
        <ele>683.0</ele>
        <time>2020-10-19T10:15:20Z</time>
      </trkpt>
      <trkpt lat="42.8419740" lon="-7.7358310">
        <ele>683.0</ele>
        <time>2020-10-19T10:15:21Z</time>
      </trkpt>
      <trkpt lat="42.8419750" lon="-7.7358320">
        <ele>683.0</ele>
        <time>2020-10-19T10:15:22Z</time>
      </trkpt>
      <trkpt lat="42.8419750" lon="-7.7358310">
        <ele>683.0</ele>
        <time>2020-10-19T10:15:23Z</time>
      </trkpt>
      <trkpt lat="42.8419750" lon="-7.7358310">
        <ele>683.0</ele>
        <time>2020-10-19T10:15:24Z</time>
      </trkpt>
      <trkpt lat="42.8419740" lon="-7.7358310">
        <ele>683.0</ele>
        <time>2020-10-19T10:15:25Z</time>
      </trkpt>
      <trkpt lat="42.8419730" lon="-7.7358320">
        <ele>683.0</ele>
        <time>2020-10-19T10:15:26Z</time>
      </trkpt>
      <trkpt lat="42.8419720" lon="-7.7358330">
        <ele>683.0</ele>
        <time>2020-10-19T10:15:27Z</time>
      </trkpt>
      <trkpt lat="42.8419720" lon="-7.7358340">
        <ele>683.0</ele>
        <time>2020-10-19T10:15:28Z</time>
      </trkpt>
      <trkpt lat="42.8419720" lon="-7.7358340">
        <ele>683.0</ele>
        <time>2020-10-19T10:15:29Z</time>
      </trkpt>
      <trkpt lat="42.8419720" lon="-7.7358330">
        <ele>683.0</ele>
        <time>2020-10-19T10:15:30Z</time>
      </trkpt>
      <trkpt lat="42.8419720" lon="-7.7358340">
        <ele>683.0</ele>
        <time>2020-10-19T10:15:31Z</time>
      </trkpt>
      <trkpt lat="42.8419720" lon="-7.7358340">
        <ele>683.0</ele>
        <time>2020-10-19T10:15:32Z</time>
      </trkpt>
      <trkpt lat="42.8419710" lon="-7.7358350">
        <ele>683.0</ele>
        <time>2020-10-19T10:15:33Z</time>
      </trkpt>
      <trkpt lat="42.8419710" lon="-7.7358350">
        <ele>683.0</ele>
        <time>2020-10-19T10:15:34Z</time>
      </trkpt>
      <trkpt lat="42.8419710" lon="-7.7358350">
        <ele>683.0</ele>
        <time>2020-10-19T10:15:35Z</time>
      </trkpt>
      <trkpt lat="42.8419710" lon="-7.7358360">
        <ele>683.0</ele>
        <time>2020-10-19T10:15:36Z</time>
      </trkpt>
      <trkpt lat="42.8419710" lon="-7.7358350">
        <ele>683.0</ele>
        <time>2020-10-19T10:15:37Z</time>
      </trkpt>
      <trkpt lat="42.8419710" lon="-7.7358350">
        <ele>683.0</ele>
        <time>2020-10-19T10:15:38Z</time>
      </trkpt>
      <trkpt lat="42.8419700" lon="-7.7358350">
        <ele>683.0</ele>
        <time>2020-10-19T10:15:39Z</time>
      </trkpt>
      <trkpt lat="42.8419700" lon="-7.7358350">
        <ele>683.0</ele>
        <time>2020-10-19T10:15:40Z</time>
      </trkpt>
      <trkpt lat="42.8419700" lon="-7.7358340">
        <ele>683.0</ele>
        <time>2020-10-19T10:15:41Z</time>
      </trkpt>
      <trkpt lat="42.8419700" lon="-7.7358340">
        <ele>683.0</ele>
        <time>2020-10-19T10:15:42Z</time>
      </trkpt>
      <trkpt lat="42.8419700" lon="-7.7358340">
        <ele>683.0</ele>
        <time>2020-10-19T10:15:43Z</time>
      </trkpt>
      <trkpt lat="42.8419700" lon="-7.7358340">
        <ele>683.0</ele>
        <time>2020-10-19T10:15:44Z</time>
      </trkpt>
      <trkpt lat="42.8419700" lon="-7.7358330">
        <ele>683.0</ele>
        <time>2020-10-19T10:15:45Z</time>
      </trkpt>
      <trkpt lat="42.8419710" lon="-7.7358330">
        <ele>683.0</ele>
        <time>2020-10-19T10:15:46Z</time>
      </trkpt>
      <trkpt lat="42.8419710" lon="-7.7358330">
        <ele>683.0</ele>
        <time>2020-10-19T10:15:47Z</time>
      </trkpt>
      <trkpt lat="42.8419710" lon="-7.7358330">
        <ele>683.0</ele>
        <time>2020-10-19T10:15:48Z</time>
      </trkpt>
      <trkpt lat="42.8419710" lon="-7.7358330">
        <ele>683.0</ele>
        <time>2020-10-19T10:15:49Z</time>
      </trkpt>
      <trkpt lat="42.8419710" lon="-7.7358330">
        <ele>683.0</ele>
        <time>2020-10-19T10:15:50Z</time>
      </trkpt>
      <trkpt lat="42.8419710" lon="-7.7358330">
        <ele>683.0</ele>
        <time>2020-10-19T10:15:51Z</time>
      </trkpt>
      <trkpt lat="42.8419710" lon="-7.7358330">
        <ele>683.0</ele>
        <time>2020-10-19T10:15:52Z</time>
      </trkpt>
      <trkpt lat="42.8419710" lon="-7.7358340">
        <ele>683.0</ele>
        <time>2020-10-19T10:15:53Z</time>
      </trkpt>
      <trkpt lat="42.8419720" lon="-7.7358350">
        <ele>683.0</ele>
        <time>2020-10-19T10:15:54Z</time>
      </trkpt>
      <trkpt lat="42.8419730" lon="-7.7358360">
        <ele>683.0</ele>
        <time>2020-10-19T10:15:55Z</time>
      </trkpt>
      <trkpt lat="42.8419760" lon="-7.7358380">
        <ele>683.0</ele>
        <time>2020-10-19T10:15:56Z</time>
      </trkpt>
      <trkpt lat="42.8419800" lon="-7.7358430">
        <ele>683.0</ele>
        <time>2020-10-19T10:15:57Z</time>
      </trkpt>
      <trkpt lat="42.8419840" lon="-7.7358530">
        <ele>683.0</ele>
        <time>2020-10-19T10:15:58Z</time>
      </trkpt>
      <trkpt lat="42.8419860" lon="-7.7358660">
        <ele>683.0</ele>
        <time>2020-10-19T10:15:59Z</time>
      </trkpt>
      <trkpt lat="42.8419870" lon="-7.7358790">
        <ele>683.0</ele>
        <time>2020-10-19T10:16:00Z</time>
      </trkpt>
      <trkpt lat="42.8419850" lon="-7.7358930">
        <ele>683.0</ele>
        <time>2020-10-19T10:16:01Z</time>
      </trkpt>
      <trkpt lat="42.8419800" lon="-7.7359070">
        <ele>683.1</ele>
        <time>2020-10-19T10:16:02Z</time>
      </trkpt>
      <trkpt lat="42.8419720" lon="-7.7359210">
        <ele>683.1</ele>
        <time>2020-10-19T10:16:03Z</time>
      </trkpt>
      <trkpt lat="42.8419630" lon="-7.7359340">
        <ele>683.1</ele>
        <time>2020-10-19T10:16:04Z</time>
      </trkpt>
      <trkpt lat="42.8419500" lon="-7.7359450">
        <ele>683.1</ele>
        <time>2020-10-19T10:16:05Z</time>
      </trkpt>
      <trkpt lat="42.8419330" lon="-7.7359590">
        <ele>683.1</ele>
        <time>2020-10-19T10:16:06Z</time>
      </trkpt>
      <trkpt lat="42.8419130" lon="-7.7359730">
        <ele>683.2</ele>
        <time>2020-10-19T10:16:07Z</time>
      </trkpt>
      <trkpt lat="42.8418950" lon="-7.7359890">
        <ele>683.2</ele>
        <time>2020-10-19T10:16:08Z</time>
      </trkpt>
      <trkpt lat="42.8418830" lon="-7.7359990">
        <ele>683.2</ele>
        <time>2020-10-19T10:16:09Z</time>
      </trkpt>
      <trkpt lat="42.8418780" lon="-7.7360040">
        <ele>683.2</ele>
        <time>2020-10-19T10:16:10Z</time>
      </trkpt>
      <trkpt lat="42.8418780" lon="-7.7360030">
        <ele>683.2</ele>
        <time>2020-10-19T10:16:11Z</time>
      </trkpt>
      <trkpt lat="42.8418800" lon="-7.7360020">
        <ele>683.2</ele>
        <time>2020-10-19T10:16:12Z</time>
      </trkpt>
      <trkpt lat="42.8418790" lon="-7.7360010">
        <ele>683.2</ele>
        <time>2020-10-19T10:16:13Z</time>
      </trkpt>
      <trkpt lat="42.8418780" lon="-7.7360020">
        <ele>683.2</ele>
        <time>2020-10-19T10:16:14Z</time>
      </trkpt>
      <trkpt lat="42.8418770" lon="-7.7360020">
        <ele>683.2</ele>
        <time>2020-10-19T10:16:15Z</time>
      </trkpt>
      <trkpt lat="42.8418760" lon="-7.7360020">
        <ele>683.2</ele>
        <time>2020-10-19T10:16:16Z</time>
      </trkpt>
      <trkpt lat="42.8418750" lon="-7.7360030">
        <ele>683.2</ele>
        <time>2020-10-19T10:16:17Z</time>
      </trkpt>
      <trkpt lat="42.8418750" lon="-7.7360030">
        <ele>683.2</ele>
        <time>2020-10-19T10:16:18Z</time>
      </trkpt>
      <trkpt lat="42.8418760" lon="-7.7360030">
        <ele>683.2</ele>
        <time>2020-10-19T10:16:19Z</time>
      </trkpt>
      <trkpt lat="42.8418770" lon="-7.7360040">
        <ele>683.2</ele>
        <time>2020-10-19T10:16:20Z</time>
      </trkpt>
      <trkpt lat="42.8418770" lon="-7.7360040">
        <ele>683.2</ele>
        <time>2020-10-19T10:16:21Z</time>
      </trkpt>
      <trkpt lat="42.8418770" lon="-7.7360050">
        <ele>683.2</ele>
        <time>2020-10-19T10:16:22Z</time>
      </trkpt>
      <trkpt lat="42.8418770" lon="-7.7360070">
        <ele>683.2</ele>
        <time>2020-10-19T10:16:23Z</time>
      </trkpt>
      <trkpt lat="42.8418760" lon="-7.7360080">
        <ele>683.2</ele>
        <time>2020-10-19T10:16:24Z</time>
      </trkpt>
      <trkpt lat="42.8418760" lon="-7.7360100">
        <ele>683.2</ele>
        <time>2020-10-19T10:16:25Z</time>
      </trkpt>
      <trkpt lat="42.8418750" lon="-7.7360120">
        <ele>683.2</ele>
        <time>2020-10-19T10:16:26Z</time>
      </trkpt>
      <trkpt lat="42.8418740" lon="-7.7360130">
        <ele>683.2</ele>
        <time>2020-10-19T10:16:27Z</time>
      </trkpt>
      <trkpt lat="42.8418730" lon="-7.7360150">
        <ele>683.2</ele>
        <time>2020-10-19T10:16:28Z</time>
      </trkpt>
      <trkpt lat="42.8418730" lon="-7.7360160">
        <ele>683.2</ele>
        <time>2020-10-19T10:16:29Z</time>
      </trkpt>
      <trkpt lat="42.8418720" lon="-7.7360170">
        <ele>683.2</ele>
        <time>2020-10-19T10:16:30Z</time>
      </trkpt>
      <trkpt lat="42.8418710" lon="-7.7360180">
        <ele>683.2</ele>
        <time>2020-10-19T10:16:31Z</time>
      </trkpt>
      <trkpt lat="42.8418710" lon="-7.7360190">
        <ele>683.3</ele>
        <time>2020-10-19T10:16:32Z</time>
      </trkpt>
      <trkpt lat="42.8418700" lon="-7.7360200">
        <ele>683.3</ele>
        <time>2020-10-19T10:16:33Z</time>
      </trkpt>
      <trkpt lat="42.8418700" lon="-7.7360210">
        <ele>683.3</ele>
        <time>2020-10-19T10:16:34Z</time>
      </trkpt>
      <trkpt lat="42.8418690" lon="-7.7360210">
        <ele>683.3</ele>
        <time>2020-10-19T10:16:35Z</time>
      </trkpt>
      <trkpt lat="42.8418680" lon="-7.7360220">
        <ele>683.3</ele>
        <time>2020-10-19T10:16:36Z</time>
      </trkpt>
      <trkpt lat="42.8418670" lon="-7.7360230">
        <ele>683.3</ele>
        <time>2020-10-19T10:16:37Z</time>
      </trkpt>
      <trkpt lat="42.8418660" lon="-7.7360250">
        <ele>683.3</ele>
        <time>2020-10-19T10:16:38Z</time>
      </trkpt>
      <trkpt lat="42.8418650" lon="-7.7360260">
        <ele>683.3</ele>
        <time>2020-10-19T10:16:39Z</time>
      </trkpt>
      <trkpt lat="42.8418640" lon="-7.7360270">
        <ele>683.3</ele>
        <time>2020-10-19T10:16:40Z</time>
      </trkpt>
      <trkpt lat="42.8418630" lon="-7.7360280">
        <ele>683.3</ele>
        <time>2020-10-19T10:16:41Z</time>
      </trkpt>
      <trkpt lat="42.8418630" lon="-7.7360290">
        <ele>683.3</ele>
        <time>2020-10-19T10:16:42Z</time>
      </trkpt>
      <trkpt lat="42.8418620" lon="-7.7360310">
        <ele>683.3</ele>
        <time>2020-10-19T10:16:43Z</time>
      </trkpt>
      <trkpt lat="42.8418620" lon="-7.7360310">
        <ele>683.3</ele>
        <time>2020-10-19T10:16:44Z</time>
      </trkpt>
      <trkpt lat="42.8418620" lon="-7.7360320">
        <ele>683.3</ele>
        <time>2020-10-19T10:16:45Z</time>
      </trkpt>
      <trkpt lat="42.8418610" lon="-7.7360330">
        <ele>683.3</ele>
        <time>2020-10-19T10:16:46Z</time>
      </trkpt>
      <trkpt lat="42.8418610" lon="-7.7360350">
        <ele>683.3</ele>
        <time>2020-10-19T10:16:47Z</time>
      </trkpt>
      <trkpt lat="42.8418600" lon="-7.7360360">
        <ele>683.3</ele>
        <time>2020-10-19T10:16:48Z</time>
      </trkpt>
      <trkpt lat="42.8418600" lon="-7.7360380">
        <ele>683.3</ele>
        <time>2020-10-19T10:16:49Z</time>
      </trkpt>
      <trkpt lat="42.8418590" lon="-7.7360390">
        <ele>683.3</ele>
        <time>2020-10-19T10:16:50Z</time>
      </trkpt>
      <trkpt lat="42.8418590" lon="-7.7360410">
        <ele>683.3</ele>
        <time>2020-10-19T10:16:51Z</time>
      </trkpt>
      <trkpt lat="42.8418580" lon="-7.7360420">
        <ele>683.3</ele>
        <time>2020-10-19T10:16:52Z</time>
      </trkpt>
      <trkpt lat="42.8418580" lon="-7.7360430">
        <ele>683.3</ele>
        <time>2020-10-19T10:16:53Z</time>
      </trkpt>
      <trkpt lat="42.8418570" lon="-7.7360450">
        <ele>683.3</ele>
        <time>2020-10-19T10:16:54Z</time>
      </trkpt>
      <trkpt lat="42.8418560" lon="-7.7360460">
        <ele>683.3</ele>
        <time>2020-10-19T10:16:55Z</time>
      </trkpt>
      <trkpt lat="42.8418560" lon="-7.7360470">
        <ele>683.3</ele>
        <time>2020-10-19T10:16:56Z</time>
      </trkpt>
      <trkpt lat="42.8418550" lon="-7.7360490">
        <ele>683.3</ele>
        <time>2020-10-19T10:16:57Z</time>
      </trkpt>
      <trkpt lat="42.8418550" lon="-7.7360490">
        <ele>683.3</ele>
        <time>2020-10-19T10:16:58Z</time>
      </trkpt>
      <trkpt lat="42.8418550" lon="-7.7360500">
        <ele>683.3</ele>
        <time>2020-10-19T10:16:59Z</time>
      </trkpt>
      <trkpt lat="42.8418550" lon="-7.7360500">
        <ele>683.3</ele>
        <time>2020-10-19T10:17:00Z</time>
      </trkpt>
      <trkpt lat="42.8418540" lon="-7.7360520">
        <ele>683.3</ele>
        <time>2020-10-19T10:17:01Z</time>
      </trkpt>
      <trkpt lat="42.8418540" lon="-7.7360530">
        <ele>683.3</ele>
        <time>2020-10-19T10:17:02Z</time>
      </trkpt>
      <trkpt lat="42.8418540" lon="-7.7360530">
        <ele>683.3</ele>
        <time>2020-10-19T10:17:03Z</time>
      </trkpt>
      <trkpt lat="42.8418540" lon="-7.7360520">
        <ele>683.3</ele>
        <time>2020-10-19T10:17:04Z</time>
      </trkpt>
      <trkpt lat="42.8418540" lon="-7.7360520">
        <ele>683.3</ele>
        <time>2020-10-19T10:17:05Z</time>
      </trkpt>
      <trkpt lat="42.8418540" lon="-7.7360530">
        <ele>683.3</ele>
        <time>2020-10-19T10:17:06Z</time>
      </trkpt>
      <trkpt lat="42.8418550" lon="-7.7360550">
        <ele>683.3</ele>
        <time>2020-10-19T10:17:07Z</time>
      </trkpt>
      <trkpt lat="42.8418550" lon="-7.7360560">
        <ele>683.3</ele>
        <time>2020-10-19T10:17:08Z</time>
      </trkpt>
      <trkpt lat="42.8418570" lon="-7.7360550">
        <ele>683.3</ele>
        <time>2020-10-19T10:17:09Z</time>
      </trkpt>
      <trkpt lat="42.8418600" lon="-7.7360510">
        <ele>683.3</ele>
        <time>2020-10-19T10:17:10Z</time>
      </trkpt>
      <trkpt lat="42.8418680" lon="-7.7360430">
        <ele>683.3</ele>
        <time>2020-10-19T10:17:11Z</time>
      </trkpt>
      <trkpt lat="42.8418790" lon="-7.7360320">
        <ele>683.3</ele>
        <time>2020-10-19T10:17:12Z</time>
      </trkpt>
      <trkpt lat="42.8418950" lon="-7.7360200">
        <ele>683.4</ele>
        <time>2020-10-19T10:17:13Z</time>
      </trkpt>
      <trkpt lat="42.8419110" lon="-7.7360070">
        <ele>683.4</ele>
        <time>2020-10-19T10:17:14Z</time>
      </trkpt>
      <trkpt lat="42.8419260" lon="-7.7359900">
        <ele>683.4</ele>
        <time>2020-10-19T10:17:15Z</time>
      </trkpt>
      <trkpt lat="42.8419410" lon="-7.7359700">
        <ele>683.5</ele>
        <time>2020-10-19T10:17:16Z</time>
      </trkpt>
      <trkpt lat="42.8419550" lon="-7.7359460">
        <ele>683.5</ele>
        <time>2020-10-19T10:17:17Z</time>
      </trkpt>
      <trkpt lat="42.8419660" lon="-7.7359230">
        <ele>683.5</ele>
        <time>2020-10-19T10:17:18Z</time>
      </trkpt>
      <trkpt lat="42.8419740" lon="-7.7358980">
        <ele>683.6</ele>
        <time>2020-10-19T10:17:19Z</time>
      </trkpt>
      <trkpt lat="42.8419760" lon="-7.7358740">
        <ele>683.6</ele>
        <time>2020-10-19T10:17:20Z</time>
      </trkpt>
      <trkpt lat="42.8419720" lon="-7.7358510">
        <ele>683.6</ele>
        <time>2020-10-19T10:17:21Z</time>
      </trkpt>
      <trkpt lat="42.8419660" lon="-7.7358320">
        <ele>683.7</ele>
        <time>2020-10-19T10:17:22Z</time>
      </trkpt>
      <trkpt lat="42.8419580" lon="-7.7358170">
        <ele>683.7</ele>
        <time>2020-10-19T10:17:23Z</time>
      </trkpt>
      <trkpt lat="42.8419540" lon="-7.7358070">
        <ele>683.7</ele>
        <time>2020-10-19T10:17:24Z</time>
      </trkpt>
      <trkpt lat="42.8419540" lon="-7.7358010">
        <ele>683.7</ele>
        <time>2020-10-19T10:17:25Z</time>
      </trkpt>
      <trkpt lat="42.8419570" lon="-7.7357980">
        <ele>683.7</ele>
        <time>2020-10-19T10:17:26Z</time>
      </trkpt>
      <trkpt lat="42.8419600" lon="-7.7357950">
        <ele>683.7</ele>
        <time>2020-10-19T10:17:27Z</time>
      </trkpt>
      <trkpt lat="42.8419580" lon="-7.7357910">
        <ele>683.7</ele>
        <time>2020-10-19T10:17:28Z</time>
      </trkpt>
      <trkpt lat="42.8419540" lon="-7.7357890">
        <ele>683.7</ele>
        <time>2020-10-19T10:17:29Z</time>
      </trkpt>
      <trkpt lat="42.8419510" lon="-7.7357890">
        <ele>683.7</ele>
        <time>2020-10-19T10:17:30Z</time>
      </trkpt>
      <trkpt lat="42.8419540" lon="-7.7357920">
        <ele>683.7</ele>
        <time>2020-10-19T10:17:31Z</time>
      </trkpt>
      <trkpt lat="42.8419610" lon="-7.7357940">
        <ele>683.8</ele>
        <time>2020-10-19T10:17:32Z</time>
      </trkpt>
      <trkpt lat="42.8419700" lon="-7.7357970">
        <ele>683.8</ele>
        <time>2020-10-19T10:17:33Z</time>
      </trkpt>
      <trkpt lat="42.8419790" lon="-7.7358010">
        <ele>683.8</ele>
        <time>2020-10-19T10:17:34Z</time>
      </trkpt>
      <trkpt lat="42.8419860" lon="-7.7358050">
        <ele>683.8</ele>
        <time>2020-10-19T10:17:35Z</time>
      </trkpt>
      <trkpt lat="42.8419900" lon="-7.7358110">
        <ele>683.8</ele>
        <time>2020-10-19T10:17:36Z</time>
      </trkpt>
      <trkpt lat="42.8419940" lon="-7.7358180">
        <ele>683.8</ele>
        <time>2020-10-19T10:17:37Z</time>
      </trkpt>
      <trkpt lat="42.8419970" lon="-7.7358260">
        <ele>683.8</ele>
        <time>2020-10-19T10:17:38Z</time>
      </trkpt>
      <trkpt lat="42.8420010" lon="-7.7358360">
        <ele>683.9</ele>
        <time>2020-10-19T10:17:39Z</time>
      </trkpt>
      <trkpt lat="42.8420050" lon="-7.7358470">
        <ele>683.9</ele>
        <time>2020-10-19T10:17:40Z</time>
      </trkpt>
      <trkpt lat="42.8420080" lon="-7.7358600">
        <ele>683.9</ele>
        <time>2020-10-19T10:17:41Z</time>
      </trkpt>
      <trkpt lat="42.8420110" lon="-7.7358730">
        <ele>683.9</ele>
        <time>2020-10-19T10:17:42Z</time>
      </trkpt>
      <trkpt lat="42.8420140" lon="-7.7358850">
        <ele>683.9</ele>
        <time>2020-10-19T10:17:43Z</time>
      </trkpt>
      <trkpt lat="42.8420170" lon="-7.7358980">
        <ele>684.0</ele>
        <time>2020-10-19T10:17:44Z</time>
      </trkpt>
      <trkpt lat="42.8420200" lon="-7.7359100">
        <ele>684.0</ele>
        <time>2020-10-19T10:17:45Z</time>
      </trkpt>
      <trkpt lat="42.8420230" lon="-7.7359210">
        <ele>684.0</ele>
        <time>2020-10-19T10:17:46Z</time>
      </trkpt>
      <trkpt lat="42.8420260" lon="-7.7359310">
        <ele>684.0</ele>
        <time>2020-10-19T10:17:47Z</time>
      </trkpt>
      <trkpt lat="42.8420290" lon="-7.7359400">
        <ele>684.0</ele>
        <time>2020-10-19T10:17:48Z</time>
      </trkpt>
      <trkpt lat="42.8420320" lon="-7.7359510">
        <ele>684.0</ele>
        <time>2020-10-19T10:17:49Z</time>
      </trkpt>
      <trkpt lat="42.8420360" lon="-7.7359620">
        <ele>684.0</ele>
        <time>2020-10-19T10:17:50Z</time>
      </trkpt>
      <trkpt lat="42.8420420" lon="-7.7359730">
        <ele>684.1</ele>
        <time>2020-10-19T10:17:51Z</time>
      </trkpt>
      <trkpt lat="42.8420490" lon="-7.7359830">
        <ele>684.1</ele>
        <time>2020-10-19T10:17:52Z</time>
      </trkpt>
      <trkpt lat="42.8420540" lon="-7.7359930">
        <ele>684.1</ele>
        <time>2020-10-19T10:17:53Z</time>
      </trkpt>
      <trkpt lat="42.8420580" lon="-7.7360020">
        <ele>684.1</ele>
        <time>2020-10-19T10:17:54Z</time>
      </trkpt>
      <trkpt lat="42.8420620" lon="-7.7360120">
        <ele>684.2</ele>
        <time>2020-10-19T10:17:55Z</time>
      </trkpt>
      <trkpt lat="42.8420650" lon="-7.7360240">
        <ele>684.2</ele>
        <time>2020-10-19T10:17:56Z</time>
      </trkpt>
      <trkpt lat="42.8420690" lon="-7.7360390">
        <ele>684.3</ele>
        <time>2020-10-19T10:17:57Z</time>
      </trkpt>
      <trkpt lat="42.8420730" lon="-7.7360550">
        <ele>684.4</ele>
        <time>2020-10-19T10:17:58Z</time>
      </trkpt>
      <trkpt lat="42.8420780" lon="-7.7360690">
        <ele>684.4</ele>
        <time>2020-10-19T10:17:59Z</time>
      </trkpt>
      <trkpt lat="42.8420840" lon="-7.7360820">
        <ele>684.5</ele>
        <time>2020-10-19T10:18:00Z</time>
      </trkpt>
      <trkpt lat="42.8420890" lon="-7.7360930">
        <ele>684.6</ele>
        <time>2020-10-19T10:18:01Z</time>
      </trkpt>
      <trkpt lat="42.8420940" lon="-7.7361030">
        <ele>684.6</ele>
        <time>2020-10-19T10:18:02Z</time>
      </trkpt>
      <trkpt lat="42.8420980" lon="-7.7361150">
        <ele>684.7</ele>
        <time>2020-10-19T10:18:03Z</time>
      </trkpt>
      <trkpt lat="42.8421020" lon="-7.7361270">
        <ele>684.7</ele>
        <time>2020-10-19T10:18:04Z</time>
      </trkpt>
      <trkpt lat="42.8421070" lon="-7.7361400">
        <ele>684.8</ele>
        <time>2020-10-19T10:18:05Z</time>
      </trkpt>
      <trkpt lat="42.8421110" lon="-7.7361520">
        <ele>684.8</ele>
        <time>2020-10-19T10:18:06Z</time>
      </trkpt>
      <trkpt lat="42.8421140" lon="-7.7361650">
        <ele>684.9</ele>
        <time>2020-10-19T10:18:07Z</time>
      </trkpt>
      <trkpt lat="42.8421170" lon="-7.7361780">
        <ele>684.9</ele>
        <time>2020-10-19T10:18:08Z</time>
      </trkpt>
      <trkpt lat="42.8421200" lon="-7.7361910">
        <ele>685.0</ele>
        <time>2020-10-19T10:18:09Z</time>
      </trkpt>
      <trkpt lat="42.8421250" lon="-7.7362030">
        <ele>685.1</ele>
        <time>2020-10-19T10:18:10Z</time>
      </trkpt>
      <trkpt lat="42.8421300" lon="-7.7362160">
        <ele>685.1</ele>
        <time>2020-10-19T10:18:11Z</time>
      </trkpt>
      <trkpt lat="42.8421340" lon="-7.7362300">
        <ele>685.2</ele>
        <time>2020-10-19T10:18:12Z</time>
      </trkpt>
      <trkpt lat="42.8421370" lon="-7.7362450">
        <ele>685.2</ele>
        <time>2020-10-19T10:18:13Z</time>
      </trkpt>
      <trkpt lat="42.8421420" lon="-7.7362600">
        <ele>685.3</ele>
        <time>2020-10-19T10:18:14Z</time>
      </trkpt>
      <trkpt lat="42.8421470" lon="-7.7362730">
        <ele>685.3</ele>
        <time>2020-10-19T10:18:15Z</time>
      </trkpt>
      <trkpt lat="42.8421520" lon="-7.7362850">
        <ele>685.4</ele>
        <time>2020-10-19T10:18:16Z</time>
      </trkpt>
      <trkpt lat="42.8421550" lon="-7.7362950">
        <ele>685.4</ele>
        <time>2020-10-19T10:18:17Z</time>
      </trkpt>
      <trkpt lat="42.8421580" lon="-7.7363070">
        <ele>685.5</ele>
        <time>2020-10-19T10:18:18Z</time>
      </trkpt>
      <trkpt lat="42.8421610" lon="-7.7363190">
        <ele>685.5</ele>
        <time>2020-10-19T10:18:19Z</time>
      </trkpt>
      <trkpt lat="42.8421640" lon="-7.7363330">
        <ele>685.6</ele>
        <time>2020-10-19T10:18:20Z</time>
      </trkpt>
      <trkpt lat="42.8421660" lon="-7.7363470">
        <ele>685.6</ele>
        <time>2020-10-19T10:18:21Z</time>
      </trkpt>
      <trkpt lat="42.8421680" lon="-7.7363640">
        <ele>685.7</ele>
        <time>2020-10-19T10:18:22Z</time>
      </trkpt>
      <trkpt lat="42.8421690" lon="-7.7363810">
        <ele>685.7</ele>
        <time>2020-10-19T10:18:23Z</time>
      </trkpt>
      <trkpt lat="42.8421710" lon="-7.7363980">
        <ele>685.8</ele>
        <time>2020-10-19T10:18:24Z</time>
      </trkpt>
      <trkpt lat="42.8421750" lon="-7.7364130">
        <ele>685.8</ele>
        <time>2020-10-19T10:18:25Z</time>
      </trkpt>
      <trkpt lat="42.8421780" lon="-7.7364290">
        <ele>685.9</ele>
        <time>2020-10-19T10:18:26Z</time>
      </trkpt>
      <trkpt lat="42.8421800" lon="-7.7364450">
        <ele>685.9</ele>
        <time>2020-10-19T10:18:27Z</time>
      </trkpt>
      <trkpt lat="42.8421810" lon="-7.7364610">
        <ele>686.0</ele>
        <time>2020-10-19T10:18:28Z</time>
      </trkpt>
      <trkpt lat="42.8421840" lon="-7.7364750">
        <ele>686.0</ele>
        <time>2020-10-19T10:18:29Z</time>
      </trkpt>
      <trkpt lat="42.8421870" lon="-7.7364900">
        <ele>686.1</ele>
        <time>2020-10-19T10:18:30Z</time>
      </trkpt>
      <trkpt lat="42.8421900" lon="-7.7365050">
        <ele>686.1</ele>
        <time>2020-10-19T10:18:31Z</time>
      </trkpt>
      <trkpt lat="42.8421920" lon="-7.7365200">
        <ele>686.2</ele>
        <time>2020-10-19T10:18:32Z</time>
      </trkpt>
      <trkpt lat="42.8421940" lon="-7.7365350">
        <ele>686.2</ele>
        <time>2020-10-19T10:18:33Z</time>
      </trkpt>
      <trkpt lat="42.8421960" lon="-7.7365500">
        <ele>686.2</ele>
        <time>2020-10-19T10:18:34Z</time>
      </trkpt>
      <trkpt lat="42.8422000" lon="-7.7365660">
        <ele>686.3</ele>
        <time>2020-10-19T10:18:35Z</time>
      </trkpt>
      <trkpt lat="42.8422040" lon="-7.7365810">
        <ele>686.3</ele>
        <time>2020-10-19T10:18:36Z</time>
      </trkpt>
      <trkpt lat="42.8422090" lon="-7.7365950">
        <ele>686.4</ele>
        <time>2020-10-19T10:18:37Z</time>
      </trkpt>
      <trkpt lat="42.8422170" lon="-7.7366080">
        <ele>686.4</ele>
        <time>2020-10-19T10:18:38Z</time>
      </trkpt>
      <trkpt lat="42.8422240" lon="-7.7366220">
        <ele>686.5</ele>
        <time>2020-10-19T10:18:39Z</time>
      </trkpt>
      <trkpt lat="42.8422300" lon="-7.7366360">
        <ele>686.5</ele>
        <time>2020-10-19T10:18:40Z</time>
      </trkpt>
      <trkpt lat="42.8422340" lon="-7.7366510">
        <ele>686.6</ele>
        <time>2020-10-19T10:18:41Z</time>
      </trkpt>
      <trkpt lat="42.8422370" lon="-7.7366650">
        <ele>686.6</ele>
        <time>2020-10-19T10:18:42Z</time>
      </trkpt>
      <trkpt lat="42.8422400" lon="-7.7366800">
        <ele>686.7</ele>
        <time>2020-10-19T10:18:43Z</time>
      </trkpt>
      <trkpt lat="42.8422430" lon="-7.7366950">
        <ele>686.7</ele>
        <time>2020-10-19T10:18:44Z</time>
      </trkpt>
      <trkpt lat="42.8422450" lon="-7.7367120">
        <ele>686.7</ele>
        <time>2020-10-19T10:18:45Z</time>
      </trkpt>
      <trkpt lat="42.8422480" lon="-7.7367280">
        <ele>686.8</ele>
        <time>2020-10-19T10:18:46Z</time>
      </trkpt>
      <trkpt lat="42.8422500" lon="-7.7367440">
        <ele>686.8</ele>
        <time>2020-10-19T10:18:47Z</time>
      </trkpt>
      <trkpt lat="42.8422560" lon="-7.7367590">
        <ele>686.9</ele>
        <time>2020-10-19T10:18:48Z</time>
      </trkpt>
      <trkpt lat="42.8422610" lon="-7.7367730">
        <ele>686.9</ele>
        <time>2020-10-19T10:18:49Z</time>
      </trkpt>
      <trkpt lat="42.8422660" lon="-7.7367870">
        <ele>687.0</ele>
        <time>2020-10-19T10:18:50Z</time>
      </trkpt>
      <trkpt lat="42.8422700" lon="-7.7368010">
        <ele>687.0</ele>
        <time>2020-10-19T10:18:51Z</time>
      </trkpt>
      <trkpt lat="42.8422760" lon="-7.7368150">
        <ele>687.1</ele>
        <time>2020-10-19T10:18:52Z</time>
      </trkpt>
      <trkpt lat="42.8422810" lon="-7.7368300">
        <ele>687.1</ele>
        <time>2020-10-19T10:18:53Z</time>
      </trkpt>
      <trkpt lat="42.8422850" lon="-7.7368450">
        <ele>687.2</ele>
        <time>2020-10-19T10:18:54Z</time>
      </trkpt>
      <trkpt lat="42.8422870" lon="-7.7368600">
        <ele>687.2</ele>
        <time>2020-10-19T10:18:55Z</time>
      </trkpt>
      <trkpt lat="42.8422910" lon="-7.7368730">
        <ele>687.2</ele>
        <time>2020-10-19T10:18:56Z</time>
      </trkpt>
      <trkpt lat="42.8422960" lon="-7.7368870">
        <ele>687.3</ele>
        <time>2020-10-19T10:18:57Z</time>
      </trkpt>
      <trkpt lat="42.8423000" lon="-7.7369000">
        <ele>687.3</ele>
        <time>2020-10-19T10:18:58Z</time>
      </trkpt>
      <trkpt lat="42.8423060" lon="-7.7369140">
        <ele>687.4</ele>
        <time>2020-10-19T10:18:59Z</time>
      </trkpt>
      <trkpt lat="42.8423120" lon="-7.7369270">
        <ele>687.4</ele>
        <time>2020-10-19T10:19:00Z</time>
      </trkpt>
      <trkpt lat="42.8423200" lon="-7.7369410">
        <ele>687.5</ele>
        <time>2020-10-19T10:19:01Z</time>
      </trkpt>
      <trkpt lat="42.8423250" lon="-7.7369540">
        <ele>687.5</ele>
        <time>2020-10-19T10:19:02Z</time>
      </trkpt>
      <trkpt lat="42.8423280" lon="-7.7369660">
        <ele>687.6</ele>
        <time>2020-10-19T10:19:03Z</time>
      </trkpt>
      <trkpt lat="42.8423300" lon="-7.7369790">
        <ele>687.6</ele>
        <time>2020-10-19T10:19:04Z</time>
      </trkpt>
      <trkpt lat="42.8423330" lon="-7.7369890">
        <ele>687.6</ele>
        <time>2020-10-19T10:19:05Z</time>
      </trkpt>
      <trkpt lat="42.8423360" lon="-7.7369980">
        <ele>687.7</ele>
        <time>2020-10-19T10:19:06Z</time>
      </trkpt>
      <trkpt lat="42.8423400" lon="-7.7370060">
        <ele>687.7</ele>
        <time>2020-10-19T10:19:07Z</time>
      </trkpt>
      <trkpt lat="42.8423440" lon="-7.7370130">
        <ele>687.7</ele>
        <time>2020-10-19T10:19:08Z</time>
      </trkpt>
      <trkpt lat="42.8423470" lon="-7.7370230">
        <ele>687.8</ele>
        <time>2020-10-19T10:19:09Z</time>
      </trkpt>
      <trkpt lat="42.8423480" lon="-7.7370370">
        <ele>687.8</ele>
        <time>2020-10-19T10:19:10Z</time>
      </trkpt>
      <trkpt lat="42.8423500" lon="-7.7370520">
        <ele>687.9</ele>
        <time>2020-10-19T10:19:11Z</time>
      </trkpt>
      <trkpt lat="42.8423540" lon="-7.7370670">
        <ele>687.9</ele>
        <time>2020-10-19T10:19:12Z</time>
      </trkpt>
      <trkpt lat="42.8423580" lon="-7.7370810">
        <ele>688.0</ele>
        <time>2020-10-19T10:19:13Z</time>
      </trkpt>
      <trkpt lat="42.8423630" lon="-7.7370940">
        <ele>688.0</ele>
        <time>2020-10-19T10:19:14Z</time>
      </trkpt>
      <trkpt lat="42.8423680" lon="-7.7371070">
        <ele>688.1</ele>
        <time>2020-10-19T10:19:15Z</time>
      </trkpt>
      <trkpt lat="42.8423740" lon="-7.7371190">
        <ele>688.1</ele>
        <time>2020-10-19T10:19:16Z</time>
      </trkpt>
      <trkpt lat="42.8423780" lon="-7.7371300">
        <ele>688.2</ele>
        <time>2020-10-19T10:19:17Z</time>
      </trkpt>
      <trkpt lat="42.8423810" lon="-7.7371390">
        <ele>688.2</ele>
        <time>2020-10-19T10:19:18Z</time>
      </trkpt>
      <trkpt lat="42.8423850" lon="-7.7371470">
        <ele>688.2</ele>
        <time>2020-10-19T10:19:19Z</time>
      </trkpt>
      <trkpt lat="42.8423880" lon="-7.7371560">
        <ele>688.3</ele>
        <time>2020-10-19T10:19:20Z</time>
      </trkpt>
      <trkpt lat="42.8423910" lon="-7.7371660">
        <ele>688.3</ele>
        <time>2020-10-19T10:19:21Z</time>
      </trkpt>
      <trkpt lat="42.8423930" lon="-7.7371770">
        <ele>688.3</ele>
        <time>2020-10-19T10:19:22Z</time>
      </trkpt>
      <trkpt lat="42.8423970" lon="-7.7371880">
        <ele>688.4</ele>
        <time>2020-10-19T10:19:23Z</time>
      </trkpt>
      <trkpt lat="42.8424010" lon="-7.7372000">
        <ele>688.4</ele>
        <time>2020-10-19T10:19:24Z</time>
      </trkpt>
      <trkpt lat="42.8424040" lon="-7.7372110">
        <ele>688.5</ele>
        <time>2020-10-19T10:19:25Z</time>
      </trkpt>
      <trkpt lat="42.8424070" lon="-7.7372240">
        <ele>688.5</ele>
        <time>2020-10-19T10:19:26Z</time>
      </trkpt>
      <trkpt lat="42.8424100" lon="-7.7372360">
        <ele>688.6</ele>
        <time>2020-10-19T10:19:27Z</time>
      </trkpt>
      <trkpt lat="42.8424140" lon="-7.7372480">
        <ele>688.6</ele>
        <time>2020-10-19T10:19:28Z</time>
      </trkpt>
      <trkpt lat="42.8424180" lon="-7.7372600">
        <ele>688.7</ele>
        <time>2020-10-19T10:19:29Z</time>
      </trkpt>
      <trkpt lat="42.8424210" lon="-7.7372730">
        <ele>688.7</ele>
        <time>2020-10-19T10:19:30Z</time>
      </trkpt>
      <trkpt lat="42.8424250" lon="-7.7372860">
        <ele>688.8</ele>
        <time>2020-10-19T10:19:31Z</time>
      </trkpt>
      <trkpt lat="42.8424320" lon="-7.7372990">
        <ele>688.8</ele>
        <time>2020-10-19T10:19:32Z</time>
      </trkpt>
      <trkpt lat="42.8424380" lon="-7.7373130">
        <ele>688.9</ele>
        <time>2020-10-19T10:19:33Z</time>
      </trkpt>
      <trkpt lat="42.8424450" lon="-7.7373270">
        <ele>688.9</ele>
        <time>2020-10-19T10:19:34Z</time>
      </trkpt>
      <trkpt lat="42.8424500" lon="-7.7373420">
        <ele>689.0</ele>
        <time>2020-10-19T10:19:35Z</time>
      </trkpt>
      <trkpt lat="42.8424550" lon="-7.7373550">
        <ele>689.0</ele>
        <time>2020-10-19T10:19:36Z</time>
      </trkpt>
      <trkpt lat="42.8424600" lon="-7.7373690">
        <ele>689.1</ele>
        <time>2020-10-19T10:19:37Z</time>
      </trkpt>
      <trkpt lat="42.8424640" lon="-7.7373830">
        <ele>689.1</ele>
        <time>2020-10-19T10:19:38Z</time>
      </trkpt>
      <trkpt lat="42.8424680" lon="-7.7373980">
        <ele>689.2</ele>
        <time>2020-10-19T10:19:39Z</time>
      </trkpt>
      <trkpt lat="42.8424710" lon="-7.7374140">
        <ele>689.2</ele>
        <time>2020-10-19T10:19:40Z</time>
      </trkpt>
      <trkpt lat="42.8424730" lon="-7.7374310">
        <ele>689.3</ele>
        <time>2020-10-19T10:19:41Z</time>
      </trkpt>
      <trkpt lat="42.8424770" lon="-7.7374480">
        <ele>689.3</ele>
        <time>2020-10-19T10:19:42Z</time>
      </trkpt>
      <trkpt lat="42.8424820" lon="-7.7374640">
        <ele>689.4</ele>
        <time>2020-10-19T10:19:43Z</time>
      </trkpt>
      <trkpt lat="42.8424880" lon="-7.7374800">
        <ele>689.4</ele>
        <time>2020-10-19T10:19:44Z</time>
      </trkpt>
      <trkpt lat="42.8424930" lon="-7.7374960">
        <ele>689.5</ele>
        <time>2020-10-19T10:19:45Z</time>
      </trkpt>
      <trkpt lat="42.8424980" lon="-7.7375120">
        <ele>689.5</ele>
        <time>2020-10-19T10:19:46Z</time>
      </trkpt>
      <trkpt lat="42.8425020" lon="-7.7375270">
        <ele>689.6</ele>
        <time>2020-10-19T10:19:47Z</time>
      </trkpt>
      <trkpt lat="42.8425060" lon="-7.7375430">
        <ele>689.6</ele>
        <time>2020-10-19T10:19:48Z</time>
      </trkpt>
      <trkpt lat="42.8425090" lon="-7.7375580">
        <ele>689.6</ele>
        <time>2020-10-19T10:19:49Z</time>
      </trkpt>
      <trkpt lat="42.8425120" lon="-7.7375730">
        <ele>689.7</ele>
        <time>2020-10-19T10:19:50Z</time>
      </trkpt>
      <trkpt lat="42.8425150" lon="-7.7375890">
        <ele>689.7</ele>
        <time>2020-10-19T10:19:51Z</time>
      </trkpt>
      <trkpt lat="42.8425190" lon="-7.7376040">
        <ele>689.8</ele>
        <time>2020-10-19T10:19:52Z</time>
      </trkpt>
      <trkpt lat="42.8425230" lon="-7.7376200">
        <ele>689.8</ele>
        <time>2020-10-19T10:19:53Z</time>
      </trkpt>
      <trkpt lat="42.8425270" lon="-7.7376360">
        <ele>689.8</ele>
        <time>2020-10-19T10:19:54Z</time>
      </trkpt>
      <trkpt lat="42.8425300" lon="-7.7376520">
        <ele>689.9</ele>
        <time>2020-10-19T10:19:55Z</time>
      </trkpt>
      <trkpt lat="42.8425330" lon="-7.7376680">
        <ele>689.9</ele>
        <time>2020-10-19T10:19:56Z</time>
      </trkpt>
      <trkpt lat="42.8425350" lon="-7.7376830">
        <ele>690.0</ele>
        <time>2020-10-19T10:19:57Z</time>
      </trkpt>
      <trkpt lat="42.8425370" lon="-7.7376990">
        <ele>690.0</ele>
        <time>2020-10-19T10:19:58Z</time>
      </trkpt>
      <trkpt lat="42.8425390" lon="-7.7377150">
        <ele>690.1</ele>
        <time>2020-10-19T10:19:59Z</time>
      </trkpt>
      <trkpt lat="42.8425410" lon="-7.7377310">
        <ele>690.1</ele>
        <time>2020-10-19T10:20:00Z</time>
      </trkpt>
      <trkpt lat="42.8425430" lon="-7.7377460">
        <ele>690.1</ele>
        <time>2020-10-19T10:20:01Z</time>
      </trkpt>
      <trkpt lat="42.8425450" lon="-7.7377610">
        <ele>690.2</ele>
        <time>2020-10-19T10:20:02Z</time>
      </trkpt>
      <trkpt lat="42.8425470" lon="-7.7377750">
        <ele>690.2</ele>
        <time>2020-10-19T10:20:03Z</time>
      </trkpt>
      <trkpt lat="42.8425480" lon="-7.7377910">
        <ele>690.2</ele>
        <time>2020-10-19T10:20:04Z</time>
      </trkpt>
      <trkpt lat="42.8425480" lon="-7.7378060">
        <ele>690.3</ele>
        <time>2020-10-19T10:20:05Z</time>
      </trkpt>
      <trkpt lat="42.8425480" lon="-7.7378200">
        <ele>690.3</ele>
        <time>2020-10-19T10:20:06Z</time>
      </trkpt>
      <trkpt lat="42.8425480" lon="-7.7378350">
        <ele>690.4</ele>
        <time>2020-10-19T10:20:07Z</time>
      </trkpt>
      <trkpt lat="42.8425480" lon="-7.7378500">
        <ele>690.4</ele>
        <time>2020-10-19T10:20:08Z</time>
      </trkpt>
      <trkpt lat="42.8425480" lon="-7.7378650">
        <ele>690.4</ele>
        <time>2020-10-19T10:20:09Z</time>
      </trkpt>
      <trkpt lat="42.8425490" lon="-7.7378790">
        <ele>690.5</ele>
        <time>2020-10-19T10:20:10Z</time>
      </trkpt>
      <trkpt lat="42.8425490" lon="-7.7378940">
        <ele>690.5</ele>
        <time>2020-10-19T10:20:11Z</time>
      </trkpt>
      <trkpt lat="42.8425500" lon="-7.7379090">
        <ele>690.5</ele>
        <time>2020-10-19T10:20:12Z</time>
      </trkpt>
      <trkpt lat="42.8425530" lon="-7.7379250">
        <ele>690.6</ele>
        <time>2020-10-19T10:20:13Z</time>
      </trkpt>
      <trkpt lat="42.8425570" lon="-7.7379400">
        <ele>690.6</ele>
        <time>2020-10-19T10:20:14Z</time>
      </trkpt>
      <trkpt lat="42.8425610" lon="-7.7379540">
        <ele>690.7</ele>
        <time>2020-10-19T10:20:15Z</time>
      </trkpt>
      <trkpt lat="42.8425640" lon="-7.7379680">
        <ele>690.7</ele>
        <time>2020-10-19T10:20:16Z</time>
      </trkpt>
      <trkpt lat="42.8425680" lon="-7.7379820">
        <ele>690.7</ele>
        <time>2020-10-19T10:20:17Z</time>
      </trkpt>
      <trkpt lat="42.8425700" lon="-7.7379960">
        <ele>690.8</ele>
        <time>2020-10-19T10:20:18Z</time>
      </trkpt>
      <trkpt lat="42.8425730" lon="-7.7380100">
        <ele>690.8</ele>
        <time>2020-10-19T10:20:19Z</time>
      </trkpt>
      <trkpt lat="42.8425750" lon="-7.7380230">
        <ele>690.8</ele>
        <time>2020-10-19T10:20:20Z</time>
      </trkpt>
      <trkpt lat="42.8425760" lon="-7.7380340">
        <ele>690.9</ele>
        <time>2020-10-19T10:20:21Z</time>
      </trkpt>
      <trkpt lat="42.8425750" lon="-7.7380420">
        <ele>690.9</ele>
        <time>2020-10-19T10:20:22Z</time>
      </trkpt>
      <trkpt lat="42.8425730" lon="-7.7380500">
        <ele>690.9</ele>
        <time>2020-10-19T10:20:23Z</time>
      </trkpt>
      <trkpt lat="42.8425710" lon="-7.7380570">
        <ele>690.9</ele>
        <time>2020-10-19T10:20:24Z</time>
      </trkpt>
      <trkpt lat="42.8425710" lon="-7.7380650">
        <ele>690.9</ele>
        <time>2020-10-19T10:20:25Z</time>
      </trkpt>
      <trkpt lat="42.8425720" lon="-7.7380730">
        <ele>691.0</ele>
        <time>2020-10-19T10:20:26Z</time>
      </trkpt>
      <trkpt lat="42.8425730" lon="-7.7380820">
        <ele>691.0</ele>
        <time>2020-10-19T10:20:27Z</time>
      </trkpt>
      <trkpt lat="42.8425730" lon="-7.7380930">
        <ele>691.0</ele>
        <time>2020-10-19T10:20:28Z</time>
      </trkpt>
      <trkpt lat="42.8425730" lon="-7.7381050">
        <ele>691.0</ele>
        <time>2020-10-19T10:20:29Z</time>
      </trkpt>
      <trkpt lat="42.8425740" lon="-7.7381180">
        <ele>691.1</ele>
        <time>2020-10-19T10:20:30Z</time>
      </trkpt>
      <trkpt lat="42.8425740" lon="-7.7381320">
        <ele>691.1</ele>
        <time>2020-10-19T10:20:31Z</time>
      </trkpt>
      <trkpt lat="42.8425740" lon="-7.7381450">
        <ele>691.1</ele>
        <time>2020-10-19T10:20:32Z</time>
      </trkpt>
      <trkpt lat="42.8425740" lon="-7.7381570">
        <ele>691.1</ele>
        <time>2020-10-19T10:20:33Z</time>
      </trkpt>
      <trkpt lat="42.8425750" lon="-7.7381680">
        <ele>691.2</ele>
        <time>2020-10-19T10:20:34Z</time>
      </trkpt>
      <trkpt lat="42.8425760" lon="-7.7381790">
        <ele>691.2</ele>
        <time>2020-10-19T10:20:35Z</time>
      </trkpt>
      <trkpt lat="42.8425770" lon="-7.7381900">
        <ele>691.2</ele>
        <time>2020-10-19T10:20:36Z</time>
      </trkpt>
      <trkpt lat="42.8425770" lon="-7.7382020">
        <ele>691.2</ele>
        <time>2020-10-19T10:20:37Z</time>
      </trkpt>
      <trkpt lat="42.8425780" lon="-7.7382140">
        <ele>691.3</ele>
        <time>2020-10-19T10:20:38Z</time>
      </trkpt>
      <trkpt lat="42.8425780" lon="-7.7382270">
        <ele>691.3</ele>
        <time>2020-10-19T10:20:39Z</time>
      </trkpt>
      <trkpt lat="42.8425790" lon="-7.7382390">
        <ele>691.3</ele>
        <time>2020-10-19T10:20:40Z</time>
      </trkpt>
      <trkpt lat="42.8425790" lon="-7.7382520">
        <ele>691.4</ele>
        <time>2020-10-19T10:20:41Z</time>
      </trkpt>
      <trkpt lat="42.8425800" lon="-7.7382660">
        <ele>691.4</ele>
        <time>2020-10-19T10:20:42Z</time>
      </trkpt>
      <trkpt lat="42.8425830" lon="-7.7382800">
        <ele>691.4</ele>
        <time>2020-10-19T10:20:43Z</time>
      </trkpt>
      <trkpt lat="42.8425870" lon="-7.7382960">
        <ele>691.5</ele>
        <time>2020-10-19T10:20:44Z</time>
      </trkpt>
      <trkpt lat="42.8425900" lon="-7.7383090">
        <ele>691.5</ele>
        <time>2020-10-19T10:20:45Z</time>
      </trkpt>
      <trkpt lat="42.8425930" lon="-7.7383230">
        <ele>691.5</ele>
        <time>2020-10-19T10:20:46Z</time>
      </trkpt>
      <trkpt lat="42.8425940" lon="-7.7383380">
        <ele>691.5</ele>
        <time>2020-10-19T10:20:47Z</time>
      </trkpt>
      <trkpt lat="42.8425930" lon="-7.7383520">
        <ele>691.6</ele>
        <time>2020-10-19T10:20:48Z</time>
      </trkpt>
      <trkpt lat="42.8425930" lon="-7.7383650">
        <ele>691.6</ele>
        <time>2020-10-19T10:20:49Z</time>
      </trkpt>
      <trkpt lat="42.8425930" lon="-7.7383780">
        <ele>691.6</ele>
        <time>2020-10-19T10:20:50Z</time>
      </trkpt>
      <trkpt lat="42.8425940" lon="-7.7383920">
        <ele>691.7</ele>
        <time>2020-10-19T10:20:51Z</time>
      </trkpt>
      <trkpt lat="42.8425960" lon="-7.7384050">
        <ele>691.7</ele>
        <time>2020-10-19T10:20:52Z</time>
      </trkpt>
      <trkpt lat="42.8425980" lon="-7.7384190">
        <ele>691.7</ele>
        <time>2020-10-19T10:20:53Z</time>
      </trkpt>
      <trkpt lat="42.8426000" lon="-7.7384330">
        <ele>691.8</ele>
        <time>2020-10-19T10:20:54Z</time>
      </trkpt>
      <trkpt lat="42.8426020" lon="-7.7384470">
        <ele>691.8</ele>
        <time>2020-10-19T10:20:55Z</time>
      </trkpt>
      <trkpt lat="42.8426020" lon="-7.7384600">
        <ele>691.8</ele>
        <time>2020-10-19T10:20:56Z</time>
      </trkpt>
      <trkpt lat="42.8426020" lon="-7.7384740">
        <ele>691.9</ele>
        <time>2020-10-19T10:20:57Z</time>
      </trkpt>
      <trkpt lat="42.8426020" lon="-7.7384870">
        <ele>691.9</ele>
        <time>2020-10-19T10:20:58Z</time>
      </trkpt>
      <trkpt lat="42.8426020" lon="-7.7385010">
        <ele>691.9</ele>
        <time>2020-10-19T10:20:59Z</time>
      </trkpt>
      <trkpt lat="42.8426030" lon="-7.7385150">
        <ele>691.9</ele>
        <time>2020-10-19T10:21:00Z</time>
      </trkpt>
      <trkpt lat="42.8426050" lon="-7.7385290">
        <ele>692.0</ele>
        <time>2020-10-19T10:21:01Z</time>
      </trkpt>
      <trkpt lat="42.8426070" lon="-7.7385430">
        <ele>692.0</ele>
        <time>2020-10-19T10:21:02Z</time>
      </trkpt>
      <trkpt lat="42.8426080" lon="-7.7385560">
        <ele>692.0</ele>
        <time>2020-10-19T10:21:03Z</time>
      </trkpt>
      <trkpt lat="42.8426080" lon="-7.7385680">
        <ele>692.1</ele>
        <time>2020-10-19T10:21:04Z</time>
      </trkpt>
      <trkpt lat="42.8426070" lon="-7.7385810">
        <ele>692.1</ele>
        <time>2020-10-19T10:21:05Z</time>
      </trkpt>
      <trkpt lat="42.8426070" lon="-7.7385950">
        <ele>692.1</ele>
        <time>2020-10-19T10:21:06Z</time>
      </trkpt>
      <trkpt lat="42.8426070" lon="-7.7386080">
        <ele>692.2</ele>
        <time>2020-10-19T10:21:07Z</time>
      </trkpt>
      <trkpt lat="42.8426060" lon="-7.7386200">
        <ele>692.2</ele>
        <time>2020-10-19T10:21:08Z</time>
      </trkpt>
      <trkpt lat="42.8426070" lon="-7.7386320">
        <ele>692.2</ele>
        <time>2020-10-19T10:21:09Z</time>
      </trkpt>
      <trkpt lat="42.8426080" lon="-7.7386440">
        <ele>692.3</ele>
        <time>2020-10-19T10:21:10Z</time>
      </trkpt>
      <trkpt lat="42.8426110" lon="-7.7386570">
        <ele>692.3</ele>
        <time>2020-10-19T10:21:11Z</time>
      </trkpt>
      <trkpt lat="42.8426120" lon="-7.7386710">
        <ele>692.3</ele>
        <time>2020-10-19T10:21:12Z</time>
      </trkpt>
      <trkpt lat="42.8426140" lon="-7.7386860">
        <ele>692.4</ele>
        <time>2020-10-19T10:21:13Z</time>
      </trkpt>
      <trkpt lat="42.8426150" lon="-7.7387030">
        <ele>692.4</ele>
        <time>2020-10-19T10:21:14Z</time>
      </trkpt>
      <trkpt lat="42.8426170" lon="-7.7387190">
        <ele>692.5</ele>
        <time>2020-10-19T10:21:15Z</time>
      </trkpt>
      <trkpt lat="42.8426200" lon="-7.7387340">
        <ele>692.5</ele>
        <time>2020-10-19T10:21:16Z</time>
      </trkpt>
      <trkpt lat="42.8426230" lon="-7.7387480">
        <ele>692.5</ele>
        <time>2020-10-19T10:21:17Z</time>
      </trkpt>
      <trkpt lat="42.8426250" lon="-7.7387640">
        <ele>692.6</ele>
        <time>2020-10-19T10:21:18Z</time>
      </trkpt>
      <trkpt lat="42.8426270" lon="-7.7387800">
        <ele>692.6</ele>
        <time>2020-10-19T10:21:19Z</time>
      </trkpt>
      <trkpt lat="42.8426290" lon="-7.7387990">
        <ele>692.7</ele>
        <time>2020-10-19T10:21:20Z</time>
      </trkpt>
      <trkpt lat="42.8426310" lon="-7.7388170">
        <ele>692.7</ele>
        <time>2020-10-19T10:21:21Z</time>
      </trkpt>
      <trkpt lat="42.8426340" lon="-7.7388340">
        <ele>692.8</ele>
        <time>2020-10-19T10:21:22Z</time>
      </trkpt>
      <trkpt lat="42.8426370" lon="-7.7388520">
        <ele>692.8</ele>
        <time>2020-10-19T10:21:23Z</time>
      </trkpt>
      <trkpt lat="42.8426400" lon="-7.7388690">
        <ele>692.9</ele>
        <time>2020-10-19T10:21:24Z</time>
      </trkpt>
      <trkpt lat="42.8426420" lon="-7.7388860">
        <ele>692.9</ele>
        <time>2020-10-19T10:21:25Z</time>
      </trkpt>
      <trkpt lat="42.8426450" lon="-7.7389010">
        <ele>693.0</ele>
        <time>2020-10-19T10:21:26Z</time>
      </trkpt>
      <trkpt lat="42.8426470" lon="-7.7389170">
        <ele>693.0</ele>
        <time>2020-10-19T10:21:27Z</time>
      </trkpt>
      <trkpt lat="42.8426490" lon="-7.7389340">
        <ele>693.1</ele>
        <time>2020-10-19T10:21:28Z</time>
      </trkpt>
      <trkpt lat="42.8426500" lon="-7.7389500">
        <ele>693.1</ele>
        <time>2020-10-19T10:21:29Z</time>
      </trkpt>
      <trkpt lat="42.8426510" lon="-7.7389660">
        <ele>693.2</ele>
        <time>2020-10-19T10:21:30Z</time>
      </trkpt>
      <trkpt lat="42.8426530" lon="-7.7389800">
        <ele>693.2</ele>
        <time>2020-10-19T10:21:31Z</time>
      </trkpt>
      <trkpt lat="42.8426550" lon="-7.7389930">
        <ele>693.3</ele>
        <time>2020-10-19T10:21:32Z</time>
      </trkpt>
      <trkpt lat="42.8426570" lon="-7.7390070">
        <ele>693.3</ele>
        <time>2020-10-19T10:21:33Z</time>
      </trkpt>
      <trkpt lat="42.8426580" lon="-7.7390190">
        <ele>693.4</ele>
        <time>2020-10-19T10:21:34Z</time>
      </trkpt>
      <trkpt lat="42.8426590" lon="-7.7390320">
        <ele>693.4</ele>
        <time>2020-10-19T10:21:35Z</time>
      </trkpt>
      <trkpt lat="42.8426590" lon="-7.7390450">
        <ele>693.5</ele>
        <time>2020-10-19T10:21:36Z</time>
      </trkpt>
      <trkpt lat="42.8426600" lon="-7.7390600">
        <ele>693.5</ele>
        <time>2020-10-19T10:21:37Z</time>
      </trkpt>
      <trkpt lat="42.8426600" lon="-7.7390750">
        <ele>693.6</ele>
        <time>2020-10-19T10:21:38Z</time>
      </trkpt>
      <trkpt lat="42.8426600" lon="-7.7390890">
        <ele>693.6</ele>
        <time>2020-10-19T10:21:39Z</time>
      </trkpt>
      <trkpt lat="42.8426590" lon="-7.7391020">
        <ele>693.7</ele>
        <time>2020-10-19T10:21:40Z</time>
      </trkpt>
      <trkpt lat="42.8426580" lon="-7.7391160">
        <ele>693.7</ele>
        <time>2020-10-19T10:21:41Z</time>
      </trkpt>
      <trkpt lat="42.8426580" lon="-7.7391280">
        <ele>693.7</ele>
        <time>2020-10-19T10:21:42Z</time>
      </trkpt>
      <trkpt lat="42.8426590" lon="-7.7391410">
        <ele>693.8</ele>
        <time>2020-10-19T10:21:43Z</time>
      </trkpt>
      <trkpt lat="42.8426610" lon="-7.7391530">
        <ele>693.8</ele>
        <time>2020-10-19T10:21:44Z</time>
      </trkpt>
      <trkpt lat="42.8426630" lon="-7.7391640">
        <ele>693.9</ele>
        <time>2020-10-19T10:21:45Z</time>
      </trkpt>
      <trkpt lat="42.8426640" lon="-7.7391740">
        <ele>693.9</ele>
        <time>2020-10-19T10:21:46Z</time>
      </trkpt>
      <trkpt lat="42.8426650" lon="-7.7391850">
        <ele>693.9</ele>
        <time>2020-10-19T10:21:47Z</time>
      </trkpt>
      <trkpt lat="42.8426660" lon="-7.7391970">
        <ele>694.0</ele>
        <time>2020-10-19T10:21:48Z</time>
      </trkpt>
      <trkpt lat="42.8426690" lon="-7.7392120">
        <ele>694.0</ele>
        <time>2020-10-19T10:21:49Z</time>
      </trkpt>
      <trkpt lat="42.8426710" lon="-7.7392260">
        <ele>694.1</ele>
        <time>2020-10-19T10:21:50Z</time>
      </trkpt>
      <trkpt lat="42.8426720" lon="-7.7392410">
        <ele>694.1</ele>
        <time>2020-10-19T10:21:51Z</time>
      </trkpt>
      <trkpt lat="42.8426720" lon="-7.7392550">
        <ele>694.2</ele>
        <time>2020-10-19T10:21:52Z</time>
      </trkpt>
      <trkpt lat="42.8426710" lon="-7.7392700">
        <ele>694.2</ele>
        <time>2020-10-19T10:21:53Z</time>
      </trkpt>
      <trkpt lat="42.8426710" lon="-7.7392840">
        <ele>694.3</ele>
        <time>2020-10-19T10:21:54Z</time>
      </trkpt>
      <trkpt lat="42.8426710" lon="-7.7393000">
        <ele>694.3</ele>
        <time>2020-10-19T10:21:55Z</time>
      </trkpt>
      <trkpt lat="42.8426690" lon="-7.7393150">
        <ele>694.4</ele>
        <time>2020-10-19T10:21:56Z</time>
      </trkpt>
      <trkpt lat="42.8426680" lon="-7.7393300">
        <ele>694.5</ele>
        <time>2020-10-19T10:21:57Z</time>
      </trkpt>
      <trkpt lat="42.8426680" lon="-7.7393450">
        <ele>694.5</ele>
        <time>2020-10-19T10:21:58Z</time>
      </trkpt>
      <trkpt lat="42.8426690" lon="-7.7393580">
        <ele>694.6</ele>
        <time>2020-10-19T10:21:59Z</time>
      </trkpt>
      <trkpt lat="42.8426730" lon="-7.7393690">
        <ele>694.6</ele>
        <time>2020-10-19T10:22:00Z</time>
      </trkpt>
      <trkpt lat="42.8426780" lon="-7.7393810">
        <ele>694.6</ele>
        <time>2020-10-19T10:22:01Z</time>
      </trkpt>
      <trkpt lat="42.8426840" lon="-7.7393930">
        <ele>694.7</ele>
        <time>2020-10-19T10:22:02Z</time>
      </trkpt>
      <trkpt lat="42.8426880" lon="-7.7394070">
        <ele>694.8</ele>
        <time>2020-10-19T10:22:03Z</time>
      </trkpt>
      <trkpt lat="42.8426900" lon="-7.7394210">
        <ele>694.8</ele>
        <time>2020-10-19T10:22:04Z</time>
      </trkpt>
      <trkpt lat="42.8426910" lon="-7.7394360">
        <ele>694.9</ele>
        <time>2020-10-19T10:22:05Z</time>
      </trkpt>
      <trkpt lat="42.8426920" lon="-7.7394510">
        <ele>694.9</ele>
        <time>2020-10-19T10:22:06Z</time>
      </trkpt>
      <trkpt lat="42.8426920" lon="-7.7394660">
        <ele>695.0</ele>
        <time>2020-10-19T10:22:07Z</time>
      </trkpt>
      <trkpt lat="42.8426920" lon="-7.7394810">
        <ele>695.0</ele>
        <time>2020-10-19T10:22:08Z</time>
      </trkpt>
      <trkpt lat="42.8426930" lon="-7.7394960">
        <ele>695.1</ele>
        <time>2020-10-19T10:22:09Z</time>
      </trkpt>
      <trkpt lat="42.8426950" lon="-7.7395110">
        <ele>695.2</ele>
        <time>2020-10-19T10:22:10Z</time>
      </trkpt>
      <trkpt lat="42.8426980" lon="-7.7395250">
        <ele>695.2</ele>
        <time>2020-10-19T10:22:11Z</time>
      </trkpt>
      <trkpt lat="42.8426990" lon="-7.7395400">
        <ele>695.3</ele>
        <time>2020-10-19T10:22:12Z</time>
      </trkpt>
      <trkpt lat="42.8426990" lon="-7.7395550">
        <ele>695.3</ele>
        <time>2020-10-19T10:22:13Z</time>
      </trkpt>
      <trkpt lat="42.8426990" lon="-7.7395710">
        <ele>695.4</ele>
        <time>2020-10-19T10:22:14Z</time>
      </trkpt>
      <trkpt lat="42.8426990" lon="-7.7395870">
        <ele>695.4</ele>
        <time>2020-10-19T10:22:15Z</time>
      </trkpt>
      <trkpt lat="42.8426980" lon="-7.7396030">
        <ele>695.5</ele>
        <time>2020-10-19T10:22:16Z</time>
      </trkpt>
      <trkpt lat="42.8426970" lon="-7.7396190">
        <ele>695.6</ele>
        <time>2020-10-19T10:22:17Z</time>
      </trkpt>
      <trkpt lat="42.8426960" lon="-7.7396350">
        <ele>695.6</ele>
        <time>2020-10-19T10:22:18Z</time>
      </trkpt>
      <trkpt lat="42.8426960" lon="-7.7396510">
        <ele>695.7</ele>
        <time>2020-10-19T10:22:19Z</time>
      </trkpt>
      <trkpt lat="42.8426960" lon="-7.7396680">
        <ele>695.7</ele>
        <time>2020-10-19T10:22:20Z</time>
      </trkpt>
      <trkpt lat="42.8426960" lon="-7.7396860">
        <ele>695.8</ele>
        <time>2020-10-19T10:22:21Z</time>
      </trkpt>
      <trkpt lat="42.8426960" lon="-7.7397040">
        <ele>695.9</ele>
        <time>2020-10-19T10:22:22Z</time>
      </trkpt>
      <trkpt lat="42.8426960" lon="-7.7397220">
        <ele>696.0</ele>
        <time>2020-10-19T10:22:23Z</time>
      </trkpt>
      <trkpt lat="42.8426970" lon="-7.7397390">
        <ele>696.0</ele>
        <time>2020-10-19T10:22:24Z</time>
      </trkpt>
      <trkpt lat="42.8426990" lon="-7.7397540">
        <ele>696.1</ele>
        <time>2020-10-19T10:22:25Z</time>
      </trkpt>
      <trkpt lat="42.8427000" lon="-7.7397700">
        <ele>696.2</ele>
        <time>2020-10-19T10:22:26Z</time>
      </trkpt>
      <trkpt lat="42.8427010" lon="-7.7397840">
        <ele>696.2</ele>
        <time>2020-10-19T10:22:27Z</time>
      </trkpt>
      <trkpt lat="42.8427010" lon="-7.7397990">
        <ele>696.3</ele>
        <time>2020-10-19T10:22:28Z</time>
      </trkpt>
      <trkpt lat="42.8427010" lon="-7.7398130">
        <ele>696.4</ele>
        <time>2020-10-19T10:22:29Z</time>
      </trkpt>
      <trkpt lat="42.8427010" lon="-7.7398270">
        <ele>696.4</ele>
        <time>2020-10-19T10:22:30Z</time>
      </trkpt>
      <trkpt lat="42.8427020" lon="-7.7398400">
        <ele>696.5</ele>
        <time>2020-10-19T10:22:31Z</time>
      </trkpt>
      <trkpt lat="42.8427020" lon="-7.7398540">
        <ele>696.5</ele>
        <time>2020-10-19T10:22:32Z</time>
      </trkpt>
      <trkpt lat="42.8427020" lon="-7.7398680">
        <ele>696.6</ele>
        <time>2020-10-19T10:22:33Z</time>
      </trkpt>
      <trkpt lat="42.8427020" lon="-7.7398820">
        <ele>696.6</ele>
        <time>2020-10-19T10:22:34Z</time>
      </trkpt>
      <trkpt lat="42.8427030" lon="-7.7398970">
        <ele>696.7</ele>
        <time>2020-10-19T10:22:35Z</time>
      </trkpt>
      <trkpt lat="42.8427050" lon="-7.7399130">
        <ele>696.8</ele>
        <time>2020-10-19T10:22:36Z</time>
      </trkpt>
      <trkpt lat="42.8427060" lon="-7.7399290">
        <ele>696.8</ele>
        <time>2020-10-19T10:22:37Z</time>
      </trkpt>
      <trkpt lat="42.8427060" lon="-7.7399440">
        <ele>696.9</ele>
        <time>2020-10-19T10:22:38Z</time>
      </trkpt>
      <trkpt lat="42.8427070" lon="-7.7399580">
        <ele>697.0</ele>
        <time>2020-10-19T10:22:39Z</time>
      </trkpt>
      <trkpt lat="42.8427080" lon="-7.7399740">
        <ele>697.0</ele>
        <time>2020-10-19T10:22:40Z</time>
      </trkpt>
      <trkpt lat="42.8427100" lon="-7.7399900">
        <ele>697.1</ele>
        <time>2020-10-19T10:22:41Z</time>
      </trkpt>
      <trkpt lat="42.8427110" lon="-7.7400050">
        <ele>697.2</ele>
        <time>2020-10-19T10:22:42Z</time>
      </trkpt>
      <trkpt lat="42.8427120" lon="-7.7400210">
        <ele>697.2</ele>
        <time>2020-10-19T10:22:43Z</time>
      </trkpt>
      <trkpt lat="42.8427130" lon="-7.7400370">
        <ele>697.3</ele>
        <time>2020-10-19T10:22:44Z</time>
      </trkpt>
      <trkpt lat="42.8427170" lon="-7.7400530">
        <ele>697.4</ele>
        <time>2020-10-19T10:22:45Z</time>
      </trkpt>
      <trkpt lat="42.8427210" lon="-7.7400700">
        <ele>697.5</ele>
        <time>2020-10-19T10:22:46Z</time>
      </trkpt>
      <trkpt lat="42.8427240" lon="-7.7400850">
        <ele>697.5</ele>
        <time>2020-10-19T10:22:47Z</time>
      </trkpt>
      <trkpt lat="42.8427270" lon="-7.7401010">
        <ele>697.6</ele>
        <time>2020-10-19T10:22:48Z</time>
      </trkpt>
      <trkpt lat="42.8427300" lon="-7.7401150">
        <ele>697.7</ele>
        <time>2020-10-19T10:22:49Z</time>
      </trkpt>
      <trkpt lat="42.8427320" lon="-7.7401300">
        <ele>697.7</ele>
        <time>2020-10-19T10:22:50Z</time>
      </trkpt>
      <trkpt lat="42.8427340" lon="-7.7401450">
        <ele>697.8</ele>
        <time>2020-10-19T10:22:51Z</time>
      </trkpt>
      <trkpt lat="42.8427370" lon="-7.7401580">
        <ele>697.9</ele>
        <time>2020-10-19T10:22:52Z</time>
      </trkpt>
      <trkpt lat="42.8427400" lon="-7.7401720">
        <ele>697.9</ele>
        <time>2020-10-19T10:22:53Z</time>
      </trkpt>
      <trkpt lat="42.8427430" lon="-7.7401850">
        <ele>698.0</ele>
        <time>2020-10-19T10:22:54Z</time>
      </trkpt>
      <trkpt lat="42.8427450" lon="-7.7401970">
        <ele>698.1</ele>
        <time>2020-10-19T10:22:55Z</time>
      </trkpt>
      <trkpt lat="42.8427460" lon="-7.7402090">
        <ele>698.1</ele>
        <time>2020-10-19T10:22:56Z</time>
      </trkpt>
      <trkpt lat="42.8427460" lon="-7.7402230">
        <ele>698.2</ele>
        <time>2020-10-19T10:22:57Z</time>
      </trkpt>
      <trkpt lat="42.8427470" lon="-7.7402360">
        <ele>698.2</ele>
        <time>2020-10-19T10:22:58Z</time>
      </trkpt>
      <trkpt lat="42.8427500" lon="-7.7402430">
        <ele>698.3</ele>
        <time>2020-10-19T10:22:59Z</time>
      </trkpt>
      <trkpt lat="42.8427560" lon="-7.7402430">
        <ele>698.3</ele>
        <time>2020-10-19T10:23:00Z</time>
      </trkpt>
      <trkpt lat="42.8427620" lon="-7.7402390">
        <ele>698.4</ele>
        <time>2020-10-19T10:23:01Z</time>
      </trkpt>
      <trkpt lat="42.8427660" lon="-7.7402430">
        <ele>698.4</ele>
        <time>2020-10-19T10:23:02Z</time>
      </trkpt>
      <trkpt lat="42.8427650" lon="-7.7402530">
        <ele>698.4</ele>
        <time>2020-10-19T10:23:03Z</time>
      </trkpt>
      <trkpt lat="42.8427620" lon="-7.7402690">
        <ele>698.5</ele>
        <time>2020-10-19T10:23:04Z</time>
      </trkpt>
      <trkpt lat="42.8427600" lon="-7.7402830">
        <ele>698.6</ele>
        <time>2020-10-19T10:23:05Z</time>
      </trkpt>
      <trkpt lat="42.8427570" lon="-7.7402950">
        <ele>698.6</ele>
        <time>2020-10-19T10:23:06Z</time>
      </trkpt>
      <trkpt lat="42.8427540" lon="-7.7403080">
        <ele>698.7</ele>
        <time>2020-10-19T10:23:07Z</time>
      </trkpt>
      <trkpt lat="42.8427510" lon="-7.7403190">
        <ele>698.7</ele>
        <time>2020-10-19T10:23:08Z</time>
      </trkpt>
      <trkpt lat="42.8427490" lon="-7.7403310">
        <ele>698.8</ele>
        <time>2020-10-19T10:23:09Z</time>
      </trkpt>
      <trkpt lat="42.8427460" lon="-7.7403450">
        <ele>698.8</ele>
        <time>2020-10-19T10:23:10Z</time>
      </trkpt>
      <trkpt lat="42.8427430" lon="-7.7403610">
        <ele>698.9</ele>
        <time>2020-10-19T10:23:11Z</time>
      </trkpt>
      <trkpt lat="42.8427400" lon="-7.7403790">
        <ele>699.0</ele>
        <time>2020-10-19T10:23:12Z</time>
      </trkpt>
      <trkpt lat="42.8427400" lon="-7.7403940">
        <ele>699.0</ele>
        <time>2020-10-19T10:23:13Z</time>
      </trkpt>
      <trkpt lat="42.8427410" lon="-7.7404090">
        <ele>699.1</ele>
        <time>2020-10-19T10:23:14Z</time>
      </trkpt>
      <trkpt lat="42.8427410" lon="-7.7404240">
        <ele>699.1</ele>
        <time>2020-10-19T10:23:15Z</time>
      </trkpt>
      <trkpt lat="42.8427400" lon="-7.7404410">
        <ele>699.2</ele>
        <time>2020-10-19T10:23:16Z</time>
      </trkpt>
      <trkpt lat="42.8427390" lon="-7.7404580">
        <ele>699.3</ele>
        <time>2020-10-19T10:23:17Z</time>
      </trkpt>
      <trkpt lat="42.8427380" lon="-7.7404750">
        <ele>699.4</ele>
        <time>2020-10-19T10:23:18Z</time>
      </trkpt>
      <trkpt lat="42.8427390" lon="-7.7404920">
        <ele>699.4</ele>
        <time>2020-10-19T10:23:19Z</time>
      </trkpt>
      <trkpt lat="42.8427390" lon="-7.7405090">
        <ele>699.5</ele>
        <time>2020-10-19T10:23:20Z</time>
      </trkpt>
      <trkpt lat="42.8427400" lon="-7.7405270">
        <ele>699.6</ele>
        <time>2020-10-19T10:23:21Z</time>
      </trkpt>
      <trkpt lat="42.8427410" lon="-7.7405430">
        <ele>699.6</ele>
        <time>2020-10-19T10:23:22Z</time>
      </trkpt>
      <trkpt lat="42.8427430" lon="-7.7405590">
        <ele>699.7</ele>
        <time>2020-10-19T10:23:23Z</time>
      </trkpt>
      <trkpt lat="42.8427450" lon="-7.7405740">
        <ele>699.8</ele>
        <time>2020-10-19T10:23:24Z</time>
      </trkpt>
      <trkpt lat="42.8427470" lon="-7.7405890">
        <ele>699.8</ele>
        <time>2020-10-19T10:23:25Z</time>
      </trkpt>
      <trkpt lat="42.8427480" lon="-7.7406050">
        <ele>699.9</ele>
        <time>2020-10-19T10:23:26Z</time>
      </trkpt>
      <trkpt lat="42.8427500" lon="-7.7406200">
        <ele>699.9</ele>
        <time>2020-10-19T10:23:27Z</time>
      </trkpt>
      <trkpt lat="42.8427510" lon="-7.7406360">
        <ele>700.0</ele>
        <time>2020-10-19T10:23:28Z</time>
      </trkpt>
      <trkpt lat="42.8427530" lon="-7.7406520">
        <ele>700.0</ele>
        <time>2020-10-19T10:23:29Z</time>
      </trkpt>
      <trkpt lat="42.8427550" lon="-7.7406680">
        <ele>700.1</ele>
        <time>2020-10-19T10:23:30Z</time>
      </trkpt>
      <trkpt lat="42.8427560" lon="-7.7406850">
        <ele>700.2</ele>
        <time>2020-10-19T10:23:31Z</time>
      </trkpt>
      <trkpt lat="42.8427570" lon="-7.7407010">
        <ele>700.2</ele>
        <time>2020-10-19T10:23:32Z</time>
      </trkpt>
      <trkpt lat="42.8427580" lon="-7.7407170">
        <ele>700.3</ele>
        <time>2020-10-19T10:23:33Z</time>
      </trkpt>
      <trkpt lat="42.8427580" lon="-7.7407330">
        <ele>700.4</ele>
        <time>2020-10-19T10:23:34Z</time>
      </trkpt>
      <trkpt lat="42.8427600" lon="-7.7407490">
        <ele>700.4</ele>
        <time>2020-10-19T10:23:35Z</time>
      </trkpt>
      <trkpt lat="42.8427610" lon="-7.7407660">
        <ele>700.5</ele>
        <time>2020-10-19T10:23:36Z</time>
      </trkpt>
      <trkpt lat="42.8427640" lon="-7.7407820">
        <ele>700.5</ele>
        <time>2020-10-19T10:23:37Z</time>
      </trkpt>
      <trkpt lat="42.8427660" lon="-7.7407970">
        <ele>700.6</ele>
        <time>2020-10-19T10:23:38Z</time>
      </trkpt>
      <trkpt lat="42.8427680" lon="-7.7408120">
        <ele>700.6</ele>
        <time>2020-10-19T10:23:39Z</time>
      </trkpt>
      <trkpt lat="42.8427710" lon="-7.7408260">
        <ele>700.7</ele>
        <time>2020-10-19T10:23:40Z</time>
      </trkpt>
      <trkpt lat="42.8427740" lon="-7.7408410">
        <ele>700.8</ele>
        <time>2020-10-19T10:23:41Z</time>
      </trkpt>
      <trkpt lat="42.8427770" lon="-7.7408550">
        <ele>700.8</ele>
        <time>2020-10-19T10:23:42Z</time>
      </trkpt>
      <trkpt lat="42.8427790" lon="-7.7408650">
        <ele>700.8</ele>
        <time>2020-10-19T10:23:43Z</time>
      </trkpt>
      <trkpt lat="42.8427780" lon="-7.7408720">
        <ele>700.9</ele>
        <time>2020-10-19T10:23:44Z</time>
      </trkpt>
      <trkpt lat="42.8427740" lon="-7.7408780">
        <ele>700.9</ele>
        <time>2020-10-19T10:23:45Z</time>
      </trkpt>
      <trkpt lat="42.8427700" lon="-7.7408880">
        <ele>700.9</ele>
        <time>2020-10-19T10:23:46Z</time>
      </trkpt>
      <trkpt lat="42.8427680" lon="-7.7409020">
        <ele>701.0</ele>
        <time>2020-10-19T10:23:47Z</time>
      </trkpt>
      <trkpt lat="42.8427670" lon="-7.7409170">
        <ele>701.0</ele>
        <time>2020-10-19T10:23:48Z</time>
      </trkpt>
      <trkpt lat="42.8427680" lon="-7.7409320">
        <ele>701.1</ele>
        <time>2020-10-19T10:23:49Z</time>
      </trkpt>
      <trkpt lat="42.8427680" lon="-7.7409480">
        <ele>701.1</ele>
        <time>2020-10-19T10:23:50Z</time>
      </trkpt>
      <trkpt lat="42.8427690" lon="-7.7409640">
        <ele>701.2</ele>
        <time>2020-10-19T10:23:51Z</time>
      </trkpt>
      <trkpt lat="42.8427720" lon="-7.7409800">
        <ele>701.2</ele>
        <time>2020-10-19T10:23:52Z</time>
      </trkpt>
      <trkpt lat="42.8427760" lon="-7.7409960">
        <ele>701.3</ele>
        <time>2020-10-19T10:23:53Z</time>
      </trkpt>
      <trkpt lat="42.8427800" lon="-7.7410110">
        <ele>701.3</ele>
        <time>2020-10-19T10:23:54Z</time>
      </trkpt>
      <trkpt lat="42.8427850" lon="-7.7410250">
        <ele>701.4</ele>
        <time>2020-10-19T10:23:55Z</time>
      </trkpt>
      <trkpt lat="42.8427910" lon="-7.7410400">
        <ele>701.4</ele>
        <time>2020-10-19T10:23:56Z</time>
      </trkpt>
      <trkpt lat="42.8427970" lon="-7.7410560">
        <ele>701.5</ele>
        <time>2020-10-19T10:23:57Z</time>
      </trkpt>
      <trkpt lat="42.8428010" lon="-7.7410720">
        <ele>701.5</ele>
        <time>2020-10-19T10:23:58Z</time>
      </trkpt>
      <trkpt lat="42.8428060" lon="-7.7410880">
        <ele>701.5</ele>
        <time>2020-10-19T10:23:59Z</time>
      </trkpt>
      <trkpt lat="42.8428100" lon="-7.7411040">
        <ele>701.6</ele>
        <time>2020-10-19T10:24:00Z</time>
      </trkpt>
      <trkpt lat="42.8428140" lon="-7.7411190">
        <ele>701.6</ele>
        <time>2020-10-19T10:24:01Z</time>
      </trkpt>
      <trkpt lat="42.8428200" lon="-7.7411340">
        <ele>701.7</ele>
        <time>2020-10-19T10:24:02Z</time>
      </trkpt>
      <trkpt lat="42.8428250" lon="-7.7411490">
        <ele>701.7</ele>
        <time>2020-10-19T10:24:03Z</time>
      </trkpt>
      <trkpt lat="42.8428310" lon="-7.7411640">
        <ele>701.7</ele>
        <time>2020-10-19T10:24:04Z</time>
      </trkpt>
      <trkpt lat="42.8428360" lon="-7.7411800">
        <ele>701.8</ele>
        <time>2020-10-19T10:24:05Z</time>
      </trkpt>
      <trkpt lat="42.8428430" lon="-7.7411950">
        <ele>701.8</ele>
        <time>2020-10-19T10:24:06Z</time>
      </trkpt>
      <trkpt lat="42.8428490" lon="-7.7412100">
        <ele>701.9</ele>
        <time>2020-10-19T10:24:07Z</time>
      </trkpt>
      <trkpt lat="42.8428560" lon="-7.7412250">
        <ele>701.9</ele>
        <time>2020-10-19T10:24:08Z</time>
      </trkpt>
      <trkpt lat="42.8428640" lon="-7.7412400">
        <ele>701.9</ele>
        <time>2020-10-19T10:24:09Z</time>
      </trkpt>
      <trkpt lat="42.8428710" lon="-7.7412550">
        <ele>701.9</ele>
        <time>2020-10-19T10:24:10Z</time>
      </trkpt>
      <trkpt lat="42.8428780" lon="-7.7412700">
        <ele>702.0</ele>
        <time>2020-10-19T10:24:11Z</time>
      </trkpt>
      <trkpt lat="42.8428850" lon="-7.7412840">
        <ele>702.0</ele>
        <time>2020-10-19T10:24:12Z</time>
      </trkpt>
      <trkpt lat="42.8428910" lon="-7.7413000">
        <ele>702.0</ele>
        <time>2020-10-19T10:24:13Z</time>
      </trkpt>
      <trkpt lat="42.8428970" lon="-7.7413160">
        <ele>702.0</ele>
        <time>2020-10-19T10:24:14Z</time>
      </trkpt>
      <trkpt lat="42.8429030" lon="-7.7413320">
        <ele>702.1</ele>
        <time>2020-10-19T10:24:15Z</time>
      </trkpt>
      <trkpt lat="42.8429090" lon="-7.7413460">
        <ele>702.1</ele>
        <time>2020-10-19T10:24:16Z</time>
      </trkpt>
      <trkpt lat="42.8429160" lon="-7.7413610">
        <ele>702.1</ele>
        <time>2020-10-19T10:24:17Z</time>
      </trkpt>
      <trkpt lat="42.8429230" lon="-7.7413750">
        <ele>702.1</ele>
        <time>2020-10-19T10:24:18Z</time>
      </trkpt>
      <trkpt lat="42.8429290" lon="-7.7413900">
        <ele>702.1</ele>
        <time>2020-10-19T10:24:19Z</time>
      </trkpt>
      <trkpt lat="42.8429350" lon="-7.7414040">
        <ele>702.1</ele>
        <time>2020-10-19T10:24:20Z</time>
      </trkpt>
      <trkpt lat="42.8429410" lon="-7.7414190">
        <ele>702.1</ele>
        <time>2020-10-19T10:24:21Z</time>
      </trkpt>
      <trkpt lat="42.8429480" lon="-7.7414330">
        <ele>702.1</ele>
        <time>2020-10-19T10:24:22Z</time>
      </trkpt>
      <trkpt lat="42.8429550" lon="-7.7414460">
        <ele>702.1</ele>
        <time>2020-10-19T10:24:23Z</time>
      </trkpt>
      <trkpt lat="42.8429630" lon="-7.7414590">
        <ele>702.1</ele>
        <time>2020-10-19T10:24:24Z</time>
      </trkpt>
      <trkpt lat="42.8429700" lon="-7.7414730">
        <ele>702.1</ele>
        <time>2020-10-19T10:24:25Z</time>
      </trkpt>
      <trkpt lat="42.8429760" lon="-7.7414860">
        <ele>702.1</ele>
        <time>2020-10-19T10:24:26Z</time>
      </trkpt>
      <trkpt lat="42.8429830" lon="-7.7414990">
        <ele>702.1</ele>
        <time>2020-10-19T10:24:27Z</time>
      </trkpt>
      <trkpt lat="42.8429890" lon="-7.7415130">
        <ele>702.1</ele>
        <time>2020-10-19T10:24:28Z</time>
      </trkpt>
      <trkpt lat="42.8429950" lon="-7.7415260">
        <ele>702.1</ele>
        <time>2020-10-19T10:24:29Z</time>
      </trkpt>
      <trkpt lat="42.8430010" lon="-7.7415400">
        <ele>702.1</ele>
        <time>2020-10-19T10:24:30Z</time>
      </trkpt>
      <trkpt lat="42.8430070" lon="-7.7415530">
        <ele>702.1</ele>
        <time>2020-10-19T10:24:31Z</time>
      </trkpt>
      <trkpt lat="42.8430120" lon="-7.7415650">
        <ele>702.1</ele>
        <time>2020-10-19T10:24:32Z</time>
      </trkpt>
      <trkpt lat="42.8430170" lon="-7.7415770">
        <ele>702.1</ele>
        <time>2020-10-19T10:24:33Z</time>
      </trkpt>
      <trkpt lat="42.8430220" lon="-7.7415890">
        <ele>702.1</ele>
        <time>2020-10-19T10:24:34Z</time>
      </trkpt>
      <trkpt lat="42.8430280" lon="-7.7416000">
        <ele>702.0</ele>
        <time>2020-10-19T10:24:35Z</time>
      </trkpt>
      <trkpt lat="42.8430340" lon="-7.7416130">
        <ele>702.0</ele>
        <time>2020-10-19T10:24:36Z</time>
      </trkpt>
      <trkpt lat="42.8430400" lon="-7.7416260">
        <ele>702.0</ele>
        <time>2020-10-19T10:24:37Z</time>
      </trkpt>
      <trkpt lat="42.8430450" lon="-7.7416400">
        <ele>702.0</ele>
        <time>2020-10-19T10:24:38Z</time>
      </trkpt>
      <trkpt lat="42.8430500" lon="-7.7416540">
        <ele>702.0</ele>
        <time>2020-10-19T10:24:39Z</time>
      </trkpt>
      <trkpt lat="42.8430550" lon="-7.7416690">
        <ele>702.0</ele>
        <time>2020-10-19T10:24:40Z</time>
      </trkpt>
      <trkpt lat="42.8430610" lon="-7.7416830">
        <ele>702.0</ele>
        <time>2020-10-19T10:24:41Z</time>
      </trkpt>
      <trkpt lat="42.8430670" lon="-7.7416970">
        <ele>701.9</ele>
        <time>2020-10-19T10:24:42Z</time>
      </trkpt>
      <trkpt lat="42.8430730" lon="-7.7417120">
        <ele>701.9</ele>
        <time>2020-10-19T10:24:43Z</time>
      </trkpt>
      <trkpt lat="42.8430800" lon="-7.7417260">
        <ele>701.9</ele>
        <time>2020-10-19T10:24:44Z</time>
      </trkpt>
      <trkpt lat="42.8430870" lon="-7.7417410">
        <ele>701.9</ele>
        <time>2020-10-19T10:24:45Z</time>
      </trkpt>
      <trkpt lat="42.8430930" lon="-7.7417560">
        <ele>701.9</ele>
        <time>2020-10-19T10:24:46Z</time>
      </trkpt>
      <trkpt lat="42.8430980" lon="-7.7417710">
        <ele>701.9</ele>
        <time>2020-10-19T10:24:47Z</time>
      </trkpt>
      <trkpt lat="42.8431040" lon="-7.7417860">
        <ele>701.9</ele>
        <time>2020-10-19T10:24:48Z</time>
      </trkpt>
      <trkpt lat="42.8431090" lon="-7.7418010">
        <ele>701.8</ele>
        <time>2020-10-19T10:24:49Z</time>
      </trkpt>
      <trkpt lat="42.8431150" lon="-7.7418170">
        <ele>701.8</ele>
        <time>2020-10-19T10:24:50Z</time>
      </trkpt>
      <trkpt lat="42.8431200" lon="-7.7418320">
        <ele>701.8</ele>
        <time>2020-10-19T10:24:51Z</time>
      </trkpt>
      <trkpt lat="42.8431240" lon="-7.7418470">
        <ele>701.8</ele>
        <time>2020-10-19T10:24:52Z</time>
      </trkpt>
      <trkpt lat="42.8431280" lon="-7.7418620">
        <ele>701.8</ele>
        <time>2020-10-19T10:24:53Z</time>
      </trkpt>
      <trkpt lat="42.8431330" lon="-7.7418760">
        <ele>701.8</ele>
        <time>2020-10-19T10:24:54Z</time>
      </trkpt>
      <trkpt lat="42.8431380" lon="-7.7418920">
        <ele>701.8</ele>
        <time>2020-10-19T10:24:55Z</time>
      </trkpt>
      <trkpt lat="42.8431430" lon="-7.7419080">
        <ele>701.8</ele>
        <time>2020-10-19T10:24:56Z</time>
      </trkpt>
      <trkpt lat="42.8431490" lon="-7.7419240">
        <ele>701.8</ele>
        <time>2020-10-19T10:24:57Z</time>
      </trkpt>
      <trkpt lat="42.8431540" lon="-7.7419400">
        <ele>701.7</ele>
        <time>2020-10-19T10:24:58Z</time>
      </trkpt>
      <trkpt lat="42.8431590" lon="-7.7419570">
        <ele>701.7</ele>
        <time>2020-10-19T10:24:59Z</time>
      </trkpt>
      <trkpt lat="42.8431630" lon="-7.7419730">
        <ele>701.7</ele>
        <time>2020-10-19T10:25:00Z</time>
      </trkpt>
      <trkpt lat="42.8431680" lon="-7.7419880">
        <ele>701.7</ele>
        <time>2020-10-19T10:25:01Z</time>
      </trkpt>
      <trkpt lat="42.8431730" lon="-7.7420030">
        <ele>701.7</ele>
        <time>2020-10-19T10:25:02Z</time>
      </trkpt>
      <trkpt lat="42.8431780" lon="-7.7420190">
        <ele>701.7</ele>
        <time>2020-10-19T10:25:03Z</time>
      </trkpt>
      <trkpt lat="42.8431820" lon="-7.7420350">
        <ele>701.7</ele>
        <time>2020-10-19T10:25:04Z</time>
      </trkpt>
      <trkpt lat="42.8431860" lon="-7.7420510">
        <ele>701.7</ele>
        <time>2020-10-19T10:25:05Z</time>
      </trkpt>
      <trkpt lat="42.8431890" lon="-7.7420670">
        <ele>701.7</ele>
        <time>2020-10-19T10:25:06Z</time>
      </trkpt>
      <trkpt lat="42.8431920" lon="-7.7420830">
        <ele>701.7</ele>
        <time>2020-10-19T10:25:07Z</time>
      </trkpt>
      <trkpt lat="42.8431940" lon="-7.7421000">
        <ele>701.7</ele>
        <time>2020-10-19T10:25:08Z</time>
      </trkpt>
      <trkpt lat="42.8431970" lon="-7.7421170">
        <ele>701.7</ele>
        <time>2020-10-19T10:25:09Z</time>
      </trkpt>
      <trkpt lat="42.8431990" lon="-7.7421340">
        <ele>701.7</ele>
        <time>2020-10-19T10:25:10Z</time>
      </trkpt>
      <trkpt lat="42.8432010" lon="-7.7421500">
        <ele>701.7</ele>
        <time>2020-10-19T10:25:11Z</time>
      </trkpt>
      <trkpt lat="42.8432030" lon="-7.7421670">
        <ele>701.7</ele>
        <time>2020-10-19T10:25:12Z</time>
      </trkpt>
      <trkpt lat="42.8432040" lon="-7.7421830">
        <ele>701.7</ele>
        <time>2020-10-19T10:25:13Z</time>
      </trkpt>
      <trkpt lat="42.8432040" lon="-7.7421990">
        <ele>701.7</ele>
        <time>2020-10-19T10:25:14Z</time>
      </trkpt>
      <trkpt lat="42.8432050" lon="-7.7422150">
        <ele>701.7</ele>
        <time>2020-10-19T10:25:15Z</time>
      </trkpt>
      <trkpt lat="42.8432060" lon="-7.7422320">
        <ele>701.7</ele>
        <time>2020-10-19T10:25:16Z</time>
      </trkpt>
      <trkpt lat="42.8432080" lon="-7.7422490">
        <ele>701.7</ele>
        <time>2020-10-19T10:25:17Z</time>
      </trkpt>
      <trkpt lat="42.8432090" lon="-7.7422660">
        <ele>701.7</ele>
        <time>2020-10-19T10:25:18Z</time>
      </trkpt>
      <trkpt lat="42.8432100" lon="-7.7422830">
        <ele>701.7</ele>
        <time>2020-10-19T10:25:19Z</time>
      </trkpt>
      <trkpt lat="42.8432110" lon="-7.7423000">
        <ele>701.7</ele>
        <time>2020-10-19T10:25:20Z</time>
      </trkpt>
      <trkpt lat="42.8432120" lon="-7.7423170">
        <ele>701.7</ele>
        <time>2020-10-19T10:25:21Z</time>
      </trkpt>
      <trkpt lat="42.8432120" lon="-7.7423340">
        <ele>701.7</ele>
        <time>2020-10-19T10:25:22Z</time>
      </trkpt>
      <trkpt lat="42.8432130" lon="-7.7423510">
        <ele>701.7</ele>
        <time>2020-10-19T10:25:23Z</time>
      </trkpt>
      <trkpt lat="42.8432130" lon="-7.7423680">
        <ele>701.7</ele>
        <time>2020-10-19T10:25:24Z</time>
      </trkpt>
      <trkpt lat="42.8432140" lon="-7.7423850">
        <ele>701.7</ele>
        <time>2020-10-19T10:25:25Z</time>
      </trkpt>
      <trkpt lat="42.8432150" lon="-7.7424020">
        <ele>701.7</ele>
        <time>2020-10-19T10:25:26Z</time>
      </trkpt>
      <trkpt lat="42.8432160" lon="-7.7424180">
        <ele>701.7</ele>
        <time>2020-10-19T10:25:27Z</time>
      </trkpt>
      <trkpt lat="42.8432180" lon="-7.7424340">
        <ele>701.7</ele>
        <time>2020-10-19T10:25:28Z</time>
      </trkpt>
      <trkpt lat="42.8432200" lon="-7.7424510">
        <ele>701.7</ele>
        <time>2020-10-19T10:25:29Z</time>
      </trkpt>
      <trkpt lat="42.8432220" lon="-7.7424680">
        <ele>701.7</ele>
        <time>2020-10-19T10:25:30Z</time>
      </trkpt>
      <trkpt lat="42.8432230" lon="-7.7424850">
        <ele>701.7</ele>
        <time>2020-10-19T10:25:31Z</time>
      </trkpt>
      <trkpt lat="42.8432240" lon="-7.7425020">
        <ele>701.7</ele>
        <time>2020-10-19T10:25:32Z</time>
      </trkpt>
      <trkpt lat="42.8432250" lon="-7.7425180">
        <ele>701.7</ele>
        <time>2020-10-19T10:25:33Z</time>
      </trkpt>
      <trkpt lat="42.8432260" lon="-7.7425340">
        <ele>701.7</ele>
        <time>2020-10-19T10:25:34Z</time>
      </trkpt>
      <trkpt lat="42.8432280" lon="-7.7425500">
        <ele>701.7</ele>
        <time>2020-10-19T10:25:35Z</time>
      </trkpt>
      <trkpt lat="42.8432290" lon="-7.7425670">
        <ele>701.7</ele>
        <time>2020-10-19T10:25:36Z</time>
      </trkpt>
      <trkpt lat="42.8432300" lon="-7.7425840">
        <ele>701.7</ele>
        <time>2020-10-19T10:25:37Z</time>
      </trkpt>
      <trkpt lat="42.8432310" lon="-7.7426010">
        <ele>701.7</ele>
        <time>2020-10-19T10:25:38Z</time>
      </trkpt>
      <trkpt lat="42.8432310" lon="-7.7426190">
        <ele>701.7</ele>
        <time>2020-10-19T10:25:39Z</time>
      </trkpt>
      <trkpt lat="42.8432320" lon="-7.7426360">
        <ele>701.7</ele>
        <time>2020-10-19T10:25:40Z</time>
      </trkpt>
      <trkpt lat="42.8432330" lon="-7.7426520">
        <ele>701.8</ele>
        <time>2020-10-19T10:25:41Z</time>
      </trkpt>
      <trkpt lat="42.8432340" lon="-7.7426690">
        <ele>701.8</ele>
        <time>2020-10-19T10:25:42Z</time>
      </trkpt>
      <trkpt lat="42.8432350" lon="-7.7426870">
        <ele>701.8</ele>
        <time>2020-10-19T10:25:43Z</time>
      </trkpt>
      <trkpt lat="42.8432350" lon="-7.7427050">
        <ele>701.8</ele>
        <time>2020-10-19T10:25:44Z</time>
      </trkpt>
      <trkpt lat="42.8432360" lon="-7.7427220">
        <ele>701.8</ele>
        <time>2020-10-19T10:25:45Z</time>
      </trkpt>
      <trkpt lat="42.8432370" lon="-7.7427390">
        <ele>701.8</ele>
        <time>2020-10-19T10:25:46Z</time>
      </trkpt>
      <trkpt lat="42.8432390" lon="-7.7427560">
        <ele>701.8</ele>
        <time>2020-10-19T10:25:47Z</time>
      </trkpt>
      <trkpt lat="42.8432400" lon="-7.7427740">
        <ele>701.8</ele>
        <time>2020-10-19T10:25:48Z</time>
      </trkpt>
      <trkpt lat="42.8432410" lon="-7.7427900">
        <ele>701.8</ele>
        <time>2020-10-19T10:25:49Z</time>
      </trkpt>
      <trkpt lat="42.8432420" lon="-7.7428070">
        <ele>701.8</ele>
        <time>2020-10-19T10:25:50Z</time>
      </trkpt>
      <trkpt lat="42.8432430" lon="-7.7428230">
        <ele>701.8</ele>
        <time>2020-10-19T10:25:51Z</time>
      </trkpt>
      <trkpt lat="42.8432440" lon="-7.7428400">
        <ele>701.8</ele>
        <time>2020-10-19T10:25:52Z</time>
      </trkpt>
      <trkpt lat="42.8432450" lon="-7.7428570">
        <ele>701.8</ele>
        <time>2020-10-19T10:25:53Z</time>
      </trkpt>
      <trkpt lat="42.8432460" lon="-7.7428740">
        <ele>701.8</ele>
        <time>2020-10-19T10:25:54Z</time>
      </trkpt>
      <trkpt lat="42.8432480" lon="-7.7428900">
        <ele>701.8</ele>
        <time>2020-10-19T10:25:55Z</time>
      </trkpt>
      <trkpt lat="42.8432480" lon="-7.7429070">
        <ele>701.9</ele>
        <time>2020-10-19T10:25:56Z</time>
      </trkpt>
      <trkpt lat="42.8432480" lon="-7.7429250">
        <ele>701.9</ele>
        <time>2020-10-19T10:25:57Z</time>
      </trkpt>
      <trkpt lat="42.8432480" lon="-7.7429430">
        <ele>701.9</ele>
        <time>2020-10-19T10:25:58Z</time>
      </trkpt>
      <trkpt lat="42.8432490" lon="-7.7429600">
        <ele>701.9</ele>
        <time>2020-10-19T10:25:59Z</time>
      </trkpt>
      <trkpt lat="42.8432510" lon="-7.7429760">
        <ele>701.9</ele>
        <time>2020-10-19T10:26:00Z</time>
      </trkpt>
      <trkpt lat="42.8432520" lon="-7.7429930">
        <ele>701.9</ele>
        <time>2020-10-19T10:26:01Z</time>
      </trkpt>
      <trkpt lat="42.8432530" lon="-7.7430090">
        <ele>701.9</ele>
        <time>2020-10-19T10:26:02Z</time>
      </trkpt>
      <trkpt lat="42.8432550" lon="-7.7430260">
        <ele>701.9</ele>
        <time>2020-10-19T10:26:03Z</time>
      </trkpt>
      <trkpt lat="42.8432570" lon="-7.7430430">
        <ele>701.9</ele>
        <time>2020-10-19T10:26:04Z</time>
      </trkpt>
      <trkpt lat="42.8432590" lon="-7.7430590">
        <ele>701.9</ele>
        <time>2020-10-19T10:26:05Z</time>
      </trkpt>
      <trkpt lat="42.8432600" lon="-7.7430750">
        <ele>702.0</ele>
        <time>2020-10-19T10:26:06Z</time>
      </trkpt>
      <trkpt lat="42.8432620" lon="-7.7430920">
        <ele>702.0</ele>
        <time>2020-10-19T10:26:07Z</time>
      </trkpt>
      <trkpt lat="42.8432630" lon="-7.7431080">
        <ele>702.0</ele>
        <time>2020-10-19T10:26:08Z</time>
      </trkpt>
      <trkpt lat="42.8432650" lon="-7.7431260">
        <ele>702.0</ele>
        <time>2020-10-19T10:26:09Z</time>
      </trkpt>
      <trkpt lat="42.8432660" lon="-7.7431430">
        <ele>702.0</ele>
        <time>2020-10-19T10:26:10Z</time>
      </trkpt>
      <trkpt lat="42.8432680" lon="-7.7431600">
        <ele>702.0</ele>
        <time>2020-10-19T10:26:11Z</time>
      </trkpt>
      <trkpt lat="42.8432690" lon="-7.7431760">
        <ele>702.0</ele>
        <time>2020-10-19T10:26:12Z</time>
      </trkpt>
      <trkpt lat="42.8432710" lon="-7.7431930">
        <ele>702.1</ele>
        <time>2020-10-19T10:26:13Z</time>
      </trkpt>
      <trkpt lat="42.8432720" lon="-7.7432100">
        <ele>702.1</ele>
        <time>2020-10-19T10:26:14Z</time>
      </trkpt>
      <trkpt lat="42.8432740" lon="-7.7432270">
        <ele>702.1</ele>
        <time>2020-10-19T10:26:15Z</time>
      </trkpt>
      <trkpt lat="42.8432760" lon="-7.7432440">
        <ele>702.1</ele>
        <time>2020-10-19T10:26:16Z</time>
      </trkpt>
      <trkpt lat="42.8432770" lon="-7.7432600">
        <ele>702.1</ele>
        <time>2020-10-19T10:26:17Z</time>
      </trkpt>
      <trkpt lat="42.8432800" lon="-7.7432760">
        <ele>702.2</ele>
        <time>2020-10-19T10:26:18Z</time>
      </trkpt>
      <trkpt lat="42.8432810" lon="-7.7432920">
        <ele>702.2</ele>
        <time>2020-10-19T10:26:19Z</time>
      </trkpt>
      <trkpt lat="42.8432820" lon="-7.7433080">
        <ele>702.2</ele>
        <time>2020-10-19T10:26:20Z</time>
      </trkpt>
      <trkpt lat="42.8432820" lon="-7.7433250">
        <ele>702.2</ele>
        <time>2020-10-19T10:26:21Z</time>
      </trkpt>
      <trkpt lat="42.8432820" lon="-7.7433420">
        <ele>702.2</ele>
        <time>2020-10-19T10:26:22Z</time>
      </trkpt>
      <trkpt lat="42.8432840" lon="-7.7433600">
        <ele>702.2</ele>
        <time>2020-10-19T10:26:23Z</time>
      </trkpt>
      <trkpt lat="42.8432850" lon="-7.7433770">
        <ele>702.3</ele>
        <time>2020-10-19T10:26:24Z</time>
      </trkpt>
      <trkpt lat="42.8432860" lon="-7.7433940">
        <ele>702.3</ele>
        <time>2020-10-19T10:26:25Z</time>
      </trkpt>
      <trkpt lat="42.8432860" lon="-7.7434110">
        <ele>702.3</ele>
        <time>2020-10-19T10:26:26Z</time>
      </trkpt>
      <trkpt lat="42.8432860" lon="-7.7434280">
        <ele>702.3</ele>
        <time>2020-10-19T10:26:27Z</time>
      </trkpt>
      <trkpt lat="42.8432870" lon="-7.7434440">
        <ele>702.3</ele>
        <time>2020-10-19T10:26:28Z</time>
      </trkpt>
      <trkpt lat="42.8432890" lon="-7.7434600">
        <ele>702.4</ele>
        <time>2020-10-19T10:26:29Z</time>
      </trkpt>
      <trkpt lat="42.8432920" lon="-7.7434760">
        <ele>702.4</ele>
        <time>2020-10-19T10:26:30Z</time>
      </trkpt>
      <trkpt lat="42.8432950" lon="-7.7434940">
        <ele>702.4</ele>
        <time>2020-10-19T10:26:31Z</time>
      </trkpt>
      <trkpt lat="42.8432970" lon="-7.7435130">
        <ele>702.4</ele>
        <time>2020-10-19T10:26:32Z</time>
      </trkpt>
      <trkpt lat="42.8432980" lon="-7.7435320">
        <ele>702.4</ele>
        <time>2020-10-19T10:26:33Z</time>
      </trkpt>
      <trkpt lat="42.8433000" lon="-7.7435490">
        <ele>702.5</ele>
        <time>2020-10-19T10:26:34Z</time>
      </trkpt>
      <trkpt lat="42.8433010" lon="-7.7435660">
        <ele>702.5</ele>
        <time>2020-10-19T10:26:35Z</time>
      </trkpt>
      <trkpt lat="42.8433030" lon="-7.7435810">
        <ele>702.5</ele>
        <time>2020-10-19T10:26:36Z</time>
      </trkpt>
      <trkpt lat="42.8433050" lon="-7.7435960">
        <ele>702.5</ele>
        <time>2020-10-19T10:26:37Z</time>
      </trkpt>
      <trkpt lat="42.8433080" lon="-7.7436130">
        <ele>702.5</ele>
        <time>2020-10-19T10:26:38Z</time>
      </trkpt>
      <trkpt lat="42.8433090" lon="-7.7436320">
        <ele>702.5</ele>
        <time>2020-10-19T10:26:39Z</time>
      </trkpt>
      <trkpt lat="42.8433090" lon="-7.7436510">
        <ele>702.6</ele>
        <time>2020-10-19T10:26:40Z</time>
      </trkpt>
      <trkpt lat="42.8433080" lon="-7.7436690">
        <ele>702.6</ele>
        <time>2020-10-19T10:26:41Z</time>
      </trkpt>
      <trkpt lat="42.8433080" lon="-7.7436870">
        <ele>702.6</ele>
        <time>2020-10-19T10:26:42Z</time>
      </trkpt>
      <trkpt lat="42.8433090" lon="-7.7437060">
        <ele>702.6</ele>
        <time>2020-10-19T10:26:43Z</time>
      </trkpt>
      <trkpt lat="42.8433090" lon="-7.7437250">
        <ele>702.6</ele>
        <time>2020-10-19T10:26:44Z</time>
      </trkpt>
      <trkpt lat="42.8433110" lon="-7.7437430">
        <ele>702.6</ele>
        <time>2020-10-19T10:26:45Z</time>
      </trkpt>
      <trkpt lat="42.8433130" lon="-7.7437600">
        <ele>702.7</ele>
        <time>2020-10-19T10:26:46Z</time>
      </trkpt>
      <trkpt lat="42.8433160" lon="-7.7437780">
        <ele>702.7</ele>
        <time>2020-10-19T10:26:47Z</time>
      </trkpt>
      <trkpt lat="42.8433170" lon="-7.7437950">
        <ele>702.7</ele>
        <time>2020-10-19T10:26:48Z</time>
      </trkpt>
      <trkpt lat="42.8433170" lon="-7.7438120">
        <ele>702.7</ele>
        <time>2020-10-19T10:26:49Z</time>
      </trkpt>
      <trkpt lat="42.8433170" lon="-7.7438290">
        <ele>702.7</ele>
        <time>2020-10-19T10:26:50Z</time>
      </trkpt>
      <trkpt lat="42.8433180" lon="-7.7438470">
        <ele>702.8</ele>
        <time>2020-10-19T10:26:51Z</time>
      </trkpt>
      <trkpt lat="42.8433190" lon="-7.7438650">
        <ele>702.8</ele>
        <time>2020-10-19T10:26:52Z</time>
      </trkpt>
      <trkpt lat="42.8433210" lon="-7.7438840">
        <ele>702.8</ele>
        <time>2020-10-19T10:26:53Z</time>
      </trkpt>
      <trkpt lat="42.8433230" lon="-7.7439020">
        <ele>702.8</ele>
        <time>2020-10-19T10:26:54Z</time>
      </trkpt>
      <trkpt lat="42.8433240" lon="-7.7439200">
        <ele>702.8</ele>
        <time>2020-10-19T10:26:55Z</time>
      </trkpt>
      <trkpt lat="42.8433250" lon="-7.7439380">
        <ele>702.8</ele>
        <time>2020-10-19T10:26:56Z</time>
      </trkpt>
      <trkpt lat="42.8433260" lon="-7.7439560">
        <ele>702.9</ele>
        <time>2020-10-19T10:26:57Z</time>
      </trkpt>
      <trkpt lat="42.8433280" lon="-7.7439750">
        <ele>702.9</ele>
        <time>2020-10-19T10:26:58Z</time>
      </trkpt>
      <trkpt lat="42.8433290" lon="-7.7439930">
        <ele>702.9</ele>
        <time>2020-10-19T10:26:59Z</time>
      </trkpt>
      <trkpt lat="42.8433320" lon="-7.7440100">
        <ele>702.9</ele>
        <time>2020-10-19T10:27:00Z</time>
      </trkpt>
      <trkpt lat="42.8433350" lon="-7.7440280">
        <ele>702.9</ele>
        <time>2020-10-19T10:27:01Z</time>
      </trkpt>
      <trkpt lat="42.8433370" lon="-7.7440460">
        <ele>703.0</ele>
        <time>2020-10-19T10:27:02Z</time>
      </trkpt>
      <trkpt lat="42.8433400" lon="-7.7440630">
        <ele>703.0</ele>
        <time>2020-10-19T10:27:03Z</time>
      </trkpt>
      <trkpt lat="42.8433410" lon="-7.7440790">
        <ele>703.0</ele>
        <time>2020-10-19T10:27:04Z</time>
      </trkpt>
      <trkpt lat="42.8433420" lon="-7.7440920">
        <ele>703.0</ele>
        <time>2020-10-19T10:27:05Z</time>
      </trkpt>
      <trkpt lat="42.8433420" lon="-7.7440980">
        <ele>703.0</ele>
        <time>2020-10-19T10:27:06Z</time>
      </trkpt>
      <trkpt lat="42.8433410" lon="-7.7441000">
        <ele>703.0</ele>
        <time>2020-10-19T10:27:07Z</time>
      </trkpt>
      <trkpt lat="42.8433400" lon="-7.7441000">
        <ele>703.0</ele>
        <time>2020-10-19T10:27:08Z</time>
      </trkpt>
      <trkpt lat="42.8433410" lon="-7.7441010">
        <ele>703.0</ele>
        <time>2020-10-19T10:27:09Z</time>
      </trkpt>
      <trkpt lat="42.8433410" lon="-7.7441050">
        <ele>703.0</ele>
        <time>2020-10-19T10:27:10Z</time>
      </trkpt>
      <trkpt lat="42.8433410" lon="-7.7441150">
        <ele>703.0</ele>
        <time>2020-10-19T10:27:11Z</time>
      </trkpt>
      <trkpt lat="42.8433410" lon="-7.7441290">
        <ele>703.0</ele>
        <time>2020-10-19T10:27:12Z</time>
      </trkpt>
      <trkpt lat="42.8433420" lon="-7.7441460">
        <ele>703.1</ele>
        <time>2020-10-19T10:27:13Z</time>
      </trkpt>
      <trkpt lat="42.8433430" lon="-7.7441640">
        <ele>703.1</ele>
        <time>2020-10-19T10:27:14Z</time>
      </trkpt>
      <trkpt lat="42.8433450" lon="-7.7441820">
        <ele>703.1</ele>
        <time>2020-10-19T10:27:15Z</time>
      </trkpt>
      <trkpt lat="42.8433470" lon="-7.7441990">
        <ele>703.1</ele>
        <time>2020-10-19T10:27:16Z</time>
      </trkpt>
      <trkpt lat="42.8433490" lon="-7.7442170">
        <ele>703.1</ele>
        <time>2020-10-19T10:27:17Z</time>
      </trkpt>
      <trkpt lat="42.8433500" lon="-7.7442350">
        <ele>703.1</ele>
        <time>2020-10-19T10:27:18Z</time>
      </trkpt>
      <trkpt lat="42.8433510" lon="-7.7442530">
        <ele>703.2</ele>
        <time>2020-10-19T10:27:19Z</time>
      </trkpt>
      <trkpt lat="42.8433520" lon="-7.7442710">
        <ele>703.2</ele>
        <time>2020-10-19T10:27:20Z</time>
      </trkpt>
      <trkpt lat="42.8433520" lon="-7.7442890">
        <ele>703.2</ele>
        <time>2020-10-19T10:27:21Z</time>
      </trkpt>
      <trkpt lat="42.8433530" lon="-7.7443060">
        <ele>703.2</ele>
        <time>2020-10-19T10:27:22Z</time>
      </trkpt>
      <trkpt lat="42.8433550" lon="-7.7443230">
        <ele>703.2</ele>
        <time>2020-10-19T10:27:23Z</time>
      </trkpt>
      <trkpt lat="42.8433560" lon="-7.7443400">
        <ele>703.3</ele>
        <time>2020-10-19T10:27:24Z</time>
      </trkpt>
      <trkpt lat="42.8433580" lon="-7.7443580">
        <ele>703.3</ele>
        <time>2020-10-19T10:27:25Z</time>
      </trkpt>
      <trkpt lat="42.8433590" lon="-7.7443750">
        <ele>703.3</ele>
        <time>2020-10-19T10:27:26Z</time>
      </trkpt>
      <trkpt lat="42.8433610" lon="-7.7443920">
        <ele>703.3</ele>
        <time>2020-10-19T10:27:27Z</time>
      </trkpt>
      <trkpt lat="42.8433620" lon="-7.7444090">
        <ele>703.3</ele>
        <time>2020-10-19T10:27:28Z</time>
      </trkpt>
      <trkpt lat="42.8433640" lon="-7.7444260">
        <ele>703.4</ele>
        <time>2020-10-19T10:27:29Z</time>
      </trkpt>
      <trkpt lat="42.8433650" lon="-7.7444430">
        <ele>703.4</ele>
        <time>2020-10-19T10:27:30Z</time>
      </trkpt>
      <trkpt lat="42.8433660" lon="-7.7444600">
        <ele>703.4</ele>
        <time>2020-10-19T10:27:31Z</time>
      </trkpt>
      <trkpt lat="42.8433670" lon="-7.7444760">
        <ele>703.4</ele>
        <time>2020-10-19T10:27:32Z</time>
      </trkpt>
      <trkpt lat="42.8433670" lon="-7.7444940">
        <ele>703.4</ele>
        <time>2020-10-19T10:27:33Z</time>
      </trkpt>
      <trkpt lat="42.8433680" lon="-7.7445110">
        <ele>703.5</ele>
        <time>2020-10-19T10:27:34Z</time>
      </trkpt>
      <trkpt lat="42.8433670" lon="-7.7445290">
        <ele>703.5</ele>
        <time>2020-10-19T10:27:35Z</time>
      </trkpt>
      <trkpt lat="42.8433680" lon="-7.7445470">
        <ele>703.5</ele>
        <time>2020-10-19T10:27:36Z</time>
      </trkpt>
      <trkpt lat="42.8433690" lon="-7.7445640">
        <ele>703.5</ele>
        <time>2020-10-19T10:27:37Z</time>
      </trkpt>
      <trkpt lat="42.8433700" lon="-7.7445820">
        <ele>703.6</ele>
        <time>2020-10-19T10:27:38Z</time>
      </trkpt>
      <trkpt lat="42.8433720" lon="-7.7445990">
        <ele>703.6</ele>
        <time>2020-10-19T10:27:39Z</time>
      </trkpt>
      <trkpt lat="42.8433740" lon="-7.7446180">
        <ele>703.6</ele>
        <time>2020-10-19T10:27:40Z</time>
      </trkpt>
      <trkpt lat="42.8433750" lon="-7.7446360">
        <ele>703.6</ele>
        <time>2020-10-19T10:27:41Z</time>
      </trkpt>
      <trkpt lat="42.8433770" lon="-7.7446540">
        <ele>703.6</ele>
        <time>2020-10-19T10:27:42Z</time>
      </trkpt>
      <trkpt lat="42.8433780" lon="-7.7446710">
        <ele>703.7</ele>
        <time>2020-10-19T10:27:43Z</time>
      </trkpt>
      <trkpt lat="42.8433790" lon="-7.7446870">
        <ele>703.7</ele>
        <time>2020-10-19T10:27:44Z</time>
      </trkpt>
      <trkpt lat="42.8433800" lon="-7.7447040">
        <ele>703.7</ele>
        <time>2020-10-19T10:27:45Z</time>
      </trkpt>
      <trkpt lat="42.8433810" lon="-7.7447210">
        <ele>703.7</ele>
        <time>2020-10-19T10:27:46Z</time>
      </trkpt>
      <trkpt lat="42.8433830" lon="-7.7447390">
        <ele>703.8</ele>
        <time>2020-10-19T10:27:47Z</time>
      </trkpt>
      <trkpt lat="42.8433840" lon="-7.7447560">
        <ele>703.8</ele>
        <time>2020-10-19T10:27:48Z</time>
      </trkpt>
      <trkpt lat="42.8433860" lon="-7.7447740">
        <ele>703.8</ele>
        <time>2020-10-19T10:27:49Z</time>
      </trkpt>
      <trkpt lat="42.8433870" lon="-7.7447920">
        <ele>703.8</ele>
        <time>2020-10-19T10:27:50Z</time>
      </trkpt>
      <trkpt lat="42.8433880" lon="-7.7448100">
        <ele>703.9</ele>
        <time>2020-10-19T10:27:51Z</time>
      </trkpt>
      <trkpt lat="42.8433900" lon="-7.7448270">
        <ele>703.9</ele>
        <time>2020-10-19T10:27:52Z</time>
      </trkpt>
      <trkpt lat="42.8433920" lon="-7.7448440">
        <ele>703.9</ele>
        <time>2020-10-19T10:27:53Z</time>
      </trkpt>
      <trkpt lat="42.8433950" lon="-7.7448600">
        <ele>703.9</ele>
        <time>2020-10-19T10:27:54Z</time>
      </trkpt>
      <trkpt lat="42.8433970" lon="-7.7448760">
        <ele>704.0</ele>
        <time>2020-10-19T10:27:55Z</time>
      </trkpt>
      <trkpt lat="42.8434000" lon="-7.7448910">
        <ele>704.0</ele>
        <time>2020-10-19T10:27:56Z</time>
      </trkpt>
      <trkpt lat="42.8434020" lon="-7.7449050">
        <ele>704.0</ele>
        <time>2020-10-19T10:27:57Z</time>
      </trkpt>
      <trkpt lat="42.8434050" lon="-7.7449170">
        <ele>704.0</ele>
        <time>2020-10-19T10:27:58Z</time>
      </trkpt>
      <trkpt lat="42.8434060" lon="-7.7449280">
        <ele>704.1</ele>
        <time>2020-10-19T10:27:59Z</time>
      </trkpt>
      <trkpt lat="42.8434060" lon="-7.7449390">
        <ele>704.1</ele>
        <time>2020-10-19T10:28:00Z</time>
      </trkpt>
      <trkpt lat="42.8434060" lon="-7.7449510">
        <ele>704.1</ele>
        <time>2020-10-19T10:28:01Z</time>
      </trkpt>
      <trkpt lat="42.8434080" lon="-7.7449650">
        <ele>704.1</ele>
        <time>2020-10-19T10:28:02Z</time>
      </trkpt>
      <trkpt lat="42.8434110" lon="-7.7449820">
        <ele>704.1</ele>
        <time>2020-10-19T10:28:03Z</time>
      </trkpt>
      <trkpt lat="42.8434150" lon="-7.7449990">
        <ele>704.2</ele>
        <time>2020-10-19T10:28:04Z</time>
      </trkpt>
      <trkpt lat="42.8434180" lon="-7.7450180">
        <ele>704.2</ele>
        <time>2020-10-19T10:28:05Z</time>
      </trkpt>
      <trkpt lat="42.8434210" lon="-7.7450340">
        <ele>704.2</ele>
        <time>2020-10-19T10:28:06Z</time>
      </trkpt>
      <trkpt lat="42.8434230" lon="-7.7450490">
        <ele>704.3</ele>
        <time>2020-10-19T10:28:07Z</time>
      </trkpt>
      <trkpt lat="42.8434250" lon="-7.7450660">
        <ele>704.3</ele>
        <time>2020-10-19T10:28:08Z</time>
      </trkpt>
      <trkpt lat="42.8434260" lon="-7.7450840">
        <ele>704.3</ele>
        <time>2020-10-19T10:28:09Z</time>
      </trkpt>
      <trkpt lat="42.8434270" lon="-7.7451030">
        <ele>704.3</ele>
        <time>2020-10-19T10:28:10Z</time>
      </trkpt>
      <trkpt lat="42.8434270" lon="-7.7451210">
        <ele>704.4</ele>
        <time>2020-10-19T10:28:11Z</time>
      </trkpt>
      <trkpt lat="42.8434270" lon="-7.7451390">
        <ele>704.4</ele>
        <time>2020-10-19T10:28:12Z</time>
      </trkpt>
      <trkpt lat="42.8434290" lon="-7.7451550">
        <ele>704.4</ele>
        <time>2020-10-19T10:28:13Z</time>
      </trkpt>
      <trkpt lat="42.8434310" lon="-7.7451720">
        <ele>704.4</ele>
        <time>2020-10-19T10:28:14Z</time>
      </trkpt>
      <trkpt lat="42.8434330" lon="-7.7451890">
        <ele>704.5</ele>
        <time>2020-10-19T10:28:15Z</time>
      </trkpt>
      <trkpt lat="42.8434350" lon="-7.7452050">
        <ele>704.5</ele>
        <time>2020-10-19T10:28:16Z</time>
      </trkpt>
      <trkpt lat="42.8434380" lon="-7.7452210">
        <ele>704.5</ele>
        <time>2020-10-19T10:28:17Z</time>
      </trkpt>
      <trkpt lat="42.8434410" lon="-7.7452380">
        <ele>704.5</ele>
        <time>2020-10-19T10:28:18Z</time>
      </trkpt>
      <trkpt lat="42.8434420" lon="-7.7452570">
        <ele>704.5</ele>
        <time>2020-10-19T10:28:19Z</time>
      </trkpt>
      <trkpt lat="42.8434430" lon="-7.7452760">
        <ele>704.6</ele>
        <time>2020-10-19T10:28:20Z</time>
      </trkpt>
      <trkpt lat="42.8434450" lon="-7.7452940">
        <ele>704.6</ele>
        <time>2020-10-19T10:28:21Z</time>
      </trkpt>
      <trkpt lat="42.8434450" lon="-7.7453120">
        <ele>704.6</ele>
        <time>2020-10-19T10:28:22Z</time>
      </trkpt>
      <trkpt lat="42.8434460" lon="-7.7453300">
        <ele>704.6</ele>
        <time>2020-10-19T10:28:23Z</time>
      </trkpt>
      <trkpt lat="42.8434460" lon="-7.7453480">
        <ele>704.6</ele>
        <time>2020-10-19T10:28:24Z</time>
      </trkpt>
      <trkpt lat="42.8434480" lon="-7.7453650">
        <ele>704.6</ele>
        <time>2020-10-19T10:28:25Z</time>
      </trkpt>
      <trkpt lat="42.8434500" lon="-7.7453820">
        <ele>704.6</ele>
        <time>2020-10-19T10:28:26Z</time>
      </trkpt>
      <trkpt lat="42.8434520" lon="-7.7454000">
        <ele>704.6</ele>
        <time>2020-10-19T10:28:27Z</time>
      </trkpt>
      <trkpt lat="42.8434550" lon="-7.7454170">
        <ele>704.6</ele>
        <time>2020-10-19T10:28:28Z</time>
      </trkpt>
      <trkpt lat="42.8434580" lon="-7.7454340">
        <ele>704.6</ele>
        <time>2020-10-19T10:28:29Z</time>
      </trkpt>
      <trkpt lat="42.8434600" lon="-7.7454510">
        <ele>704.7</ele>
        <time>2020-10-19T10:28:30Z</time>
      </trkpt>
      <trkpt lat="42.8434620" lon="-7.7454670">
        <ele>704.6</ele>
        <time>2020-10-19T10:28:31Z</time>
      </trkpt>
      <trkpt lat="42.8434650" lon="-7.7454830">
        <ele>704.6</ele>
        <time>2020-10-19T10:28:32Z</time>
      </trkpt>
      <trkpt lat="42.8434680" lon="-7.7455000">
        <ele>704.6</ele>
        <time>2020-10-19T10:28:33Z</time>
      </trkpt>
      <trkpt lat="42.8434720" lon="-7.7455170">
        <ele>704.6</ele>
        <time>2020-10-19T10:28:34Z</time>
      </trkpt>
      <trkpt lat="42.8434750" lon="-7.7455350">
        <ele>704.6</ele>
        <time>2020-10-19T10:28:35Z</time>
      </trkpt>
      <trkpt lat="42.8434780" lon="-7.7455530">
        <ele>704.6</ele>
        <time>2020-10-19T10:28:36Z</time>
      </trkpt>
      <trkpt lat="42.8434810" lon="-7.7455700">
        <ele>704.6</ele>
        <time>2020-10-19T10:28:37Z</time>
      </trkpt>
      <trkpt lat="42.8434840" lon="-7.7455860">
        <ele>704.6</ele>
        <time>2020-10-19T10:28:38Z</time>
      </trkpt>
      <trkpt lat="42.8434860" lon="-7.7456020">
        <ele>704.6</ele>
        <time>2020-10-19T10:28:39Z</time>
      </trkpt>
      <trkpt lat="42.8434890" lon="-7.7456190">
        <ele>704.6</ele>
        <time>2020-10-19T10:28:40Z</time>
      </trkpt>
      <trkpt lat="42.8434910" lon="-7.7456350">
        <ele>704.6</ele>
        <time>2020-10-19T10:28:41Z</time>
      </trkpt>
      <trkpt lat="42.8434950" lon="-7.7456520">
        <ele>704.6</ele>
        <time>2020-10-19T10:28:42Z</time>
      </trkpt>
      <trkpt lat="42.8434980" lon="-7.7456700">
        <ele>704.6</ele>
        <time>2020-10-19T10:28:43Z</time>
      </trkpt>
      <trkpt lat="42.8435000" lon="-7.7456860">
        <ele>704.6</ele>
        <time>2020-10-19T10:28:44Z</time>
      </trkpt>
      <trkpt lat="42.8435030" lon="-7.7457020">
        <ele>704.6</ele>
        <time>2020-10-19T10:28:45Z</time>
      </trkpt>
      <trkpt lat="42.8435040" lon="-7.7457180">
        <ele>704.6</ele>
        <time>2020-10-19T10:28:46Z</time>
      </trkpt>
      <trkpt lat="42.8435060" lon="-7.7457340">
        <ele>704.6</ele>
        <time>2020-10-19T10:28:47Z</time>
      </trkpt>
      <trkpt lat="42.8435080" lon="-7.7457500">
        <ele>704.5</ele>
        <time>2020-10-19T10:28:48Z</time>
      </trkpt>
      <trkpt lat="42.8435100" lon="-7.7457660">
        <ele>704.5</ele>
        <time>2020-10-19T10:28:49Z</time>
      </trkpt>
      <trkpt lat="42.8435130" lon="-7.7457820">
        <ele>704.5</ele>
        <time>2020-10-19T10:28:50Z</time>
      </trkpt>
      <trkpt lat="42.8435150" lon="-7.7457990">
        <ele>704.5</ele>
        <time>2020-10-19T10:28:51Z</time>
      </trkpt>
      <trkpt lat="42.8435150" lon="-7.7458160">
        <ele>704.5</ele>
        <time>2020-10-19T10:28:52Z</time>
      </trkpt>
      <trkpt lat="42.8435160" lon="-7.7458330">
        <ele>704.5</ele>
        <time>2020-10-19T10:28:53Z</time>
      </trkpt>
      <trkpt lat="42.8435170" lon="-7.7458500">
        <ele>704.5</ele>
        <time>2020-10-19T10:28:54Z</time>
      </trkpt>
      <trkpt lat="42.8435200" lon="-7.7458670">
        <ele>704.4</ele>
        <time>2020-10-19T10:28:55Z</time>
      </trkpt>
      <trkpt lat="42.8435230" lon="-7.7458840">
        <ele>704.4</ele>
        <time>2020-10-19T10:28:56Z</time>
      </trkpt>
      <trkpt lat="42.8435260" lon="-7.7459010">
        <ele>704.4</ele>
        <time>2020-10-19T10:28:57Z</time>
      </trkpt>
      <trkpt lat="42.8435280" lon="-7.7459180">
        <ele>704.4</ele>
        <time>2020-10-19T10:28:58Z</time>
      </trkpt>
      <trkpt lat="42.8435300" lon="-7.7459350">
        <ele>704.4</ele>
        <time>2020-10-19T10:28:59Z</time>
      </trkpt>
      <trkpt lat="42.8435320" lon="-7.7459510">
        <ele>704.3</ele>
        <time>2020-10-19T10:29:00Z</time>
      </trkpt>
      <trkpt lat="42.8435360" lon="-7.7459680">
        <ele>704.3</ele>
        <time>2020-10-19T10:29:01Z</time>
      </trkpt>
      <trkpt lat="42.8435400" lon="-7.7459840">
        <ele>704.3</ele>
        <time>2020-10-19T10:29:02Z</time>
      </trkpt>
      <trkpt lat="42.8435450" lon="-7.7460000">
        <ele>704.3</ele>
        <time>2020-10-19T10:29:03Z</time>
      </trkpt>
      <trkpt lat="42.8435470" lon="-7.7460180">
        <ele>704.3</ele>
        <time>2020-10-19T10:29:04Z</time>
      </trkpt>
      <trkpt lat="42.8435490" lon="-7.7460380">
        <ele>704.3</ele>
        <time>2020-10-19T10:29:05Z</time>
      </trkpt>
      <trkpt lat="42.8435510" lon="-7.7460560">
        <ele>704.2</ele>
        <time>2020-10-19T10:29:06Z</time>
      </trkpt>
      <trkpt lat="42.8435540" lon="-7.7460740">
        <ele>704.2</ele>
        <time>2020-10-19T10:29:07Z</time>
      </trkpt>
      <trkpt lat="42.8435570" lon="-7.7460890">
        <ele>704.2</ele>
        <time>2020-10-19T10:29:08Z</time>
      </trkpt>
      <trkpt lat="42.8435590" lon="-7.7461040">
        <ele>704.2</ele>
        <time>2020-10-19T10:29:09Z</time>
      </trkpt>
      <trkpt lat="42.8435610" lon="-7.7461190">
        <ele>704.2</ele>
        <time>2020-10-19T10:29:10Z</time>
      </trkpt>
      <trkpt lat="42.8435630" lon="-7.7461330">
        <ele>704.2</ele>
        <time>2020-10-19T10:29:11Z</time>
      </trkpt>
      <trkpt lat="42.8435650" lon="-7.7461470">
        <ele>704.1</ele>
        <time>2020-10-19T10:29:12Z</time>
      </trkpt>
      <trkpt lat="42.8435690" lon="-7.7461630">
        <ele>704.1</ele>
        <time>2020-10-19T10:29:13Z</time>
      </trkpt>
      <trkpt lat="42.8435730" lon="-7.7461800">
        <ele>704.1</ele>
        <time>2020-10-19T10:29:14Z</time>
      </trkpt>
      <trkpt lat="42.8435770" lon="-7.7461980">
        <ele>704.1</ele>
        <time>2020-10-19T10:29:15Z</time>
      </trkpt>
      <trkpt lat="42.8435790" lon="-7.7462140">
        <ele>704.1</ele>
        <time>2020-10-19T10:29:16Z</time>
      </trkpt>
      <trkpt lat="42.8435810" lon="-7.7462310">
        <ele>704.0</ele>
        <time>2020-10-19T10:29:17Z</time>
      </trkpt>
      <trkpt lat="42.8435840" lon="-7.7462470">
        <ele>704.0</ele>
        <time>2020-10-19T10:29:18Z</time>
      </trkpt>
      <trkpt lat="42.8435890" lon="-7.7462640">
        <ele>704.0</ele>
        <time>2020-10-19T10:29:19Z</time>
      </trkpt>
      <trkpt lat="42.8435940" lon="-7.7462800">
        <ele>704.0</ele>
        <time>2020-10-19T10:29:20Z</time>
      </trkpt>
      <trkpt lat="42.8436010" lon="-7.7462970">
        <ele>704.0</ele>
        <time>2020-10-19T10:29:21Z</time>
      </trkpt>
      <trkpt lat="42.8436080" lon="-7.7463130">
        <ele>704.0</ele>
        <time>2020-10-19T10:29:22Z</time>
      </trkpt>
      <trkpt lat="42.8436160" lon="-7.7463290">
        <ele>704.0</ele>
        <time>2020-10-19T10:29:23Z</time>
      </trkpt>
      <trkpt lat="42.8436240" lon="-7.7463460">
        <ele>704.0</ele>
        <time>2020-10-19T10:29:24Z</time>
      </trkpt>
      <trkpt lat="42.8436320" lon="-7.7463620">
        <ele>704.0</ele>
        <time>2020-10-19T10:29:25Z</time>
      </trkpt>
      <trkpt lat="42.8436390" lon="-7.7463760">
        <ele>703.9</ele>
        <time>2020-10-19T10:29:26Z</time>
      </trkpt>
      <trkpt lat="42.8436450" lon="-7.7463910">
        <ele>703.9</ele>
        <time>2020-10-19T10:29:27Z</time>
      </trkpt>
      <trkpt lat="42.8436500" lon="-7.7464060">
        <ele>703.9</ele>
        <time>2020-10-19T10:29:28Z</time>
      </trkpt>
      <trkpt lat="42.8436530" lon="-7.7464220">
        <ele>703.9</ele>
        <time>2020-10-19T10:29:29Z</time>
      </trkpt>
      <trkpt lat="42.8436570" lon="-7.7464360">
        <ele>703.9</ele>
        <time>2020-10-19T10:29:30Z</time>
      </trkpt>
      <trkpt lat="42.8436610" lon="-7.7464490">
        <ele>703.9</ele>
        <time>2020-10-19T10:29:31Z</time>
      </trkpt>
      <trkpt lat="42.8436660" lon="-7.7464600">
        <ele>703.9</ele>
        <time>2020-10-19T10:29:32Z</time>
      </trkpt>
      <trkpt lat="42.8436700" lon="-7.7464700">
        <ele>703.9</ele>
        <time>2020-10-19T10:29:33Z</time>
      </trkpt>
      <trkpt lat="42.8436760" lon="-7.7464800">
        <ele>703.9</ele>
        <time>2020-10-19T10:29:34Z</time>
      </trkpt>
      <trkpt lat="42.8436810" lon="-7.7464900">
        <ele>703.9</ele>
        <time>2020-10-19T10:29:35Z</time>
      </trkpt>
      <trkpt lat="42.8436870" lon="-7.7465000">
        <ele>703.9</ele>
        <time>2020-10-19T10:29:36Z</time>
      </trkpt>
      <trkpt lat="42.8436920" lon="-7.7465110">
        <ele>703.8</ele>
        <time>2020-10-19T10:29:37Z</time>
      </trkpt>
      <trkpt lat="42.8436970" lon="-7.7465220">
        <ele>703.8</ele>
        <time>2020-10-19T10:29:38Z</time>
      </trkpt>
      <trkpt lat="42.8437020" lon="-7.7465350">
        <ele>703.8</ele>
        <time>2020-10-19T10:29:39Z</time>
      </trkpt>
      <trkpt lat="42.8437070" lon="-7.7465480">
        <ele>703.8</ele>
        <time>2020-10-19T10:29:40Z</time>
      </trkpt>
      <trkpt lat="42.8437120" lon="-7.7465620">
        <ele>703.8</ele>
        <time>2020-10-19T10:29:41Z</time>
      </trkpt>
      <trkpt lat="42.8437150" lon="-7.7465760">
        <ele>703.8</ele>
        <time>2020-10-19T10:29:42Z</time>
      </trkpt>
      <trkpt lat="42.8437190" lon="-7.7465900">
        <ele>703.8</ele>
        <time>2020-10-19T10:29:43Z</time>
      </trkpt>
      <trkpt lat="42.8437230" lon="-7.7466030">
        <ele>703.8</ele>
        <time>2020-10-19T10:29:44Z</time>
      </trkpt>
      <trkpt lat="42.8437280" lon="-7.7466180">
        <ele>703.8</ele>
        <time>2020-10-19T10:29:45Z</time>
      </trkpt>
      <trkpt lat="42.8437340" lon="-7.7466320">
        <ele>703.8</ele>
        <time>2020-10-19T10:29:46Z</time>
      </trkpt>
      <trkpt lat="42.8437400" lon="-7.7466460">
        <ele>703.8</ele>
        <time>2020-10-19T10:29:47Z</time>
      </trkpt>
      <trkpt lat="42.8437450" lon="-7.7466600">
        <ele>703.8</ele>
        <time>2020-10-19T10:29:48Z</time>
      </trkpt>
      <trkpt lat="42.8437490" lon="-7.7466740">
        <ele>703.8</ele>
        <time>2020-10-19T10:29:49Z</time>
      </trkpt>
      <trkpt lat="42.8437530" lon="-7.7466890">
        <ele>703.7</ele>
        <time>2020-10-19T10:29:50Z</time>
      </trkpt>
      <trkpt lat="42.8437570" lon="-7.7467040">
        <ele>703.7</ele>
        <time>2020-10-19T10:29:51Z</time>
      </trkpt>
      <trkpt lat="42.8437620" lon="-7.7467180">
        <ele>703.7</ele>
        <time>2020-10-19T10:29:52Z</time>
      </trkpt>
      <trkpt lat="42.8437670" lon="-7.7467340">
        <ele>703.7</ele>
        <time>2020-10-19T10:29:53Z</time>
      </trkpt>
      <trkpt lat="42.8437710" lon="-7.7467490">
        <ele>703.7</ele>
        <time>2020-10-19T10:29:54Z</time>
      </trkpt>
      <trkpt lat="42.8437760" lon="-7.7467630">
        <ele>703.7</ele>
        <time>2020-10-19T10:29:55Z</time>
      </trkpt>
      <trkpt lat="42.8437820" lon="-7.7467780">
        <ele>703.7</ele>
        <time>2020-10-19T10:29:56Z</time>
      </trkpt>
      <trkpt lat="42.8437880" lon="-7.7467930">
        <ele>703.7</ele>
        <time>2020-10-19T10:29:57Z</time>
      </trkpt>
      <trkpt lat="42.8437940" lon="-7.7468090">
        <ele>703.7</ele>
        <time>2020-10-19T10:29:58Z</time>
      </trkpt>
      <trkpt lat="42.8438000" lon="-7.7468230">
        <ele>703.7</ele>
        <time>2020-10-19T10:29:59Z</time>
      </trkpt>
      <trkpt lat="42.8438070" lon="-7.7468370">
        <ele>703.7</ele>
        <time>2020-10-19T10:30:00Z</time>
      </trkpt>
      <trkpt lat="42.8438120" lon="-7.7468510">
        <ele>703.7</ele>
        <time>2020-10-19T10:30:01Z</time>
      </trkpt>
      <trkpt lat="42.8438150" lon="-7.7468610">
        <ele>703.7</ele>
        <time>2020-10-19T10:30:02Z</time>
      </trkpt>
      <trkpt lat="42.8438180" lon="-7.7468700">
        <ele>703.7</ele>
        <time>2020-10-19T10:30:03Z</time>
      </trkpt>
      <trkpt lat="42.8438220" lon="-7.7468780">
        <ele>703.7</ele>
        <time>2020-10-19T10:30:04Z</time>
      </trkpt>
      <trkpt lat="42.8438260" lon="-7.7468880">
        <ele>703.7</ele>
        <time>2020-10-19T10:30:05Z</time>
      </trkpt>
      <trkpt lat="42.8438290" lon="-7.7469000">
        <ele>703.7</ele>
        <time>2020-10-19T10:30:06Z</time>
      </trkpt>
      <trkpt lat="42.8438320" lon="-7.7469140">
        <ele>703.6</ele>
        <time>2020-10-19T10:30:07Z</time>
      </trkpt>
      <trkpt lat="42.8438350" lon="-7.7469300">
        <ele>703.6</ele>
        <time>2020-10-19T10:30:08Z</time>
      </trkpt>
      <trkpt lat="42.8438390" lon="-7.7469450">
        <ele>703.6</ele>
        <time>2020-10-19T10:30:09Z</time>
      </trkpt>
      <trkpt lat="42.8438430" lon="-7.7469590">
        <ele>703.6</ele>
        <time>2020-10-19T10:30:10Z</time>
      </trkpt>
      <trkpt lat="42.8438460" lon="-7.7469720">
        <ele>703.6</ele>
        <time>2020-10-19T10:30:11Z</time>
      </trkpt>
      <trkpt lat="42.8438510" lon="-7.7469860">
        <ele>703.6</ele>
        <time>2020-10-19T10:30:12Z</time>
      </trkpt>
      <trkpt lat="42.8438550" lon="-7.7470010">
        <ele>703.6</ele>
        <time>2020-10-19T10:30:13Z</time>
      </trkpt>
      <trkpt lat="42.8438600" lon="-7.7470170">
        <ele>703.6</ele>
        <time>2020-10-19T10:30:14Z</time>
      </trkpt>
      <trkpt lat="42.8438650" lon="-7.7470310">
        <ele>703.6</ele>
        <time>2020-10-19T10:30:15Z</time>
      </trkpt>
      <trkpt lat="42.8438700" lon="-7.7470460">
        <ele>703.6</ele>
        <time>2020-10-19T10:30:16Z</time>
      </trkpt>
      <trkpt lat="42.8438760" lon="-7.7470620">
        <ele>703.6</ele>
        <time>2020-10-19T10:30:17Z</time>
      </trkpt>
      <trkpt lat="42.8438800" lon="-7.7470780">
        <ele>703.6</ele>
        <time>2020-10-19T10:30:18Z</time>
      </trkpt>
      <trkpt lat="42.8438860" lon="-7.7470930">
        <ele>703.6</ele>
        <time>2020-10-19T10:30:19Z</time>
      </trkpt>
      <trkpt lat="42.8438920" lon="-7.7471080">
        <ele>703.6</ele>
        <time>2020-10-19T10:30:20Z</time>
      </trkpt>
      <trkpt lat="42.8438980" lon="-7.7471210">
        <ele>703.6</ele>
        <time>2020-10-19T10:30:21Z</time>
      </trkpt>
      <trkpt lat="42.8439040" lon="-7.7471330">
        <ele>703.6</ele>
        <time>2020-10-19T10:30:22Z</time>
      </trkpt>
      <trkpt lat="42.8439090" lon="-7.7471440">
        <ele>703.6</ele>
        <time>2020-10-19T10:30:23Z</time>
      </trkpt>
      <trkpt lat="42.8439140" lon="-7.7471530">
        <ele>703.6</ele>
        <time>2020-10-19T10:30:24Z</time>
      </trkpt>
      <trkpt lat="42.8439180" lon="-7.7471600">
        <ele>703.6</ele>
        <time>2020-10-19T10:30:25Z</time>
      </trkpt>
      <trkpt lat="42.8439220" lon="-7.7471680">
        <ele>703.6</ele>
        <time>2020-10-19T10:30:26Z</time>
      </trkpt>
      <trkpt lat="42.8439260" lon="-7.7471770">
        <ele>703.6</ele>
        <time>2020-10-19T10:30:27Z</time>
      </trkpt>
      <trkpt lat="42.8439310" lon="-7.7471880">
        <ele>703.6</ele>
        <time>2020-10-19T10:30:28Z</time>
      </trkpt>
      <trkpt lat="42.8439360" lon="-7.7472010">
        <ele>703.6</ele>
        <time>2020-10-19T10:30:29Z</time>
      </trkpt>
      <trkpt lat="42.8439420" lon="-7.7472150">
        <ele>703.6</ele>
        <time>2020-10-19T10:30:30Z</time>
      </trkpt>
      <trkpt lat="42.8439470" lon="-7.7472300">
        <ele>703.6</ele>
        <time>2020-10-19T10:30:31Z</time>
      </trkpt>
      <trkpt lat="42.8439510" lon="-7.7472470">
        <ele>703.6</ele>
        <time>2020-10-19T10:30:32Z</time>
      </trkpt>
      <trkpt lat="42.8439550" lon="-7.7472660">
        <ele>703.6</ele>
        <time>2020-10-19T10:30:33Z</time>
      </trkpt>
      <trkpt lat="42.8439590" lon="-7.7472830">
        <ele>703.6</ele>
        <time>2020-10-19T10:30:34Z</time>
      </trkpt>
      <trkpt lat="42.8439630" lon="-7.7473010">
        <ele>703.6</ele>
        <time>2020-10-19T10:30:35Z</time>
      </trkpt>
      <trkpt lat="42.8439660" lon="-7.7473170">
        <ele>703.6</ele>
        <time>2020-10-19T10:30:36Z</time>
      </trkpt>
      <trkpt lat="42.8439700" lon="-7.7473320">
        <ele>703.6</ele>
        <time>2020-10-19T10:30:37Z</time>
      </trkpt>
      <trkpt lat="42.8439750" lon="-7.7473460">
        <ele>703.6</ele>
        <time>2020-10-19T10:30:38Z</time>
      </trkpt>
      <trkpt lat="42.8439800" lon="-7.7473600">
        <ele>703.6</ele>
        <time>2020-10-19T10:30:39Z</time>
      </trkpt>
      <trkpt lat="42.8439880" lon="-7.7473740">
        <ele>703.6</ele>
        <time>2020-10-19T10:30:40Z</time>
      </trkpt>
      <trkpt lat="42.8439960" lon="-7.7473880">
        <ele>703.6</ele>
        <time>2020-10-19T10:30:41Z</time>
      </trkpt>
      <trkpt lat="42.8440030" lon="-7.7474040">
        <ele>703.6</ele>
        <time>2020-10-19T10:30:42Z</time>
      </trkpt>
      <trkpt lat="42.8440090" lon="-7.7474190">
        <ele>703.6</ele>
        <time>2020-10-19T10:30:43Z</time>
      </trkpt>
      <trkpt lat="42.8440150" lon="-7.7474330">
        <ele>703.5</ele>
        <time>2020-10-19T10:30:44Z</time>
      </trkpt>
      <trkpt lat="42.8440200" lon="-7.7474450">
        <ele>703.5</ele>
        <time>2020-10-19T10:30:45Z</time>
      </trkpt>
      <trkpt lat="42.8440250" lon="-7.7474580">
        <ele>703.5</ele>
        <time>2020-10-19T10:30:46Z</time>
      </trkpt>
      <trkpt lat="42.8440290" lon="-7.7474670">
        <ele>703.5</ele>
        <time>2020-10-19T10:30:47Z</time>
      </trkpt>
      <trkpt lat="42.8440320" lon="-7.7474720">
        <ele>703.5</ele>
        <time>2020-10-19T10:30:48Z</time>
      </trkpt>
      <trkpt lat="42.8440330" lon="-7.7474720">
        <ele>703.5</ele>
        <time>2020-10-19T10:30:49Z</time>
      </trkpt>
      <trkpt lat="42.8440340" lon="-7.7474720">
        <ele>703.5</ele>
        <time>2020-10-19T10:30:50Z</time>
      </trkpt>
      <trkpt lat="42.8440360" lon="-7.7474750">
        <ele>703.5</ele>
        <time>2020-10-19T10:30:51Z</time>
      </trkpt>
      <trkpt lat="42.8440390" lon="-7.7474810">
        <ele>703.5</ele>
        <time>2020-10-19T10:30:52Z</time>
      </trkpt>
      <trkpt lat="42.8440440" lon="-7.7474910">
        <ele>703.5</ele>
        <time>2020-10-19T10:30:53Z</time>
      </trkpt>
      <trkpt lat="42.8440500" lon="-7.7475040">
        <ele>703.5</ele>
        <time>2020-10-19T10:30:54Z</time>
      </trkpt>
      <trkpt lat="42.8440560" lon="-7.7475170">
        <ele>703.5</ele>
        <time>2020-10-19T10:30:55Z</time>
      </trkpt>
      <trkpt lat="42.8440620" lon="-7.7475310">
        <ele>703.5</ele>
        <time>2020-10-19T10:30:56Z</time>
      </trkpt>
      <trkpt lat="42.8440680" lon="-7.7475450">
        <ele>703.5</ele>
        <time>2020-10-19T10:30:57Z</time>
      </trkpt>
      <trkpt lat="42.8440740" lon="-7.7475610">
        <ele>703.5</ele>
        <time>2020-10-19T10:30:58Z</time>
      </trkpt>
      <trkpt lat="42.8440800" lon="-7.7475760">
        <ele>703.5</ele>
        <time>2020-10-19T10:30:59Z</time>
      </trkpt>
      <trkpt lat="42.8440860" lon="-7.7475920">
        <ele>703.5</ele>
        <time>2020-10-19T10:31:00Z</time>
      </trkpt>
      <trkpt lat="42.8440920" lon="-7.7476060">
        <ele>703.5</ele>
        <time>2020-10-19T10:31:01Z</time>
      </trkpt>
      <trkpt lat="42.8440980" lon="-7.7476190">
        <ele>703.5</ele>
        <time>2020-10-19T10:31:02Z</time>
      </trkpt>
      <trkpt lat="42.8441030" lon="-7.7476330">
        <ele>703.5</ele>
        <time>2020-10-19T10:31:03Z</time>
      </trkpt>
      <trkpt lat="42.8441090" lon="-7.7476460">
        <ele>703.5</ele>
        <time>2020-10-19T10:31:04Z</time>
      </trkpt>
      <trkpt lat="42.8441150" lon="-7.7476590">
        <ele>703.5</ele>
        <time>2020-10-19T10:31:05Z</time>
      </trkpt>
      <trkpt lat="42.8441210" lon="-7.7476720">
        <ele>703.5</ele>
        <time>2020-10-19T10:31:06Z</time>
      </trkpt>
      <trkpt lat="42.8441280" lon="-7.7476860">
        <ele>703.5</ele>
        <time>2020-10-19T10:31:07Z</time>
      </trkpt>
      <trkpt lat="42.8441350" lon="-7.7477010">
        <ele>703.4</ele>
        <time>2020-10-19T10:31:08Z</time>
      </trkpt>
      <trkpt lat="42.8441410" lon="-7.7477150">
        <ele>703.4</ele>
        <time>2020-10-19T10:31:09Z</time>
      </trkpt>
      <trkpt lat="42.8441470" lon="-7.7477280">
        <ele>703.4</ele>
        <time>2020-10-19T10:31:10Z</time>
      </trkpt>
      <trkpt lat="42.8441540" lon="-7.7477420">
        <ele>703.4</ele>
        <time>2020-10-19T10:31:11Z</time>
      </trkpt>
      <trkpt lat="42.8441610" lon="-7.7477560">
        <ele>703.4</ele>
        <time>2020-10-19T10:31:12Z</time>
      </trkpt>
      <trkpt lat="42.8441690" lon="-7.7477700">
        <ele>703.4</ele>
        <time>2020-10-19T10:31:13Z</time>
      </trkpt>
      <trkpt lat="42.8441770" lon="-7.7477840">
        <ele>703.4</ele>
        <time>2020-10-19T10:31:14Z</time>
      </trkpt>
      <trkpt lat="42.8441840" lon="-7.7477990">
        <ele>703.4</ele>
        <time>2020-10-19T10:31:15Z</time>
      </trkpt>
      <trkpt lat="42.8441920" lon="-7.7478130">
        <ele>703.4</ele>
        <time>2020-10-19T10:31:16Z</time>
      </trkpt>
      <trkpt lat="42.8441990" lon="-7.7478270">
        <ele>703.4</ele>
        <time>2020-10-19T10:31:17Z</time>
      </trkpt>
      <trkpt lat="42.8442060" lon="-7.7478410">
        <ele>703.4</ele>
        <time>2020-10-19T10:31:18Z</time>
      </trkpt>
      <trkpt lat="42.8442130" lon="-7.7478560">
        <ele>703.4</ele>
        <time>2020-10-19T10:31:19Z</time>
      </trkpt>
      <trkpt lat="42.8442200" lon="-7.7478690">
        <ele>703.4</ele>
        <time>2020-10-19T10:31:20Z</time>
      </trkpt>
      <trkpt lat="42.8442270" lon="-7.7478820">
        <ele>703.4</ele>
        <time>2020-10-19T10:31:21Z</time>
      </trkpt>
      <trkpt lat="42.8442330" lon="-7.7478950">
        <ele>703.4</ele>
        <time>2020-10-19T10:31:22Z</time>
      </trkpt>
      <trkpt lat="42.8442400" lon="-7.7479080">
        <ele>703.3</ele>
        <time>2020-10-19T10:31:23Z</time>
      </trkpt>
      <trkpt lat="42.8442490" lon="-7.7479210">
        <ele>703.3</ele>
        <time>2020-10-19T10:31:24Z</time>
      </trkpt>
      <trkpt lat="42.8442560" lon="-7.7479340">
        <ele>703.3</ele>
        <time>2020-10-19T10:31:25Z</time>
      </trkpt>
      <trkpt lat="42.8442630" lon="-7.7479470">
        <ele>703.3</ele>
        <time>2020-10-19T10:31:26Z</time>
      </trkpt>
      <trkpt lat="42.8442690" lon="-7.7479600">
        <ele>703.3</ele>
        <time>2020-10-19T10:31:27Z</time>
      </trkpt>
      <trkpt lat="42.8442740" lon="-7.7479740">
        <ele>703.3</ele>
        <time>2020-10-19T10:31:28Z</time>
      </trkpt>
      <trkpt lat="42.8442790" lon="-7.7479880">
        <ele>703.3</ele>
        <time>2020-10-19T10:31:29Z</time>
      </trkpt>
      <trkpt lat="42.8442830" lon="-7.7480030">
        <ele>703.3</ele>
        <time>2020-10-19T10:31:30Z</time>
      </trkpt>
      <trkpt lat="42.8442860" lon="-7.7480180">
        <ele>703.3</ele>
        <time>2020-10-19T10:31:31Z</time>
      </trkpt>
      <trkpt lat="42.8442880" lon="-7.7480340">
        <ele>703.3</ele>
        <time>2020-10-19T10:31:32Z</time>
      </trkpt>
      <trkpt lat="42.8442890" lon="-7.7480500">
        <ele>703.3</ele>
        <time>2020-10-19T10:31:33Z</time>
      </trkpt>
      <trkpt lat="42.8442890" lon="-7.7480680">
        <ele>703.3</ele>
        <time>2020-10-19T10:31:34Z</time>
      </trkpt>
      <trkpt lat="42.8442890" lon="-7.7480850">
        <ele>703.2</ele>
        <time>2020-10-19T10:31:35Z</time>
      </trkpt>
      <trkpt lat="42.8442880" lon="-7.7481010">
        <ele>703.2</ele>
        <time>2020-10-19T10:31:36Z</time>
      </trkpt>
      <trkpt lat="42.8442870" lon="-7.7481170">
        <ele>703.2</ele>
        <time>2020-10-19T10:31:37Z</time>
      </trkpt>
      <trkpt lat="42.8442820" lon="-7.7481310">
        <ele>703.2</ele>
        <time>2020-10-19T10:31:38Z</time>
      </trkpt>
      <trkpt lat="42.8442770" lon="-7.7481440">
        <ele>703.2</ele>
        <time>2020-10-19T10:31:39Z</time>
      </trkpt>
      <trkpt lat="42.8442730" lon="-7.7481570">
        <ele>703.2</ele>
        <time>2020-10-19T10:31:40Z</time>
      </trkpt>
      <trkpt lat="42.8442740" lon="-7.7481700">
        <ele>703.2</ele>
        <time>2020-10-19T10:31:41Z</time>
      </trkpt>
      <trkpt lat="42.8442740" lon="-7.7481850">
        <ele>703.2</ele>
        <time>2020-10-19T10:31:42Z</time>
      </trkpt>
      <trkpt lat="42.8442720" lon="-7.7481990">
        <ele>703.1</ele>
        <time>2020-10-19T10:31:43Z</time>
      </trkpt>
      <trkpt lat="42.8442700" lon="-7.7482130">
        <ele>703.1</ele>
        <time>2020-10-19T10:31:44Z</time>
      </trkpt>
      <trkpt lat="42.8442680" lon="-7.7482250">
        <ele>703.1</ele>
        <time>2020-10-19T10:31:45Z</time>
      </trkpt>
      <trkpt lat="42.8442650" lon="-7.7482380">
        <ele>703.1</ele>
        <time>2020-10-19T10:31:46Z</time>
      </trkpt>
      <trkpt lat="42.8442620" lon="-7.7482490">
        <ele>703.1</ele>
        <time>2020-10-19T10:31:47Z</time>
      </trkpt>
      <trkpt lat="42.8442570" lon="-7.7482610">
        <ele>703.1</ele>
        <time>2020-10-19T10:31:48Z</time>
      </trkpt>
      <trkpt lat="42.8442530" lon="-7.7482720">
        <ele>703.1</ele>
        <time>2020-10-19T10:31:49Z</time>
      </trkpt>
      <trkpt lat="42.8442480" lon="-7.7482850">
        <ele>703.1</ele>
        <time>2020-10-19T10:31:50Z</time>
      </trkpt>
      <trkpt lat="42.8442430" lon="-7.7482960">
        <ele>703.1</ele>
        <time>2020-10-19T10:31:51Z</time>
      </trkpt>
      <trkpt lat="42.8442390" lon="-7.7483070">
        <ele>703.1</ele>
        <time>2020-10-19T10:31:52Z</time>
      </trkpt>
      <trkpt lat="42.8442360" lon="-7.7483180">
        <ele>703.0</ele>
        <time>2020-10-19T10:31:53Z</time>
      </trkpt>
      <trkpt lat="42.8442320" lon="-7.7483300">
        <ele>703.0</ele>
        <time>2020-10-19T10:31:54Z</time>
      </trkpt>
      <trkpt lat="42.8442280" lon="-7.7483410">
        <ele>703.0</ele>
        <time>2020-10-19T10:31:55Z</time>
      </trkpt>
      <trkpt lat="42.8442250" lon="-7.7483540">
        <ele>703.0</ele>
        <time>2020-10-19T10:31:56Z</time>
      </trkpt>
      <trkpt lat="42.8442210" lon="-7.7483690">
        <ele>703.0</ele>
        <time>2020-10-19T10:31:57Z</time>
      </trkpt>
      <trkpt lat="42.8442170" lon="-7.7483820">
        <ele>703.0</ele>
        <time>2020-10-19T10:31:58Z</time>
      </trkpt>
      <trkpt lat="42.8442120" lon="-7.7483940">
        <ele>703.0</ele>
        <time>2020-10-19T10:31:59Z</time>
      </trkpt>
      <trkpt lat="42.8442100" lon="-7.7484000">
        <ele>703.0</ele>
        <time>2020-10-19T10:32:00Z</time>
      </trkpt>
      <trkpt lat="42.8442080" lon="-7.7484030">
        <ele>703.0</ele>
        <time>2020-10-19T10:32:01Z</time>
      </trkpt>
      <trkpt lat="42.8442080" lon="-7.7484050">
        <ele>703.0</ele>
        <time>2020-10-19T10:32:02Z</time>
      </trkpt>
      <trkpt lat="42.8442090" lon="-7.7484070">
        <ele>703.0</ele>
        <time>2020-10-19T10:32:03Z</time>
      </trkpt>
      <trkpt lat="42.8442090" lon="-7.7484110">
        <ele>703.0</ele>
        <time>2020-10-19T10:32:04Z</time>
      </trkpt>
      <trkpt lat="42.8442090" lon="-7.7484190">
        <ele>703.0</ele>
        <time>2020-10-19T10:32:05Z</time>
      </trkpt>
      <trkpt lat="42.8442070" lon="-7.7484310">
        <ele>703.0</ele>
        <time>2020-10-19T10:32:06Z</time>
      </trkpt>
      <trkpt lat="42.8442060" lon="-7.7484450">
        <ele>703.0</ele>
        <time>2020-10-19T10:32:07Z</time>
      </trkpt>
      <trkpt lat="42.8442040" lon="-7.7484600">
        <ele>703.0</ele>
        <time>2020-10-19T10:32:08Z</time>
      </trkpt>
      <trkpt lat="42.8442030" lon="-7.7484750">
        <ele>703.0</ele>
        <time>2020-10-19T10:32:09Z</time>
      </trkpt>
      <trkpt lat="42.8442010" lon="-7.7484910">
        <ele>702.9</ele>
        <time>2020-10-19T10:32:10Z</time>
      </trkpt>
      <trkpt lat="42.8441980" lon="-7.7485040">
        <ele>702.9</ele>
        <time>2020-10-19T10:32:11Z</time>
      </trkpt>
      <trkpt lat="42.8441950" lon="-7.7485130">
        <ele>702.9</ele>
        <time>2020-10-19T10:32:12Z</time>
      </trkpt>
      <trkpt lat="42.8441930" lon="-7.7485180">
        <ele>702.9</ele>
        <time>2020-10-19T10:32:13Z</time>
      </trkpt>
      <trkpt lat="42.8441920" lon="-7.7485220">
        <ele>702.9</ele>
        <time>2020-10-19T10:32:14Z</time>
      </trkpt>
      <trkpt lat="42.8441930" lon="-7.7485260">
        <ele>702.9</ele>
        <time>2020-10-19T10:32:15Z</time>
      </trkpt>
      <trkpt lat="42.8441950" lon="-7.7485280">
        <ele>702.9</ele>
        <time>2020-10-19T10:32:16Z</time>
      </trkpt>
      <trkpt lat="42.8441960" lon="-7.7485290">
        <ele>702.9</ele>
        <time>2020-10-19T10:32:17Z</time>
      </trkpt>
      <trkpt lat="42.8441960" lon="-7.7485280">
        <ele>702.9</ele>
        <time>2020-10-19T10:32:18Z</time>
      </trkpt>
      <trkpt lat="42.8441960" lon="-7.7485280">
        <ele>702.9</ele>
        <time>2020-10-19T10:32:19Z</time>
      </trkpt>
      <trkpt lat="42.8441960" lon="-7.7485290">
        <ele>702.9</ele>
        <time>2020-10-19T10:32:20Z</time>
      </trkpt>
      <trkpt lat="42.8441970" lon="-7.7485290">
        <ele>702.9</ele>
        <time>2020-10-19T10:32:21Z</time>
      </trkpt>
      <trkpt lat="42.8441980" lon="-7.7485300">
        <ele>702.9</ele>
        <time>2020-10-19T10:32:22Z</time>
      </trkpt>
      <trkpt lat="42.8442000" lon="-7.7485360">
        <ele>702.9</ele>
        <time>2020-10-19T10:32:23Z</time>
      </trkpt>
      <trkpt lat="42.8442030" lon="-7.7485480">
        <ele>702.9</ele>
        <time>2020-10-19T10:32:24Z</time>
      </trkpt>
      <trkpt lat="42.8442060" lon="-7.7485640">
        <ele>702.9</ele>
        <time>2020-10-19T10:32:25Z</time>
      </trkpt>
      <trkpt lat="42.8442080" lon="-7.7485810">
        <ele>702.9</ele>
        <time>2020-10-19T10:32:26Z</time>
      </trkpt>
      <trkpt lat="42.8442110" lon="-7.7485980">
        <ele>702.9</ele>
        <time>2020-10-19T10:32:27Z</time>
      </trkpt>
      <trkpt lat="42.8442140" lon="-7.7486150">
        <ele>702.9</ele>
        <time>2020-10-19T10:32:28Z</time>
      </trkpt>
      <trkpt lat="42.8442180" lon="-7.7486320">
        <ele>702.9</ele>
        <time>2020-10-19T10:32:29Z</time>
      </trkpt>
      <trkpt lat="42.8442210" lon="-7.7486490">
        <ele>702.9</ele>
        <time>2020-10-19T10:32:30Z</time>
      </trkpt>
      <trkpt lat="42.8442240" lon="-7.7486650">
        <ele>702.9</ele>
        <time>2020-10-19T10:32:31Z</time>
      </trkpt>
      <trkpt lat="42.8442270" lon="-7.7486800">
        <ele>702.9</ele>
        <time>2020-10-19T10:32:32Z</time>
      </trkpt>
      <trkpt lat="42.8442310" lon="-7.7486950">
        <ele>702.9</ele>
        <time>2020-10-19T10:32:33Z</time>
      </trkpt>
      <trkpt lat="42.8442350" lon="-7.7487090">
        <ele>702.9</ele>
        <time>2020-10-19T10:32:34Z</time>
      </trkpt>
      <trkpt lat="42.8442400" lon="-7.7487240">
        <ele>702.9</ele>
        <time>2020-10-19T10:32:35Z</time>
      </trkpt>
      <trkpt lat="42.8442440" lon="-7.7487360">
        <ele>702.9</ele>
        <time>2020-10-19T10:32:36Z</time>
      </trkpt>
      <trkpt lat="42.8442490" lon="-7.7487460">
        <ele>702.9</ele>
        <time>2020-10-19T10:32:37Z</time>
      </trkpt>
      <trkpt lat="42.8442540" lon="-7.7487560">
        <ele>702.9</ele>
        <time>2020-10-19T10:32:38Z</time>
      </trkpt>
      <trkpt lat="42.8442580" lon="-7.7487690">
        <ele>702.9</ele>
        <time>2020-10-19T10:32:39Z</time>
      </trkpt>
      <trkpt lat="42.8442620" lon="-7.7487840">
        <ele>702.9</ele>
        <time>2020-10-19T10:32:40Z</time>
      </trkpt>
      <trkpt lat="42.8442650" lon="-7.7488000">
        <ele>702.9</ele>
        <time>2020-10-19T10:32:41Z</time>
      </trkpt>
      <trkpt lat="42.8442690" lon="-7.7488140">
        <ele>702.9</ele>
        <time>2020-10-19T10:32:42Z</time>
      </trkpt>
      <trkpt lat="42.8442730" lon="-7.7488280">
        <ele>702.9</ele>
        <time>2020-10-19T10:32:43Z</time>
      </trkpt>
      <trkpt lat="42.8442770" lon="-7.7488420">
        <ele>702.9</ele>
        <time>2020-10-19T10:32:44Z</time>
      </trkpt>
      <trkpt lat="42.8442820" lon="-7.7488570">
        <ele>702.9</ele>
        <time>2020-10-19T10:32:45Z</time>
      </trkpt>
      <trkpt lat="42.8442870" lon="-7.7488720">
        <ele>702.9</ele>
        <time>2020-10-19T10:32:46Z</time>
      </trkpt>
      <trkpt lat="42.8442910" lon="-7.7488860">
        <ele>702.9</ele>
        <time>2020-10-19T10:32:47Z</time>
      </trkpt>
      <trkpt lat="42.8442930" lon="-7.7489000">
        <ele>702.9</ele>
        <time>2020-10-19T10:32:48Z</time>
      </trkpt>
      <trkpt lat="42.8442960" lon="-7.7489150">
        <ele>702.9</ele>
        <time>2020-10-19T10:32:49Z</time>
      </trkpt>
      <trkpt lat="42.8442980" lon="-7.7489310">
        <ele>702.9</ele>
        <time>2020-10-19T10:32:50Z</time>
      </trkpt>
      <trkpt lat="42.8443000" lon="-7.7489470">
        <ele>702.9</ele>
        <time>2020-10-19T10:32:51Z</time>
      </trkpt>
      <trkpt lat="42.8443010" lon="-7.7489630">
        <ele>702.9</ele>
        <time>2020-10-19T10:32:52Z</time>
      </trkpt>
      <trkpt lat="42.8443020" lon="-7.7489780">
        <ele>702.9</ele>
        <time>2020-10-19T10:32:53Z</time>
      </trkpt>
      <trkpt lat="42.8443050" lon="-7.7489940">
        <ele>702.9</ele>
        <time>2020-10-19T10:32:54Z</time>
      </trkpt>
      <trkpt lat="42.8443080" lon="-7.7490080">
        <ele>702.9</ele>
        <time>2020-10-19T10:32:55Z</time>
      </trkpt>
      <trkpt lat="42.8443110" lon="-7.7490230">
        <ele>702.9</ele>
        <time>2020-10-19T10:32:56Z</time>
      </trkpt>
      <trkpt lat="42.8443130" lon="-7.7490380">
        <ele>702.9</ele>
        <time>2020-10-19T10:32:57Z</time>
      </trkpt>
      <trkpt lat="42.8443160" lon="-7.7490540">
        <ele>702.9</ele>
        <time>2020-10-19T10:32:58Z</time>
      </trkpt>
      <trkpt lat="42.8443180" lon="-7.7490690">
        <ele>702.9</ele>
        <time>2020-10-19T10:32:59Z</time>
      </trkpt>
      <trkpt lat="42.8443200" lon="-7.7490840">
        <ele>702.9</ele>
        <time>2020-10-19T10:33:00Z</time>
      </trkpt>
      <trkpt lat="42.8443230" lon="-7.7490980">
        <ele>702.9</ele>
        <time>2020-10-19T10:33:01Z</time>
      </trkpt>
      <trkpt lat="42.8443260" lon="-7.7491120">
        <ele>703.0</ele>
        <time>2020-10-19T10:33:02Z</time>
      </trkpt>
      <trkpt lat="42.8443300" lon="-7.7491270">
        <ele>703.0</ele>
        <time>2020-10-19T10:33:03Z</time>
      </trkpt>
      <trkpt lat="42.8443330" lon="-7.7491420">
        <ele>703.0</ele>
        <time>2020-10-19T10:33:04Z</time>
      </trkpt>
      <trkpt lat="42.8443370" lon="-7.7491570">
        <ele>703.0</ele>
        <time>2020-10-19T10:33:05Z</time>
      </trkpt>
      <trkpt lat="42.8443410" lon="-7.7491730">
        <ele>703.0</ele>
        <time>2020-10-19T10:33:06Z</time>
      </trkpt>
      <trkpt lat="42.8443440" lon="-7.7491890">
        <ele>703.0</ele>
        <time>2020-10-19T10:33:07Z</time>
      </trkpt>
      <trkpt lat="42.8443470" lon="-7.7492040">
        <ele>703.0</ele>
        <time>2020-10-19T10:33:08Z</time>
      </trkpt>
      <trkpt lat="42.8443510" lon="-7.7492200">
        <ele>703.0</ele>
        <time>2020-10-19T10:33:09Z</time>
      </trkpt>
      <trkpt lat="42.8443570" lon="-7.7492360">
        <ele>703.0</ele>
        <time>2020-10-19T10:33:10Z</time>
      </trkpt>
      <trkpt lat="42.8443640" lon="-7.7492510">
        <ele>703.0</ele>
        <time>2020-10-19T10:33:11Z</time>
      </trkpt>
      <trkpt lat="42.8443710" lon="-7.7492670">
        <ele>703.0</ele>
        <time>2020-10-19T10:33:12Z</time>
      </trkpt>
      <trkpt lat="42.8443770" lon="-7.7492810">
        <ele>703.0</ele>
        <time>2020-10-19T10:33:13Z</time>
      </trkpt>
      <trkpt lat="42.8443820" lon="-7.7492960">
        <ele>703.1</ele>
        <time>2020-10-19T10:33:14Z</time>
      </trkpt>
      <trkpt lat="42.8443870" lon="-7.7493100">
        <ele>703.1</ele>
        <time>2020-10-19T10:33:15Z</time>
      </trkpt>
      <trkpt lat="42.8443910" lon="-7.7493240">
        <ele>703.1</ele>
        <time>2020-10-19T10:33:16Z</time>
      </trkpt>
      <trkpt lat="42.8443950" lon="-7.7493390">
        <ele>703.1</ele>
        <time>2020-10-19T10:33:17Z</time>
      </trkpt>
      <trkpt lat="42.8443990" lon="-7.7493520">
        <ele>703.1</ele>
        <time>2020-10-19T10:33:18Z</time>
      </trkpt>
      <trkpt lat="42.8444020" lon="-7.7493630">
        <ele>703.1</ele>
        <time>2020-10-19T10:33:19Z</time>
      </trkpt>
      <trkpt lat="42.8444010" lon="-7.7493690">
        <ele>703.1</ele>
        <time>2020-10-19T10:33:20Z</time>
      </trkpt>
      <trkpt lat="42.8443990" lon="-7.7493720">
        <ele>703.1</ele>
        <time>2020-10-19T10:33:21Z</time>
      </trkpt>
      <trkpt lat="42.8443990" lon="-7.7493720">
        <ele>703.1</ele>
        <time>2020-10-19T10:33:22Z</time>
      </trkpt>
      <trkpt lat="42.8444000" lon="-7.7493730">
        <ele>703.1</ele>
        <time>2020-10-19T10:33:23Z</time>
      </trkpt>
      <trkpt lat="42.8444020" lon="-7.7493760">
        <ele>703.1</ele>
        <time>2020-10-19T10:33:24Z</time>
      </trkpt>
      <trkpt lat="42.8444040" lon="-7.7493840">
        <ele>703.1</ele>
        <time>2020-10-19T10:33:25Z</time>
      </trkpt>
      <trkpt lat="42.8444060" lon="-7.7493960">
        <ele>703.1</ele>
        <time>2020-10-19T10:33:26Z</time>
      </trkpt>
      <trkpt lat="42.8444110" lon="-7.7494080">
        <ele>703.2</ele>
        <time>2020-10-19T10:33:27Z</time>
      </trkpt>
      <trkpt lat="42.8444180" lon="-7.7494210">
        <ele>703.2</ele>
        <time>2020-10-19T10:33:28Z</time>
      </trkpt>
      <trkpt lat="42.8444260" lon="-7.7494340">
        <ele>703.2</ele>
        <time>2020-10-19T10:33:29Z</time>
      </trkpt>
      <trkpt lat="42.8444340" lon="-7.7494470">
        <ele>703.2</ele>
        <time>2020-10-19T10:33:30Z</time>
      </trkpt>
      <trkpt lat="42.8444410" lon="-7.7494610">
        <ele>703.2</ele>
        <time>2020-10-19T10:33:31Z</time>
      </trkpt>
      <trkpt lat="42.8444490" lon="-7.7494750">
        <ele>703.2</ele>
        <time>2020-10-19T10:33:32Z</time>
      </trkpt>
      <trkpt lat="42.8444570" lon="-7.7494880">
        <ele>703.2</ele>
        <time>2020-10-19T10:33:33Z</time>
      </trkpt>
      <trkpt lat="42.8444650" lon="-7.7495020">
        <ele>703.3</ele>
        <time>2020-10-19T10:33:34Z</time>
      </trkpt>
      <trkpt lat="42.8444730" lon="-7.7495150">
        <ele>703.3</ele>
        <time>2020-10-19T10:33:35Z</time>
      </trkpt>
      <trkpt lat="42.8444820" lon="-7.7495290">
        <ele>703.3</ele>
        <time>2020-10-19T10:33:36Z</time>
      </trkpt>
      <trkpt lat="42.8444900" lon="-7.7495430">
        <ele>703.3</ele>
        <time>2020-10-19T10:33:37Z</time>
      </trkpt>
      <trkpt lat="42.8444980" lon="-7.7495560">
        <ele>703.3</ele>
        <time>2020-10-19T10:33:38Z</time>
      </trkpt>
      <trkpt lat="42.8445060" lon="-7.7495670">
        <ele>703.4</ele>
        <time>2020-10-19T10:33:39Z</time>
      </trkpt>
      <trkpt lat="42.8445160" lon="-7.7495780">
        <ele>703.4</ele>
        <time>2020-10-19T10:33:40Z</time>
      </trkpt>
      <trkpt lat="42.8445260" lon="-7.7495860">
        <ele>703.4</ele>
        <time>2020-10-19T10:33:41Z</time>
      </trkpt>
      <trkpt lat="42.8445370" lon="-7.7495910">
        <ele>703.4</ele>
        <time>2020-10-19T10:33:42Z</time>
      </trkpt>
      <trkpt lat="42.8445460" lon="-7.7495920">
        <ele>703.4</ele>
        <time>2020-10-19T10:33:43Z</time>
      </trkpt>
      <trkpt lat="42.8445540" lon="-7.7495920">
        <ele>703.5</ele>
        <time>2020-10-19T10:33:44Z</time>
      </trkpt>
      <trkpt lat="42.8445600" lon="-7.7495930">
        <ele>703.5</ele>
        <time>2020-10-19T10:33:45Z</time>
      </trkpt>
      <trkpt lat="42.8445630" lon="-7.7495950">
        <ele>703.5</ele>
        <time>2020-10-19T10:33:46Z</time>
      </trkpt>
      <trkpt lat="42.8445650" lon="-7.7495970">
        <ele>703.5</ele>
        <time>2020-10-19T10:33:47Z</time>
      </trkpt>
      <trkpt lat="42.8445660" lon="-7.7495980">
        <ele>703.5</ele>
        <time>2020-10-19T10:33:48Z</time>
      </trkpt>
      <trkpt lat="42.8445670" lon="-7.7495980">
        <ele>703.5</ele>
        <time>2020-10-19T10:33:49Z</time>
      </trkpt>
      <trkpt lat="42.8445670" lon="-7.7495990">
        <ele>703.5</ele>
        <time>2020-10-19T10:33:50Z</time>
      </trkpt>
      <trkpt lat="42.8445680" lon="-7.7495990">
        <ele>703.5</ele>
        <time>2020-10-19T10:33:51Z</time>
      </trkpt>
      <trkpt lat="42.8445680" lon="-7.7495980">
        <ele>703.5</ele>
        <time>2020-10-19T10:33:52Z</time>
      </trkpt>
      <trkpt lat="42.8445690" lon="-7.7495980">
        <ele>703.5</ele>
        <time>2020-10-19T10:33:53Z</time>
      </trkpt>
      <trkpt lat="42.8445700" lon="-7.7495980">
        <ele>703.5</ele>
        <time>2020-10-19T10:33:54Z</time>
      </trkpt>
      <trkpt lat="42.8445700" lon="-7.7495970">
        <ele>703.5</ele>
        <time>2020-10-19T10:33:55Z</time>
      </trkpt>
      <trkpt lat="42.8445710" lon="-7.7495970">
        <ele>703.5</ele>
        <time>2020-10-19T10:33:56Z</time>
      </trkpt>
      <trkpt lat="42.8445720" lon="-7.7495960">
        <ele>703.5</ele>
        <time>2020-10-19T10:33:57Z</time>
      </trkpt>
      <trkpt lat="42.8445720" lon="-7.7495960">
        <ele>703.5</ele>
        <time>2020-10-19T10:33:58Z</time>
      </trkpt>
      <trkpt lat="42.8445730" lon="-7.7495950">
        <ele>703.5</ele>
        <time>2020-10-19T10:33:59Z</time>
      </trkpt>
      <trkpt lat="42.8445730" lon="-7.7495950">
        <ele>703.5</ele>
        <time>2020-10-19T10:34:00Z</time>
      </trkpt>
      <trkpt lat="42.8445730" lon="-7.7495950">
        <ele>703.5</ele>
        <time>2020-10-19T10:34:01Z</time>
      </trkpt>
      <trkpt lat="42.8445730" lon="-7.7495950">
        <ele>703.5</ele>
        <time>2020-10-19T10:34:02Z</time>
      </trkpt>
      <trkpt lat="42.8445740" lon="-7.7495950">
        <ele>703.5</ele>
        <time>2020-10-19T10:34:03Z</time>
      </trkpt>
      <trkpt lat="42.8445740" lon="-7.7495960">
        <ele>703.5</ele>
        <time>2020-10-19T10:34:04Z</time>
      </trkpt>
      <trkpt lat="42.8445740" lon="-7.7495960">
        <ele>703.5</ele>
        <time>2020-10-19T10:34:05Z</time>
      </trkpt>
      <trkpt lat="42.8445740" lon="-7.7495960">
        <ele>703.5</ele>
        <time>2020-10-19T10:34:06Z</time>
      </trkpt>
      <trkpt lat="42.8445740" lon="-7.7495960">
        <ele>703.5</ele>
        <time>2020-10-19T10:34:07Z</time>
      </trkpt>
      <trkpt lat="42.8445750" lon="-7.7495950">
        <ele>703.5</ele>
        <time>2020-10-19T10:34:08Z</time>
      </trkpt>
      <trkpt lat="42.8445750" lon="-7.7495940">
        <ele>703.5</ele>
        <time>2020-10-19T10:34:09Z</time>
      </trkpt>
      <trkpt lat="42.8445750" lon="-7.7495930">
        <ele>703.5</ele>
        <time>2020-10-19T10:34:10Z</time>
      </trkpt>
      <trkpt lat="42.8445750" lon="-7.7495920">
        <ele>703.5</ele>
        <time>2020-10-19T10:34:11Z</time>
      </trkpt>
      <trkpt lat="42.8445750" lon="-7.7495920">
        <ele>703.5</ele>
        <time>2020-10-19T10:34:12Z</time>
      </trkpt>
      <trkpt lat="42.8445740" lon="-7.7495910">
        <ele>703.5</ele>
        <time>2020-10-19T10:34:13Z</time>
      </trkpt>
      <trkpt lat="42.8445740" lon="-7.7495910">
        <ele>703.5</ele>
        <time>2020-10-19T10:34:14Z</time>
      </trkpt>
      <trkpt lat="42.8445740" lon="-7.7495910">
        <ele>703.5</ele>
        <time>2020-10-19T10:34:15Z</time>
      </trkpt>
      <trkpt lat="42.8445740" lon="-7.7495910">
        <ele>703.5</ele>
        <time>2020-10-19T10:34:16Z</time>
      </trkpt>
      <trkpt lat="42.8445740" lon="-7.7495910">
        <ele>703.5</ele>
        <time>2020-10-19T10:34:17Z</time>
      </trkpt>
      <trkpt lat="42.8445740" lon="-7.7495910">
        <ele>703.5</ele>
        <time>2020-10-19T10:34:18Z</time>
      </trkpt>
      <trkpt lat="42.8445730" lon="-7.7495910">
        <ele>703.5</ele>
        <time>2020-10-19T10:34:19Z</time>
      </trkpt>
      <trkpt lat="42.8445730" lon="-7.7495900">
        <ele>703.5</ele>
        <time>2020-10-19T10:34:20Z</time>
      </trkpt>
      <trkpt lat="42.8445730" lon="-7.7495900">
        <ele>703.5</ele>
        <time>2020-10-19T10:34:21Z</time>
      </trkpt>
      <trkpt lat="42.8445720" lon="-7.7495890">
        <ele>703.5</ele>
        <time>2020-10-19T10:34:22Z</time>
      </trkpt>
      <trkpt lat="42.8445720" lon="-7.7495890">
        <ele>703.5</ele>
        <time>2020-10-19T10:34:23Z</time>
      </trkpt>
      <trkpt lat="42.8445720" lon="-7.7495880">
        <ele>703.5</ele>
        <time>2020-10-19T10:34:24Z</time>
      </trkpt>
      <trkpt lat="42.8445720" lon="-7.7495880">
        <ele>703.5</ele>
        <time>2020-10-19T10:34:25Z</time>
      </trkpt>
      <trkpt lat="42.8445710" lon="-7.7495880">
        <ele>703.5</ele>
        <time>2020-10-19T10:34:26Z</time>
      </trkpt>
      <trkpt lat="42.8445710" lon="-7.7495870">
        <ele>703.5</ele>
        <time>2020-10-19T10:34:27Z</time>
      </trkpt>
      <trkpt lat="42.8445700" lon="-7.7495850">
        <ele>703.5</ele>
        <time>2020-10-19T10:34:28Z</time>
      </trkpt>
      <trkpt lat="42.8445700" lon="-7.7495840">
        <ele>703.5</ele>
        <time>2020-10-19T10:34:29Z</time>
      </trkpt>
      <trkpt lat="42.8445700" lon="-7.7495840">
        <ele>703.5</ele>
        <time>2020-10-19T10:34:30Z</time>
      </trkpt>
      <trkpt lat="42.8445690" lon="-7.7495830">
        <ele>703.6</ele>
        <time>2020-10-19T10:34:31Z</time>
      </trkpt>
      <trkpt lat="42.8445690" lon="-7.7495820">
        <ele>703.6</ele>
        <time>2020-10-19T10:34:32Z</time>
      </trkpt>
      <trkpt lat="42.8445680" lon="-7.7495830">
        <ele>703.6</ele>
        <time>2020-10-19T10:34:33Z</time>
      </trkpt>
      <trkpt lat="42.8445690" lon="-7.7495880">
        <ele>703.6</ele>
        <time>2020-10-19T10:34:34Z</time>
      </trkpt>
      <trkpt lat="42.8445650" lon="-7.7495970">
        <ele>703.6</ele>
        <time>2020-10-19T10:34:35Z</time>
      </trkpt>
      <trkpt lat="42.8445590" lon="-7.7496100">
        <ele>703.6</ele>
        <time>2020-10-19T10:34:36Z</time>
      </trkpt>
      <trkpt lat="42.8445500" lon="-7.7496180">
        <ele>703.6</ele>
        <time>2020-10-19T10:34:37Z</time>
      </trkpt>
      <trkpt lat="42.8445420" lon="-7.7496250">
        <ele>703.7</ele>
        <time>2020-10-19T10:34:38Z</time>
      </trkpt>
      <trkpt lat="42.8445350" lon="-7.7496290">
        <ele>703.7</ele>
        <time>2020-10-19T10:34:39Z</time>
      </trkpt>
      <trkpt lat="42.8445310" lon="-7.7496360">
        <ele>703.7</ele>
        <time>2020-10-19T10:34:40Z</time>
      </trkpt>
      <trkpt lat="42.8445270" lon="-7.7496390">
        <ele>703.7</ele>
        <time>2020-10-19T10:34:41Z</time>
      </trkpt>
      <trkpt lat="42.8445260" lon="-7.7496430">
        <ele>703.7</ele>
        <time>2020-10-19T10:34:42Z</time>
      </trkpt>
      <trkpt lat="42.8445270" lon="-7.7496490">
        <ele>703.7</ele>
        <time>2020-10-19T10:34:43Z</time>
      </trkpt>
      <trkpt lat="42.8445300" lon="-7.7496590">
        <ele>703.7</ele>
        <time>2020-10-19T10:34:44Z</time>
      </trkpt>
      <trkpt lat="42.8445340" lon="-7.7496720">
        <ele>703.8</ele>
        <time>2020-10-19T10:34:45Z</time>
      </trkpt>
      <trkpt lat="42.8445380" lon="-7.7496860">
        <ele>703.8</ele>
        <time>2020-10-19T10:34:46Z</time>
      </trkpt>
      <trkpt lat="42.8445430" lon="-7.7496990">
        <ele>703.8</ele>
        <time>2020-10-19T10:34:47Z</time>
      </trkpt>
      <trkpt lat="42.8445490" lon="-7.7497110">
        <ele>703.9</ele>
        <time>2020-10-19T10:34:48Z</time>
      </trkpt>
      <trkpt lat="42.8445560" lon="-7.7497240">
        <ele>703.9</ele>
        <time>2020-10-19T10:34:49Z</time>
      </trkpt>
      <trkpt lat="42.8445630" lon="-7.7497380">
        <ele>703.9</ele>
        <time>2020-10-19T10:34:50Z</time>
      </trkpt>
      <trkpt lat="42.8445700" lon="-7.7497510">
        <ele>704.0</ele>
        <time>2020-10-19T10:34:51Z</time>
      </trkpt>
      <trkpt lat="42.8445760" lon="-7.7497650">
        <ele>704.0</ele>
        <time>2020-10-19T10:34:52Z</time>
      </trkpt>
      <trkpt lat="42.8445830" lon="-7.7497780">
        <ele>704.0</ele>
        <time>2020-10-19T10:34:53Z</time>
      </trkpt>
      <trkpt lat="42.8445900" lon="-7.7497910">
        <ele>704.1</ele>
        <time>2020-10-19T10:34:54Z</time>
      </trkpt>
      <trkpt lat="42.8445970" lon="-7.7498040">
        <ele>704.1</ele>
        <time>2020-10-19T10:34:55Z</time>
      </trkpt>
      <trkpt lat="42.8446030" lon="-7.7498170">
        <ele>704.2</ele>
        <time>2020-10-19T10:34:56Z</time>
      </trkpt>
      <trkpt lat="42.8446090" lon="-7.7498300">
        <ele>704.2</ele>
        <time>2020-10-19T10:34:57Z</time>
      </trkpt>
      <trkpt lat="42.8446150" lon="-7.7498440">
        <ele>704.2</ele>
        <time>2020-10-19T10:34:58Z</time>
      </trkpt>
      <trkpt lat="42.8446210" lon="-7.7498600">
        <ele>704.3</ele>
        <time>2020-10-19T10:34:59Z</time>
      </trkpt>
      <trkpt lat="42.8446250" lon="-7.7498760">
        <ele>704.4</ele>
        <time>2020-10-19T10:35:00Z</time>
      </trkpt>
      <trkpt lat="42.8446300" lon="-7.7498920">
        <ele>704.4</ele>
        <time>2020-10-19T10:35:01Z</time>
      </trkpt>
      <trkpt lat="42.8446350" lon="-7.7499080">
        <ele>704.5</ele>
        <time>2020-10-19T10:35:02Z</time>
      </trkpt>
      <trkpt lat="42.8446380" lon="-7.7499240">
        <ele>704.5</ele>
        <time>2020-10-19T10:35:03Z</time>
      </trkpt>
      <trkpt lat="42.8446420" lon="-7.7499390">
        <ele>704.6</ele>
        <time>2020-10-19T10:35:04Z</time>
      </trkpt>
      <trkpt lat="42.8446460" lon="-7.7499540">
        <ele>704.6</ele>
        <time>2020-10-19T10:35:05Z</time>
      </trkpt>
      <trkpt lat="42.8446500" lon="-7.7499680">
        <ele>704.7</ele>
        <time>2020-10-19T10:35:06Z</time>
      </trkpt>
      <trkpt lat="42.8446540" lon="-7.7499830">
        <ele>704.7</ele>
        <time>2020-10-19T10:35:07Z</time>
      </trkpt>
      <trkpt lat="42.8446590" lon="-7.7499970">
        <ele>704.8</ele>
        <time>2020-10-19T10:35:08Z</time>
      </trkpt>
      <trkpt lat="42.8446620" lon="-7.7500110">
        <ele>704.8</ele>
        <time>2020-10-19T10:35:09Z</time>
      </trkpt>
      <trkpt lat="42.8446640" lon="-7.7500250">
        <ele>704.9</ele>
        <time>2020-10-19T10:35:10Z</time>
      </trkpt>
      <trkpt lat="42.8446660" lon="-7.7500380">
        <ele>704.9</ele>
        <time>2020-10-19T10:35:11Z</time>
      </trkpt>
      <trkpt lat="42.8446670" lon="-7.7500510">
        <ele>705.0</ele>
        <time>2020-10-19T10:35:12Z</time>
      </trkpt>
      <trkpt lat="42.8446690" lon="-7.7500650">
        <ele>705.0</ele>
        <time>2020-10-19T10:35:13Z</time>
      </trkpt>
      <trkpt lat="42.8446730" lon="-7.7500800">
        <ele>705.1</ele>
        <time>2020-10-19T10:35:14Z</time>
      </trkpt>
      <trkpt lat="42.8446770" lon="-7.7500960">
        <ele>705.2</ele>
        <time>2020-10-19T10:35:15Z</time>
      </trkpt>
      <trkpt lat="42.8446810" lon="-7.7501120">
        <ele>705.2</ele>
        <time>2020-10-19T10:35:16Z</time>
      </trkpt>
      <trkpt lat="42.8446830" lon="-7.7501270">
        <ele>705.3</ele>
        <time>2020-10-19T10:35:17Z</time>
      </trkpt>
      <trkpt lat="42.8446870" lon="-7.7501410">
        <ele>705.3</ele>
        <time>2020-10-19T10:35:18Z</time>
      </trkpt>
      <trkpt lat="42.8446900" lon="-7.7501550">
        <ele>705.4</ele>
        <time>2020-10-19T10:35:19Z</time>
      </trkpt>
      <trkpt lat="42.8446950" lon="-7.7501690">
        <ele>705.5</ele>
        <time>2020-10-19T10:35:20Z</time>
      </trkpt>
      <trkpt lat="42.8447010" lon="-7.7501810">
        <ele>705.5</ele>
        <time>2020-10-19T10:35:21Z</time>
      </trkpt>
      <trkpt lat="42.8447070" lon="-7.7501940">
        <ele>705.6</ele>
        <time>2020-10-19T10:35:22Z</time>
      </trkpt>
      <trkpt lat="42.8447150" lon="-7.7502080">
        <ele>705.6</ele>
        <time>2020-10-19T10:35:23Z</time>
      </trkpt>
      <trkpt lat="42.8447200" lon="-7.7502230">
        <ele>705.7</ele>
        <time>2020-10-19T10:35:24Z</time>
      </trkpt>
      <trkpt lat="42.8447260" lon="-7.7502400">
        <ele>705.7</ele>
        <time>2020-10-19T10:35:25Z</time>
      </trkpt>
      <trkpt lat="42.8447310" lon="-7.7502570">
        <ele>705.8</ele>
        <time>2020-10-19T10:35:26Z</time>
      </trkpt>
      <trkpt lat="42.8447360" lon="-7.7502740">
        <ele>705.9</ele>
        <time>2020-10-19T10:35:27Z</time>
      </trkpt>
      <trkpt lat="42.8447400" lon="-7.7502900">
        <ele>705.9</ele>
        <time>2020-10-19T10:35:28Z</time>
      </trkpt>
      <trkpt lat="42.8447440" lon="-7.7503060">
        <ele>706.0</ele>
        <time>2020-10-19T10:35:29Z</time>
      </trkpt>
      <trkpt lat="42.8447490" lon="-7.7503220">
        <ele>706.1</ele>
        <time>2020-10-19T10:35:30Z</time>
      </trkpt>
      <trkpt lat="42.8447530" lon="-7.7503380">
        <ele>706.1</ele>
        <time>2020-10-19T10:35:31Z</time>
      </trkpt>
      <trkpt lat="42.8447570" lon="-7.7503540">
        <ele>706.2</ele>
        <time>2020-10-19T10:35:32Z</time>
      </trkpt>
      <trkpt lat="42.8447620" lon="-7.7503710">
        <ele>706.3</ele>
        <time>2020-10-19T10:35:33Z</time>
      </trkpt>
      <trkpt lat="42.8447670" lon="-7.7503870">
        <ele>706.3</ele>
        <time>2020-10-19T10:35:34Z</time>
      </trkpt>
      <trkpt lat="42.8447730" lon="-7.7504030">
        <ele>706.4</ele>
        <time>2020-10-19T10:35:35Z</time>
      </trkpt>
      <trkpt lat="42.8447780" lon="-7.7504170">
        <ele>706.4</ele>
        <time>2020-10-19T10:35:36Z</time>
      </trkpt>
      <trkpt lat="42.8447840" lon="-7.7504310">
        <ele>706.5</ele>
        <time>2020-10-19T10:35:37Z</time>
      </trkpt>
      <trkpt lat="42.8447890" lon="-7.7504450">
        <ele>706.6</ele>
        <time>2020-10-19T10:35:38Z</time>
      </trkpt>
      <trkpt lat="42.8447930" lon="-7.7504610">
        <ele>706.6</ele>
        <time>2020-10-19T10:35:39Z</time>
      </trkpt>
      <trkpt lat="42.8447980" lon="-7.7504780">
        <ele>706.7</ele>
        <time>2020-10-19T10:35:40Z</time>
      </trkpt>
      <trkpt lat="42.8448020" lon="-7.7504950">
        <ele>706.8</ele>
        <time>2020-10-19T10:35:41Z</time>
      </trkpt>
      <trkpt lat="42.8448080" lon="-7.7505110">
        <ele>706.9</ele>
        <time>2020-10-19T10:35:42Z</time>
      </trkpt>
      <trkpt lat="42.8448120" lon="-7.7505260">
        <ele>706.9</ele>
        <time>2020-10-19T10:35:43Z</time>
      </trkpt>
      <trkpt lat="42.8448170" lon="-7.7505390">
        <ele>707.0</ele>
        <time>2020-10-19T10:35:44Z</time>
      </trkpt>
      <trkpt lat="42.8448220" lon="-7.7505520">
        <ele>707.1</ele>
        <time>2020-10-19T10:35:45Z</time>
      </trkpt>
      <trkpt lat="42.8448270" lon="-7.7505650">
        <ele>707.1</ele>
        <time>2020-10-19T10:35:46Z</time>
      </trkpt>
      <trkpt lat="42.8448330" lon="-7.7505780">
        <ele>707.2</ele>
        <time>2020-10-19T10:35:47Z</time>
      </trkpt>
      <trkpt lat="42.8448380" lon="-7.7505930">
        <ele>707.3</ele>
        <time>2020-10-19T10:35:48Z</time>
      </trkpt>
      <trkpt lat="42.8448440" lon="-7.7506080">
        <ele>707.3</ele>
        <time>2020-10-19T10:35:49Z</time>
      </trkpt>
      <trkpt lat="42.8448500" lon="-7.7506230">
        <ele>707.4</ele>
        <time>2020-10-19T10:35:50Z</time>
      </trkpt>
      <trkpt lat="42.8448550" lon="-7.7506370">
        <ele>707.5</ele>
        <time>2020-10-19T10:35:51Z</time>
      </trkpt>
      <trkpt lat="42.8448600" lon="-7.7506520">
        <ele>707.5</ele>
        <time>2020-10-19T10:35:52Z</time>
      </trkpt>
      <trkpt lat="42.8448660" lon="-7.7506670">
        <ele>707.6</ele>
        <time>2020-10-19T10:35:53Z</time>
      </trkpt>
      <trkpt lat="42.8448720" lon="-7.7506830">
        <ele>707.7</ele>
        <time>2020-10-19T10:35:54Z</time>
      </trkpt>
      <trkpt lat="42.8448780" lon="-7.7506990">
        <ele>707.8</ele>
        <time>2020-10-19T10:35:55Z</time>
      </trkpt>
      <trkpt lat="42.8448830" lon="-7.7507160">
        <ele>707.8</ele>
        <time>2020-10-19T10:35:56Z</time>
      </trkpt>
      <trkpt lat="42.8448890" lon="-7.7507320">
        <ele>707.9</ele>
        <time>2020-10-19T10:35:57Z</time>
      </trkpt>
      <trkpt lat="42.8448940" lon="-7.7507480">
        <ele>708.0</ele>
        <time>2020-10-19T10:35:58Z</time>
      </trkpt>
      <trkpt lat="42.8448980" lon="-7.7507640">
        <ele>708.1</ele>
        <time>2020-10-19T10:35:59Z</time>
      </trkpt>
      <trkpt lat="42.8449010" lon="-7.7507800">
        <ele>708.1</ele>
        <time>2020-10-19T10:36:00Z</time>
      </trkpt>
      <trkpt lat="42.8449040" lon="-7.7507970">
        <ele>708.2</ele>
        <time>2020-10-19T10:36:01Z</time>
      </trkpt>
      <trkpt lat="42.8449080" lon="-7.7508120">
        <ele>708.3</ele>
        <time>2020-10-19T10:36:02Z</time>
      </trkpt>
      <trkpt lat="42.8449120" lon="-7.7508280">
        <ele>708.3</ele>
        <time>2020-10-19T10:36:03Z</time>
      </trkpt>
      <trkpt lat="42.8449160" lon="-7.7508430">
        <ele>708.4</ele>
        <time>2020-10-19T10:36:04Z</time>
      </trkpt>
      <trkpt lat="42.8449210" lon="-7.7508610">
        <ele>708.5</ele>
        <time>2020-10-19T10:36:05Z</time>
      </trkpt>
      <trkpt lat="42.8449250" lon="-7.7508770">
        <ele>708.6</ele>
        <time>2020-10-19T10:36:06Z</time>
      </trkpt>
      <trkpt lat="42.8449280" lon="-7.7508950">
        <ele>708.6</ele>
        <time>2020-10-19T10:36:07Z</time>
      </trkpt>
      <trkpt lat="42.8449310" lon="-7.7509120">
        <ele>708.7</ele>
        <time>2020-10-19T10:36:08Z</time>
      </trkpt>
      <trkpt lat="42.8449360" lon="-7.7509280">
        <ele>708.8</ele>
        <time>2020-10-19T10:36:09Z</time>
      </trkpt>
      <trkpt lat="42.8449410" lon="-7.7509430">
        <ele>708.9</ele>
        <time>2020-10-19T10:36:10Z</time>
      </trkpt>
      <trkpt lat="42.8449470" lon="-7.7509580">
        <ele>708.9</ele>
        <time>2020-10-19T10:36:11Z</time>
      </trkpt>
      <trkpt lat="42.8449530" lon="-7.7509730">
        <ele>709.0</ele>
        <time>2020-10-19T10:36:12Z</time>
      </trkpt>
      <trkpt lat="42.8449570" lon="-7.7509870">
        <ele>709.1</ele>
        <time>2020-10-19T10:36:13Z</time>
      </trkpt>
      <trkpt lat="42.8449600" lon="-7.7510030">
        <ele>709.1</ele>
        <time>2020-10-19T10:36:14Z</time>
      </trkpt>
      <trkpt lat="42.8449640" lon="-7.7510190">
        <ele>709.2</ele>
        <time>2020-10-19T10:36:15Z</time>
      </trkpt>
      <trkpt lat="42.8449680" lon="-7.7510350">
        <ele>709.3</ele>
        <time>2020-10-19T10:36:16Z</time>
      </trkpt>
      <trkpt lat="42.8449710" lon="-7.7510510">
        <ele>709.3</ele>
        <time>2020-10-19T10:36:17Z</time>
      </trkpt>
      <trkpt lat="42.8449750" lon="-7.7510660">
        <ele>709.4</ele>
        <time>2020-10-19T10:36:18Z</time>
      </trkpt>
      <trkpt lat="42.8449790" lon="-7.7510810">
        <ele>709.5</ele>
        <time>2020-10-19T10:36:19Z</time>
      </trkpt>
      <trkpt lat="42.8449830" lon="-7.7510970">
        <ele>709.5</ele>
        <time>2020-10-19T10:36:20Z</time>
      </trkpt>
      <trkpt lat="42.8449870" lon="-7.7511140">
        <ele>709.6</ele>
        <time>2020-10-19T10:36:21Z</time>
      </trkpt>
      <trkpt lat="42.8449910" lon="-7.7511310">
        <ele>709.7</ele>
        <time>2020-10-19T10:36:22Z</time>
      </trkpt>
      <trkpt lat="42.8449950" lon="-7.7511480">
        <ele>709.8</ele>
        <time>2020-10-19T10:36:23Z</time>
      </trkpt>
      <trkpt lat="42.8450000" lon="-7.7511630">
        <ele>709.9</ele>
        <time>2020-10-19T10:36:24Z</time>
      </trkpt>
      <trkpt lat="42.8450060" lon="-7.7511780">
        <ele>709.9</ele>
        <time>2020-10-19T10:36:25Z</time>
      </trkpt>
      <trkpt lat="42.8450120" lon="-7.7511930">
        <ele>710.0</ele>
        <time>2020-10-19T10:36:26Z</time>
      </trkpt>
      <trkpt lat="42.8450150" lon="-7.7512090">
        <ele>710.1</ele>
        <time>2020-10-19T10:36:27Z</time>
      </trkpt>
      <trkpt lat="42.8450180" lon="-7.7512260">
        <ele>710.2</ele>
        <time>2020-10-19T10:36:28Z</time>
      </trkpt>
      <trkpt lat="42.8450200" lon="-7.7512430">
        <ele>710.2</ele>
        <time>2020-10-19T10:36:29Z</time>
      </trkpt>
      <trkpt lat="42.8450240" lon="-7.7512610">
        <ele>710.3</ele>
        <time>2020-10-19T10:36:30Z</time>
      </trkpt>
      <trkpt lat="42.8450280" lon="-7.7512760">
        <ele>710.4</ele>
        <time>2020-10-19T10:36:31Z</time>
      </trkpt>
      <trkpt lat="42.8450320" lon="-7.7512920">
        <ele>710.5</ele>
        <time>2020-10-19T10:36:32Z</time>
      </trkpt>
      <trkpt lat="42.8450360" lon="-7.7513070">
        <ele>710.5</ele>
        <time>2020-10-19T10:36:33Z</time>
      </trkpt>
      <trkpt lat="42.8450410" lon="-7.7513230">
        <ele>710.6</ele>
        <time>2020-10-19T10:36:34Z</time>
      </trkpt>
      <trkpt lat="42.8450460" lon="-7.7513380">
        <ele>710.7</ele>
        <time>2020-10-19T10:36:35Z</time>
      </trkpt>
      <trkpt lat="42.8450500" lon="-7.7513540">
        <ele>710.8</ele>
        <time>2020-10-19T10:36:36Z</time>
      </trkpt>
      <trkpt lat="42.8450540" lon="-7.7513690">
        <ele>710.8</ele>
        <time>2020-10-19T10:36:37Z</time>
      </trkpt>
      <trkpt lat="42.8450580" lon="-7.7513850">
        <ele>710.9</ele>
        <time>2020-10-19T10:36:38Z</time>
      </trkpt>
      <trkpt lat="42.8450620" lon="-7.7514010">
        <ele>711.0</ele>
        <time>2020-10-19T10:36:39Z</time>
      </trkpt>
      <trkpt lat="42.8450660" lon="-7.7514170">
        <ele>711.0</ele>
        <time>2020-10-19T10:36:40Z</time>
      </trkpt>
      <trkpt lat="42.8450710" lon="-7.7514310">
        <ele>711.1</ele>
        <time>2020-10-19T10:36:41Z</time>
      </trkpt>
      <trkpt lat="42.8450750" lon="-7.7514440">
        <ele>711.2</ele>
        <time>2020-10-19T10:36:42Z</time>
      </trkpt>
      <trkpt lat="42.8450810" lon="-7.7514570">
        <ele>711.3</ele>
        <time>2020-10-19T10:36:43Z</time>
      </trkpt>
      <trkpt lat="42.8450850" lon="-7.7514700">
        <ele>711.3</ele>
        <time>2020-10-19T10:36:44Z</time>
      </trkpt>
      <trkpt lat="42.8450890" lon="-7.7514840">
        <ele>711.4</ele>
        <time>2020-10-19T10:36:45Z</time>
      </trkpt>
      <trkpt lat="42.8450930" lon="-7.7514980">
        <ele>711.5</ele>
        <time>2020-10-19T10:36:46Z</time>
      </trkpt>
      <trkpt lat="42.8450960" lon="-7.7515140">
        <ele>711.5</ele>
        <time>2020-10-19T10:36:47Z</time>
      </trkpt>
      <trkpt lat="42.8451000" lon="-7.7515300">
        <ele>711.6</ele>
        <time>2020-10-19T10:36:48Z</time>
      </trkpt>
      <trkpt lat="42.8451020" lon="-7.7515460">
        <ele>711.7</ele>
        <time>2020-10-19T10:36:49Z</time>
      </trkpt>
      <trkpt lat="42.8451010" lon="-7.7515600">
        <ele>711.8</ele>
        <time>2020-10-19T10:36:50Z</time>
      </trkpt>
      <trkpt lat="42.8450960" lon="-7.7515750">
        <ele>711.8</ele>
        <time>2020-10-19T10:36:51Z</time>
      </trkpt>
      <trkpt lat="42.8450900" lon="-7.7515900">
        <ele>711.9</ele>
        <time>2020-10-19T10:36:52Z</time>
      </trkpt>
      <trkpt lat="42.8450860" lon="-7.7516060">
        <ele>712.0</ele>
        <time>2020-10-19T10:36:53Z</time>
      </trkpt>
      <trkpt lat="42.8450850" lon="-7.7516220">
        <ele>712.1</ele>
        <time>2020-10-19T10:36:54Z</time>
      </trkpt>
      <trkpt lat="42.8450850" lon="-7.7516400">
        <ele>712.2</ele>
        <time>2020-10-19T10:36:55Z</time>
      </trkpt>
      <trkpt lat="42.8450860" lon="-7.7516590">
        <ele>712.3</ele>
        <time>2020-10-19T10:36:56Z</time>
      </trkpt>
      <trkpt lat="42.8450900" lon="-7.7516780">
        <ele>712.4</ele>
        <time>2020-10-19T10:36:57Z</time>
      </trkpt>
      <trkpt lat="42.8450950" lon="-7.7516960">
        <ele>712.5</ele>
        <time>2020-10-19T10:36:58Z</time>
      </trkpt>
      <trkpt lat="42.8451000" lon="-7.7517120">
        <ele>712.6</ele>
        <time>2020-10-19T10:36:59Z</time>
      </trkpt>
      <trkpt lat="42.8451050" lon="-7.7517280">
        <ele>712.7</ele>
        <time>2020-10-19T10:37:00Z</time>
      </trkpt>
      <trkpt lat="42.8451090" lon="-7.7517430">
        <ele>712.7</ele>
        <time>2020-10-19T10:37:01Z</time>
      </trkpt>
      <trkpt lat="42.8451130" lon="-7.7517580">
        <ele>712.8</ele>
        <time>2020-10-19T10:37:02Z</time>
      </trkpt>
      <trkpt lat="42.8451170" lon="-7.7517720">
        <ele>712.9</ele>
        <time>2020-10-19T10:37:03Z</time>
      </trkpt>
      <trkpt lat="42.8451220" lon="-7.7517860">
        <ele>713.0</ele>
        <time>2020-10-19T10:37:04Z</time>
      </trkpt>
      <trkpt lat="42.8451270" lon="-7.7518010">
        <ele>713.1</ele>
        <time>2020-10-19T10:37:05Z</time>
      </trkpt>
      <trkpt lat="42.8451330" lon="-7.7518140">
        <ele>713.2</ele>
        <time>2020-10-19T10:37:06Z</time>
      </trkpt>
      <trkpt lat="42.8451390" lon="-7.7518270">
        <ele>713.3</ele>
        <time>2020-10-19T10:37:07Z</time>
      </trkpt>
      <trkpt lat="42.8451450" lon="-7.7518400">
        <ele>713.4</ele>
        <time>2020-10-19T10:37:08Z</time>
      </trkpt>
      <trkpt lat="42.8451510" lon="-7.7518540">
        <ele>713.5</ele>
        <time>2020-10-19T10:37:09Z</time>
      </trkpt>
      <trkpt lat="42.8451560" lon="-7.7518680">
        <ele>713.6</ele>
        <time>2020-10-19T10:37:10Z</time>
      </trkpt>
      <trkpt lat="42.8451610" lon="-7.7518820">
        <ele>713.6</ele>
        <time>2020-10-19T10:37:11Z</time>
      </trkpt>
      <trkpt lat="42.8451670" lon="-7.7518950">
        <ele>713.7</ele>
        <time>2020-10-19T10:37:12Z</time>
      </trkpt>
      <trkpt lat="42.8451730" lon="-7.7519080">
        <ele>713.8</ele>
        <time>2020-10-19T10:37:13Z</time>
      </trkpt>
      <trkpt lat="42.8451790" lon="-7.7519210">
        <ele>713.9</ele>
        <time>2020-10-19T10:37:14Z</time>
      </trkpt>
      <trkpt lat="42.8451850" lon="-7.7519340">
        <ele>714.0</ele>
        <time>2020-10-19T10:37:15Z</time>
      </trkpt>
      <trkpt lat="42.8451910" lon="-7.7519460">
        <ele>714.1</ele>
        <time>2020-10-19T10:37:16Z</time>
      </trkpt>
      <trkpt lat="42.8451960" lon="-7.7519570">
        <ele>714.2</ele>
        <time>2020-10-19T10:37:17Z</time>
      </trkpt>
      <trkpt lat="42.8451990" lon="-7.7519690">
        <ele>714.2</ele>
        <time>2020-10-19T10:37:18Z</time>
      </trkpt>
      <trkpt lat="42.8452030" lon="-7.7519820">
        <ele>714.3</ele>
        <time>2020-10-19T10:37:19Z</time>
      </trkpt>
      <trkpt lat="42.8452070" lon="-7.7519960">
        <ele>714.4</ele>
        <time>2020-10-19T10:37:20Z</time>
      </trkpt>
      <trkpt lat="42.8452130" lon="-7.7520090">
        <ele>714.5</ele>
        <time>2020-10-19T10:37:21Z</time>
      </trkpt>
      <trkpt lat="42.8452190" lon="-7.7520220">
        <ele>714.6</ele>
        <time>2020-10-19T10:37:22Z</time>
      </trkpt>
      <trkpt lat="42.8452260" lon="-7.7520340">
        <ele>714.7</ele>
        <time>2020-10-19T10:37:23Z</time>
      </trkpt>
      <trkpt lat="42.8452330" lon="-7.7520480">
        <ele>714.8</ele>
        <time>2020-10-19T10:37:24Z</time>
      </trkpt>
      <trkpt lat="42.8452400" lon="-7.7520620">
        <ele>714.9</ele>
        <time>2020-10-19T10:37:25Z</time>
      </trkpt>
      <trkpt lat="42.8452440" lon="-7.7520770">
        <ele>715.0</ele>
        <time>2020-10-19T10:37:26Z</time>
      </trkpt>
      <trkpt lat="42.8452470" lon="-7.7520920">
        <ele>715.0</ele>
        <time>2020-10-19T10:37:27Z</time>
      </trkpt>
      <trkpt lat="42.8452510" lon="-7.7521070">
        <ele>715.1</ele>
        <time>2020-10-19T10:37:28Z</time>
      </trkpt>
      <trkpt lat="42.8452550" lon="-7.7521200">
        <ele>715.2</ele>
        <time>2020-10-19T10:37:29Z</time>
      </trkpt>
      <trkpt lat="42.8452610" lon="-7.7521350">
        <ele>715.3</ele>
        <time>2020-10-19T10:37:30Z</time>
      </trkpt>
      <trkpt lat="42.8452650" lon="-7.7521460">
        <ele>715.4</ele>
        <time>2020-10-19T10:37:31Z</time>
      </trkpt>
      <trkpt lat="42.8452710" lon="-7.7521580">
        <ele>715.4</ele>
        <time>2020-10-19T10:37:32Z</time>
      </trkpt>
      <trkpt lat="42.8452750" lon="-7.7521720">
        <ele>715.5</ele>
        <time>2020-10-19T10:37:33Z</time>
      </trkpt>
      <trkpt lat="42.8452800" lon="-7.7521880">
        <ele>715.6</ele>
        <time>2020-10-19T10:37:34Z</time>
      </trkpt>
      <trkpt lat="42.8452830" lon="-7.7522050">
        <ele>715.7</ele>
        <time>2020-10-19T10:37:35Z</time>
      </trkpt>
      <trkpt lat="42.8452860" lon="-7.7522220">
        <ele>715.8</ele>
        <time>2020-10-19T10:37:36Z</time>
      </trkpt>
      <trkpt lat="42.8452890" lon="-7.7522390">
        <ele>715.9</ele>
        <time>2020-10-19T10:37:37Z</time>
      </trkpt>
      <trkpt lat="42.8452910" lon="-7.7522550">
        <ele>716.0</ele>
        <time>2020-10-19T10:37:38Z</time>
      </trkpt>
      <trkpt lat="42.8452960" lon="-7.7522700">
        <ele>716.0</ele>
        <time>2020-10-19T10:37:39Z</time>
      </trkpt>
      <trkpt lat="42.8453010" lon="-7.7522860">
        <ele>716.1</ele>
        <time>2020-10-19T10:37:40Z</time>
      </trkpt>
      <trkpt lat="42.8453080" lon="-7.7523010">
        <ele>716.2</ele>
        <time>2020-10-19T10:37:41Z</time>
      </trkpt>
      <trkpt lat="42.8453150" lon="-7.7523160">
        <ele>716.3</ele>
        <time>2020-10-19T10:37:42Z</time>
      </trkpt>
      <trkpt lat="42.8453190" lon="-7.7523310">
        <ele>716.4</ele>
        <time>2020-10-19T10:37:43Z</time>
      </trkpt>
      <trkpt lat="42.8453220" lon="-7.7523440">
        <ele>716.5</ele>
        <time>2020-10-19T10:37:44Z</time>
      </trkpt>
      <trkpt lat="42.8453240" lon="-7.7523570">
        <ele>716.5</ele>
        <time>2020-10-19T10:37:45Z</time>
      </trkpt>
      <trkpt lat="42.8453270" lon="-7.7523710">
        <ele>716.6</ele>
        <time>2020-10-19T10:37:46Z</time>
      </trkpt>
      <trkpt lat="42.8453310" lon="-7.7523850">
        <ele>716.7</ele>
        <time>2020-10-19T10:37:47Z</time>
      </trkpt>
      <trkpt lat="42.8453360" lon="-7.7523990">
        <ele>716.8</ele>
        <time>2020-10-19T10:37:48Z</time>
      </trkpt>
      <trkpt lat="42.8453430" lon="-7.7524140">
        <ele>716.9</ele>
        <time>2020-10-19T10:37:49Z</time>
      </trkpt>
      <trkpt lat="42.8453480" lon="-7.7524300">
        <ele>716.9</ele>
        <time>2020-10-19T10:37:50Z</time>
      </trkpt>
      <trkpt lat="42.8453540" lon="-7.7524470">
        <ele>717.0</ele>
        <time>2020-10-19T10:37:51Z</time>
      </trkpt>
      <trkpt lat="42.8453580" lon="-7.7524640">
        <ele>717.1</ele>
        <time>2020-10-19T10:37:52Z</time>
      </trkpt>
      <trkpt lat="42.8453620" lon="-7.7524810">
        <ele>717.2</ele>
        <time>2020-10-19T10:37:53Z</time>
      </trkpt>
      <trkpt lat="42.8453660" lon="-7.7524990">
        <ele>717.3</ele>
        <time>2020-10-19T10:37:54Z</time>
      </trkpt>
      <trkpt lat="42.8453700" lon="-7.7525160">
        <ele>717.4</ele>
        <time>2020-10-19T10:37:55Z</time>
      </trkpt>
      <trkpt lat="42.8453760" lon="-7.7525330">
        <ele>717.5</ele>
        <time>2020-10-19T10:37:56Z</time>
      </trkpt>
      <trkpt lat="42.8453800" lon="-7.7525500">
        <ele>717.6</ele>
        <time>2020-10-19T10:37:57Z</time>
      </trkpt>
      <trkpt lat="42.8453830" lon="-7.7525660">
        <ele>717.7</ele>
        <time>2020-10-19T10:37:58Z</time>
      </trkpt>
      <trkpt lat="42.8453870" lon="-7.7525820">
        <ele>717.8</ele>
        <time>2020-10-19T10:37:59Z</time>
      </trkpt>
      <trkpt lat="42.8453910" lon="-7.7525980">
        <ele>717.8</ele>
        <time>2020-10-19T10:38:00Z</time>
      </trkpt>
      <trkpt lat="42.8453960" lon="-7.7526140">
        <ele>717.9</ele>
        <time>2020-10-19T10:38:01Z</time>
      </trkpt>
      <trkpt lat="42.8454000" lon="-7.7526310">
        <ele>718.0</ele>
        <time>2020-10-19T10:38:02Z</time>
      </trkpt>
      <trkpt lat="42.8454040" lon="-7.7526480">
        <ele>718.1</ele>
        <time>2020-10-19T10:38:03Z</time>
      </trkpt>
      <trkpt lat="42.8454080" lon="-7.7526650">
        <ele>718.2</ele>
        <time>2020-10-19T10:38:04Z</time>
      </trkpt>
      <trkpt lat="42.8454120" lon="-7.7526800">
        <ele>718.2</ele>
        <time>2020-10-19T10:38:05Z</time>
      </trkpt>
      <trkpt lat="42.8454160" lon="-7.7526960">
        <ele>718.3</ele>
        <time>2020-10-19T10:38:06Z</time>
      </trkpt>
      <trkpt lat="42.8454200" lon="-7.7527110">
        <ele>718.4</ele>
        <time>2020-10-19T10:38:07Z</time>
      </trkpt>
      <trkpt lat="42.8454240" lon="-7.7527260">
        <ele>718.5</ele>
        <time>2020-10-19T10:38:08Z</time>
      </trkpt>
      <trkpt lat="42.8454270" lon="-7.7527420">
        <ele>718.5</ele>
        <time>2020-10-19T10:38:09Z</time>
      </trkpt>
      <trkpt lat="42.8454290" lon="-7.7527570">
        <ele>718.6</ele>
        <time>2020-10-19T10:38:10Z</time>
      </trkpt>
      <trkpt lat="42.8454300" lon="-7.7527720">
        <ele>718.7</ele>
        <time>2020-10-19T10:38:11Z</time>
      </trkpt>
      <trkpt lat="42.8454300" lon="-7.7527860">
        <ele>718.8</ele>
        <time>2020-10-19T10:38:12Z</time>
      </trkpt>
      <trkpt lat="42.8454290" lon="-7.7528020">
        <ele>718.8</ele>
        <time>2020-10-19T10:38:13Z</time>
      </trkpt>
      <trkpt lat="42.8454280" lon="-7.7528180">
        <ele>718.9</ele>
        <time>2020-10-19T10:38:14Z</time>
      </trkpt>
      <trkpt lat="42.8454270" lon="-7.7528350">
        <ele>719.0</ele>
        <time>2020-10-19T10:38:15Z</time>
      </trkpt>
      <trkpt lat="42.8454260" lon="-7.7528520">
        <ele>719.1</ele>
        <time>2020-10-19T10:38:16Z</time>
      </trkpt>
      <trkpt lat="42.8454250" lon="-7.7528700">
        <ele>719.1</ele>
        <time>2020-10-19T10:38:17Z</time>
      </trkpt>
      <trkpt lat="42.8454250" lon="-7.7528870">
        <ele>719.2</ele>
        <time>2020-10-19T10:38:18Z</time>
      </trkpt>
      <trkpt lat="42.8454260" lon="-7.7529050">
        <ele>719.3</ele>
        <time>2020-10-19T10:38:19Z</time>
      </trkpt>
      <trkpt lat="42.8454280" lon="-7.7529230">
        <ele>719.4</ele>
        <time>2020-10-19T10:38:20Z</time>
      </trkpt>
      <trkpt lat="42.8454290" lon="-7.7529420">
        <ele>719.5</ele>
        <time>2020-10-19T10:38:21Z</time>
      </trkpt>
      <trkpt lat="42.8454290" lon="-7.7529610">
        <ele>719.5</ele>
        <time>2020-10-19T10:38:22Z</time>
      </trkpt>
      <trkpt lat="42.8454280" lon="-7.7529800">
        <ele>719.6</ele>
        <time>2020-10-19T10:38:23Z</time>
      </trkpt>
      <trkpt lat="42.8454270" lon="-7.7529970">
        <ele>719.7</ele>
        <time>2020-10-19T10:38:24Z</time>
      </trkpt>
      <trkpt lat="42.8454260" lon="-7.7530130">
        <ele>719.8</ele>
        <time>2020-10-19T10:38:25Z</time>
      </trkpt>
      <trkpt lat="42.8454260" lon="-7.7530300">
        <ele>719.8</ele>
        <time>2020-10-19T10:38:26Z</time>
      </trkpt>
      <trkpt lat="42.8454250" lon="-7.7530490">
        <ele>719.9</ele>
        <time>2020-10-19T10:38:27Z</time>
      </trkpt>
      <trkpt lat="42.8454240" lon="-7.7530670">
        <ele>720.0</ele>
        <time>2020-10-19T10:38:28Z</time>
      </trkpt>
      <trkpt lat="42.8454230" lon="-7.7530850">
        <ele>720.1</ele>
        <time>2020-10-19T10:38:29Z</time>
      </trkpt>
      <trkpt lat="42.8454240" lon="-7.7531030">
        <ele>720.1</ele>
        <time>2020-10-19T10:38:30Z</time>
      </trkpt>
      <trkpt lat="42.8454260" lon="-7.7531200">
        <ele>720.2</ele>
        <time>2020-10-19T10:38:31Z</time>
      </trkpt>
      <trkpt lat="42.8454270" lon="-7.7531370">
        <ele>720.3</ele>
        <time>2020-10-19T10:38:32Z</time>
      </trkpt>
      <trkpt lat="42.8454270" lon="-7.7531550">
        <ele>720.4</ele>
        <time>2020-10-19T10:38:33Z</time>
      </trkpt>
      <trkpt lat="42.8454250" lon="-7.7531730">
        <ele>720.4</ele>
        <time>2020-10-19T10:38:34Z</time>
      </trkpt>
      <trkpt lat="42.8454230" lon="-7.7531910">
        <ele>720.5</ele>
        <time>2020-10-19T10:38:35Z</time>
      </trkpt>
      <trkpt lat="42.8454220" lon="-7.7532070">
        <ele>720.6</ele>
        <time>2020-10-19T10:38:36Z</time>
      </trkpt>
      <trkpt lat="42.8454220" lon="-7.7532230">
        <ele>720.7</ele>
        <time>2020-10-19T10:38:37Z</time>
      </trkpt>
      <trkpt lat="42.8454200" lon="-7.7532390">
        <ele>720.7</ele>
        <time>2020-10-19T10:38:38Z</time>
      </trkpt>
      <trkpt lat="42.8454190" lon="-7.7532550">
        <ele>720.8</ele>
        <time>2020-10-19T10:38:39Z</time>
      </trkpt>
      <trkpt lat="42.8454190" lon="-7.7532720">
        <ele>720.9</ele>
        <time>2020-10-19T10:38:40Z</time>
      </trkpt>
      <trkpt lat="42.8454200" lon="-7.7532900">
        <ele>721.0</ele>
        <time>2020-10-19T10:38:41Z</time>
      </trkpt>
      <trkpt lat="42.8454210" lon="-7.7533090">
        <ele>721.1</ele>
        <time>2020-10-19T10:38:42Z</time>
      </trkpt>
      <trkpt lat="42.8454190" lon="-7.7533280">
        <ele>721.1</ele>
        <time>2020-10-19T10:38:43Z</time>
      </trkpt>
      <trkpt lat="42.8454180" lon="-7.7533460">
        <ele>721.2</ele>
        <time>2020-10-19T10:38:44Z</time>
      </trkpt>
      <trkpt lat="42.8454180" lon="-7.7533640">
        <ele>721.3</ele>
        <time>2020-10-19T10:38:45Z</time>
      </trkpt>
      <trkpt lat="42.8454170" lon="-7.7533830">
        <ele>721.4</ele>
        <time>2020-10-19T10:38:46Z</time>
      </trkpt>
      <trkpt lat="42.8454160" lon="-7.7534010">
        <ele>721.5</ele>
        <time>2020-10-19T10:38:47Z</time>
      </trkpt>
      <trkpt lat="42.8454160" lon="-7.7534190">
        <ele>721.6</ele>
        <time>2020-10-19T10:38:48Z</time>
      </trkpt>
      <trkpt lat="42.8454150" lon="-7.7534360">
        <ele>721.7</ele>
        <time>2020-10-19T10:38:49Z</time>
      </trkpt>
      <trkpt lat="42.8454140" lon="-7.7534530">
        <ele>721.7</ele>
        <time>2020-10-19T10:38:50Z</time>
      </trkpt>
      <trkpt lat="42.8454120" lon="-7.7534710">
        <ele>721.8</ele>
        <time>2020-10-19T10:38:51Z</time>
      </trkpt>
      <trkpt lat="42.8454120" lon="-7.7534890">
        <ele>721.9</ele>
        <time>2020-10-19T10:38:52Z</time>
      </trkpt>
      <trkpt lat="42.8454120" lon="-7.7535070">
        <ele>722.0</ele>
        <time>2020-10-19T10:38:53Z</time>
      </trkpt>
      <trkpt lat="42.8454120" lon="-7.7535240">
        <ele>722.1</ele>
        <time>2020-10-19T10:38:54Z</time>
      </trkpt>
      <trkpt lat="42.8454130" lon="-7.7535410">
        <ele>722.1</ele>
        <time>2020-10-19T10:38:55Z</time>
      </trkpt>
      <trkpt lat="42.8454140" lon="-7.7535580">
        <ele>722.2</ele>
        <time>2020-10-19T10:38:56Z</time>
      </trkpt>
      <trkpt lat="42.8454160" lon="-7.7535740">
        <ele>722.3</ele>
        <time>2020-10-19T10:38:57Z</time>
      </trkpt>
      <trkpt lat="42.8454160" lon="-7.7535910">
        <ele>722.3</ele>
        <time>2020-10-19T10:38:58Z</time>
      </trkpt>
      <trkpt lat="42.8454160" lon="-7.7536070">
        <ele>722.4</ele>
        <time>2020-10-19T10:38:59Z</time>
      </trkpt>
      <trkpt lat="42.8454170" lon="-7.7536230">
        <ele>722.4</ele>
        <time>2020-10-19T10:39:00Z</time>
      </trkpt>
      <trkpt lat="42.8454170" lon="-7.7536400">
        <ele>722.5</ele>
        <time>2020-10-19T10:39:01Z</time>
      </trkpt>
      <trkpt lat="42.8454170" lon="-7.7536560">
        <ele>722.5</ele>
        <time>2020-10-19T10:39:02Z</time>
      </trkpt>
      <trkpt lat="42.8454150" lon="-7.7536740">
        <ele>722.6</ele>
        <time>2020-10-19T10:39:03Z</time>
      </trkpt>
      <trkpt lat="42.8454140" lon="-7.7536910">
        <ele>722.6</ele>
        <time>2020-10-19T10:39:04Z</time>
      </trkpt>
      <trkpt lat="42.8454140" lon="-7.7537080">
        <ele>722.7</ele>
        <time>2020-10-19T10:39:05Z</time>
      </trkpt>
      <trkpt lat="42.8454140" lon="-7.7537240">
        <ele>722.7</ele>
        <time>2020-10-19T10:39:06Z</time>
      </trkpt>
      <trkpt lat="42.8454150" lon="-7.7537400">
        <ele>722.7</ele>
        <time>2020-10-19T10:39:07Z</time>
      </trkpt>
      <trkpt lat="42.8454160" lon="-7.7537560">
        <ele>722.8</ele>
        <time>2020-10-19T10:39:08Z</time>
      </trkpt>
      <trkpt lat="42.8454180" lon="-7.7537720">
        <ele>722.8</ele>
        <time>2020-10-19T10:39:09Z</time>
      </trkpt>
      <trkpt lat="42.8454180" lon="-7.7537880">
        <ele>722.8</ele>
        <time>2020-10-19T10:39:10Z</time>
      </trkpt>
      <trkpt lat="42.8454190" lon="-7.7538060">
        <ele>722.9</ele>
        <time>2020-10-19T10:39:11Z</time>
      </trkpt>
      <trkpt lat="42.8454200" lon="-7.7538230">
        <ele>722.9</ele>
        <time>2020-10-19T10:39:12Z</time>
      </trkpt>
      <trkpt lat="42.8454220" lon="-7.7538400">
        <ele>722.9</ele>
        <time>2020-10-19T10:39:13Z</time>
      </trkpt>
      <trkpt lat="42.8454230" lon="-7.7538580">
        <ele>723.0</ele>
        <time>2020-10-19T10:39:14Z</time>
      </trkpt>
      <trkpt lat="42.8454250" lon="-7.7538750">
        <ele>723.0</ele>
        <time>2020-10-19T10:39:15Z</time>
      </trkpt>
      <trkpt lat="42.8454270" lon="-7.7538930">
        <ele>723.0</ele>
        <time>2020-10-19T10:39:16Z</time>
      </trkpt>
      <trkpt lat="42.8454290" lon="-7.7539110">
        <ele>723.0</ele>
        <time>2020-10-19T10:39:17Z</time>
      </trkpt>
      <trkpt lat="42.8454310" lon="-7.7539270">
        <ele>723.1</ele>
        <time>2020-10-19T10:39:18Z</time>
      </trkpt>
      <trkpt lat="42.8454330" lon="-7.7539430">
        <ele>723.1</ele>
        <time>2020-10-19T10:39:19Z</time>
      </trkpt>
      <trkpt lat="42.8454350" lon="-7.7539590">
        <ele>723.1</ele>
        <time>2020-10-19T10:39:20Z</time>
      </trkpt>
      <trkpt lat="42.8454370" lon="-7.7539740">
        <ele>723.1</ele>
        <time>2020-10-19T10:39:21Z</time>
      </trkpt>
      <trkpt lat="42.8454390" lon="-7.7539900">
        <ele>723.1</ele>
        <time>2020-10-19T10:39:22Z</time>
      </trkpt>
      <trkpt lat="42.8454410" lon="-7.7540070">
        <ele>723.1</ele>
        <time>2020-10-19T10:39:23Z</time>
      </trkpt>
      <trkpt lat="42.8454420" lon="-7.7540230">
        <ele>723.1</ele>
        <time>2020-10-19T10:39:24Z</time>
      </trkpt>
      <trkpt lat="42.8454440" lon="-7.7540400">
        <ele>723.1</ele>
        <time>2020-10-19T10:39:25Z</time>
      </trkpt>
      <trkpt lat="42.8454450" lon="-7.7540580">
        <ele>723.1</ele>
        <time>2020-10-19T10:39:26Z</time>
      </trkpt>
      <trkpt lat="42.8454460" lon="-7.7540770">
        <ele>723.1</ele>
        <time>2020-10-19T10:39:27Z</time>
      </trkpt>
      <trkpt lat="42.8454480" lon="-7.7540940">
        <ele>723.2</ele>
        <time>2020-10-19T10:39:28Z</time>
      </trkpt>
      <trkpt lat="42.8454500" lon="-7.7541110">
        <ele>723.2</ele>
        <time>2020-10-19T10:39:29Z</time>
      </trkpt>
      <trkpt lat="42.8454520" lon="-7.7541260">
        <ele>723.2</ele>
        <time>2020-10-19T10:39:30Z</time>
      </trkpt>
      <trkpt lat="42.8454540" lon="-7.7541420">
        <ele>723.2</ele>
        <time>2020-10-19T10:39:31Z</time>
      </trkpt>
      <trkpt lat="42.8454570" lon="-7.7541570">
        <ele>723.2</ele>
        <time>2020-10-19T10:39:32Z</time>
      </trkpt>
      <trkpt lat="42.8454590" lon="-7.7541720">
        <ele>723.2</ele>
        <time>2020-10-19T10:39:33Z</time>
      </trkpt>
      <trkpt lat="42.8454620" lon="-7.7541890">
        <ele>723.2</ele>
        <time>2020-10-19T10:39:34Z</time>
      </trkpt>
      <trkpt lat="42.8454640" lon="-7.7542060">
        <ele>723.2</ele>
        <time>2020-10-19T10:39:35Z</time>
      </trkpt>
      <trkpt lat="42.8454670" lon="-7.7542210">
        <ele>723.2</ele>
        <time>2020-10-19T10:39:36Z</time>
      </trkpt>
      <trkpt lat="42.8454670" lon="-7.7542290">
        <ele>723.2</ele>
        <time>2020-10-19T10:39:37Z</time>
      </trkpt>
      <trkpt lat="42.8454660" lon="-7.7542340">
        <ele>723.2</ele>
        <time>2020-10-19T10:39:38Z</time>
      </trkpt>
      <trkpt lat="42.8454620" lon="-7.7542300">
        <ele>723.1</ele>
        <time>2020-10-19T10:39:39Z</time>
      </trkpt>
      <trkpt lat="42.8454580" lon="-7.7542270">
        <ele>723.1</ele>
        <time>2020-10-19T10:39:40Z</time>
      </trkpt>
      <trkpt lat="42.8454540" lon="-7.7542230">
        <ele>723.1</ele>
        <time>2020-10-19T10:39:41Z</time>
      </trkpt>
      <trkpt lat="42.8454530" lon="-7.7542250">
        <ele>723.1</ele>
        <time>2020-10-19T10:39:42Z</time>
      </trkpt>
      <trkpt lat="42.8454530" lon="-7.7542290">
        <ele>723.1</ele>
        <time>2020-10-19T10:39:43Z</time>
      </trkpt>
      <trkpt lat="42.8454520" lon="-7.7542310">
        <ele>723.1</ele>
        <time>2020-10-19T10:39:44Z</time>
      </trkpt>
      <trkpt lat="42.8454520" lon="-7.7542330">
        <ele>723.1</ele>
        <time>2020-10-19T10:39:45Z</time>
      </trkpt>
      <trkpt lat="42.8454520" lon="-7.7542330">
        <ele>723.1</ele>
        <time>2020-10-19T10:39:46Z</time>
      </trkpt>
      <trkpt lat="42.8454510" lon="-7.7542340">
        <ele>723.1</ele>
        <time>2020-10-19T10:39:47Z</time>
      </trkpt>
      <trkpt lat="42.8454500" lon="-7.7542350">
        <ele>723.1</ele>
        <time>2020-10-19T10:39:48Z</time>
      </trkpt>
      <trkpt lat="42.8454500" lon="-7.7542360">
        <ele>723.1</ele>
        <time>2020-10-19T10:39:49Z</time>
      </trkpt>
      <trkpt lat="42.8454510" lon="-7.7542340">
        <ele>723.1</ele>
        <time>2020-10-19T10:39:50Z</time>
      </trkpt>
      <trkpt lat="42.8454530" lon="-7.7542310">
        <ele>723.1</ele>
        <time>2020-10-19T10:39:51Z</time>
      </trkpt>
      <trkpt lat="42.8454580" lon="-7.7542280">
        <ele>723.1</ele>
        <time>2020-10-19T10:39:52Z</time>
      </trkpt>
      <trkpt lat="42.8454640" lon="-7.7542260">
        <ele>723.1</ele>
        <time>2020-10-19T10:39:53Z</time>
      </trkpt>
      <trkpt lat="42.8454700" lon="-7.7542240">
        <ele>723.1</ele>
        <time>2020-10-19T10:39:54Z</time>
      </trkpt>
      <trkpt lat="42.8454730" lon="-7.7542220">
        <ele>723.1</ele>
        <time>2020-10-19T10:39:55Z</time>
      </trkpt>
      <trkpt lat="42.8454740" lon="-7.7542240">
        <ele>723.1</ele>
        <time>2020-10-19T10:39:56Z</time>
      </trkpt>
      <trkpt lat="42.8454760" lon="-7.7542290">
        <ele>723.1</ele>
        <time>2020-10-19T10:39:57Z</time>
      </trkpt>
      <trkpt lat="42.8454790" lon="-7.7542320">
        <ele>723.1</ele>
        <time>2020-10-19T10:39:58Z</time>
      </trkpt>
      <trkpt lat="42.8454810" lon="-7.7542330">
        <ele>723.1</ele>
        <time>2020-10-19T10:39:59Z</time>
      </trkpt>
      <trkpt lat="42.8454810" lon="-7.7542330">
        <ele>723.1</ele>
        <time>2020-10-19T10:40:00Z</time>
      </trkpt>
      <trkpt lat="42.8454810" lon="-7.7542330">
        <ele>723.1</ele>
        <time>2020-10-19T10:40:01Z</time>
      </trkpt>
      <trkpt lat="42.8454800" lon="-7.7542330">
        <ele>723.1</ele>
        <time>2020-10-19T10:40:02Z</time>
      </trkpt>
      <trkpt lat="42.8454800" lon="-7.7542330">
        <ele>723.1</ele>
        <time>2020-10-19T10:40:03Z</time>
      </trkpt>
      <trkpt lat="42.8454800" lon="-7.7542340">
        <ele>723.1</ele>
        <time>2020-10-19T10:40:04Z</time>
      </trkpt>
      <trkpt lat="42.8454800" lon="-7.7542350">
        <ele>723.1</ele>
        <time>2020-10-19T10:40:05Z</time>
      </trkpt>
      <trkpt lat="42.8454800" lon="-7.7542360">
        <ele>723.1</ele>
        <time>2020-10-19T10:40:06Z</time>
      </trkpt>
      <trkpt lat="42.8454790" lon="-7.7542370">
        <ele>723.1</ele>
        <time>2020-10-19T10:40:07Z</time>
      </trkpt>
      <trkpt lat="42.8454800" lon="-7.7542390">
        <ele>723.1</ele>
        <time>2020-10-19T10:40:08Z</time>
      </trkpt>
      <trkpt lat="42.8454800" lon="-7.7542420">
        <ele>723.1</ele>
        <time>2020-10-19T10:40:09Z</time>
      </trkpt>
      <trkpt lat="42.8454800" lon="-7.7542460">
        <ele>723.1</ele>
        <time>2020-10-19T10:40:10Z</time>
      </trkpt>
      <trkpt lat="42.8454790" lon="-7.7542510">
        <ele>723.1</ele>
        <time>2020-10-19T10:40:11Z</time>
      </trkpt>
      <trkpt lat="42.8454780" lon="-7.7542570">
        <ele>723.1</ele>
        <time>2020-10-19T10:40:12Z</time>
      </trkpt>
      <trkpt lat="42.8454750" lon="-7.7542620">
        <ele>723.1</ele>
        <time>2020-10-19T10:40:13Z</time>
      </trkpt>
      <trkpt lat="42.8454720" lon="-7.7542670">
        <ele>723.1</ele>
        <time>2020-10-19T10:40:14Z</time>
      </trkpt>
      <trkpt lat="42.8454690" lon="-7.7542720">
        <ele>723.1</ele>
        <time>2020-10-19T10:40:15Z</time>
      </trkpt>
      <trkpt lat="42.8454680" lon="-7.7542790">
        <ele>723.1</ele>
        <time>2020-10-19T10:40:16Z</time>
      </trkpt>
      <trkpt lat="42.8454680" lon="-7.7542870">
        <ele>723.1</ele>
        <time>2020-10-19T10:40:17Z</time>
      </trkpt>
      <trkpt lat="42.8454680" lon="-7.7542930">
        <ele>723.1</ele>
        <time>2020-10-19T10:40:18Z</time>
      </trkpt>
      <trkpt lat="42.8454680" lon="-7.7542960">
        <ele>723.1</ele>
        <time>2020-10-19T10:40:19Z</time>
      </trkpt>
      <trkpt lat="42.8454680" lon="-7.7542960">
        <ele>723.1</ele>
        <time>2020-10-19T10:40:20Z</time>
      </trkpt>
      <trkpt lat="42.8454690" lon="-7.7542970">
        <ele>723.1</ele>
        <time>2020-10-19T10:40:21Z</time>
      </trkpt>
      <trkpt lat="42.8454690" lon="-7.7542970">
        <ele>723.1</ele>
        <time>2020-10-19T10:40:22Z</time>
      </trkpt>
      <trkpt lat="42.8454690" lon="-7.7542970">
        <ele>723.1</ele>
        <time>2020-10-19T10:40:23Z</time>
      </trkpt>
      <trkpt lat="42.8454690" lon="-7.7542960">
        <ele>723.1</ele>
        <time>2020-10-19T10:40:24Z</time>
      </trkpt>
      <trkpt lat="42.8454690" lon="-7.7542960">
        <ele>723.1</ele>
        <time>2020-10-19T10:40:25Z</time>
      </trkpt>
      <trkpt lat="42.8454690" lon="-7.7542960">
        <ele>723.1</ele>
        <time>2020-10-19T10:40:26Z</time>
      </trkpt>
      <trkpt lat="42.8454680" lon="-7.7542970">
        <ele>723.1</ele>
        <time>2020-10-19T10:40:27Z</time>
      </trkpt>
      <trkpt lat="42.8454680" lon="-7.7542980">
        <ele>723.1</ele>
        <time>2020-10-19T10:40:28Z</time>
      </trkpt>
      <trkpt lat="42.8454690" lon="-7.7542980">
        <ele>723.1</ele>
        <time>2020-10-19T10:40:29Z</time>
      </trkpt>
      <trkpt lat="42.8454690" lon="-7.7542990">
        <ele>723.1</ele>
        <time>2020-10-19T10:40:30Z</time>
      </trkpt>
      <trkpt lat="42.8454680" lon="-7.7542990">
        <ele>723.1</ele>
        <time>2020-10-19T10:40:31Z</time>
      </trkpt>
      <trkpt lat="42.8454680" lon="-7.7542990">
        <ele>723.1</ele>
        <time>2020-10-19T10:40:32Z</time>
      </trkpt>
      <trkpt lat="42.8454670" lon="-7.7542990">
        <ele>723.1</ele>
        <time>2020-10-19T10:40:33Z</time>
      </trkpt>
      <trkpt lat="42.8454660" lon="-7.7543000">
        <ele>723.1</ele>
        <time>2020-10-19T10:40:34Z</time>
      </trkpt>
      <trkpt lat="42.8454650" lon="-7.7543010">
        <ele>723.1</ele>
        <time>2020-10-19T10:40:35Z</time>
      </trkpt>
      <trkpt lat="42.8454660" lon="-7.7543010">
        <ele>723.1</ele>
        <time>2020-10-19T10:40:36Z</time>
      </trkpt>
      <trkpt lat="42.8454670" lon="-7.7543020">
        <ele>723.0</ele>
        <time>2020-10-19T10:40:37Z</time>
      </trkpt>
      <trkpt lat="42.8454680" lon="-7.7543010">
        <ele>723.0</ele>
        <time>2020-10-19T10:40:38Z</time>
      </trkpt>
      <trkpt lat="42.8454700" lon="-7.7542990">
        <ele>723.0</ele>
        <time>2020-10-19T10:40:39Z</time>
      </trkpt>
      <trkpt lat="42.8454770" lon="-7.7542950">
        <ele>723.0</ele>
        <time>2020-10-19T10:40:40Z</time>
      </trkpt>
      <trkpt lat="42.8454850" lon="-7.7542950">
        <ele>723.0</ele>
        <time>2020-10-19T10:40:41Z</time>
      </trkpt>
      <trkpt lat="42.8454910" lon="-7.7542990">
        <ele>723.0</ele>
        <time>2020-10-19T10:40:42Z</time>
      </trkpt>
      <trkpt lat="42.8454930" lon="-7.7543040">
        <ele>723.0</ele>
        <time>2020-10-19T10:40:43Z</time>
      </trkpt>
      <trkpt lat="42.8454930" lon="-7.7543080">
        <ele>723.0</ele>
        <time>2020-10-19T10:40:44Z</time>
      </trkpt>
      <trkpt lat="42.8454930" lon="-7.7543080">
        <ele>723.0</ele>
        <time>2020-10-19T10:40:45Z</time>
      </trkpt>
      <trkpt lat="42.8454920" lon="-7.7543080">
        <ele>723.0</ele>
        <time>2020-10-19T10:40:46Z</time>
      </trkpt>
      <trkpt lat="42.8454910" lon="-7.7543080">
        <ele>723.0</ele>
        <time>2020-10-19T10:40:47Z</time>
      </trkpt>
      <trkpt lat="42.8454900" lon="-7.7543070">
        <ele>723.0</ele>
        <time>2020-10-19T10:40:48Z</time>
      </trkpt>
      <trkpt lat="42.8454900" lon="-7.7543070">
        <ele>723.0</ele>
        <time>2020-10-19T10:40:49Z</time>
      </trkpt>
      <trkpt lat="42.8454900" lon="-7.7543080">
        <ele>723.0</ele>
        <time>2020-10-19T10:40:50Z</time>
      </trkpt>
      <trkpt lat="42.8454890" lon="-7.7543080">
        <ele>723.0</ele>
        <time>2020-10-19T10:40:51Z</time>
      </trkpt>
      <trkpt lat="42.8454890" lon="-7.7543120">
        <ele>723.0</ele>
        <time>2020-10-19T10:40:52Z</time>
      </trkpt>
      <trkpt lat="42.8454900" lon="-7.7543190">
        <ele>723.0</ele>
        <time>2020-10-19T10:40:53Z</time>
      </trkpt>
      <trkpt lat="42.8454920" lon="-7.7543310">
        <ele>723.0</ele>
        <time>2020-10-19T10:40:54Z</time>
      </trkpt>
      <trkpt lat="42.8454940" lon="-7.7543430">
        <ele>723.0</ele>
        <time>2020-10-19T10:40:55Z</time>
      </trkpt>
      <trkpt lat="42.8454960" lon="-7.7543570">
        <ele>723.0</ele>
        <time>2020-10-19T10:40:56Z</time>
      </trkpt>
      <trkpt lat="42.8454980" lon="-7.7543690">
        <ele>722.9</ele>
        <time>2020-10-19T10:40:57Z</time>
      </trkpt>
      <trkpt lat="42.8454990" lon="-7.7543780">
        <ele>722.9</ele>
        <time>2020-10-19T10:40:58Z</time>
      </trkpt>
      <trkpt lat="42.8454990" lon="-7.7543810">
        <ele>722.9</ele>
        <time>2020-10-19T10:40:59Z</time>
      </trkpt>
      <trkpt lat="42.8455000" lon="-7.7543830">
        <ele>722.9</ele>
        <time>2020-10-19T10:41:00Z</time>
      </trkpt>
      <trkpt lat="42.8455010" lon="-7.7543880">
        <ele>722.9</ele>
        <time>2020-10-19T10:41:01Z</time>
      </trkpt>
      <trkpt lat="42.8455020" lon="-7.7543980">
        <ele>722.9</ele>
        <time>2020-10-19T10:41:02Z</time>
      </trkpt>
      <trkpt lat="42.8455030" lon="-7.7544090">
        <ele>722.9</ele>
        <time>2020-10-19T10:41:03Z</time>
      </trkpt>
      <trkpt lat="42.8455050" lon="-7.7544220">
        <ele>722.9</ele>
        <time>2020-10-19T10:41:04Z</time>
      </trkpt>
      <trkpt lat="42.8455060" lon="-7.7544320">
        <ele>722.9</ele>
        <time>2020-10-19T10:41:05Z</time>
      </trkpt>
      <trkpt lat="42.8455070" lon="-7.7544390">
        <ele>722.9</ele>
        <time>2020-10-19T10:41:06Z</time>
      </trkpt>
      <trkpt lat="42.8455080" lon="-7.7544440">
        <ele>722.9</ele>
        <time>2020-10-19T10:41:07Z</time>
      </trkpt>
      <trkpt lat="42.8455080" lon="-7.7544490">
        <ele>722.9</ele>
        <time>2020-10-19T10:41:08Z</time>
      </trkpt>
      <trkpt lat="42.8455060" lon="-7.7544540">
        <ele>722.9</ele>
        <time>2020-10-19T10:41:09Z</time>
      </trkpt>
      <trkpt lat="42.8455030" lon="-7.7544610">
        <ele>722.9</ele>
        <time>2020-10-19T10:41:10Z</time>
      </trkpt>
      <trkpt lat="42.8455020" lon="-7.7544700">
        <ele>722.9</ele>
        <time>2020-10-19T10:41:11Z</time>
      </trkpt>
      <trkpt lat="42.8455020" lon="-7.7544830">
        <ele>722.9</ele>
        <time>2020-10-19T10:41:12Z</time>
      </trkpt>
      <trkpt lat="42.8455040" lon="-7.7544950">
        <ele>722.8</ele>
        <time>2020-10-19T10:41:13Z</time>
      </trkpt>
      <trkpt lat="42.8455080" lon="-7.7545080">
        <ele>722.8</ele>
        <time>2020-10-19T10:41:14Z</time>
      </trkpt>
      <trkpt lat="42.8455110" lon="-7.7545210">
        <ele>722.8</ele>
        <time>2020-10-19T10:41:15Z</time>
      </trkpt>
      <trkpt lat="42.8455140" lon="-7.7545360">
        <ele>722.8</ele>
        <time>2020-10-19T10:41:16Z</time>
      </trkpt>
      <trkpt lat="42.8455170" lon="-7.7545500">
        <ele>722.8</ele>
        <time>2020-10-19T10:41:17Z</time>
      </trkpt>
      <trkpt lat="42.8455210" lon="-7.7545650">
        <ele>722.8</ele>
        <time>2020-10-19T10:41:18Z</time>
      </trkpt>
      <trkpt lat="42.8455240" lon="-7.7545800">
        <ele>722.8</ele>
        <time>2020-10-19T10:41:19Z</time>
      </trkpt>
      <trkpt lat="42.8455290" lon="-7.7545960">
        <ele>722.8</ele>
        <time>2020-10-19T10:41:20Z</time>
      </trkpt>
      <trkpt lat="42.8455350" lon="-7.7546110">
        <ele>722.8</ele>
        <time>2020-10-19T10:41:21Z</time>
      </trkpt>
      <trkpt lat="42.8455410" lon="-7.7546260">
        <ele>722.7</ele>
        <time>2020-10-19T10:41:22Z</time>
      </trkpt>
      <trkpt lat="42.8455450" lon="-7.7546410">
        <ele>722.7</ele>
        <time>2020-10-19T10:41:23Z</time>
      </trkpt>
      <trkpt lat="42.8455480" lon="-7.7546560">
        <ele>722.7</ele>
        <time>2020-10-19T10:41:24Z</time>
      </trkpt>
      <trkpt lat="42.8455510" lon="-7.7546700">
        <ele>722.7</ele>
        <time>2020-10-19T10:41:25Z</time>
      </trkpt>
      <trkpt lat="42.8455550" lon="-7.7546840">
        <ele>722.7</ele>
        <time>2020-10-19T10:41:26Z</time>
      </trkpt>
      <trkpt lat="42.8455590" lon="-7.7546980">
        <ele>722.7</ele>
        <time>2020-10-19T10:41:27Z</time>
      </trkpt>
      <trkpt lat="42.8455630" lon="-7.7547120">
        <ele>722.6</ele>
        <time>2020-10-19T10:41:28Z</time>
      </trkpt>
      <trkpt lat="42.8455670" lon="-7.7547290">
        <ele>722.6</ele>
        <time>2020-10-19T10:41:29Z</time>
      </trkpt>
      <trkpt lat="42.8455700" lon="-7.7547450">
        <ele>722.6</ele>
        <time>2020-10-19T10:41:30Z</time>
      </trkpt>
      <trkpt lat="42.8455710" lon="-7.7547600">
        <ele>722.6</ele>
        <time>2020-10-19T10:41:31Z</time>
      </trkpt>
      <trkpt lat="42.8455720" lon="-7.7547740">
        <ele>722.6</ele>
        <time>2020-10-19T10:41:32Z</time>
      </trkpt>
      <trkpt lat="42.8455730" lon="-7.7547870">
        <ele>722.6</ele>
        <time>2020-10-19T10:41:33Z</time>
      </trkpt>
      <trkpt lat="42.8455750" lon="-7.7548010">
        <ele>722.5</ele>
        <time>2020-10-19T10:41:34Z</time>
      </trkpt>
      <trkpt lat="42.8455790" lon="-7.7548150">
        <ele>722.5</ele>
        <time>2020-10-19T10:41:35Z</time>
      </trkpt>
      <trkpt lat="42.8455830" lon="-7.7548300">
        <ele>722.5</ele>
        <time>2020-10-19T10:41:36Z</time>
      </trkpt>
      <trkpt lat="42.8455880" lon="-7.7548450">
        <ele>722.5</ele>
        <time>2020-10-19T10:41:37Z</time>
      </trkpt>
      <trkpt lat="42.8455940" lon="-7.7548600">
        <ele>722.5</ele>
        <time>2020-10-19T10:41:38Z</time>
      </trkpt>
      <trkpt lat="42.8456000" lon="-7.7548760">
        <ele>722.4</ele>
        <time>2020-10-19T10:41:39Z</time>
      </trkpt>
      <trkpt lat="42.8456040" lon="-7.7548920">
        <ele>722.4</ele>
        <time>2020-10-19T10:41:40Z</time>
      </trkpt>
      <trkpt lat="42.8456060" lon="-7.7549070">
        <ele>722.4</ele>
        <time>2020-10-19T10:41:41Z</time>
      </trkpt>
      <trkpt lat="42.8456090" lon="-7.7549210">
        <ele>722.4</ele>
        <time>2020-10-19T10:41:42Z</time>
      </trkpt>
      <trkpt lat="42.8456140" lon="-7.7549340">
        <ele>722.4</ele>
        <time>2020-10-19T10:41:43Z</time>
      </trkpt>
      <trkpt lat="42.8456180" lon="-7.7549470">
        <ele>722.4</ele>
        <time>2020-10-19T10:41:44Z</time>
      </trkpt>
      <trkpt lat="42.8456220" lon="-7.7549610">
        <ele>722.4</ele>
        <time>2020-10-19T10:41:45Z</time>
      </trkpt>
      <trkpt lat="42.8456250" lon="-7.7549750">
        <ele>722.3</ele>
        <time>2020-10-19T10:41:46Z</time>
      </trkpt>
      <trkpt lat="42.8456280" lon="-7.7549900">
        <ele>722.3</ele>
        <time>2020-10-19T10:41:47Z</time>
      </trkpt>
      <trkpt lat="42.8456330" lon="-7.7550060">
        <ele>722.3</ele>
        <time>2020-10-19T10:41:48Z</time>
      </trkpt>
      <trkpt lat="42.8456380" lon="-7.7550210">
        <ele>722.3</ele>
        <time>2020-10-19T10:41:49Z</time>
      </trkpt>
      <trkpt lat="42.8456430" lon="-7.7550350">
        <ele>722.3</ele>
        <time>2020-10-19T10:41:50Z</time>
      </trkpt>
      <trkpt lat="42.8456480" lon="-7.7550490">
        <ele>722.2</ele>
        <time>2020-10-19T10:41:51Z</time>
      </trkpt>
      <trkpt lat="42.8456520" lon="-7.7550640">
        <ele>722.2</ele>
        <time>2020-10-19T10:41:52Z</time>
      </trkpt>
      <trkpt lat="42.8456560" lon="-7.7550800">
        <ele>722.2</ele>
        <time>2020-10-19T10:41:53Z</time>
      </trkpt>
      <trkpt lat="42.8456590" lon="-7.7550950">
        <ele>722.2</ele>
        <time>2020-10-19T10:41:54Z</time>
      </trkpt>
      <trkpt lat="42.8456630" lon="-7.7551100">
        <ele>722.2</ele>
        <time>2020-10-19T10:41:55Z</time>
      </trkpt>
      <trkpt lat="42.8456660" lon="-7.7551240">
        <ele>722.2</ele>
        <time>2020-10-19T10:41:56Z</time>
      </trkpt>
      <trkpt lat="42.8456700" lon="-7.7551390">
        <ele>722.1</ele>
        <time>2020-10-19T10:41:57Z</time>
      </trkpt>
      <trkpt lat="42.8456740" lon="-7.7551550">
        <ele>722.1</ele>
        <time>2020-10-19T10:41:58Z</time>
      </trkpt>
      <trkpt lat="42.8456770" lon="-7.7551700">
        <ele>722.1</ele>
        <time>2020-10-19T10:41:59Z</time>
      </trkpt>
      <trkpt lat="42.8456800" lon="-7.7551840">
        <ele>722.1</ele>
        <time>2020-10-19T10:42:00Z</time>
      </trkpt>
      <trkpt lat="42.8456830" lon="-7.7551980">
        <ele>722.1</ele>
        <time>2020-10-19T10:42:01Z</time>
      </trkpt>
      <trkpt lat="42.8456870" lon="-7.7552110">
        <ele>722.1</ele>
        <time>2020-10-19T10:42:02Z</time>
      </trkpt>
      <trkpt lat="42.8456900" lon="-7.7552250">
        <ele>722.0</ele>
        <time>2020-10-19T10:42:03Z</time>
      </trkpt>
      <trkpt lat="42.8456940" lon="-7.7552380">
        <ele>722.0</ele>
        <time>2020-10-19T10:42:04Z</time>
      </trkpt>
      <trkpt lat="42.8456970" lon="-7.7552520">
        <ele>722.0</ele>
        <time>2020-10-19T10:42:05Z</time>
      </trkpt>
      <trkpt lat="42.8456990" lon="-7.7552660">
        <ele>722.0</ele>
        <time>2020-10-19T10:42:06Z</time>
      </trkpt>
      <trkpt lat="42.8457010" lon="-7.7552810">
        <ele>722.0</ele>
        <time>2020-10-19T10:42:07Z</time>
      </trkpt>
      <trkpt lat="42.8457050" lon="-7.7552970">
        <ele>722.0</ele>
        <time>2020-10-19T10:42:08Z</time>
      </trkpt>
      <trkpt lat="42.8457090" lon="-7.7553150">
        <ele>721.9</ele>
        <time>2020-10-19T10:42:09Z</time>
      </trkpt>
      <trkpt lat="42.8457130" lon="-7.7553320">
        <ele>721.9</ele>
        <time>2020-10-19T10:42:10Z</time>
      </trkpt>
      <trkpt lat="42.8457160" lon="-7.7553490">
        <ele>721.9</ele>
        <time>2020-10-19T10:42:11Z</time>
      </trkpt>
      <trkpt lat="42.8457190" lon="-7.7553660">
        <ele>721.9</ele>
        <time>2020-10-19T10:42:12Z</time>
      </trkpt>
      <trkpt lat="42.8457230" lon="-7.7553820">
        <ele>721.9</ele>
        <time>2020-10-19T10:42:13Z</time>
      </trkpt>
      <trkpt lat="42.8457280" lon="-7.7553980">
        <ele>721.8</ele>
        <time>2020-10-19T10:42:14Z</time>
      </trkpt>
      <trkpt lat="42.8457340" lon="-7.7554140">
        <ele>721.8</ele>
        <time>2020-10-19T10:42:15Z</time>
      </trkpt>
      <trkpt lat="42.8457390" lon="-7.7554330">
        <ele>721.8</ele>
        <time>2020-10-19T10:42:16Z</time>
      </trkpt>
      <trkpt lat="42.8457440" lon="-7.7554510">
        <ele>721.7</ele>
        <time>2020-10-19T10:42:17Z</time>
      </trkpt>
      <trkpt lat="42.8457480" lon="-7.7554690">
        <ele>721.7</ele>
        <time>2020-10-19T10:42:18Z</time>
      </trkpt>
      <trkpt lat="42.8457510" lon="-7.7554870">
        <ele>721.7</ele>
        <time>2020-10-19T10:42:19Z</time>
      </trkpt>
      <trkpt lat="42.8457560" lon="-7.7555040">
        <ele>721.6</ele>
        <time>2020-10-19T10:42:20Z</time>
      </trkpt>
      <trkpt lat="42.8457590" lon="-7.7555210">
        <ele>721.6</ele>
        <time>2020-10-19T10:42:21Z</time>
      </trkpt>
      <trkpt lat="42.8457640" lon="-7.7555380">
        <ele>721.6</ele>
        <time>2020-10-19T10:42:22Z</time>
      </trkpt>
      <trkpt lat="42.8457680" lon="-7.7555560">
        <ele>721.5</ele>
        <time>2020-10-19T10:42:23Z</time>
      </trkpt>
      <trkpt lat="42.8457740" lon="-7.7555720">
        <ele>721.5</ele>
        <time>2020-10-19T10:42:24Z</time>
      </trkpt>
      <trkpt lat="42.8457780" lon="-7.7555900">
        <ele>721.4</ele>
        <time>2020-10-19T10:42:25Z</time>
      </trkpt>
      <trkpt lat="42.8457840" lon="-7.7556070">
        <ele>721.4</ele>
        <time>2020-10-19T10:42:26Z</time>
      </trkpt>
      <trkpt lat="42.8457900" lon="-7.7556240">
        <ele>721.4</ele>
        <time>2020-10-19T10:42:27Z</time>
      </trkpt>
      <trkpt lat="42.8457970" lon="-7.7556410">
        <ele>721.3</ele>
        <time>2020-10-19T10:42:28Z</time>
      </trkpt>
      <trkpt lat="42.8458030" lon="-7.7556580">
        <ele>721.2</ele>
        <time>2020-10-19T10:42:29Z</time>
      </trkpt>
      <trkpt lat="42.8458090" lon="-7.7556740">
        <ele>721.2</ele>
        <time>2020-10-19T10:42:30Z</time>
      </trkpt>
      <trkpt lat="42.8458150" lon="-7.7556910">
        <ele>721.1</ele>
        <time>2020-10-19T10:42:31Z</time>
      </trkpt>
      <trkpt lat="42.8458210" lon="-7.7557070">
        <ele>721.1</ele>
        <time>2020-10-19T10:42:32Z</time>
      </trkpt>
      <trkpt lat="42.8458270" lon="-7.7557230">
        <ele>721.0</ele>
        <time>2020-10-19T10:42:33Z</time>
      </trkpt>
      <trkpt lat="42.8458320" lon="-7.7557390">
        <ele>721.0</ele>
        <time>2020-10-19T10:42:34Z</time>
      </trkpt>
      <trkpt lat="42.8458380" lon="-7.7557550">
        <ele>720.9</ele>
        <time>2020-10-19T10:42:35Z</time>
      </trkpt>
      <trkpt lat="42.8458430" lon="-7.7557710">
        <ele>720.8</ele>
        <time>2020-10-19T10:42:36Z</time>
      </trkpt>
      <trkpt lat="42.8458490" lon="-7.7557880">
        <ele>720.8</ele>
        <time>2020-10-19T10:42:37Z</time>
      </trkpt>
      <trkpt lat="42.8458550" lon="-7.7558040">
        <ele>720.7</ele>
        <time>2020-10-19T10:42:38Z</time>
      </trkpt>
      <trkpt lat="42.8458620" lon="-7.7558190">
        <ele>720.6</ele>
        <time>2020-10-19T10:42:39Z</time>
      </trkpt>
      <trkpt lat="42.8458680" lon="-7.7558340">
        <ele>720.6</ele>
        <time>2020-10-19T10:42:40Z</time>
      </trkpt>
      <trkpt lat="42.8458730" lon="-7.7558510">
        <ele>720.5</ele>
        <time>2020-10-19T10:42:41Z</time>
      </trkpt>
      <trkpt lat="42.8458800" lon="-7.7558660">
        <ele>720.4</ele>
        <time>2020-10-19T10:42:42Z</time>
      </trkpt>
      <trkpt lat="42.8458870" lon="-7.7558790">
        <ele>720.4</ele>
        <time>2020-10-19T10:42:43Z</time>
      </trkpt>
      <trkpt lat="42.8458950" lon="-7.7558910">
        <ele>720.3</ele>
        <time>2020-10-19T10:42:44Z</time>
      </trkpt>
      <trkpt lat="42.8459020" lon="-7.7559050">
        <ele>720.2</ele>
        <time>2020-10-19T10:42:45Z</time>
      </trkpt>
      <trkpt lat="42.8459100" lon="-7.7559190">
        <ele>720.2</ele>
        <time>2020-10-19T10:42:46Z</time>
      </trkpt>
      <trkpt lat="42.8459180" lon="-7.7559320">
        <ele>720.1</ele>
        <time>2020-10-19T10:42:47Z</time>
      </trkpt>
      <trkpt lat="42.8459280" lon="-7.7559450">
        <ele>720.1</ele>
        <time>2020-10-19T10:42:48Z</time>
      </trkpt>
      <trkpt lat="42.8459370" lon="-7.7559570">
        <ele>720.0</ele>
        <time>2020-10-19T10:42:49Z</time>
      </trkpt>
      <trkpt lat="42.8459460" lon="-7.7559710">
        <ele>720.0</ele>
        <time>2020-10-19T10:42:50Z</time>
      </trkpt>
      <trkpt lat="42.8459540" lon="-7.7559850">
        <ele>719.9</ele>
        <time>2020-10-19T10:42:51Z</time>
      </trkpt>
      <trkpt lat="42.8459610" lon="-7.7559990">
        <ele>719.9</ele>
        <time>2020-10-19T10:42:52Z</time>
      </trkpt>
      <trkpt lat="42.8459690" lon="-7.7560130">
        <ele>719.8</ele>
        <time>2020-10-19T10:42:53Z</time>
      </trkpt>
      <trkpt lat="42.8459770" lon="-7.7560270">
        <ele>719.7</ele>
        <time>2020-10-19T10:42:54Z</time>
      </trkpt>
      <trkpt lat="42.8459860" lon="-7.7560410">
        <ele>719.7</ele>
        <time>2020-10-19T10:42:55Z</time>
      </trkpt>
      <trkpt lat="42.8459940" lon="-7.7560540">
        <ele>719.6</ele>
        <time>2020-10-19T10:42:56Z</time>
      </trkpt>
      <trkpt lat="42.8460010" lon="-7.7560680">
        <ele>719.6</ele>
        <time>2020-10-19T10:42:57Z</time>
      </trkpt>
      <trkpt lat="42.8460090" lon="-7.7560810">
        <ele>719.5</ele>
        <time>2020-10-19T10:42:58Z</time>
      </trkpt>
      <trkpt lat="42.8460160" lon="-7.7560950">
        <ele>719.5</ele>
        <time>2020-10-19T10:42:59Z</time>
      </trkpt>
      <trkpt lat="42.8460250" lon="-7.7561090">
        <ele>719.4</ele>
        <time>2020-10-19T10:43:00Z</time>
      </trkpt>
      <trkpt lat="42.8460340" lon="-7.7561240">
        <ele>719.4</ele>
        <time>2020-10-19T10:43:01Z</time>
      </trkpt>
      <trkpt lat="42.8460440" lon="-7.7561380">
        <ele>719.3</ele>
        <time>2020-10-19T10:43:02Z</time>
      </trkpt>
      <trkpt lat="42.8460530" lon="-7.7561520">
        <ele>719.3</ele>
        <time>2020-10-19T10:43:03Z</time>
      </trkpt>
      <trkpt lat="42.8460630" lon="-7.7561650">
        <ele>719.2</ele>
        <time>2020-10-19T10:43:04Z</time>
      </trkpt>
      <trkpt lat="42.8460720" lon="-7.7561800">
        <ele>719.2</ele>
        <time>2020-10-19T10:43:05Z</time>
      </trkpt>
      <trkpt lat="42.8460820" lon="-7.7561950">
        <ele>719.1</ele>
        <time>2020-10-19T10:43:06Z</time>
      </trkpt>
      <trkpt lat="42.8460910" lon="-7.7562100">
        <ele>719.1</ele>
        <time>2020-10-19T10:43:07Z</time>
      </trkpt>
      <trkpt lat="42.8461030" lon="-7.7562240">
        <ele>719.0</ele>
        <time>2020-10-19T10:43:08Z</time>
      </trkpt>
      <trkpt lat="42.8461140" lon="-7.7562370">
        <ele>719.0</ele>
        <time>2020-10-19T10:43:09Z</time>
      </trkpt>
      <trkpt lat="42.8461250" lon="-7.7562510">
        <ele>718.9</ele>
        <time>2020-10-19T10:43:10Z</time>
      </trkpt>
      <trkpt lat="42.8461360" lon="-7.7562640">
        <ele>718.9</ele>
        <time>2020-10-19T10:43:11Z</time>
      </trkpt>
      <trkpt lat="42.8461460" lon="-7.7562780">
        <ele>718.8</ele>
        <time>2020-10-19T10:43:12Z</time>
      </trkpt>
      <trkpt lat="42.8461550" lon="-7.7562910">
        <ele>718.8</ele>
        <time>2020-10-19T10:43:13Z</time>
      </trkpt>
      <trkpt lat="42.8461640" lon="-7.7563050">
        <ele>718.8</ele>
        <time>2020-10-19T10:43:14Z</time>
      </trkpt>
      <trkpt lat="42.8461740" lon="-7.7563170">
        <ele>718.7</ele>
        <time>2020-10-19T10:43:15Z</time>
      </trkpt>
      <trkpt lat="42.8461850" lon="-7.7563300">
        <ele>718.7</ele>
        <time>2020-10-19T10:43:16Z</time>
      </trkpt>
      <trkpt lat="42.8461960" lon="-7.7563430">
        <ele>718.6</ele>
        <time>2020-10-19T10:43:17Z</time>
      </trkpt>
      <trkpt lat="42.8462070" lon="-7.7563550">
        <ele>718.6</ele>
        <time>2020-10-19T10:43:18Z</time>
      </trkpt>
      <trkpt lat="42.8462180" lon="-7.7563680">
        <ele>718.6</ele>
        <time>2020-10-19T10:43:19Z</time>
      </trkpt>
      <trkpt lat="42.8462280" lon="-7.7563810">
        <ele>718.5</ele>
        <time>2020-10-19T10:43:20Z</time>
      </trkpt>
      <trkpt lat="42.8462370" lon="-7.7563950">
        <ele>718.5</ele>
        <time>2020-10-19T10:43:21Z</time>
      </trkpt>
      <trkpt lat="42.8462450" lon="-7.7564060">
        <ele>718.4</ele>
        <time>2020-10-19T10:43:22Z</time>
      </trkpt>
      <trkpt lat="42.8462540" lon="-7.7564180">
        <ele>718.4</ele>
        <time>2020-10-19T10:43:23Z</time>
      </trkpt>
      <trkpt lat="42.8462640" lon="-7.7564300">
        <ele>718.4</ele>
        <time>2020-10-19T10:43:24Z</time>
      </trkpt>
      <trkpt lat="42.8462740" lon="-7.7564420">
        <ele>718.4</ele>
        <time>2020-10-19T10:43:25Z</time>
      </trkpt>
      <trkpt lat="42.8462850" lon="-7.7564530">
        <ele>718.3</ele>
        <time>2020-10-19T10:43:26Z</time>
      </trkpt>
      <trkpt lat="42.8462930" lon="-7.7564650">
        <ele>718.3</ele>
        <time>2020-10-19T10:43:27Z</time>
      </trkpt>
      <trkpt lat="42.8463020" lon="-7.7564770">
        <ele>718.3</ele>
        <time>2020-10-19T10:43:28Z</time>
      </trkpt>
      <trkpt lat="42.8463100" lon="-7.7564890">
        <ele>718.2</ele>
        <time>2020-10-19T10:43:29Z</time>
      </trkpt>
      <trkpt lat="42.8463200" lon="-7.7565010">
        <ele>718.2</ele>
        <time>2020-10-19T10:43:30Z</time>
      </trkpt>
      <trkpt lat="42.8463290" lon="-7.7565130">
        <ele>718.2</ele>
        <time>2020-10-19T10:43:31Z</time>
      </trkpt>
      <trkpt lat="42.8463390" lon="-7.7565260">
        <ele>718.2</ele>
        <time>2020-10-19T10:43:32Z</time>
      </trkpt>
      <trkpt lat="42.8463500" lon="-7.7565380">
        <ele>718.1</ele>
        <time>2020-10-19T10:43:33Z</time>
      </trkpt>
      <trkpt lat="42.8463610" lon="-7.7565510">
        <ele>718.1</ele>
        <time>2020-10-19T10:43:34Z</time>
      </trkpt>
      <trkpt lat="42.8463720" lon="-7.7565630">
        <ele>718.1</ele>
        <time>2020-10-19T10:43:35Z</time>
      </trkpt>
      <trkpt lat="42.8463830" lon="-7.7565760">
        <ele>718.0</ele>
        <time>2020-10-19T10:43:36Z</time>
      </trkpt>
      <trkpt lat="42.8463940" lon="-7.7565890">
        <ele>718.0</ele>
        <time>2020-10-19T10:43:37Z</time>
      </trkpt>
      <trkpt lat="42.8464040" lon="-7.7566010">
        <ele>718.0</ele>
        <time>2020-10-19T10:43:38Z</time>
      </trkpt>
      <trkpt lat="42.8464130" lon="-7.7566140">
        <ele>717.9</ele>
        <time>2020-10-19T10:43:39Z</time>
      </trkpt>
      <trkpt lat="42.8464230" lon="-7.7566260">
        <ele>717.9</ele>
        <time>2020-10-19T10:43:40Z</time>
      </trkpt>
      <trkpt lat="42.8464330" lon="-7.7566390">
        <ele>717.9</ele>
        <time>2020-10-19T10:43:41Z</time>
      </trkpt>
      <trkpt lat="42.8464440" lon="-7.7566520">
        <ele>717.9</ele>
        <time>2020-10-19T10:43:42Z</time>
      </trkpt>
      <trkpt lat="42.8464550" lon="-7.7566650">
        <ele>717.8</ele>
        <time>2020-10-19T10:43:43Z</time>
      </trkpt>
      <trkpt lat="42.8464660" lon="-7.7566780">
        <ele>717.8</ele>
        <time>2020-10-19T10:43:44Z</time>
      </trkpt>
      <trkpt lat="42.8464770" lon="-7.7566900">
        <ele>717.8</ele>
        <time>2020-10-19T10:43:45Z</time>
      </trkpt>
      <trkpt lat="42.8464870" lon="-7.7567020">
        <ele>717.7</ele>
        <time>2020-10-19T10:43:46Z</time>
      </trkpt>
      <trkpt lat="42.8464980" lon="-7.7567140">
        <ele>717.7</ele>
        <time>2020-10-19T10:43:47Z</time>
      </trkpt>
      <trkpt lat="42.8465080" lon="-7.7567270">
        <ele>717.7</ele>
        <time>2020-10-19T10:43:48Z</time>
      </trkpt>
      <trkpt lat="42.8465180" lon="-7.7567380">
        <ele>717.6</ele>
        <time>2020-10-19T10:43:49Z</time>
      </trkpt>
      <trkpt lat="42.8465280" lon="-7.7567500">
        <ele>717.6</ele>
        <time>2020-10-19T10:43:50Z</time>
      </trkpt>
      <trkpt lat="42.8465390" lon="-7.7567610">
        <ele>717.6</ele>
        <time>2020-10-19T10:43:51Z</time>
      </trkpt>
      <trkpt lat="42.8465490" lon="-7.7567730">
        <ele>717.5</ele>
        <time>2020-10-19T10:43:52Z</time>
      </trkpt>
      <trkpt lat="42.8465580" lon="-7.7567850">
        <ele>717.5</ele>
        <time>2020-10-19T10:43:53Z</time>
      </trkpt>
      <trkpt lat="42.8465670" lon="-7.7567960">
        <ele>717.5</ele>
        <time>2020-10-19T10:43:54Z</time>
      </trkpt>
      <trkpt lat="42.8465770" lon="-7.7568080">
        <ele>717.5</ele>
        <time>2020-10-19T10:43:55Z</time>
      </trkpt>
      <trkpt lat="42.8465880" lon="-7.7568200">
        <ele>717.4</ele>
        <time>2020-10-19T10:43:56Z</time>
      </trkpt>
      <trkpt lat="42.8465980" lon="-7.7568330">
        <ele>717.4</ele>
        <time>2020-10-19T10:43:57Z</time>
      </trkpt>
      <trkpt lat="42.8466090" lon="-7.7568440">
        <ele>717.4</ele>
        <time>2020-10-19T10:43:58Z</time>
      </trkpt>
      <trkpt lat="42.8466200" lon="-7.7568540">
        <ele>717.4</ele>
        <time>2020-10-19T10:43:59Z</time>
      </trkpt>
      <trkpt lat="42.8466310" lon="-7.7568650">
        <ele>717.4</ele>
        <time>2020-10-19T10:44:00Z</time>
      </trkpt>
      <trkpt lat="42.8466430" lon="-7.7568750">
        <ele>717.4</ele>
        <time>2020-10-19T10:44:01Z</time>
      </trkpt>
      <trkpt lat="42.8466540" lon="-7.7568860">
        <ele>717.3</ele>
        <time>2020-10-19T10:44:02Z</time>
      </trkpt>
      <trkpt lat="42.8466640" lon="-7.7568990">
        <ele>717.3</ele>
        <time>2020-10-19T10:44:03Z</time>
      </trkpt>
      <trkpt lat="42.8466740" lon="-7.7569130">
        <ele>717.3</ele>
        <time>2020-10-19T10:44:04Z</time>
      </trkpt>
      <trkpt lat="42.8466830" lon="-7.7569280">
        <ele>717.3</ele>
        <time>2020-10-19T10:44:05Z</time>
      </trkpt>
      <trkpt lat="42.8466940" lon="-7.7569400">
        <ele>717.3</ele>
        <time>2020-10-19T10:44:06Z</time>
      </trkpt>
      <trkpt lat="42.8467030" lon="-7.7569520">
        <ele>717.3</ele>
        <time>2020-10-19T10:44:07Z</time>
      </trkpt>
      <trkpt lat="42.8467130" lon="-7.7569620">
        <ele>717.3</ele>
        <time>2020-10-19T10:44:08Z</time>
      </trkpt>
      <trkpt lat="42.8467230" lon="-7.7569730">
        <ele>717.3</ele>
        <time>2020-10-19T10:44:09Z</time>
      </trkpt>
      <trkpt lat="42.8467330" lon="-7.7569840">
        <ele>717.3</ele>
        <time>2020-10-19T10:44:10Z</time>
      </trkpt>
      <trkpt lat="42.8467440" lon="-7.7569940">
        <ele>717.3</ele>
        <time>2020-10-19T10:44:11Z</time>
      </trkpt>
      <trkpt lat="42.8467540" lon="-7.7570050">
        <ele>717.3</ele>
        <time>2020-10-19T10:44:12Z</time>
      </trkpt>
      <trkpt lat="42.8467640" lon="-7.7570150">
        <ele>717.3</ele>
        <time>2020-10-19T10:44:13Z</time>
      </trkpt>
      <trkpt lat="42.8467750" lon="-7.7570260">
        <ele>717.2</ele>
        <time>2020-10-19T10:44:14Z</time>
      </trkpt>
      <trkpt lat="42.8467860" lon="-7.7570350">
        <ele>717.2</ele>
        <time>2020-10-19T10:44:15Z</time>
      </trkpt>
      <trkpt lat="42.8467990" lon="-7.7570440">
        <ele>717.2</ele>
        <time>2020-10-19T10:44:16Z</time>
      </trkpt>
      <trkpt lat="42.8468100" lon="-7.7570550">
        <ele>717.2</ele>
        <time>2020-10-19T10:44:17Z</time>
      </trkpt>
      <trkpt lat="42.8468210" lon="-7.7570670">
        <ele>717.2</ele>
        <time>2020-10-19T10:44:18Z</time>
      </trkpt>
      <trkpt lat="42.8468320" lon="-7.7570790">
        <ele>717.2</ele>
        <time>2020-10-19T10:44:19Z</time>
      </trkpt>
      <trkpt lat="42.8468430" lon="-7.7570910">
        <ele>717.2</ele>
        <time>2020-10-19T10:44:20Z</time>
      </trkpt>
      <trkpt lat="42.8468540" lon="-7.7571030">
        <ele>717.2</ele>
        <time>2020-10-19T10:44:21Z</time>
      </trkpt>
      <trkpt lat="42.8468640" lon="-7.7571150">
        <ele>717.2</ele>
        <time>2020-10-19T10:44:22Z</time>
      </trkpt>
      <trkpt lat="42.8468740" lon="-7.7571260">
        <ele>717.2</ele>
        <time>2020-10-19T10:44:23Z</time>
      </trkpt>
      <trkpt lat="42.8468840" lon="-7.7571370">
        <ele>717.2</ele>
        <time>2020-10-19T10:44:24Z</time>
      </trkpt>
      <trkpt lat="42.8468950" lon="-7.7571470">
        <ele>717.2</ele>
        <time>2020-10-19T10:44:25Z</time>
      </trkpt>
      <trkpt lat="42.8469040" lon="-7.7571580">
        <ele>717.2</ele>
        <time>2020-10-19T10:44:26Z</time>
      </trkpt>
      <trkpt lat="42.8469130" lon="-7.7571700">
        <ele>717.2</ele>
        <time>2020-10-19T10:44:27Z</time>
      </trkpt>
      <trkpt lat="42.8469220" lon="-7.7571810">
        <ele>717.2</ele>
        <time>2020-10-19T10:44:28Z</time>
      </trkpt>
      <trkpt lat="42.8469320" lon="-7.7571910">
        <ele>717.2</ele>
        <time>2020-10-19T10:44:29Z</time>
      </trkpt>
      <trkpt lat="42.8469420" lon="-7.7572030">
        <ele>717.2</ele>
        <time>2020-10-19T10:44:30Z</time>
      </trkpt>
      <trkpt lat="42.8469520" lon="-7.7572140">
        <ele>717.2</ele>
        <time>2020-10-19T10:44:31Z</time>
      </trkpt>
      <trkpt lat="42.8469630" lon="-7.7572260">
        <ele>717.2</ele>
        <time>2020-10-19T10:44:32Z</time>
      </trkpt>
      <trkpt lat="42.8469750" lon="-7.7572350">
        <ele>717.2</ele>
        <time>2020-10-19T10:44:33Z</time>
      </trkpt>
      <trkpt lat="42.8469870" lon="-7.7572440">
        <ele>717.2</ele>
        <time>2020-10-19T10:44:34Z</time>
      </trkpt>
      <trkpt lat="42.8470000" lon="-7.7572520">
        <ele>717.2</ele>
        <time>2020-10-19T10:44:35Z</time>
      </trkpt>
      <trkpt lat="42.8470120" lon="-7.7572600">
        <ele>717.2</ele>
        <time>2020-10-19T10:44:36Z</time>
      </trkpt>
      <trkpt lat="42.8470240" lon="-7.7572690">
        <ele>717.2</ele>
        <time>2020-10-19T10:44:37Z</time>
      </trkpt>
      <trkpt lat="42.8470360" lon="-7.7572790">
        <ele>717.2</ele>
        <time>2020-10-19T10:44:38Z</time>
      </trkpt>
      <trkpt lat="42.8470480" lon="-7.7572890">
        <ele>717.2</ele>
        <time>2020-10-19T10:44:39Z</time>
      </trkpt>
      <trkpt lat="42.8470590" lon="-7.7572990">
        <ele>717.2</ele>
        <time>2020-10-19T10:44:40Z</time>
      </trkpt>
      <trkpt lat="42.8470720" lon="-7.7573080">
        <ele>717.2</ele>
        <time>2020-10-19T10:44:41Z</time>
      </trkpt>
      <trkpt lat="42.8470840" lon="-7.7573170">
        <ele>717.2</ele>
        <time>2020-10-19T10:44:42Z</time>
      </trkpt>
      <trkpt lat="42.8470980" lon="-7.7573260">
        <ele>717.2</ele>
        <time>2020-10-19T10:44:43Z</time>
      </trkpt>
      <trkpt lat="42.8471120" lon="-7.7573350">
        <ele>717.3</ele>
        <time>2020-10-19T10:44:44Z</time>
      </trkpt>
      <trkpt lat="42.8471270" lon="-7.7573430">
        <ele>717.3</ele>
        <time>2020-10-19T10:44:45Z</time>
      </trkpt>
      <trkpt lat="42.8471410" lon="-7.7573510">
        <ele>717.3</ele>
        <time>2020-10-19T10:44:46Z</time>
      </trkpt>
      <trkpt lat="42.8471550" lon="-7.7573590">
        <ele>717.3</ele>
        <time>2020-10-19T10:44:47Z</time>
      </trkpt>
      <trkpt lat="42.8471680" lon="-7.7573670">
        <ele>717.3</ele>
        <time>2020-10-19T10:44:48Z</time>
      </trkpt>
      <trkpt lat="42.8471820" lon="-7.7573760">
        <ele>717.3</ele>
        <time>2020-10-19T10:44:49Z</time>
      </trkpt>
      <trkpt lat="42.8471950" lon="-7.7573840">
        <ele>717.3</ele>
        <time>2020-10-19T10:44:50Z</time>
      </trkpt>
      <trkpt lat="42.8472070" lon="-7.7573920">
        <ele>717.3</ele>
        <time>2020-10-19T10:44:51Z</time>
      </trkpt>
      <trkpt lat="42.8472190" lon="-7.7574010">
        <ele>717.3</ele>
        <time>2020-10-19T10:44:52Z</time>
      </trkpt>
      <trkpt lat="42.8472310" lon="-7.7574100">
        <ele>717.3</ele>
        <time>2020-10-19T10:44:53Z</time>
      </trkpt>
      <trkpt lat="42.8472430" lon="-7.7574200">
        <ele>717.3</ele>
        <time>2020-10-19T10:44:54Z</time>
      </trkpt>
      <trkpt lat="42.8472540" lon="-7.7574300">
        <ele>717.3</ele>
        <time>2020-10-19T10:44:55Z</time>
      </trkpt>
      <trkpt lat="42.8472650" lon="-7.7574390">
        <ele>717.3</ele>
        <time>2020-10-19T10:44:56Z</time>
      </trkpt>
      <trkpt lat="42.8472770" lon="-7.7574470">
        <ele>717.3</ele>
        <time>2020-10-19T10:44:57Z</time>
      </trkpt>
      <trkpt lat="42.8472900" lon="-7.7574540">
        <ele>717.3</ele>
        <time>2020-10-19T10:44:58Z</time>
      </trkpt>
      <trkpt lat="42.8473020" lon="-7.7574620">
        <ele>717.3</ele>
        <time>2020-10-19T10:44:59Z</time>
      </trkpt>
      <trkpt lat="42.8473140" lon="-7.7574700">
        <ele>717.3</ele>
        <time>2020-10-19T10:45:00Z</time>
      </trkpt>
      <trkpt lat="42.8473250" lon="-7.7574800">
        <ele>717.4</ele>
        <time>2020-10-19T10:45:01Z</time>
      </trkpt>
      <trkpt lat="42.8473360" lon="-7.7574890">
        <ele>717.4</ele>
        <time>2020-10-19T10:45:02Z</time>
      </trkpt>
      <trkpt lat="42.8473470" lon="-7.7574990">
        <ele>717.4</ele>
        <time>2020-10-19T10:45:03Z</time>
      </trkpt>
      <trkpt lat="42.8473560" lon="-7.7575090">
        <ele>717.4</ele>
        <time>2020-10-19T10:45:04Z</time>
      </trkpt>
      <trkpt lat="42.8473660" lon="-7.7575160">
        <ele>717.4</ele>
        <time>2020-10-19T10:45:05Z</time>
      </trkpt>
      <trkpt lat="42.8473770" lon="-7.7575230">
        <ele>717.4</ele>
        <time>2020-10-19T10:45:06Z</time>
      </trkpt>
      <trkpt lat="42.8473880" lon="-7.7575290">
        <ele>717.4</ele>
        <time>2020-10-19T10:45:07Z</time>
      </trkpt>
      <trkpt lat="42.8473980" lon="-7.7575350">
        <ele>717.4</ele>
        <time>2020-10-19T10:45:08Z</time>
      </trkpt>
      <trkpt lat="42.8474090" lon="-7.7575420">
        <ele>717.4</ele>
        <time>2020-10-19T10:45:09Z</time>
      </trkpt>
      <trkpt lat="42.8474200" lon="-7.7575510">
        <ele>717.4</ele>
        <time>2020-10-19T10:45:10Z</time>
      </trkpt>
      <trkpt lat="42.8474310" lon="-7.7575610">
        <ele>717.4</ele>
        <time>2020-10-19T10:45:11Z</time>
      </trkpt>
      <trkpt lat="42.8474410" lon="-7.7575710">
        <ele>717.4</ele>
        <time>2020-10-19T10:45:12Z</time>
      </trkpt>
      <trkpt lat="42.8474520" lon="-7.7575820">
        <ele>717.5</ele>
        <time>2020-10-19T10:45:13Z</time>
      </trkpt>
      <trkpt lat="42.8474640" lon="-7.7575910">
        <ele>717.5</ele>
        <time>2020-10-19T10:45:14Z</time>
      </trkpt>
      <trkpt lat="42.8474760" lon="-7.7576000">
        <ele>717.5</ele>
        <time>2020-10-19T10:45:15Z</time>
      </trkpt>
      <trkpt lat="42.8474890" lon="-7.7576080">
        <ele>717.5</ele>
        <time>2020-10-19T10:45:16Z</time>
      </trkpt>
      <trkpt lat="42.8475020" lon="-7.7576170">
        <ele>717.5</ele>
        <time>2020-10-19T10:45:17Z</time>
      </trkpt>
      <trkpt lat="42.8475140" lon="-7.7576260">
        <ele>717.5</ele>
        <time>2020-10-19T10:45:18Z</time>
      </trkpt>
      <trkpt lat="42.8475250" lon="-7.7576350">
        <ele>717.5</ele>
        <time>2020-10-19T10:45:19Z</time>
      </trkpt>
      <trkpt lat="42.8475360" lon="-7.7576440">
        <ele>717.6</ele>
        <time>2020-10-19T10:45:20Z</time>
      </trkpt>
      <trkpt lat="42.8475480" lon="-7.7576520">
        <ele>717.6</ele>
        <time>2020-10-19T10:45:21Z</time>
      </trkpt>
      <trkpt lat="42.8475610" lon="-7.7576600">
        <ele>717.6</ele>
        <time>2020-10-19T10:45:22Z</time>
      </trkpt>
      <trkpt lat="42.8475720" lon="-7.7576690">
        <ele>717.6</ele>
        <time>2020-10-19T10:45:23Z</time>
      </trkpt>
      <trkpt lat="42.8475840" lon="-7.7576780">
        <ele>717.6</ele>
        <time>2020-10-19T10:45:24Z</time>
      </trkpt>
      <trkpt lat="42.8475950" lon="-7.7576870">
        <ele>717.6</ele>
        <time>2020-10-19T10:45:25Z</time>
      </trkpt>
      <trkpt lat="42.8476060" lon="-7.7576960">
        <ele>717.6</ele>
        <time>2020-10-19T10:45:26Z</time>
      </trkpt>
      <trkpt lat="42.8476170" lon="-7.7577060">
        <ele>717.7</ele>
        <time>2020-10-19T10:45:27Z</time>
      </trkpt>
      <trkpt lat="42.8476280" lon="-7.7577160">
        <ele>717.7</ele>
        <time>2020-10-19T10:45:28Z</time>
      </trkpt>
      <trkpt lat="42.8476380" lon="-7.7577270">
        <ele>717.7</ele>
        <time>2020-10-19T10:45:29Z</time>
      </trkpt>
      <trkpt lat="42.8476480" lon="-7.7577370">
        <ele>717.7</ele>
        <time>2020-10-19T10:45:30Z</time>
      </trkpt>
      <trkpt lat="42.8476590" lon="-7.7577470">
        <ele>717.7</ele>
        <time>2020-10-19T10:45:31Z</time>
      </trkpt>
      <trkpt lat="42.8476690" lon="-7.7577570">
        <ele>717.7</ele>
        <time>2020-10-19T10:45:32Z</time>
      </trkpt>
      <trkpt lat="42.8476800" lon="-7.7577660">
        <ele>717.8</ele>
        <time>2020-10-19T10:45:33Z</time>
      </trkpt>
      <trkpt lat="42.8476900" lon="-7.7577750">
        <ele>717.8</ele>
        <time>2020-10-19T10:45:34Z</time>
      </trkpt>
      <trkpt lat="42.8476990" lon="-7.7577850">
        <ele>717.8</ele>
        <time>2020-10-19T10:45:35Z</time>
      </trkpt>
      <trkpt lat="42.8477090" lon="-7.7577950">
        <ele>717.8</ele>
        <time>2020-10-19T10:45:36Z</time>
      </trkpt>
      <trkpt lat="42.8477190" lon="-7.7578040">
        <ele>717.9</ele>
        <time>2020-10-19T10:45:37Z</time>
      </trkpt>
      <trkpt lat="42.8477310" lon="-7.7578110">
        <ele>717.9</ele>
        <time>2020-10-19T10:45:38Z</time>
      </trkpt>
      <trkpt lat="42.8477430" lon="-7.7578170">
        <ele>717.9</ele>
        <time>2020-10-19T10:45:39Z</time>
      </trkpt>
      <trkpt lat="42.8477560" lon="-7.7578230">
        <ele>717.9</ele>
        <time>2020-10-19T10:45:40Z</time>
      </trkpt>
      <trkpt lat="42.8477680" lon="-7.7578310">
        <ele>718.0</ele>
        <time>2020-10-19T10:45:41Z</time>
      </trkpt>
      <trkpt lat="42.8477790" lon="-7.7578380">
        <ele>718.0</ele>
        <time>2020-10-19T10:45:42Z</time>
      </trkpt>
      <trkpt lat="42.8477890" lon="-7.7578450">
        <ele>718.0</ele>
        <time>2020-10-19T10:45:43Z</time>
      </trkpt>
      <trkpt lat="42.8477990" lon="-7.7578520">
        <ele>718.0</ele>
        <time>2020-10-19T10:45:44Z</time>
      </trkpt>
      <trkpt lat="42.8478100" lon="-7.7578610">
        <ele>718.1</ele>
        <time>2020-10-19T10:45:45Z</time>
      </trkpt>
      <trkpt lat="42.8478200" lon="-7.7578710">
        <ele>718.1</ele>
        <time>2020-10-19T10:45:46Z</time>
      </trkpt>
      <trkpt lat="42.8478310" lon="-7.7578830">
        <ele>718.1</ele>
        <time>2020-10-19T10:45:47Z</time>
      </trkpt>
      <trkpt lat="42.8478400" lon="-7.7578950">
        <ele>718.2</ele>
        <time>2020-10-19T10:45:48Z</time>
      </trkpt>
      <trkpt lat="42.8478490" lon="-7.7579070">
        <ele>718.2</ele>
        <time>2020-10-19T10:45:49Z</time>
      </trkpt>
      <trkpt lat="42.8478590" lon="-7.7579180">
        <ele>718.3</ele>
        <time>2020-10-19T10:45:50Z</time>
      </trkpt>
      <trkpt lat="42.8478690" lon="-7.7579290">
        <ele>718.3</ele>
        <time>2020-10-19T10:45:51Z</time>
      </trkpt>
      <trkpt lat="42.8478780" lon="-7.7579390">
        <ele>718.3</ele>
        <time>2020-10-19T10:45:52Z</time>
      </trkpt>
      <trkpt lat="42.8478880" lon="-7.7579500">
        <ele>718.4</ele>
        <time>2020-10-19T10:45:53Z</time>
      </trkpt>
      <trkpt lat="42.8478990" lon="-7.7579610">
        <ele>718.4</ele>
        <time>2020-10-19T10:45:54Z</time>
      </trkpt>
      <trkpt lat="42.8479110" lon="-7.7579730">
        <ele>718.5</ele>
        <time>2020-10-19T10:45:55Z</time>
      </trkpt>
      <trkpt lat="42.8479220" lon="-7.7579850">
        <ele>718.5</ele>
        <time>2020-10-19T10:45:56Z</time>
      </trkpt>
      <trkpt lat="42.8479320" lon="-7.7579970">
        <ele>718.5</ele>
        <time>2020-10-19T10:45:57Z</time>
      </trkpt>
      <trkpt lat="42.8479410" lon="-7.7580090">
        <ele>718.6</ele>
        <time>2020-10-19T10:45:58Z</time>
      </trkpt>
      <trkpt lat="42.8479520" lon="-7.7580200">
        <ele>718.6</ele>
        <time>2020-10-19T10:45:59Z</time>
      </trkpt>
      <trkpt lat="42.8479620" lon="-7.7580310">
        <ele>718.7</ele>
        <time>2020-10-19T10:46:00Z</time>
      </trkpt>
      <trkpt lat="42.8479720" lon="-7.7580420">
        <ele>718.7</ele>
        <time>2020-10-19T10:46:01Z</time>
      </trkpt>
      <trkpt lat="42.8479830" lon="-7.7580530">
        <ele>718.8</ele>
        <time>2020-10-19T10:46:02Z</time>
      </trkpt>
      <trkpt lat="42.8479930" lon="-7.7580640">
        <ele>718.8</ele>
        <time>2020-10-19T10:46:03Z</time>
      </trkpt>
      <trkpt lat="42.8480040" lon="-7.7580760">
        <ele>718.9</ele>
        <time>2020-10-19T10:46:04Z</time>
      </trkpt>
      <trkpt lat="42.8480150" lon="-7.7580880">
        <ele>718.9</ele>
        <time>2020-10-19T10:46:05Z</time>
      </trkpt>
      <trkpt lat="42.8480260" lon="-7.7580990">
        <ele>718.9</ele>
        <time>2020-10-19T10:46:06Z</time>
      </trkpt>
      <trkpt lat="42.8480370" lon="-7.7581100">
        <ele>719.0</ele>
        <time>2020-10-19T10:46:07Z</time>
      </trkpt>
      <trkpt lat="42.8480490" lon="-7.7581210">
        <ele>719.0</ele>
        <time>2020-10-19T10:46:08Z</time>
      </trkpt>
      <trkpt lat="42.8480600" lon="-7.7581320">
        <ele>719.1</ele>
        <time>2020-10-19T10:46:09Z</time>
      </trkpt>
      <trkpt lat="42.8480710" lon="-7.7581440">
        <ele>719.2</ele>
        <time>2020-10-19T10:46:10Z</time>
      </trkpt>
      <trkpt lat="42.8480810" lon="-7.7581570">
        <ele>719.2</ele>
        <time>2020-10-19T10:46:11Z</time>
      </trkpt>
      <trkpt lat="42.8480910" lon="-7.7581700">
        <ele>719.3</ele>
        <time>2020-10-19T10:46:12Z</time>
      </trkpt>
      <trkpt lat="42.8481000" lon="-7.7581850">
        <ele>719.3</ele>
        <time>2020-10-19T10:46:13Z</time>
      </trkpt>
      <trkpt lat="42.8481070" lon="-7.7581990">
        <ele>719.4</ele>
        <time>2020-10-19T10:46:14Z</time>
      </trkpt>
      <trkpt lat="42.8481160" lon="-7.7582120">
        <ele>719.4</ele>
        <time>2020-10-19T10:46:15Z</time>
      </trkpt>
      <trkpt lat="42.8481250" lon="-7.7582250">
        <ele>719.5</ele>
        <time>2020-10-19T10:46:16Z</time>
      </trkpt>
      <trkpt lat="42.8481350" lon="-7.7582380">
        <ele>719.5</ele>
        <time>2020-10-19T10:46:17Z</time>
      </trkpt>
      <trkpt lat="42.8481430" lon="-7.7582540">
        <ele>719.6</ele>
        <time>2020-10-19T10:46:18Z</time>
      </trkpt>
      <trkpt lat="42.8481490" lon="-7.7582700">
        <ele>719.6</ele>
        <time>2020-10-19T10:46:19Z</time>
      </trkpt>
      <trkpt lat="42.8481560" lon="-7.7582860">
        <ele>719.7</ele>
        <time>2020-10-19T10:46:20Z</time>
      </trkpt>
      <trkpt lat="42.8481630" lon="-7.7583020">
        <ele>719.7</ele>
        <time>2020-10-19T10:46:21Z</time>
      </trkpt>
      <trkpt lat="42.8481710" lon="-7.7583190">
        <ele>719.8</ele>
        <time>2020-10-19T10:46:22Z</time>
      </trkpt>
      <trkpt lat="42.8481780" lon="-7.7583340">
        <ele>719.9</ele>
        <time>2020-10-19T10:46:23Z</time>
      </trkpt>
      <trkpt lat="42.8481860" lon="-7.7583460">
        <ele>719.9</ele>
        <time>2020-10-19T10:46:24Z</time>
      </trkpt>
      <trkpt lat="42.8481930" lon="-7.7583560">
        <ele>719.9</ele>
        <time>2020-10-19T10:46:25Z</time>
      </trkpt>
      <trkpt lat="42.8481990" lon="-7.7583660">
        <ele>720.0</ele>
        <time>2020-10-19T10:46:26Z</time>
      </trkpt>
      <trkpt lat="42.8482060" lon="-7.7583790">
        <ele>720.0</ele>
        <time>2020-10-19T10:46:27Z</time>
      </trkpt>
      <trkpt lat="42.8482140" lon="-7.7583910">
        <ele>720.0</ele>
        <time>2020-10-19T10:46:28Z</time>
      </trkpt>
      <trkpt lat="42.8482240" lon="-7.7584040">
        <ele>720.1</ele>
        <time>2020-10-19T10:46:29Z</time>
      </trkpt>
      <trkpt lat="42.8482330" lon="-7.7584160">
        <ele>720.1</ele>
        <time>2020-10-19T10:46:30Z</time>
      </trkpt>
      <trkpt lat="42.8482420" lon="-7.7584280">
        <ele>720.2</ele>
        <time>2020-10-19T10:46:31Z</time>
      </trkpt>
      <trkpt lat="42.8482520" lon="-7.7584390">
        <ele>720.2</ele>
        <time>2020-10-19T10:46:32Z</time>
      </trkpt>
      <trkpt lat="42.8482610" lon="-7.7584510">
        <ele>720.3</ele>
        <time>2020-10-19T10:46:33Z</time>
      </trkpt>
      <trkpt lat="42.8482720" lon="-7.7584620">
        <ele>720.3</ele>
        <time>2020-10-19T10:46:34Z</time>
      </trkpt>
      <trkpt lat="42.8482840" lon="-7.7584730">
        <ele>720.3</ele>
        <time>2020-10-19T10:46:35Z</time>
      </trkpt>
      <trkpt lat="42.8482960" lon="-7.7584840">
        <ele>720.4</ele>
        <time>2020-10-19T10:46:36Z</time>
      </trkpt>
      <trkpt lat="42.8483070" lon="-7.7584970">
        <ele>720.4</ele>
        <time>2020-10-19T10:46:37Z</time>
      </trkpt>
      <trkpt lat="42.8483160" lon="-7.7585100">
        <ele>720.5</ele>
        <time>2020-10-19T10:46:38Z</time>
      </trkpt>
      <trkpt lat="42.8483260" lon="-7.7585230">
        <ele>720.5</ele>
        <time>2020-10-19T10:46:39Z</time>
      </trkpt>
      <trkpt lat="42.8483350" lon="-7.7585360">
        <ele>720.5</ele>
        <time>2020-10-19T10:46:40Z</time>
      </trkpt>
      <trkpt lat="42.8483440" lon="-7.7585490">
        <ele>720.6</ele>
        <time>2020-10-19T10:46:41Z</time>
      </trkpt>
      <trkpt lat="42.8483540" lon="-7.7585620">
        <ele>720.6</ele>
        <time>2020-10-19T10:46:42Z</time>
      </trkpt>
      <trkpt lat="42.8483640" lon="-7.7585740">
        <ele>720.7</ele>
        <time>2020-10-19T10:46:43Z</time>
      </trkpt>
      <trkpt lat="42.8483740" lon="-7.7585870">
        <ele>720.7</ele>
        <time>2020-10-19T10:46:44Z</time>
      </trkpt>
      <trkpt lat="42.8483830" lon="-7.7586000">
        <ele>720.7</ele>
        <time>2020-10-19T10:46:45Z</time>
      </trkpt>
      <trkpt lat="42.8483920" lon="-7.7586120">
        <ele>720.8</ele>
        <time>2020-10-19T10:46:46Z</time>
      </trkpt>
      <trkpt lat="42.8484010" lon="-7.7586240">
        <ele>720.8</ele>
        <time>2020-10-19T10:46:47Z</time>
      </trkpt>
      <trkpt lat="42.8484090" lon="-7.7586360">
        <ele>720.8</ele>
        <time>2020-10-19T10:46:48Z</time>
      </trkpt>
      <trkpt lat="42.8484180" lon="-7.7586480">
        <ele>720.9</ele>
        <time>2020-10-19T10:46:49Z</time>
      </trkpt>
      <trkpt lat="42.8484270" lon="-7.7586600">
        <ele>720.9</ele>
        <time>2020-10-19T10:46:50Z</time>
      </trkpt>
      <trkpt lat="42.8484360" lon="-7.7586710">
        <ele>720.9</ele>
        <time>2020-10-19T10:46:51Z</time>
      </trkpt>
      <trkpt lat="42.8484450" lon="-7.7586820">
        <ele>720.9</ele>
        <time>2020-10-19T10:46:52Z</time>
      </trkpt>
      <trkpt lat="42.8484550" lon="-7.7586940">
        <ele>720.9</ele>
        <time>2020-10-19T10:46:53Z</time>
      </trkpt>
      <trkpt lat="42.8484640" lon="-7.7587050">
        <ele>721.0</ele>
        <time>2020-10-19T10:46:54Z</time>
      </trkpt>
      <trkpt lat="42.8484730" lon="-7.7587180">
        <ele>721.0</ele>
        <time>2020-10-19T10:46:55Z</time>
      </trkpt>
      <trkpt lat="42.8484810" lon="-7.7587310">
        <ele>721.0</ele>
        <time>2020-10-19T10:46:56Z</time>
      </trkpt>
      <trkpt lat="42.8484880" lon="-7.7587450">
        <ele>721.0</ele>
        <time>2020-10-19T10:46:57Z</time>
      </trkpt>
      <trkpt lat="42.8484960" lon="-7.7587590">
        <ele>721.0</ele>
        <time>2020-10-19T10:46:58Z</time>
      </trkpt>
      <trkpt lat="42.8485050" lon="-7.7587720">
        <ele>721.1</ele>
        <time>2020-10-19T10:46:59Z</time>
      </trkpt>
      <trkpt lat="42.8485150" lon="-7.7587850">
        <ele>721.1</ele>
        <time>2020-10-19T10:47:00Z</time>
      </trkpt>
      <trkpt lat="42.8485250" lon="-7.7587980">
        <ele>721.1</ele>
        <time>2020-10-19T10:47:01Z</time>
      </trkpt>
      <trkpt lat="42.8485350" lon="-7.7588110">
        <ele>721.1</ele>
        <time>2020-10-19T10:47:02Z</time>
      </trkpt>
      <trkpt lat="42.8485440" lon="-7.7588230">
        <ele>721.1</ele>
        <time>2020-10-19T10:47:03Z</time>
      </trkpt>
      <trkpt lat="42.8485530" lon="-7.7588350">
        <ele>721.1</ele>
        <time>2020-10-19T10:47:04Z</time>
      </trkpt>
      <trkpt lat="42.8485620" lon="-7.7588470">
        <ele>721.1</ele>
        <time>2020-10-19T10:47:05Z</time>
      </trkpt>
      <trkpt lat="42.8485700" lon="-7.7588590">
        <ele>721.1</ele>
        <time>2020-10-19T10:47:06Z</time>
      </trkpt>
      <trkpt lat="42.8485780" lon="-7.7588720">
        <ele>721.2</ele>
        <time>2020-10-19T10:47:07Z</time>
      </trkpt>
      <trkpt lat="42.8485860" lon="-7.7588840">
        <ele>721.2</ele>
        <time>2020-10-19T10:47:08Z</time>
      </trkpt>
      <trkpt lat="42.8485950" lon="-7.7588960">
        <ele>721.2</ele>
        <time>2020-10-19T10:47:09Z</time>
      </trkpt>
      <trkpt lat="42.8486040" lon="-7.7589070">
        <ele>721.2</ele>
        <time>2020-10-19T10:47:10Z</time>
      </trkpt>
      <trkpt lat="42.8486120" lon="-7.7589200">
        <ele>721.2</ele>
        <time>2020-10-19T10:47:11Z</time>
      </trkpt>
      <trkpt lat="42.8486200" lon="-7.7589340">
        <ele>721.2</ele>
        <time>2020-10-19T10:47:12Z</time>
      </trkpt>
      <trkpt lat="42.8486260" lon="-7.7589490">
        <ele>721.2</ele>
        <time>2020-10-19T10:47:13Z</time>
      </trkpt>
      <trkpt lat="42.8486330" lon="-7.7589630">
        <ele>721.2</ele>
        <time>2020-10-19T10:47:14Z</time>
      </trkpt>
      <trkpt lat="42.8486400" lon="-7.7589770">
        <ele>721.2</ele>
        <time>2020-10-19T10:47:15Z</time>
      </trkpt>
      <trkpt lat="42.8486480" lon="-7.7589900">
        <ele>721.2</ele>
        <time>2020-10-19T10:47:16Z</time>
      </trkpt>
      <trkpt lat="42.8486560" lon="-7.7590030">
        <ele>721.2</ele>
        <time>2020-10-19T10:47:17Z</time>
      </trkpt>
      <trkpt lat="42.8486650" lon="-7.7590160">
        <ele>721.2</ele>
        <time>2020-10-19T10:47:18Z</time>
      </trkpt>
      <trkpt lat="42.8486740" lon="-7.7590290">
        <ele>721.1</ele>
        <time>2020-10-19T10:47:19Z</time>
      </trkpt>
      <trkpt lat="42.8486830" lon="-7.7590420">
        <ele>721.1</ele>
        <time>2020-10-19T10:47:20Z</time>
      </trkpt>
      <trkpt lat="42.8486910" lon="-7.7590550">
        <ele>721.1</ele>
        <time>2020-10-19T10:47:21Z</time>
      </trkpt>
      <trkpt lat="42.8487000" lon="-7.7590680">
        <ele>721.1</ele>
        <time>2020-10-19T10:47:22Z</time>
      </trkpt>
      <trkpt lat="42.8487080" lon="-7.7590800">
        <ele>721.1</ele>
        <time>2020-10-19T10:47:23Z</time>
      </trkpt>
      <trkpt lat="42.8487170" lon="-7.7590920">
        <ele>721.1</ele>
        <time>2020-10-19T10:47:24Z</time>
      </trkpt>
      <trkpt lat="42.8487260" lon="-7.7591040">
        <ele>721.1</ele>
        <time>2020-10-19T10:47:25Z</time>
      </trkpt>
      <trkpt lat="42.8487350" lon="-7.7591170">
        <ele>721.1</ele>
        <time>2020-10-19T10:47:26Z</time>
      </trkpt>
      <trkpt lat="42.8487460" lon="-7.7591290">
        <ele>721.0</ele>
        <time>2020-10-19T10:47:27Z</time>
      </trkpt>
      <trkpt lat="42.8487560" lon="-7.7591420">
        <ele>721.0</ele>
        <time>2020-10-19T10:47:28Z</time>
      </trkpt>
      <trkpt lat="42.8487670" lon="-7.7591540">
        <ele>721.0</ele>
        <time>2020-10-19T10:47:29Z</time>
      </trkpt>
      <trkpt lat="42.8487770" lon="-7.7591660">
        <ele>721.0</ele>
        <time>2020-10-19T10:47:30Z</time>
      </trkpt>
      <trkpt lat="42.8487870" lon="-7.7591780">
        <ele>721.0</ele>
        <time>2020-10-19T10:47:31Z</time>
      </trkpt>
      <trkpt lat="42.8487970" lon="-7.7591900">
        <ele>720.9</ele>
        <time>2020-10-19T10:47:32Z</time>
      </trkpt>
      <trkpt lat="42.8488060" lon="-7.7592020">
        <ele>720.9</ele>
        <time>2020-10-19T10:47:33Z</time>
      </trkpt>
      <trkpt lat="42.8488160" lon="-7.7592140">
        <ele>720.9</ele>
        <time>2020-10-19T10:47:34Z</time>
      </trkpt>
      <trkpt lat="42.8488250" lon="-7.7592260">
        <ele>720.9</ele>
        <time>2020-10-19T10:47:35Z</time>
      </trkpt>
      <trkpt lat="42.8488340" lon="-7.7592380">
        <ele>720.8</ele>
        <time>2020-10-19T10:47:36Z</time>
      </trkpt>
      <trkpt lat="42.8488420" lon="-7.7592520">
        <ele>720.8</ele>
        <time>2020-10-19T10:47:37Z</time>
      </trkpt>
      <trkpt lat="42.8488500" lon="-7.7592650">
        <ele>720.8</ele>
        <time>2020-10-19T10:47:38Z</time>
      </trkpt>
      <trkpt lat="42.8488590" lon="-7.7592760">
        <ele>720.8</ele>
        <time>2020-10-19T10:47:39Z</time>
      </trkpt>
      <trkpt lat="42.8488690" lon="-7.7592870">
        <ele>720.7</ele>
        <time>2020-10-19T10:47:40Z</time>
      </trkpt>
      <trkpt lat="42.8488790" lon="-7.7592980">
        <ele>720.7</ele>
        <time>2020-10-19T10:47:41Z</time>
      </trkpt>
      <trkpt lat="42.8488890" lon="-7.7593090">
        <ele>720.7</ele>
        <time>2020-10-19T10:47:42Z</time>
      </trkpt>
      <trkpt lat="42.8488990" lon="-7.7593210">
        <ele>720.7</ele>
        <time>2020-10-19T10:47:43Z</time>
      </trkpt>
      <trkpt lat="42.8489090" lon="-7.7593330">
        <ele>720.6</ele>
        <time>2020-10-19T10:47:44Z</time>
      </trkpt>
      <trkpt lat="42.8489180" lon="-7.7593460">
        <ele>720.6</ele>
        <time>2020-10-19T10:47:45Z</time>
      </trkpt>
      <trkpt lat="42.8489280" lon="-7.7593580">
        <ele>720.6</ele>
        <time>2020-10-19T10:47:46Z</time>
      </trkpt>
      <trkpt lat="42.8489380" lon="-7.7593690">
        <ele>720.5</ele>
        <time>2020-10-19T10:47:47Z</time>
      </trkpt>
      <trkpt lat="42.8489480" lon="-7.7593810">
        <ele>720.5</ele>
        <time>2020-10-19T10:47:48Z</time>
      </trkpt>
      <trkpt lat="42.8489580" lon="-7.7593930">
        <ele>720.5</ele>
        <time>2020-10-19T10:47:49Z</time>
      </trkpt>
      <trkpt lat="42.8489680" lon="-7.7594050">
        <ele>720.5</ele>
        <time>2020-10-19T10:47:50Z</time>
      </trkpt>
      <trkpt lat="42.8489790" lon="-7.7594170">
        <ele>720.4</ele>
        <time>2020-10-19T10:47:51Z</time>
      </trkpt>
      <trkpt lat="42.8489890" lon="-7.7594300">
        <ele>720.4</ele>
        <time>2020-10-19T10:47:52Z</time>
      </trkpt>
      <trkpt lat="42.8489980" lon="-7.7594440">
        <ele>720.4</ele>
        <time>2020-10-19T10:47:53Z</time>
      </trkpt>
      <trkpt lat="42.8490080" lon="-7.7594570">
        <ele>720.3</ele>
        <time>2020-10-19T10:47:54Z</time>
      </trkpt>
      <trkpt lat="42.8490170" lon="-7.7594700">
        <ele>720.3</ele>
        <time>2020-10-19T10:47:55Z</time>
      </trkpt>
      <trkpt lat="42.8490270" lon="-7.7594830">
        <ele>720.3</ele>
        <time>2020-10-19T10:47:56Z</time>
      </trkpt>
      <trkpt lat="42.8490380" lon="-7.7594950">
        <ele>720.2</ele>
        <time>2020-10-19T10:47:57Z</time>
      </trkpt>
      <trkpt lat="42.8490490" lon="-7.7595080">
        <ele>720.2</ele>
        <time>2020-10-19T10:47:58Z</time>
      </trkpt>
      <trkpt lat="42.8490590" lon="-7.7595210">
        <ele>720.2</ele>
        <time>2020-10-19T10:47:59Z</time>
      </trkpt>
      <trkpt lat="42.8490680" lon="-7.7595340">
        <ele>720.2</ele>
        <time>2020-10-19T10:48:00Z</time>
      </trkpt>
      <trkpt lat="42.8490770" lon="-7.7595460">
        <ele>720.1</ele>
        <time>2020-10-19T10:48:01Z</time>
      </trkpt>
      <trkpt lat="42.8490860" lon="-7.7595590">
        <ele>720.1</ele>
        <time>2020-10-19T10:48:02Z</time>
      </trkpt>
      <trkpt lat="42.8490950" lon="-7.7595730">
        <ele>720.1</ele>
        <time>2020-10-19T10:48:03Z</time>
      </trkpt>
      <trkpt lat="42.8491050" lon="-7.7595860">
        <ele>720.1</ele>
        <time>2020-10-19T10:48:04Z</time>
      </trkpt>
      <trkpt lat="42.8491150" lon="-7.7595990">
        <ele>720.0</ele>
        <time>2020-10-19T10:48:05Z</time>
      </trkpt>
      <trkpt lat="42.8491250" lon="-7.7596120">
        <ele>720.0</ele>
        <time>2020-10-19T10:48:06Z</time>
      </trkpt>
      <trkpt lat="42.8491350" lon="-7.7596260">
        <ele>720.0</ele>
        <time>2020-10-19T10:48:07Z</time>
      </trkpt>
      <trkpt lat="42.8491450" lon="-7.7596390">
        <ele>719.9</ele>
        <time>2020-10-19T10:48:08Z</time>
      </trkpt>
      <trkpt lat="42.8491550" lon="-7.7596520">
        <ele>719.9</ele>
        <time>2020-10-19T10:48:09Z</time>
      </trkpt>
      <trkpt lat="42.8491650" lon="-7.7596650">
        <ele>719.9</ele>
        <time>2020-10-19T10:48:10Z</time>
      </trkpt>
      <trkpt lat="42.8491760" lon="-7.7596760">
        <ele>719.8</ele>
        <time>2020-10-19T10:48:11Z</time>
      </trkpt>
      <trkpt lat="42.8491860" lon="-7.7596880">
        <ele>719.8</ele>
        <time>2020-10-19T10:48:12Z</time>
      </trkpt>
      <trkpt lat="42.8491960" lon="-7.7597000">
        <ele>719.8</ele>
        <time>2020-10-19T10:48:13Z</time>
      </trkpt>
      <trkpt lat="42.8492050" lon="-7.7597110">
        <ele>719.8</ele>
        <time>2020-10-19T10:48:14Z</time>
      </trkpt>
      <trkpt lat="42.8492140" lon="-7.7597200">
        <ele>719.7</ele>
        <time>2020-10-19T10:48:15Z</time>
      </trkpt>
      <trkpt lat="42.8492240" lon="-7.7597280">
        <ele>719.7</ele>
        <time>2020-10-19T10:48:16Z</time>
      </trkpt>
      <trkpt lat="42.8492350" lon="-7.7597370">
        <ele>719.7</ele>
        <time>2020-10-19T10:48:17Z</time>
      </trkpt>
      <trkpt lat="42.8492460" lon="-7.7597470">
        <ele>719.7</ele>
        <time>2020-10-19T10:48:18Z</time>
      </trkpt>
      <trkpt lat="42.8492560" lon="-7.7597580">
        <ele>719.6</ele>
        <time>2020-10-19T10:48:19Z</time>
      </trkpt>
      <trkpt lat="42.8492670" lon="-7.7597700">
        <ele>719.6</ele>
        <time>2020-10-19T10:48:20Z</time>
      </trkpt>
      <trkpt lat="42.8492770" lon="-7.7597830">
        <ele>719.6</ele>
        <time>2020-10-19T10:48:21Z</time>
      </trkpt>
      <trkpt lat="42.8492860" lon="-7.7597970">
        <ele>719.5</ele>
        <time>2020-10-19T10:48:22Z</time>
      </trkpt>
      <trkpt lat="42.8492940" lon="-7.7598140">
        <ele>719.5</ele>
        <time>2020-10-19T10:48:23Z</time>
      </trkpt>
      <trkpt lat="42.8493020" lon="-7.7598310">
        <ele>719.5</ele>
        <time>2020-10-19T10:48:24Z</time>
      </trkpt>
      <trkpt lat="42.8493120" lon="-7.7598490">
        <ele>719.4</ele>
        <time>2020-10-19T10:48:25Z</time>
      </trkpt>
      <trkpt lat="42.8493220" lon="-7.7598650">
        <ele>719.4</ele>
        <time>2020-10-19T10:48:26Z</time>
      </trkpt>
      <trkpt lat="42.8493320" lon="-7.7598790">
        <ele>719.4</ele>
        <time>2020-10-19T10:48:27Z</time>
      </trkpt>
      <trkpt lat="42.8493420" lon="-7.7598920">
        <ele>719.3</ele>
        <time>2020-10-19T10:48:28Z</time>
      </trkpt>
      <trkpt lat="42.8493520" lon="-7.7599060">
        <ele>719.3</ele>
        <time>2020-10-19T10:48:29Z</time>
      </trkpt>
      <trkpt lat="42.8493620" lon="-7.7599200">
        <ele>719.3</ele>
        <time>2020-10-19T10:48:30Z</time>
      </trkpt>
      <trkpt lat="42.8493710" lon="-7.7599340">
        <ele>719.2</ele>
        <time>2020-10-19T10:48:31Z</time>
      </trkpt>
      <trkpt lat="42.8493810" lon="-7.7599480">
        <ele>719.2</ele>
        <time>2020-10-19T10:48:32Z</time>
      </trkpt>
      <trkpt lat="42.8493900" lon="-7.7599620">
        <ele>719.2</ele>
        <time>2020-10-19T10:48:33Z</time>
      </trkpt>
      <trkpt lat="42.8493990" lon="-7.7599760">
        <ele>719.1</ele>
        <time>2020-10-19T10:48:34Z</time>
      </trkpt>
      <trkpt lat="42.8494070" lon="-7.7599910">
        <ele>719.1</ele>
        <time>2020-10-19T10:48:35Z</time>
      </trkpt>
      <trkpt lat="42.8494150" lon="-7.7600060">
        <ele>719.1</ele>
        <time>2020-10-19T10:48:36Z</time>
      </trkpt>
      <trkpt lat="42.8494250" lon="-7.7600210">
        <ele>719.0</ele>
        <time>2020-10-19T10:48:37Z</time>
      </trkpt>
      <trkpt lat="42.8494350" lon="-7.7600350">
        <ele>719.0</ele>
        <time>2020-10-19T10:48:38Z</time>
      </trkpt>
      <trkpt lat="42.8494450" lon="-7.7600490">
        <ele>719.0</ele>
        <time>2020-10-19T10:48:39Z</time>
      </trkpt>
      <trkpt lat="42.8494540" lon="-7.7600630">
        <ele>718.9</ele>
        <time>2020-10-19T10:48:40Z</time>
      </trkpt>
      <trkpt lat="42.8494630" lon="-7.7600780">
        <ele>718.9</ele>
        <time>2020-10-19T10:48:41Z</time>
      </trkpt>
      <trkpt lat="42.8494710" lon="-7.7600930">
        <ele>718.9</ele>
        <time>2020-10-19T10:48:42Z</time>
      </trkpt>
      <trkpt lat="42.8494800" lon="-7.7601090">
        <ele>718.8</ele>
        <time>2020-10-19T10:48:43Z</time>
      </trkpt>
      <trkpt lat="42.8494890" lon="-7.7601230">
        <ele>718.8</ele>
        <time>2020-10-19T10:48:44Z</time>
      </trkpt>
      <trkpt lat="42.8494980" lon="-7.7601360">
        <ele>718.8</ele>
        <time>2020-10-19T10:48:45Z</time>
      </trkpt>
      <trkpt lat="42.8495060" lon="-7.7601500">
        <ele>718.7</ele>
        <time>2020-10-19T10:48:46Z</time>
      </trkpt>
      <trkpt lat="42.8495150" lon="-7.7601640">
        <ele>718.7</ele>
        <time>2020-10-19T10:48:47Z</time>
      </trkpt>
      <trkpt lat="42.8495220" lon="-7.7601780">
        <ele>718.7</ele>
        <time>2020-10-19T10:48:48Z</time>
      </trkpt>
      <trkpt lat="42.8495300" lon="-7.7601920">
        <ele>718.6</ele>
        <time>2020-10-19T10:48:49Z</time>
      </trkpt>
      <trkpt lat="42.8495380" lon="-7.7602060">
        <ele>718.6</ele>
        <time>2020-10-19T10:48:50Z</time>
      </trkpt>
      <trkpt lat="42.8495470" lon="-7.7602210">
        <ele>718.6</ele>
        <time>2020-10-19T10:48:51Z</time>
      </trkpt>
      <trkpt lat="42.8495560" lon="-7.7602350">
        <ele>718.5</ele>
        <time>2020-10-19T10:48:52Z</time>
      </trkpt>
      <trkpt lat="42.8495640" lon="-7.7602500">
        <ele>718.5</ele>
        <time>2020-10-19T10:48:53Z</time>
      </trkpt>
      <trkpt lat="42.8495720" lon="-7.7602650">
        <ele>718.5</ele>
        <time>2020-10-19T10:48:54Z</time>
      </trkpt>
      <trkpt lat="42.8495800" lon="-7.7602800">
        <ele>718.4</ele>
        <time>2020-10-19T10:48:55Z</time>
      </trkpt>
      <trkpt lat="42.8495880" lon="-7.7602950">
        <ele>718.4</ele>
        <time>2020-10-19T10:48:56Z</time>
      </trkpt>
      <trkpt lat="42.8495960" lon="-7.7603090">
        <ele>718.4</ele>
        <time>2020-10-19T10:48:57Z</time>
      </trkpt>
      <trkpt lat="42.8496030" lon="-7.7603240">
        <ele>718.3</ele>
        <time>2020-10-19T10:48:58Z</time>
      </trkpt>
      <trkpt lat="42.8496110" lon="-7.7603380">
        <ele>718.3</ele>
        <time>2020-10-19T10:48:59Z</time>
      </trkpt>
      <trkpt lat="42.8496180" lon="-7.7603530">
        <ele>718.3</ele>
        <time>2020-10-19T10:49:00Z</time>
      </trkpt>
      <trkpt lat="42.8496250" lon="-7.7603670">
        <ele>718.3</ele>
        <time>2020-10-19T10:49:01Z</time>
      </trkpt>
      <trkpt lat="42.8496310" lon="-7.7603810">
        <ele>718.2</ele>
        <time>2020-10-19T10:49:02Z</time>
      </trkpt>
      <trkpt lat="42.8496370" lon="-7.7603950">
        <ele>718.2</ele>
        <time>2020-10-19T10:49:03Z</time>
      </trkpt>
      <trkpt lat="42.8496420" lon="-7.7604090">
        <ele>718.2</ele>
        <time>2020-10-19T10:49:04Z</time>
      </trkpt>
      <trkpt lat="42.8496460" lon="-7.7604240">
        <ele>718.1</ele>
        <time>2020-10-19T10:49:05Z</time>
      </trkpt>
      <trkpt lat="42.8496520" lon="-7.7604380">
        <ele>718.1</ele>
        <time>2020-10-19T10:49:06Z</time>
      </trkpt>
      <trkpt lat="42.8496580" lon="-7.7604530">
        <ele>718.1</ele>
        <time>2020-10-19T10:49:07Z</time>
      </trkpt>
      <trkpt lat="42.8496640" lon="-7.7604680">
        <ele>718.1</ele>
        <time>2020-10-19T10:49:08Z</time>
      </trkpt>
      <trkpt lat="42.8496700" lon="-7.7604820">
        <ele>718.0</ele>
        <time>2020-10-19T10:49:09Z</time>
      </trkpt>
      <trkpt lat="42.8496760" lon="-7.7604970">
        <ele>718.0</ele>
        <time>2020-10-19T10:49:10Z</time>
      </trkpt>
      <trkpt lat="42.8496800" lon="-7.7605120">
        <ele>718.0</ele>
        <time>2020-10-19T10:49:11Z</time>
      </trkpt>
      <trkpt lat="42.8496850" lon="-7.7605260">
        <ele>717.9</ele>
        <time>2020-10-19T10:49:12Z</time>
      </trkpt>
      <trkpt lat="42.8496910" lon="-7.7605410">
        <ele>717.9</ele>
        <time>2020-10-19T10:49:13Z</time>
      </trkpt>
      <trkpt lat="42.8496970" lon="-7.7605570">
        <ele>717.9</ele>
        <time>2020-10-19T10:49:14Z</time>
      </trkpt>
      <trkpt lat="42.8497020" lon="-7.7605730">
        <ele>717.8</ele>
        <time>2020-10-19T10:49:15Z</time>
      </trkpt>
      <trkpt lat="42.8497080" lon="-7.7605890">
        <ele>717.8</ele>
        <time>2020-10-19T10:49:16Z</time>
      </trkpt>
      <trkpt lat="42.8497130" lon="-7.7606040">
        <ele>717.8</ele>
        <time>2020-10-19T10:49:17Z</time>
      </trkpt>
      <trkpt lat="42.8497190" lon="-7.7606200">
        <ele>717.7</ele>
        <time>2020-10-19T10:49:18Z</time>
      </trkpt>
      <trkpt lat="42.8497250" lon="-7.7606350">
        <ele>717.7</ele>
        <time>2020-10-19T10:49:19Z</time>
      </trkpt>
      <trkpt lat="42.8497310" lon="-7.7606490">
        <ele>717.7</ele>
        <time>2020-10-19T10:49:20Z</time>
      </trkpt>
      <trkpt lat="42.8497380" lon="-7.7606640">
        <ele>717.6</ele>
        <time>2020-10-19T10:49:21Z</time>
      </trkpt>
      <trkpt lat="42.8497440" lon="-7.7606790">
        <ele>717.6</ele>
        <time>2020-10-19T10:49:22Z</time>
      </trkpt>
      <trkpt lat="42.8497480" lon="-7.7606960">
        <ele>717.6</ele>
        <time>2020-10-19T10:49:23Z</time>
      </trkpt>
      <trkpt lat="42.8497510" lon="-7.7607120">
        <ele>717.5</ele>
        <time>2020-10-19T10:49:24Z</time>
      </trkpt>
      <trkpt lat="42.8497550" lon="-7.7607290">
        <ele>717.5</ele>
        <time>2020-10-19T10:49:25Z</time>
      </trkpt>
      <trkpt lat="42.8497590" lon="-7.7607460">
        <ele>717.5</ele>
        <time>2020-10-19T10:49:26Z</time>
      </trkpt>
      <trkpt lat="42.8497640" lon="-7.7607630">
        <ele>717.4</ele>
        <time>2020-10-19T10:49:27Z</time>
      </trkpt>
      <trkpt lat="42.8497670" lon="-7.7607810">
        <ele>717.4</ele>
        <time>2020-10-19T10:49:28Z</time>
      </trkpt>
      <trkpt lat="42.8497710" lon="-7.7607990">
        <ele>717.3</ele>
        <time>2020-10-19T10:49:29Z</time>
      </trkpt>
      <trkpt lat="42.8497750" lon="-7.7608170">
        <ele>717.3</ele>
        <time>2020-10-19T10:49:30Z</time>
      </trkpt>
      <trkpt lat="42.8497800" lon="-7.7608350">
        <ele>717.3</ele>
        <time>2020-10-19T10:49:31Z</time>
      </trkpt>
      <trkpt lat="42.8497850" lon="-7.7608530">
        <ele>717.2</ele>
        <time>2020-10-19T10:49:32Z</time>
      </trkpt>
      <trkpt lat="42.8497900" lon="-7.7608700">
        <ele>717.2</ele>
        <time>2020-10-19T10:49:33Z</time>
      </trkpt>
      <trkpt lat="42.8497940" lon="-7.7608880">
        <ele>717.1</ele>
        <time>2020-10-19T10:49:34Z</time>
      </trkpt>
      <trkpt lat="42.8497970" lon="-7.7609060">
        <ele>717.0</ele>
        <time>2020-10-19T10:49:35Z</time>
      </trkpt>
      <trkpt lat="42.8498000" lon="-7.7609240">
        <ele>717.0</ele>
        <time>2020-10-19T10:49:36Z</time>
      </trkpt>
      <trkpt lat="42.8498030" lon="-7.7609410">
        <ele>716.9</ele>
        <time>2020-10-19T10:49:37Z</time>
      </trkpt>
      <trkpt lat="42.8498060" lon="-7.7609590">
        <ele>716.9</ele>
        <time>2020-10-19T10:49:38Z</time>
      </trkpt>
      <trkpt lat="42.8498110" lon="-7.7609760">
        <ele>716.8</ele>
        <time>2020-10-19T10:49:39Z</time>
      </trkpt>
      <trkpt lat="42.8498160" lon="-7.7609940">
        <ele>716.8</ele>
        <time>2020-10-19T10:49:40Z</time>
      </trkpt>
      <trkpt lat="42.8498210" lon="-7.7610130">
        <ele>716.7</ele>
        <time>2020-10-19T10:49:41Z</time>
      </trkpt>
      <trkpt lat="42.8498250" lon="-7.7610310">
        <ele>716.6</ele>
        <time>2020-10-19T10:49:42Z</time>
      </trkpt>
      <trkpt lat="42.8498290" lon="-7.7610500">
        <ele>716.5</ele>
        <time>2020-10-19T10:49:43Z</time>
      </trkpt>
      <trkpt lat="42.8498330" lon="-7.7610680">
        <ele>716.5</ele>
        <time>2020-10-19T10:49:44Z</time>
      </trkpt>
      <trkpt lat="42.8498370" lon="-7.7610850">
        <ele>716.4</ele>
        <time>2020-10-19T10:49:45Z</time>
      </trkpt>
      <trkpt lat="42.8498400" lon="-7.7611020">
        <ele>716.3</ele>
        <time>2020-10-19T10:49:46Z</time>
      </trkpt>
      <trkpt lat="42.8498450" lon="-7.7611190">
        <ele>716.3</ele>
        <time>2020-10-19T10:49:47Z</time>
      </trkpt>
      <trkpt lat="42.8498490" lon="-7.7611350">
        <ele>716.2</ele>
        <time>2020-10-19T10:49:48Z</time>
      </trkpt>
      <trkpt lat="42.8498530" lon="-7.7611510">
        <ele>716.1</ele>
        <time>2020-10-19T10:49:49Z</time>
      </trkpt>
      <trkpt lat="42.8498570" lon="-7.7611670">
        <ele>716.0</ele>
        <time>2020-10-19T10:49:50Z</time>
      </trkpt>
      <trkpt lat="42.8498610" lon="-7.7611830">
        <ele>716.0</ele>
        <time>2020-10-19T10:49:51Z</time>
      </trkpt>
      <trkpt lat="42.8498640" lon="-7.7611980">
        <ele>715.9</ele>
        <time>2020-10-19T10:49:52Z</time>
      </trkpt>
      <trkpt lat="42.8498670" lon="-7.7612100">
        <ele>715.8</ele>
        <time>2020-10-19T10:49:53Z</time>
      </trkpt>
      <trkpt lat="42.8498680" lon="-7.7612170">
        <ele>715.8</ele>
        <time>2020-10-19T10:49:54Z</time>
      </trkpt>
      <trkpt lat="42.8498680" lon="-7.7612200">
        <ele>715.8</ele>
        <time>2020-10-19T10:49:55Z</time>
      </trkpt>
      <trkpt lat="42.8498670" lon="-7.7612210">
        <ele>715.8</ele>
        <time>2020-10-19T10:49:56Z</time>
      </trkpt>
      <trkpt lat="42.8498670" lon="-7.7612220">
        <ele>715.8</ele>
        <time>2020-10-19T10:49:57Z</time>
      </trkpt>
      <trkpt lat="42.8498670" lon="-7.7612230">
        <ele>715.8</ele>
        <time>2020-10-19T10:49:58Z</time>
      </trkpt>
      <trkpt lat="42.8498700" lon="-7.7612270">
        <ele>715.7</ele>
        <time>2020-10-19T10:49:59Z</time>
      </trkpt>
      <trkpt lat="42.8498750" lon="-7.7612360">
        <ele>715.7</ele>
        <time>2020-10-19T10:50:00Z</time>
      </trkpt>
      <trkpt lat="42.8498810" lon="-7.7612490">
        <ele>715.6</ele>
        <time>2020-10-19T10:50:01Z</time>
      </trkpt>
      <trkpt lat="42.8498880" lon="-7.7612630">
        <ele>715.5</ele>
        <time>2020-10-19T10:50:02Z</time>
      </trkpt>
      <trkpt lat="42.8498940" lon="-7.7612770">
        <ele>715.5</ele>
        <time>2020-10-19T10:50:03Z</time>
      </trkpt>
      <trkpt lat="42.8499010" lon="-7.7612920">
        <ele>715.4</ele>
        <time>2020-10-19T10:50:04Z</time>
      </trkpt>
      <trkpt lat="42.8499090" lon="-7.7613080">
        <ele>715.3</ele>
        <time>2020-10-19T10:50:05Z</time>
      </trkpt>
      <trkpt lat="42.8499150" lon="-7.7613240">
        <ele>715.2</ele>
        <time>2020-10-19T10:50:06Z</time>
      </trkpt>
      <trkpt lat="42.8499210" lon="-7.7613420">
        <ele>715.1</ele>
        <time>2020-10-19T10:50:07Z</time>
      </trkpt>
      <trkpt lat="42.8499270" lon="-7.7613590">
        <ele>715.0</ele>
        <time>2020-10-19T10:50:08Z</time>
      </trkpt>
      <trkpt lat="42.8499330" lon="-7.7613770">
        <ele>714.9</ele>
        <time>2020-10-19T10:50:09Z</time>
      </trkpt>
      <trkpt lat="42.8499380" lon="-7.7613940">
        <ele>714.8</ele>
        <time>2020-10-19T10:50:10Z</time>
      </trkpt>
      <trkpt lat="42.8499440" lon="-7.7614120">
        <ele>714.7</ele>
        <time>2020-10-19T10:50:11Z</time>
      </trkpt>
      <trkpt lat="42.8499490" lon="-7.7614300">
        <ele>714.6</ele>
        <time>2020-10-19T10:50:12Z</time>
      </trkpt>
      <trkpt lat="42.8499550" lon="-7.7614470">
        <ele>714.5</ele>
        <time>2020-10-19T10:50:13Z</time>
      </trkpt>
      <trkpt lat="42.8499600" lon="-7.7614650">
        <ele>714.4</ele>
        <time>2020-10-19T10:50:14Z</time>
      </trkpt>
      <trkpt lat="42.8499640" lon="-7.7614810">
        <ele>714.3</ele>
        <time>2020-10-19T10:50:15Z</time>
      </trkpt>
      <trkpt lat="42.8499690" lon="-7.7614960">
        <ele>714.3</ele>
        <time>2020-10-19T10:50:16Z</time>
      </trkpt>
      <trkpt lat="42.8499730" lon="-7.7615100">
        <ele>714.2</ele>
        <time>2020-10-19T10:50:17Z</time>
      </trkpt>
      <trkpt lat="42.8499790" lon="-7.7615260">
        <ele>714.1</ele>
        <time>2020-10-19T10:50:18Z</time>
      </trkpt>
      <trkpt lat="42.8499840" lon="-7.7615430">
        <ele>714.0</ele>
        <time>2020-10-19T10:50:19Z</time>
      </trkpt>
      <trkpt lat="42.8499890" lon="-7.7615600">
        <ele>713.9</ele>
        <time>2020-10-19T10:50:20Z</time>
      </trkpt>
      <trkpt lat="42.8499950" lon="-7.7615770">
        <ele>713.8</ele>
        <time>2020-10-19T10:50:21Z</time>
      </trkpt>
      <trkpt lat="42.8500010" lon="-7.7615940">
        <ele>713.7</ele>
        <time>2020-10-19T10:50:22Z</time>
      </trkpt>
      <trkpt lat="42.8500070" lon="-7.7616110">
        <ele>713.6</ele>
        <time>2020-10-19T10:50:23Z</time>
      </trkpt>
      <trkpt lat="42.8500130" lon="-7.7616280">
        <ele>713.5</ele>
        <time>2020-10-19T10:50:24Z</time>
      </trkpt>
      <trkpt lat="42.8500190" lon="-7.7616440">
        <ele>713.4</ele>
        <time>2020-10-19T10:50:25Z</time>
      </trkpt>
      <trkpt lat="42.8500260" lon="-7.7616600">
        <ele>713.4</ele>
        <time>2020-10-19T10:50:26Z</time>
      </trkpt>
      <trkpt lat="42.8500330" lon="-7.7616770">
        <ele>713.3</ele>
        <time>2020-10-19T10:50:27Z</time>
      </trkpt>
      <trkpt lat="42.8500390" lon="-7.7616940">
        <ele>713.2</ele>
        <time>2020-10-19T10:50:28Z</time>
      </trkpt>
      <trkpt lat="42.8500460" lon="-7.7617120">
        <ele>713.1</ele>
        <time>2020-10-19T10:50:29Z</time>
      </trkpt>
      <trkpt lat="42.8500520" lon="-7.7617290">
        <ele>713.0</ele>
        <time>2020-10-19T10:50:30Z</time>
      </trkpt>
      <trkpt lat="42.8500590" lon="-7.7617460">
        <ele>712.9</ele>
        <time>2020-10-19T10:50:31Z</time>
      </trkpt>
      <trkpt lat="42.8500660" lon="-7.7617630">
        <ele>712.8</ele>
        <time>2020-10-19T10:50:32Z</time>
      </trkpt>
      <trkpt lat="42.8500720" lon="-7.7617780">
        <ele>712.7</ele>
        <time>2020-10-19T10:50:33Z</time>
      </trkpt>
      <trkpt lat="42.8500800" lon="-7.7617940">
        <ele>712.7</ele>
        <time>2020-10-19T10:50:34Z</time>
      </trkpt>
      <trkpt lat="42.8500870" lon="-7.7618100">
        <ele>712.6</ele>
        <time>2020-10-19T10:50:35Z</time>
      </trkpt>
      <trkpt lat="42.8500930" lon="-7.7618280">
        <ele>712.5</ele>
        <time>2020-10-19T10:50:36Z</time>
      </trkpt>
      <trkpt lat="42.8500980" lon="-7.7618470">
        <ele>712.4</ele>
        <time>2020-10-19T10:50:37Z</time>
      </trkpt>
      <trkpt lat="42.8501030" lon="-7.7618660">
        <ele>712.3</ele>
        <time>2020-10-19T10:50:38Z</time>
      </trkpt>
      <trkpt lat="42.8501090" lon="-7.7618830">
        <ele>712.3</ele>
        <time>2020-10-19T10:50:39Z</time>
      </trkpt>
      <trkpt lat="42.8501150" lon="-7.7619020">
        <ele>712.2</ele>
        <time>2020-10-19T10:50:40Z</time>
      </trkpt>
      <trkpt lat="42.8501210" lon="-7.7619200">
        <ele>712.1</ele>
        <time>2020-10-19T10:50:41Z</time>
      </trkpt>
      <trkpt lat="42.8501260" lon="-7.7619390">
        <ele>712.0</ele>
        <time>2020-10-19T10:50:42Z</time>
      </trkpt>
      <trkpt lat="42.8501320" lon="-7.7619570">
        <ele>711.9</ele>
        <time>2020-10-19T10:50:43Z</time>
      </trkpt>
      <trkpt lat="42.8501370" lon="-7.7619720">
        <ele>711.8</ele>
        <time>2020-10-19T10:50:44Z</time>
      </trkpt>
      <trkpt lat="42.8501420" lon="-7.7619880">
        <ele>711.8</ele>
        <time>2020-10-19T10:50:45Z</time>
      </trkpt>
      <trkpt lat="42.8501480" lon="-7.7620040">
        <ele>711.7</ele>
        <time>2020-10-19T10:50:46Z</time>
      </trkpt>
      <trkpt lat="42.8501550" lon="-7.7620200">
        <ele>711.6</ele>
        <time>2020-10-19T10:50:47Z</time>
      </trkpt>
      <trkpt lat="42.8501620" lon="-7.7620370">
        <ele>711.5</ele>
        <time>2020-10-19T10:50:48Z</time>
      </trkpt>
      <trkpt lat="42.8501680" lon="-7.7620530">
        <ele>711.5</ele>
        <time>2020-10-19T10:50:49Z</time>
      </trkpt>
      <trkpt lat="42.8501750" lon="-7.7620710">
        <ele>711.4</ele>
        <time>2020-10-19T10:50:50Z</time>
      </trkpt>
      <trkpt lat="42.8501800" lon="-7.7620890">
        <ele>711.3</ele>
        <time>2020-10-19T10:50:51Z</time>
      </trkpt>
      <trkpt lat="42.8501840" lon="-7.7621060">
        <ele>711.2</ele>
        <time>2020-10-19T10:50:52Z</time>
      </trkpt>
      <trkpt lat="42.8501890" lon="-7.7621230">
        <ele>711.1</ele>
        <time>2020-10-19T10:50:53Z</time>
      </trkpt>
      <trkpt lat="42.8501970" lon="-7.7621410">
        <ele>711.1</ele>
        <time>2020-10-19T10:50:54Z</time>
      </trkpt>
      <trkpt lat="42.8502040" lon="-7.7621600">
        <ele>711.0</ele>
        <time>2020-10-19T10:50:55Z</time>
      </trkpt>
      <trkpt lat="42.8502100" lon="-7.7621780">
        <ele>710.9</ele>
        <time>2020-10-19T10:50:56Z</time>
      </trkpt>
      <trkpt lat="42.8502170" lon="-7.7621960">
        <ele>710.8</ele>
        <time>2020-10-19T10:50:57Z</time>
      </trkpt>
      <trkpt lat="42.8502240" lon="-7.7622120">
        <ele>710.7</ele>
        <time>2020-10-19T10:50:58Z</time>
      </trkpt>
      <trkpt lat="42.8502310" lon="-7.7622300">
        <ele>710.7</ele>
        <time>2020-10-19T10:50:59Z</time>
      </trkpt>
      <trkpt lat="42.8502370" lon="-7.7622460">
        <ele>710.6</ele>
        <time>2020-10-19T10:51:00Z</time>
      </trkpt>
      <trkpt lat="42.8502440" lon="-7.7622610">
        <ele>710.5</ele>
        <time>2020-10-19T10:51:01Z</time>
      </trkpt>
      <trkpt lat="42.8502510" lon="-7.7622780">
        <ele>710.5</ele>
        <time>2020-10-19T10:51:02Z</time>
      </trkpt>
      <trkpt lat="42.8502590" lon="-7.7622950">
        <ele>710.4</ele>
        <time>2020-10-19T10:51:03Z</time>
      </trkpt>
      <trkpt lat="42.8502660" lon="-7.7623120">
        <ele>710.3</ele>
        <time>2020-10-19T10:51:04Z</time>
      </trkpt>
      <trkpt lat="42.8502730" lon="-7.7623280">
        <ele>710.2</ele>
        <time>2020-10-19T10:51:05Z</time>
      </trkpt>
      <trkpt lat="42.8502780" lon="-7.7623440">
        <ele>710.2</ele>
        <time>2020-10-19T10:51:06Z</time>
      </trkpt>
      <trkpt lat="42.8502830" lon="-7.7623610">
        <ele>710.1</ele>
        <time>2020-10-19T10:51:07Z</time>
      </trkpt>
      <trkpt lat="42.8502880" lon="-7.7623760">
        <ele>710.0</ele>
        <time>2020-10-19T10:51:08Z</time>
      </trkpt>
      <trkpt lat="42.8502930" lon="-7.7623930">
        <ele>710.0</ele>
        <time>2020-10-19T10:51:09Z</time>
      </trkpt>
      <trkpt lat="42.8503000" lon="-7.7624090">
        <ele>709.9</ele>
        <time>2020-10-19T10:51:10Z</time>
      </trkpt>
      <trkpt lat="42.8503060" lon="-7.7624250">
        <ele>709.8</ele>
        <time>2020-10-19T10:51:11Z</time>
      </trkpt>
      <trkpt lat="42.8503120" lon="-7.7624410">
        <ele>709.7</ele>
        <time>2020-10-19T10:51:12Z</time>
      </trkpt>
      <trkpt lat="42.8503180" lon="-7.7624580">
        <ele>709.7</ele>
        <time>2020-10-19T10:51:13Z</time>
      </trkpt>
      <trkpt lat="42.8503250" lon="-7.7624750">
        <ele>709.6</ele>
        <time>2020-10-19T10:51:14Z</time>
      </trkpt>
      <trkpt lat="42.8503290" lon="-7.7624910">
        <ele>709.5</ele>
        <time>2020-10-19T10:51:15Z</time>
      </trkpt>
      <trkpt lat="42.8503340" lon="-7.7625070">
        <ele>709.4</ele>
        <time>2020-10-19T10:51:16Z</time>
      </trkpt>
      <trkpt lat="42.8503390" lon="-7.7625230">
        <ele>709.4</ele>
        <time>2020-10-19T10:51:17Z</time>
      </trkpt>
      <trkpt lat="42.8503460" lon="-7.7625390">
        <ele>709.3</ele>
        <time>2020-10-19T10:51:18Z</time>
      </trkpt>
      <trkpt lat="42.8503530" lon="-7.7625560">
        <ele>709.2</ele>
        <time>2020-10-19T10:51:19Z</time>
      </trkpt>
      <trkpt lat="42.8503590" lon="-7.7625730">
        <ele>709.1</ele>
        <time>2020-10-19T10:51:20Z</time>
      </trkpt>
      <trkpt lat="42.8503630" lon="-7.7625890">
        <ele>709.1</ele>
        <time>2020-10-19T10:51:21Z</time>
      </trkpt>
      <trkpt lat="42.8503640" lon="-7.7626040">
        <ele>709.0</ele>
        <time>2020-10-19T10:51:22Z</time>
      </trkpt>
      <trkpt lat="42.8503640" lon="-7.7626150">
        <ele>709.0</ele>
        <time>2020-10-19T10:51:23Z</time>
      </trkpt>
      <trkpt lat="42.8503650" lon="-7.7626220">
        <ele>708.9</ele>
        <time>2020-10-19T10:51:24Z</time>
      </trkpt>
      <trkpt lat="42.8503680" lon="-7.7626240">
        <ele>708.9</ele>
        <time>2020-10-19T10:51:25Z</time>
      </trkpt>
      <trkpt lat="42.8503720" lon="-7.7626240">
        <ele>708.9</ele>
        <time>2020-10-19T10:51:26Z</time>
      </trkpt>
      <trkpt lat="42.8503760" lon="-7.7626240">
        <ele>708.8</ele>
        <time>2020-10-19T10:51:27Z</time>
      </trkpt>
      <trkpt lat="42.8503790" lon="-7.7626240">
        <ele>708.8</ele>
        <time>2020-10-19T10:51:28Z</time>
      </trkpt>
      <trkpt lat="42.8503820" lon="-7.7626240">
        <ele>708.8</ele>
        <time>2020-10-19T10:51:29Z</time>
      </trkpt>
      <trkpt lat="42.8503850" lon="-7.7626250">
        <ele>708.8</ele>
        <time>2020-10-19T10:51:30Z</time>
      </trkpt>
      <trkpt lat="42.8503860" lon="-7.7626270">
        <ele>708.8</ele>
        <time>2020-10-19T10:51:31Z</time>
      </trkpt>
      <trkpt lat="42.8503870" lon="-7.7626310">
        <ele>708.7</ele>
        <time>2020-10-19T10:51:32Z</time>
      </trkpt>
      <trkpt lat="42.8503860" lon="-7.7626360">
        <ele>708.7</ele>
        <time>2020-10-19T10:51:33Z</time>
      </trkpt>
      <trkpt lat="42.8503850" lon="-7.7626410">
        <ele>708.7</ele>
        <time>2020-10-19T10:51:34Z</time>
      </trkpt>
      <trkpt lat="42.8503840" lon="-7.7626440">
        <ele>708.7</ele>
        <time>2020-10-19T10:51:35Z</time>
      </trkpt>
      <trkpt lat="42.8503830" lon="-7.7626460">
        <ele>708.7</ele>
        <time>2020-10-19T10:51:36Z</time>
      </trkpt>
      <trkpt lat="42.8503820" lon="-7.7626460">
        <ele>708.7</ele>
        <time>2020-10-19T10:51:37Z</time>
      </trkpt>
      <trkpt lat="42.8503810" lon="-7.7626460">
        <ele>708.7</ele>
        <time>2020-10-19T10:51:38Z</time>
      </trkpt>
      <trkpt lat="42.8503790" lon="-7.7626450">
        <ele>708.6</ele>
        <time>2020-10-19T10:51:39Z</time>
      </trkpt>
      <trkpt lat="42.8503770" lon="-7.7626450">
        <ele>708.6</ele>
        <time>2020-10-19T10:51:40Z</time>
      </trkpt>
      <trkpt lat="42.8503750" lon="-7.7626450">
        <ele>708.6</ele>
        <time>2020-10-19T10:51:41Z</time>
      </trkpt>
      <trkpt lat="42.8503740" lon="-7.7626450">
        <ele>708.6</ele>
        <time>2020-10-19T10:51:42Z</time>
      </trkpt>
      <trkpt lat="42.8503720" lon="-7.7626440">
        <ele>708.6</ele>
        <time>2020-10-19T10:51:43Z</time>
      </trkpt>
      <trkpt lat="42.8503710" lon="-7.7626440">
        <ele>708.6</ele>
        <time>2020-10-19T10:51:44Z</time>
      </trkpt>
      <trkpt lat="42.8503710" lon="-7.7626440">
        <ele>708.6</ele>
        <time>2020-10-19T10:51:45Z</time>
      </trkpt>
      <trkpt lat="42.8503700" lon="-7.7626440">
        <ele>708.6</ele>
        <time>2020-10-19T10:51:46Z</time>
      </trkpt>
      <trkpt lat="42.8503700" lon="-7.7626440">
        <ele>708.6</ele>
        <time>2020-10-19T10:51:47Z</time>
      </trkpt>
      <trkpt lat="42.8503710" lon="-7.7626440">
        <ele>708.6</ele>
        <time>2020-10-19T10:51:48Z</time>
      </trkpt>
      <trkpt lat="42.8503710" lon="-7.7626440">
        <ele>708.6</ele>
        <time>2020-10-19T10:51:49Z</time>
      </trkpt>
      <trkpt lat="42.8503720" lon="-7.7626440">
        <ele>708.6</ele>
        <time>2020-10-19T10:51:50Z</time>
      </trkpt>
      <trkpt lat="42.8503730" lon="-7.7626440">
        <ele>708.6</ele>
        <time>2020-10-19T10:51:51Z</time>
      </trkpt>
      <trkpt lat="42.8503730" lon="-7.7626440">
        <ele>708.6</ele>
        <time>2020-10-19T10:51:52Z</time>
      </trkpt>
      <trkpt lat="42.8503730" lon="-7.7626450">
        <ele>708.6</ele>
        <time>2020-10-19T10:51:53Z</time>
      </trkpt>
      <trkpt lat="42.8503730" lon="-7.7626450">
        <ele>708.6</ele>
        <time>2020-10-19T10:51:54Z</time>
      </trkpt>
      <trkpt lat="42.8503740" lon="-7.7626460">
        <ele>708.6</ele>
        <time>2020-10-19T10:51:55Z</time>
      </trkpt>
      <trkpt lat="42.8503740" lon="-7.7626460">
        <ele>708.6</ele>
        <time>2020-10-19T10:51:56Z</time>
      </trkpt>
      <trkpt lat="42.8503730" lon="-7.7626460">
        <ele>708.5</ele>
        <time>2020-10-19T10:51:57Z</time>
      </trkpt>
      <trkpt lat="42.8503740" lon="-7.7626460">
        <ele>708.5</ele>
        <time>2020-10-19T10:51:58Z</time>
      </trkpt>
      <trkpt lat="42.8503740" lon="-7.7626470">
        <ele>708.5</ele>
        <time>2020-10-19T10:51:59Z</time>
      </trkpt>
      <trkpt lat="42.8503750" lon="-7.7626480">
        <ele>708.5</ele>
        <time>2020-10-19T10:52:00Z</time>
      </trkpt>
      <trkpt lat="42.8503750" lon="-7.7626490">
        <ele>708.5</ele>
        <time>2020-10-19T10:52:01Z</time>
      </trkpt>
      <trkpt lat="42.8503760" lon="-7.7626490">
        <ele>708.5</ele>
        <time>2020-10-19T10:52:02Z</time>
      </trkpt>
      <trkpt lat="42.8503750" lon="-7.7626490">
        <ele>708.5</ele>
        <time>2020-10-19T10:52:03Z</time>
      </trkpt>
      <trkpt lat="42.8503750" lon="-7.7626490">
        <ele>708.5</ele>
        <time>2020-10-19T10:52:04Z</time>
      </trkpt>
      <trkpt lat="42.8503750" lon="-7.7626490">
        <ele>708.5</ele>
        <time>2020-10-19T10:52:05Z</time>
      </trkpt>
      <trkpt lat="42.8503750" lon="-7.7626490">
        <ele>708.5</ele>
        <time>2020-10-19T10:52:06Z</time>
      </trkpt>
      <trkpt lat="42.8503740" lon="-7.7626490">
        <ele>708.5</ele>
        <time>2020-10-19T10:52:07Z</time>
      </trkpt>
      <trkpt lat="42.8503740" lon="-7.7626490">
        <ele>708.5</ele>
        <time>2020-10-19T10:52:08Z</time>
      </trkpt>
      <trkpt lat="42.8503730" lon="-7.7626490">
        <ele>708.5</ele>
        <time>2020-10-19T10:52:09Z</time>
      </trkpt>
      <trkpt lat="42.8503730" lon="-7.7626490">
        <ele>708.5</ele>
        <time>2020-10-19T10:52:10Z</time>
      </trkpt>
      <trkpt lat="42.8503730" lon="-7.7626490">
        <ele>708.5</ele>
        <time>2020-10-19T10:52:11Z</time>
      </trkpt>
      <trkpt lat="42.8503730" lon="-7.7626490">
        <ele>708.5</ele>
        <time>2020-10-19T10:52:12Z</time>
      </trkpt>
      <trkpt lat="42.8503730" lon="-7.7626500">
        <ele>708.5</ele>
        <time>2020-10-19T10:52:13Z</time>
      </trkpt>
      <trkpt lat="42.8503730" lon="-7.7626500">
        <ele>708.5</ele>
        <time>2020-10-19T10:52:14Z</time>
      </trkpt>
      <trkpt lat="42.8503730" lon="-7.7626500">
        <ele>708.5</ele>
        <time>2020-10-19T10:52:15Z</time>
      </trkpt>
      <trkpt lat="42.8503730" lon="-7.7626510">
        <ele>708.5</ele>
        <time>2020-10-19T10:52:16Z</time>
      </trkpt>
      <trkpt lat="42.8503740" lon="-7.7626510">
        <ele>708.5</ele>
        <time>2020-10-19T10:52:17Z</time>
      </trkpt>
      <trkpt lat="42.8503740" lon="-7.7626510">
        <ele>708.5</ele>
        <time>2020-10-19T10:52:18Z</time>
      </trkpt>
      <trkpt lat="42.8503740" lon="-7.7626510">
        <ele>708.5</ele>
        <time>2020-10-19T10:52:19Z</time>
      </trkpt>
      <trkpt lat="42.8503740" lon="-7.7626510">
        <ele>708.5</ele>
        <time>2020-10-19T10:52:20Z</time>
      </trkpt>
      <trkpt lat="42.8503740" lon="-7.7626510">
        <ele>708.5</ele>
        <time>2020-10-19T10:52:21Z</time>
      </trkpt>
      <trkpt lat="42.8503740" lon="-7.7626510">
        <ele>708.5</ele>
        <time>2020-10-19T10:52:22Z</time>
      </trkpt>
      <trkpt lat="42.8503740" lon="-7.7626510">
        <ele>708.5</ele>
        <time>2020-10-19T10:52:23Z</time>
      </trkpt>
      <trkpt lat="42.8503740" lon="-7.7626510">
        <ele>708.5</ele>
        <time>2020-10-19T10:52:24Z</time>
      </trkpt>
      <trkpt lat="42.8503730" lon="-7.7626500">
        <ele>708.5</ele>
        <time>2020-10-19T10:52:25Z</time>
      </trkpt>
      <trkpt lat="42.8503730" lon="-7.7626490">
        <ele>708.5</ele>
        <time>2020-10-19T10:52:26Z</time>
      </trkpt>
      <trkpt lat="42.8503720" lon="-7.7626480">
        <ele>708.5</ele>
        <time>2020-10-19T10:52:27Z</time>
      </trkpt>
      <trkpt lat="42.8503730" lon="-7.7626480">
        <ele>708.5</ele>
        <time>2020-10-19T10:52:28Z</time>
      </trkpt>
      <trkpt lat="42.8503730" lon="-7.7626480">
        <ele>708.5</ele>
        <time>2020-10-19T10:52:29Z</time>
      </trkpt>
      <trkpt lat="42.8503740" lon="-7.7626490">
        <ele>708.5</ele>
        <time>2020-10-19T10:52:30Z</time>
      </trkpt>
      <trkpt lat="42.8503740" lon="-7.7626500">
        <ele>708.4</ele>
        <time>2020-10-19T10:52:31Z</time>
      </trkpt>
      <trkpt lat="42.8503730" lon="-7.7626520">
        <ele>708.4</ele>
        <time>2020-10-19T10:52:32Z</time>
      </trkpt>
      <trkpt lat="42.8503730" lon="-7.7626530">
        <ele>708.4</ele>
        <time>2020-10-19T10:52:33Z</time>
      </trkpt>
      <trkpt lat="42.8503730" lon="-7.7626550">
        <ele>708.4</ele>
        <time>2020-10-19T10:52:34Z</time>
      </trkpt>
      <trkpt lat="42.8503750" lon="-7.7626550">
        <ele>708.4</ele>
        <time>2020-10-19T10:52:35Z</time>
      </trkpt>
      <trkpt lat="42.8503760" lon="-7.7626550">
        <ele>708.4</ele>
        <time>2020-10-19T10:52:36Z</time>
      </trkpt>
      <trkpt lat="42.8503770" lon="-7.7626550">
        <ele>708.4</ele>
        <time>2020-10-19T10:52:37Z</time>
      </trkpt>
      <trkpt lat="42.8503780" lon="-7.7626540">
        <ele>708.4</ele>
        <time>2020-10-19T10:52:38Z</time>
      </trkpt>
      <trkpt lat="42.8503790" lon="-7.7626530">
        <ele>708.4</ele>
        <time>2020-10-19T10:52:39Z</time>
      </trkpt>
      <trkpt lat="42.8503790" lon="-7.7626530">
        <ele>708.4</ele>
        <time>2020-10-19T10:52:40Z</time>
      </trkpt>
      <trkpt lat="42.8503790" lon="-7.7626540">
        <ele>708.4</ele>
        <time>2020-10-19T10:52:41Z</time>
      </trkpt>
      <trkpt lat="42.8503790" lon="-7.7626550">
        <ele>708.4</ele>
        <time>2020-10-19T10:52:42Z</time>
      </trkpt>
      <trkpt lat="42.8503790" lon="-7.7626550">
        <ele>708.4</ele>
        <time>2020-10-19T10:52:43Z</time>
      </trkpt>
      <trkpt lat="42.8503780" lon="-7.7626550">
        <ele>708.4</ele>
        <time>2020-10-19T10:52:44Z</time>
      </trkpt>
      <trkpt lat="42.8503780" lon="-7.7626550">
        <ele>708.4</ele>
        <time>2020-10-19T10:52:45Z</time>
      </trkpt>
      <trkpt lat="42.8503770" lon="-7.7626550">
        <ele>708.4</ele>
        <time>2020-10-19T10:52:46Z</time>
      </trkpt>
      <trkpt lat="42.8503770" lon="-7.7626540">
        <ele>708.4</ele>
        <time>2020-10-19T10:52:47Z</time>
      </trkpt>
      <trkpt lat="42.8503780" lon="-7.7626540">
        <ele>708.3</ele>
        <time>2020-10-19T10:52:48Z</time>
      </trkpt>
      <trkpt lat="42.8503780" lon="-7.7626540">
        <ele>708.3</ele>
        <time>2020-10-19T10:52:49Z</time>
      </trkpt>
      <trkpt lat="42.8503790" lon="-7.7626530">
        <ele>708.3</ele>
        <time>2020-10-19T10:52:50Z</time>
      </trkpt>
      <trkpt lat="42.8503790" lon="-7.7626540">
        <ele>708.3</ele>
        <time>2020-10-19T10:52:51Z</time>
      </trkpt>
      <trkpt lat="42.8503810" lon="-7.7626580">
        <ele>708.3</ele>
        <time>2020-10-19T10:52:52Z</time>
      </trkpt>
      <trkpt lat="42.8503840" lon="-7.7626650">
        <ele>708.3</ele>
        <time>2020-10-19T10:52:53Z</time>
      </trkpt>
      <trkpt lat="42.8503880" lon="-7.7626740">
        <ele>708.2</ele>
        <time>2020-10-19T10:52:54Z</time>
      </trkpt>
      <trkpt lat="42.8503920" lon="-7.7626830">
        <ele>708.2</ele>
        <time>2020-10-19T10:52:55Z</time>
      </trkpt>
      <trkpt lat="42.8503970" lon="-7.7626920">
        <ele>708.1</ele>
        <time>2020-10-19T10:52:56Z</time>
      </trkpt>
      <trkpt lat="42.8504030" lon="-7.7627010">
        <ele>708.1</ele>
        <time>2020-10-19T10:52:57Z</time>
      </trkpt>
      <trkpt lat="42.8504070" lon="-7.7627120">
        <ele>708.0</ele>
        <time>2020-10-19T10:52:58Z</time>
      </trkpt>
      <trkpt lat="42.8504100" lon="-7.7627230">
        <ele>708.0</ele>
        <time>2020-10-19T10:52:59Z</time>
      </trkpt>
      <trkpt lat="42.8504130" lon="-7.7627350">
        <ele>707.9</ele>
        <time>2020-10-19T10:53:00Z</time>
      </trkpt>
      <trkpt lat="42.8504170" lon="-7.7627480">
        <ele>707.8</ele>
        <time>2020-10-19T10:53:01Z</time>
      </trkpt>
      <trkpt lat="42.8504220" lon="-7.7627620">
        <ele>707.8</ele>
        <time>2020-10-19T10:53:02Z</time>
      </trkpt>
      <trkpt lat="42.8504260" lon="-7.7627760">
        <ele>707.7</ele>
        <time>2020-10-19T10:53:03Z</time>
      </trkpt>
      <trkpt lat="42.8504310" lon="-7.7627900">
        <ele>707.6</ele>
        <time>2020-10-19T10:53:04Z</time>
      </trkpt>
      <trkpt lat="42.8504370" lon="-7.7628040">
        <ele>707.5</ele>
        <time>2020-10-19T10:53:05Z</time>
      </trkpt>
      <trkpt lat="42.8504440" lon="-7.7628170">
        <ele>707.5</ele>
        <time>2020-10-19T10:53:06Z</time>
      </trkpt>
      <trkpt lat="42.8504500" lon="-7.7628310">
        <ele>707.4</ele>
        <time>2020-10-19T10:53:07Z</time>
      </trkpt>
      <trkpt lat="42.8504550" lon="-7.7628450">
        <ele>707.3</ele>
        <time>2020-10-19T10:53:08Z</time>
      </trkpt>
      <trkpt lat="42.8504610" lon="-7.7628600">
        <ele>707.2</ele>
        <time>2020-10-19T10:53:09Z</time>
      </trkpt>
      <trkpt lat="42.8504660" lon="-7.7628740">
        <ele>707.1</ele>
        <time>2020-10-19T10:53:10Z</time>
      </trkpt>
      <trkpt lat="42.8504710" lon="-7.7628880">
        <ele>707.1</ele>
        <time>2020-10-19T10:53:11Z</time>
      </trkpt>
      <trkpt lat="42.8504770" lon="-7.7629030">
        <ele>707.0</ele>
        <time>2020-10-19T10:53:12Z</time>
      </trkpt>
      <trkpt lat="42.8504830" lon="-7.7629180">
        <ele>706.9</ele>
        <time>2020-10-19T10:53:13Z</time>
      </trkpt>
      <trkpt lat="42.8504900" lon="-7.7629330">
        <ele>706.8</ele>
        <time>2020-10-19T10:53:14Z</time>
      </trkpt>
      <trkpt lat="42.8504960" lon="-7.7629490">
        <ele>706.7</ele>
        <time>2020-10-19T10:53:15Z</time>
      </trkpt>
      <trkpt lat="42.8505020" lon="-7.7629640">
        <ele>706.6</ele>
        <time>2020-10-19T10:53:16Z</time>
      </trkpt>
      <trkpt lat="42.8505100" lon="-7.7629790">
        <ele>706.5</ele>
        <time>2020-10-19T10:53:17Z</time>
      </trkpt>
      <trkpt lat="42.8505170" lon="-7.7629940">
        <ele>706.4</ele>
        <time>2020-10-19T10:53:18Z</time>
      </trkpt>
      <trkpt lat="42.8505230" lon="-7.7630100">
        <ele>706.4</ele>
        <time>2020-10-19T10:53:19Z</time>
      </trkpt>
      <trkpt lat="42.8505290" lon="-7.7630260">
        <ele>706.3</ele>
        <time>2020-10-19T10:53:20Z</time>
      </trkpt>
      <trkpt lat="42.8505350" lon="-7.7630420">
        <ele>706.2</ele>
        <time>2020-10-19T10:53:21Z</time>
      </trkpt>
      <trkpt lat="42.8505410" lon="-7.7630580">
        <ele>706.1</ele>
        <time>2020-10-19T10:53:22Z</time>
      </trkpt>
      <trkpt lat="42.8505470" lon="-7.7630740">
        <ele>706.0</ele>
        <time>2020-10-19T10:53:23Z</time>
      </trkpt>
      <trkpt lat="42.8505540" lon="-7.7630890">
        <ele>705.9</ele>
        <time>2020-10-19T10:53:24Z</time>
      </trkpt>
      <trkpt lat="42.8505600" lon="-7.7631040">
        <ele>705.8</ele>
        <time>2020-10-19T10:53:25Z</time>
      </trkpt>
      <trkpt lat="42.8505660" lon="-7.7631180">
        <ele>705.7</ele>
        <time>2020-10-19T10:53:26Z</time>
      </trkpt>
      <trkpt lat="42.8505720" lon="-7.7631340">
        <ele>705.6</ele>
        <time>2020-10-19T10:53:27Z</time>
      </trkpt>
      <trkpt lat="42.8505800" lon="-7.7631490">
        <ele>705.6</ele>
        <time>2020-10-19T10:53:28Z</time>
      </trkpt>
      <trkpt lat="42.8505860" lon="-7.7631650">
        <ele>705.5</ele>
        <time>2020-10-19T10:53:29Z</time>
      </trkpt>
      <trkpt lat="42.8505930" lon="-7.7631810">
        <ele>705.4</ele>
        <time>2020-10-19T10:53:30Z</time>
      </trkpt>
      <trkpt lat="42.8505990" lon="-7.7631980">
        <ele>705.3</ele>
        <time>2020-10-19T10:53:31Z</time>
      </trkpt>
      <trkpt lat="42.8506050" lon="-7.7632150">
        <ele>705.2</ele>
        <time>2020-10-19T10:53:32Z</time>
      </trkpt>
      <trkpt lat="42.8506120" lon="-7.7632320">
        <ele>705.1</ele>
        <time>2020-10-19T10:53:33Z</time>
      </trkpt>
      <trkpt lat="42.8506170" lon="-7.7632470">
        <ele>705.0</ele>
        <time>2020-10-19T10:53:34Z</time>
      </trkpt>
      <trkpt lat="42.8506210" lon="-7.7632630">
        <ele>704.9</ele>
        <time>2020-10-19T10:53:35Z</time>
      </trkpt>
      <trkpt lat="42.8506260" lon="-7.7632790">
        <ele>704.8</ele>
        <time>2020-10-19T10:53:36Z</time>
      </trkpt>
      <trkpt lat="42.8506310" lon="-7.7632950">
        <ele>704.7</ele>
        <time>2020-10-19T10:53:37Z</time>
      </trkpt>
      <trkpt lat="42.8506380" lon="-7.7633110">
        <ele>704.6</ele>
        <time>2020-10-19T10:53:38Z</time>
      </trkpt>
      <trkpt lat="42.8506440" lon="-7.7633260">
        <ele>704.5</ele>
        <time>2020-10-19T10:53:39Z</time>
      </trkpt>
      <trkpt lat="42.8506490" lon="-7.7633420">
        <ele>704.4</ele>
        <time>2020-10-19T10:53:40Z</time>
      </trkpt>
      <trkpt lat="42.8506540" lon="-7.7633590">
        <ele>704.3</ele>
        <time>2020-10-19T10:53:41Z</time>
      </trkpt>
      <trkpt lat="42.8506610" lon="-7.7633750">
        <ele>704.2</ele>
        <time>2020-10-19T10:53:42Z</time>
      </trkpt>
      <trkpt lat="42.8506680" lon="-7.7633920">
        <ele>704.1</ele>
        <time>2020-10-19T10:53:43Z</time>
      </trkpt>
      <trkpt lat="42.8506750" lon="-7.7634090">
        <ele>704.0</ele>
        <time>2020-10-19T10:53:44Z</time>
      </trkpt>
      <trkpt lat="42.8506830" lon="-7.7634250">
        <ele>703.9</ele>
        <time>2020-10-19T10:53:45Z</time>
      </trkpt>
      <trkpt lat="42.8506900" lon="-7.7634420">
        <ele>703.8</ele>
        <time>2020-10-19T10:53:46Z</time>
      </trkpt>
      <trkpt lat="42.8506950" lon="-7.7634590">
        <ele>703.7</ele>
        <time>2020-10-19T10:53:47Z</time>
      </trkpt>
      <trkpt lat="42.8507010" lon="-7.7634760">
        <ele>703.6</ele>
        <time>2020-10-19T10:53:48Z</time>
      </trkpt>
      <trkpt lat="42.8507070" lon="-7.7634930">
        <ele>703.5</ele>
        <time>2020-10-19T10:53:49Z</time>
      </trkpt>
      <trkpt lat="42.8507140" lon="-7.7635100">
        <ele>703.3</ele>
        <time>2020-10-19T10:53:50Z</time>
      </trkpt>
      <trkpt lat="42.8507200" lon="-7.7635270">
        <ele>703.2</ele>
        <time>2020-10-19T10:53:51Z</time>
      </trkpt>
      <trkpt lat="42.8507260" lon="-7.7635440">
        <ele>703.1</ele>
        <time>2020-10-19T10:53:52Z</time>
      </trkpt>
      <trkpt lat="42.8507320" lon="-7.7635610">
        <ele>703.0</ele>
        <time>2020-10-19T10:53:53Z</time>
      </trkpt>
      <trkpt lat="42.8507380" lon="-7.7635770">
        <ele>702.9</ele>
        <time>2020-10-19T10:53:54Z</time>
      </trkpt>
      <trkpt lat="42.8507430" lon="-7.7635940">
        <ele>702.8</ele>
        <time>2020-10-19T10:53:55Z</time>
      </trkpt>
      <trkpt lat="42.8507480" lon="-7.7636100">
        <ele>702.7</ele>
        <time>2020-10-19T10:53:56Z</time>
      </trkpt>
      <trkpt lat="42.8507530" lon="-7.7636250">
        <ele>702.6</ele>
        <time>2020-10-19T10:53:57Z</time>
      </trkpt>
      <trkpt lat="42.8507590" lon="-7.7636410">
        <ele>702.5</ele>
        <time>2020-10-19T10:53:58Z</time>
      </trkpt>
      <trkpt lat="42.8507650" lon="-7.7636570">
        <ele>702.4</ele>
        <time>2020-10-19T10:53:59Z</time>
      </trkpt>
      <trkpt lat="42.8507720" lon="-7.7636730">
        <ele>702.3</ele>
        <time>2020-10-19T10:54:00Z</time>
      </trkpt>
      <trkpt lat="42.8507790" lon="-7.7636890">
        <ele>702.2</ele>
        <time>2020-10-19T10:54:01Z</time>
      </trkpt>
      <trkpt lat="42.8507860" lon="-7.7637060">
        <ele>702.1</ele>
        <time>2020-10-19T10:54:02Z</time>
      </trkpt>
      <trkpt lat="42.8507910" lon="-7.7637240">
        <ele>702.0</ele>
        <time>2020-10-19T10:54:03Z</time>
      </trkpt>
      <trkpt lat="42.8507960" lon="-7.7637410">
        <ele>701.9</ele>
        <time>2020-10-19T10:54:04Z</time>
      </trkpt>
      <trkpt lat="42.8508000" lon="-7.7637590">
        <ele>701.8</ele>
        <time>2020-10-19T10:54:05Z</time>
      </trkpt>
      <trkpt lat="42.8508060" lon="-7.7637760">
        <ele>701.7</ele>
        <time>2020-10-19T10:54:06Z</time>
      </trkpt>
      <trkpt lat="42.8508130" lon="-7.7637930">
        <ele>701.6</ele>
        <time>2020-10-19T10:54:07Z</time>
      </trkpt>
      <trkpt lat="42.8508190" lon="-7.7638100">
        <ele>701.5</ele>
        <time>2020-10-19T10:54:08Z</time>
      </trkpt>
      <trkpt lat="42.8508240" lon="-7.7638280">
        <ele>701.4</ele>
        <time>2020-10-19T10:54:09Z</time>
      </trkpt>
      <trkpt lat="42.8508280" lon="-7.7638450">
        <ele>701.3</ele>
        <time>2020-10-19T10:54:10Z</time>
      </trkpt>
      <trkpt lat="42.8508330" lon="-7.7638620">
        <ele>701.2</ele>
        <time>2020-10-19T10:54:11Z</time>
      </trkpt>
      <trkpt lat="42.8508380" lon="-7.7638790">
        <ele>701.1</ele>
        <time>2020-10-19T10:54:12Z</time>
      </trkpt>
      <trkpt lat="42.8508420" lon="-7.7638970">
        <ele>701.0</ele>
        <time>2020-10-19T10:54:13Z</time>
      </trkpt>
      <trkpt lat="42.8508470" lon="-7.7639140">
        <ele>700.9</ele>
        <time>2020-10-19T10:54:14Z</time>
      </trkpt>
      <trkpt lat="42.8508510" lon="-7.7639320">
        <ele>700.8</ele>
        <time>2020-10-19T10:54:15Z</time>
      </trkpt>
      <trkpt lat="42.8508550" lon="-7.7639490">
        <ele>700.7</ele>
        <time>2020-10-19T10:54:16Z</time>
      </trkpt>
      <trkpt lat="42.8508590" lon="-7.7639660">
        <ele>700.6</ele>
        <time>2020-10-19T10:54:17Z</time>
      </trkpt>
      <trkpt lat="42.8508630" lon="-7.7639830">
        <ele>700.5</ele>
        <time>2020-10-19T10:54:18Z</time>
      </trkpt>
      <trkpt lat="42.8508680" lon="-7.7640010">
        <ele>700.4</ele>
        <time>2020-10-19T10:54:19Z</time>
      </trkpt>
      <trkpt lat="42.8508710" lon="-7.7640180">
        <ele>700.3</ele>
        <time>2020-10-19T10:54:20Z</time>
      </trkpt>
      <trkpt lat="42.8508750" lon="-7.7640350">
        <ele>700.2</ele>
        <time>2020-10-19T10:54:21Z</time>
      </trkpt>
      <trkpt lat="42.8508790" lon="-7.7640530">
        <ele>700.1</ele>
        <time>2020-10-19T10:54:22Z</time>
      </trkpt>
      <trkpt lat="42.8508830" lon="-7.7640710">
        <ele>700.0</ele>
        <time>2020-10-19T10:54:23Z</time>
      </trkpt>
      <trkpt lat="42.8508870" lon="-7.7640880">
        <ele>699.9</ele>
        <time>2020-10-19T10:54:24Z</time>
      </trkpt>
      <trkpt lat="42.8508900" lon="-7.7641050">
        <ele>699.8</ele>
        <time>2020-10-19T10:54:25Z</time>
      </trkpt>
      <trkpt lat="42.8508940" lon="-7.7641230">
        <ele>699.6</ele>
        <time>2020-10-19T10:54:26Z</time>
      </trkpt>
      <trkpt lat="42.8508970" lon="-7.7641400">
        <ele>699.5</ele>
        <time>2020-10-19T10:54:27Z</time>
      </trkpt>
      <trkpt lat="42.8509010" lon="-7.7641580">
        <ele>699.4</ele>
        <time>2020-10-19T10:54:28Z</time>
      </trkpt>
      <trkpt lat="42.8509040" lon="-7.7641760">
        <ele>699.3</ele>
        <time>2020-10-19T10:54:29Z</time>
      </trkpt>
      <trkpt lat="42.8509070" lon="-7.7641930">
        <ele>699.2</ele>
        <time>2020-10-19T10:54:30Z</time>
      </trkpt>
      <trkpt lat="42.8509110" lon="-7.7642100">
        <ele>699.1</ele>
        <time>2020-10-19T10:54:31Z</time>
      </trkpt>
      <trkpt lat="42.8509140" lon="-7.7642280">
        <ele>699.0</ele>
        <time>2020-10-19T10:54:32Z</time>
      </trkpt>
      <trkpt lat="42.8509180" lon="-7.7642450">
        <ele>698.9</ele>
        <time>2020-10-19T10:54:33Z</time>
      </trkpt>
      <trkpt lat="42.8509210" lon="-7.7642630">
        <ele>698.8</ele>
        <time>2020-10-19T10:54:34Z</time>
      </trkpt>
      <trkpt lat="42.8509250" lon="-7.7642810">
        <ele>698.7</ele>
        <time>2020-10-19T10:54:35Z</time>
      </trkpt>
      <trkpt lat="42.8509280" lon="-7.7642980">
        <ele>698.6</ele>
        <time>2020-10-19T10:54:36Z</time>
      </trkpt>
      <trkpt lat="42.8509310" lon="-7.7643160">
        <ele>698.4</ele>
        <time>2020-10-19T10:54:37Z</time>
      </trkpt>
      <trkpt lat="42.8509340" lon="-7.7643340">
        <ele>698.3</ele>
        <time>2020-10-19T10:54:38Z</time>
      </trkpt>
      <trkpt lat="42.8509380" lon="-7.7643520">
        <ele>698.2</ele>
        <time>2020-10-19T10:54:39Z</time>
      </trkpt>
      <trkpt lat="42.8509430" lon="-7.7643700">
        <ele>698.1</ele>
        <time>2020-10-19T10:54:40Z</time>
      </trkpt>
      <trkpt lat="42.8509470" lon="-7.7643880">
        <ele>698.0</ele>
        <time>2020-10-19T10:54:41Z</time>
      </trkpt>
      <trkpt lat="42.8509510" lon="-7.7644050">
        <ele>697.9</ele>
        <time>2020-10-19T10:54:42Z</time>
      </trkpt>
      <trkpt lat="42.8509540" lon="-7.7644220">
        <ele>697.8</ele>
        <time>2020-10-19T10:54:43Z</time>
      </trkpt>
      <trkpt lat="42.8509580" lon="-7.7644400">
        <ele>697.7</ele>
        <time>2020-10-19T10:54:44Z</time>
      </trkpt>
      <trkpt lat="42.8509610" lon="-7.7644570">
        <ele>697.6</ele>
        <time>2020-10-19T10:54:45Z</time>
      </trkpt>
      <trkpt lat="42.8509650" lon="-7.7644750">
        <ele>697.5</ele>
        <time>2020-10-19T10:54:46Z</time>
      </trkpt>
      <trkpt lat="42.8509690" lon="-7.7644920">
        <ele>697.4</ele>
        <time>2020-10-19T10:54:47Z</time>
      </trkpt>
      <trkpt lat="42.8509720" lon="-7.7645080">
        <ele>697.3</ele>
        <time>2020-10-19T10:54:48Z</time>
      </trkpt>
      <trkpt lat="42.8509760" lon="-7.7645250">
        <ele>697.2</ele>
        <time>2020-10-19T10:54:49Z</time>
      </trkpt>
      <trkpt lat="42.8509800" lon="-7.7645430">
        <ele>697.1</ele>
        <time>2020-10-19T10:54:50Z</time>
      </trkpt>
      <trkpt lat="42.8509840" lon="-7.7645610">
        <ele>697.0</ele>
        <time>2020-10-19T10:54:51Z</time>
      </trkpt>
      <trkpt lat="42.8509890" lon="-7.7645780">
        <ele>696.9</ele>
        <time>2020-10-19T10:54:52Z</time>
      </trkpt>
      <trkpt lat="42.8509940" lon="-7.7645950">
        <ele>696.8</ele>
        <time>2020-10-19T10:54:53Z</time>
      </trkpt>
      <trkpt lat="42.8509980" lon="-7.7646120">
        <ele>696.7</ele>
        <time>2020-10-19T10:54:54Z</time>
      </trkpt>
      <trkpt lat="42.8510010" lon="-7.7646290">
        <ele>696.6</ele>
        <time>2020-10-19T10:54:55Z</time>
      </trkpt>
      <trkpt lat="42.8510040" lon="-7.7646470">
        <ele>696.5</ele>
        <time>2020-10-19T10:54:56Z</time>
      </trkpt>
      <trkpt lat="42.8510070" lon="-7.7646650">
        <ele>696.4</ele>
        <time>2020-10-19T10:54:57Z</time>
      </trkpt>
      <trkpt lat="42.8510100" lon="-7.7646830">
        <ele>696.3</ele>
        <time>2020-10-19T10:54:58Z</time>
      </trkpt>
      <trkpt lat="42.8510120" lon="-7.7647010">
        <ele>696.2</ele>
        <time>2020-10-19T10:54:59Z</time>
      </trkpt>
      <trkpt lat="42.8510140" lon="-7.7647190">
        <ele>696.1</ele>
        <time>2020-10-19T10:55:00Z</time>
      </trkpt>
      <trkpt lat="42.8510140" lon="-7.7647370">
        <ele>696.0</ele>
        <time>2020-10-19T10:55:01Z</time>
      </trkpt>
      <trkpt lat="42.8510150" lon="-7.7647550">
        <ele>695.9</ele>
        <time>2020-10-19T10:55:02Z</time>
      </trkpt>
      <trkpt lat="42.8510160" lon="-7.7647730">
        <ele>695.8</ele>
        <time>2020-10-19T10:55:03Z</time>
      </trkpt>
      <trkpt lat="42.8510180" lon="-7.7647910">
        <ele>695.7</ele>
        <time>2020-10-19T10:55:04Z</time>
      </trkpt>
      <trkpt lat="42.8510200" lon="-7.7648090">
        <ele>695.6</ele>
        <time>2020-10-19T10:55:05Z</time>
      </trkpt>
      <trkpt lat="42.8510220" lon="-7.7648280">
        <ele>695.5</ele>
        <time>2020-10-19T10:55:06Z</time>
      </trkpt>
      <trkpt lat="42.8510260" lon="-7.7648460">
        <ele>695.4</ele>
        <time>2020-10-19T10:55:07Z</time>
      </trkpt>
      <trkpt lat="42.8510310" lon="-7.7648640">
        <ele>695.3</ele>
        <time>2020-10-19T10:55:08Z</time>
      </trkpt>
      <trkpt lat="42.8510370" lon="-7.7648810">
        <ele>695.2</ele>
        <time>2020-10-19T10:55:09Z</time>
      </trkpt>
      <trkpt lat="42.8510420" lon="-7.7648980">
        <ele>695.1</ele>
        <time>2020-10-19T10:55:10Z</time>
      </trkpt>
      <trkpt lat="42.8510460" lon="-7.7649150">
        <ele>695.0</ele>
        <time>2020-10-19T10:55:11Z</time>
      </trkpt>
      <trkpt lat="42.8510500" lon="-7.7649310">
        <ele>695.0</ele>
        <time>2020-10-19T10:55:12Z</time>
      </trkpt>
      <trkpt lat="42.8510530" lon="-7.7649480">
        <ele>694.9</ele>
        <time>2020-10-19T10:55:13Z</time>
      </trkpt>
      <trkpt lat="42.8510570" lon="-7.7649660">
        <ele>694.8</ele>
        <time>2020-10-19T10:55:14Z</time>
      </trkpt>
      <trkpt lat="42.8510600" lon="-7.7649830">
        <ele>694.7</ele>
        <time>2020-10-19T10:55:15Z</time>
      </trkpt>
      <trkpt lat="42.8510640" lon="-7.7650000">
        <ele>694.6</ele>
        <time>2020-10-19T10:55:16Z</time>
      </trkpt>
      <trkpt lat="42.8510660" lon="-7.7650160">
        <ele>694.6</ele>
        <time>2020-10-19T10:55:17Z</time>
      </trkpt>
      <trkpt lat="42.8510700" lon="-7.7650330">
        <ele>694.5</ele>
        <time>2020-10-19T10:55:18Z</time>
      </trkpt>
      <trkpt lat="42.8510730" lon="-7.7650490">
        <ele>694.4</ele>
        <time>2020-10-19T10:55:19Z</time>
      </trkpt>
      <trkpt lat="42.8510750" lon="-7.7650660">
        <ele>694.3</ele>
        <time>2020-10-19T10:55:20Z</time>
      </trkpt>
      <trkpt lat="42.8510780" lon="-7.7650820">
        <ele>694.2</ele>
        <time>2020-10-19T10:55:21Z</time>
      </trkpt>
      <trkpt lat="42.8510800" lon="-7.7650980">
        <ele>694.2</ele>
        <time>2020-10-19T10:55:22Z</time>
      </trkpt>
      <trkpt lat="42.8510820" lon="-7.7651150">
        <ele>694.1</ele>
        <time>2020-10-19T10:55:23Z</time>
      </trkpt>
      <trkpt lat="42.8510860" lon="-7.7651310">
        <ele>694.0</ele>
        <time>2020-10-19T10:55:24Z</time>
      </trkpt>
      <trkpt lat="42.8510910" lon="-7.7651490">
        <ele>693.9</ele>
        <time>2020-10-19T10:55:25Z</time>
      </trkpt>
      <trkpt lat="42.8510980" lon="-7.7651670">
        <ele>693.8</ele>
        <time>2020-10-19T10:55:26Z</time>
      </trkpt>
      <trkpt lat="42.8511050" lon="-7.7651840">
        <ele>693.7</ele>
        <time>2020-10-19T10:55:27Z</time>
      </trkpt>
      <trkpt lat="42.8511100" lon="-7.7652020">
        <ele>693.6</ele>
        <time>2020-10-19T10:55:28Z</time>
      </trkpt>
      <trkpt lat="42.8511140" lon="-7.7652190">
        <ele>693.6</ele>
        <time>2020-10-19T10:55:29Z</time>
      </trkpt>
      <trkpt lat="42.8511180" lon="-7.7652370">
        <ele>693.5</ele>
        <time>2020-10-19T10:55:30Z</time>
      </trkpt>
      <trkpt lat="42.8511220" lon="-7.7652550">
        <ele>693.4</ele>
        <time>2020-10-19T10:55:31Z</time>
      </trkpt>
      <trkpt lat="42.8511250" lon="-7.7652730">
        <ele>693.3</ele>
        <time>2020-10-19T10:55:32Z</time>
      </trkpt>
      <trkpt lat="42.8511280" lon="-7.7652900">
        <ele>693.2</ele>
        <time>2020-10-19T10:55:33Z</time>
      </trkpt>
      <trkpt lat="42.8511300" lon="-7.7653080">
        <ele>693.1</ele>
        <time>2020-10-19T10:55:34Z</time>
      </trkpt>
      <trkpt lat="42.8511310" lon="-7.7653260">
        <ele>693.0</ele>
        <time>2020-10-19T10:55:35Z</time>
      </trkpt>
      <trkpt lat="42.8511320" lon="-7.7653440">
        <ele>692.9</ele>
        <time>2020-10-19T10:55:36Z</time>
      </trkpt>
      <trkpt lat="42.8511350" lon="-7.7653620">
        <ele>692.8</ele>
        <time>2020-10-19T10:55:37Z</time>
      </trkpt>
      <trkpt lat="42.8511390" lon="-7.7653800">
        <ele>692.7</ele>
        <time>2020-10-19T10:55:38Z</time>
      </trkpt>
      <trkpt lat="42.8511430" lon="-7.7653980">
        <ele>692.6</ele>
        <time>2020-10-19T10:55:39Z</time>
      </trkpt>
      <trkpt lat="42.8511470" lon="-7.7654160">
        <ele>692.5</ele>
        <time>2020-10-19T10:55:40Z</time>
      </trkpt>
      <trkpt lat="42.8511520" lon="-7.7654330">
        <ele>692.4</ele>
        <time>2020-10-19T10:55:41Z</time>
      </trkpt>
      <trkpt lat="42.8511560" lon="-7.7654510">
        <ele>692.3</ele>
        <time>2020-10-19T10:55:42Z</time>
      </trkpt>
      <trkpt lat="42.8511600" lon="-7.7654670">
        <ele>692.2</ele>
        <time>2020-10-19T10:55:43Z</time>
      </trkpt>
      <trkpt lat="42.8511650" lon="-7.7654850">
        <ele>692.1</ele>
        <time>2020-10-19T10:55:44Z</time>
      </trkpt>
      <trkpt lat="42.8511700" lon="-7.7655030">
        <ele>692.0</ele>
        <time>2020-10-19T10:55:45Z</time>
      </trkpt>
      <trkpt lat="42.8511760" lon="-7.7655210">
        <ele>691.9</ele>
        <time>2020-10-19T10:55:46Z</time>
      </trkpt>
      <trkpt lat="42.8511830" lon="-7.7655380">
        <ele>691.8</ele>
        <time>2020-10-19T10:55:47Z</time>
      </trkpt>
      <trkpt lat="42.8511890" lon="-7.7655560">
        <ele>691.7</ele>
        <time>2020-10-19T10:55:48Z</time>
      </trkpt>
      <trkpt lat="42.8511950" lon="-7.7655750">
        <ele>691.6</ele>
        <time>2020-10-19T10:55:49Z</time>
      </trkpt>
      <trkpt lat="42.8512000" lon="-7.7655930">
        <ele>691.5</ele>
        <time>2020-10-19T10:55:50Z</time>
      </trkpt>
      <trkpt lat="42.8512070" lon="-7.7656120">
        <ele>691.4</ele>
        <time>2020-10-19T10:55:51Z</time>
      </trkpt>
      <trkpt lat="42.8512120" lon="-7.7656300">
        <ele>691.2</ele>
        <time>2020-10-19T10:55:52Z</time>
      </trkpt>
      <trkpt lat="42.8512170" lon="-7.7656480">
        <ele>691.1</ele>
        <time>2020-10-19T10:55:53Z</time>
      </trkpt>
      <trkpt lat="42.8512230" lon="-7.7656660">
        <ele>691.0</ele>
        <time>2020-10-19T10:55:54Z</time>
      </trkpt>
      <trkpt lat="42.8512280" lon="-7.7656840">
        <ele>690.9</ele>
        <time>2020-10-19T10:55:55Z</time>
      </trkpt>
      <trkpt lat="42.8512330" lon="-7.7657010">
        <ele>690.8</ele>
        <time>2020-10-19T10:55:56Z</time>
      </trkpt>
      <trkpt lat="42.8512390" lon="-7.7657190">
        <ele>690.7</ele>
        <time>2020-10-19T10:55:57Z</time>
      </trkpt>
      <trkpt lat="42.8512470" lon="-7.7657360">
        <ele>690.6</ele>
        <time>2020-10-19T10:55:58Z</time>
      </trkpt>
      <trkpt lat="42.8512550" lon="-7.7657540">
        <ele>690.5</ele>
        <time>2020-10-19T10:55:59Z</time>
      </trkpt>
      <trkpt lat="42.8512620" lon="-7.7657710">
        <ele>690.3</ele>
        <time>2020-10-19T10:56:00Z</time>
      </trkpt>
      <trkpt lat="42.8512680" lon="-7.7657890">
        <ele>690.2</ele>
        <time>2020-10-19T10:56:01Z</time>
      </trkpt>
      <trkpt lat="42.8512720" lon="-7.7658080">
        <ele>690.1</ele>
        <time>2020-10-19T10:56:02Z</time>
      </trkpt>
      <trkpt lat="42.8512760" lon="-7.7658260">
        <ele>690.0</ele>
        <time>2020-10-19T10:56:03Z</time>
      </trkpt>
      <trkpt lat="42.8512810" lon="-7.7658440">
        <ele>689.9</ele>
        <time>2020-10-19T10:56:04Z</time>
      </trkpt>
      <trkpt lat="42.8512860" lon="-7.7658620">
        <ele>689.7</ele>
        <time>2020-10-19T10:56:05Z</time>
      </trkpt>
      <trkpt lat="42.8512910" lon="-7.7658790">
        <ele>689.6</ele>
        <time>2020-10-19T10:56:06Z</time>
      </trkpt>
      <trkpt lat="42.8512960" lon="-7.7658970">
        <ele>689.5</ele>
        <time>2020-10-19T10:56:07Z</time>
      </trkpt>
      <trkpt lat="42.8513020" lon="-7.7659140">
        <ele>689.4</ele>
        <time>2020-10-19T10:56:08Z</time>
      </trkpt>
      <trkpt lat="42.8513080" lon="-7.7659320">
        <ele>689.2</ele>
        <time>2020-10-19T10:56:09Z</time>
      </trkpt>
      <trkpt lat="42.8513150" lon="-7.7659490">
        <ele>689.1</ele>
        <time>2020-10-19T10:56:10Z</time>
      </trkpt>
      <trkpt lat="42.8513210" lon="-7.7659670">
        <ele>689.0</ele>
        <time>2020-10-19T10:56:11Z</time>
      </trkpt>
      <trkpt lat="42.8513270" lon="-7.7659850">
        <ele>688.9</ele>
        <time>2020-10-19T10:56:12Z</time>
      </trkpt>
      <trkpt lat="42.8513310" lon="-7.7660030">
        <ele>688.7</ele>
        <time>2020-10-19T10:56:13Z</time>
      </trkpt>
      <trkpt lat="42.8513360" lon="-7.7660200">
        <ele>688.6</ele>
        <time>2020-10-19T10:56:14Z</time>
      </trkpt>
      <trkpt lat="42.8513400" lon="-7.7660380">
        <ele>688.5</ele>
        <time>2020-10-19T10:56:15Z</time>
      </trkpt>
      <trkpt lat="42.8513450" lon="-7.7660550">
        <ele>688.4</ele>
        <time>2020-10-19T10:56:16Z</time>
      </trkpt>
      <trkpt lat="42.8513500" lon="-7.7660730">
        <ele>688.2</ele>
        <time>2020-10-19T10:56:17Z</time>
      </trkpt>
      <trkpt lat="42.8513540" lon="-7.7660890">
        <ele>688.1</ele>
        <time>2020-10-19T10:56:18Z</time>
      </trkpt>
      <trkpt lat="42.8513590" lon="-7.7661060">
        <ele>688.0</ele>
        <time>2020-10-19T10:56:19Z</time>
      </trkpt>
      <trkpt lat="42.8513630" lon="-7.7661230">
        <ele>687.9</ele>
        <time>2020-10-19T10:56:20Z</time>
      </trkpt>
      <trkpt lat="42.8513680" lon="-7.7661410">
        <ele>687.8</ele>
        <time>2020-10-19T10:56:21Z</time>
      </trkpt>
      <trkpt lat="42.8513730" lon="-7.7661590">
        <ele>687.6</ele>
        <time>2020-10-19T10:56:22Z</time>
      </trkpt>
      <trkpt lat="42.8513780" lon="-7.7661760">
        <ele>687.5</ele>
        <time>2020-10-19T10:56:23Z</time>
      </trkpt>
      <trkpt lat="42.8513830" lon="-7.7661930">
        <ele>687.4</ele>
        <time>2020-10-19T10:56:24Z</time>
      </trkpt>
      <trkpt lat="42.8513900" lon="-7.7662100">
        <ele>687.3</ele>
        <time>2020-10-19T10:56:25Z</time>
      </trkpt>
      <trkpt lat="42.8513960" lon="-7.7662270">
        <ele>687.1</ele>
        <time>2020-10-19T10:56:26Z</time>
      </trkpt>
      <trkpt lat="42.8514020" lon="-7.7662440">
        <ele>687.0</ele>
        <time>2020-10-19T10:56:27Z</time>
      </trkpt>
      <trkpt lat="42.8514070" lon="-7.7662610">
        <ele>686.9</ele>
        <time>2020-10-19T10:56:28Z</time>
      </trkpt>
      <trkpt lat="42.8514110" lon="-7.7662780">
        <ele>686.7</ele>
        <time>2020-10-19T10:56:29Z</time>
      </trkpt>
      <trkpt lat="42.8514140" lon="-7.7662950">
        <ele>686.6</ele>
        <time>2020-10-19T10:56:30Z</time>
      </trkpt>
      <trkpt lat="42.8514170" lon="-7.7663130">
        <ele>686.5</ele>
        <time>2020-10-19T10:56:31Z</time>
      </trkpt>
      <trkpt lat="42.8514200" lon="-7.7663300">
        <ele>686.4</ele>
        <time>2020-10-19T10:56:32Z</time>
      </trkpt>
      <trkpt lat="42.8514240" lon="-7.7663460">
        <ele>686.3</ele>
        <time>2020-10-19T10:56:33Z</time>
      </trkpt>
      <trkpt lat="42.8514290" lon="-7.7663620">
        <ele>686.1</ele>
        <time>2020-10-19T10:56:34Z</time>
      </trkpt>
      <trkpt lat="42.8514340" lon="-7.7663780">
        <ele>686.0</ele>
        <time>2020-10-19T10:56:35Z</time>
      </trkpt>
      <trkpt lat="42.8514390" lon="-7.7663940">
        <ele>685.9</ele>
        <time>2020-10-19T10:56:36Z</time>
      </trkpt>
      <trkpt lat="42.8514430" lon="-7.7664100">
        <ele>685.8</ele>
        <time>2020-10-19T10:56:37Z</time>
      </trkpt>
      <trkpt lat="42.8514460" lon="-7.7664260">
        <ele>685.7</ele>
        <time>2020-10-19T10:56:38Z</time>
      </trkpt>
      <trkpt lat="42.8514490" lon="-7.7664420">
        <ele>685.6</ele>
        <time>2020-10-19T10:56:39Z</time>
      </trkpt>
      <trkpt lat="42.8514530" lon="-7.7664570">
        <ele>685.4</ele>
        <time>2020-10-19T10:56:40Z</time>
      </trkpt>
      <trkpt lat="42.8514570" lon="-7.7664730">
        <ele>685.3</ele>
        <time>2020-10-19T10:56:41Z</time>
      </trkpt>
      <trkpt lat="42.8514620" lon="-7.7664890">
        <ele>685.2</ele>
        <time>2020-10-19T10:56:42Z</time>
      </trkpt>
      <trkpt lat="42.8514670" lon="-7.7665050">
        <ele>685.1</ele>
        <time>2020-10-19T10:56:43Z</time>
      </trkpt>
      <trkpt lat="42.8514710" lon="-7.7665210">
        <ele>685.0</ele>
        <time>2020-10-19T10:56:44Z</time>
      </trkpt>
      <trkpt lat="42.8514760" lon="-7.7665370">
        <ele>684.9</ele>
        <time>2020-10-19T10:56:45Z</time>
      </trkpt>
      <trkpt lat="42.8514800" lon="-7.7665530">
        <ele>684.7</ele>
        <time>2020-10-19T10:56:46Z</time>
      </trkpt>
      <trkpt lat="42.8514850" lon="-7.7665700">
        <ele>684.6</ele>
        <time>2020-10-19T10:56:47Z</time>
      </trkpt>
      <trkpt lat="42.8514900" lon="-7.7665860">
        <ele>684.5</ele>
        <time>2020-10-19T10:56:48Z</time>
      </trkpt>
      <trkpt lat="42.8514950" lon="-7.7666030">
        <ele>684.4</ele>
        <time>2020-10-19T10:56:49Z</time>
      </trkpt>
      <trkpt lat="42.8514980" lon="-7.7666210">
        <ele>684.3</ele>
        <time>2020-10-19T10:56:50Z</time>
      </trkpt>
      <trkpt lat="42.8515010" lon="-7.7666390">
        <ele>684.1</ele>
        <time>2020-10-19T10:56:51Z</time>
      </trkpt>
      <trkpt lat="42.8515050" lon="-7.7666570">
        <ele>684.0</ele>
        <time>2020-10-19T10:56:52Z</time>
      </trkpt>
      <trkpt lat="42.8515100" lon="-7.7666750">
        <ele>683.9</ele>
        <time>2020-10-19T10:56:53Z</time>
      </trkpt>
      <trkpt lat="42.8515130" lon="-7.7666930">
        <ele>683.8</ele>
        <time>2020-10-19T10:56:54Z</time>
      </trkpt>
      <trkpt lat="42.8515160" lon="-7.7667110">
        <ele>683.7</ele>
        <time>2020-10-19T10:56:55Z</time>
      </trkpt>
      <trkpt lat="42.8515190" lon="-7.7667290">
        <ele>683.5</ele>
        <time>2020-10-19T10:56:56Z</time>
      </trkpt>
      <trkpt lat="42.8515240" lon="-7.7667480">
        <ele>683.4</ele>
        <time>2020-10-19T10:56:57Z</time>
      </trkpt>
      <trkpt lat="42.8515290" lon="-7.7667660">
        <ele>683.3</ele>
        <time>2020-10-19T10:56:58Z</time>
      </trkpt>
      <trkpt lat="42.8515330" lon="-7.7667860">
        <ele>683.1</ele>
        <time>2020-10-19T10:56:59Z</time>
      </trkpt>
      <trkpt lat="42.8515380" lon="-7.7668050">
        <ele>683.0</ele>
        <time>2020-10-19T10:57:00Z</time>
      </trkpt>
      <trkpt lat="42.8515410" lon="-7.7668240">
        <ele>682.9</ele>
        <time>2020-10-19T10:57:01Z</time>
      </trkpt>
      <trkpt lat="42.8515430" lon="-7.7668410">
        <ele>682.7</ele>
        <time>2020-10-19T10:57:02Z</time>
      </trkpt>
      <trkpt lat="42.8515470" lon="-7.7668580">
        <ele>682.6</ele>
        <time>2020-10-19T10:57:03Z</time>
      </trkpt>
      <trkpt lat="42.8515510" lon="-7.7668740">
        <ele>682.5</ele>
        <time>2020-10-19T10:57:04Z</time>
      </trkpt>
      <trkpt lat="42.8515560" lon="-7.7668910">
        <ele>682.4</ele>
        <time>2020-10-19T10:57:05Z</time>
      </trkpt>
      <trkpt lat="42.8515610" lon="-7.7669080">
        <ele>682.2</ele>
        <time>2020-10-19T10:57:06Z</time>
      </trkpt>
      <trkpt lat="42.8515640" lon="-7.7669240">
        <ele>682.1</ele>
        <time>2020-10-19T10:57:07Z</time>
      </trkpt>
      <trkpt lat="42.8515660" lon="-7.7669420">
        <ele>682.0</ele>
        <time>2020-10-19T10:57:08Z</time>
      </trkpt>
      <trkpt lat="42.8515690" lon="-7.7669590">
        <ele>681.8</ele>
        <time>2020-10-19T10:57:09Z</time>
      </trkpt>
      <trkpt lat="42.8515710" lon="-7.7669760">
        <ele>681.7</ele>
        <time>2020-10-19T10:57:10Z</time>
      </trkpt>
      <trkpt lat="42.8515740" lon="-7.7669930">
        <ele>681.6</ele>
        <time>2020-10-19T10:57:11Z</time>
      </trkpt>
      <trkpt lat="42.8515770" lon="-7.7670110">
        <ele>681.4</ele>
        <time>2020-10-19T10:57:12Z</time>
      </trkpt>
      <trkpt lat="42.8515800" lon="-7.7670300">
        <ele>681.3</ele>
        <time>2020-10-19T10:57:13Z</time>
      </trkpt>
      <trkpt lat="42.8515840" lon="-7.7670490">
        <ele>681.2</ele>
        <time>2020-10-19T10:57:14Z</time>
      </trkpt>
      <trkpt lat="42.8515900" lon="-7.7670680">
        <ele>681.1</ele>
        <time>2020-10-19T10:57:15Z</time>
      </trkpt>
      <trkpt lat="42.8515950" lon="-7.7670870">
        <ele>680.9</ele>
        <time>2020-10-19T10:57:16Z</time>
      </trkpt>
      <trkpt lat="42.8516030" lon="-7.7671070">
        <ele>680.8</ele>
        <time>2020-10-19T10:57:17Z</time>
      </trkpt>
      <trkpt lat="42.8516100" lon="-7.7671280">
        <ele>680.7</ele>
        <time>2020-10-19T10:57:18Z</time>
      </trkpt>
      <trkpt lat="42.8516150" lon="-7.7671490">
        <ele>680.5</ele>
        <time>2020-10-19T10:57:19Z</time>
      </trkpt>
      <trkpt lat="42.8516190" lon="-7.7671700">
        <ele>680.4</ele>
        <time>2020-10-19T10:57:20Z</time>
      </trkpt>
      <trkpt lat="42.8516220" lon="-7.7671890">
        <ele>680.3</ele>
        <time>2020-10-19T10:57:21Z</time>
      </trkpt>
      <trkpt lat="42.8516250" lon="-7.7672070">
        <ele>680.2</ele>
        <time>2020-10-19T10:57:22Z</time>
      </trkpt>
      <trkpt lat="42.8516260" lon="-7.7672240">
        <ele>680.1</ele>
        <time>2020-10-19T10:57:23Z</time>
      </trkpt>
      <trkpt lat="42.8516290" lon="-7.7672420">
        <ele>680.0</ele>
        <time>2020-10-19T10:57:24Z</time>
      </trkpt>
      <trkpt lat="42.8516330" lon="-7.7672610">
        <ele>679.9</ele>
        <time>2020-10-19T10:57:25Z</time>
      </trkpt>
      <trkpt lat="42.8516370" lon="-7.7672820">
        <ele>679.7</ele>
        <time>2020-10-19T10:57:26Z</time>
      </trkpt>
      <trkpt lat="42.8516390" lon="-7.7673030">
        <ele>679.6</ele>
        <time>2020-10-19T10:57:27Z</time>
      </trkpt>
      <trkpt lat="42.8516410" lon="-7.7673230">
        <ele>679.5</ele>
        <time>2020-10-19T10:57:28Z</time>
      </trkpt>
      <trkpt lat="42.8516430" lon="-7.7673430">
        <ele>679.4</ele>
        <time>2020-10-19T10:57:29Z</time>
      </trkpt>
      <trkpt lat="42.8516440" lon="-7.7673630">
        <ele>679.2</ele>
        <time>2020-10-19T10:57:30Z</time>
      </trkpt>
      <trkpt lat="42.8516450" lon="-7.7673840">
        <ele>679.1</ele>
        <time>2020-10-19T10:57:31Z</time>
      </trkpt>
      <trkpt lat="42.8516460" lon="-7.7674040">
        <ele>679.0</ele>
        <time>2020-10-19T10:57:32Z</time>
      </trkpt>
      <trkpt lat="42.8516480" lon="-7.7674230">
        <ele>678.8</ele>
        <time>2020-10-19T10:57:33Z</time>
      </trkpt>
      <trkpt lat="42.8516500" lon="-7.7674410">
        <ele>678.7</ele>
        <time>2020-10-19T10:57:34Z</time>
      </trkpt>
      <trkpt lat="42.8516550" lon="-7.7674590">
        <ele>678.6</ele>
        <time>2020-10-19T10:57:35Z</time>
      </trkpt>
      <trkpt lat="42.8516590" lon="-7.7674780">
        <ele>678.4</ele>
        <time>2020-10-19T10:57:36Z</time>
      </trkpt>
      <trkpt lat="42.8516610" lon="-7.7674960">
        <ele>678.3</ele>
        <time>2020-10-19T10:57:37Z</time>
      </trkpt>
      <trkpt lat="42.8516650" lon="-7.7675140">
        <ele>678.2</ele>
        <time>2020-10-19T10:57:38Z</time>
      </trkpt>
      <trkpt lat="42.8516690" lon="-7.7675330">
        <ele>678.0</ele>
        <time>2020-10-19T10:57:39Z</time>
      </trkpt>
      <trkpt lat="42.8516720" lon="-7.7675510">
        <ele>677.9</ele>
        <time>2020-10-19T10:57:40Z</time>
      </trkpt>
      <trkpt lat="42.8516740" lon="-7.7675700">
        <ele>677.8</ele>
        <time>2020-10-19T10:57:41Z</time>
      </trkpt>
      <trkpt lat="42.8516770" lon="-7.7675880">
        <ele>677.6</ele>
        <time>2020-10-19T10:57:42Z</time>
      </trkpt>
      <trkpt lat="42.8516820" lon="-7.7676060">
        <ele>677.5</ele>
        <time>2020-10-19T10:57:43Z</time>
      </trkpt>
      <trkpt lat="42.8516870" lon="-7.7676230">
        <ele>677.4</ele>
        <time>2020-10-19T10:57:44Z</time>
      </trkpt>
      <trkpt lat="42.8516930" lon="-7.7676400">
        <ele>677.3</ele>
        <time>2020-10-19T10:57:45Z</time>
      </trkpt>
      <trkpt lat="42.8517000" lon="-7.7676570">
        <ele>677.1</ele>
        <time>2020-10-19T10:57:46Z</time>
      </trkpt>
      <trkpt lat="42.8517060" lon="-7.7676750">
        <ele>677.0</ele>
        <time>2020-10-19T10:57:47Z</time>
      </trkpt>
      <trkpt lat="42.8517110" lon="-7.7676920">
        <ele>676.9</ele>
        <time>2020-10-19T10:57:48Z</time>
      </trkpt>
      <trkpt lat="42.8517160" lon="-7.7677100">
        <ele>676.8</ele>
        <time>2020-10-19T10:57:49Z</time>
      </trkpt>
      <trkpt lat="42.8517240" lon="-7.7677300">
        <ele>676.6</ele>
        <time>2020-10-19T10:57:50Z</time>
      </trkpt>
      <trkpt lat="42.8517310" lon="-7.7677490">
        <ele>676.5</ele>
        <time>2020-10-19T10:57:51Z</time>
      </trkpt>
      <trkpt lat="42.8517380" lon="-7.7677680">
        <ele>676.4</ele>
        <time>2020-10-19T10:57:52Z</time>
      </trkpt>
      <trkpt lat="42.8517430" lon="-7.7677860">
        <ele>676.2</ele>
        <time>2020-10-19T10:57:53Z</time>
      </trkpt>
      <trkpt lat="42.8517490" lon="-7.7678030">
        <ele>676.1</ele>
        <time>2020-10-19T10:57:54Z</time>
      </trkpt>
      <trkpt lat="42.8517540" lon="-7.7678210">
        <ele>676.0</ele>
        <time>2020-10-19T10:57:55Z</time>
      </trkpt>
      <trkpt lat="42.8517590" lon="-7.7678390">
        <ele>675.9</ele>
        <time>2020-10-19T10:57:56Z</time>
      </trkpt>
      <trkpt lat="42.8517650" lon="-7.7678560">
        <ele>675.8</ele>
        <time>2020-10-19T10:57:57Z</time>
      </trkpt>
      <trkpt lat="42.8517720" lon="-7.7678740">
        <ele>675.6</ele>
        <time>2020-10-19T10:57:58Z</time>
      </trkpt>
      <trkpt lat="42.8517810" lon="-7.7678910">
        <ele>675.5</ele>
        <time>2020-10-19T10:57:59Z</time>
      </trkpt>
      <trkpt lat="42.8517890" lon="-7.7679080">
        <ele>675.4</ele>
        <time>2020-10-19T10:58:00Z</time>
      </trkpt>
      <trkpt lat="42.8517980" lon="-7.7679250">
        <ele>675.3</ele>
        <time>2020-10-19T10:58:01Z</time>
      </trkpt>
      <trkpt lat="42.8518060" lon="-7.7679420">
        <ele>675.1</ele>
        <time>2020-10-19T10:58:02Z</time>
      </trkpt>
      <trkpt lat="42.8518130" lon="-7.7679620">
        <ele>675.0</ele>
        <time>2020-10-19T10:58:03Z</time>
      </trkpt>
      <trkpt lat="42.8518180" lon="-7.7679820">
        <ele>674.9</ele>
        <time>2020-10-19T10:58:04Z</time>
      </trkpt>
      <trkpt lat="42.8518230" lon="-7.7680020">
        <ele>674.7</ele>
        <time>2020-10-19T10:58:05Z</time>
      </trkpt>
      <trkpt lat="42.8518260" lon="-7.7680200">
        <ele>674.6</ele>
        <time>2020-10-19T10:58:06Z</time>
      </trkpt>
      <trkpt lat="42.8518310" lon="-7.7680370">
        <ele>674.5</ele>
        <time>2020-10-19T10:58:07Z</time>
      </trkpt>
      <trkpt lat="42.8518350" lon="-7.7680540">
        <ele>674.4</ele>
        <time>2020-10-19T10:58:08Z</time>
      </trkpt>
      <trkpt lat="42.8518400" lon="-7.7680710">
        <ele>674.3</ele>
        <time>2020-10-19T10:58:09Z</time>
      </trkpt>
      <trkpt lat="42.8518460" lon="-7.7680880">
        <ele>674.2</ele>
        <time>2020-10-19T10:58:10Z</time>
      </trkpt>
      <trkpt lat="42.8518520" lon="-7.7681040">
        <ele>674.0</ele>
        <time>2020-10-19T10:58:11Z</time>
      </trkpt>
      <trkpt lat="42.8518580" lon="-7.7681200">
        <ele>673.9</ele>
        <time>2020-10-19T10:58:12Z</time>
      </trkpt>
      <trkpt lat="42.8518640" lon="-7.7681360">
        <ele>673.8</ele>
        <time>2020-10-19T10:58:13Z</time>
      </trkpt>
      <trkpt lat="42.8518700" lon="-7.7681520">
        <ele>673.7</ele>
        <time>2020-10-19T10:58:14Z</time>
      </trkpt>
      <trkpt lat="42.8518760" lon="-7.7681690">
        <ele>673.6</ele>
        <time>2020-10-19T10:58:15Z</time>
      </trkpt>
      <trkpt lat="42.8518840" lon="-7.7681870">
        <ele>673.5</ele>
        <time>2020-10-19T10:58:16Z</time>
      </trkpt>
      <trkpt lat="42.8518900" lon="-7.7682060">
        <ele>673.4</ele>
        <time>2020-10-19T10:58:17Z</time>
      </trkpt>
      <trkpt lat="42.8518970" lon="-7.7682240">
        <ele>673.2</ele>
        <time>2020-10-19T10:58:18Z</time>
      </trkpt>
      <trkpt lat="42.8519020" lon="-7.7682420">
        <ele>673.1</ele>
        <time>2020-10-19T10:58:19Z</time>
      </trkpt>
      <trkpt lat="42.8519090" lon="-7.7682600">
        <ele>673.0</ele>
        <time>2020-10-19T10:58:20Z</time>
      </trkpt>
      <trkpt lat="42.8519150" lon="-7.7682770">
        <ele>672.9</ele>
        <time>2020-10-19T10:58:21Z</time>
      </trkpt>
      <trkpt lat="42.8519230" lon="-7.7682920">
        <ele>672.8</ele>
        <time>2020-10-19T10:58:22Z</time>
      </trkpt>
      <trkpt lat="42.8519310" lon="-7.7683080">
        <ele>672.7</ele>
        <time>2020-10-19T10:58:23Z</time>
      </trkpt>
      <trkpt lat="42.8519380" lon="-7.7683230">
        <ele>672.6</ele>
        <time>2020-10-19T10:58:24Z</time>
      </trkpt>
      <trkpt lat="42.8519440" lon="-7.7683380">
        <ele>672.5</ele>
        <time>2020-10-19T10:58:25Z</time>
      </trkpt>
      <trkpt lat="42.8519500" lon="-7.7683520">
        <ele>672.4</ele>
        <time>2020-10-19T10:58:26Z</time>
      </trkpt>
      <trkpt lat="42.8519560" lon="-7.7683680">
        <ele>672.3</ele>
        <time>2020-10-19T10:58:27Z</time>
      </trkpt>
      <trkpt lat="42.8519600" lon="-7.7683860">
        <ele>672.2</ele>
        <time>2020-10-19T10:58:28Z</time>
      </trkpt>
      <trkpt lat="42.8519640" lon="-7.7684040">
        <ele>672.1</ele>
        <time>2020-10-19T10:58:29Z</time>
      </trkpt>
      <trkpt lat="42.8519690" lon="-7.7684220">
        <ele>671.9</ele>
        <time>2020-10-19T10:58:30Z</time>
      </trkpt>
      <trkpt lat="42.8519740" lon="-7.7684380">
        <ele>671.8</ele>
        <time>2020-10-19T10:58:31Z</time>
      </trkpt>
      <trkpt lat="42.8519800" lon="-7.7684550">
        <ele>671.7</ele>
        <time>2020-10-19T10:58:32Z</time>
      </trkpt>
      <trkpt lat="42.8519860" lon="-7.7684710">
        <ele>671.6</ele>
        <time>2020-10-19T10:58:33Z</time>
      </trkpt>
      <trkpt lat="42.8519940" lon="-7.7684880">
        <ele>671.5</ele>
        <time>2020-10-19T10:58:34Z</time>
      </trkpt>
      <trkpt lat="42.8520010" lon="-7.7685050">
        <ele>671.4</ele>
        <time>2020-10-19T10:58:35Z</time>
      </trkpt>
      <trkpt lat="42.8520080" lon="-7.7685220">
        <ele>671.3</ele>
        <time>2020-10-19T10:58:36Z</time>
      </trkpt>
      <trkpt lat="42.8520150" lon="-7.7685380">
        <ele>671.2</ele>
        <time>2020-10-19T10:58:37Z</time>
      </trkpt>
      <trkpt lat="42.8520210" lon="-7.7685550">
        <ele>671.1</ele>
        <time>2020-10-19T10:58:38Z</time>
      </trkpt>
      <trkpt lat="42.8520260" lon="-7.7685710">
        <ele>671.0</ele>
        <time>2020-10-19T10:58:39Z</time>
      </trkpt>
      <trkpt lat="42.8520310" lon="-7.7685880">
        <ele>670.9</ele>
        <time>2020-10-19T10:58:40Z</time>
      </trkpt>
      <trkpt lat="42.8520360" lon="-7.7686040">
        <ele>670.8</ele>
        <time>2020-10-19T10:58:41Z</time>
      </trkpt>
      <trkpt lat="42.8520410" lon="-7.7686210">
        <ele>670.7</ele>
        <time>2020-10-19T10:58:42Z</time>
      </trkpt>
      <trkpt lat="42.8520460" lon="-7.7686370">
        <ele>670.6</ele>
        <time>2020-10-19T10:58:43Z</time>
      </trkpt>
      <trkpt lat="42.8520520" lon="-7.7686530">
        <ele>670.5</ele>
        <time>2020-10-19T10:58:44Z</time>
      </trkpt>
      <trkpt lat="42.8520570" lon="-7.7686700">
        <ele>670.4</ele>
        <time>2020-10-19T10:58:45Z</time>
      </trkpt>
      <trkpt lat="42.8520620" lon="-7.7686850">
        <ele>670.3</ele>
        <time>2020-10-19T10:58:46Z</time>
      </trkpt>
      <trkpt lat="42.8520670" lon="-7.7687020">
        <ele>670.2</ele>
        <time>2020-10-19T10:58:47Z</time>
      </trkpt>
      <trkpt lat="42.8520730" lon="-7.7687190">
        <ele>670.1</ele>
        <time>2020-10-19T10:58:48Z</time>
      </trkpt>
      <trkpt lat="42.8520790" lon="-7.7687370">
        <ele>670.0</ele>
        <time>2020-10-19T10:58:49Z</time>
      </trkpt>
      <trkpt lat="42.8520840" lon="-7.7687550">
        <ele>669.9</ele>
        <time>2020-10-19T10:58:50Z</time>
      </trkpt>
      <trkpt lat="42.8520900" lon="-7.7687730">
        <ele>669.8</ele>
        <time>2020-10-19T10:58:51Z</time>
      </trkpt>
      <trkpt lat="42.8520970" lon="-7.7687900">
        <ele>669.6</ele>
        <time>2020-10-19T10:58:52Z</time>
      </trkpt>
      <trkpt lat="42.8521040" lon="-7.7688070">
        <ele>669.5</ele>
        <time>2020-10-19T10:58:53Z</time>
      </trkpt>
      <trkpt lat="42.8521120" lon="-7.7688230">
        <ele>669.4</ele>
        <time>2020-10-19T10:58:54Z</time>
      </trkpt>
      <trkpt lat="42.8521180" lon="-7.7688410">
        <ele>669.3</ele>
        <time>2020-10-19T10:58:55Z</time>
      </trkpt>
      <trkpt lat="42.8521250" lon="-7.7688590">
        <ele>669.2</ele>
        <time>2020-10-19T10:58:56Z</time>
      </trkpt>
      <trkpt lat="42.8521310" lon="-7.7688780">
        <ele>669.1</ele>
        <time>2020-10-19T10:58:57Z</time>
      </trkpt>
      <trkpt lat="42.8521370" lon="-7.7688970">
        <ele>669.0</ele>
        <time>2020-10-19T10:58:58Z</time>
      </trkpt>
      <trkpt lat="42.8521440" lon="-7.7689160">
        <ele>668.9</ele>
        <time>2020-10-19T10:58:59Z</time>
      </trkpt>
      <trkpt lat="42.8521500" lon="-7.7689340">
        <ele>668.8</ele>
        <time>2020-10-19T10:59:00Z</time>
      </trkpt>
      <trkpt lat="42.8521550" lon="-7.7689520">
        <ele>668.6</ele>
        <time>2020-10-19T10:59:01Z</time>
      </trkpt>
      <trkpt lat="42.8521600" lon="-7.7689700">
        <ele>668.5</ele>
        <time>2020-10-19T10:59:02Z</time>
      </trkpt>
      <trkpt lat="42.8521660" lon="-7.7689870">
        <ele>668.4</ele>
        <time>2020-10-19T10:59:03Z</time>
      </trkpt>
      <trkpt lat="42.8521730" lon="-7.7690040">
        <ele>668.3</ele>
        <time>2020-10-19T10:59:04Z</time>
      </trkpt>
      <trkpt lat="42.8521800" lon="-7.7690200">
        <ele>668.2</ele>
        <time>2020-10-19T10:59:05Z</time>
      </trkpt>
      <trkpt lat="42.8521870" lon="-7.7690370">
        <ele>668.1</ele>
        <time>2020-10-19T10:59:06Z</time>
      </trkpt>
      <trkpt lat="42.8521940" lon="-7.7690550">
        <ele>668.0</ele>
        <time>2020-10-19T10:59:07Z</time>
      </trkpt>
      <trkpt lat="42.8522000" lon="-7.7690720">
        <ele>668.0</ele>
        <time>2020-10-19T10:59:08Z</time>
      </trkpt>
      <trkpt lat="42.8522050" lon="-7.7690880">
        <ele>667.9</ele>
        <time>2020-10-19T10:59:09Z</time>
      </trkpt>
      <trkpt lat="42.8522110" lon="-7.7691040">
        <ele>667.8</ele>
        <time>2020-10-19T10:59:10Z</time>
      </trkpt>
      <trkpt lat="42.8522160" lon="-7.7691210">
        <ele>667.7</ele>
        <time>2020-10-19T10:59:11Z</time>
      </trkpt>
      <trkpt lat="42.8522210" lon="-7.7691390">
        <ele>667.6</ele>
        <time>2020-10-19T10:59:12Z</time>
      </trkpt>
      <trkpt lat="42.8522270" lon="-7.7691560">
        <ele>667.6</ele>
        <time>2020-10-19T10:59:13Z</time>
      </trkpt>
      <trkpt lat="42.8522330" lon="-7.7691740">
        <ele>667.5</ele>
        <time>2020-10-19T10:59:14Z</time>
      </trkpt>
      <trkpt lat="42.8522390" lon="-7.7691920">
        <ele>667.4</ele>
        <time>2020-10-19T10:59:15Z</time>
      </trkpt>
      <trkpt lat="42.8522450" lon="-7.7692090">
        <ele>667.3</ele>
        <time>2020-10-19T10:59:16Z</time>
      </trkpt>
      <trkpt lat="42.8522520" lon="-7.7692250">
        <ele>667.3</ele>
        <time>2020-10-19T10:59:17Z</time>
      </trkpt>
      <trkpt lat="42.8522600" lon="-7.7692420">
        <ele>667.2</ele>
        <time>2020-10-19T10:59:18Z</time>
      </trkpt>
      <trkpt lat="42.8522680" lon="-7.7692580">
        <ele>667.1</ele>
        <time>2020-10-19T10:59:19Z</time>
      </trkpt>
      <trkpt lat="42.8522760" lon="-7.7692750">
        <ele>667.0</ele>
        <time>2020-10-19T10:59:20Z</time>
      </trkpt>
      <trkpt lat="42.8522830" lon="-7.7692910">
        <ele>667.0</ele>
        <time>2020-10-19T10:59:21Z</time>
      </trkpt>
      <trkpt lat="42.8522900" lon="-7.7693070">
        <ele>666.9</ele>
        <time>2020-10-19T10:59:22Z</time>
      </trkpt>
      <trkpt lat="42.8522970" lon="-7.7693240">
        <ele>666.8</ele>
        <time>2020-10-19T10:59:23Z</time>
      </trkpt>
      <trkpt lat="42.8523030" lon="-7.7693410">
        <ele>666.8</ele>
        <time>2020-10-19T10:59:24Z</time>
      </trkpt>
      <trkpt lat="42.8523110" lon="-7.7693590">
        <ele>666.7</ele>
        <time>2020-10-19T10:59:25Z</time>
      </trkpt>
      <trkpt lat="42.8523170" lon="-7.7693770">
        <ele>666.6</ele>
        <time>2020-10-19T10:59:26Z</time>
      </trkpt>
      <trkpt lat="42.8523220" lon="-7.7693960">
        <ele>666.5</ele>
        <time>2020-10-19T10:59:27Z</time>
      </trkpt>
      <trkpt lat="42.8523260" lon="-7.7694140">
        <ele>666.5</ele>
        <time>2020-10-19T10:59:28Z</time>
      </trkpt>
      <trkpt lat="42.8523300" lon="-7.7694310">
        <ele>666.4</ele>
        <time>2020-10-19T10:59:29Z</time>
      </trkpt>
      <trkpt lat="42.8523350" lon="-7.7694480">
        <ele>666.3</ele>
        <time>2020-10-19T10:59:30Z</time>
      </trkpt>
      <trkpt lat="42.8523390" lon="-7.7694640">
        <ele>666.3</ele>
        <time>2020-10-19T10:59:31Z</time>
      </trkpt>
      <trkpt lat="42.8523450" lon="-7.7694800">
        <ele>666.2</ele>
        <time>2020-10-19T10:59:32Z</time>
      </trkpt>
      <trkpt lat="42.8523510" lon="-7.7694970">
        <ele>666.2</ele>
        <time>2020-10-19T10:59:33Z</time>
      </trkpt>
      <trkpt lat="42.8523550" lon="-7.7695140">
        <ele>666.1</ele>
        <time>2020-10-19T10:59:34Z</time>
      </trkpt>
      <trkpt lat="42.8523600" lon="-7.7695310">
        <ele>666.0</ele>
        <time>2020-10-19T10:59:35Z</time>
      </trkpt>
      <trkpt lat="42.8523650" lon="-7.7695470">
        <ele>666.0</ele>
        <time>2020-10-19T10:59:36Z</time>
      </trkpt>
      <trkpt lat="42.8523740" lon="-7.7695640">
        <ele>665.9</ele>
        <time>2020-10-19T10:59:37Z</time>
      </trkpt>
      <trkpt lat="42.8523820" lon="-7.7695820">
        <ele>665.8</ele>
        <time>2020-10-19T10:59:38Z</time>
      </trkpt>
      <trkpt lat="42.8523910" lon="-7.7696010">
        <ele>665.7</ele>
        <time>2020-10-19T10:59:39Z</time>
      </trkpt>
      <trkpt lat="42.8523970" lon="-7.7696200">
        <ele>665.7</ele>
        <time>2020-10-19T10:59:40Z</time>
      </trkpt>
      <trkpt lat="42.8524030" lon="-7.7696390">
        <ele>665.6</ele>
        <time>2020-10-19T10:59:41Z</time>
      </trkpt>
      <trkpt lat="42.8524090" lon="-7.7696560">
        <ele>665.5</ele>
        <time>2020-10-19T10:59:42Z</time>
      </trkpt>
      <trkpt lat="42.8524160" lon="-7.7696730">
        <ele>665.5</ele>
        <time>2020-10-19T10:59:43Z</time>
      </trkpt>
      <trkpt lat="42.8524230" lon="-7.7696900">
        <ele>665.4</ele>
        <time>2020-10-19T10:59:44Z</time>
      </trkpt>
      <trkpt lat="42.8524300" lon="-7.7697070">
        <ele>665.3</ele>
        <time>2020-10-19T10:59:45Z</time>
      </trkpt>
      <trkpt lat="42.8524350" lon="-7.7697250">
        <ele>665.3</ele>
        <time>2020-10-19T10:59:46Z</time>
      </trkpt>
      <trkpt lat="42.8524410" lon="-7.7697410">
        <ele>665.2</ele>
        <time>2020-10-19T10:59:47Z</time>
      </trkpt>
      <trkpt lat="42.8524480" lon="-7.7697580">
        <ele>665.1</ele>
        <time>2020-10-19T10:59:48Z</time>
      </trkpt>
      <trkpt lat="42.8524540" lon="-7.7697750">
        <ele>665.1</ele>
        <time>2020-10-19T10:59:49Z</time>
      </trkpt>
      <trkpt lat="42.8524590" lon="-7.7697920">
        <ele>665.0</ele>
        <time>2020-10-19T10:59:50Z</time>
      </trkpt>
      <trkpt lat="42.8524650" lon="-7.7698090">
        <ele>664.9</ele>
        <time>2020-10-19T10:59:51Z</time>
      </trkpt>
      <trkpt lat="42.8524700" lon="-7.7698250">
        <ele>664.9</ele>
        <time>2020-10-19T10:59:52Z</time>
      </trkpt>
      <trkpt lat="42.8524770" lon="-7.7698410">
        <ele>664.8</ele>
        <time>2020-10-19T10:59:53Z</time>
      </trkpt>
      <trkpt lat="42.8524820" lon="-7.7698580">
        <ele>664.7</ele>
        <time>2020-10-19T10:59:54Z</time>
      </trkpt>
      <trkpt lat="42.8524870" lon="-7.7698750">
        <ele>664.7</ele>
        <time>2020-10-19T10:59:55Z</time>
      </trkpt>
      <trkpt lat="42.8524900" lon="-7.7698920">
        <ele>664.6</ele>
        <time>2020-10-19T10:59:56Z</time>
      </trkpt>
      <trkpt lat="42.8524940" lon="-7.7699080">
        <ele>664.6</ele>
        <time>2020-10-19T10:59:57Z</time>
      </trkpt>
      <trkpt lat="42.8524980" lon="-7.7699250">
        <ele>664.5</ele>
        <time>2020-10-19T10:59:58Z</time>
      </trkpt>
      <trkpt lat="42.8525020" lon="-7.7699410">
        <ele>664.4</ele>
        <time>2020-10-19T10:59:59Z</time>
      </trkpt>
      <trkpt lat="42.8525070" lon="-7.7699580">
        <ele>664.4</ele>
        <time>2020-10-19T11:00:00Z</time>
      </trkpt>
      <trkpt lat="42.8525110" lon="-7.7699760">
        <ele>664.3</ele>
        <time>2020-10-19T11:00:01Z</time>
      </trkpt>
      <trkpt lat="42.8525160" lon="-7.7699940">
        <ele>664.2</ele>
        <time>2020-10-19T11:00:02Z</time>
      </trkpt>
      <trkpt lat="42.8525190" lon="-7.7700110">
        <ele>664.2</ele>
        <time>2020-10-19T11:00:03Z</time>
      </trkpt>
      <trkpt lat="42.8525220" lon="-7.7700280">
        <ele>664.1</ele>
        <time>2020-10-19T11:00:04Z</time>
      </trkpt>
      <trkpt lat="42.8525240" lon="-7.7700460">
        <ele>664.1</ele>
        <time>2020-10-19T11:00:05Z</time>
      </trkpt>
      <trkpt lat="42.8525270" lon="-7.7700650">
        <ele>664.0</ele>
        <time>2020-10-19T11:00:06Z</time>
      </trkpt>
      <trkpt lat="42.8525300" lon="-7.7700840">
        <ele>663.9</ele>
        <time>2020-10-19T11:00:07Z</time>
      </trkpt>
      <trkpt lat="42.8525330" lon="-7.7701030">
        <ele>663.9</ele>
        <time>2020-10-19T11:00:08Z</time>
      </trkpt>
      <trkpt lat="42.8525360" lon="-7.7701220">
        <ele>663.8</ele>
        <time>2020-10-19T11:00:09Z</time>
      </trkpt>
      <trkpt lat="42.8525380" lon="-7.7701420">
        <ele>663.7</ele>
        <time>2020-10-19T11:00:10Z</time>
      </trkpt>
      <trkpt lat="42.8525410" lon="-7.7701620">
        <ele>663.7</ele>
        <time>2020-10-19T11:00:11Z</time>
      </trkpt>
      <trkpt lat="42.8525440" lon="-7.7701810">
        <ele>663.6</ele>
        <time>2020-10-19T11:00:12Z</time>
      </trkpt>
      <trkpt lat="42.8525460" lon="-7.7701990">
        <ele>663.5</ele>
        <time>2020-10-19T11:00:13Z</time>
      </trkpt>
      <trkpt lat="42.8525490" lon="-7.7702170">
        <ele>663.4</ele>
        <time>2020-10-19T11:00:14Z</time>
      </trkpt>
      <trkpt lat="42.8525510" lon="-7.7702340">
        <ele>663.4</ele>
        <time>2020-10-19T11:00:15Z</time>
      </trkpt>
      <trkpt lat="42.8525520" lon="-7.7702510">
        <ele>663.3</ele>
        <time>2020-10-19T11:00:16Z</time>
      </trkpt>
      <trkpt lat="42.8525540" lon="-7.7702660">
        <ele>663.2</ele>
        <time>2020-10-19T11:00:17Z</time>
      </trkpt>
      <trkpt lat="42.8525560" lon="-7.7702810">
        <ele>663.2</ele>
        <time>2020-10-19T11:00:18Z</time>
      </trkpt>
      <trkpt lat="42.8525580" lon="-7.7702970">
        <ele>663.1</ele>
        <time>2020-10-19T11:00:19Z</time>
      </trkpt>
      <trkpt lat="42.8525580" lon="-7.7703160">
        <ele>663.0</ele>
        <time>2020-10-19T11:00:20Z</time>
      </trkpt>
      <trkpt lat="42.8525580" lon="-7.7703340">
        <ele>662.9</ele>
        <time>2020-10-19T11:00:21Z</time>
      </trkpt>
      <trkpt lat="42.8525580" lon="-7.7703530">
        <ele>662.8</ele>
        <time>2020-10-19T11:00:22Z</time>
      </trkpt>
      <trkpt lat="42.8525580" lon="-7.7703720">
        <ele>662.7</ele>
        <time>2020-10-19T11:00:23Z</time>
      </trkpt>
      <trkpt lat="42.8525580" lon="-7.7703930">
        <ele>662.6</ele>
        <time>2020-10-19T11:00:24Z</time>
      </trkpt>
      <trkpt lat="42.8525590" lon="-7.7704150">
        <ele>662.5</ele>
        <time>2020-10-19T11:00:25Z</time>
      </trkpt>
      <trkpt lat="42.8525610" lon="-7.7704370">
        <ele>662.4</ele>
        <time>2020-10-19T11:00:26Z</time>
      </trkpt>
      <trkpt lat="42.8525630" lon="-7.7704570">
        <ele>662.3</ele>
        <time>2020-10-19T11:00:27Z</time>
      </trkpt>
      <trkpt lat="42.8525650" lon="-7.7704770">
        <ele>662.2</ele>
        <time>2020-10-19T11:00:28Z</time>
      </trkpt>
      <trkpt lat="42.8525670" lon="-7.7704960">
        <ele>662.1</ele>
        <time>2020-10-19T11:00:29Z</time>
      </trkpt>
      <trkpt lat="42.8525680" lon="-7.7705140">
        <ele>662.0</ele>
        <time>2020-10-19T11:00:30Z</time>
      </trkpt>
      <trkpt lat="42.8525690" lon="-7.7705320">
        <ele>661.9</ele>
        <time>2020-10-19T11:00:31Z</time>
      </trkpt>
      <trkpt lat="42.8525710" lon="-7.7705480">
        <ele>661.8</ele>
        <time>2020-10-19T11:00:32Z</time>
      </trkpt>
      <trkpt lat="42.8525710" lon="-7.7705650">
        <ele>661.8</ele>
        <time>2020-10-19T11:00:33Z</time>
      </trkpt>
      <trkpt lat="42.8525720" lon="-7.7705810">
        <ele>661.7</ele>
        <time>2020-10-19T11:00:34Z</time>
      </trkpt>
      <trkpt lat="42.8525740" lon="-7.7705960">
        <ele>661.6</ele>
        <time>2020-10-19T11:00:35Z</time>
      </trkpt>
      <trkpt lat="42.8525750" lon="-7.7706120">
        <ele>661.5</ele>
        <time>2020-10-19T11:00:36Z</time>
      </trkpt>
      <trkpt lat="42.8525780" lon="-7.7706290">
        <ele>661.4</ele>
        <time>2020-10-19T11:00:37Z</time>
      </trkpt>
      <trkpt lat="42.8525790" lon="-7.7706500">
        <ele>661.3</ele>
        <time>2020-10-19T11:00:38Z</time>
      </trkpt>
      <trkpt lat="42.8525800" lon="-7.7706710">
        <ele>661.2</ele>
        <time>2020-10-19T11:00:39Z</time>
      </trkpt>
      <trkpt lat="42.8525780" lon="-7.7706920">
        <ele>661.1</ele>
        <time>2020-10-19T11:00:40Z</time>
      </trkpt>
      <trkpt lat="42.8525770" lon="-7.7707120">
        <ele>661.0</ele>
        <time>2020-10-19T11:00:41Z</time>
      </trkpt>
      <trkpt lat="42.8525760" lon="-7.7707330">
        <ele>660.8</ele>
        <time>2020-10-19T11:00:42Z</time>
      </trkpt>
      <trkpt lat="42.8525750" lon="-7.7707540">
        <ele>660.7</ele>
        <time>2020-10-19T11:00:43Z</time>
      </trkpt>
      <trkpt lat="42.8525720" lon="-7.7707750">
        <ele>660.6</ele>
        <time>2020-10-19T11:00:44Z</time>
      </trkpt>
      <trkpt lat="42.8525700" lon="-7.7707950">
        <ele>660.5</ele>
        <time>2020-10-19T11:00:45Z</time>
      </trkpt>
      <trkpt lat="42.8525680" lon="-7.7708160">
        <ele>660.4</ele>
        <time>2020-10-19T11:00:46Z</time>
      </trkpt>
      <trkpt lat="42.8525670" lon="-7.7708350">
        <ele>660.3</ele>
        <time>2020-10-19T11:00:47Z</time>
      </trkpt>
      <trkpt lat="42.8525660" lon="-7.7708550">
        <ele>660.1</ele>
        <time>2020-10-19T11:00:48Z</time>
      </trkpt>
      <trkpt lat="42.8525660" lon="-7.7708740">
        <ele>660.0</ele>
        <time>2020-10-19T11:00:49Z</time>
      </trkpt>
      <trkpt lat="42.8525650" lon="-7.7708930">
        <ele>659.9</ele>
        <time>2020-10-19T11:00:50Z</time>
      </trkpt>
      <trkpt lat="42.8525640" lon="-7.7709130">
        <ele>659.8</ele>
        <time>2020-10-19T11:00:51Z</time>
      </trkpt>
      <trkpt lat="42.8525640" lon="-7.7709340">
        <ele>659.7</ele>
        <time>2020-10-19T11:00:52Z</time>
      </trkpt>
      <trkpt lat="42.8525650" lon="-7.7709540">
        <ele>659.6</ele>
        <time>2020-10-19T11:00:53Z</time>
      </trkpt>
      <trkpt lat="42.8525660" lon="-7.7709740">
        <ele>659.5</ele>
        <time>2020-10-19T11:00:54Z</time>
      </trkpt>
      <trkpt lat="42.8525670" lon="-7.7709940">
        <ele>659.4</ele>
        <time>2020-10-19T11:00:55Z</time>
      </trkpt>
      <trkpt lat="42.8525680" lon="-7.7710140">
        <ele>659.2</ele>
        <time>2020-10-19T11:00:56Z</time>
      </trkpt>
      <trkpt lat="42.8525670" lon="-7.7710330">
        <ele>659.1</ele>
        <time>2020-10-19T11:00:57Z</time>
      </trkpt>
      <trkpt lat="42.8525680" lon="-7.7710510">
        <ele>659.0</ele>
        <time>2020-10-19T11:00:58Z</time>
      </trkpt>
      <trkpt lat="42.8525690" lon="-7.7710690">
        <ele>658.9</ele>
        <time>2020-10-19T11:00:59Z</time>
      </trkpt>
      <trkpt lat="42.8525720" lon="-7.7710850">
        <ele>658.8</ele>
        <time>2020-10-19T11:01:00Z</time>
      </trkpt>
      <trkpt lat="42.8525710" lon="-7.7711020">
        <ele>658.7</ele>
        <time>2020-10-19T11:01:01Z</time>
      </trkpt>
      <trkpt lat="42.8525680" lon="-7.7711170">
        <ele>658.6</ele>
        <time>2020-10-19T11:01:02Z</time>
      </trkpt>
      <trkpt lat="42.8525630" lon="-7.7711310">
        <ele>658.5</ele>
        <time>2020-10-19T11:01:03Z</time>
      </trkpt>
      <trkpt lat="42.8525600" lon="-7.7711450">
        <ele>658.4</ele>
        <time>2020-10-19T11:01:04Z</time>
      </trkpt>
      <trkpt lat="42.8525590" lon="-7.7711630">
        <ele>658.3</ele>
        <time>2020-10-19T11:01:05Z</time>
      </trkpt>
      <trkpt lat="42.8525580" lon="-7.7711830">
        <ele>658.2</ele>
        <time>2020-10-19T11:01:06Z</time>
      </trkpt>
      <trkpt lat="42.8525560" lon="-7.7712020">
        <ele>658.1</ele>
        <time>2020-10-19T11:01:07Z</time>
      </trkpt>
      <trkpt lat="42.8525540" lon="-7.7712190">
        <ele>657.9</ele>
        <time>2020-10-19T11:01:08Z</time>
      </trkpt>
      <trkpt lat="42.8525540" lon="-7.7712360">
        <ele>657.8</ele>
        <time>2020-10-19T11:01:09Z</time>
      </trkpt>
      <trkpt lat="42.8525530" lon="-7.7712520">
        <ele>657.7</ele>
        <time>2020-10-19T11:01:10Z</time>
      </trkpt>
      <trkpt lat="42.8525530" lon="-7.7712690">
        <ele>657.6</ele>
        <time>2020-10-19T11:01:11Z</time>
      </trkpt>
      <trkpt lat="42.8525540" lon="-7.7712870">
        <ele>657.5</ele>
        <time>2020-10-19T11:01:12Z</time>
      </trkpt>
      <trkpt lat="42.8525560" lon="-7.7713050">
        <ele>657.4</ele>
        <time>2020-10-19T11:01:13Z</time>
      </trkpt>
      <trkpt lat="42.8525590" lon="-7.7713220">
        <ele>657.3</ele>
        <time>2020-10-19T11:01:14Z</time>
      </trkpt>
      <trkpt lat="42.8525620" lon="-7.7713360">
        <ele>657.2</ele>
        <time>2020-10-19T11:01:15Z</time>
      </trkpt>
      <trkpt lat="42.8525670" lon="-7.7713490">
        <ele>657.1</ele>
        <time>2020-10-19T11:01:16Z</time>
      </trkpt>
      <trkpt lat="42.8525700" lon="-7.7713610">
        <ele>657.1</ele>
        <time>2020-10-19T11:01:17Z</time>
      </trkpt>
      <trkpt lat="42.8525730" lon="-7.7713700">
        <ele>657.1</ele>
        <time>2020-10-19T11:01:18Z</time>
      </trkpt>
      <trkpt lat="42.8525740" lon="-7.7713740">
        <ele>657.0</ele>
        <time>2020-10-19T11:01:19Z</time>
      </trkpt>
      <trkpt lat="42.8525740" lon="-7.7713750">
        <ele>657.0</ele>
        <time>2020-10-19T11:01:20Z</time>
      </trkpt>
      <trkpt lat="42.8525730" lon="-7.7713740">
        <ele>657.0</ele>
        <time>2020-10-19T11:01:21Z</time>
      </trkpt>
      <trkpt lat="42.8525730" lon="-7.7713770">
        <ele>657.0</ele>
        <time>2020-10-19T11:01:22Z</time>
      </trkpt>
      <trkpt lat="42.8525720" lon="-7.7713820">
        <ele>657.0</ele>
        <time>2020-10-19T11:01:23Z</time>
      </trkpt>
      <trkpt lat="42.8525700" lon="-7.7713880">
        <ele>656.9</ele>
        <time>2020-10-19T11:01:24Z</time>
      </trkpt>
      <trkpt lat="42.8525670" lon="-7.7713930">
        <ele>656.9</ele>
        <time>2020-10-19T11:01:25Z</time>
      </trkpt>
      <trkpt lat="42.8525640" lon="-7.7713960">
        <ele>656.8</ele>
        <time>2020-10-19T11:01:26Z</time>
      </trkpt>
      <trkpt lat="42.8525630" lon="-7.7714000">
        <ele>656.8</ele>
        <time>2020-10-19T11:01:27Z</time>
      </trkpt>
      <trkpt lat="42.8525610" lon="-7.7714070">
        <ele>656.8</ele>
        <time>2020-10-19T11:01:28Z</time>
      </trkpt>
      <trkpt lat="42.8525560" lon="-7.7714210">
        <ele>656.7</ele>
        <time>2020-10-19T11:01:29Z</time>
      </trkpt>
      <trkpt lat="42.8525490" lon="-7.7714390">
        <ele>656.6</ele>
        <time>2020-10-19T11:01:30Z</time>
      </trkpt>
      <trkpt lat="42.8525420" lon="-7.7714600">
        <ele>656.4</ele>
        <time>2020-10-19T11:01:31Z</time>
      </trkpt>
      <trkpt lat="42.8525380" lon="-7.7714810">
        <ele>656.3</ele>
        <time>2020-10-19T11:01:32Z</time>
      </trkpt>
      <trkpt lat="42.8525330" lon="-7.7715030">
        <ele>656.1</ele>
        <time>2020-10-19T11:01:33Z</time>
      </trkpt>
      <trkpt lat="42.8525290" lon="-7.7715240">
        <ele>656.0</ele>
        <time>2020-10-19T11:01:34Z</time>
      </trkpt>
      <trkpt lat="42.8525250" lon="-7.7715460">
        <ele>655.9</ele>
        <time>2020-10-19T11:01:35Z</time>
      </trkpt>
      <trkpt lat="42.8525220" lon="-7.7715680">
        <ele>655.7</ele>
        <time>2020-10-19T11:01:36Z</time>
      </trkpt>
      <trkpt lat="42.8525190" lon="-7.7715910">
        <ele>655.6</ele>
        <time>2020-10-19T11:01:37Z</time>
      </trkpt>
      <trkpt lat="42.8525160" lon="-7.7716140">
        <ele>655.4</ele>
        <time>2020-10-19T11:01:38Z</time>
      </trkpt>
      <trkpt lat="42.8525150" lon="-7.7716360">
        <ele>655.3</ele>
        <time>2020-10-19T11:01:39Z</time>
      </trkpt>
      <trkpt lat="42.8525150" lon="-7.7716560">
        <ele>655.2</ele>
        <time>2020-10-19T11:01:40Z</time>
      </trkpt>
      <trkpt lat="42.8525140" lon="-7.7716780">
        <ele>655.0</ele>
        <time>2020-10-19T11:01:41Z</time>
      </trkpt>
      <trkpt lat="42.8525130" lon="-7.7717000">
        <ele>654.9</ele>
        <time>2020-10-19T11:01:42Z</time>
      </trkpt>
      <trkpt lat="42.8525120" lon="-7.7717220">
        <ele>654.8</ele>
        <time>2020-10-19T11:01:43Z</time>
      </trkpt>
      <trkpt lat="42.8525110" lon="-7.7717430">
        <ele>654.7</ele>
        <time>2020-10-19T11:01:44Z</time>
      </trkpt>
      <trkpt lat="42.8525110" lon="-7.7717630">
        <ele>654.5</ele>
        <time>2020-10-19T11:01:45Z</time>
      </trkpt>
      <trkpt lat="42.8525100" lon="-7.7717820">
        <ele>654.4</ele>
        <time>2020-10-19T11:01:46Z</time>
      </trkpt>
      <trkpt lat="42.8525080" lon="-7.7718010">
        <ele>654.3</ele>
        <time>2020-10-19T11:01:47Z</time>
      </trkpt>
      <trkpt lat="42.8525080" lon="-7.7718200">
        <ele>654.2</ele>
        <time>2020-10-19T11:01:48Z</time>
      </trkpt>
      <trkpt lat="42.8525060" lon="-7.7718380">
        <ele>654.1</ele>
        <time>2020-10-19T11:01:49Z</time>
      </trkpt>
      <trkpt lat="42.8525050" lon="-7.7718560">
        <ele>654.0</ele>
        <time>2020-10-19T11:01:50Z</time>
      </trkpt>
      <trkpt lat="42.8525050" lon="-7.7718740">
        <ele>653.9</ele>
        <time>2020-10-19T11:01:51Z</time>
      </trkpt>
      <trkpt lat="42.8525040" lon="-7.7718940">
        <ele>653.8</ele>
        <time>2020-10-19T11:01:52Z</time>
      </trkpt>
      <trkpt lat="42.8525030" lon="-7.7719150">
        <ele>653.6</ele>
        <time>2020-10-19T11:01:53Z</time>
      </trkpt>
      <trkpt lat="42.8525020" lon="-7.7719360">
        <ele>653.5</ele>
        <time>2020-10-19T11:01:54Z</time>
      </trkpt>
      <trkpt lat="42.8525010" lon="-7.7719570">
        <ele>653.4</ele>
        <time>2020-10-19T11:01:55Z</time>
      </trkpt>
      <trkpt lat="42.8525000" lon="-7.7719770">
        <ele>653.3</ele>
        <time>2020-10-19T11:01:56Z</time>
      </trkpt>
      <trkpt lat="42.8525000" lon="-7.7719980">
        <ele>653.2</ele>
        <time>2020-10-19T11:01:57Z</time>
      </trkpt>
      <trkpt lat="42.8524990" lon="-7.7720180">
        <ele>653.1</ele>
        <time>2020-10-19T11:01:58Z</time>
      </trkpt>
      <trkpt lat="42.8524990" lon="-7.7720390">
        <ele>653.1</ele>
        <time>2020-10-19T11:01:59Z</time>
      </trkpt>
      <trkpt lat="42.8524970" lon="-7.7720590">
        <ele>653.0</ele>
        <time>2020-10-19T11:02:00Z</time>
      </trkpt>
      <trkpt lat="42.8524930" lon="-7.7720780">
        <ele>652.9</ele>
        <time>2020-10-19T11:02:01Z</time>
      </trkpt>
      <trkpt lat="42.8524900" lon="-7.7720970">
        <ele>652.9</ele>
        <time>2020-10-19T11:02:02Z</time>
      </trkpt>
      <trkpt lat="42.8524870" lon="-7.7721140">
        <ele>652.8</ele>
        <time>2020-10-19T11:02:03Z</time>
      </trkpt>
      <trkpt lat="42.8524830" lon="-7.7721270">
        <ele>652.8</ele>
        <time>2020-10-19T11:02:04Z</time>
      </trkpt>
      <trkpt lat="42.8524790" lon="-7.7721380">
        <ele>652.7</ele>
        <time>2020-10-19T11:02:05Z</time>
      </trkpt>
      <trkpt lat="42.8524770" lon="-7.7721470">
        <ele>652.7</ele>
        <time>2020-10-19T11:02:06Z</time>
      </trkpt>
      <trkpt lat="42.8524760" lon="-7.7721540">
        <ele>652.7</ele>
        <time>2020-10-19T11:02:07Z</time>
      </trkpt>
      <trkpt lat="42.8524770" lon="-7.7721570">
        <ele>652.7</ele>
        <time>2020-10-19T11:02:08Z</time>
      </trkpt>
      <trkpt lat="42.8524770" lon="-7.7721570">
        <ele>652.7</ele>
        <time>2020-10-19T11:02:09Z</time>
      </trkpt>
      <trkpt lat="42.8524780" lon="-7.7721560">
        <ele>652.7</ele>
        <time>2020-10-19T11:02:10Z</time>
      </trkpt>
      <trkpt lat="42.8524780" lon="-7.7721560">
        <ele>652.7</ele>
        <time>2020-10-19T11:02:11Z</time>
      </trkpt>
      <trkpt lat="42.8524800" lon="-7.7721600">
        <ele>652.7</ele>
        <time>2020-10-19T11:02:12Z</time>
      </trkpt>
      <trkpt lat="42.8524850" lon="-7.7721660">
        <ele>652.6</ele>
        <time>2020-10-19T11:02:13Z</time>
      </trkpt>
      <trkpt lat="42.8524910" lon="-7.7721770">
        <ele>652.6</ele>
        <time>2020-10-19T11:02:14Z</time>
      </trkpt>
      <trkpt lat="42.8524980" lon="-7.7721910">
        <ele>652.6</ele>
        <time>2020-10-19T11:02:15Z</time>
      </trkpt>
      <trkpt lat="42.8525050" lon="-7.7722070">
        <ele>652.5</ele>
        <time>2020-10-19T11:02:16Z</time>
      </trkpt>
      <trkpt lat="42.8525120" lon="-7.7722230">
        <ele>652.5</ele>
        <time>2020-10-19T11:02:17Z</time>
      </trkpt>
      <trkpt lat="42.8525210" lon="-7.7722390">
        <ele>652.4</ele>
        <time>2020-10-19T11:02:18Z</time>
      </trkpt>
      <trkpt lat="42.8525300" lon="-7.7722550">
        <ele>652.3</ele>
        <time>2020-10-19T11:02:19Z</time>
      </trkpt>
      <trkpt lat="42.8525380" lon="-7.7722710">
        <ele>652.3</ele>
        <time>2020-10-19T11:02:20Z</time>
      </trkpt>
      <trkpt lat="42.8525450" lon="-7.7722890">
        <ele>652.2</ele>
        <time>2020-10-19T11:02:21Z</time>
      </trkpt>
      <trkpt lat="42.8525510" lon="-7.7723080">
        <ele>652.1</ele>
        <time>2020-10-19T11:02:22Z</time>
      </trkpt>
      <trkpt lat="42.8525570" lon="-7.7723270">
        <ele>652.1</ele>
        <time>2020-10-19T11:02:23Z</time>
      </trkpt>
      <trkpt lat="42.8525620" lon="-7.7723460">
        <ele>652.0</ele>
        <time>2020-10-19T11:02:24Z</time>
      </trkpt>
      <trkpt lat="42.8525670" lon="-7.7723650">
        <ele>651.9</ele>
        <time>2020-10-19T11:02:25Z</time>
      </trkpt>
      <trkpt lat="42.8525710" lon="-7.7723820">
        <ele>651.9</ele>
        <time>2020-10-19T11:02:26Z</time>
      </trkpt>
      <trkpt lat="42.8525750" lon="-7.7723990">
        <ele>651.8</ele>
        <time>2020-10-19T11:02:27Z</time>
      </trkpt>
      <trkpt lat="42.8525780" lon="-7.7724150">
        <ele>651.7</ele>
        <time>2020-10-19T11:02:28Z</time>
      </trkpt>
      <trkpt lat="42.8525810" lon="-7.7724310">
        <ele>651.7</ele>
        <time>2020-10-19T11:02:29Z</time>
      </trkpt>
      <trkpt lat="42.8525840" lon="-7.7724460">
        <ele>651.6</ele>
        <time>2020-10-19T11:02:30Z</time>
      </trkpt>
      <trkpt lat="42.8525860" lon="-7.7724620">
        <ele>651.5</ele>
        <time>2020-10-19T11:02:31Z</time>
      </trkpt>
      <trkpt lat="42.8525890" lon="-7.7724770">
        <ele>651.5</ele>
        <time>2020-10-19T11:02:32Z</time>
      </trkpt>
      <trkpt lat="42.8525930" lon="-7.7724930">
        <ele>651.4</ele>
        <time>2020-10-19T11:02:33Z</time>
      </trkpt>
      <trkpt lat="42.8525970" lon="-7.7725080">
        <ele>651.3</ele>
        <time>2020-10-19T11:02:34Z</time>
      </trkpt>
      <trkpt lat="42.8526010" lon="-7.7725210">
        <ele>651.3</ele>
        <time>2020-10-19T11:02:35Z</time>
      </trkpt>
      <trkpt lat="42.8526050" lon="-7.7725330">
        <ele>651.2</ele>
        <time>2020-10-19T11:02:36Z</time>
      </trkpt>
      <trkpt lat="42.8526130" lon="-7.7725460">
        <ele>651.2</ele>
        <time>2020-10-19T11:02:37Z</time>
      </trkpt>
      <trkpt lat="42.8526230" lon="-7.7725610">
        <ele>651.1</ele>
        <time>2020-10-19T11:02:38Z</time>
      </trkpt>
      <trkpt lat="42.8526340" lon="-7.7725790">
        <ele>651.0</ele>
        <time>2020-10-19T11:02:39Z</time>
      </trkpt>
      <trkpt lat="42.8526430" lon="-7.7725960">
        <ele>651.0</ele>
        <time>2020-10-19T11:02:40Z</time>
      </trkpt>
      <trkpt lat="42.8526500" lon="-7.7726130">
        <ele>650.9</ele>
        <time>2020-10-19T11:02:41Z</time>
      </trkpt>
      <trkpt lat="42.8526570" lon="-7.7726280">
        <ele>650.8</ele>
        <time>2020-10-19T11:02:42Z</time>
      </trkpt>
      <trkpt lat="42.8526650" lon="-7.7726430">
        <ele>650.8</ele>
        <time>2020-10-19T11:02:43Z</time>
      </trkpt>
      <trkpt lat="42.8526730" lon="-7.7726580">
        <ele>650.7</ele>
        <time>2020-10-19T11:02:44Z</time>
      </trkpt>
      <trkpt lat="42.8526810" lon="-7.7726730">
        <ele>650.7</ele>
        <time>2020-10-19T11:02:45Z</time>
      </trkpt>
      <trkpt lat="42.8526910" lon="-7.7726880">
        <ele>650.6</ele>
        <time>2020-10-19T11:02:46Z</time>
      </trkpt>
      <trkpt lat="42.8527010" lon="-7.7727030">
        <ele>650.6</ele>
        <time>2020-10-19T11:02:47Z</time>
      </trkpt>
      <trkpt lat="42.8527120" lon="-7.7727180">
        <ele>650.5</ele>
        <time>2020-10-19T11:02:48Z</time>
      </trkpt>
      <trkpt lat="42.8527250" lon="-7.7727360">
        <ele>650.4</ele>
        <time>2020-10-19T11:02:49Z</time>
      </trkpt>
      <trkpt lat="42.8527370" lon="-7.7727540">
        <ele>650.4</ele>
        <time>2020-10-19T11:02:50Z</time>
      </trkpt>
      <trkpt lat="42.8527480" lon="-7.7727730">
        <ele>650.3</ele>
        <time>2020-10-19T11:02:51Z</time>
      </trkpt>
      <trkpt lat="42.8527570" lon="-7.7727880">
        <ele>650.2</ele>
        <time>2020-10-19T11:02:52Z</time>
      </trkpt>
      <trkpt lat="42.8527650" lon="-7.7728030">
        <ele>650.2</ele>
        <time>2020-10-19T11:02:53Z</time>
      </trkpt>
      <trkpt lat="42.8527730" lon="-7.7728170">
        <ele>650.1</ele>
        <time>2020-10-19T11:02:54Z</time>
      </trkpt>
      <trkpt lat="42.8527800" lon="-7.7728300">
        <ele>650.1</ele>
        <time>2020-10-19T11:02:55Z</time>
      </trkpt>
      <trkpt lat="42.8527870" lon="-7.7728430">
        <ele>650.0</ele>
        <time>2020-10-19T11:02:56Z</time>
      </trkpt>
      <trkpt lat="42.8527950" lon="-7.7728560">
        <ele>650.0</ele>
        <time>2020-10-19T11:02:57Z</time>
      </trkpt>
      <trkpt lat="42.8528030" lon="-7.7728690">
        <ele>649.9</ele>
        <time>2020-10-19T11:02:58Z</time>
      </trkpt>
      <trkpt lat="42.8528130" lon="-7.7728820">
        <ele>649.9</ele>
        <time>2020-10-19T11:02:59Z</time>
      </trkpt>
      <trkpt lat="42.8528230" lon="-7.7728950">
        <ele>649.8</ele>
        <time>2020-10-19T11:03:00Z</time>
      </trkpt>
      <trkpt lat="42.8528320" lon="-7.7729080">
        <ele>649.8</ele>
        <time>2020-10-19T11:03:01Z</time>
      </trkpt>
      <trkpt lat="42.8528420" lon="-7.7729210">
        <ele>649.7</ele>
        <time>2020-10-19T11:03:02Z</time>
      </trkpt>
      <trkpt lat="42.8528530" lon="-7.7729350">
        <ele>649.6</ele>
        <time>2020-10-19T11:03:03Z</time>
      </trkpt>
      <trkpt lat="42.8528660" lon="-7.7729490">
        <ele>649.6</ele>
        <time>2020-10-19T11:03:04Z</time>
      </trkpt>
      <trkpt lat="42.8528770" lon="-7.7729620">
        <ele>649.5</ele>
        <time>2020-10-19T11:03:05Z</time>
      </trkpt>
      <trkpt lat="42.8528880" lon="-7.7729750">
        <ele>649.4</ele>
        <time>2020-10-19T11:03:06Z</time>
      </trkpt>
      <trkpt lat="42.8528980" lon="-7.7729880">
        <ele>649.4</ele>
        <time>2020-10-19T11:03:07Z</time>
      </trkpt>
      <trkpt lat="42.8529080" lon="-7.7730030">
        <ele>649.3</ele>
        <time>2020-10-19T11:03:08Z</time>
      </trkpt>
      <trkpt lat="42.8529200" lon="-7.7730170">
        <ele>649.3</ele>
        <time>2020-10-19T11:03:09Z</time>
      </trkpt>
      <trkpt lat="42.8529310" lon="-7.7730320">
        <ele>649.2</ele>
        <time>2020-10-19T11:03:10Z</time>
      </trkpt>
      <trkpt lat="42.8529420" lon="-7.7730470">
        <ele>649.1</ele>
        <time>2020-10-19T11:03:11Z</time>
      </trkpt>
      <trkpt lat="42.8529510" lon="-7.7730610">
        <ele>649.1</ele>
        <time>2020-10-19T11:03:12Z</time>
      </trkpt>
      <trkpt lat="42.8529610" lon="-7.7730740">
        <ele>649.0</ele>
        <time>2020-10-19T11:03:13Z</time>
      </trkpt>
      <trkpt lat="42.8529690" lon="-7.7730880">
        <ele>649.0</ele>
        <time>2020-10-19T11:03:14Z</time>
      </trkpt>
      <trkpt lat="42.8529790" lon="-7.7731020">
        <ele>648.9</ele>
        <time>2020-10-19T11:03:15Z</time>
      </trkpt>
      <trkpt lat="42.8529910" lon="-7.7731150">
        <ele>648.8</ele>
        <time>2020-10-19T11:03:16Z</time>
      </trkpt>
      <trkpt lat="42.8530070" lon="-7.7731260">
        <ele>648.8</ele>
        <time>2020-10-19T11:03:17Z</time>
      </trkpt>
      <trkpt lat="42.8530210" lon="-7.7731360">
        <ele>648.7</ele>
        <time>2020-10-19T11:03:18Z</time>
      </trkpt>
      <trkpt lat="42.8530360" lon="-7.7731450">
        <ele>648.6</ele>
        <time>2020-10-19T11:03:19Z</time>
      </trkpt>
      <trkpt lat="42.8530490" lon="-7.7731540">
        <ele>648.6</ele>
        <time>2020-10-19T11:03:20Z</time>
      </trkpt>
      <trkpt lat="42.8530620" lon="-7.7731650">
        <ele>648.5</ele>
        <time>2020-10-19T11:03:21Z</time>
      </trkpt>
      <trkpt lat="42.8530740" lon="-7.7731770">
        <ele>648.4</ele>
        <time>2020-10-19T11:03:22Z</time>
      </trkpt>
      <trkpt lat="42.8530870" lon="-7.7731900">
        <ele>648.3</ele>
        <time>2020-10-19T11:03:23Z</time>
      </trkpt>
      <trkpt lat="42.8531000" lon="-7.7732040">
        <ele>648.3</ele>
        <time>2020-10-19T11:03:24Z</time>
      </trkpt>
      <trkpt lat="42.8531120" lon="-7.7732180">
        <ele>648.2</ele>
        <time>2020-10-19T11:03:25Z</time>
      </trkpt>
      <trkpt lat="42.8531240" lon="-7.7732310">
        <ele>648.1</ele>
        <time>2020-10-19T11:03:26Z</time>
      </trkpt>
      <trkpt lat="42.8531360" lon="-7.7732420">
        <ele>648.0</ele>
        <time>2020-10-19T11:03:27Z</time>
      </trkpt>
      <trkpt lat="42.8531460" lon="-7.7732530">
        <ele>648.0</ele>
        <time>2020-10-19T11:03:28Z</time>
      </trkpt>
      <trkpt lat="42.8531560" lon="-7.7732620">
        <ele>647.9</ele>
        <time>2020-10-19T11:03:29Z</time>
      </trkpt>
      <trkpt lat="42.8531640" lon="-7.7732730">
        <ele>647.9</ele>
        <time>2020-10-19T11:03:30Z</time>
      </trkpt>
      <trkpt lat="42.8531730" lon="-7.7732830">
        <ele>647.8</ele>
        <time>2020-10-19T11:03:31Z</time>
      </trkpt>
      <trkpt lat="42.8531810" lon="-7.7732940">
        <ele>647.8</ele>
        <time>2020-10-19T11:03:32Z</time>
      </trkpt>
      <trkpt lat="42.8531900" lon="-7.7733060">
        <ele>647.7</ele>
        <time>2020-10-19T11:03:33Z</time>
      </trkpt>
      <trkpt lat="42.8532000" lon="-7.7733180">
        <ele>647.6</ele>
        <time>2020-10-19T11:03:34Z</time>
      </trkpt>
      <trkpt lat="42.8532100" lon="-7.7733310">
        <ele>647.6</ele>
        <time>2020-10-19T11:03:35Z</time>
      </trkpt>
      <trkpt lat="42.8532190" lon="-7.7733440">
        <ele>647.5</ele>
        <time>2020-10-19T11:03:36Z</time>
      </trkpt>
      <trkpt lat="42.8532290" lon="-7.7733570">
        <ele>647.5</ele>
        <time>2020-10-19T11:03:37Z</time>
      </trkpt>
      <trkpt lat="42.8532380" lon="-7.7733700">
        <ele>647.4</ele>
        <time>2020-10-19T11:03:38Z</time>
      </trkpt>
      <trkpt lat="42.8532490" lon="-7.7733820">
        <ele>647.3</ele>
        <time>2020-10-19T11:03:39Z</time>
      </trkpt>
      <trkpt lat="42.8532610" lon="-7.7733930">
        <ele>647.3</ele>
        <time>2020-10-19T11:03:40Z</time>
      </trkpt>
      <trkpt lat="42.8532730" lon="-7.7734030">
        <ele>647.2</ele>
        <time>2020-10-19T11:03:41Z</time>
      </trkpt>
      <trkpt lat="42.8532840" lon="-7.7734140">
        <ele>647.2</ele>
        <time>2020-10-19T11:03:42Z</time>
      </trkpt>
      <trkpt lat="42.8532940" lon="-7.7734260">
        <ele>647.1</ele>
        <time>2020-10-19T11:03:43Z</time>
      </trkpt>
      <trkpt lat="42.8533030" lon="-7.7734380">
        <ele>647.1</ele>
        <time>2020-10-19T11:03:44Z</time>
      </trkpt>
      <trkpt lat="42.8533130" lon="-7.7734490">
        <ele>647.0</ele>
        <time>2020-10-19T11:03:45Z</time>
      </trkpt>
      <trkpt lat="42.8533240" lon="-7.7734610">
        <ele>647.0</ele>
        <time>2020-10-19T11:03:46Z</time>
      </trkpt>
      <trkpt lat="42.8533360" lon="-7.7734730">
        <ele>646.9</ele>
        <time>2020-10-19T11:03:47Z</time>
      </trkpt>
      <trkpt lat="42.8533490" lon="-7.7734840">
        <ele>646.8</ele>
        <time>2020-10-19T11:03:48Z</time>
      </trkpt>
      <trkpt lat="42.8533600" lon="-7.7734950">
        <ele>646.8</ele>
        <time>2020-10-19T11:03:49Z</time>
      </trkpt>
      <trkpt lat="42.8533710" lon="-7.7735050">
        <ele>646.7</ele>
        <time>2020-10-19T11:03:50Z</time>
      </trkpt>
      <trkpt lat="42.8533820" lon="-7.7735150">
        <ele>646.7</ele>
        <time>2020-10-19T11:03:51Z</time>
      </trkpt>
      <trkpt lat="42.8533940" lon="-7.7735240">
        <ele>646.6</ele>
        <time>2020-10-19T11:03:52Z</time>
      </trkpt>
      <trkpt lat="42.8534070" lon="-7.7735360">
        <ele>646.6</ele>
        <time>2020-10-19T11:03:53Z</time>
      </trkpt>
      <trkpt lat="42.8534200" lon="-7.7735460">
        <ele>646.5</ele>
        <time>2020-10-19T11:03:54Z</time>
      </trkpt>
      <trkpt lat="42.8534350" lon="-7.7735550">
        <ele>646.4</ele>
        <time>2020-10-19T11:03:55Z</time>
      </trkpt>
      <trkpt lat="42.8534470" lon="-7.7735650">
        <ele>646.4</ele>
        <time>2020-10-19T11:03:56Z</time>
      </trkpt>
      <trkpt lat="42.8534610" lon="-7.7735760">
        <ele>646.3</ele>
        <time>2020-10-19T11:03:57Z</time>
      </trkpt>
      <trkpt lat="42.8534700" lon="-7.7735880">
        <ele>646.3</ele>
        <time>2020-10-19T11:03:58Z</time>
      </trkpt>
      <trkpt lat="42.8534810" lon="-7.7736010">
        <ele>646.2</ele>
        <time>2020-10-19T11:03:59Z</time>
      </trkpt>
      <trkpt lat="42.8534890" lon="-7.7736140">
        <ele>646.2</ele>
        <time>2020-10-19T11:04:00Z</time>
      </trkpt>
      <trkpt lat="42.8534970" lon="-7.7736280">
        <ele>646.1</ele>
        <time>2020-10-19T11:04:01Z</time>
      </trkpt>
      <trkpt lat="42.8535050" lon="-7.7736410">
        <ele>646.1</ele>
        <time>2020-10-19T11:04:02Z</time>
      </trkpt>
      <trkpt lat="42.8535150" lon="-7.7736530">
        <ele>646.0</ele>
        <time>2020-10-19T11:04:03Z</time>
      </trkpt>
      <trkpt lat="42.8535270" lon="-7.7736660">
        <ele>646.0</ele>
        <time>2020-10-19T11:04:04Z</time>
      </trkpt>
      <trkpt lat="42.8535400" lon="-7.7736780">
        <ele>645.9</ele>
        <time>2020-10-19T11:04:05Z</time>
      </trkpt>
      <trkpt lat="42.8535530" lon="-7.7736900">
        <ele>645.9</ele>
        <time>2020-10-19T11:04:06Z</time>
      </trkpt>
      <trkpt lat="42.8535660" lon="-7.7737020">
        <ele>645.8</ele>
        <time>2020-10-19T11:04:07Z</time>
      </trkpt>
      <trkpt lat="42.8535780" lon="-7.7737140">
        <ele>645.8</ele>
        <time>2020-10-19T11:04:08Z</time>
      </trkpt>
      <trkpt lat="42.8535890" lon="-7.7737240">
        <ele>645.7</ele>
        <time>2020-10-19T11:04:09Z</time>
      </trkpt>
      <trkpt lat="42.8535990" lon="-7.7737360">
        <ele>645.7</ele>
        <time>2020-10-19T11:04:10Z</time>
      </trkpt>
      <trkpt lat="42.8536110" lon="-7.7737490">
        <ele>645.6</ele>
        <time>2020-10-19T11:04:11Z</time>
      </trkpt>
      <trkpt lat="42.8536230" lon="-7.7737650">
        <ele>645.6</ele>
        <time>2020-10-19T11:04:12Z</time>
      </trkpt>
      <trkpt lat="42.8536350" lon="-7.7737800">
        <ele>645.5</ele>
        <time>2020-10-19T11:04:13Z</time>
      </trkpt>
      <trkpt lat="42.8536450" lon="-7.7737950">
        <ele>645.5</ele>
        <time>2020-10-19T11:04:14Z</time>
      </trkpt>
      <trkpt lat="42.8536540" lon="-7.7738070">
        <ele>645.4</ele>
        <time>2020-10-19T11:04:15Z</time>
      </trkpt>
      <trkpt lat="42.8536630" lon="-7.7738210">
        <ele>645.4</ele>
        <time>2020-10-19T11:04:16Z</time>
      </trkpt>
      <trkpt lat="42.8536730" lon="-7.7738350">
        <ele>645.4</ele>
        <time>2020-10-19T11:04:17Z</time>
      </trkpt>
      <trkpt lat="42.8536840" lon="-7.7738500">
        <ele>645.3</ele>
        <time>2020-10-19T11:04:18Z</time>
      </trkpt>
      <trkpt lat="42.8536950" lon="-7.7738630">
        <ele>645.3</ele>
        <time>2020-10-19T11:04:19Z</time>
      </trkpt>
      <trkpt lat="42.8537040" lon="-7.7738760">
        <ele>645.2</ele>
        <time>2020-10-19T11:04:20Z</time>
      </trkpt>
      <trkpt lat="42.8537130" lon="-7.7738900">
        <ele>645.2</ele>
        <time>2020-10-19T11:04:21Z</time>
      </trkpt>
      <trkpt lat="42.8537210" lon="-7.7739040">
        <ele>645.1</ele>
        <time>2020-10-19T11:04:22Z</time>
      </trkpt>
      <trkpt lat="42.8537310" lon="-7.7739170">
        <ele>645.1</ele>
        <time>2020-10-19T11:04:23Z</time>
      </trkpt>
      <trkpt lat="42.8537400" lon="-7.7739310">
        <ele>645.0</ele>
        <time>2020-10-19T11:04:24Z</time>
      </trkpt>
      <trkpt lat="42.8537500" lon="-7.7739440">
        <ele>645.0</ele>
        <time>2020-10-19T11:04:25Z</time>
      </trkpt>
      <trkpt lat="42.8537590" lon="-7.7739580">
        <ele>645.0</ele>
        <time>2020-10-19T11:04:26Z</time>
      </trkpt>
      <trkpt lat="42.8537670" lon="-7.7739720">
        <ele>644.9</ele>
        <time>2020-10-19T11:04:27Z</time>
      </trkpt>
      <trkpt lat="42.8537760" lon="-7.7739870">
        <ele>644.9</ele>
        <time>2020-10-19T11:04:28Z</time>
      </trkpt>
      <trkpt lat="42.8537850" lon="-7.7740020">
        <ele>644.8</ele>
        <time>2020-10-19T11:04:29Z</time>
      </trkpt>
      <trkpt lat="42.8537930" lon="-7.7740180">
        <ele>644.8</ele>
        <time>2020-10-19T11:04:30Z</time>
      </trkpt>
      <trkpt lat="42.8538020" lon="-7.7740350">
        <ele>644.8</ele>
        <time>2020-10-19T11:04:31Z</time>
      </trkpt>
      <trkpt lat="42.8538100" lon="-7.7740520">
        <ele>644.7</ele>
        <time>2020-10-19T11:04:32Z</time>
      </trkpt>
      <trkpt lat="42.8538170" lon="-7.7740680">
        <ele>644.7</ele>
        <time>2020-10-19T11:04:33Z</time>
      </trkpt>
      <trkpt lat="42.8538220" lon="-7.7740840">
        <ele>644.6</ele>
        <time>2020-10-19T11:04:34Z</time>
      </trkpt>
      <trkpt lat="42.8538270" lon="-7.7740980">
        <ele>644.6</ele>
        <time>2020-10-19T11:04:35Z</time>
      </trkpt>
      <trkpt lat="42.8538330" lon="-7.7741130">
        <ele>644.6</ele>
        <time>2020-10-19T11:04:36Z</time>
      </trkpt>
      <trkpt lat="42.8538400" lon="-7.7741270">
        <ele>644.5</ele>
        <time>2020-10-19T11:04:37Z</time>
      </trkpt>
      <trkpt lat="42.8538490" lon="-7.7741420">
        <ele>644.5</ele>
        <time>2020-10-19T11:04:38Z</time>
      </trkpt>
      <trkpt lat="42.8538570" lon="-7.7741560">
        <ele>644.5</ele>
        <time>2020-10-19T11:04:39Z</time>
      </trkpt>
      <trkpt lat="42.8538650" lon="-7.7741710">
        <ele>644.4</ele>
        <time>2020-10-19T11:04:40Z</time>
      </trkpt>
      <trkpt lat="42.8538730" lon="-7.7741860">
        <ele>644.4</ele>
        <time>2020-10-19T11:04:41Z</time>
      </trkpt>
      <trkpt lat="42.8538820" lon="-7.7741990">
        <ele>644.4</ele>
        <time>2020-10-19T11:04:42Z</time>
      </trkpt>
      <trkpt lat="42.8538920" lon="-7.7742130">
        <ele>644.3</ele>
        <time>2020-10-19T11:04:43Z</time>
      </trkpt>
      <trkpt lat="42.8539020" lon="-7.7742270">
        <ele>644.3</ele>
        <time>2020-10-19T11:04:44Z</time>
      </trkpt>
      <trkpt lat="42.8539120" lon="-7.7742410">
        <ele>644.3</ele>
        <time>2020-10-19T11:04:45Z</time>
      </trkpt>
      <trkpt lat="42.8539210" lon="-7.7742580">
        <ele>644.2</ele>
        <time>2020-10-19T11:04:46Z</time>
      </trkpt>
      <trkpt lat="42.8539300" lon="-7.7742740">
        <ele>644.2</ele>
        <time>2020-10-19T11:04:47Z</time>
      </trkpt>
      <trkpt lat="42.8539390" lon="-7.7742910">
        <ele>644.1</ele>
        <time>2020-10-19T11:04:48Z</time>
      </trkpt>
      <trkpt lat="42.8539480" lon="-7.7743070">
        <ele>644.1</ele>
        <time>2020-10-19T11:04:49Z</time>
      </trkpt>
      <trkpt lat="42.8539550" lon="-7.7743250">
        <ele>644.0</ele>
        <time>2020-10-19T11:04:50Z</time>
      </trkpt>
      <trkpt lat="42.8539620" lon="-7.7743410">
        <ele>644.0</ele>
        <time>2020-10-19T11:04:51Z</time>
      </trkpt>
      <trkpt lat="42.8539690" lon="-7.7743570">
        <ele>643.9</ele>
        <time>2020-10-19T11:04:52Z</time>
      </trkpt>
      <trkpt lat="42.8539770" lon="-7.7743730">
        <ele>643.9</ele>
        <time>2020-10-19T11:04:53Z</time>
      </trkpt>
      <trkpt lat="42.8539840" lon="-7.7743880">
        <ele>643.8</ele>
        <time>2020-10-19T11:04:54Z</time>
      </trkpt>
      <trkpt lat="42.8539900" lon="-7.7744040">
        <ele>643.8</ele>
        <time>2020-10-19T11:04:55Z</time>
      </trkpt>
      <trkpt lat="42.8539960" lon="-7.7744180">
        <ele>643.8</ele>
        <time>2020-10-19T11:04:56Z</time>
      </trkpt>
      <trkpt lat="42.8540010" lon="-7.7744330">
        <ele>643.7</ele>
        <time>2020-10-19T11:04:57Z</time>
      </trkpt>
      <trkpt lat="42.8540080" lon="-7.7744490">
        <ele>643.7</ele>
        <time>2020-10-19T11:04:58Z</time>
      </trkpt>
      <trkpt lat="42.8540150" lon="-7.7744650">
        <ele>643.6</ele>
        <time>2020-10-19T11:04:59Z</time>
      </trkpt>
      <trkpt lat="42.8540230" lon="-7.7744800">
        <ele>643.6</ele>
        <time>2020-10-19T11:05:00Z</time>
      </trkpt>
      <trkpt lat="42.8540310" lon="-7.7744950">
        <ele>643.6</ele>
        <time>2020-10-19T11:05:01Z</time>
      </trkpt>
      <trkpt lat="42.8540410" lon="-7.7745110">
        <ele>643.5</ele>
        <time>2020-10-19T11:05:02Z</time>
      </trkpt>
      <trkpt lat="42.8540500" lon="-7.7745260">
        <ele>643.5</ele>
        <time>2020-10-19T11:05:03Z</time>
      </trkpt>
      <trkpt lat="42.8540590" lon="-7.7745410">
        <ele>643.4</ele>
        <time>2020-10-19T11:05:04Z</time>
      </trkpt>
      <trkpt lat="42.8540670" lon="-7.7745570">
        <ele>643.4</ele>
        <time>2020-10-19T11:05:05Z</time>
      </trkpt>
      <trkpt lat="42.8540740" lon="-7.7745720">
        <ele>643.4</ele>
        <time>2020-10-19T11:05:06Z</time>
      </trkpt>
      <trkpt lat="42.8540810" lon="-7.7745870">
        <ele>643.4</ele>
        <time>2020-10-19T11:05:07Z</time>
      </trkpt>
      <trkpt lat="42.8540880" lon="-7.7746010">
        <ele>643.3</ele>
        <time>2020-10-19T11:05:08Z</time>
      </trkpt>
      <trkpt lat="42.8540940" lon="-7.7746140">
        <ele>643.3</ele>
        <time>2020-10-19T11:05:09Z</time>
      </trkpt>
      <trkpt lat="42.8541000" lon="-7.7746290">
        <ele>643.3</ele>
        <time>2020-10-19T11:05:10Z</time>
      </trkpt>
      <trkpt lat="42.8541050" lon="-7.7746430">
        <ele>643.3</ele>
        <time>2020-10-19T11:05:11Z</time>
      </trkpt>
      <trkpt lat="42.8541120" lon="-7.7746570">
        <ele>643.2</ele>
        <time>2020-10-19T11:05:12Z</time>
      </trkpt>
      <trkpt lat="42.8541190" lon="-7.7746710">
        <ele>643.2</ele>
        <time>2020-10-19T11:05:13Z</time>
      </trkpt>
      <trkpt lat="42.8541250" lon="-7.7746850">
        <ele>643.2</ele>
        <time>2020-10-19T11:05:14Z</time>
      </trkpt>
      <trkpt lat="42.8541310" lon="-7.7747010">
        <ele>643.2</ele>
        <time>2020-10-19T11:05:15Z</time>
      </trkpt>
      <trkpt lat="42.8541350" lon="-7.7747150">
        <ele>643.1</ele>
        <time>2020-10-19T11:05:16Z</time>
      </trkpt>
      <trkpt lat="42.8541390" lon="-7.7747300">
        <ele>643.1</ele>
        <time>2020-10-19T11:05:17Z</time>
      </trkpt>
      <trkpt lat="42.8541440" lon="-7.7747440">
        <ele>643.1</ele>
        <time>2020-10-19T11:05:18Z</time>
      </trkpt>
      <trkpt lat="42.8541500" lon="-7.7747590">
        <ele>643.1</ele>
        <time>2020-10-19T11:05:19Z</time>
      </trkpt>
      <trkpt lat="42.8541580" lon="-7.7747730">
        <ele>643.1</ele>
        <time>2020-10-19T11:05:20Z</time>
      </trkpt>
      <trkpt lat="42.8541660" lon="-7.7747880">
        <ele>643.0</ele>
        <time>2020-10-19T11:05:21Z</time>
      </trkpt>
      <trkpt lat="42.8541760" lon="-7.7748040">
        <ele>643.0</ele>
        <time>2020-10-19T11:05:22Z</time>
      </trkpt>
      <trkpt lat="42.8541850" lon="-7.7748200">
        <ele>643.0</ele>
        <time>2020-10-19T11:05:23Z</time>
      </trkpt>
      <trkpt lat="42.8541950" lon="-7.7748370">
        <ele>643.0</ele>
        <time>2020-10-19T11:05:24Z</time>
      </trkpt>
      <trkpt lat="42.8542050" lon="-7.7748500">
        <ele>642.9</ele>
        <time>2020-10-19T11:05:25Z</time>
      </trkpt>
      <trkpt lat="42.8542160" lon="-7.7748630">
        <ele>642.9</ele>
        <time>2020-10-19T11:05:26Z</time>
      </trkpt>
      <trkpt lat="42.8542260" lon="-7.7748750">
        <ele>642.9</ele>
        <time>2020-10-19T11:05:27Z</time>
      </trkpt>
      <trkpt lat="42.8542340" lon="-7.7748870">
        <ele>642.9</ele>
        <time>2020-10-19T11:05:28Z</time>
      </trkpt>
      <trkpt lat="42.8542390" lon="-7.7748970">
        <ele>642.9</ele>
        <time>2020-10-19T11:05:29Z</time>
      </trkpt>
      <trkpt lat="42.8542410" lon="-7.7749010">
        <ele>642.8</ele>
        <time>2020-10-19T11:05:30Z</time>
      </trkpt>
      <trkpt lat="42.8542370" lon="-7.7749010">
        <ele>642.8</ele>
        <time>2020-10-19T11:05:31Z</time>
      </trkpt>
      <trkpt lat="42.8542300" lon="-7.7748980">
        <ele>642.8</ele>
        <time>2020-10-19T11:05:32Z</time>
      </trkpt>
      <trkpt lat="42.8542250" lon="-7.7748960">
        <ele>642.8</ele>
        <time>2020-10-19T11:05:33Z</time>
      </trkpt>
      <trkpt lat="42.8542230" lon="-7.7748950">
        <ele>642.8</ele>
        <time>2020-10-19T11:05:34Z</time>
      </trkpt>
      <trkpt lat="42.8542210" lon="-7.7748960">
        <ele>642.8</ele>
        <time>2020-10-19T11:05:35Z</time>
      </trkpt>
      <trkpt lat="42.8542190" lon="-7.7748980">
        <ele>642.8</ele>
        <time>2020-10-19T11:05:36Z</time>
      </trkpt>
      <trkpt lat="42.8542170" lon="-7.7749010">
        <ele>642.8</ele>
        <time>2020-10-19T11:05:37Z</time>
      </trkpt>
      <trkpt lat="42.8542170" lon="-7.7749030">
        <ele>642.8</ele>
        <time>2020-10-19T11:05:38Z</time>
      </trkpt>
      <trkpt lat="42.8542160" lon="-7.7749060">
        <ele>642.8</ele>
        <time>2020-10-19T11:05:39Z</time>
      </trkpt>
      <trkpt lat="42.8542170" lon="-7.7749060">
        <ele>642.8</ele>
        <time>2020-10-19T11:05:40Z</time>
      </trkpt>
      <trkpt lat="42.8542180" lon="-7.7749060">
        <ele>642.8</ele>
        <time>2020-10-19T11:05:41Z</time>
      </trkpt>
      <trkpt lat="42.8542200" lon="-7.7749080">
        <ele>642.8</ele>
        <time>2020-10-19T11:05:42Z</time>
      </trkpt>
      <trkpt lat="42.8542200" lon="-7.7749100">
        <ele>642.8</ele>
        <time>2020-10-19T11:05:43Z</time>
      </trkpt>
      <trkpt lat="42.8542210" lon="-7.7749110">
        <ele>642.8</ele>
        <time>2020-10-19T11:05:44Z</time>
      </trkpt>
      <trkpt lat="42.8542220" lon="-7.7749110">
        <ele>642.8</ele>
        <time>2020-10-19T11:05:45Z</time>
      </trkpt>
      <trkpt lat="42.8542230" lon="-7.7749120">
        <ele>642.8</ele>
        <time>2020-10-19T11:05:46Z</time>
      </trkpt>
      <trkpt lat="42.8542240" lon="-7.7749120">
        <ele>642.8</ele>
        <time>2020-10-19T11:05:47Z</time>
      </trkpt>
      <trkpt lat="42.8542250" lon="-7.7749110">
        <ele>642.8</ele>
        <time>2020-10-19T11:05:48Z</time>
      </trkpt>
      <trkpt lat="42.8542270" lon="-7.7749090">
        <ele>642.8</ele>
        <time>2020-10-19T11:05:49Z</time>
      </trkpt>
      <trkpt lat="42.8542300" lon="-7.7749070">
        <ele>642.8</ele>
        <time>2020-10-19T11:05:50Z</time>
      </trkpt>
      <trkpt lat="42.8542340" lon="-7.7749080">
        <ele>642.8</ele>
        <time>2020-10-19T11:05:51Z</time>
      </trkpt>
      <trkpt lat="42.8542430" lon="-7.7749110">
        <ele>642.8</ele>
        <time>2020-10-19T11:05:52Z</time>
      </trkpt>
      <trkpt lat="42.8542530" lon="-7.7749180">
        <ele>642.7</ele>
        <time>2020-10-19T11:05:53Z</time>
      </trkpt>
      <trkpt lat="42.8542640" lon="-7.7749280">
        <ele>642.7</ele>
        <time>2020-10-19T11:05:54Z</time>
      </trkpt>
      <trkpt lat="42.8542730" lon="-7.7749410">
        <ele>642.7</ele>
        <time>2020-10-19T11:05:55Z</time>
      </trkpt>
      <trkpt lat="42.8542820" lon="-7.7749540">
        <ele>642.7</ele>
        <time>2020-10-19T11:05:56Z</time>
      </trkpt>
      <trkpt lat="42.8542910" lon="-7.7749670">
        <ele>642.7</ele>
        <time>2020-10-19T11:05:57Z</time>
      </trkpt>
      <trkpt lat="42.8542990" lon="-7.7749810">
        <ele>642.7</ele>
        <time>2020-10-19T11:05:58Z</time>
      </trkpt>
      <trkpt lat="42.8543080" lon="-7.7749970">
        <ele>642.6</ele>
        <time>2020-10-19T11:05:59Z</time>
      </trkpt>
      <trkpt lat="42.8543160" lon="-7.7750110">
        <ele>642.6</ele>
        <time>2020-10-19T11:06:00Z</time>
      </trkpt>
      <trkpt lat="42.8543240" lon="-7.7750250">
        <ele>642.6</ele>
        <time>2020-10-19T11:06:01Z</time>
      </trkpt>
      <trkpt lat="42.8543320" lon="-7.7750390">
        <ele>642.6</ele>
        <time>2020-10-19T11:06:02Z</time>
      </trkpt>
      <trkpt lat="42.8543400" lon="-7.7750530">
        <ele>642.6</ele>
        <time>2020-10-19T11:06:03Z</time>
      </trkpt>
      <trkpt lat="42.8543490" lon="-7.7750660">
        <ele>642.5</ele>
        <time>2020-10-19T11:06:04Z</time>
      </trkpt>
      <trkpt lat="42.8543590" lon="-7.7750780">
        <ele>642.5</ele>
        <time>2020-10-19T11:06:05Z</time>
      </trkpt>
      <trkpt lat="42.8543690" lon="-7.7750920">
        <ele>642.5</ele>
        <time>2020-10-19T11:06:06Z</time>
      </trkpt>
      <trkpt lat="42.8543780" lon="-7.7751040">
        <ele>642.4</ele>
        <time>2020-10-19T11:06:07Z</time>
      </trkpt>
      <trkpt lat="42.8543870" lon="-7.7751170">
        <ele>642.4</ele>
        <time>2020-10-19T11:06:08Z</time>
      </trkpt>
      <trkpt lat="42.8543960" lon="-7.7751290">
        <ele>642.4</ele>
        <time>2020-10-19T11:06:09Z</time>
      </trkpt>
      <trkpt lat="42.8544030" lon="-7.7751420">
        <ele>642.4</ele>
        <time>2020-10-19T11:06:10Z</time>
      </trkpt>
      <trkpt lat="42.8544100" lon="-7.7751570">
        <ele>642.3</ele>
        <time>2020-10-19T11:06:11Z</time>
      </trkpt>
      <trkpt lat="42.8544170" lon="-7.7751690">
        <ele>642.3</ele>
        <time>2020-10-19T11:06:12Z</time>
      </trkpt>
      <trkpt lat="42.8544220" lon="-7.7751770">
        <ele>642.3</ele>
        <time>2020-10-19T11:06:13Z</time>
      </trkpt>
      <trkpt lat="42.8544260" lon="-7.7751800">
        <ele>642.3</ele>
        <time>2020-10-19T11:06:14Z</time>
      </trkpt>
      <trkpt lat="42.8544280" lon="-7.7751800">
        <ele>642.3</ele>
        <time>2020-10-19T11:06:15Z</time>
      </trkpt>
      <trkpt lat="42.8544300" lon="-7.7751780">
        <ele>642.3</ele>
        <time>2020-10-19T11:06:16Z</time>
      </trkpt>
      <trkpt lat="42.8544330" lon="-7.7751780">
        <ele>642.3</ele>
        <time>2020-10-19T11:06:17Z</time>
      </trkpt>
      <trkpt lat="42.8544350" lon="-7.7751780">
        <ele>642.3</ele>
        <time>2020-10-19T11:06:18Z</time>
      </trkpt>
      <trkpt lat="42.8544380" lon="-7.7751790">
        <ele>642.3</ele>
        <time>2020-10-19T11:06:19Z</time>
      </trkpt>
      <trkpt lat="42.8544410" lon="-7.7751800">
        <ele>642.2</ele>
        <time>2020-10-19T11:06:20Z</time>
      </trkpt>
      <trkpt lat="42.8544420" lon="-7.7751800">
        <ele>642.2</ele>
        <time>2020-10-19T11:06:21Z</time>
      </trkpt>
      <trkpt lat="42.8544430" lon="-7.7751800">
        <ele>642.2</ele>
        <time>2020-10-19T11:06:22Z</time>
      </trkpt>
      <trkpt lat="42.8544450" lon="-7.7751810">
        <ele>642.2</ele>
        <time>2020-10-19T11:06:23Z</time>
      </trkpt>
      <trkpt lat="42.8544460" lon="-7.7751800">
        <ele>642.2</ele>
        <time>2020-10-19T11:06:24Z</time>
      </trkpt>
      <trkpt lat="42.8544460" lon="-7.7751810">
        <ele>642.2</ele>
        <time>2020-10-19T11:06:25Z</time>
      </trkpt>
      <trkpt lat="42.8544440" lon="-7.7751810">
        <ele>642.2</ele>
        <time>2020-10-19T11:06:26Z</time>
      </trkpt>
      <trkpt lat="42.8544430" lon="-7.7751820">
        <ele>642.2</ele>
        <time>2020-10-19T11:06:27Z</time>
      </trkpt>
      <trkpt lat="42.8544450" lon="-7.7751850">
        <ele>642.2</ele>
        <time>2020-10-19T11:06:28Z</time>
      </trkpt>
      <trkpt lat="42.8544480" lon="-7.7751880">
        <ele>642.2</ele>
        <time>2020-10-19T11:06:29Z</time>
      </trkpt>
      <trkpt lat="42.8544500" lon="-7.7751920">
        <ele>642.2</ele>
        <time>2020-10-19T11:06:30Z</time>
      </trkpt>
      <trkpt lat="42.8544510" lon="-7.7751930">
        <ele>642.2</ele>
        <time>2020-10-19T11:06:31Z</time>
      </trkpt>
      <trkpt lat="42.8544490" lon="-7.7751940">
        <ele>642.2</ele>
        <time>2020-10-19T11:06:32Z</time>
      </trkpt>
      <trkpt lat="42.8544470" lon="-7.7751950">
        <ele>642.2</ele>
        <time>2020-10-19T11:06:33Z</time>
      </trkpt>
      <trkpt lat="42.8544440" lon="-7.7751950">
        <ele>642.2</ele>
        <time>2020-10-19T11:06:34Z</time>
      </trkpt>
      <trkpt lat="42.8544420" lon="-7.7751960">
        <ele>642.2</ele>
        <time>2020-10-19T11:06:35Z</time>
      </trkpt>
      <trkpt lat="42.8544410" lon="-7.7751960">
        <ele>642.2</ele>
        <time>2020-10-19T11:06:36Z</time>
      </trkpt>
      <trkpt lat="42.8544400" lon="-7.7751950">
        <ele>642.2</ele>
        <time>2020-10-19T11:06:37Z</time>
      </trkpt>
      <trkpt lat="42.8544410" lon="-7.7751960">
        <ele>642.2</ele>
        <time>2020-10-19T11:06:38Z</time>
      </trkpt>
      <trkpt lat="42.8544420" lon="-7.7751970">
        <ele>642.2</ele>
        <time>2020-10-19T11:06:39Z</time>
      </trkpt>
      <trkpt lat="42.8544430" lon="-7.7751970">
        <ele>642.1</ele>
        <time>2020-10-19T11:06:40Z</time>
      </trkpt>
      <trkpt lat="42.8544440" lon="-7.7751970">
        <ele>642.1</ele>
        <time>2020-10-19T11:06:41Z</time>
      </trkpt>
      <trkpt lat="42.8544460" lon="-7.7751980">
        <ele>642.1</ele>
        <time>2020-10-19T11:06:42Z</time>
      </trkpt>
      <trkpt lat="42.8544480" lon="-7.7751990">
        <ele>642.1</ele>
        <time>2020-10-19T11:06:43Z</time>
      </trkpt>
      <trkpt lat="42.8544490" lon="-7.7752000">
        <ele>642.1</ele>
        <time>2020-10-19T11:06:44Z</time>
      </trkpt>
      <trkpt lat="42.8544500" lon="-7.7752010">
        <ele>642.1</ele>
        <time>2020-10-19T11:06:45Z</time>
      </trkpt>
      <trkpt lat="42.8544500" lon="-7.7752020">
        <ele>642.1</ele>
        <time>2020-10-19T11:06:46Z</time>
      </trkpt>
      <trkpt lat="42.8544500" lon="-7.7752030">
        <ele>642.1</ele>
        <time>2020-10-19T11:06:47Z</time>
      </trkpt>
      <trkpt lat="42.8544500" lon="-7.7752050">
        <ele>642.1</ele>
        <time>2020-10-19T11:06:48Z</time>
      </trkpt>
      <trkpt lat="42.8544520" lon="-7.7752080">
        <ele>642.1</ele>
        <time>2020-10-19T11:06:49Z</time>
      </trkpt>
      <trkpt lat="42.8544530" lon="-7.7752100">
        <ele>642.1</ele>
        <time>2020-10-19T11:06:50Z</time>
      </trkpt>
      <trkpt lat="42.8544540" lon="-7.7752130">
        <ele>642.1</ele>
        <time>2020-10-19T11:06:51Z</time>
      </trkpt>
      <trkpt lat="42.8544550" lon="-7.7752140">
        <ele>642.1</ele>
        <time>2020-10-19T11:06:52Z</time>
      </trkpt>
      <trkpt lat="42.8544550" lon="-7.7752150">
        <ele>642.1</ele>
        <time>2020-10-19T11:06:53Z</time>
      </trkpt>
      <trkpt lat="42.8544560" lon="-7.7752170">
        <ele>642.1</ele>
        <time>2020-10-19T11:06:54Z</time>
      </trkpt>
      <trkpt lat="42.8544570" lon="-7.7752190">
        <ele>642.1</ele>
        <time>2020-10-19T11:06:55Z</time>
      </trkpt>
      <trkpt lat="42.8544600" lon="-7.7752210">
        <ele>642.1</ele>
        <time>2020-10-19T11:06:56Z</time>
      </trkpt>
      <trkpt lat="42.8544630" lon="-7.7752230">
        <ele>642.1</ele>
        <time>2020-10-19T11:06:57Z</time>
      </trkpt>
      <trkpt lat="42.8544660" lon="-7.7752270">
        <ele>642.1</ele>
        <time>2020-10-19T11:06:58Z</time>
      </trkpt>
      <trkpt lat="42.8544700" lon="-7.7752350">
        <ele>642.0</ele>
        <time>2020-10-19T11:06:59Z</time>
      </trkpt>
      <trkpt lat="42.8544740" lon="-7.7752450">
        <ele>642.0</ele>
        <time>2020-10-19T11:07:00Z</time>
      </trkpt>
      <trkpt lat="42.8544790" lon="-7.7752560">
        <ele>642.0</ele>
        <time>2020-10-19T11:07:01Z</time>
      </trkpt>
      <trkpt lat="42.8544810" lon="-7.7752670">
        <ele>642.0</ele>
        <time>2020-10-19T11:07:02Z</time>
      </trkpt>
      <trkpt lat="42.8544840" lon="-7.7752760">
        <ele>641.9</ele>
        <time>2020-10-19T11:07:03Z</time>
      </trkpt>
      <trkpt lat="42.8544840" lon="-7.7752820">
        <ele>641.9</ele>
        <time>2020-10-19T11:07:04Z</time>
      </trkpt>
      <trkpt lat="42.8544840" lon="-7.7752850">
        <ele>641.9</ele>
        <time>2020-10-19T11:07:05Z</time>
      </trkpt>
      <trkpt lat="42.8544830" lon="-7.7752870">
        <ele>641.9</ele>
        <time>2020-10-19T11:07:06Z</time>
      </trkpt>
      <trkpt lat="42.8544840" lon="-7.7752880">
        <ele>641.9</ele>
        <time>2020-10-19T11:07:07Z</time>
      </trkpt>
      <trkpt lat="42.8544840" lon="-7.7752900">
        <ele>641.9</ele>
        <time>2020-10-19T11:07:08Z</time>
      </trkpt>
      <trkpt lat="42.8544830" lon="-7.7752900">
        <ele>641.9</ele>
        <time>2020-10-19T11:07:09Z</time>
      </trkpt>
      <trkpt lat="42.8544800" lon="-7.7752900">
        <ele>641.9</ele>
        <time>2020-10-19T11:07:10Z</time>
      </trkpt>
      <trkpt lat="42.8544780" lon="-7.7752910">
        <ele>641.9</ele>
        <time>2020-10-19T11:07:11Z</time>
      </trkpt>
      <trkpt lat="42.8544760" lon="-7.7752910">
        <ele>641.9</ele>
        <time>2020-10-19T11:07:12Z</time>
      </trkpt>
      <trkpt lat="42.8544760" lon="-7.7752910">
        <ele>641.9</ele>
        <time>2020-10-19T11:07:13Z</time>
      </trkpt>
      <trkpt lat="42.8544770" lon="-7.7752920">
        <ele>641.9</ele>
        <time>2020-10-19T11:07:14Z</time>
      </trkpt>
      <trkpt lat="42.8544790" lon="-7.7752930">
        <ele>641.9</ele>
        <time>2020-10-19T11:07:15Z</time>
      </trkpt>
      <trkpt lat="42.8544820" lon="-7.7752950">
        <ele>641.9</ele>
        <time>2020-10-19T11:07:16Z</time>
      </trkpt>
      <trkpt lat="42.8544830" lon="-7.7752960">
        <ele>641.9</ele>
        <time>2020-10-19T11:07:17Z</time>
      </trkpt>
      <trkpt lat="42.8544830" lon="-7.7752970">
        <ele>641.9</ele>
        <time>2020-10-19T11:07:18Z</time>
      </trkpt>
      <trkpt lat="42.8544840" lon="-7.7752970">
        <ele>641.9</ele>
        <time>2020-10-19T11:07:19Z</time>
      </trkpt>
      <trkpt lat="42.8544850" lon="-7.7752970">
        <ele>641.9</ele>
        <time>2020-10-19T11:07:20Z</time>
      </trkpt>
      <trkpt lat="42.8544850" lon="-7.7752970">
        <ele>641.9</ele>
        <time>2020-10-19T11:07:21Z</time>
      </trkpt>
      <trkpt lat="42.8544850" lon="-7.7752970">
        <ele>641.9</ele>
        <time>2020-10-19T11:07:22Z</time>
      </trkpt>
      <trkpt lat="42.8544850" lon="-7.7752970">
        <ele>641.9</ele>
        <time>2020-10-19T11:07:23Z</time>
      </trkpt>
      <trkpt lat="42.8544850" lon="-7.7752970">
        <ele>641.9</ele>
        <time>2020-10-19T11:07:24Z</time>
      </trkpt>
      <trkpt lat="42.8544860" lon="-7.7752970">
        <ele>641.9</ele>
        <time>2020-10-19T11:07:25Z</time>
      </trkpt>
      <trkpt lat="42.8544860" lon="-7.7752980">
        <ele>641.8</ele>
        <time>2020-10-19T11:07:26Z</time>
      </trkpt>
      <trkpt lat="42.8544860" lon="-7.7752980">
        <ele>641.8</ele>
        <time>2020-10-19T11:07:27Z</time>
      </trkpt>
      <trkpt lat="42.8544860" lon="-7.7752970">
        <ele>641.8</ele>
        <time>2020-10-19T11:07:28Z</time>
      </trkpt>
      <trkpt lat="42.8544860" lon="-7.7752960">
        <ele>641.8</ele>
        <time>2020-10-19T11:07:29Z</time>
      </trkpt>
      <trkpt lat="42.8544850" lon="-7.7752960">
        <ele>641.8</ele>
        <time>2020-10-19T11:07:30Z</time>
      </trkpt>
      <trkpt lat="42.8544860" lon="-7.7752960">
        <ele>641.8</ele>
        <time>2020-10-19T11:07:31Z</time>
      </trkpt>
      <trkpt lat="42.8544860" lon="-7.7752980">
        <ele>641.8</ele>
        <time>2020-10-19T11:07:32Z</time>
      </trkpt>
      <trkpt lat="42.8544850" lon="-7.7753010">
        <ele>641.8</ele>
        <time>2020-10-19T11:07:33Z</time>
      </trkpt>
      <trkpt lat="42.8544840" lon="-7.7753040">
        <ele>641.8</ele>
        <time>2020-10-19T11:07:34Z</time>
      </trkpt>
      <trkpt lat="42.8544830" lon="-7.7753060">
        <ele>641.8</ele>
        <time>2020-10-19T11:07:35Z</time>
      </trkpt>
      <trkpt lat="42.8544830" lon="-7.7753080">
        <ele>641.8</ele>
        <time>2020-10-19T11:07:36Z</time>
      </trkpt>
      <trkpt lat="42.8544840" lon="-7.7753090">
        <ele>641.8</ele>
        <time>2020-10-19T11:07:37Z</time>
      </trkpt>
      <trkpt lat="42.8544850" lon="-7.7753090">
        <ele>641.8</ele>
        <time>2020-10-19T11:07:38Z</time>
      </trkpt>
      <trkpt lat="42.8544860" lon="-7.7753100">
        <ele>641.8</ele>
        <time>2020-10-19T11:07:39Z</time>
      </trkpt>
      <trkpt lat="42.8544860" lon="-7.7753100">
        <ele>641.8</ele>
        <time>2020-10-19T11:07:40Z</time>
      </trkpt>
      <trkpt lat="42.8544870" lon="-7.7753100">
        <ele>641.8</ele>
        <time>2020-10-19T11:07:41Z</time>
      </trkpt>
      <trkpt lat="42.8544870" lon="-7.7753090">
        <ele>641.8</ele>
        <time>2020-10-19T11:07:42Z</time>
      </trkpt>
      <trkpt lat="42.8544870" lon="-7.7753080">
        <ele>641.8</ele>
        <time>2020-10-19T11:07:43Z</time>
      </trkpt>
      <trkpt lat="42.8544850" lon="-7.7753080">
        <ele>641.8</ele>
        <time>2020-10-19T11:07:44Z</time>
      </trkpt>
      <trkpt lat="42.8544840" lon="-7.7753070">
        <ele>641.8</ele>
        <time>2020-10-19T11:07:45Z</time>
      </trkpt>
      <trkpt lat="42.8544820" lon="-7.7753070">
        <ele>641.8</ele>
        <time>2020-10-19T11:07:46Z</time>
      </trkpt>
      <trkpt lat="42.8544810" lon="-7.7753070">
        <ele>641.8</ele>
        <time>2020-10-19T11:07:47Z</time>
      </trkpt>
      <trkpt lat="42.8544800" lon="-7.7753070">
        <ele>641.8</ele>
        <time>2020-10-19T11:07:48Z</time>
      </trkpt>
      <trkpt lat="42.8544800" lon="-7.7753070">
        <ele>641.8</ele>
        <time>2020-10-19T11:07:49Z</time>
      </trkpt>
      <trkpt lat="42.8544790" lon="-7.7753080">
        <ele>641.8</ele>
        <time>2020-10-19T11:07:50Z</time>
      </trkpt>
      <trkpt lat="42.8544790" lon="-7.7753090">
        <ele>641.8</ele>
        <time>2020-10-19T11:07:51Z</time>
      </trkpt>
      <trkpt lat="42.8544790" lon="-7.7753100">
        <ele>641.8</ele>
        <time>2020-10-19T11:07:52Z</time>
      </trkpt>
      <trkpt lat="42.8544790" lon="-7.7753120">
        <ele>641.8</ele>
        <time>2020-10-19T11:07:53Z</time>
      </trkpt>
      <trkpt lat="42.8544780" lon="-7.7753140">
        <ele>641.7</ele>
        <time>2020-10-19T11:07:54Z</time>
      </trkpt>
      <trkpt lat="42.8544770" lon="-7.7753150">
        <ele>641.7</ele>
        <time>2020-10-19T11:07:55Z</time>
      </trkpt>
      <trkpt lat="42.8544760" lon="-7.7753160">
        <ele>641.7</ele>
        <time>2020-10-19T11:07:56Z</time>
      </trkpt>
      <trkpt lat="42.8544770" lon="-7.7753140">
        <ele>641.7</ele>
        <time>2020-10-19T11:07:57Z</time>
      </trkpt>
      <trkpt lat="42.8544780" lon="-7.7753110">
        <ele>641.7</ele>
        <time>2020-10-19T11:07:58Z</time>
      </trkpt>
      <trkpt lat="42.8544790" lon="-7.7753090">
        <ele>641.7</ele>
        <time>2020-10-19T11:07:59Z</time>
      </trkpt>
      <trkpt lat="42.8544790" lon="-7.7753080">
        <ele>641.7</ele>
        <time>2020-10-19T11:08:00Z</time>
      </trkpt>
      <trkpt lat="42.8544790" lon="-7.7753070">
        <ele>641.7</ele>
        <time>2020-10-19T11:08:01Z</time>
      </trkpt>
      <trkpt lat="42.8544800" lon="-7.7753060">
        <ele>641.7</ele>
        <time>2020-10-19T11:08:02Z</time>
      </trkpt>
      <trkpt lat="42.8544830" lon="-7.7753070">
        <ele>641.7</ele>
        <time>2020-10-19T11:08:03Z</time>
      </trkpt>
      <trkpt lat="42.8544870" lon="-7.7753100">
        <ele>641.7</ele>
        <time>2020-10-19T11:08:04Z</time>
      </trkpt>
      <trkpt lat="42.8544920" lon="-7.7753170">
        <ele>641.7</ele>
        <time>2020-10-19T11:08:05Z</time>
      </trkpt>
      <trkpt lat="42.8544980" lon="-7.7753240">
        <ele>641.6</ele>
        <time>2020-10-19T11:08:06Z</time>
      </trkpt>
      <trkpt lat="42.8545020" lon="-7.7753320">
        <ele>641.6</ele>
        <time>2020-10-19T11:08:07Z</time>
      </trkpt>
      <trkpt lat="42.8545070" lon="-7.7753410">
        <ele>641.6</ele>
        <time>2020-10-19T11:08:08Z</time>
      </trkpt>
      <trkpt lat="42.8545110" lon="-7.7753500">
        <ele>641.6</ele>
        <time>2020-10-19T11:08:09Z</time>
      </trkpt>
      <trkpt lat="42.8545140" lon="-7.7753620">
        <ele>641.5</ele>
        <time>2020-10-19T11:08:10Z</time>
      </trkpt>
      <trkpt lat="42.8545170" lon="-7.7753740">
        <ele>641.5</ele>
        <time>2020-10-19T11:08:11Z</time>
      </trkpt>
      <trkpt lat="42.8545200" lon="-7.7753870">
        <ele>641.5</ele>
        <time>2020-10-19T11:08:12Z</time>
      </trkpt>
      <trkpt lat="42.8545240" lon="-7.7753990">
        <ele>641.5</ele>
        <time>2020-10-19T11:08:13Z</time>
      </trkpt>
      <trkpt lat="42.8545280" lon="-7.7754090">
        <ele>641.4</ele>
        <time>2020-10-19T11:08:14Z</time>
      </trkpt>
      <trkpt lat="42.8545340" lon="-7.7754190">
        <ele>641.4</ele>
        <time>2020-10-19T11:08:15Z</time>
      </trkpt>
      <trkpt lat="42.8545410" lon="-7.7754240">
        <ele>641.4</ele>
        <time>2020-10-19T11:08:16Z</time>
      </trkpt>
      <trkpt lat="42.8545480" lon="-7.7754280">
        <ele>641.3</ele>
        <time>2020-10-19T11:08:17Z</time>
      </trkpt>
      <trkpt lat="42.8545530" lon="-7.7754300">
        <ele>641.3</ele>
        <time>2020-10-19T11:08:18Z</time>
      </trkpt>
      <trkpt lat="42.8545560" lon="-7.7754320">
        <ele>641.3</ele>
        <time>2020-10-19T11:08:19Z</time>
      </trkpt>
      <trkpt lat="42.8545590" lon="-7.7754330">
        <ele>641.3</ele>
        <time>2020-10-19T11:08:20Z</time>
      </trkpt>
      <trkpt lat="42.8545600" lon="-7.7754330">
        <ele>641.3</ele>
        <time>2020-10-19T11:08:21Z</time>
      </trkpt>
      <trkpt lat="42.8545600" lon="-7.7754320">
        <ele>641.3</ele>
        <time>2020-10-19T11:08:22Z</time>
      </trkpt>
      <trkpt lat="42.8545600" lon="-7.7754310">
        <ele>641.3</ele>
        <time>2020-10-19T11:08:23Z</time>
      </trkpt>
      <trkpt lat="42.8545600" lon="-7.7754300">
        <ele>641.3</ele>
        <time>2020-10-19T11:08:24Z</time>
      </trkpt>
      <trkpt lat="42.8545590" lon="-7.7754300">
        <ele>641.3</ele>
        <time>2020-10-19T11:08:25Z</time>
      </trkpt>
      <trkpt lat="42.8545570" lon="-7.7754320">
        <ele>641.3</ele>
        <time>2020-10-19T11:08:26Z</time>
      </trkpt>
      <trkpt lat="42.8545560" lon="-7.7754370">
        <ele>641.3</ele>
        <time>2020-10-19T11:08:27Z</time>
      </trkpt>
      <trkpt lat="42.8545570" lon="-7.7754430">
        <ele>641.3</ele>
        <time>2020-10-19T11:08:28Z</time>
      </trkpt>
      <trkpt lat="42.8545590" lon="-7.7754500">
        <ele>641.3</ele>
        <time>2020-10-19T11:08:29Z</time>
      </trkpt>
      <trkpt lat="42.8545610" lon="-7.7754620">
        <ele>641.2</ele>
        <time>2020-10-19T11:08:30Z</time>
      </trkpt>
      <trkpt lat="42.8545630" lon="-7.7754750">
        <ele>641.2</ele>
        <time>2020-10-19T11:08:31Z</time>
      </trkpt>
      <trkpt lat="42.8545660" lon="-7.7754900">
        <ele>641.2</ele>
        <time>2020-10-19T11:08:32Z</time>
      </trkpt>
      <trkpt lat="42.8545700" lon="-7.7755000">
        <ele>641.2</ele>
        <time>2020-10-19T11:08:33Z</time>
      </trkpt>
      <trkpt lat="42.8545770" lon="-7.7755100">
        <ele>641.1</ele>
        <time>2020-10-19T11:08:34Z</time>
      </trkpt>
      <trkpt lat="42.8545830" lon="-7.7755220">
        <ele>641.1</ele>
        <time>2020-10-19T11:08:35Z</time>
      </trkpt>
      <trkpt lat="42.8545910" lon="-7.7755330">
        <ele>641.1</ele>
        <time>2020-10-19T11:08:36Z</time>
      </trkpt>
      <trkpt lat="42.8545970" lon="-7.7755460">
        <ele>641.0</ele>
        <time>2020-10-19T11:08:37Z</time>
      </trkpt>
      <trkpt lat="42.8546010" lon="-7.7755570">
        <ele>641.0</ele>
        <time>2020-10-19T11:08:38Z</time>
      </trkpt>
      <trkpt lat="42.8546040" lon="-7.7755680">
        <ele>641.0</ele>
        <time>2020-10-19T11:08:39Z</time>
      </trkpt>
      <trkpt lat="42.8546090" lon="-7.7755790">
        <ele>641.0</ele>
        <time>2020-10-19T11:08:40Z</time>
      </trkpt>
      <trkpt lat="42.8546170" lon="-7.7755910">
        <ele>641.0</ele>
        <time>2020-10-19T11:08:41Z</time>
      </trkpt>
      <trkpt lat="42.8546250" lon="-7.7756030">
        <ele>640.9</ele>
        <time>2020-10-19T11:08:42Z</time>
      </trkpt>
      <trkpt lat="42.8546320" lon="-7.7756150">
        <ele>640.9</ele>
        <time>2020-10-19T11:08:43Z</time>
      </trkpt>
      <trkpt lat="42.8546380" lon="-7.7756270">
        <ele>640.9</ele>
        <time>2020-10-19T11:08:44Z</time>
      </trkpt>
      <trkpt lat="42.8546440" lon="-7.7756400">
        <ele>640.9</ele>
        <time>2020-10-19T11:08:45Z</time>
      </trkpt>
      <trkpt lat="42.8546530" lon="-7.7756530">
        <ele>640.8</ele>
        <time>2020-10-19T11:08:46Z</time>
      </trkpt>
      <trkpt lat="42.8546620" lon="-7.7756670">
        <ele>640.8</ele>
        <time>2020-10-19T11:08:47Z</time>
      </trkpt>
      <trkpt lat="42.8546690" lon="-7.7756800">
        <ele>640.8</ele>
        <time>2020-10-19T11:08:48Z</time>
      </trkpt>
      <trkpt lat="42.8546740" lon="-7.7756930">
        <ele>640.8</ele>
        <time>2020-10-19T11:08:49Z</time>
      </trkpt>
      <trkpt lat="42.8546800" lon="-7.7757060">
        <ele>640.7</ele>
        <time>2020-10-19T11:08:50Z</time>
      </trkpt>
      <trkpt lat="42.8546870" lon="-7.7757180">
        <ele>640.7</ele>
        <time>2020-10-19T11:08:51Z</time>
      </trkpt>
      <trkpt lat="42.8546950" lon="-7.7757300">
        <ele>640.7</ele>
        <time>2020-10-19T11:08:52Z</time>
      </trkpt>
      <trkpt lat="42.8547020" lon="-7.7757410">
        <ele>640.7</ele>
        <time>2020-10-19T11:08:53Z</time>
      </trkpt>
      <trkpt lat="42.8547070" lon="-7.7757520">
        <ele>640.6</ele>
        <time>2020-10-19T11:08:54Z</time>
      </trkpt>
      <trkpt lat="42.8547130" lon="-7.7757630">
        <ele>640.6</ele>
        <time>2020-10-19T11:08:55Z</time>
      </trkpt>
      <trkpt lat="42.8547180" lon="-7.7757760">
        <ele>640.6</ele>
        <time>2020-10-19T11:08:56Z</time>
      </trkpt>
      <trkpt lat="42.8547240" lon="-7.7757900">
        <ele>640.6</ele>
        <time>2020-10-19T11:08:57Z</time>
      </trkpt>
      <trkpt lat="42.8547290" lon="-7.7758020">
        <ele>640.5</ele>
        <time>2020-10-19T11:08:58Z</time>
      </trkpt>
      <trkpt lat="42.8547330" lon="-7.7758160">
        <ele>640.5</ele>
        <time>2020-10-19T11:08:59Z</time>
      </trkpt>
      <trkpt lat="42.8547370" lon="-7.7758290">
        <ele>640.5</ele>
        <time>2020-10-19T11:09:00Z</time>
      </trkpt>
      <trkpt lat="42.8547410" lon="-7.7758420">
        <ele>640.5</ele>
        <time>2020-10-19T11:09:01Z</time>
      </trkpt>
      <trkpt lat="42.8547450" lon="-7.7758550">
        <ele>640.4</ele>
        <time>2020-10-19T11:09:02Z</time>
      </trkpt>
      <trkpt lat="42.8547500" lon="-7.7758660">
        <ele>640.4</ele>
        <time>2020-10-19T11:09:03Z</time>
      </trkpt>
      <trkpt lat="42.8547550" lon="-7.7758770">
        <ele>640.4</ele>
        <time>2020-10-19T11:09:04Z</time>
      </trkpt>
      <trkpt lat="42.8547600" lon="-7.7758880">
        <ele>640.4</ele>
        <time>2020-10-19T11:09:05Z</time>
      </trkpt>
      <trkpt lat="42.8547630" lon="-7.7758970">
        <ele>640.4</ele>
        <time>2020-10-19T11:09:06Z</time>
      </trkpt>
      <trkpt lat="42.8547640" lon="-7.7759030">
        <ele>640.4</ele>
        <time>2020-10-19T11:09:07Z</time>
      </trkpt>
      <trkpt lat="42.8547640" lon="-7.7759050">
        <ele>640.4</ele>
        <time>2020-10-19T11:09:08Z</time>
      </trkpt>
      <trkpt lat="42.8547650" lon="-7.7759050">
        <ele>640.4</ele>
        <time>2020-10-19T11:09:09Z</time>
      </trkpt>
      <trkpt lat="42.8547650" lon="-7.7759060">
        <ele>640.4</ele>
        <time>2020-10-19T11:09:10Z</time>
      </trkpt>
      <trkpt lat="42.8547660" lon="-7.7759070">
        <ele>640.3</ele>
        <time>2020-10-19T11:09:11Z</time>
      </trkpt>
      <trkpt lat="42.8547670" lon="-7.7759080">
        <ele>640.3</ele>
        <time>2020-10-19T11:09:12Z</time>
      </trkpt>
      <trkpt lat="42.8547680" lon="-7.7759100">
        <ele>640.3</ele>
        <time>2020-10-19T11:09:13Z</time>
      </trkpt>
      <trkpt lat="42.8547690" lon="-7.7759110">
        <ele>640.3</ele>
        <time>2020-10-19T11:09:14Z</time>
      </trkpt>
      <trkpt lat="42.8547690" lon="-7.7759130">
        <ele>640.3</ele>
        <time>2020-10-19T11:09:15Z</time>
      </trkpt>
      <trkpt lat="42.8547690" lon="-7.7759150">
        <ele>640.3</ele>
        <time>2020-10-19T11:09:16Z</time>
      </trkpt>
      <trkpt lat="42.8547700" lon="-7.7759170">
        <ele>640.3</ele>
        <time>2020-10-19T11:09:17Z</time>
      </trkpt>
      <trkpt lat="42.8547720" lon="-7.7759210">
        <ele>640.3</ele>
        <time>2020-10-19T11:09:18Z</time>
      </trkpt>
      <trkpt lat="42.8547750" lon="-7.7759260">
        <ele>640.3</ele>
        <time>2020-10-19T11:09:19Z</time>
      </trkpt>
      <trkpt lat="42.8547790" lon="-7.7759330">
        <ele>640.3</ele>
        <time>2020-10-19T11:09:20Z</time>
      </trkpt>
      <trkpt lat="42.8547840" lon="-7.7759410">
        <ele>640.3</ele>
        <time>2020-10-19T11:09:21Z</time>
      </trkpt>
      <trkpt lat="42.8547890" lon="-7.7759480">
        <ele>640.3</ele>
        <time>2020-10-19T11:09:22Z</time>
      </trkpt>
      <trkpt lat="42.8547930" lon="-7.7759560">
        <ele>640.2</ele>
        <time>2020-10-19T11:09:23Z</time>
      </trkpt>
      <trkpt lat="42.8547980" lon="-7.7759660">
        <ele>640.2</ele>
        <time>2020-10-19T11:09:24Z</time>
      </trkpt>
      <trkpt lat="42.8548010" lon="-7.7759780">
        <ele>640.2</ele>
        <time>2020-10-19T11:09:25Z</time>
      </trkpt>
      <trkpt lat="42.8548050" lon="-7.7759920">
        <ele>640.2</ele>
        <time>2020-10-19T11:09:26Z</time>
      </trkpt>
      <trkpt lat="42.8548110" lon="-7.7760040">
        <ele>640.2</ele>
        <time>2020-10-19T11:09:27Z</time>
      </trkpt>
      <trkpt lat="42.8548170" lon="-7.7760150">
        <ele>640.1</ele>
        <time>2020-10-19T11:09:28Z</time>
      </trkpt>
      <trkpt lat="42.8548240" lon="-7.7760270">
        <ele>640.1</ele>
        <time>2020-10-19T11:09:29Z</time>
      </trkpt>
      <trkpt lat="42.8548310" lon="-7.7760400">
        <ele>640.1</ele>
        <time>2020-10-19T11:09:30Z</time>
      </trkpt>
      <trkpt lat="42.8548390" lon="-7.7760540">
        <ele>640.1</ele>
        <time>2020-10-19T11:09:31Z</time>
      </trkpt>
      <trkpt lat="42.8548470" lon="-7.7760680">
        <ele>640.0</ele>
        <time>2020-10-19T11:09:32Z</time>
      </trkpt>
      <trkpt lat="42.8548570" lon="-7.7760820">
        <ele>640.0</ele>
        <time>2020-10-19T11:09:33Z</time>
      </trkpt>
      <trkpt lat="42.8548640" lon="-7.7760940">
        <ele>640.0</ele>
        <time>2020-10-19T11:09:34Z</time>
      </trkpt>
      <trkpt lat="42.8548700" lon="-7.7761070">
        <ele>640.0</ele>
        <time>2020-10-19T11:09:35Z</time>
      </trkpt>
      <trkpt lat="42.8548750" lon="-7.7761200">
        <ele>639.9</ele>
        <time>2020-10-19T11:09:36Z</time>
      </trkpt>
      <trkpt lat="42.8548790" lon="-7.7761340">
        <ele>639.9</ele>
        <time>2020-10-19T11:09:37Z</time>
      </trkpt>
      <trkpt lat="42.8548850" lon="-7.7761480">
        <ele>639.9</ele>
        <time>2020-10-19T11:09:38Z</time>
      </trkpt>
      <trkpt lat="42.8548920" lon="-7.7761620">
        <ele>639.9</ele>
        <time>2020-10-19T11:09:39Z</time>
      </trkpt>
      <trkpt lat="42.8548990" lon="-7.7761760">
        <ele>639.8</ele>
        <time>2020-10-19T11:09:40Z</time>
      </trkpt>
      <trkpt lat="42.8549050" lon="-7.7761890">
        <ele>639.8</ele>
        <time>2020-10-19T11:09:41Z</time>
      </trkpt>
      <trkpt lat="42.8549090" lon="-7.7762020">
        <ele>639.8</ele>
        <time>2020-10-19T11:09:42Z</time>
      </trkpt>
      <trkpt lat="42.8549150" lon="-7.7762120">
        <ele>639.8</ele>
        <time>2020-10-19T11:09:43Z</time>
      </trkpt>
      <trkpt lat="42.8549230" lon="-7.7762210">
        <ele>639.8</ele>
        <time>2020-10-19T11:09:44Z</time>
      </trkpt>
      <trkpt lat="42.8549290" lon="-7.7762320">
        <ele>639.7</ele>
        <time>2020-10-19T11:09:45Z</time>
      </trkpt>
      <trkpt lat="42.8549340" lon="-7.7762460">
        <ele>639.7</ele>
        <time>2020-10-19T11:09:46Z</time>
      </trkpt>
      <trkpt lat="42.8549370" lon="-7.7762640">
        <ele>639.7</ele>
        <time>2020-10-19T11:09:47Z</time>
      </trkpt>
      <trkpt lat="42.8549400" lon="-7.7762820">
        <ele>639.7</ele>
        <time>2020-10-19T11:09:48Z</time>
      </trkpt>
      <trkpt lat="42.8549430" lon="-7.7762980">
        <ele>639.6</ele>
        <time>2020-10-19T11:09:49Z</time>
      </trkpt>
      <trkpt lat="42.8549470" lon="-7.7763120">
        <ele>639.6</ele>
        <time>2020-10-19T11:09:50Z</time>
      </trkpt>
      <trkpt lat="42.8549520" lon="-7.7763260">
        <ele>639.6</ele>
        <time>2020-10-19T11:09:51Z</time>
      </trkpt>
      <trkpt lat="42.8549570" lon="-7.7763390">
        <ele>639.6</ele>
        <time>2020-10-19T11:09:52Z</time>
      </trkpt>
      <trkpt lat="42.8549620" lon="-7.7763540">
        <ele>639.6</ele>
        <time>2020-10-19T11:09:53Z</time>
      </trkpt>
      <trkpt lat="42.8549680" lon="-7.7763700">
        <ele>639.5</ele>
        <time>2020-10-19T11:09:54Z</time>
      </trkpt>
      <trkpt lat="42.8549740" lon="-7.7763860">
        <ele>639.5</ele>
        <time>2020-10-19T11:09:55Z</time>
      </trkpt>
      <trkpt lat="42.8549820" lon="-7.7764000">
        <ele>639.5</ele>
        <time>2020-10-19T11:09:56Z</time>
      </trkpt>
      <trkpt lat="42.8549900" lon="-7.7764140">
        <ele>639.5</ele>
        <time>2020-10-19T11:09:57Z</time>
      </trkpt>
      <trkpt lat="42.8549990" lon="-7.7764270">
        <ele>639.5</ele>
        <time>2020-10-19T11:09:58Z</time>
      </trkpt>
      <trkpt lat="42.8550050" lon="-7.7764410">
        <ele>639.4</ele>
        <time>2020-10-19T11:09:59Z</time>
      </trkpt>
      <trkpt lat="42.8550100" lon="-7.7764570">
        <ele>639.4</ele>
        <time>2020-10-19T11:10:00Z</time>
      </trkpt>
      <trkpt lat="42.8550140" lon="-7.7764720">
        <ele>639.4</ele>
        <time>2020-10-19T11:10:01Z</time>
      </trkpt>
      <trkpt lat="42.8550160" lon="-7.7764900">
        <ele>639.4</ele>
        <time>2020-10-19T11:10:02Z</time>
      </trkpt>
      <trkpt lat="42.8550180" lon="-7.7765080">
        <ele>639.3</ele>
        <time>2020-10-19T11:10:03Z</time>
      </trkpt>
      <trkpt lat="42.8550210" lon="-7.7765250">
        <ele>639.3</ele>
        <time>2020-10-19T11:10:04Z</time>
      </trkpt>
      <trkpt lat="42.8550250" lon="-7.7765420">
        <ele>639.3</ele>
        <time>2020-10-19T11:10:05Z</time>
      </trkpt>
      <trkpt lat="42.8550310" lon="-7.7765590">
        <ele>639.2</ele>
        <time>2020-10-19T11:10:06Z</time>
      </trkpt>
      <trkpt lat="42.8550360" lon="-7.7765760">
        <ele>639.2</ele>
        <time>2020-10-19T11:10:07Z</time>
      </trkpt>
      <trkpt lat="42.8550390" lon="-7.7765930">
        <ele>639.2</ele>
        <time>2020-10-19T11:10:08Z</time>
      </trkpt>
      <trkpt lat="42.8550410" lon="-7.7766110">
        <ele>639.1</ele>
        <time>2020-10-19T11:10:09Z</time>
      </trkpt>
      <trkpt lat="42.8550430" lon="-7.7766280">
        <ele>639.1</ele>
        <time>2020-10-19T11:10:10Z</time>
      </trkpt>
      <trkpt lat="42.8550450" lon="-7.7766460">
        <ele>639.1</ele>
        <time>2020-10-19T11:10:11Z</time>
      </trkpt>
      <trkpt lat="42.8550470" lon="-7.7766630">
        <ele>639.0</ele>
        <time>2020-10-19T11:10:12Z</time>
      </trkpt>
      <trkpt lat="42.8550490" lon="-7.7766810">
        <ele>639.0</ele>
        <time>2020-10-19T11:10:13Z</time>
      </trkpt>
      <trkpt lat="42.8550520" lon="-7.7766980">
        <ele>639.0</ele>
        <time>2020-10-19T11:10:14Z</time>
      </trkpt>
      <trkpt lat="42.8550580" lon="-7.7767140">
        <ele>638.9</ele>
        <time>2020-10-19T11:10:15Z</time>
      </trkpt>
      <trkpt lat="42.8550640" lon="-7.7767300">
        <ele>638.9</ele>
        <time>2020-10-19T11:10:16Z</time>
      </trkpt>
      <trkpt lat="42.8550700" lon="-7.7767460">
        <ele>638.8</ele>
        <time>2020-10-19T11:10:17Z</time>
      </trkpt>
      <trkpt lat="42.8550750" lon="-7.7767610">
        <ele>638.8</ele>
        <time>2020-10-19T11:10:18Z</time>
      </trkpt>
      <trkpt lat="42.8550810" lon="-7.7767750">
        <ele>638.7</ele>
        <time>2020-10-19T11:10:19Z</time>
      </trkpt>
      <trkpt lat="42.8550860" lon="-7.7767890">
        <ele>638.7</ele>
        <time>2020-10-19T11:10:20Z</time>
      </trkpt>
      <trkpt lat="42.8550910" lon="-7.7768040">
        <ele>638.7</ele>
        <time>2020-10-19T11:10:21Z</time>
      </trkpt>
      <trkpt lat="42.8550960" lon="-7.7768190">
        <ele>638.6</ele>
        <time>2020-10-19T11:10:22Z</time>
      </trkpt>
      <trkpt lat="42.8551010" lon="-7.7768350">
        <ele>638.6</ele>
        <time>2020-10-19T11:10:23Z</time>
      </trkpt>
      <trkpt lat="42.8551060" lon="-7.7768520">
        <ele>638.5</ele>
        <time>2020-10-19T11:10:24Z</time>
      </trkpt>
      <trkpt lat="42.8551140" lon="-7.7768670">
        <ele>638.5</ele>
        <time>2020-10-19T11:10:25Z</time>
      </trkpt>
      <trkpt lat="42.8551210" lon="-7.7768820">
        <ele>638.4</ele>
        <time>2020-10-19T11:10:26Z</time>
      </trkpt>
      <trkpt lat="42.8551290" lon="-7.7768960">
        <ele>638.3</ele>
        <time>2020-10-19T11:10:27Z</time>
      </trkpt>
      <trkpt lat="42.8551340" lon="-7.7769120">
        <ele>638.3</ele>
        <time>2020-10-19T11:10:28Z</time>
      </trkpt>
      <trkpt lat="42.8551380" lon="-7.7769290">
        <ele>638.2</ele>
        <time>2020-10-19T11:10:29Z</time>
      </trkpt>
      <trkpt lat="42.8551420" lon="-7.7769440">
        <ele>638.2</ele>
        <time>2020-10-19T11:10:30Z</time>
      </trkpt>
      <trkpt lat="42.8551460" lon="-7.7769590">
        <ele>638.1</ele>
        <time>2020-10-19T11:10:31Z</time>
      </trkpt>
      <trkpt lat="42.8551510" lon="-7.7769720">
        <ele>638.1</ele>
        <time>2020-10-19T11:10:32Z</time>
      </trkpt>
      <trkpt lat="42.8551560" lon="-7.7769870">
        <ele>638.0</ele>
        <time>2020-10-19T11:10:33Z</time>
      </trkpt>
      <trkpt lat="42.8551620" lon="-7.7770020">
        <ele>637.9</ele>
        <time>2020-10-19T11:10:34Z</time>
      </trkpt>
      <trkpt lat="42.8551660" lon="-7.7770170">
        <ele>637.9</ele>
        <time>2020-10-19T11:10:35Z</time>
      </trkpt>
      <trkpt lat="42.8551700" lon="-7.7770320">
        <ele>637.8</ele>
        <time>2020-10-19T11:10:36Z</time>
      </trkpt>
      <trkpt lat="42.8551740" lon="-7.7770480">
        <ele>637.8</ele>
        <time>2020-10-19T11:10:37Z</time>
      </trkpt>
      <trkpt lat="42.8551780" lon="-7.7770640">
        <ele>637.7</ele>
        <time>2020-10-19T11:10:38Z</time>
      </trkpt>
      <trkpt lat="42.8551830" lon="-7.7770800">
        <ele>637.6</ele>
        <time>2020-10-19T11:10:39Z</time>
      </trkpt>
      <trkpt lat="42.8551870" lon="-7.7770940">
        <ele>637.6</ele>
        <time>2020-10-19T11:10:40Z</time>
      </trkpt>
      <trkpt lat="42.8551920" lon="-7.7771070">
        <ele>637.5</ele>
        <time>2020-10-19T11:10:41Z</time>
      </trkpt>
      <trkpt lat="42.8551980" lon="-7.7771200">
        <ele>637.4</ele>
        <time>2020-10-19T11:10:42Z</time>
      </trkpt>
      <trkpt lat="42.8552060" lon="-7.7771320">
        <ele>637.4</ele>
        <time>2020-10-19T11:10:43Z</time>
      </trkpt>
      <trkpt lat="42.8552140" lon="-7.7771430">
        <ele>637.3</ele>
        <time>2020-10-19T11:10:44Z</time>
      </trkpt>
      <trkpt lat="42.8552210" lon="-7.7771550">
        <ele>637.2</ele>
        <time>2020-10-19T11:10:45Z</time>
      </trkpt>
      <trkpt lat="42.8552280" lon="-7.7771680">
        <ele>637.2</ele>
        <time>2020-10-19T11:10:46Z</time>
      </trkpt>
      <trkpt lat="42.8552350" lon="-7.7771820">
        <ele>637.1</ele>
        <time>2020-10-19T11:10:47Z</time>
      </trkpt>
      <trkpt lat="42.8552420" lon="-7.7771960">
        <ele>637.0</ele>
        <time>2020-10-19T11:10:48Z</time>
      </trkpt>
      <trkpt lat="42.8552480" lon="-7.7772100">
        <ele>637.0</ele>
        <time>2020-10-19T11:10:49Z</time>
      </trkpt>
      <trkpt lat="42.8552540" lon="-7.7772240">
        <ele>636.9</ele>
        <time>2020-10-19T11:10:50Z</time>
      </trkpt>
      <trkpt lat="42.8552600" lon="-7.7772370">
        <ele>636.8</ele>
        <time>2020-10-19T11:10:51Z</time>
      </trkpt>
      <trkpt lat="42.8552670" lon="-7.7772480">
        <ele>636.7</ele>
        <time>2020-10-19T11:10:52Z</time>
      </trkpt>
      <trkpt lat="42.8552740" lon="-7.7772600">
        <ele>636.7</ele>
        <time>2020-10-19T11:10:53Z</time>
      </trkpt>
      <trkpt lat="42.8552810" lon="-7.7772710">
        <ele>636.6</ele>
        <time>2020-10-19T11:10:54Z</time>
      </trkpt>
      <trkpt lat="42.8552880" lon="-7.7772830">
        <ele>636.5</ele>
        <time>2020-10-19T11:10:55Z</time>
      </trkpt>
      <trkpt lat="42.8552950" lon="-7.7772950">
        <ele>636.4</ele>
        <time>2020-10-19T11:10:56Z</time>
      </trkpt>
      <trkpt lat="42.8553020" lon="-7.7773090">
        <ele>636.4</ele>
        <time>2020-10-19T11:10:57Z</time>
      </trkpt>
      <trkpt lat="42.8553100" lon="-7.7773230">
        <ele>636.3</ele>
        <time>2020-10-19T11:10:58Z</time>
      </trkpt>
      <trkpt lat="42.8553180" lon="-7.7773380">
        <ele>636.2</ele>
        <time>2020-10-19T11:10:59Z</time>
      </trkpt>
      <trkpt lat="42.8553260" lon="-7.7773520">
        <ele>636.1</ele>
        <time>2020-10-19T11:11:00Z</time>
      </trkpt>
      <trkpt lat="42.8553340" lon="-7.7773650">
        <ele>636.0</ele>
        <time>2020-10-19T11:11:01Z</time>
      </trkpt>
      <trkpt lat="42.8553430" lon="-7.7773780">
        <ele>635.9</ele>
        <time>2020-10-19T11:11:02Z</time>
      </trkpt>
      <trkpt lat="42.8553510" lon="-7.7773920">
        <ele>635.8</ele>
        <time>2020-10-19T11:11:03Z</time>
      </trkpt>
      <trkpt lat="42.8553600" lon="-7.7774060">
        <ele>635.7</ele>
        <time>2020-10-19T11:11:04Z</time>
      </trkpt>
      <trkpt lat="42.8553690" lon="-7.7774180">
        <ele>635.6</ele>
        <time>2020-10-19T11:11:05Z</time>
      </trkpt>
      <trkpt lat="42.8553780" lon="-7.7774290">
        <ele>635.5</ele>
        <time>2020-10-19T11:11:06Z</time>
      </trkpt>
      <trkpt lat="42.8553880" lon="-7.7774400">
        <ele>635.4</ele>
        <time>2020-10-19T11:11:07Z</time>
      </trkpt>
      <trkpt lat="42.8553970" lon="-7.7774510">
        <ele>635.3</ele>
        <time>2020-10-19T11:11:08Z</time>
      </trkpt>
      <trkpt lat="42.8554070" lon="-7.7774630">
        <ele>635.2</ele>
        <time>2020-10-19T11:11:09Z</time>
      </trkpt>
      <trkpt lat="42.8554170" lon="-7.7774740">
        <ele>635.0</ele>
        <time>2020-10-19T11:11:10Z</time>
      </trkpt>
      <trkpt lat="42.8554270" lon="-7.7774860">
        <ele>634.9</ele>
        <time>2020-10-19T11:11:11Z</time>
      </trkpt>
      <trkpt lat="42.8554380" lon="-7.7774970">
        <ele>634.8</ele>
        <time>2020-10-19T11:11:12Z</time>
      </trkpt>
      <trkpt lat="42.8554490" lon="-7.7775060">
        <ele>634.7</ele>
        <time>2020-10-19T11:11:13Z</time>
      </trkpt>
      <trkpt lat="42.8554590" lon="-7.7775150">
        <ele>634.6</ele>
        <time>2020-10-19T11:11:14Z</time>
      </trkpt>
      <trkpt lat="42.8554690" lon="-7.7775230">
        <ele>634.5</ele>
        <time>2020-10-19T11:11:15Z</time>
      </trkpt>
      <trkpt lat="42.8554790" lon="-7.7775320">
        <ele>634.4</ele>
        <time>2020-10-19T11:11:16Z</time>
      </trkpt>
      <trkpt lat="42.8554890" lon="-7.7775400">
        <ele>634.2</ele>
        <time>2020-10-19T11:11:17Z</time>
      </trkpt>
      <trkpt lat="42.8554970" lon="-7.7775500">
        <ele>634.1</ele>
        <time>2020-10-19T11:11:18Z</time>
      </trkpt>
      <trkpt lat="42.8555040" lon="-7.7775580">
        <ele>634.1</ele>
        <time>2020-10-19T11:11:19Z</time>
      </trkpt>
      <trkpt lat="42.8555120" lon="-7.7775660">
        <ele>634.0</ele>
        <time>2020-10-19T11:11:20Z</time>
      </trkpt>
      <trkpt lat="42.8555180" lon="-7.7775730">
        <ele>633.9</ele>
        <time>2020-10-19T11:11:21Z</time>
      </trkpt>
      <trkpt lat="42.8555260" lon="-7.7775790">
        <ele>633.8</ele>
        <time>2020-10-19T11:11:22Z</time>
      </trkpt>
      <trkpt lat="42.8555340" lon="-7.7775850">
        <ele>633.7</ele>
        <time>2020-10-19T11:11:23Z</time>
      </trkpt>
      <trkpt lat="42.8555440" lon="-7.7775910">
        <ele>633.6</ele>
        <time>2020-10-19T11:11:24Z</time>
      </trkpt>
      <trkpt lat="42.8555540" lon="-7.7775980">
        <ele>633.5</ele>
        <time>2020-10-19T11:11:25Z</time>
      </trkpt>
      <trkpt lat="42.8555670" lon="-7.7776030">
        <ele>633.4</ele>
        <time>2020-10-19T11:11:26Z</time>
      </trkpt>
      <trkpt lat="42.8555810" lon="-7.7776080">
        <ele>633.3</ele>
        <time>2020-10-19T11:11:27Z</time>
      </trkpt>
      <trkpt lat="42.8555940" lon="-7.7776130">
        <ele>633.2</ele>
        <time>2020-10-19T11:11:28Z</time>
      </trkpt>
      <trkpt lat="42.8556050" lon="-7.7776170">
        <ele>633.1</ele>
        <time>2020-10-19T11:11:29Z</time>
      </trkpt>
      <trkpt lat="42.8556180" lon="-7.7776230">
        <ele>633.0</ele>
        <time>2020-10-19T11:11:30Z</time>
      </trkpt>
      <trkpt lat="42.8556320" lon="-7.7776290">
        <ele>632.8</ele>
        <time>2020-10-19T11:11:31Z</time>
      </trkpt>
      <trkpt lat="42.8556470" lon="-7.7776370">
        <ele>632.7</ele>
        <time>2020-10-19T11:11:32Z</time>
      </trkpt>
      <trkpt lat="42.8556600" lon="-7.7776450">
        <ele>632.6</ele>
        <time>2020-10-19T11:11:33Z</time>
      </trkpt>
      <trkpt lat="42.8556730" lon="-7.7776520">
        <ele>632.5</ele>
        <time>2020-10-19T11:11:34Z</time>
      </trkpt>
      <trkpt lat="42.8556840" lon="-7.7776590">
        <ele>632.4</ele>
        <time>2020-10-19T11:11:35Z</time>
      </trkpt>
      <trkpt lat="42.8556950" lon="-7.7776660">
        <ele>632.3</ele>
        <time>2020-10-19T11:11:36Z</time>
      </trkpt>
      <trkpt lat="42.8557050" lon="-7.7776720">
        <ele>632.3</ele>
        <time>2020-10-19T11:11:37Z</time>
      </trkpt>
      <trkpt lat="42.8557140" lon="-7.7776800">
        <ele>632.2</ele>
        <time>2020-10-19T11:11:38Z</time>
      </trkpt>
      <trkpt lat="42.8557190" lon="-7.7776900">
        <ele>632.1</ele>
        <time>2020-10-19T11:11:39Z</time>
      </trkpt>
      <trkpt lat="42.8557250" lon="-7.7777000">
        <ele>632.1</ele>
        <time>2020-10-19T11:11:40Z</time>
      </trkpt>
      <trkpt lat="42.8557310" lon="-7.7777100">
        <ele>632.0</ele>
        <time>2020-10-19T11:11:41Z</time>
      </trkpt>
      <trkpt lat="42.8557400" lon="-7.7777170">
        <ele>632.0</ele>
        <time>2020-10-19T11:11:42Z</time>
      </trkpt>
      <trkpt lat="42.8557490" lon="-7.7777220">
        <ele>631.9</ele>
        <time>2020-10-19T11:11:43Z</time>
      </trkpt>
      <trkpt lat="42.8557590" lon="-7.7777260">
        <ele>631.8</ele>
        <time>2020-10-19T11:11:44Z</time>
      </trkpt>
      <trkpt lat="42.8557680" lon="-7.7777310">
        <ele>631.8</ele>
        <time>2020-10-19T11:11:45Z</time>
      </trkpt>
      <trkpt lat="42.8557780" lon="-7.7777350">
        <ele>631.7</ele>
        <time>2020-10-19T11:11:46Z</time>
      </trkpt>
      <trkpt lat="42.8557890" lon="-7.7777390">
        <ele>631.7</ele>
        <time>2020-10-19T11:11:47Z</time>
      </trkpt>
      <trkpt lat="42.8558010" lon="-7.7777420">
        <ele>631.6</ele>
        <time>2020-10-19T11:11:48Z</time>
      </trkpt>
      <trkpt lat="42.8558150" lon="-7.7777440">
        <ele>631.5</ele>
        <time>2020-10-19T11:11:49Z</time>
      </trkpt>
      <trkpt lat="42.8558270" lon="-7.7777460">
        <ele>631.5</ele>
        <time>2020-10-19T11:11:50Z</time>
      </trkpt>
      <trkpt lat="42.8558390" lon="-7.7777460">
        <ele>631.4</ele>
        <time>2020-10-19T11:11:51Z</time>
      </trkpt>
      <trkpt lat="42.8558520" lon="-7.7777450">
        <ele>631.3</ele>
        <time>2020-10-19T11:11:52Z</time>
      </trkpt>
      <trkpt lat="42.8558670" lon="-7.7777440">
        <ele>631.3</ele>
        <time>2020-10-19T11:11:53Z</time>
      </trkpt>
      <trkpt lat="42.8558850" lon="-7.7777450">
        <ele>631.2</ele>
        <time>2020-10-19T11:11:54Z</time>
      </trkpt>
      <trkpt lat="42.8559010" lon="-7.7777480">
        <ele>631.1</ele>
        <time>2020-10-19T11:11:55Z</time>
      </trkpt>
      <trkpt lat="42.8559170" lon="-7.7777520">
        <ele>631.0</ele>
        <time>2020-10-19T11:11:56Z</time>
      </trkpt>
      <trkpt lat="42.8559320" lon="-7.7777580">
        <ele>631.0</ele>
        <time>2020-10-19T11:11:57Z</time>
      </trkpt>
      <trkpt lat="42.8559470" lon="-7.7777670">
        <ele>630.9</ele>
        <time>2020-10-19T11:11:58Z</time>
      </trkpt>
      <trkpt lat="42.8559630" lon="-7.7777770">
        <ele>630.8</ele>
        <time>2020-10-19T11:11:59Z</time>
      </trkpt>
      <trkpt lat="42.8559780" lon="-7.7777860">
        <ele>630.8</ele>
        <time>2020-10-19T11:12:00Z</time>
      </trkpt>
      <trkpt lat="42.8559930" lon="-7.7777920">
        <ele>630.7</ele>
        <time>2020-10-19T11:12:01Z</time>
      </trkpt>
      <trkpt lat="42.8560060" lon="-7.7777940">
        <ele>630.7</ele>
        <time>2020-10-19T11:12:02Z</time>
      </trkpt>
      <trkpt lat="42.8560190" lon="-7.7777960">
        <ele>630.7</ele>
        <time>2020-10-19T11:12:03Z</time>
      </trkpt>
      <trkpt lat="42.8560320" lon="-7.7777990">
        <ele>630.6</ele>
        <time>2020-10-19T11:12:04Z</time>
      </trkpt>
      <trkpt lat="42.8560440" lon="-7.7778030">
        <ele>630.6</ele>
        <time>2020-10-19T11:12:05Z</time>
      </trkpt>
      <trkpt lat="42.8560560" lon="-7.7778070">
        <ele>630.6</ele>
        <time>2020-10-19T11:12:06Z</time>
      </trkpt>
      <trkpt lat="42.8560670" lon="-7.7778120">
        <ele>630.5</ele>
        <time>2020-10-19T11:12:07Z</time>
      </trkpt>
      <trkpt lat="42.8560790" lon="-7.7778160">
        <ele>630.5</ele>
        <time>2020-10-19T11:12:08Z</time>
      </trkpt>
      <trkpt lat="42.8560900" lon="-7.7778200">
        <ele>630.5</ele>
        <time>2020-10-19T11:12:09Z</time>
      </trkpt>
      <trkpt lat="42.8561020" lon="-7.7778240">
        <ele>630.5</ele>
        <time>2020-10-19T11:12:10Z</time>
      </trkpt>
      <trkpt lat="42.8561140" lon="-7.7778270">
        <ele>630.4</ele>
        <time>2020-10-19T11:12:11Z</time>
      </trkpt>
      <trkpt lat="42.8561270" lon="-7.7778310">
        <ele>630.4</ele>
        <time>2020-10-19T11:12:12Z</time>
      </trkpt>
      <trkpt lat="42.8561400" lon="-7.7778350">
        <ele>630.4</ele>
        <time>2020-10-19T11:12:13Z</time>
      </trkpt>
      <trkpt lat="42.8561530" lon="-7.7778380">
        <ele>630.4</ele>
        <time>2020-10-19T11:12:14Z</time>
      </trkpt>
      <trkpt lat="42.8561650" lon="-7.7778420">
        <ele>630.4</ele>
        <time>2020-10-19T11:12:15Z</time>
      </trkpt>
      <trkpt lat="42.8561770" lon="-7.7778460">
        <ele>630.3</ele>
        <time>2020-10-19T11:12:16Z</time>
      </trkpt>
      <trkpt lat="42.8561880" lon="-7.7778500">
        <ele>630.3</ele>
        <time>2020-10-19T11:12:17Z</time>
      </trkpt>
      <trkpt lat="42.8562000" lon="-7.7778540">
        <ele>630.3</ele>
        <time>2020-10-19T11:12:18Z</time>
      </trkpt>
      <trkpt lat="42.8562120" lon="-7.7778580">
        <ele>630.3</ele>
        <time>2020-10-19T11:12:19Z</time>
      </trkpt>
      <trkpt lat="42.8562240" lon="-7.7778630">
        <ele>630.3</ele>
        <time>2020-10-19T11:12:20Z</time>
      </trkpt>
      <trkpt lat="42.8562370" lon="-7.7778690">
        <ele>630.2</ele>
        <time>2020-10-19T11:12:21Z</time>
      </trkpt>
      <trkpt lat="42.8562490" lon="-7.7778760">
        <ele>630.2</ele>
        <time>2020-10-19T11:12:22Z</time>
      </trkpt>
      <trkpt lat="42.8562610" lon="-7.7778820">
        <ele>630.2</ele>
        <time>2020-10-19T11:12:23Z</time>
      </trkpt>
      <trkpt lat="42.8562720" lon="-7.7778890">
        <ele>630.2</ele>
        <time>2020-10-19T11:12:24Z</time>
      </trkpt>
      <trkpt lat="42.8562830" lon="-7.7778960">
        <ele>630.2</ele>
        <time>2020-10-19T11:12:25Z</time>
      </trkpt>
      <trkpt lat="42.8562940" lon="-7.7779030">
        <ele>630.2</ele>
        <time>2020-10-19T11:12:26Z</time>
      </trkpt>
      <trkpt lat="42.8563040" lon="-7.7779090">
        <ele>630.2</ele>
        <time>2020-10-19T11:12:27Z</time>
      </trkpt>
      <trkpt lat="42.8563150" lon="-7.7779160">
        <ele>630.1</ele>
        <time>2020-10-19T11:12:28Z</time>
      </trkpt>
      <trkpt lat="42.8563270" lon="-7.7779240">
        <ele>630.1</ele>
        <time>2020-10-19T11:12:29Z</time>
      </trkpt>
      <trkpt lat="42.8563380" lon="-7.7779310">
        <ele>630.1</ele>
        <time>2020-10-19T11:12:30Z</time>
      </trkpt>
      <trkpt lat="42.8563490" lon="-7.7779380">
        <ele>630.1</ele>
        <time>2020-10-19T11:12:31Z</time>
      </trkpt>
      <trkpt lat="42.8563590" lon="-7.7779450">
        <ele>630.1</ele>
        <time>2020-10-19T11:12:32Z</time>
      </trkpt>
      <trkpt lat="42.8563690" lon="-7.7779520">
        <ele>630.1</ele>
        <time>2020-10-19T11:12:33Z</time>
      </trkpt>
      <trkpt lat="42.8563780" lon="-7.7779600">
        <ele>630.1</ele>
        <time>2020-10-19T11:12:34Z</time>
      </trkpt>
      <trkpt lat="42.8563880" lon="-7.7779700">
        <ele>630.1</ele>
        <time>2020-10-19T11:12:35Z</time>
      </trkpt>
      <trkpt lat="42.8563980" lon="-7.7779800">
        <ele>630.1</ele>
        <time>2020-10-19T11:12:36Z</time>
      </trkpt>
      <trkpt lat="42.8564080" lon="-7.7779910">
        <ele>630.1</ele>
        <time>2020-10-19T11:12:37Z</time>
      </trkpt>
      <trkpt lat="42.8564190" lon="-7.7779990">
        <ele>630.0</ele>
        <time>2020-10-19T11:12:38Z</time>
      </trkpt>
      <trkpt lat="42.8564300" lon="-7.7780080">
        <ele>630.0</ele>
        <time>2020-10-19T11:12:39Z</time>
      </trkpt>
      <trkpt lat="42.8564400" lon="-7.7780160">
        <ele>630.0</ele>
        <time>2020-10-19T11:12:40Z</time>
      </trkpt>
      <trkpt lat="42.8564510" lon="-7.7780240">
        <ele>630.0</ele>
        <time>2020-10-19T11:12:41Z</time>
      </trkpt>
      <trkpt lat="42.8564620" lon="-7.7780330">
        <ele>630.0</ele>
        <time>2020-10-19T11:12:42Z</time>
      </trkpt>
      <trkpt lat="42.8564730" lon="-7.7780420">
        <ele>630.0</ele>
        <time>2020-10-19T11:12:43Z</time>
      </trkpt>
      <trkpt lat="42.8564830" lon="-7.7780490">
        <ele>630.0</ele>
        <time>2020-10-19T11:12:44Z</time>
      </trkpt>
      <trkpt lat="42.8564930" lon="-7.7780570">
        <ele>630.0</ele>
        <time>2020-10-19T11:12:45Z</time>
      </trkpt>
      <trkpt lat="42.8565020" lon="-7.7780650">
        <ele>630.0</ele>
        <time>2020-10-19T11:12:46Z</time>
      </trkpt>
      <trkpt lat="42.8565130" lon="-7.7780730">
        <ele>630.0</ele>
        <time>2020-10-19T11:12:47Z</time>
      </trkpt>
      <trkpt lat="42.8565230" lon="-7.7780810">
        <ele>630.0</ele>
        <time>2020-10-19T11:12:48Z</time>
      </trkpt>
      <trkpt lat="42.8565340" lon="-7.7780910">
        <ele>629.9</ele>
        <time>2020-10-19T11:12:49Z</time>
      </trkpt>
      <trkpt lat="42.8565450" lon="-7.7781010">
        <ele>629.9</ele>
        <time>2020-10-19T11:12:50Z</time>
      </trkpt>
      <trkpt lat="42.8565560" lon="-7.7781100">
        <ele>629.9</ele>
        <time>2020-10-19T11:12:51Z</time>
      </trkpt>
      <trkpt lat="42.8565660" lon="-7.7781190">
        <ele>629.9</ele>
        <time>2020-10-19T11:12:52Z</time>
      </trkpt>
      <trkpt lat="42.8565780" lon="-7.7781290">
        <ele>629.9</ele>
        <time>2020-10-19T11:12:53Z</time>
      </trkpt>
      <trkpt lat="42.8565890" lon="-7.7781380">
        <ele>629.9</ele>
        <time>2020-10-19T11:12:54Z</time>
      </trkpt>
      <trkpt lat="42.8565990" lon="-7.7781470">
        <ele>629.9</ele>
        <time>2020-10-19T11:12:55Z</time>
      </trkpt>
      <trkpt lat="42.8566090" lon="-7.7781530">
        <ele>629.9</ele>
        <time>2020-10-19T11:12:56Z</time>
      </trkpt>
      <trkpt lat="42.8566180" lon="-7.7781590">
        <ele>629.9</ele>
        <time>2020-10-19T11:12:57Z</time>
      </trkpt>
      <trkpt lat="42.8566280" lon="-7.7781660">
        <ele>629.9</ele>
        <time>2020-10-19T11:12:58Z</time>
      </trkpt>
      <trkpt lat="42.8566390" lon="-7.7781750">
        <ele>629.9</ele>
        <time>2020-10-19T11:12:59Z</time>
      </trkpt>
      <trkpt lat="42.8566500" lon="-7.7781840">
        <ele>629.9</ele>
        <time>2020-10-19T11:13:00Z</time>
      </trkpt>
      <trkpt lat="42.8566600" lon="-7.7781940">
        <ele>629.9</ele>
        <time>2020-10-19T11:13:01Z</time>
      </trkpt>
      <trkpt lat="42.8566700" lon="-7.7782040">
        <ele>629.9</ele>
        <time>2020-10-19T11:13:02Z</time>
      </trkpt>
      <trkpt lat="42.8566810" lon="-7.7782120">
        <ele>629.9</ele>
        <time>2020-10-19T11:13:03Z</time>
      </trkpt>
      <trkpt lat="42.8566910" lon="-7.7782210">
        <ele>629.9</ele>
        <time>2020-10-19T11:13:04Z</time>
      </trkpt>
      <trkpt lat="42.8567020" lon="-7.7782300">
        <ele>629.9</ele>
        <time>2020-10-19T11:13:05Z</time>
      </trkpt>
      <trkpt lat="42.8567120" lon="-7.7782390">
        <ele>629.9</ele>
        <time>2020-10-19T11:13:06Z</time>
      </trkpt>
      <trkpt lat="42.8567230" lon="-7.7782480">
        <ele>629.9</ele>
        <time>2020-10-19T11:13:07Z</time>
      </trkpt>
      <trkpt lat="42.8567320" lon="-7.7782560">
        <ele>629.9</ele>
        <time>2020-10-19T11:13:08Z</time>
      </trkpt>
      <trkpt lat="42.8567420" lon="-7.7782630">
        <ele>629.9</ele>
        <time>2020-10-19T11:13:09Z</time>
      </trkpt>
      <trkpt lat="42.8567520" lon="-7.7782690">
        <ele>629.9</ele>
        <time>2020-10-19T11:13:10Z</time>
      </trkpt>
      <trkpt lat="42.8567630" lon="-7.7782760">
        <ele>629.9</ele>
        <time>2020-10-19T11:13:11Z</time>
      </trkpt>
      <trkpt lat="42.8567730" lon="-7.7782840">
        <ele>629.9</ele>
        <time>2020-10-19T11:13:12Z</time>
      </trkpt>
      <trkpt lat="42.8567820" lon="-7.7782920">
        <ele>629.9</ele>
        <time>2020-10-19T11:13:13Z</time>
      </trkpt>
      <trkpt lat="42.8567910" lon="-7.7783010">
        <ele>629.9</ele>
        <time>2020-10-19T11:13:14Z</time>
      </trkpt>
      <trkpt lat="42.8568000" lon="-7.7783100">
        <ele>629.9</ele>
        <time>2020-10-19T11:13:15Z</time>
      </trkpt>
      <trkpt lat="42.8568100" lon="-7.7783190">
        <ele>629.9</ele>
        <time>2020-10-19T11:13:16Z</time>
      </trkpt>
      <trkpt lat="42.8568200" lon="-7.7783280">
        <ele>629.9</ele>
        <time>2020-10-19T11:13:17Z</time>
      </trkpt>
      <trkpt lat="42.8568300" lon="-7.7783370">
        <ele>629.9</ele>
        <time>2020-10-19T11:13:18Z</time>
      </trkpt>
      <trkpt lat="42.8568400" lon="-7.7783450">
        <ele>629.9</ele>
        <time>2020-10-19T11:13:19Z</time>
      </trkpt>
      <trkpt lat="42.8568510" lon="-7.7783530">
        <ele>629.9</ele>
        <time>2020-10-19T11:13:20Z</time>
      </trkpt>
      <trkpt lat="42.8568620" lon="-7.7783610">
        <ele>629.9</ele>
        <time>2020-10-19T11:13:21Z</time>
      </trkpt>
      <trkpt lat="42.8568720" lon="-7.7783700">
        <ele>629.9</ele>
        <time>2020-10-19T11:13:22Z</time>
      </trkpt>
      <trkpt lat="42.8568810" lon="-7.7783770">
        <ele>629.9</ele>
        <time>2020-10-19T11:13:23Z</time>
      </trkpt>
      <trkpt lat="42.8568910" lon="-7.7783840">
        <ele>629.9</ele>
        <time>2020-10-19T11:13:24Z</time>
      </trkpt>
      <trkpt lat="42.8569020" lon="-7.7783910">
        <ele>629.9</ele>
        <time>2020-10-19T11:13:25Z</time>
      </trkpt>
      <trkpt lat="42.8569130" lon="-7.7783970">
        <ele>629.9</ele>
        <time>2020-10-19T11:13:26Z</time>
      </trkpt>
      <trkpt lat="42.8569240" lon="-7.7784050">
        <ele>629.9</ele>
        <time>2020-10-19T11:13:27Z</time>
      </trkpt>
      <trkpt lat="42.8569340" lon="-7.7784120">
        <ele>629.9</ele>
        <time>2020-10-19T11:13:28Z</time>
      </trkpt>
      <trkpt lat="42.8569430" lon="-7.7784190">
        <ele>629.9</ele>
        <time>2020-10-19T11:13:29Z</time>
      </trkpt>
      <trkpt lat="42.8569520" lon="-7.7784270">
        <ele>629.9</ele>
        <time>2020-10-19T11:13:30Z</time>
      </trkpt>
      <trkpt lat="42.8569610" lon="-7.7784360">
        <ele>629.9</ele>
        <time>2020-10-19T11:13:31Z</time>
      </trkpt>
      <trkpt lat="42.8569700" lon="-7.7784440">
        <ele>629.9</ele>
        <time>2020-10-19T11:13:32Z</time>
      </trkpt>
      <trkpt lat="42.8569800" lon="-7.7784510">
        <ele>629.9</ele>
        <time>2020-10-19T11:13:33Z</time>
      </trkpt>
      <trkpt lat="42.8569900" lon="-7.7784580">
        <ele>629.9</ele>
        <time>2020-10-19T11:13:34Z</time>
      </trkpt>
      <trkpt lat="42.8570000" lon="-7.7784640">
        <ele>629.9</ele>
        <time>2020-10-19T11:13:35Z</time>
      </trkpt>
      <trkpt lat="42.8570090" lon="-7.7784710">
        <ele>629.9</ele>
        <time>2020-10-19T11:13:36Z</time>
      </trkpt>
      <trkpt lat="42.8570180" lon="-7.7784780">
        <ele>629.9</ele>
        <time>2020-10-19T11:13:37Z</time>
      </trkpt>
      <trkpt lat="42.8570260" lon="-7.7784840">
        <ele>629.9</ele>
        <time>2020-10-19T11:13:38Z</time>
      </trkpt>
      <trkpt lat="42.8570330" lon="-7.7784910">
        <ele>629.9</ele>
        <time>2020-10-19T11:13:39Z</time>
      </trkpt>
      <trkpt lat="42.8570400" lon="-7.7784990">
        <ele>629.9</ele>
        <time>2020-10-19T11:13:40Z</time>
      </trkpt>
      <trkpt lat="42.8570490" lon="-7.7785070">
        <ele>629.9</ele>
        <time>2020-10-19T11:13:41Z</time>
      </trkpt>
      <trkpt lat="42.8570590" lon="-7.7785150">
        <ele>629.9</ele>
        <time>2020-10-19T11:13:42Z</time>
      </trkpt>
      <trkpt lat="42.8570670" lon="-7.7785220">
        <ele>629.8</ele>
        <time>2020-10-19T11:13:43Z</time>
      </trkpt>
      <trkpt lat="42.8570750" lon="-7.7785290">
        <ele>629.8</ele>
        <time>2020-10-19T11:13:44Z</time>
      </trkpt>
      <trkpt lat="42.8570830" lon="-7.7785360">
        <ele>629.8</ele>
        <time>2020-10-19T11:13:45Z</time>
      </trkpt>
      <trkpt lat="42.8570940" lon="-7.7785430">
        <ele>629.8</ele>
        <time>2020-10-19T11:13:46Z</time>
      </trkpt>
      <trkpt lat="42.8571050" lon="-7.7785490">
        <ele>629.8</ele>
        <time>2020-10-19T11:13:47Z</time>
      </trkpt>
      <trkpt lat="42.8571160" lon="-7.7785560">
        <ele>629.7</ele>
        <time>2020-10-19T11:13:48Z</time>
      </trkpt>
      <trkpt lat="42.8571260" lon="-7.7785620">
        <ele>629.7</ele>
        <time>2020-10-19T11:13:49Z</time>
      </trkpt>
      <trkpt lat="42.8571360" lon="-7.7785690">
        <ele>629.7</ele>
        <time>2020-10-19T11:13:50Z</time>
      </trkpt>
      <trkpt lat="42.8571490" lon="-7.7785750">
        <ele>629.7</ele>
        <time>2020-10-19T11:13:51Z</time>
      </trkpt>
      <trkpt lat="42.8571610" lon="-7.7785800">
        <ele>629.7</ele>
        <time>2020-10-19T11:13:52Z</time>
      </trkpt>
      <trkpt lat="42.8571730" lon="-7.7785850">
        <ele>629.6</ele>
        <time>2020-10-19T11:13:53Z</time>
      </trkpt>
      <trkpt lat="42.8571840" lon="-7.7785910">
        <ele>629.6</ele>
        <time>2020-10-19T11:13:54Z</time>
      </trkpt>
      <trkpt lat="42.8571940" lon="-7.7785970">
        <ele>629.6</ele>
        <time>2020-10-19T11:13:55Z</time>
      </trkpt>
      <trkpt lat="42.8572030" lon="-7.7786030">
        <ele>629.6</ele>
        <time>2020-10-19T11:13:56Z</time>
      </trkpt>
      <trkpt lat="42.8572120" lon="-7.7786080">
        <ele>629.5</ele>
        <time>2020-10-19T11:13:57Z</time>
      </trkpt>
      <trkpt lat="42.8572210" lon="-7.7786140">
        <ele>629.5</ele>
        <time>2020-10-19T11:13:58Z</time>
      </trkpt>
      <trkpt lat="42.8572300" lon="-7.7786200">
        <ele>629.5</ele>
        <time>2020-10-19T11:13:59Z</time>
      </trkpt>
      <trkpt lat="42.8572390" lon="-7.7786280">
        <ele>629.5</ele>
        <time>2020-10-19T11:14:00Z</time>
      </trkpt>
      <trkpt lat="42.8572480" lon="-7.7786370">
        <ele>629.5</ele>
        <time>2020-10-19T11:14:01Z</time>
      </trkpt>
      <trkpt lat="42.8572580" lon="-7.7786480">
        <ele>629.4</ele>
        <time>2020-10-19T11:14:02Z</time>
      </trkpt>
      <trkpt lat="42.8572670" lon="-7.7786580">
        <ele>629.4</ele>
        <time>2020-10-19T11:14:03Z</time>
      </trkpt>
      <trkpt lat="42.8572760" lon="-7.7786680">
        <ele>629.4</ele>
        <time>2020-10-19T11:14:04Z</time>
      </trkpt>
      <trkpt lat="42.8572850" lon="-7.7786780">
        <ele>629.3</ele>
        <time>2020-10-19T11:14:05Z</time>
      </trkpt>
      <trkpt lat="42.8572950" lon="-7.7786890">
        <ele>629.3</ele>
        <time>2020-10-19T11:14:06Z</time>
      </trkpt>
      <trkpt lat="42.8573050" lon="-7.7787000">
        <ele>629.3</ele>
        <time>2020-10-19T11:14:07Z</time>
      </trkpt>
      <trkpt lat="42.8573130" lon="-7.7787100">
        <ele>629.3</ele>
        <time>2020-10-19T11:14:08Z</time>
      </trkpt>
      <trkpt lat="42.8573200" lon="-7.7787200">
        <ele>629.2</ele>
        <time>2020-10-19T11:14:09Z</time>
      </trkpt>
      <trkpt lat="42.8573270" lon="-7.7787310">
        <ele>629.2</ele>
        <time>2020-10-19T11:14:10Z</time>
      </trkpt>
      <trkpt lat="42.8573330" lon="-7.7787410">
        <ele>629.2</ele>
        <time>2020-10-19T11:14:11Z</time>
      </trkpt>
      <trkpt lat="42.8573380" lon="-7.7787510">
        <ele>629.1</ele>
        <time>2020-10-19T11:14:12Z</time>
      </trkpt>
      <trkpt lat="42.8573440" lon="-7.7787610">
        <ele>629.1</ele>
        <time>2020-10-19T11:14:13Z</time>
      </trkpt>
      <trkpt lat="42.8573480" lon="-7.7787670">
        <ele>629.1</ele>
        <time>2020-10-19T11:14:14Z</time>
      </trkpt>
      <trkpt lat="42.8573480" lon="-7.7787730">
        <ele>629.1</ele>
        <time>2020-10-19T11:14:15Z</time>
      </trkpt>
      <trkpt lat="42.8573460" lon="-7.7787770">
        <ele>629.1</ele>
        <time>2020-10-19T11:14:16Z</time>
      </trkpt>
      <trkpt lat="42.8573440" lon="-7.7787830">
        <ele>629.1</ele>
        <time>2020-10-19T11:14:17Z</time>
      </trkpt>
      <trkpt lat="42.8573460" lon="-7.7787870">
        <ele>629.1</ele>
        <time>2020-10-19T11:14:18Z</time>
      </trkpt>
      <trkpt lat="42.8573470" lon="-7.7787900">
        <ele>629.0</ele>
        <time>2020-10-19T11:14:19Z</time>
      </trkpt>
      <trkpt lat="42.8573490" lon="-7.7787920">
        <ele>629.0</ele>
        <time>2020-10-19T11:14:20Z</time>
      </trkpt>
      <trkpt lat="42.8573510" lon="-7.7787940">
        <ele>629.0</ele>
        <time>2020-10-19T11:14:21Z</time>
      </trkpt>
      <trkpt lat="42.8573520" lon="-7.7787970">
        <ele>629.0</ele>
        <time>2020-10-19T11:14:22Z</time>
      </trkpt>
      <trkpt lat="42.8573540" lon="-7.7787980">
        <ele>629.0</ele>
        <time>2020-10-19T11:14:23Z</time>
      </trkpt>
      <trkpt lat="42.8573570" lon="-7.7788040">
        <ele>629.0</ele>
        <time>2020-10-19T11:14:24Z</time>
      </trkpt>
      <trkpt lat="42.8573650" lon="-7.7788140">
        <ele>629.0</ele>
        <time>2020-10-19T11:14:25Z</time>
      </trkpt>
      <trkpt lat="42.8573750" lon="-7.7788270">
        <ele>628.9</ele>
        <time>2020-10-19T11:14:26Z</time>
      </trkpt>
      <trkpt lat="42.8573850" lon="-7.7788370">
        <ele>628.9</ele>
        <time>2020-10-19T11:14:27Z</time>
      </trkpt>
      <trkpt lat="42.8573940" lon="-7.7788450">
        <ele>628.9</ele>
        <time>2020-10-19T11:14:28Z</time>
      </trkpt>
      <trkpt lat="42.8574030" lon="-7.7788530">
        <ele>628.8</ele>
        <time>2020-10-19T11:14:29Z</time>
      </trkpt>
      <trkpt lat="42.8574130" lon="-7.7788630">
        <ele>628.8</ele>
        <time>2020-10-19T11:14:30Z</time>
      </trkpt>
      <trkpt lat="42.8574230" lon="-7.7788720">
        <ele>628.7</ele>
        <time>2020-10-19T11:14:31Z</time>
      </trkpt>
      <trkpt lat="42.8574340" lon="-7.7788810">
        <ele>628.7</ele>
        <time>2020-10-19T11:14:32Z</time>
      </trkpt>
      <trkpt lat="42.8574440" lon="-7.7788900">
        <ele>628.7</ele>
        <time>2020-10-19T11:14:33Z</time>
      </trkpt>
      <trkpt lat="42.8574540" lon="-7.7788990">
        <ele>628.6</ele>
        <time>2020-10-19T11:14:34Z</time>
      </trkpt>
      <trkpt lat="42.8574640" lon="-7.7789080">
        <ele>628.6</ele>
        <time>2020-10-19T11:14:35Z</time>
      </trkpt>
      <trkpt lat="42.8574740" lon="-7.7789190">
        <ele>628.5</ele>
        <time>2020-10-19T11:14:36Z</time>
      </trkpt>
      <trkpt lat="42.8574840" lon="-7.7789310">
        <ele>628.5</ele>
        <time>2020-10-19T11:14:37Z</time>
      </trkpt>
      <trkpt lat="42.8574940" lon="-7.7789430">
        <ele>628.5</ele>
        <time>2020-10-19T11:14:38Z</time>
      </trkpt>
      <trkpt lat="42.8575020" lon="-7.7789550">
        <ele>628.4</ele>
        <time>2020-10-19T11:14:39Z</time>
      </trkpt>
      <trkpt lat="42.8575120" lon="-7.7789680">
        <ele>628.4</ele>
        <time>2020-10-19T11:14:40Z</time>
      </trkpt>
      <trkpt lat="42.8575230" lon="-7.7789810">
        <ele>628.3</ele>
        <time>2020-10-19T11:14:41Z</time>
      </trkpt>
      <trkpt lat="42.8575370" lon="-7.7789920">
        <ele>628.3</ele>
        <time>2020-10-19T11:14:42Z</time>
      </trkpt>
      <trkpt lat="42.8575480" lon="-7.7790050">
        <ele>628.3</ele>
        <time>2020-10-19T11:14:43Z</time>
      </trkpt>
      <trkpt lat="42.8575580" lon="-7.7790150">
        <ele>628.2</ele>
        <time>2020-10-19T11:14:44Z</time>
      </trkpt>
      <trkpt lat="42.8575670" lon="-7.7790250">
        <ele>628.2</ele>
        <time>2020-10-19T11:14:45Z</time>
      </trkpt>
      <trkpt lat="42.8575760" lon="-7.7790340">
        <ele>628.2</ele>
        <time>2020-10-19T11:14:46Z</time>
      </trkpt>
      <trkpt lat="42.8575840" lon="-7.7790450">
        <ele>628.1</ele>
        <time>2020-10-19T11:14:47Z</time>
      </trkpt>
      <trkpt lat="42.8575930" lon="-7.7790530">
        <ele>628.1</ele>
        <time>2020-10-19T11:14:48Z</time>
      </trkpt>
      <trkpt lat="42.8576020" lon="-7.7790600">
        <ele>628.1</ele>
        <time>2020-10-19T11:14:49Z</time>
      </trkpt>
      <trkpt lat="42.8576130" lon="-7.7790660">
        <ele>628.1</ele>
        <time>2020-10-19T11:14:50Z</time>
      </trkpt>
      <trkpt lat="42.8576220" lon="-7.7790720">
        <ele>628.0</ele>
        <time>2020-10-19T11:14:51Z</time>
      </trkpt>
      <trkpt lat="42.8576320" lon="-7.7790790">
        <ele>628.0</ele>
        <time>2020-10-19T11:14:52Z</time>
      </trkpt>
      <trkpt lat="42.8576430" lon="-7.7790830">
        <ele>628.0</ele>
        <time>2020-10-19T11:14:53Z</time>
      </trkpt>
      <trkpt lat="42.8576550" lon="-7.7790880">
        <ele>627.9</ele>
        <time>2020-10-19T11:14:54Z</time>
      </trkpt>
      <trkpt lat="42.8576680" lon="-7.7790900">
        <ele>627.9</ele>
        <time>2020-10-19T11:14:55Z</time>
      </trkpt>
      <trkpt lat="42.8576800" lon="-7.7790930">
        <ele>627.9</ele>
        <time>2020-10-19T11:14:56Z</time>
      </trkpt>
      <trkpt lat="42.8576920" lon="-7.7790950">
        <ele>627.8</ele>
        <time>2020-10-19T11:14:57Z</time>
      </trkpt>
      <trkpt lat="42.8577040" lon="-7.7790980">
        <ele>627.8</ele>
        <time>2020-10-19T11:14:58Z</time>
      </trkpt>
      <trkpt lat="42.8577150" lon="-7.7791000">
        <ele>627.8</ele>
        <time>2020-10-19T11:14:59Z</time>
      </trkpt>
      <trkpt lat="42.8577270" lon="-7.7791030">
        <ele>627.8</ele>
        <time>2020-10-19T11:15:00Z</time>
      </trkpt>
      <trkpt lat="42.8577370" lon="-7.7791070">
        <ele>627.7</ele>
        <time>2020-10-19T11:15:01Z</time>
      </trkpt>
      <trkpt lat="42.8577470" lon="-7.7791130">
        <ele>627.7</ele>
        <time>2020-10-19T11:15:02Z</time>
      </trkpt>
      <trkpt lat="42.8577570" lon="-7.7791180">
        <ele>627.7</ele>
        <time>2020-10-19T11:15:03Z</time>
      </trkpt>
      <trkpt lat="42.8577680" lon="-7.7791240">
        <ele>627.7</ele>
        <time>2020-10-19T11:15:04Z</time>
      </trkpt>
      <trkpt lat="42.8577780" lon="-7.7791290">
        <ele>627.7</ele>
        <time>2020-10-19T11:15:05Z</time>
      </trkpt>
      <trkpt lat="42.8577880" lon="-7.7791350">
        <ele>627.6</ele>
        <time>2020-10-19T11:15:06Z</time>
      </trkpt>
      <trkpt lat="42.8578000" lon="-7.7791390">
        <ele>627.6</ele>
        <time>2020-10-19T11:15:07Z</time>
      </trkpt>
      <trkpt lat="42.8578130" lon="-7.7791430">
        <ele>627.6</ele>
        <time>2020-10-19T11:15:08Z</time>
      </trkpt>
      <trkpt lat="42.8578260" lon="-7.7791470">
        <ele>627.6</ele>
        <time>2020-10-19T11:15:09Z</time>
      </trkpt>
      <trkpt lat="42.8578370" lon="-7.7791510">
        <ele>627.5</ele>
        <time>2020-10-19T11:15:10Z</time>
      </trkpt>
      <trkpt lat="42.8578490" lon="-7.7791550">
        <ele>627.5</ele>
        <time>2020-10-19T11:15:11Z</time>
      </trkpt>
      <trkpt lat="42.8578610" lon="-7.7791600">
        <ele>627.5</ele>
        <time>2020-10-19T11:15:12Z</time>
      </trkpt>
      <trkpt lat="42.8578750" lon="-7.7791660">
        <ele>627.5</ele>
        <time>2020-10-19T11:15:13Z</time>
      </trkpt>
      <trkpt lat="42.8578870" lon="-7.7791710">
        <ele>627.4</ele>
        <time>2020-10-19T11:15:14Z</time>
      </trkpt>
      <trkpt lat="42.8579010" lon="-7.7791760">
        <ele>627.4</ele>
        <time>2020-10-19T11:15:15Z</time>
      </trkpt>
      <trkpt lat="42.8579140" lon="-7.7791800">
        <ele>627.4</ele>
        <time>2020-10-19T11:15:16Z</time>
      </trkpt>
      <trkpt lat="42.8579260" lon="-7.7791830">
        <ele>627.4</ele>
        <time>2020-10-19T11:15:17Z</time>
      </trkpt>
      <trkpt lat="42.8579400" lon="-7.7791870">
        <ele>627.3</ele>
        <time>2020-10-19T11:15:18Z</time>
      </trkpt>
      <trkpt lat="42.8579540" lon="-7.7791910">
        <ele>627.3</ele>
        <time>2020-10-19T11:15:19Z</time>
      </trkpt>
      <trkpt lat="42.8579680" lon="-7.7791950">
        <ele>627.3</ele>
        <time>2020-10-19T11:15:20Z</time>
      </trkpt>
      <trkpt lat="42.8579810" lon="-7.7791980">
        <ele>627.3</ele>
        <time>2020-10-19T11:15:21Z</time>
      </trkpt>
      <trkpt lat="42.8579940" lon="-7.7792020">
        <ele>627.3</ele>
        <time>2020-10-19T11:15:22Z</time>
      </trkpt>
      <trkpt lat="42.8580060" lon="-7.7792060">
        <ele>627.2</ele>
        <time>2020-10-19T11:15:23Z</time>
      </trkpt>
      <trkpt lat="42.8580170" lon="-7.7792120">
        <ele>627.2</ele>
        <time>2020-10-19T11:15:24Z</time>
      </trkpt>
      <trkpt lat="42.8580270" lon="-7.7792170">
        <ele>627.2</ele>
        <time>2020-10-19T11:15:25Z</time>
      </trkpt>
      <trkpt lat="42.8580380" lon="-7.7792220">
        <ele>627.2</ele>
        <time>2020-10-19T11:15:26Z</time>
      </trkpt>
      <trkpt lat="42.8580510" lon="-7.7792280">
        <ele>627.2</ele>
        <time>2020-10-19T11:15:27Z</time>
      </trkpt>
      <trkpt lat="42.8580650" lon="-7.7792320">
        <ele>627.2</ele>
        <time>2020-10-19T11:15:28Z</time>
      </trkpt>
      <trkpt lat="42.8580790" lon="-7.7792360">
        <ele>627.1</ele>
        <time>2020-10-19T11:15:29Z</time>
      </trkpt>
      <trkpt lat="42.8580920" lon="-7.7792410">
        <ele>627.1</ele>
        <time>2020-10-19T11:15:30Z</time>
      </trkpt>
      <trkpt lat="42.8581050" lon="-7.7792470">
        <ele>627.1</ele>
        <time>2020-10-19T11:15:31Z</time>
      </trkpt>
      <trkpt lat="42.8581170" lon="-7.7792530">
        <ele>627.1</ele>
        <time>2020-10-19T11:15:32Z</time>
      </trkpt>
      <trkpt lat="42.8581290" lon="-7.7792580">
        <ele>627.1</ele>
        <time>2020-10-19T11:15:33Z</time>
      </trkpt>
      <trkpt lat="42.8581410" lon="-7.7792640">
        <ele>627.0</ele>
        <time>2020-10-19T11:15:34Z</time>
      </trkpt>
      <trkpt lat="42.8581530" lon="-7.7792700">
        <ele>627.0</ele>
        <time>2020-10-19T11:15:35Z</time>
      </trkpt>
      <trkpt lat="42.8581640" lon="-7.7792760">
        <ele>627.0</ele>
        <time>2020-10-19T11:15:36Z</time>
      </trkpt>
      <trkpt lat="42.8581740" lon="-7.7792830">
        <ele>627.0</ele>
        <time>2020-10-19T11:15:37Z</time>
      </trkpt>
      <trkpt lat="42.8581840" lon="-7.7792890">
        <ele>627.0</ele>
        <time>2020-10-19T11:15:38Z</time>
      </trkpt>
      <trkpt lat="42.8581950" lon="-7.7792940">
        <ele>627.0</ele>
        <time>2020-10-19T11:15:39Z</time>
      </trkpt>
      <trkpt lat="42.8582070" lon="-7.7792990">
        <ele>627.0</ele>
        <time>2020-10-19T11:15:40Z</time>
      </trkpt>
      <trkpt lat="42.8582180" lon="-7.7793020">
        <ele>627.0</ele>
        <time>2020-10-19T11:15:41Z</time>
      </trkpt>
      <trkpt lat="42.8582300" lon="-7.7793060">
        <ele>626.9</ele>
        <time>2020-10-19T11:15:42Z</time>
      </trkpt>
      <trkpt lat="42.8582420" lon="-7.7793110">
        <ele>626.9</ele>
        <time>2020-10-19T11:15:43Z</time>
      </trkpt>
      <trkpt lat="42.8582530" lon="-7.7793180">
        <ele>626.9</ele>
        <time>2020-10-19T11:15:44Z</time>
      </trkpt>
      <trkpt lat="42.8582640" lon="-7.7793240">
        <ele>626.9</ele>
        <time>2020-10-19T11:15:45Z</time>
      </trkpt>
      <trkpt lat="42.8582750" lon="-7.7793310">
        <ele>626.9</ele>
        <time>2020-10-19T11:15:46Z</time>
      </trkpt>
      <trkpt lat="42.8582850" lon="-7.7793370">
        <ele>626.9</ele>
        <time>2020-10-19T11:15:47Z</time>
      </trkpt>
      <trkpt lat="42.8582960" lon="-7.7793440">
        <ele>626.9</ele>
        <time>2020-10-19T11:15:48Z</time>
      </trkpt>
      <trkpt lat="42.8583070" lon="-7.7793510">
        <ele>626.8</ele>
        <time>2020-10-19T11:15:49Z</time>
      </trkpt>
      <trkpt lat="42.8583190" lon="-7.7793580">
        <ele>626.8</ele>
        <time>2020-10-19T11:15:50Z</time>
      </trkpt>
      <trkpt lat="42.8583310" lon="-7.7793680">
        <ele>626.8</ele>
        <time>2020-10-19T11:15:51Z</time>
      </trkpt>
      <trkpt lat="42.8583440" lon="-7.7793780">
        <ele>626.8</ele>
        <time>2020-10-19T11:15:52Z</time>
      </trkpt>
      <trkpt lat="42.8583560" lon="-7.7793870">
        <ele>626.8</ele>
        <time>2020-10-19T11:15:53Z</time>
      </trkpt>
      <trkpt lat="42.8583670" lon="-7.7793960">
        <ele>626.8</ele>
        <time>2020-10-19T11:15:54Z</time>
      </trkpt>
      <trkpt lat="42.8583770" lon="-7.7794040">
        <ele>626.7</ele>
        <time>2020-10-19T11:15:55Z</time>
      </trkpt>
      <trkpt lat="42.8583880" lon="-7.7794120">
        <ele>626.7</ele>
        <time>2020-10-19T11:15:56Z</time>
      </trkpt>
      <trkpt lat="42.8583980" lon="-7.7794200">
        <ele>626.7</ele>
        <time>2020-10-19T11:15:57Z</time>
      </trkpt>
      <trkpt lat="42.8584080" lon="-7.7794290">
        <ele>626.7</ele>
        <time>2020-10-19T11:15:58Z</time>
      </trkpt>
      <trkpt lat="42.8584190" lon="-7.7794370">
        <ele>626.7</ele>
        <time>2020-10-19T11:15:59Z</time>
      </trkpt>
      <trkpt lat="42.8584280" lon="-7.7794470">
        <ele>626.7</ele>
        <time>2020-10-19T11:16:00Z</time>
      </trkpt>
      <trkpt lat="42.8584380" lon="-7.7794570">
        <ele>626.7</ele>
        <time>2020-10-19T11:16:01Z</time>
      </trkpt>
      <trkpt lat="42.8584480" lon="-7.7794660">
        <ele>626.7</ele>
        <time>2020-10-19T11:16:02Z</time>
      </trkpt>
      <trkpt lat="42.8584580" lon="-7.7794750">
        <ele>626.7</ele>
        <time>2020-10-19T11:16:03Z</time>
      </trkpt>
      <trkpt lat="42.8584680" lon="-7.7794840">
        <ele>626.7</ele>
        <time>2020-10-19T11:16:04Z</time>
      </trkpt>
      <trkpt lat="42.8584780" lon="-7.7794930">
        <ele>626.6</ele>
        <time>2020-10-19T11:16:05Z</time>
      </trkpt>
      <trkpt lat="42.8584880" lon="-7.7795010">
        <ele>626.6</ele>
        <time>2020-10-19T11:16:06Z</time>
      </trkpt>
      <trkpt lat="42.8584990" lon="-7.7795090">
        <ele>626.6</ele>
        <time>2020-10-19T11:16:07Z</time>
      </trkpt>
      <trkpt lat="42.8585090" lon="-7.7795170">
        <ele>626.6</ele>
        <time>2020-10-19T11:16:08Z</time>
      </trkpt>
      <trkpt lat="42.8585200" lon="-7.7795260">
        <ele>626.7</ele>
        <time>2020-10-19T11:16:09Z</time>
      </trkpt>
      <trkpt lat="42.8585300" lon="-7.7795350">
        <ele>626.7</ele>
        <time>2020-10-19T11:16:10Z</time>
      </trkpt>
      <trkpt lat="42.8585390" lon="-7.7795450">
        <ele>626.7</ele>
        <time>2020-10-19T11:16:11Z</time>
      </trkpt>
      <trkpt lat="42.8585480" lon="-7.7795550">
        <ele>626.7</ele>
        <time>2020-10-19T11:16:12Z</time>
      </trkpt>
      <trkpt lat="42.8585570" lon="-7.7795640">
        <ele>626.7</ele>
        <time>2020-10-19T11:16:13Z</time>
      </trkpt>
      <trkpt lat="42.8585660" lon="-7.7795720">
        <ele>626.7</ele>
        <time>2020-10-19T11:16:14Z</time>
      </trkpt>
      <trkpt lat="42.8585750" lon="-7.7795810">
        <ele>626.7</ele>
        <time>2020-10-19T11:16:15Z</time>
      </trkpt>
      <trkpt lat="42.8585850" lon="-7.7795910">
        <ele>626.7</ele>
        <time>2020-10-19T11:16:16Z</time>
      </trkpt>
      <trkpt lat="42.8585960" lon="-7.7796010">
        <ele>626.7</ele>
        <time>2020-10-19T11:16:17Z</time>
      </trkpt>
      <trkpt lat="42.8586080" lon="-7.7796110">
        <ele>626.7</ele>
        <time>2020-10-19T11:16:18Z</time>
      </trkpt>
      <trkpt lat="42.8586200" lon="-7.7796200">
        <ele>626.7</ele>
        <time>2020-10-19T11:16:19Z</time>
      </trkpt>
      <trkpt lat="42.8586320" lon="-7.7796290">
        <ele>626.7</ele>
        <time>2020-10-19T11:16:20Z</time>
      </trkpt>
      <trkpt lat="42.8586420" lon="-7.7796390">
        <ele>626.8</ele>
        <time>2020-10-19T11:16:21Z</time>
      </trkpt>
      <trkpt lat="42.8586520" lon="-7.7796510">
        <ele>626.8</ele>
        <time>2020-10-19T11:16:22Z</time>
      </trkpt>
      <trkpt lat="42.8586600" lon="-7.7796630">
        <ele>626.8</ele>
        <time>2020-10-19T11:16:23Z</time>
      </trkpt>
      <trkpt lat="42.8586690" lon="-7.7796750">
        <ele>626.8</ele>
        <time>2020-10-19T11:16:24Z</time>
      </trkpt>
      <trkpt lat="42.8586770" lon="-7.7796850">
        <ele>626.8</ele>
        <time>2020-10-19T11:16:25Z</time>
      </trkpt>
      <trkpt lat="42.8586870" lon="-7.7796930">
        <ele>626.8</ele>
        <time>2020-10-19T11:16:26Z</time>
      </trkpt>
      <trkpt lat="42.8586980" lon="-7.7797010">
        <ele>626.8</ele>
        <time>2020-10-19T11:16:27Z</time>
      </trkpt>
      <trkpt lat="42.8587080" lon="-7.7797100">
        <ele>626.8</ele>
        <time>2020-10-19T11:16:28Z</time>
      </trkpt>
      <trkpt lat="42.8587190" lon="-7.7797180">
        <ele>626.8</ele>
        <time>2020-10-19T11:16:29Z</time>
      </trkpt>
      <trkpt lat="42.8587300" lon="-7.7797240">
        <ele>626.8</ele>
        <time>2020-10-19T11:16:30Z</time>
      </trkpt>
      <trkpt lat="42.8587410" lon="-7.7797290">
        <ele>626.8</ele>
        <time>2020-10-19T11:16:31Z</time>
      </trkpt>
      <trkpt lat="42.8587530" lon="-7.7797350">
        <ele>626.8</ele>
        <time>2020-10-19T11:16:32Z</time>
      </trkpt>
      <trkpt lat="42.8587660" lon="-7.7797420">
        <ele>626.8</ele>
        <time>2020-10-19T11:16:33Z</time>
      </trkpt>
      <trkpt lat="42.8587780" lon="-7.7797480">
        <ele>626.8</ele>
        <time>2020-10-19T11:16:34Z</time>
      </trkpt>
      <trkpt lat="42.8587900" lon="-7.7797560">
        <ele>626.8</ele>
        <time>2020-10-19T11:16:35Z</time>
      </trkpt>
      <trkpt lat="42.8588010" lon="-7.7797630">
        <ele>626.8</ele>
        <time>2020-10-19T11:16:36Z</time>
      </trkpt>
      <trkpt lat="42.8588120" lon="-7.7797710">
        <ele>626.8</ele>
        <time>2020-10-19T11:16:37Z</time>
      </trkpt>
      <trkpt lat="42.8588240" lon="-7.7797830">
        <ele>626.8</ele>
        <time>2020-10-19T11:16:38Z</time>
      </trkpt>
      <trkpt lat="42.8588370" lon="-7.7797970">
        <ele>626.8</ele>
        <time>2020-10-19T11:16:39Z</time>
      </trkpt>
      <trkpt lat="42.8588500" lon="-7.7798120">
        <ele>626.8</ele>
        <time>2020-10-19T11:16:40Z</time>
      </trkpt>
      <trkpt lat="42.8588620" lon="-7.7798240">
        <ele>626.8</ele>
        <time>2020-10-19T11:16:41Z</time>
      </trkpt>
      <trkpt lat="42.8588730" lon="-7.7798360">
        <ele>626.7</ele>
        <time>2020-10-19T11:16:42Z</time>
      </trkpt>
      <trkpt lat="42.8588850" lon="-7.7798470">
        <ele>626.7</ele>
        <time>2020-10-19T11:16:43Z</time>
      </trkpt>
      <trkpt lat="42.8588970" lon="-7.7798570">
        <ele>626.7</ele>
        <time>2020-10-19T11:16:44Z</time>
      </trkpt>
      <trkpt lat="42.8589090" lon="-7.7798670">
        <ele>626.7</ele>
        <time>2020-10-19T11:16:45Z</time>
      </trkpt>
      <trkpt lat="42.8589210" lon="-7.7798800">
        <ele>626.7</ele>
        <time>2020-10-19T11:16:46Z</time>
      </trkpt>
      <trkpt lat="42.8589310" lon="-7.7798950">
        <ele>626.7</ele>
        <time>2020-10-19T11:16:47Z</time>
      </trkpt>
      <trkpt lat="42.8589400" lon="-7.7799090">
        <ele>626.7</ele>
        <time>2020-10-19T11:16:48Z</time>
      </trkpt>
      <trkpt lat="42.8589480" lon="-7.7799190">
        <ele>626.7</ele>
        <time>2020-10-19T11:16:49Z</time>
      </trkpt>
      <trkpt lat="42.8589550" lon="-7.7799270">
        <ele>626.7</ele>
        <time>2020-10-19T11:16:50Z</time>
      </trkpt>
      <trkpt lat="42.8589640" lon="-7.7799350">
        <ele>626.7</ele>
        <time>2020-10-19T11:16:51Z</time>
      </trkpt>
      <trkpt lat="42.8589730" lon="-7.7799480">
        <ele>626.7</ele>
        <time>2020-10-19T11:16:52Z</time>
      </trkpt>
      <trkpt lat="42.8589820" lon="-7.7799640">
        <ele>626.7</ele>
        <time>2020-10-19T11:16:53Z</time>
      </trkpt>
      <trkpt lat="42.8589900" lon="-7.7799820">
        <ele>626.7</ele>
        <time>2020-10-19T11:16:54Z</time>
      </trkpt>
      <trkpt lat="42.8589980" lon="-7.7799990">
        <ele>626.7</ele>
        <time>2020-10-19T11:16:55Z</time>
      </trkpt>
      <trkpt lat="42.8590040" lon="-7.7800130">
        <ele>626.7</ele>
        <time>2020-10-19T11:16:56Z</time>
      </trkpt>
      <trkpt lat="42.8590110" lon="-7.7800260">
        <ele>626.7</ele>
        <time>2020-10-19T11:16:57Z</time>
      </trkpt>
      <trkpt lat="42.8590160" lon="-7.7800360">
        <ele>626.7</ele>
        <time>2020-10-19T11:16:58Z</time>
      </trkpt>
      <trkpt lat="42.8590240" lon="-7.7800460">
        <ele>626.7</ele>
        <time>2020-10-19T11:16:59Z</time>
      </trkpt>
      <trkpt lat="42.8590310" lon="-7.7800550">
        <ele>626.7</ele>
        <time>2020-10-19T11:17:00Z</time>
      </trkpt>
      <trkpt lat="42.8590410" lon="-7.7800680">
        <ele>626.7</ele>
        <time>2020-10-19T11:17:01Z</time>
      </trkpt>
      <trkpt lat="42.8590500" lon="-7.7800810">
        <ele>626.7</ele>
        <time>2020-10-19T11:17:02Z</time>
      </trkpt>
      <trkpt lat="42.8590600" lon="-7.7800940">
        <ele>626.6</ele>
        <time>2020-10-19T11:17:03Z</time>
      </trkpt>
      <trkpt lat="42.8590700" lon="-7.7801080">
        <ele>626.6</ele>
        <time>2020-10-19T11:17:04Z</time>
      </trkpt>
      <trkpt lat="42.8590790" lon="-7.7801210">
        <ele>626.6</ele>
        <time>2020-10-19T11:17:05Z</time>
      </trkpt>
      <trkpt lat="42.8590880" lon="-7.7801330">
        <ele>626.6</ele>
        <time>2020-10-19T11:17:06Z</time>
      </trkpt>
      <trkpt lat="42.8590970" lon="-7.7801440">
        <ele>626.6</ele>
        <time>2020-10-19T11:17:07Z</time>
      </trkpt>
      <trkpt lat="42.8591040" lon="-7.7801560">
        <ele>626.6</ele>
        <time>2020-10-19T11:17:08Z</time>
      </trkpt>
      <trkpt lat="42.8591120" lon="-7.7801680">
        <ele>626.6</ele>
        <time>2020-10-19T11:17:09Z</time>
      </trkpt>
      <trkpt lat="42.8591200" lon="-7.7801790">
        <ele>626.6</ele>
        <time>2020-10-19T11:17:10Z</time>
      </trkpt>
      <trkpt lat="42.8591280" lon="-7.7801900">
        <ele>626.6</ele>
        <time>2020-10-19T11:17:11Z</time>
      </trkpt>
      <trkpt lat="42.8591380" lon="-7.7802010">
        <ele>626.6</ele>
        <time>2020-10-19T11:17:12Z</time>
      </trkpt>
      <trkpt lat="42.8591490" lon="-7.7802120">
        <ele>626.6</ele>
        <time>2020-10-19T11:17:13Z</time>
      </trkpt>
      <trkpt lat="42.8591590" lon="-7.7802230">
        <ele>626.6</ele>
        <time>2020-10-19T11:17:14Z</time>
      </trkpt>
      <trkpt lat="42.8591690" lon="-7.7802340">
        <ele>626.6</ele>
        <time>2020-10-19T11:17:15Z</time>
      </trkpt>
      <trkpt lat="42.8591780" lon="-7.7802460">
        <ele>626.6</ele>
        <time>2020-10-19T11:17:16Z</time>
      </trkpt>
      <trkpt lat="42.8591870" lon="-7.7802600">
        <ele>626.6</ele>
        <time>2020-10-19T11:17:17Z</time>
      </trkpt>
      <trkpt lat="42.8591960" lon="-7.7802730">
        <ele>626.6</ele>
        <time>2020-10-19T11:17:18Z</time>
      </trkpt>
      <trkpt lat="42.8592050" lon="-7.7802860">
        <ele>626.6</ele>
        <time>2020-10-19T11:17:19Z</time>
      </trkpt>
      <trkpt lat="42.8592150" lon="-7.7803000">
        <ele>626.6</ele>
        <time>2020-10-19T11:17:20Z</time>
      </trkpt>
      <trkpt lat="42.8592240" lon="-7.7803120">
        <ele>626.5</ele>
        <time>2020-10-19T11:17:21Z</time>
      </trkpt>
      <trkpt lat="42.8592330" lon="-7.7803250">
        <ele>626.5</ele>
        <time>2020-10-19T11:17:22Z</time>
      </trkpt>
      <trkpt lat="42.8592420" lon="-7.7803380">
        <ele>626.5</ele>
        <time>2020-10-19T11:17:23Z</time>
      </trkpt>
      <trkpt lat="42.8592500" lon="-7.7803520">
        <ele>626.5</ele>
        <time>2020-10-19T11:17:24Z</time>
      </trkpt>
      <trkpt lat="42.8592590" lon="-7.7803670">
        <ele>626.5</ele>
        <time>2020-10-19T11:17:25Z</time>
      </trkpt>
      <trkpt lat="42.8592670" lon="-7.7803820">
        <ele>626.5</ele>
        <time>2020-10-19T11:17:26Z</time>
      </trkpt>
      <trkpt lat="42.8592750" lon="-7.7803970">
        <ele>626.5</ele>
        <time>2020-10-19T11:17:27Z</time>
      </trkpt>
      <trkpt lat="42.8592830" lon="-7.7804120">
        <ele>626.5</ele>
        <time>2020-10-19T11:17:28Z</time>
      </trkpt>
      <trkpt lat="42.8592910" lon="-7.7804270">
        <ele>626.4</ele>
        <time>2020-10-19T11:17:29Z</time>
      </trkpt>
      <trkpt lat="42.8593010" lon="-7.7804400">
        <ele>626.4</ele>
        <time>2020-10-19T11:17:30Z</time>
      </trkpt>
      <trkpt lat="42.8593100" lon="-7.7804530">
        <ele>626.4</ele>
        <time>2020-10-19T11:17:31Z</time>
      </trkpt>
      <trkpt lat="42.8593190" lon="-7.7804670">
        <ele>626.4</ele>
        <time>2020-10-19T11:17:32Z</time>
      </trkpt>
      <trkpt lat="42.8593280" lon="-7.7804810">
        <ele>626.4</ele>
        <time>2020-10-19T11:17:33Z</time>
      </trkpt>
      <trkpt lat="42.8593360" lon="-7.7804950">
        <ele>626.4</ele>
        <time>2020-10-19T11:17:34Z</time>
      </trkpt>
      <trkpt lat="42.8593440" lon="-7.7805080">
        <ele>626.4</ele>
        <time>2020-10-19T11:17:35Z</time>
      </trkpt>
      <trkpt lat="42.8593530" lon="-7.7805210">
        <ele>626.4</ele>
        <time>2020-10-19T11:17:36Z</time>
      </trkpt>
      <trkpt lat="42.8593620" lon="-7.7805330">
        <ele>626.3</ele>
        <time>2020-10-19T11:17:37Z</time>
      </trkpt>
      <trkpt lat="42.8593730" lon="-7.7805460">
        <ele>626.3</ele>
        <time>2020-10-19T11:17:38Z</time>
      </trkpt>
      <trkpt lat="42.8593840" lon="-7.7805590">
        <ele>626.3</ele>
        <time>2020-10-19T11:17:39Z</time>
      </trkpt>
      <trkpt lat="42.8593940" lon="-7.7805740">
        <ele>626.3</ele>
        <time>2020-10-19T11:17:40Z</time>
      </trkpt>
      <trkpt lat="42.8594020" lon="-7.7805900">
        <ele>626.3</ele>
        <time>2020-10-19T11:17:41Z</time>
      </trkpt>
      <trkpt lat="42.8594090" lon="-7.7806050">
        <ele>626.3</ele>
        <time>2020-10-19T11:17:42Z</time>
      </trkpt>
      <trkpt lat="42.8594170" lon="-7.7806190">
        <ele>626.3</ele>
        <time>2020-10-19T11:17:43Z</time>
      </trkpt>
      <trkpt lat="42.8594240" lon="-7.7806310">
        <ele>626.3</ele>
        <time>2020-10-19T11:17:44Z</time>
      </trkpt>
      <trkpt lat="42.8594330" lon="-7.7806430">
        <ele>626.2</ele>
        <time>2020-10-19T11:17:45Z</time>
      </trkpt>
      <trkpt lat="42.8594410" lon="-7.7806550">
        <ele>626.2</ele>
        <time>2020-10-19T11:17:46Z</time>
      </trkpt>
      <trkpt lat="42.8594490" lon="-7.7806690">
        <ele>626.2</ele>
        <time>2020-10-19T11:17:47Z</time>
      </trkpt>
      <trkpt lat="42.8594580" lon="-7.7806830">
        <ele>626.2</ele>
        <time>2020-10-19T11:17:48Z</time>
      </trkpt>
      <trkpt lat="42.8594660" lon="-7.7806970">
        <ele>626.2</ele>
        <time>2020-10-19T11:17:49Z</time>
      </trkpt>
      <trkpt lat="42.8594740" lon="-7.7807130">
        <ele>626.2</ele>
        <time>2020-10-19T11:17:50Z</time>
      </trkpt>
      <trkpt lat="42.8594780" lon="-7.7807310">
        <ele>626.2</ele>
        <time>2020-10-19T11:17:51Z</time>
      </trkpt>
      <trkpt lat="42.8594780" lon="-7.7807500">
        <ele>626.1</ele>
        <time>2020-10-19T11:17:52Z</time>
      </trkpt>
      <trkpt lat="42.8594760" lon="-7.7807660">
        <ele>626.1</ele>
        <time>2020-10-19T11:17:53Z</time>
      </trkpt>
      <trkpt lat="42.8594730" lon="-7.7807750">
        <ele>626.1</ele>
        <time>2020-10-19T11:17:54Z</time>
      </trkpt>
      <trkpt lat="42.8594720" lon="-7.7807800">
        <ele>626.1</ele>
        <time>2020-10-19T11:17:55Z</time>
      </trkpt>
      <trkpt lat="42.8594710" lon="-7.7807840">
        <ele>626.1</ele>
        <time>2020-10-19T11:17:56Z</time>
      </trkpt>
      <trkpt lat="42.8594710" lon="-7.7807870">
        <ele>626.1</ele>
        <time>2020-10-19T11:17:57Z</time>
      </trkpt>
      <trkpt lat="42.8594720" lon="-7.7807870">
        <ele>626.1</ele>
        <time>2020-10-19T11:17:58Z</time>
      </trkpt>
      <trkpt lat="42.8594730" lon="-7.7807860">
        <ele>626.1</ele>
        <time>2020-10-19T11:17:59Z</time>
      </trkpt>
      <trkpt lat="42.8594740" lon="-7.7807860">
        <ele>626.1</ele>
        <time>2020-10-19T11:18:00Z</time>
      </trkpt>
      <trkpt lat="42.8594750" lon="-7.7807860">
        <ele>626.1</ele>
        <time>2020-10-19T11:18:01Z</time>
      </trkpt>
      <trkpt lat="42.8594750" lon="-7.7807870">
        <ele>626.1</ele>
        <time>2020-10-19T11:18:02Z</time>
      </trkpt>
      <trkpt lat="42.8594760" lon="-7.7807870">
        <ele>626.1</ele>
        <time>2020-10-19T11:18:03Z</time>
      </trkpt>
      <trkpt lat="42.8594760" lon="-7.7807870">
        <ele>626.1</ele>
        <time>2020-10-19T11:18:04Z</time>
      </trkpt>
      <trkpt lat="42.8594780" lon="-7.7807870">
        <ele>626.1</ele>
        <time>2020-10-19T11:18:05Z</time>
      </trkpt>
      <trkpt lat="42.8594790" lon="-7.7807870">
        <ele>626.1</ele>
        <time>2020-10-19T11:18:06Z</time>
      </trkpt>
      <trkpt lat="42.8594810" lon="-7.7807870">
        <ele>626.1</ele>
        <time>2020-10-19T11:18:07Z</time>
      </trkpt>
      <trkpt lat="42.8594820" lon="-7.7807880">
        <ele>626.1</ele>
        <time>2020-10-19T11:18:08Z</time>
      </trkpt>
      <trkpt lat="42.8594840" lon="-7.7807880">
        <ele>626.1</ele>
        <time>2020-10-19T11:18:09Z</time>
      </trkpt>
      <trkpt lat="42.8594880" lon="-7.7807880">
        <ele>626.1</ele>
        <time>2020-10-19T11:18:10Z</time>
      </trkpt>
      <trkpt lat="42.8595000" lon="-7.7807910">
        <ele>626.1</ele>
        <time>2020-10-19T11:18:11Z</time>
      </trkpt>
      <trkpt lat="42.8595160" lon="-7.7808000">
        <ele>626.0</ele>
        <time>2020-10-19T11:18:12Z</time>
      </trkpt>
      <trkpt lat="42.8595340" lon="-7.7808130">
        <ele>626.0</ele>
        <time>2020-10-19T11:18:13Z</time>
      </trkpt>
      <trkpt lat="42.8595460" lon="-7.7808260">
        <ele>626.0</ele>
        <time>2020-10-19T11:18:14Z</time>
      </trkpt>
      <trkpt lat="42.8595530" lon="-7.7808380">
        <ele>626.0</ele>
        <time>2020-10-19T11:18:15Z</time>
      </trkpt>
      <trkpt lat="42.8595600" lon="-7.7808480">
        <ele>626.0</ele>
        <time>2020-10-19T11:18:16Z</time>
      </trkpt>
      <trkpt lat="42.8595690" lon="-7.7808590">
        <ele>625.9</ele>
        <time>2020-10-19T11:18:17Z</time>
      </trkpt>
      <trkpt lat="42.8595780" lon="-7.7808710">
        <ele>625.9</ele>
        <time>2020-10-19T11:18:18Z</time>
      </trkpt>
      <trkpt lat="42.8595880" lon="-7.7808850">
        <ele>625.9</ele>
        <time>2020-10-19T11:18:19Z</time>
      </trkpt>
      <trkpt lat="42.8595980" lon="-7.7808990">
        <ele>625.9</ele>
        <time>2020-10-19T11:18:20Z</time>
      </trkpt>
      <trkpt lat="42.8596080" lon="-7.7809120">
        <ele>625.8</ele>
        <time>2020-10-19T11:18:21Z</time>
      </trkpt>
      <trkpt lat="42.8596200" lon="-7.7809240">
        <ele>625.8</ele>
        <time>2020-10-19T11:18:22Z</time>
      </trkpt>
      <trkpt lat="42.8596330" lon="-7.7809370">
        <ele>625.8</ele>
        <time>2020-10-19T11:18:23Z</time>
      </trkpt>
      <trkpt lat="42.8596450" lon="-7.7809520">
        <ele>625.8</ele>
        <time>2020-10-19T11:18:24Z</time>
      </trkpt>
      <trkpt lat="42.8596560" lon="-7.7809680">
        <ele>625.7</ele>
        <time>2020-10-19T11:18:25Z</time>
      </trkpt>
      <trkpt lat="42.8596660" lon="-7.7809830">
        <ele>625.7</ele>
        <time>2020-10-19T11:18:26Z</time>
      </trkpt>
      <trkpt lat="42.8596750" lon="-7.7809960">
        <ele>625.7</ele>
        <time>2020-10-19T11:18:27Z</time>
      </trkpt>
      <trkpt lat="42.8596860" lon="-7.7810090">
        <ele>625.6</ele>
        <time>2020-10-19T11:18:28Z</time>
      </trkpt>
      <trkpt lat="42.8596980" lon="-7.7810220">
        <ele>625.6</ele>
        <time>2020-10-19T11:18:29Z</time>
      </trkpt>
      <trkpt lat="42.8597090" lon="-7.7810340">
        <ele>625.6</ele>
        <time>2020-10-19T11:18:30Z</time>
      </trkpt>
      <trkpt lat="42.8597200" lon="-7.7810450">
        <ele>625.6</ele>
        <time>2020-10-19T11:18:31Z</time>
      </trkpt>
      <trkpt lat="42.8597310" lon="-7.7810550">
        <ele>625.5</ele>
        <time>2020-10-19T11:18:32Z</time>
      </trkpt>
      <trkpt lat="42.8597420" lon="-7.7810650">
        <ele>625.5</ele>
        <time>2020-10-19T11:18:33Z</time>
      </trkpt>
      <trkpt lat="42.8597520" lon="-7.7810760">
        <ele>625.5</ele>
        <time>2020-10-19T11:18:34Z</time>
      </trkpt>
      <trkpt lat="42.8597610" lon="-7.7810900">
        <ele>625.4</ele>
        <time>2020-10-19T11:18:35Z</time>
      </trkpt>
      <trkpt lat="42.8597670" lon="-7.7811040">
        <ele>625.4</ele>
        <time>2020-10-19T11:18:36Z</time>
      </trkpt>
      <trkpt lat="42.8597730" lon="-7.7811180">
        <ele>625.4</ele>
        <time>2020-10-19T11:18:37Z</time>
      </trkpt>
      <trkpt lat="42.8597790" lon="-7.7811280">
        <ele>625.4</ele>
        <time>2020-10-19T11:18:38Z</time>
      </trkpt>
      <trkpt lat="42.8597850" lon="-7.7811360">
        <ele>625.4</ele>
        <time>2020-10-19T11:18:39Z</time>
      </trkpt>
      <trkpt lat="42.8597880" lon="-7.7811390">
        <ele>625.3</ele>
        <time>2020-10-19T11:18:40Z</time>
      </trkpt>
      <trkpt lat="42.8597880" lon="-7.7811400">
        <ele>625.3</ele>
        <time>2020-10-19T11:18:41Z</time>
      </trkpt>
      <trkpt lat="42.8597880" lon="-7.7811400">
        <ele>625.3</ele>
        <time>2020-10-19T11:18:42Z</time>
      </trkpt>
      <trkpt lat="42.8597890" lon="-7.7811390">
        <ele>625.3</ele>
        <time>2020-10-19T11:18:43Z</time>
      </trkpt>
      <trkpt lat="42.8597890" lon="-7.7811390">
        <ele>625.3</ele>
        <time>2020-10-19T11:18:44Z</time>
      </trkpt>
      <trkpt lat="42.8597900" lon="-7.7811390">
        <ele>625.3</ele>
        <time>2020-10-19T11:18:45Z</time>
      </trkpt>
      <trkpt lat="42.8597900" lon="-7.7811390">
        <ele>625.3</ele>
        <time>2020-10-19T11:18:46Z</time>
      </trkpt>
      <trkpt lat="42.8597900" lon="-7.7811390">
        <ele>625.3</ele>
        <time>2020-10-19T11:18:47Z</time>
      </trkpt>
      <trkpt lat="42.8597920" lon="-7.7811410">
        <ele>625.3</ele>
        <time>2020-10-19T11:18:48Z</time>
      </trkpt>
      <trkpt lat="42.8597950" lon="-7.7811450">
        <ele>625.3</ele>
        <time>2020-10-19T11:18:49Z</time>
      </trkpt>
      <trkpt lat="42.8598000" lon="-7.7811500">
        <ele>625.3</ele>
        <time>2020-10-19T11:18:50Z</time>
      </trkpt>
      <trkpt lat="42.8598030" lon="-7.7811540">
        <ele>625.3</ele>
        <time>2020-10-19T11:18:51Z</time>
      </trkpt>
      <trkpt lat="42.8598040" lon="-7.7811560">
        <ele>625.3</ele>
        <time>2020-10-19T11:18:52Z</time>
      </trkpt>
      <trkpt lat="42.8598040" lon="-7.7811570">
        <ele>625.3</ele>
        <time>2020-10-19T11:18:53Z</time>
      </trkpt>
      <trkpt lat="42.8598040" lon="-7.7811570">
        <ele>625.3</ele>
        <time>2020-10-19T11:18:54Z</time>
      </trkpt>
      <trkpt lat="42.8598040" lon="-7.7811570">
        <ele>625.3</ele>
        <time>2020-10-19T11:18:55Z</time>
      </trkpt>
      <trkpt lat="42.8598040" lon="-7.7811570">
        <ele>625.3</ele>
        <time>2020-10-19T11:18:56Z</time>
      </trkpt>
      <trkpt lat="42.8598050" lon="-7.7811560">
        <ele>625.3</ele>
        <time>2020-10-19T11:18:57Z</time>
      </trkpt>
      <trkpt lat="42.8598070" lon="-7.7811560">
        <ele>625.3</ele>
        <time>2020-10-19T11:18:58Z</time>
      </trkpt>
      <trkpt lat="42.8598090" lon="-7.7811550">
        <ele>625.3</ele>
        <time>2020-10-19T11:18:59Z</time>
      </trkpt>
      <trkpt lat="42.8598100" lon="-7.7811540">
        <ele>625.3</ele>
        <time>2020-10-19T11:19:00Z</time>
      </trkpt>
      <trkpt lat="42.8598100" lon="-7.7811540">
        <ele>625.3</ele>
        <time>2020-10-19T11:19:01Z</time>
      </trkpt>
      <trkpt lat="42.8598090" lon="-7.7811540">
        <ele>625.3</ele>
        <time>2020-10-19T11:19:02Z</time>
      </trkpt>
      <trkpt lat="42.8598090" lon="-7.7811540">
        <ele>625.3</ele>
        <time>2020-10-19T11:19:03Z</time>
      </trkpt>
      <trkpt lat="42.8598100" lon="-7.7811530">
        <ele>625.3</ele>
        <time>2020-10-19T11:19:04Z</time>
      </trkpt>
      <trkpt lat="42.8598100" lon="-7.7811530">
        <ele>625.3</ele>
        <time>2020-10-19T11:19:05Z</time>
      </trkpt>
      <trkpt lat="42.8598100" lon="-7.7811530">
        <ele>625.3</ele>
        <time>2020-10-19T11:19:06Z</time>
      </trkpt>
      <trkpt lat="42.8598100" lon="-7.7811530">
        <ele>625.3</ele>
        <time>2020-10-19T11:19:07Z</time>
      </trkpt>
      <trkpt lat="42.8598100" lon="-7.7811520">
        <ele>625.3</ele>
        <time>2020-10-19T11:19:08Z</time>
      </trkpt>
      <trkpt lat="42.8598110" lon="-7.7811480">
        <ele>625.3</ele>
        <time>2020-10-19T11:19:09Z</time>
      </trkpt>
      <trkpt lat="42.8598130" lon="-7.7811400">
        <ele>625.3</ele>
        <time>2020-10-19T11:19:10Z</time>
      </trkpt>
      <trkpt lat="42.8598160" lon="-7.7811320">
        <ele>625.2</ele>
        <time>2020-10-19T11:19:11Z</time>
      </trkpt>
      <trkpt lat="42.8598170" lon="-7.7811270">
        <ele>625.2</ele>
        <time>2020-10-19T11:19:12Z</time>
      </trkpt>
      <trkpt lat="42.8598190" lon="-7.7811230">
        <ele>625.2</ele>
        <time>2020-10-19T11:19:13Z</time>
      </trkpt>
      <trkpt lat="42.8598190" lon="-7.7811210">
        <ele>625.2</ele>
        <time>2020-10-19T11:19:14Z</time>
      </trkpt>
      <trkpt lat="42.8598200" lon="-7.7811200">
        <ele>625.2</ele>
        <time>2020-10-19T11:19:15Z</time>
      </trkpt>
      <trkpt lat="42.8598200" lon="-7.7811190">
        <ele>625.2</ele>
        <time>2020-10-19T11:19:16Z</time>
      </trkpt>
      <trkpt lat="42.8598200" lon="-7.7811190">
        <ele>625.2</ele>
        <time>2020-10-19T11:19:17Z</time>
      </trkpt>
      <trkpt lat="42.8598200" lon="-7.7811180">
        <ele>625.2</ele>
        <time>2020-10-19T11:19:18Z</time>
      </trkpt>
      <trkpt lat="42.8598210" lon="-7.7811180">
        <ele>625.2</ele>
        <time>2020-10-19T11:19:19Z</time>
      </trkpt>
      <trkpt lat="42.8598230" lon="-7.7811170">
        <ele>625.2</ele>
        <time>2020-10-19T11:19:20Z</time>
      </trkpt>
      <trkpt lat="42.8598230" lon="-7.7811170">
        <ele>625.2</ele>
        <time>2020-10-19T11:19:21Z</time>
      </trkpt>
      <trkpt lat="42.8598240" lon="-7.7811170">
        <ele>625.2</ele>
        <time>2020-10-19T11:19:22Z</time>
      </trkpt>
      <trkpt lat="42.8598240" lon="-7.7811170">
        <ele>625.2</ele>
        <time>2020-10-19T11:19:23Z</time>
      </trkpt>
      <trkpt lat="42.8598240" lon="-7.7811160">
        <ele>625.2</ele>
        <time>2020-10-19T11:19:24Z</time>
      </trkpt>
      <trkpt lat="42.8598250" lon="-7.7811160">
        <ele>625.2</ele>
        <time>2020-10-19T11:19:25Z</time>
      </trkpt>
      <trkpt lat="42.8598250" lon="-7.7811160">
        <ele>625.2</ele>
        <time>2020-10-19T11:19:26Z</time>
      </trkpt>
      <trkpt lat="42.8598250" lon="-7.7811170">
        <ele>625.2</ele>
        <time>2020-10-19T11:19:27Z</time>
      </trkpt>
      <trkpt lat="42.8598250" lon="-7.7811170">
        <ele>625.2</ele>
        <time>2020-10-19T11:19:28Z</time>
      </trkpt>
      <trkpt lat="42.8598250" lon="-7.7811170">
        <ele>625.2</ele>
        <time>2020-10-19T11:19:29Z</time>
      </trkpt>
      <trkpt lat="42.8598260" lon="-7.7811180">
        <ele>625.2</ele>
        <time>2020-10-19T11:19:30Z</time>
      </trkpt>
      <trkpt lat="42.8598250" lon="-7.7811190">
        <ele>625.2</ele>
        <time>2020-10-19T11:19:31Z</time>
      </trkpt>
      <trkpt lat="42.8598230" lon="-7.7811200">
        <ele>625.2</ele>
        <time>2020-10-19T11:19:32Z</time>
      </trkpt>
      <trkpt lat="42.8598210" lon="-7.7811210">
        <ele>625.2</ele>
        <time>2020-10-19T11:19:33Z</time>
      </trkpt>
      <trkpt lat="42.8598190" lon="-7.7811220">
        <ele>625.2</ele>
        <time>2020-10-19T11:19:34Z</time>
      </trkpt>
      <trkpt lat="42.8598170" lon="-7.7811220">
        <ele>625.2</ele>
        <time>2020-10-19T11:19:35Z</time>
      </trkpt>
      <trkpt lat="42.8598140" lon="-7.7811220">
        <ele>625.2</ele>
        <time>2020-10-19T11:19:36Z</time>
      </trkpt>
      <trkpt lat="42.8598130" lon="-7.7811220">
        <ele>625.2</ele>
        <time>2020-10-19T11:19:37Z</time>
      </trkpt>
      <trkpt lat="42.8598140" lon="-7.7811220">
        <ele>625.2</ele>
        <time>2020-10-19T11:19:38Z</time>
      </trkpt>
      <trkpt lat="42.8598150" lon="-7.7811210">
        <ele>625.2</ele>
        <time>2020-10-19T11:19:39Z</time>
      </trkpt>
      <trkpt lat="42.8598150" lon="-7.7811210">
        <ele>625.2</ele>
        <time>2020-10-19T11:19:40Z</time>
      </trkpt>
      <trkpt lat="42.8598150" lon="-7.7811220">
        <ele>625.2</ele>
        <time>2020-10-19T11:19:41Z</time>
      </trkpt>
      <trkpt lat="42.8598150" lon="-7.7811250">
        <ele>625.2</ele>
        <time>2020-10-19T11:19:42Z</time>
      </trkpt>
      <trkpt lat="42.8598160" lon="-7.7811300">
        <ele>625.1</ele>
        <time>2020-10-19T11:19:43Z</time>
      </trkpt>
      <trkpt lat="42.8598210" lon="-7.7811370">
        <ele>625.1</ele>
        <time>2020-10-19T11:19:44Z</time>
      </trkpt>
      <trkpt lat="42.8598270" lon="-7.7811470">
        <ele>625.1</ele>
        <time>2020-10-19T11:19:45Z</time>
      </trkpt>
      <trkpt lat="42.8598370" lon="-7.7811590">
        <ele>625.1</ele>
        <time>2020-10-19T11:19:46Z</time>
      </trkpt>
      <trkpt lat="42.8598460" lon="-7.7811730">
        <ele>625.0</ele>
        <time>2020-10-19T11:19:47Z</time>
      </trkpt>
      <trkpt lat="42.8598580" lon="-7.7811880">
        <ele>625.0</ele>
        <time>2020-10-19T11:19:48Z</time>
      </trkpt>
      <trkpt lat="42.8598680" lon="-7.7812040">
        <ele>625.0</ele>
        <time>2020-10-19T11:19:49Z</time>
      </trkpt>
      <trkpt lat="42.8598740" lon="-7.7812210">
        <ele>624.9</ele>
        <time>2020-10-19T11:19:50Z</time>
      </trkpt>
      <trkpt lat="42.8598760" lon="-7.7812400">
        <ele>624.9</ele>
        <time>2020-10-19T11:19:51Z</time>
      </trkpt>
      <trkpt lat="42.8598800" lon="-7.7812570">
        <ele>624.9</ele>
        <time>2020-10-19T11:19:52Z</time>
      </trkpt>
      <trkpt lat="42.8598850" lon="-7.7812720">
        <ele>624.9</ele>
        <time>2020-10-19T11:19:53Z</time>
      </trkpt>
      <trkpt lat="42.8598940" lon="-7.7812860">
        <ele>624.8</ele>
        <time>2020-10-19T11:19:54Z</time>
      </trkpt>
      <trkpt lat="42.8599030" lon="-7.7812990">
        <ele>624.8</ele>
        <time>2020-10-19T11:19:55Z</time>
      </trkpt>
      <trkpt lat="42.8599110" lon="-7.7813120">
        <ele>624.8</ele>
        <time>2020-10-19T11:19:56Z</time>
      </trkpt>
      <trkpt lat="42.8599190" lon="-7.7813250">
        <ele>624.7</ele>
        <time>2020-10-19T11:19:57Z</time>
      </trkpt>
      <trkpt lat="42.8599290" lon="-7.7813390">
        <ele>624.7</ele>
        <time>2020-10-19T11:19:58Z</time>
      </trkpt>
      <trkpt lat="42.8599410" lon="-7.7813530">
        <ele>624.7</ele>
        <time>2020-10-19T11:19:59Z</time>
      </trkpt>
      <trkpt lat="42.8599540" lon="-7.7813660">
        <ele>624.6</ele>
        <time>2020-10-19T11:20:00Z</time>
      </trkpt>
      <trkpt lat="42.8599650" lon="-7.7813770">
        <ele>624.6</ele>
        <time>2020-10-19T11:20:01Z</time>
      </trkpt>
      <trkpt lat="42.8599760" lon="-7.7813880">
        <ele>624.6</ele>
        <time>2020-10-19T11:20:02Z</time>
      </trkpt>
      <trkpt lat="42.8599870" lon="-7.7814010">
        <ele>624.5</ele>
        <time>2020-10-19T11:20:03Z</time>
      </trkpt>
      <trkpt lat="42.8599950" lon="-7.7814160">
        <ele>624.5</ele>
        <time>2020-10-19T11:20:04Z</time>
      </trkpt>
      <trkpt lat="42.8600020" lon="-7.7814310">
        <ele>624.5</ele>
        <time>2020-10-19T11:20:05Z</time>
      </trkpt>
      <trkpt lat="42.8600080" lon="-7.7814450">
        <ele>624.4</ele>
        <time>2020-10-19T11:20:06Z</time>
      </trkpt>
      <trkpt lat="42.8600170" lon="-7.7814550">
        <ele>624.4</ele>
        <time>2020-10-19T11:20:07Z</time>
      </trkpt>
      <trkpt lat="42.8600260" lon="-7.7814630">
        <ele>624.4</ele>
        <time>2020-10-19T11:20:08Z</time>
      </trkpt>
      <trkpt lat="42.8600350" lon="-7.7814690">
        <ele>624.4</ele>
        <time>2020-10-19T11:20:09Z</time>
      </trkpt>
      <trkpt lat="42.8600440" lon="-7.7814750">
        <ele>624.3</ele>
        <time>2020-10-19T11:20:10Z</time>
      </trkpt>
      <trkpt lat="42.8600530" lon="-7.7814820">
        <ele>624.3</ele>
        <time>2020-10-19T11:20:11Z</time>
      </trkpt>
      <trkpt lat="42.8600620" lon="-7.7814880">
        <ele>624.3</ele>
        <time>2020-10-19T11:20:12Z</time>
      </trkpt>
      <trkpt lat="42.8600670" lon="-7.7814920">
        <ele>624.3</ele>
        <time>2020-10-19T11:20:13Z</time>
      </trkpt>
      <trkpt lat="42.8600710" lon="-7.7814930">
        <ele>624.2</ele>
        <time>2020-10-19T11:20:14Z</time>
      </trkpt>
      <trkpt lat="42.8600720" lon="-7.7814930">
        <ele>624.2</ele>
        <time>2020-10-19T11:20:15Z</time>
      </trkpt>
      <trkpt lat="42.8600750" lon="-7.7814920">
        <ele>624.2</ele>
        <time>2020-10-19T11:20:16Z</time>
      </trkpt>
      <trkpt lat="42.8600780" lon="-7.7814930">
        <ele>624.2</ele>
        <time>2020-10-19T11:20:17Z</time>
      </trkpt>
      <trkpt lat="42.8600820" lon="-7.7814930">
        <ele>624.2</ele>
        <time>2020-10-19T11:20:18Z</time>
      </trkpt>
      <trkpt lat="42.8600840" lon="-7.7814930">
        <ele>624.1</ele>
        <time>2020-10-19T11:20:19Z</time>
      </trkpt>
      <trkpt lat="42.8600850" lon="-7.7814930">
        <ele>624.1</ele>
        <time>2020-10-19T11:20:20Z</time>
      </trkpt>
      <trkpt lat="42.8600850" lon="-7.7814930">
        <ele>624.1</ele>
        <time>2020-10-19T11:20:21Z</time>
      </trkpt>
      <trkpt lat="42.8600860" lon="-7.7814930">
        <ele>624.1</ele>
        <time>2020-10-19T11:20:22Z</time>
      </trkpt>
      <trkpt lat="42.8600860" lon="-7.7814930">
        <ele>624.1</ele>
        <time>2020-10-19T11:20:23Z</time>
      </trkpt>
      <trkpt lat="42.8600870" lon="-7.7814930">
        <ele>624.1</ele>
        <time>2020-10-19T11:20:24Z</time>
      </trkpt>
      <trkpt lat="42.8600880" lon="-7.7814920">
        <ele>624.1</ele>
        <time>2020-10-19T11:20:25Z</time>
      </trkpt>
      <trkpt lat="42.8600900" lon="-7.7814900">
        <ele>624.1</ele>
        <time>2020-10-19T11:20:26Z</time>
      </trkpt>
      <trkpt lat="42.8600940" lon="-7.7814870">
        <ele>624.1</ele>
        <time>2020-10-19T11:20:27Z</time>
      </trkpt>
      <trkpt lat="42.8601030" lon="-7.7814800">
        <ele>624.0</ele>
        <time>2020-10-19T11:20:28Z</time>
      </trkpt>
      <trkpt lat="42.8601140" lon="-7.7814690">
        <ele>623.9</ele>
        <time>2020-10-19T11:20:29Z</time>
      </trkpt>
      <trkpt lat="42.8601280" lon="-7.7814580">
        <ele>623.9</ele>
        <time>2020-10-19T11:20:30Z</time>
      </trkpt>
      <trkpt lat="42.8601400" lon="-7.7814480">
        <ele>623.8</ele>
        <time>2020-10-19T11:20:31Z</time>
      </trkpt>
      <trkpt lat="42.8601520" lon="-7.7814370">
        <ele>623.7</ele>
        <time>2020-10-19T11:20:32Z</time>
      </trkpt>
      <trkpt lat="42.8601630" lon="-7.7814300">
        <ele>623.6</ele>
        <time>2020-10-19T11:20:33Z</time>
      </trkpt>
      <trkpt lat="42.8601670" lon="-7.7814270">
        <ele>623.6</ele>
        <time>2020-10-19T11:20:34Z</time>
      </trkpt>
      <trkpt lat="42.8601680" lon="-7.7814280">
        <ele>623.6</ele>
        <time>2020-10-19T11:20:35Z</time>
      </trkpt>
      <trkpt lat="42.8601670" lon="-7.7814280">
        <ele>623.6</ele>
        <time>2020-10-19T11:20:36Z</time>
      </trkpt>
      <trkpt lat="42.8601710" lon="-7.7814300">
        <ele>623.6</ele>
        <time>2020-10-19T11:20:37Z</time>
      </trkpt>
      <trkpt lat="42.8601780" lon="-7.7814310">
        <ele>623.5</ele>
        <time>2020-10-19T11:20:38Z</time>
      </trkpt>
      <trkpt lat="42.8601880" lon="-7.7814330">
        <ele>623.5</ele>
        <time>2020-10-19T11:20:39Z</time>
      </trkpt>
      <trkpt lat="42.8601990" lon="-7.7814350">
        <ele>623.4</ele>
        <time>2020-10-19T11:20:40Z</time>
      </trkpt>
      <trkpt lat="42.8602110" lon="-7.7814380">
        <ele>623.3</ele>
        <time>2020-10-19T11:20:41Z</time>
      </trkpt>
      <trkpt lat="42.8602220" lon="-7.7814390">
        <ele>623.3</ele>
        <time>2020-10-19T11:20:42Z</time>
      </trkpt>
      <trkpt lat="42.8602340" lon="-7.7814410">
        <ele>623.2</ele>
        <time>2020-10-19T11:20:43Z</time>
      </trkpt>
      <trkpt lat="42.8602450" lon="-7.7814430">
        <ele>623.1</ele>
        <time>2020-10-19T11:20:44Z</time>
      </trkpt>
      <trkpt lat="42.8602570" lon="-7.7814460">
        <ele>623.1</ele>
        <time>2020-10-19T11:20:45Z</time>
      </trkpt>
      <trkpt lat="42.8602690" lon="-7.7814500">
        <ele>623.0</ele>
        <time>2020-10-19T11:20:46Z</time>
      </trkpt>
      <trkpt lat="42.8602810" lon="-7.7814540">
        <ele>622.9</ele>
        <time>2020-10-19T11:20:47Z</time>
      </trkpt>
      <trkpt lat="42.8602930" lon="-7.7814600">
        <ele>622.8</ele>
        <time>2020-10-19T11:20:48Z</time>
      </trkpt>
      <trkpt lat="42.8603050" lon="-7.7814670">
        <ele>622.8</ele>
        <time>2020-10-19T11:20:49Z</time>
      </trkpt>
      <trkpt lat="42.8603170" lon="-7.7814760">
        <ele>622.7</ele>
        <time>2020-10-19T11:20:50Z</time>
      </trkpt>
      <trkpt lat="42.8603280" lon="-7.7814840">
        <ele>622.6</ele>
        <time>2020-10-19T11:20:51Z</time>
      </trkpt>
      <trkpt lat="42.8603390" lon="-7.7814920">
        <ele>622.6</ele>
        <time>2020-10-19T11:20:52Z</time>
      </trkpt>
      <trkpt lat="42.8603500" lon="-7.7814990">
        <ele>622.5</ele>
        <time>2020-10-19T11:20:53Z</time>
      </trkpt>
      <trkpt lat="42.8603630" lon="-7.7815100">
        <ele>622.4</ele>
        <time>2020-10-19T11:20:54Z</time>
      </trkpt>
      <trkpt lat="42.8603760" lon="-7.7815220">
        <ele>622.3</ele>
        <time>2020-10-19T11:20:55Z</time>
      </trkpt>
      <trkpt lat="42.8603880" lon="-7.7815350">
        <ele>622.2</ele>
        <time>2020-10-19T11:20:56Z</time>
      </trkpt>
      <trkpt lat="42.8603990" lon="-7.7815440">
        <ele>622.2</ele>
        <time>2020-10-19T11:20:57Z</time>
      </trkpt>
      <trkpt lat="42.8604080" lon="-7.7815520">
        <ele>622.1</ele>
        <time>2020-10-19T11:20:58Z</time>
      </trkpt>
      <trkpt lat="42.8604160" lon="-7.7815580">
        <ele>622.1</ele>
        <time>2020-10-19T11:20:59Z</time>
      </trkpt>
      <trkpt lat="42.8604210" lon="-7.7815620">
        <ele>622.0</ele>
        <time>2020-10-19T11:21:00Z</time>
      </trkpt>
      <trkpt lat="42.8604270" lon="-7.7815670">
        <ele>622.0</ele>
        <time>2020-10-19T11:21:01Z</time>
      </trkpt>
      <trkpt lat="42.8604350" lon="-7.7815750">
        <ele>621.9</ele>
        <time>2020-10-19T11:21:02Z</time>
      </trkpt>
      <trkpt lat="42.8604470" lon="-7.7815850">
        <ele>621.9</ele>
        <time>2020-10-19T11:21:03Z</time>
      </trkpt>
      <trkpt lat="42.8604600" lon="-7.7815990">
        <ele>621.8</ele>
        <time>2020-10-19T11:21:04Z</time>
      </trkpt>
      <trkpt lat="42.8604730" lon="-7.7816120">
        <ele>621.7</ele>
        <time>2020-10-19T11:21:05Z</time>
      </trkpt>
      <trkpt lat="42.8604840" lon="-7.7816260">
        <ele>621.6</ele>
        <time>2020-10-19T11:21:06Z</time>
      </trkpt>
      <trkpt lat="42.8604950" lon="-7.7816360">
        <ele>621.5</ele>
        <time>2020-10-19T11:21:07Z</time>
      </trkpt>
      <trkpt lat="42.8605060" lon="-7.7816460">
        <ele>621.4</ele>
        <time>2020-10-19T11:21:08Z</time>
      </trkpt>
      <trkpt lat="42.8605180" lon="-7.7816570">
        <ele>621.3</ele>
        <time>2020-10-19T11:21:09Z</time>
      </trkpt>
      <trkpt lat="42.8605300" lon="-7.7816700">
        <ele>621.3</ele>
        <time>2020-10-19T11:21:10Z</time>
      </trkpt>
      <trkpt lat="42.8605420" lon="-7.7816820">
        <ele>621.2</ele>
        <time>2020-10-19T11:21:11Z</time>
      </trkpt>
      <trkpt lat="42.8605530" lon="-7.7816950">
        <ele>621.1</ele>
        <time>2020-10-19T11:21:12Z</time>
      </trkpt>
      <trkpt lat="42.8605640" lon="-7.7817080">
        <ele>621.0</ele>
        <time>2020-10-19T11:21:13Z</time>
      </trkpt>
      <trkpt lat="42.8605750" lon="-7.7817200">
        <ele>620.9</ele>
        <time>2020-10-19T11:21:14Z</time>
      </trkpt>
      <trkpt lat="42.8605840" lon="-7.7817300">
        <ele>620.9</ele>
        <time>2020-10-19T11:21:15Z</time>
      </trkpt>
      <trkpt lat="42.8605940" lon="-7.7817400">
        <ele>620.8</ele>
        <time>2020-10-19T11:21:16Z</time>
      </trkpt>
      <trkpt lat="42.8606040" lon="-7.7817490">
        <ele>620.7</ele>
        <time>2020-10-19T11:21:17Z</time>
      </trkpt>
      <trkpt lat="42.8606140" lon="-7.7817590">
        <ele>620.6</ele>
        <time>2020-10-19T11:21:18Z</time>
      </trkpt>
      <trkpt lat="42.8606240" lon="-7.7817710">
        <ele>620.6</ele>
        <time>2020-10-19T11:21:19Z</time>
      </trkpt>
      <trkpt lat="42.8606330" lon="-7.7817810">
        <ele>620.5</ele>
        <time>2020-10-19T11:21:20Z</time>
      </trkpt>
      <trkpt lat="42.8606400" lon="-7.7817920">
        <ele>620.5</ele>
        <time>2020-10-19T11:21:21Z</time>
      </trkpt>
      <trkpt lat="42.8606490" lon="-7.7818020">
        <ele>620.4</ele>
        <time>2020-10-19T11:21:22Z</time>
      </trkpt>
      <trkpt lat="42.8606590" lon="-7.7818140">
        <ele>620.3</ele>
        <time>2020-10-19T11:21:23Z</time>
      </trkpt>
      <trkpt lat="42.8606690" lon="-7.7818240">
        <ele>620.2</ele>
        <time>2020-10-19T11:21:24Z</time>
      </trkpt>
      <trkpt lat="42.8606780" lon="-7.7818350">
        <ele>620.2</ele>
        <time>2020-10-19T11:21:25Z</time>
      </trkpt>
      <trkpt lat="42.8606870" lon="-7.7818450">
        <ele>620.1</ele>
        <time>2020-10-19T11:21:26Z</time>
      </trkpt>
      <trkpt lat="42.8606960" lon="-7.7818550">
        <ele>620.1</ele>
        <time>2020-10-19T11:21:27Z</time>
      </trkpt>
      <trkpt lat="42.8607060" lon="-7.7818650">
        <ele>620.0</ele>
        <time>2020-10-19T11:21:28Z</time>
      </trkpt>
      <trkpt lat="42.8607150" lon="-7.7818750">
        <ele>619.9</ele>
        <time>2020-10-19T11:21:29Z</time>
      </trkpt>
      <trkpt lat="42.8607250" lon="-7.7818850">
        <ele>619.8</ele>
        <time>2020-10-19T11:21:30Z</time>
      </trkpt>
      <trkpt lat="42.8607350" lon="-7.7818950">
        <ele>619.8</ele>
        <time>2020-10-19T11:21:31Z</time>
      </trkpt>
      <trkpt lat="42.8607460" lon="-7.7819030">
        <ele>619.7</ele>
        <time>2020-10-19T11:21:32Z</time>
      </trkpt>
      <trkpt lat="42.8607560" lon="-7.7819120">
        <ele>619.6</ele>
        <time>2020-10-19T11:21:33Z</time>
      </trkpt>
      <trkpt lat="42.8607660" lon="-7.7819210">
        <ele>619.6</ele>
        <time>2020-10-19T11:21:34Z</time>
      </trkpt>
      <trkpt lat="42.8607750" lon="-7.7819320">
        <ele>619.5</ele>
        <time>2020-10-19T11:21:35Z</time>
      </trkpt>
      <trkpt lat="42.8607850" lon="-7.7819430">
        <ele>619.4</ele>
        <time>2020-10-19T11:21:36Z</time>
      </trkpt>
      <trkpt lat="42.8607950" lon="-7.7819540">
        <ele>619.4</ele>
        <time>2020-10-19T11:21:37Z</time>
      </trkpt>
      <trkpt lat="42.8608050" lon="-7.7819640">
        <ele>619.3</ele>
        <time>2020-10-19T11:21:38Z</time>
      </trkpt>
      <trkpt lat="42.8608160" lon="-7.7819740">
        <ele>619.2</ele>
        <time>2020-10-19T11:21:39Z</time>
      </trkpt>
      <trkpt lat="42.8608260" lon="-7.7819830">
        <ele>619.2</ele>
        <time>2020-10-19T11:21:40Z</time>
      </trkpt>
      <trkpt lat="42.8608350" lon="-7.7819930">
        <ele>619.1</ele>
        <time>2020-10-19T11:21:41Z</time>
      </trkpt>
      <trkpt lat="42.8608440" lon="-7.7820030">
        <ele>619.0</ele>
        <time>2020-10-19T11:21:42Z</time>
      </trkpt>
      <trkpt lat="42.8608530" lon="-7.7820130">
        <ele>619.0</ele>
        <time>2020-10-19T11:21:43Z</time>
      </trkpt>
      <trkpt lat="42.8608620" lon="-7.7820240">
        <ele>618.9</ele>
        <time>2020-10-19T11:21:44Z</time>
      </trkpt>
      <trkpt lat="42.8608710" lon="-7.7820350">
        <ele>618.8</ele>
        <time>2020-10-19T11:21:45Z</time>
      </trkpt>
      <trkpt lat="42.8608800" lon="-7.7820450">
        <ele>618.8</ele>
        <time>2020-10-19T11:21:46Z</time>
      </trkpt>
      <trkpt lat="42.8608900" lon="-7.7820560">
        <ele>618.7</ele>
        <time>2020-10-19T11:21:47Z</time>
      </trkpt>
      <trkpt lat="42.8609000" lon="-7.7820660">
        <ele>618.6</ele>
        <time>2020-10-19T11:21:48Z</time>
      </trkpt>
      <trkpt lat="42.8609110" lon="-7.7820770">
        <ele>618.6</ele>
        <time>2020-10-19T11:21:49Z</time>
      </trkpt>
      <trkpt lat="42.8609210" lon="-7.7820880">
        <ele>618.5</ele>
        <time>2020-10-19T11:21:50Z</time>
      </trkpt>
      <trkpt lat="42.8609310" lon="-7.7820990">
        <ele>618.4</ele>
        <time>2020-10-19T11:21:51Z</time>
      </trkpt>
      <trkpt lat="42.8609410" lon="-7.7821110">
        <ele>618.4</ele>
        <time>2020-10-19T11:21:52Z</time>
      </trkpt>
      <trkpt lat="42.8609510" lon="-7.7821220">
        <ele>618.3</ele>
        <time>2020-10-19T11:21:53Z</time>
      </trkpt>
      <trkpt lat="42.8609610" lon="-7.7821330">
        <ele>618.2</ele>
        <time>2020-10-19T11:21:54Z</time>
      </trkpt>
      <trkpt lat="42.8609710" lon="-7.7821430">
        <ele>618.2</ele>
        <time>2020-10-19T11:21:55Z</time>
      </trkpt>
      <trkpt lat="42.8609800" lon="-7.7821540">
        <ele>618.1</ele>
        <time>2020-10-19T11:21:56Z</time>
      </trkpt>
      <trkpt lat="42.8609890" lon="-7.7821650">
        <ele>618.1</ele>
        <time>2020-10-19T11:21:57Z</time>
      </trkpt>
      <trkpt lat="42.8609940" lon="-7.7821770">
        <ele>618.0</ele>
        <time>2020-10-19T11:21:58Z</time>
      </trkpt>
      <trkpt lat="42.8609970" lon="-7.7821880">
        <ele>618.0</ele>
        <time>2020-10-19T11:21:59Z</time>
      </trkpt>
      <trkpt lat="42.8609970" lon="-7.7821950">
        <ele>618.0</ele>
        <time>2020-10-19T11:22:00Z</time>
      </trkpt>
      <trkpt lat="42.8609960" lon="-7.7821990">
        <ele>617.9</ele>
        <time>2020-10-19T11:22:01Z</time>
      </trkpt>
      <trkpt lat="42.8609960" lon="-7.7821990">
        <ele>617.9</ele>
        <time>2020-10-19T11:22:02Z</time>
      </trkpt>
      <trkpt lat="42.8609970" lon="-7.7821990">
        <ele>617.9</ele>
        <time>2020-10-19T11:22:03Z</time>
      </trkpt>
      <trkpt lat="42.8609970" lon="-7.7822000">
        <ele>617.9</ele>
        <time>2020-10-19T11:22:04Z</time>
      </trkpt>
      <trkpt lat="42.8609970" lon="-7.7822010">
        <ele>617.9</ele>
        <time>2020-10-19T11:22:05Z</time>
      </trkpt>
      <trkpt lat="42.8609960" lon="-7.7822020">
        <ele>617.9</ele>
        <time>2020-10-19T11:22:06Z</time>
      </trkpt>
      <trkpt lat="42.8609960" lon="-7.7822020">
        <ele>617.9</ele>
        <time>2020-10-19T11:22:07Z</time>
      </trkpt>
      <trkpt lat="42.8609960" lon="-7.7822020">
        <ele>617.9</ele>
        <time>2020-10-19T11:22:08Z</time>
      </trkpt>
      <trkpt lat="42.8609960" lon="-7.7822030">
        <ele>617.9</ele>
        <time>2020-10-19T11:22:09Z</time>
      </trkpt>
      <trkpt lat="42.8609960" lon="-7.7822050">
        <ele>617.9</ele>
        <time>2020-10-19T11:22:10Z</time>
      </trkpt>
      <trkpt lat="42.8609970" lon="-7.7822080">
        <ele>617.9</ele>
        <time>2020-10-19T11:22:11Z</time>
      </trkpt>
      <trkpt lat="42.8609980" lon="-7.7822130">
        <ele>617.9</ele>
        <time>2020-10-19T11:22:12Z</time>
      </trkpt>
      <trkpt lat="42.8609990" lon="-7.7822200">
        <ele>617.9</ele>
        <time>2020-10-19T11:22:13Z</time>
      </trkpt>
      <trkpt lat="42.8609980" lon="-7.7822270">
        <ele>617.8</ele>
        <time>2020-10-19T11:22:14Z</time>
      </trkpt>
      <trkpt lat="42.8609970" lon="-7.7822320">
        <ele>617.8</ele>
        <time>2020-10-19T11:22:15Z</time>
      </trkpt>
      <trkpt lat="42.8609960" lon="-7.7822340">
        <ele>617.8</ele>
        <time>2020-10-19T11:22:16Z</time>
      </trkpt>
      <trkpt lat="42.8609960" lon="-7.7822340">
        <ele>617.8</ele>
        <time>2020-10-19T11:22:17Z</time>
      </trkpt>
      <trkpt lat="42.8609960" lon="-7.7822340">
        <ele>617.8</ele>
        <time>2020-10-19T11:22:18Z</time>
      </trkpt>
      <trkpt lat="42.8609960" lon="-7.7822340">
        <ele>617.8</ele>
        <time>2020-10-19T11:22:19Z</time>
      </trkpt>
      <trkpt lat="42.8609960" lon="-7.7822330">
        <ele>617.8</ele>
        <time>2020-10-19T11:22:20Z</time>
      </trkpt>
      <trkpt lat="42.8609960" lon="-7.7822330">
        <ele>617.8</ele>
        <time>2020-10-19T11:22:21Z</time>
      </trkpt>
      <trkpt lat="42.8609960" lon="-7.7822330">
        <ele>617.8</ele>
        <time>2020-10-19T11:22:22Z</time>
      </trkpt>
      <trkpt lat="42.8609970" lon="-7.7822330">
        <ele>617.8</ele>
        <time>2020-10-19T11:22:23Z</time>
      </trkpt>
      <trkpt lat="42.8609980" lon="-7.7822320">
        <ele>617.8</ele>
        <time>2020-10-19T11:22:24Z</time>
      </trkpt>
      <trkpt lat="42.8610000" lon="-7.7822330">
        <ele>617.8</ele>
        <time>2020-10-19T11:22:25Z</time>
      </trkpt>
      <trkpt lat="42.8610050" lon="-7.7822320">
        <ele>617.8</ele>
        <time>2020-10-19T11:22:26Z</time>
      </trkpt>
      <trkpt lat="42.8610110" lon="-7.7822330">
        <ele>617.7</ele>
        <time>2020-10-19T11:22:27Z</time>
      </trkpt>
      <trkpt lat="42.8610140" lon="-7.7822350">
        <ele>617.7</ele>
        <time>2020-10-19T11:22:28Z</time>
      </trkpt>
      <trkpt lat="42.8610150" lon="-7.7822360">
        <ele>617.7</ele>
        <time>2020-10-19T11:22:29Z</time>
      </trkpt>
      <trkpt lat="42.8610150" lon="-7.7822380">
        <ele>617.7</ele>
        <time>2020-10-19T11:22:30Z</time>
      </trkpt>
      <trkpt lat="42.8610150" lon="-7.7822380">
        <ele>617.7</ele>
        <time>2020-10-19T11:22:31Z</time>
      </trkpt>
      <trkpt lat="42.8610150" lon="-7.7822380">
        <ele>617.7</ele>
        <time>2020-10-19T11:22:32Z</time>
      </trkpt>
      <trkpt lat="42.8610160" lon="-7.7822380">
        <ele>617.7</ele>
        <time>2020-10-19T11:22:33Z</time>
      </trkpt>
      <trkpt lat="42.8610160" lon="-7.7822370">
        <ele>617.7</ele>
        <time>2020-10-19T11:22:34Z</time>
      </trkpt>
      <trkpt lat="42.8610190" lon="-7.7822390">
        <ele>617.7</ele>
        <time>2020-10-19T11:22:35Z</time>
      </trkpt>
      <trkpt lat="42.8610240" lon="-7.7822420">
        <ele>617.7</ele>
        <time>2020-10-19T11:22:36Z</time>
      </trkpt>
      <trkpt lat="42.8610290" lon="-7.7822490">
        <ele>617.6</ele>
        <time>2020-10-19T11:22:37Z</time>
      </trkpt>
      <trkpt lat="42.8610340" lon="-7.7822580">
        <ele>617.6</ele>
        <time>2020-10-19T11:22:38Z</time>
      </trkpt>
      <trkpt lat="42.8610380" lon="-7.7822670">
        <ele>617.5</ele>
        <time>2020-10-19T11:22:39Z</time>
      </trkpt>
      <trkpt lat="42.8610420" lon="-7.7822740">
        <ele>617.5</ele>
        <time>2020-10-19T11:22:40Z</time>
      </trkpt>
      <trkpt lat="42.8610480" lon="-7.7822820">
        <ele>617.5</ele>
        <time>2020-10-19T11:22:41Z</time>
      </trkpt>
      <trkpt lat="42.8610550" lon="-7.7822890">
        <ele>617.4</ele>
        <time>2020-10-19T11:22:42Z</time>
      </trkpt>
      <trkpt lat="42.8610620" lon="-7.7822960">
        <ele>617.4</ele>
        <time>2020-10-19T11:22:43Z</time>
      </trkpt>
      <trkpt lat="42.8610710" lon="-7.7823030">
        <ele>617.4</ele>
        <time>2020-10-19T11:22:44Z</time>
      </trkpt>
      <trkpt lat="42.8610800" lon="-7.7823080">
        <ele>617.3</ele>
        <time>2020-10-19T11:22:45Z</time>
      </trkpt>
      <trkpt lat="42.8610890" lon="-7.7823150">
        <ele>617.3</ele>
        <time>2020-10-19T11:22:46Z</time>
      </trkpt>
      <trkpt lat="42.8610980" lon="-7.7823220">
        <ele>617.2</ele>
        <time>2020-10-19T11:22:47Z</time>
      </trkpt>
      <trkpt lat="42.8611080" lon="-7.7823290">
        <ele>617.2</ele>
        <time>2020-10-19T11:22:48Z</time>
      </trkpt>
      <trkpt lat="42.8611170" lon="-7.7823380">
        <ele>617.1</ele>
        <time>2020-10-19T11:22:49Z</time>
      </trkpt>
      <trkpt lat="42.8611260" lon="-7.7823490">
        <ele>617.1</ele>
        <time>2020-10-19T11:22:50Z</time>
      </trkpt>
      <trkpt lat="42.8611350" lon="-7.7823590">
        <ele>617.0</ele>
        <time>2020-10-19T11:22:51Z</time>
      </trkpt>
      <trkpt lat="42.8611440" lon="-7.7823680">
        <ele>617.0</ele>
        <time>2020-10-19T11:22:52Z</time>
      </trkpt>
      <trkpt lat="42.8611540" lon="-7.7823770">
        <ele>616.9</ele>
        <time>2020-10-19T11:22:53Z</time>
      </trkpt>
      <trkpt lat="42.8611630" lon="-7.7823850">
        <ele>616.9</ele>
        <time>2020-10-19T11:22:54Z</time>
      </trkpt>
      <trkpt lat="42.8611720" lon="-7.7823930">
        <ele>616.8</ele>
        <time>2020-10-19T11:22:55Z</time>
      </trkpt>
      <trkpt lat="42.8611800" lon="-7.7824000">
        <ele>616.8</ele>
        <time>2020-10-19T11:22:56Z</time>
      </trkpt>
      <trkpt lat="42.8611890" lon="-7.7824080">
        <ele>616.8</ele>
        <time>2020-10-19T11:22:57Z</time>
      </trkpt>
      <trkpt lat="42.8611980" lon="-7.7824160">
        <ele>616.7</ele>
        <time>2020-10-19T11:22:58Z</time>
      </trkpt>
      <trkpt lat="42.8612060" lon="-7.7824260">
        <ele>616.7</ele>
        <time>2020-10-19T11:22:59Z</time>
      </trkpt>
      <trkpt lat="42.8612140" lon="-7.7824360">
        <ele>616.6</ele>
        <time>2020-10-19T11:23:00Z</time>
      </trkpt>
      <trkpt lat="42.8612220" lon="-7.7824460">
        <ele>616.6</ele>
        <time>2020-10-19T11:23:01Z</time>
      </trkpt>
      <trkpt lat="42.8612310" lon="-7.7824550">
        <ele>616.5</ele>
        <time>2020-10-19T11:23:02Z</time>
      </trkpt>
      <trkpt lat="42.8612390" lon="-7.7824650">
        <ele>616.5</ele>
        <time>2020-10-19T11:23:03Z</time>
      </trkpt>
      <trkpt lat="42.8612470" lon="-7.7824750">
        <ele>616.5</ele>
        <time>2020-10-19T11:23:04Z</time>
      </trkpt>
      <trkpt lat="42.8612560" lon="-7.7824850">
        <ele>616.4</ele>
        <time>2020-10-19T11:23:05Z</time>
      </trkpt>
      <trkpt lat="42.8612650" lon="-7.7824930">
        <ele>616.4</ele>
        <time>2020-10-19T11:23:06Z</time>
      </trkpt>
      <trkpt lat="42.8612750" lon="-7.7825010">
        <ele>616.3</ele>
        <time>2020-10-19T11:23:07Z</time>
      </trkpt>
      <trkpt lat="42.8612850" lon="-7.7825080">
        <ele>616.3</ele>
        <time>2020-10-19T11:23:08Z</time>
      </trkpt>
      <trkpt lat="42.8612950" lon="-7.7825160">
        <ele>616.2</ele>
        <time>2020-10-19T11:23:09Z</time>
      </trkpt>
      <trkpt lat="42.8613060" lon="-7.7825230">
        <ele>616.2</ele>
        <time>2020-10-19T11:23:10Z</time>
      </trkpt>
      <trkpt lat="42.8613160" lon="-7.7825300">
        <ele>616.1</ele>
        <time>2020-10-19T11:23:11Z</time>
      </trkpt>
      <trkpt lat="42.8613260" lon="-7.7825370">
        <ele>616.1</ele>
        <time>2020-10-19T11:23:12Z</time>
      </trkpt>
      <trkpt lat="42.8613360" lon="-7.7825440">
        <ele>616.0</ele>
        <time>2020-10-19T11:23:13Z</time>
      </trkpt>
      <trkpt lat="42.8613460" lon="-7.7825520">
        <ele>616.0</ele>
        <time>2020-10-19T11:23:14Z</time>
      </trkpt>
      <trkpt lat="42.8613560" lon="-7.7825590">
        <ele>616.0</ele>
        <time>2020-10-19T11:23:15Z</time>
      </trkpt>
      <trkpt lat="42.8613650" lon="-7.7825650">
        <ele>615.9</ele>
        <time>2020-10-19T11:23:16Z</time>
      </trkpt>
      <trkpt lat="42.8613720" lon="-7.7825700">
        <ele>615.9</ele>
        <time>2020-10-19T11:23:17Z</time>
      </trkpt>
      <trkpt lat="42.8613790" lon="-7.7825750">
        <ele>615.9</ele>
        <time>2020-10-19T11:23:18Z</time>
      </trkpt>
      <trkpt lat="42.8613860" lon="-7.7825820">
        <ele>615.8</ele>
        <time>2020-10-19T11:23:19Z</time>
      </trkpt>
      <trkpt lat="42.8613950" lon="-7.7825910">
        <ele>615.8</ele>
        <time>2020-10-19T11:23:20Z</time>
      </trkpt>
      <trkpt lat="42.8614020" lon="-7.7826020">
        <ele>615.7</ele>
        <time>2020-10-19T11:23:21Z</time>
      </trkpt>
      <trkpt lat="42.8614080" lon="-7.7826130">
        <ele>615.7</ele>
        <time>2020-10-19T11:23:22Z</time>
      </trkpt>
      <trkpt lat="42.8614140" lon="-7.7826240">
        <ele>615.7</ele>
        <time>2020-10-19T11:23:23Z</time>
      </trkpt>
      <trkpt lat="42.8614180" lon="-7.7826360">
        <ele>615.6</ele>
        <time>2020-10-19T11:23:24Z</time>
      </trkpt>
      <trkpt lat="42.8614230" lon="-7.7826480">
        <ele>615.5</ele>
        <time>2020-10-19T11:23:25Z</time>
      </trkpt>
      <trkpt lat="42.8614260" lon="-7.7826590">
        <ele>615.4</ele>
        <time>2020-10-19T11:23:26Z</time>
      </trkpt>
      <trkpt lat="42.8614300" lon="-7.7826670">
        <ele>615.3</ele>
        <time>2020-10-19T11:23:27Z</time>
      </trkpt>
      <trkpt lat="42.8614330" lon="-7.7826710">
        <ele>615.3</ele>
        <time>2020-10-19T11:23:28Z</time>
      </trkpt>
      <trkpt lat="42.8614350" lon="-7.7826730">
        <ele>615.3</ele>
        <time>2020-10-19T11:23:29Z</time>
      </trkpt>
      <trkpt lat="42.8614350" lon="-7.7826730">
        <ele>615.3</ele>
        <time>2020-10-19T11:23:30Z</time>
      </trkpt>
      <trkpt lat="42.8614350" lon="-7.7826740">
        <ele>615.3</ele>
        <time>2020-10-19T11:23:31Z</time>
      </trkpt>
      <trkpt lat="42.8614340" lon="-7.7826740">
        <ele>615.2</ele>
        <time>2020-10-19T11:23:32Z</time>
      </trkpt>
      <trkpt lat="42.8614340" lon="-7.7826750">
        <ele>615.2</ele>
        <time>2020-10-19T11:23:33Z</time>
      </trkpt>
      <trkpt lat="42.8614340" lon="-7.7826750">
        <ele>615.2</ele>
        <time>2020-10-19T11:23:34Z</time>
      </trkpt>
      <trkpt lat="42.8614330" lon="-7.7826760">
        <ele>615.2</ele>
        <time>2020-10-19T11:23:35Z</time>
      </trkpt>
      <trkpt lat="42.8614330" lon="-7.7826780">
        <ele>615.2</ele>
        <time>2020-10-19T11:23:36Z</time>
      </trkpt>
      <trkpt lat="42.8614330" lon="-7.7826820">
        <ele>615.2</ele>
        <time>2020-10-19T11:23:37Z</time>
      </trkpt>
      <trkpt lat="42.8614350" lon="-7.7826870">
        <ele>615.1</ele>
        <time>2020-10-19T11:23:38Z</time>
      </trkpt>
      <trkpt lat="42.8614370" lon="-7.7826940">
        <ele>615.1</ele>
        <time>2020-10-19T11:23:39Z</time>
      </trkpt>
      <trkpt lat="42.8614390" lon="-7.7827020">
        <ele>615.0</ele>
        <time>2020-10-19T11:23:40Z</time>
      </trkpt>
      <trkpt lat="42.8614400" lon="-7.7827100">
        <ele>614.9</ele>
        <time>2020-10-19T11:23:41Z</time>
      </trkpt>
      <trkpt lat="42.8614420" lon="-7.7827190">
        <ele>614.9</ele>
        <time>2020-10-19T11:23:42Z</time>
      </trkpt>
      <trkpt lat="42.8614440" lon="-7.7827280">
        <ele>614.8</ele>
        <time>2020-10-19T11:23:43Z</time>
      </trkpt>
      <trkpt lat="42.8614460" lon="-7.7827400">
        <ele>614.7</ele>
        <time>2020-10-19T11:23:44Z</time>
      </trkpt>
      <trkpt lat="42.8614500" lon="-7.7827540">
        <ele>614.5</ele>
        <time>2020-10-19T11:23:45Z</time>
      </trkpt>
      <trkpt lat="42.8614530" lon="-7.7827660">
        <ele>614.4</ele>
        <time>2020-10-19T11:23:46Z</time>
      </trkpt>
      <trkpt lat="42.8614590" lon="-7.7827800">
        <ele>614.2</ele>
        <time>2020-10-19T11:23:47Z</time>
      </trkpt>
      <trkpt lat="42.8614640" lon="-7.7827930">
        <ele>614.1</ele>
        <time>2020-10-19T11:23:48Z</time>
      </trkpt>
      <trkpt lat="42.8614710" lon="-7.7828090">
        <ele>613.9</ele>
        <time>2020-10-19T11:23:49Z</time>
      </trkpt>
      <trkpt lat="42.8614760" lon="-7.7828240">
        <ele>613.7</ele>
        <time>2020-10-19T11:23:50Z</time>
      </trkpt>
      <trkpt lat="42.8614790" lon="-7.7828390">
        <ele>613.5</ele>
        <time>2020-10-19T11:23:51Z</time>
      </trkpt>
      <trkpt lat="42.8614820" lon="-7.7828540">
        <ele>613.4</ele>
        <time>2020-10-19T11:23:52Z</time>
      </trkpt>
      <trkpt lat="42.8614860" lon="-7.7828690">
        <ele>613.2</ele>
        <time>2020-10-19T11:23:53Z</time>
      </trkpt>
      <trkpt lat="42.8614910" lon="-7.7828840">
        <ele>613.0</ele>
        <time>2020-10-19T11:23:54Z</time>
      </trkpt>
      <trkpt lat="42.8614940" lon="-7.7828970">
        <ele>612.8</ele>
        <time>2020-10-19T11:23:55Z</time>
      </trkpt>
      <trkpt lat="42.8614990" lon="-7.7829100">
        <ele>612.7</ele>
        <time>2020-10-19T11:23:56Z</time>
      </trkpt>
      <trkpt lat="42.8615040" lon="-7.7829240">
        <ele>612.5</ele>
        <time>2020-10-19T11:23:57Z</time>
      </trkpt>
      <trkpt lat="42.8615090" lon="-7.7829380">
        <ele>612.3</ele>
        <time>2020-10-19T11:23:58Z</time>
      </trkpt>
      <trkpt lat="42.8615140" lon="-7.7829500">
        <ele>612.2</ele>
        <time>2020-10-19T11:23:59Z</time>
      </trkpt>
      <trkpt lat="42.8615210" lon="-7.7829590">
        <ele>612.0</ele>
        <time>2020-10-19T11:24:00Z</time>
      </trkpt>
      <trkpt lat="42.8615300" lon="-7.7829660">
        <ele>611.9</ele>
        <time>2020-10-19T11:24:01Z</time>
      </trkpt>
      <trkpt lat="42.8615400" lon="-7.7829740">
        <ele>611.7</ele>
        <time>2020-10-19T11:24:02Z</time>
      </trkpt>
      <trkpt lat="42.8615500" lon="-7.7829830">
        <ele>611.5</ele>
        <time>2020-10-19T11:24:03Z</time>
      </trkpt>
      <trkpt lat="42.8615610" lon="-7.7829930">
        <ele>611.4</ele>
        <time>2020-10-19T11:24:04Z</time>
      </trkpt>
      <trkpt lat="42.8615700" lon="-7.7830040">
        <ele>611.2</ele>
        <time>2020-10-19T11:24:05Z</time>
      </trkpt>
      <trkpt lat="42.8615790" lon="-7.7830130">
        <ele>611.0</ele>
        <time>2020-10-19T11:24:06Z</time>
      </trkpt>
      <trkpt lat="42.8615890" lon="-7.7830210">
        <ele>610.9</ele>
        <time>2020-10-19T11:24:07Z</time>
      </trkpt>
      <trkpt lat="42.8615990" lon="-7.7830280">
        <ele>610.7</ele>
        <time>2020-10-19T11:24:08Z</time>
      </trkpt>
      <trkpt lat="42.8616100" lon="-7.7830360">
        <ele>610.5</ele>
        <time>2020-10-19T11:24:09Z</time>
      </trkpt>
      <trkpt lat="42.8616180" lon="-7.7830450">
        <ele>610.4</ele>
        <time>2020-10-19T11:24:10Z</time>
      </trkpt>
      <trkpt lat="42.8616240" lon="-7.7830520">
        <ele>610.3</ele>
        <time>2020-10-19T11:24:11Z</time>
      </trkpt>
      <trkpt lat="42.8616270" lon="-7.7830560">
        <ele>610.2</ele>
        <time>2020-10-19T11:24:12Z</time>
      </trkpt>
      <trkpt lat="42.8616280" lon="-7.7830580">
        <ele>610.2</ele>
        <time>2020-10-19T11:24:13Z</time>
      </trkpt>
      <trkpt lat="42.8616280" lon="-7.7830590">
        <ele>610.2</ele>
        <time>2020-10-19T11:24:14Z</time>
      </trkpt>
      <trkpt lat="42.8616280" lon="-7.7830590">
        <ele>610.2</ele>
        <time>2020-10-19T11:24:15Z</time>
      </trkpt>
      <trkpt lat="42.8616300" lon="-7.7830620">
        <ele>610.1</ele>
        <time>2020-10-19T11:24:16Z</time>
      </trkpt>
      <trkpt lat="42.8616350" lon="-7.7830660">
        <ele>610.1</ele>
        <time>2020-10-19T11:24:17Z</time>
      </trkpt>
      <trkpt lat="42.8616400" lon="-7.7830710">
        <ele>610.0</ele>
        <time>2020-10-19T11:24:18Z</time>
      </trkpt>
      <trkpt lat="42.8616460" lon="-7.7830770">
        <ele>609.9</ele>
        <time>2020-10-19T11:24:19Z</time>
      </trkpt>
      <trkpt lat="42.8616520" lon="-7.7830820">
        <ele>609.8</ele>
        <time>2020-10-19T11:24:20Z</time>
      </trkpt>
      <trkpt lat="42.8616580" lon="-7.7830880">
        <ele>609.7</ele>
        <time>2020-10-19T11:24:21Z</time>
      </trkpt>
      <trkpt lat="42.8616630" lon="-7.7830930">
        <ele>609.6</ele>
        <time>2020-10-19T11:24:22Z</time>
      </trkpt>
      <trkpt lat="42.8616680" lon="-7.7830960">
        <ele>609.5</ele>
        <time>2020-10-19T11:24:23Z</time>
      </trkpt>
      <trkpt lat="42.8616730" lon="-7.7830970">
        <ele>609.4</ele>
        <time>2020-10-19T11:24:24Z</time>
      </trkpt>
      <trkpt lat="42.8616780" lon="-7.7831000">
        <ele>609.4</ele>
        <time>2020-10-19T11:24:25Z</time>
      </trkpt>
      <trkpt lat="42.8616830" lon="-7.7831030">
        <ele>609.3</ele>
        <time>2020-10-19T11:24:26Z</time>
      </trkpt>
      <trkpt lat="42.8616890" lon="-7.7831070">
        <ele>609.2</ele>
        <time>2020-10-19T11:24:27Z</time>
      </trkpt>
      <trkpt lat="42.8616950" lon="-7.7831110">
        <ele>609.1</ele>
        <time>2020-10-19T11:24:28Z</time>
      </trkpt>
      <trkpt lat="42.8617000" lon="-7.7831140">
        <ele>609.0</ele>
        <time>2020-10-19T11:24:29Z</time>
      </trkpt>
      <trkpt lat="42.8617020" lon="-7.7831150">
        <ele>609.0</ele>
        <time>2020-10-19T11:24:30Z</time>
      </trkpt>
      <trkpt lat="42.8617020" lon="-7.7831140">
        <ele>609.0</ele>
        <time>2020-10-19T11:24:31Z</time>
      </trkpt>
      <trkpt lat="42.8617030" lon="-7.7831140">
        <ele>609.0</ele>
        <time>2020-10-19T11:24:32Z</time>
      </trkpt>
      <trkpt lat="42.8617040" lon="-7.7831140">
        <ele>608.9</ele>
        <time>2020-10-19T11:24:33Z</time>
      </trkpt>
      <trkpt lat="42.8617060" lon="-7.7831150">
        <ele>608.9</ele>
        <time>2020-10-19T11:24:34Z</time>
      </trkpt>
      <trkpt lat="42.8617090" lon="-7.7831170">
        <ele>608.9</ele>
        <time>2020-10-19T11:24:35Z</time>
      </trkpt>
      <trkpt lat="42.8617140" lon="-7.7831220">
        <ele>608.8</ele>
        <time>2020-10-19T11:24:36Z</time>
      </trkpt>
      <trkpt lat="42.8617230" lon="-7.7831280">
        <ele>608.6</ele>
        <time>2020-10-19T11:24:37Z</time>
      </trkpt>
      <trkpt lat="42.8617300" lon="-7.7831340">
        <ele>608.5</ele>
        <time>2020-10-19T11:24:38Z</time>
      </trkpt>
      <trkpt lat="42.8617380" lon="-7.7831410">
        <ele>608.4</ele>
        <time>2020-10-19T11:24:39Z</time>
      </trkpt>
      <trkpt lat="42.8617430" lon="-7.7831460">
        <ele>608.3</ele>
        <time>2020-10-19T11:24:40Z</time>
      </trkpt>
      <trkpt lat="42.8617500" lon="-7.7831520">
        <ele>608.1</ele>
        <time>2020-10-19T11:24:41Z</time>
      </trkpt>
      <trkpt lat="42.8617560" lon="-7.7831570">
        <ele>608.0</ele>
        <time>2020-10-19T11:24:42Z</time>
      </trkpt>
      <trkpt lat="42.8617620" lon="-7.7831630">
        <ele>607.9</ele>
        <time>2020-10-19T11:24:43Z</time>
      </trkpt>
      <trkpt lat="42.8617700" lon="-7.7831680">
        <ele>607.8</ele>
        <time>2020-10-19T11:24:44Z</time>
      </trkpt>
      <trkpt lat="42.8617760" lon="-7.7831730">
        <ele>607.7</ele>
        <time>2020-10-19T11:24:45Z</time>
      </trkpt>
      <trkpt lat="42.8617820" lon="-7.7831770">
        <ele>607.6</ele>
        <time>2020-10-19T11:24:46Z</time>
      </trkpt>
      <trkpt lat="42.8617860" lon="-7.7831820">
        <ele>607.5</ele>
        <time>2020-10-19T11:24:47Z</time>
      </trkpt>
      <trkpt lat="42.8617920" lon="-7.7831880">
        <ele>607.4</ele>
        <time>2020-10-19T11:24:48Z</time>
      </trkpt>
      <trkpt lat="42.8617970" lon="-7.7831950">
        <ele>607.3</ele>
        <time>2020-10-19T11:24:49Z</time>
      </trkpt>
      <trkpt lat="42.8618070" lon="-7.7832010">
        <ele>607.1</ele>
        <time>2020-10-19T11:24:50Z</time>
      </trkpt>
      <trkpt lat="42.8618180" lon="-7.7832090">
        <ele>606.9</ele>
        <time>2020-10-19T11:24:51Z</time>
      </trkpt>
      <trkpt lat="42.8618290" lon="-7.7832150">
        <ele>606.8</ele>
        <time>2020-10-19T11:24:52Z</time>
      </trkpt>
      <trkpt lat="42.8618400" lon="-7.7832210">
        <ele>606.6</ele>
        <time>2020-10-19T11:24:53Z</time>
      </trkpt>
      <trkpt lat="42.8618510" lon="-7.7832260">
        <ele>606.4</ele>
        <time>2020-10-19T11:24:54Z</time>
      </trkpt>
      <trkpt lat="42.8618660" lon="-7.7832310">
        <ele>606.2</ele>
        <time>2020-10-19T11:24:55Z</time>
      </trkpt>
      <trkpt lat="42.8618800" lon="-7.7832370">
        <ele>605.9</ele>
        <time>2020-10-19T11:24:56Z</time>
      </trkpt>
      <trkpt lat="42.8618920" lon="-7.7832450">
        <ele>605.7</ele>
        <time>2020-10-19T11:24:57Z</time>
      </trkpt>
      <trkpt lat="42.8619000" lon="-7.7832530">
        <ele>605.6</ele>
        <time>2020-10-19T11:24:58Z</time>
      </trkpt>
      <trkpt lat="42.8619070" lon="-7.7832590">
        <ele>605.5</ele>
        <time>2020-10-19T11:24:59Z</time>
      </trkpt>
      <trkpt lat="42.8619140" lon="-7.7832640">
        <ele>605.4</ele>
        <time>2020-10-19T11:25:00Z</time>
      </trkpt>
      <trkpt lat="42.8619210" lon="-7.7832660">
        <ele>605.2</ele>
        <time>2020-10-19T11:25:01Z</time>
      </trkpt>
      <trkpt lat="42.8619280" lon="-7.7832690">
        <ele>605.1</ele>
        <time>2020-10-19T11:25:02Z</time>
      </trkpt>
      <trkpt lat="42.8619350" lon="-7.7832710">
        <ele>605.0</ele>
        <time>2020-10-19T11:25:03Z</time>
      </trkpt>
      <trkpt lat="42.8619420" lon="-7.7832750">
        <ele>604.9</ele>
        <time>2020-10-19T11:25:04Z</time>
      </trkpt>
      <trkpt lat="42.8619460" lon="-7.7832780">
        <ele>604.8</ele>
        <time>2020-10-19T11:25:05Z</time>
      </trkpt>
      <trkpt lat="42.8619460" lon="-7.7832790">
        <ele>604.8</ele>
        <time>2020-10-19T11:25:06Z</time>
      </trkpt>
      <trkpt lat="42.8619440" lon="-7.7832790">
        <ele>604.8</ele>
        <time>2020-10-19T11:25:07Z</time>
      </trkpt>
      <trkpt lat="42.8619430" lon="-7.7832790">
        <ele>604.8</ele>
        <time>2020-10-19T11:25:08Z</time>
      </trkpt>
      <trkpt lat="42.8619460" lon="-7.7832790">
        <ele>604.7</ele>
        <time>2020-10-19T11:25:09Z</time>
      </trkpt>
      <trkpt lat="42.8619490" lon="-7.7832790">
        <ele>604.7</ele>
        <time>2020-10-19T11:25:10Z</time>
      </trkpt>
      <trkpt lat="42.8619530" lon="-7.7832790">
        <ele>604.6</ele>
        <time>2020-10-19T11:25:11Z</time>
      </trkpt>
      <trkpt lat="42.8619570" lon="-7.7832800">
        <ele>604.6</ele>
        <time>2020-10-19T11:25:12Z</time>
      </trkpt>
      <trkpt lat="42.8619620" lon="-7.7832820">
        <ele>604.5</ele>
        <time>2020-10-19T11:25:13Z</time>
      </trkpt>
      <trkpt lat="42.8619660" lon="-7.7832840">
        <ele>604.4</ele>
        <time>2020-10-19T11:25:14Z</time>
      </trkpt>
      <trkpt lat="42.8619720" lon="-7.7832850">
        <ele>604.3</ele>
        <time>2020-10-19T11:25:15Z</time>
      </trkpt>
      <trkpt lat="42.8619770" lon="-7.7832870">
        <ele>604.2</ele>
        <time>2020-10-19T11:25:16Z</time>
      </trkpt>
      <trkpt lat="42.8619840" lon="-7.7832900">
        <ele>604.1</ele>
        <time>2020-10-19T11:25:17Z</time>
      </trkpt>
      <trkpt lat="42.8619900" lon="-7.7832940">
        <ele>604.0</ele>
        <time>2020-10-19T11:25:18Z</time>
      </trkpt>
      <trkpt lat="42.8619970" lon="-7.7833000">
        <ele>603.9</ele>
        <time>2020-10-19T11:25:19Z</time>
      </trkpt>
      <trkpt lat="42.8620000" lon="-7.7833020">
        <ele>603.8</ele>
        <time>2020-10-19T11:25:20Z</time>
      </trkpt>
      <trkpt lat="42.8620010" lon="-7.7833040">
        <ele>603.8</ele>
        <time>2020-10-19T11:25:21Z</time>
      </trkpt>
      <trkpt lat="42.8620000" lon="-7.7833020">
        <ele>603.8</ele>
        <time>2020-10-19T11:25:22Z</time>
      </trkpt>
      <trkpt lat="42.8620010" lon="-7.7833030">
        <ele>603.7</ele>
        <time>2020-10-19T11:25:23Z</time>
      </trkpt>
      <trkpt lat="42.8620030" lon="-7.7833060">
        <ele>603.7</ele>
        <time>2020-10-19T11:25:24Z</time>
      </trkpt>
      <trkpt lat="42.8620070" lon="-7.7833110">
        <ele>603.6</ele>
        <time>2020-10-19T11:25:25Z</time>
      </trkpt>
      <trkpt lat="42.8620120" lon="-7.7833150">
        <ele>603.5</ele>
        <time>2020-10-19T11:25:26Z</time>
      </trkpt>
      <trkpt lat="42.8620170" lon="-7.7833170">
        <ele>603.5</ele>
        <time>2020-10-19T11:25:27Z</time>
      </trkpt>
      <trkpt lat="42.8620190" lon="-7.7833180">
        <ele>603.4</ele>
        <time>2020-10-19T11:25:28Z</time>
      </trkpt>
      <trkpt lat="42.8620210" lon="-7.7833180">
        <ele>603.4</ele>
        <time>2020-10-19T11:25:29Z</time>
      </trkpt>
      <trkpt lat="42.8620220" lon="-7.7833190">
        <ele>603.4</ele>
        <time>2020-10-19T11:25:30Z</time>
      </trkpt>
      <trkpt lat="42.8620240" lon="-7.7833200">
        <ele>603.3</ele>
        <time>2020-10-19T11:25:31Z</time>
      </trkpt>
      <trkpt lat="42.8620260" lon="-7.7833210">
        <ele>603.3</ele>
        <time>2020-10-19T11:25:32Z</time>
      </trkpt>
      <trkpt lat="42.8620270" lon="-7.7833220">
        <ele>603.3</ele>
        <time>2020-10-19T11:25:33Z</time>
      </trkpt>
      <trkpt lat="42.8620290" lon="-7.7833230">
        <ele>603.3</ele>
        <time>2020-10-19T11:25:34Z</time>
      </trkpt>
      <trkpt lat="42.8620300" lon="-7.7833230">
        <ele>603.2</ele>
        <time>2020-10-19T11:25:35Z</time>
      </trkpt>
      <trkpt lat="42.8620330" lon="-7.7833230">
        <ele>603.2</ele>
        <time>2020-10-19T11:25:36Z</time>
      </trkpt>
      <trkpt lat="42.8620350" lon="-7.7833220">
        <ele>603.2</ele>
        <time>2020-10-19T11:25:37Z</time>
      </trkpt>
      <trkpt lat="42.8620370" lon="-7.7833220">
        <ele>603.1</ele>
        <time>2020-10-19T11:25:38Z</time>
      </trkpt>
      <trkpt lat="42.8620380" lon="-7.7833220">
        <ele>603.1</ele>
        <time>2020-10-19T11:25:39Z</time>
      </trkpt>
      <trkpt lat="42.8620400" lon="-7.7833220">
        <ele>603.1</ele>
        <time>2020-10-19T11:25:40Z</time>
      </trkpt>
      <trkpt lat="42.8620410" lon="-7.7833220">
        <ele>603.1</ele>
        <time>2020-10-19T11:25:41Z</time>
      </trkpt>
      <trkpt lat="42.8620440" lon="-7.7833230">
        <ele>603.0</ele>
        <time>2020-10-19T11:25:42Z</time>
      </trkpt>
      <trkpt lat="42.8620450" lon="-7.7833230">
        <ele>603.0</ele>
        <time>2020-10-19T11:25:43Z</time>
      </trkpt>
      <trkpt lat="42.8620460" lon="-7.7833240">
        <ele>603.0</ele>
        <time>2020-10-19T11:25:44Z</time>
      </trkpt>
      <trkpt lat="42.8620470" lon="-7.7833240">
        <ele>603.0</ele>
        <time>2020-10-19T11:25:45Z</time>
      </trkpt>
      <trkpt lat="42.8620470" lon="-7.7833240">
        <ele>603.0</ele>
        <time>2020-10-19T11:25:46Z</time>
      </trkpt>
      <trkpt lat="42.8620470" lon="-7.7833250">
        <ele>603.0</ele>
        <time>2020-10-19T11:25:47Z</time>
      </trkpt>
      <trkpt lat="42.8620480" lon="-7.7833260">
        <ele>603.0</ele>
        <time>2020-10-19T11:25:48Z</time>
      </trkpt>
      <trkpt lat="42.8620500" lon="-7.7833250">
        <ele>602.9</ele>
        <time>2020-10-19T11:25:49Z</time>
      </trkpt>
      <trkpt lat="42.8620530" lon="-7.7833220">
        <ele>602.9</ele>
        <time>2020-10-19T11:25:50Z</time>
      </trkpt>
      <trkpt lat="42.8620540" lon="-7.7833200">
        <ele>602.9</ele>
        <time>2020-10-19T11:25:51Z</time>
      </trkpt>
      <trkpt lat="42.8620540" lon="-7.7833190">
        <ele>602.8</ele>
        <time>2020-10-19T11:25:52Z</time>
      </trkpt>
      <trkpt lat="42.8620550" lon="-7.7833180">
        <ele>602.8</ele>
        <time>2020-10-19T11:25:53Z</time>
      </trkpt>
      <trkpt lat="42.8620550" lon="-7.7833170">
        <ele>602.8</ele>
        <time>2020-10-19T11:25:54Z</time>
      </trkpt>
      <trkpt lat="42.8620560" lon="-7.7833160">
        <ele>602.8</ele>
        <time>2020-10-19T11:25:55Z</time>
      </trkpt>
      <trkpt lat="42.8620560" lon="-7.7833150">
        <ele>602.8</ele>
        <time>2020-10-19T11:25:56Z</time>
      </trkpt>
      <trkpt lat="42.8620560" lon="-7.7833150">
        <ele>602.8</ele>
        <time>2020-10-19T11:25:57Z</time>
      </trkpt>
      <trkpt lat="42.8620560" lon="-7.7833140">
        <ele>602.8</ele>
        <time>2020-10-19T11:25:58Z</time>
      </trkpt>
      <trkpt lat="42.8620560" lon="-7.7833140">
        <ele>602.8</ele>
        <time>2020-10-19T11:25:59Z</time>
      </trkpt>
      <trkpt lat="42.8620570" lon="-7.7833140">
        <ele>602.8</ele>
        <time>2020-10-19T11:26:00Z</time>
      </trkpt>
      <trkpt lat="42.8620570" lon="-7.7833160">
        <ele>602.8</ele>
        <time>2020-10-19T11:26:01Z</time>
      </trkpt>
      <trkpt lat="42.8620570" lon="-7.7833170">
        <ele>602.7</ele>
        <time>2020-10-19T11:26:02Z</time>
      </trkpt>
      <trkpt lat="42.8620560" lon="-7.7833190">
        <ele>602.7</ele>
        <time>2020-10-19T11:26:03Z</time>
      </trkpt>
      <trkpt lat="42.8620560" lon="-7.7833200">
        <ele>602.7</ele>
        <time>2020-10-19T11:26:04Z</time>
      </trkpt>
      <trkpt lat="42.8620570" lon="-7.7833200">
        <ele>602.7</ele>
        <time>2020-10-19T11:26:05Z</time>
      </trkpt>
      <trkpt lat="42.8620560" lon="-7.7833200">
        <ele>602.7</ele>
        <time>2020-10-19T11:26:06Z</time>
      </trkpt>
      <trkpt lat="42.8620560" lon="-7.7833200">
        <ele>602.7</ele>
        <time>2020-10-19T11:26:07Z</time>
      </trkpt>
      <trkpt lat="42.8620570" lon="-7.7833200">
        <ele>602.7</ele>
        <time>2020-10-19T11:26:08Z</time>
      </trkpt>
      <trkpt lat="42.8620570" lon="-7.7833190">
        <ele>602.7</ele>
        <time>2020-10-19T11:26:09Z</time>
      </trkpt>
      <trkpt lat="42.8620580" lon="-7.7833190">
        <ele>602.6</ele>
        <time>2020-10-19T11:26:10Z</time>
      </trkpt>
      <trkpt lat="42.8620590" lon="-7.7833190">
        <ele>602.6</ele>
        <time>2020-10-19T11:26:11Z</time>
      </trkpt>
      <trkpt lat="42.8620590" lon="-7.7833190">
        <ele>602.6</ele>
        <time>2020-10-19T11:26:12Z</time>
      </trkpt>
      <trkpt lat="42.8620600" lon="-7.7833190">
        <ele>602.6</ele>
        <time>2020-10-19T11:26:13Z</time>
      </trkpt>
      <trkpt lat="42.8620610" lon="-7.7833190">
        <ele>602.6</ele>
        <time>2020-10-19T11:26:14Z</time>
      </trkpt>
      <trkpt lat="42.8620620" lon="-7.7833190">
        <ele>602.6</ele>
        <time>2020-10-19T11:26:15Z</time>
      </trkpt>
      <trkpt lat="42.8620630" lon="-7.7833180">
        <ele>602.6</ele>
        <time>2020-10-19T11:26:16Z</time>
      </trkpt>
      <trkpt lat="42.8620630" lon="-7.7833160">
        <ele>602.6</ele>
        <time>2020-10-19T11:26:17Z</time>
      </trkpt>
      <trkpt lat="42.8620630" lon="-7.7833150">
        <ele>602.6</ele>
        <time>2020-10-19T11:26:18Z</time>
      </trkpt>
      <trkpt lat="42.8620630" lon="-7.7833140">
        <ele>602.5</ele>
        <time>2020-10-19T11:26:19Z</time>
      </trkpt>
      <trkpt lat="42.8620630" lon="-7.7833140">
        <ele>602.5</ele>
        <time>2020-10-19T11:26:20Z</time>
      </trkpt>
      <trkpt lat="42.8620630" lon="-7.7833140">
        <ele>602.5</ele>
        <time>2020-10-19T11:26:21Z</time>
      </trkpt>
      <trkpt lat="42.8620650" lon="-7.7833150">
        <ele>602.5</ele>
        <time>2020-10-19T11:26:22Z</time>
      </trkpt>
      <trkpt lat="42.8620680" lon="-7.7833170">
        <ele>602.5</ele>
        <time>2020-10-19T11:26:23Z</time>
      </trkpt>
      <trkpt lat="42.8620710" lon="-7.7833210">
        <ele>602.4</ele>
        <time>2020-10-19T11:26:24Z</time>
      </trkpt>
      <trkpt lat="42.8620760" lon="-7.7833250">
        <ele>602.3</ele>
        <time>2020-10-19T11:26:25Z</time>
      </trkpt>
      <trkpt lat="42.8620820" lon="-7.7833280">
        <ele>602.3</ele>
        <time>2020-10-19T11:26:26Z</time>
      </trkpt>
      <trkpt lat="42.8620900" lon="-7.7833310">
        <ele>602.2</ele>
        <time>2020-10-19T11:26:27Z</time>
      </trkpt>
      <trkpt lat="42.8620990" lon="-7.7833350">
        <ele>602.1</ele>
        <time>2020-10-19T11:26:28Z</time>
      </trkpt>
      <trkpt lat="42.8621100" lon="-7.7833390">
        <ele>602.0</ele>
        <time>2020-10-19T11:26:29Z</time>
      </trkpt>
      <trkpt lat="42.8621200" lon="-7.7833430">
        <ele>601.8</ele>
        <time>2020-10-19T11:26:30Z</time>
      </trkpt>
      <trkpt lat="42.8621290" lon="-7.7833490">
        <ele>601.7</ele>
        <time>2020-10-19T11:26:31Z</time>
      </trkpt>
      <trkpt lat="42.8621370" lon="-7.7833570">
        <ele>601.7</ele>
        <time>2020-10-19T11:26:32Z</time>
      </trkpt>
      <trkpt lat="42.8621430" lon="-7.7833670">
        <ele>601.6</ele>
        <time>2020-10-19T11:26:33Z</time>
      </trkpt>
      <trkpt lat="42.8621510" lon="-7.7833780">
        <ele>601.5</ele>
        <time>2020-10-19T11:26:34Z</time>
      </trkpt>
      <trkpt lat="42.8621620" lon="-7.7833900">
        <ele>601.4</ele>
        <time>2020-10-19T11:26:35Z</time>
      </trkpt>
      <trkpt lat="42.8621740" lon="-7.7834020">
        <ele>601.4</ele>
        <time>2020-10-19T11:26:36Z</time>
      </trkpt>
      <trkpt lat="42.8621820" lon="-7.7834120">
        <ele>601.3</ele>
        <time>2020-10-19T11:26:37Z</time>
      </trkpt>
      <trkpt lat="42.8621870" lon="-7.7834190">
        <ele>601.3</ele>
        <time>2020-10-19T11:26:38Z</time>
      </trkpt>
      <trkpt lat="42.8621880" lon="-7.7834220">
        <ele>601.3</ele>
        <time>2020-10-19T11:26:39Z</time>
      </trkpt>
      <trkpt lat="42.8621900" lon="-7.7834240">
        <ele>601.2</ele>
        <time>2020-10-19T11:26:40Z</time>
      </trkpt>
      <trkpt lat="42.8621920" lon="-7.7834260">
        <ele>601.2</ele>
        <time>2020-10-19T11:26:41Z</time>
      </trkpt>
      <trkpt lat="42.8621950" lon="-7.7834300">
        <ele>601.2</ele>
        <time>2020-10-19T11:26:42Z</time>
      </trkpt>
      <trkpt lat="42.8622000" lon="-7.7834390">
        <ele>601.2</ele>
        <time>2020-10-19T11:26:43Z</time>
      </trkpt>
      <trkpt lat="42.8622060" lon="-7.7834510">
        <ele>601.1</ele>
        <time>2020-10-19T11:26:44Z</time>
      </trkpt>
      <trkpt lat="42.8622120" lon="-7.7834640">
        <ele>601.1</ele>
        <time>2020-10-19T11:26:45Z</time>
      </trkpt>
      <trkpt lat="42.8622160" lon="-7.7834760">
        <ele>601.0</ele>
        <time>2020-10-19T11:26:46Z</time>
      </trkpt>
      <trkpt lat="42.8622210" lon="-7.7834880">
        <ele>601.0</ele>
        <time>2020-10-19T11:26:47Z</time>
      </trkpt>
      <trkpt lat="42.8622260" lon="-7.7835010">
        <ele>600.9</ele>
        <time>2020-10-19T11:26:48Z</time>
      </trkpt>
      <trkpt lat="42.8622310" lon="-7.7835140">
        <ele>600.9</ele>
        <time>2020-10-19T11:26:49Z</time>
      </trkpt>
      <trkpt lat="42.8622350" lon="-7.7835260">
        <ele>600.9</ele>
        <time>2020-10-19T11:26:50Z</time>
      </trkpt>
      <trkpt lat="42.8622390" lon="-7.7835390">
        <ele>600.8</ele>
        <time>2020-10-19T11:26:51Z</time>
      </trkpt>
      <trkpt lat="42.8622420" lon="-7.7835500">
        <ele>600.8</ele>
        <time>2020-10-19T11:26:52Z</time>
      </trkpt>
      <trkpt lat="42.8622460" lon="-7.7835600">
        <ele>600.8</ele>
        <time>2020-10-19T11:26:53Z</time>
      </trkpt>
      <trkpt lat="42.8622500" lon="-7.7835720">
        <ele>600.7</ele>
        <time>2020-10-19T11:26:54Z</time>
      </trkpt>
      <trkpt lat="42.8622560" lon="-7.7835860">
        <ele>600.7</ele>
        <time>2020-10-19T11:26:55Z</time>
      </trkpt>
      <trkpt lat="42.8622620" lon="-7.7836010">
        <ele>600.7</ele>
        <time>2020-10-19T11:26:56Z</time>
      </trkpt>
      <trkpt lat="42.8622660" lon="-7.7836140">
        <ele>600.6</ele>
        <time>2020-10-19T11:26:57Z</time>
      </trkpt>
      <trkpt lat="42.8622680" lon="-7.7836260">
        <ele>600.6</ele>
        <time>2020-10-19T11:26:58Z</time>
      </trkpt>
      <trkpt lat="42.8622730" lon="-7.7836380">
        <ele>600.6</ele>
        <time>2020-10-19T11:26:59Z</time>
      </trkpt>
      <trkpt lat="42.8622770" lon="-7.7836490">
        <ele>600.6</ele>
        <time>2020-10-19T11:27:00Z</time>
      </trkpt>
      <trkpt lat="42.8622830" lon="-7.7836600">
        <ele>600.6</ele>
        <time>2020-10-19T11:27:01Z</time>
      </trkpt>
      <trkpt lat="42.8622880" lon="-7.7836710">
        <ele>600.6</ele>
        <time>2020-10-19T11:27:02Z</time>
      </trkpt>
      <trkpt lat="42.8622920" lon="-7.7836840">
        <ele>600.6</ele>
        <time>2020-10-19T11:27:03Z</time>
      </trkpt>
      <trkpt lat="42.8622940" lon="-7.7836980">
        <ele>600.6</ele>
        <time>2020-10-19T11:27:04Z</time>
      </trkpt>
      <trkpt lat="42.8622970" lon="-7.7837140">
        <ele>600.6</ele>
        <time>2020-10-19T11:27:05Z</time>
      </trkpt>
      <trkpt lat="42.8623010" lon="-7.7837280">
        <ele>600.6</ele>
        <time>2020-10-19T11:27:06Z</time>
      </trkpt>
      <trkpt lat="42.8623060" lon="-7.7837420">
        <ele>600.6</ele>
        <time>2020-10-19T11:27:07Z</time>
      </trkpt>
      <trkpt lat="42.8623100" lon="-7.7837560">
        <ele>600.6</ele>
        <time>2020-10-19T11:27:08Z</time>
      </trkpt>
      <trkpt lat="42.8623150" lon="-7.7837700">
        <ele>600.6</ele>
        <time>2020-10-19T11:27:09Z</time>
      </trkpt>
      <trkpt lat="42.8623200" lon="-7.7837840">
        <ele>600.6</ele>
        <time>2020-10-19T11:27:10Z</time>
      </trkpt>
      <trkpt lat="42.8623240" lon="-7.7837980">
        <ele>600.6</ele>
        <time>2020-10-19T11:27:11Z</time>
      </trkpt>
      <trkpt lat="42.8623290" lon="-7.7838130">
        <ele>600.7</ele>
        <time>2020-10-19T11:27:12Z</time>
      </trkpt>
      <trkpt lat="42.8623330" lon="-7.7838280">
        <ele>600.7</ele>
        <time>2020-10-19T11:27:13Z</time>
      </trkpt>
      <trkpt lat="42.8623380" lon="-7.7838440">
        <ele>600.7</ele>
        <time>2020-10-19T11:27:14Z</time>
      </trkpt>
      <trkpt lat="42.8623430" lon="-7.7838590">
        <ele>600.8</ele>
        <time>2020-10-19T11:27:15Z</time>
      </trkpt>
      <trkpt lat="42.8623480" lon="-7.7838730">
        <ele>600.8</ele>
        <time>2020-10-19T11:27:16Z</time>
      </trkpt>
      <trkpt lat="42.8623510" lon="-7.7838850">
        <ele>600.8</ele>
        <time>2020-10-19T11:27:17Z</time>
      </trkpt>
      <trkpt lat="42.8623540" lon="-7.7838940">
        <ele>600.9</ele>
        <time>2020-10-19T11:27:18Z</time>
      </trkpt>
      <trkpt lat="42.8623590" lon="-7.7839020">
        <ele>600.9</ele>
        <time>2020-10-19T11:27:19Z</time>
      </trkpt>
      <trkpt lat="42.8623640" lon="-7.7839130">
        <ele>600.9</ele>
        <time>2020-10-19T11:27:20Z</time>
      </trkpt>
      <trkpt lat="42.8623690" lon="-7.7839270">
        <ele>601.0</ele>
        <time>2020-10-19T11:27:21Z</time>
      </trkpt>
      <trkpt lat="42.8623710" lon="-7.7839440">
        <ele>601.0</ele>
        <time>2020-10-19T11:27:22Z</time>
      </trkpt>
      <trkpt lat="42.8623730" lon="-7.7839600">
        <ele>601.1</ele>
        <time>2020-10-19T11:27:23Z</time>
      </trkpt>
      <trkpt lat="42.8623750" lon="-7.7839760">
        <ele>601.2</ele>
        <time>2020-10-19T11:27:24Z</time>
      </trkpt>
      <trkpt lat="42.8623770" lon="-7.7839920">
        <ele>601.2</ele>
        <time>2020-10-19T11:27:25Z</time>
      </trkpt>
      <trkpt lat="42.8623800" lon="-7.7840070">
        <ele>601.3</ele>
        <time>2020-10-19T11:27:26Z</time>
      </trkpt>
      <trkpt lat="42.8623830" lon="-7.7840220">
        <ele>601.4</ele>
        <time>2020-10-19T11:27:27Z</time>
      </trkpt>
      <trkpt lat="42.8623870" lon="-7.7840380">
        <ele>601.4</ele>
        <time>2020-10-19T11:27:28Z</time>
      </trkpt>
      <trkpt lat="42.8623910" lon="-7.7840530">
        <ele>601.5</ele>
        <time>2020-10-19T11:27:29Z</time>
      </trkpt>
      <trkpt lat="42.8623960" lon="-7.7840670">
        <ele>601.6</ele>
        <time>2020-10-19T11:27:30Z</time>
      </trkpt>
      <trkpt lat="42.8624000" lon="-7.7840810">
        <ele>601.7</ele>
        <time>2020-10-19T11:27:31Z</time>
      </trkpt>
      <trkpt lat="42.8624040" lon="-7.7840950">
        <ele>601.8</ele>
        <time>2020-10-19T11:27:32Z</time>
      </trkpt>
      <trkpt lat="42.8624080" lon="-7.7841090">
        <ele>601.8</ele>
        <time>2020-10-19T11:27:33Z</time>
      </trkpt>
      <trkpt lat="42.8624120" lon="-7.7841210">
        <ele>601.9</ele>
        <time>2020-10-19T11:27:34Z</time>
      </trkpt>
      <trkpt lat="42.8624150" lon="-7.7841290">
        <ele>602.0</ele>
        <time>2020-10-19T11:27:35Z</time>
      </trkpt>
      <trkpt lat="42.8624210" lon="-7.7841390">
        <ele>602.1</ele>
        <time>2020-10-19T11:27:36Z</time>
      </trkpt>
      <trkpt lat="42.8624280" lon="-7.7841510">
        <ele>602.2</ele>
        <time>2020-10-19T11:27:37Z</time>
      </trkpt>
      <trkpt lat="42.8624350" lon="-7.7841670">
        <ele>602.3</ele>
        <time>2020-10-19T11:27:38Z</time>
      </trkpt>
      <trkpt lat="42.8624400" lon="-7.7841820">
        <ele>602.4</ele>
        <time>2020-10-19T11:27:39Z</time>
      </trkpt>
      <trkpt lat="42.8624450" lon="-7.7841950">
        <ele>602.5</ele>
        <time>2020-10-19T11:27:40Z</time>
      </trkpt>
      <trkpt lat="42.8624490" lon="-7.7842090">
        <ele>602.6</ele>
        <time>2020-10-19T11:27:41Z</time>
      </trkpt>
      <trkpt lat="42.8624530" lon="-7.7842210">
        <ele>602.8</ele>
        <time>2020-10-19T11:27:42Z</time>
      </trkpt>
      <trkpt lat="42.8624560" lon="-7.7842340">
        <ele>602.9</ele>
        <time>2020-10-19T11:27:43Z</time>
      </trkpt>
      <trkpt lat="42.8624600" lon="-7.7842480">
        <ele>603.0</ele>
        <time>2020-10-19T11:27:44Z</time>
      </trkpt>
      <trkpt lat="42.8624630" lon="-7.7842620">
        <ele>603.1</ele>
        <time>2020-10-19T11:27:45Z</time>
      </trkpt>
      <trkpt lat="42.8624670" lon="-7.7842760">
        <ele>603.3</ele>
        <time>2020-10-19T11:27:46Z</time>
      </trkpt>
      <trkpt lat="42.8624700" lon="-7.7842890">
        <ele>603.4</ele>
        <time>2020-10-19T11:27:47Z</time>
      </trkpt>
      <trkpt lat="42.8624740" lon="-7.7843010">
        <ele>603.5</ele>
        <time>2020-10-19T11:27:48Z</time>
      </trkpt>
      <trkpt lat="42.8624770" lon="-7.7843110">
        <ele>603.6</ele>
        <time>2020-10-19T11:27:49Z</time>
      </trkpt>
      <trkpt lat="42.8624780" lon="-7.7843220">
        <ele>603.7</ele>
        <time>2020-10-19T11:27:50Z</time>
      </trkpt>
      <trkpt lat="42.8624820" lon="-7.7843340">
        <ele>603.9</ele>
        <time>2020-10-19T11:27:51Z</time>
      </trkpt>
      <trkpt lat="42.8624860" lon="-7.7843470">
        <ele>604.0</ele>
        <time>2020-10-19T11:27:52Z</time>
      </trkpt>
      <trkpt lat="42.8624910" lon="-7.7843580">
        <ele>604.1</ele>
        <time>2020-10-19T11:27:53Z</time>
      </trkpt>
      <trkpt lat="42.8624930" lon="-7.7843680">
        <ele>604.2</ele>
        <time>2020-10-19T11:27:54Z</time>
      </trkpt>
      <trkpt lat="42.8624940" lon="-7.7843790">
        <ele>604.4</ele>
        <time>2020-10-19T11:27:55Z</time>
      </trkpt>
      <trkpt lat="42.8624970" lon="-7.7843900">
        <ele>604.5</ele>
        <time>2020-10-19T11:27:56Z</time>
      </trkpt>
      <trkpt lat="42.8625000" lon="-7.7844010">
        <ele>604.6</ele>
        <time>2020-10-19T11:27:57Z</time>
      </trkpt>
      <trkpt lat="42.8625040" lon="-7.7844120">
        <ele>604.7</ele>
        <time>2020-10-19T11:27:58Z</time>
      </trkpt>
      <trkpt lat="42.8625070" lon="-7.7844240">
        <ele>604.9</ele>
        <time>2020-10-19T11:27:59Z</time>
      </trkpt>
      <trkpt lat="42.8625110" lon="-7.7844350">
        <ele>605.0</ele>
        <time>2020-10-19T11:28:00Z</time>
      </trkpt>
      <trkpt lat="42.8625150" lon="-7.7844470">
        <ele>605.1</ele>
        <time>2020-10-19T11:28:01Z</time>
      </trkpt>
      <trkpt lat="42.8625200" lon="-7.7844560">
        <ele>605.2</ele>
        <time>2020-10-19T11:28:02Z</time>
      </trkpt>
      <trkpt lat="42.8625250" lon="-7.7844660">
        <ele>605.3</ele>
        <time>2020-10-19T11:28:03Z</time>
      </trkpt>
      <trkpt lat="42.8625290" lon="-7.7844760">
        <ele>605.5</ele>
        <time>2020-10-19T11:28:04Z</time>
      </trkpt>
      <trkpt lat="42.8625330" lon="-7.7844890">
        <ele>605.6</ele>
        <time>2020-10-19T11:28:05Z</time>
      </trkpt>
      <trkpt lat="42.8625360" lon="-7.7845040">
        <ele>605.7</ele>
        <time>2020-10-19T11:28:06Z</time>
      </trkpt>
      <trkpt lat="42.8625400" lon="-7.7845190">
        <ele>605.9</ele>
        <time>2020-10-19T11:28:07Z</time>
      </trkpt>
      <trkpt lat="42.8625430" lon="-7.7845340">
        <ele>606.0</ele>
        <time>2020-10-19T11:28:08Z</time>
      </trkpt>
      <trkpt lat="42.8625450" lon="-7.7845480">
        <ele>606.1</ele>
        <time>2020-10-19T11:28:09Z</time>
      </trkpt>
      <trkpt lat="42.8625460" lon="-7.7845600">
        <ele>606.2</ele>
        <time>2020-10-19T11:28:10Z</time>
      </trkpt>
      <trkpt lat="42.8625470" lon="-7.7845720">
        <ele>606.3</ele>
        <time>2020-10-19T11:28:11Z</time>
      </trkpt>
      <trkpt lat="42.8625490" lon="-7.7845830">
        <ele>606.4</ele>
        <time>2020-10-19T11:28:12Z</time>
      </trkpt>
      <trkpt lat="42.8625530" lon="-7.7845960">
        <ele>606.5</ele>
        <time>2020-10-19T11:28:13Z</time>
      </trkpt>
      <trkpt lat="42.8625580" lon="-7.7846110">
        <ele>606.6</ele>
        <time>2020-10-19T11:28:14Z</time>
      </trkpt>
      <trkpt lat="42.8625630" lon="-7.7846270">
        <ele>606.7</ele>
        <time>2020-10-19T11:28:15Z</time>
      </trkpt>
      <trkpt lat="42.8625690" lon="-7.7846430">
        <ele>606.8</ele>
        <time>2020-10-19T11:28:16Z</time>
      </trkpt>
      <trkpt lat="42.8625740" lon="-7.7846590">
        <ele>606.9</ele>
        <time>2020-10-19T11:28:17Z</time>
      </trkpt>
      <trkpt lat="42.8625800" lon="-7.7846740">
        <ele>607.0</ele>
        <time>2020-10-19T11:28:18Z</time>
      </trkpt>
      <trkpt lat="42.8625860" lon="-7.7846880">
        <ele>607.1</ele>
        <time>2020-10-19T11:28:19Z</time>
      </trkpt>
      <trkpt lat="42.8625920" lon="-7.7847030">
        <ele>607.2</ele>
        <time>2020-10-19T11:28:20Z</time>
      </trkpt>
      <trkpt lat="42.8625970" lon="-7.7847170">
        <ele>607.3</ele>
        <time>2020-10-19T11:28:21Z</time>
      </trkpt>
      <trkpt lat="42.8626030" lon="-7.7847320">
        <ele>607.4</ele>
        <time>2020-10-19T11:28:22Z</time>
      </trkpt>
      <trkpt lat="42.8626090" lon="-7.7847480">
        <ele>607.5</ele>
        <time>2020-10-19T11:28:23Z</time>
      </trkpt>
      <trkpt lat="42.8626150" lon="-7.7847640">
        <ele>607.6</ele>
        <time>2020-10-19T11:28:24Z</time>
      </trkpt>
      <trkpt lat="42.8626200" lon="-7.7847780">
        <ele>607.6</ele>
        <time>2020-10-19T11:28:25Z</time>
      </trkpt>
      <trkpt lat="42.8626250" lon="-7.7847900">
        <ele>607.7</ele>
        <time>2020-10-19T11:28:26Z</time>
      </trkpt>
      <trkpt lat="42.8626310" lon="-7.7847990">
        <ele>607.7</ele>
        <time>2020-10-19T11:28:27Z</time>
      </trkpt>
      <trkpt lat="42.8626390" lon="-7.7848100">
        <ele>607.8</ele>
        <time>2020-10-19T11:28:28Z</time>
      </trkpt>
      <trkpt lat="42.8626460" lon="-7.7848220">
        <ele>607.9</ele>
        <time>2020-10-19T11:28:29Z</time>
      </trkpt>
      <trkpt lat="42.8626510" lon="-7.7848350">
        <ele>607.9</ele>
        <time>2020-10-19T11:28:30Z</time>
      </trkpt>
      <trkpt lat="42.8626560" lon="-7.7848470">
        <ele>608.0</ele>
        <time>2020-10-19T11:28:31Z</time>
      </trkpt>
      <trkpt lat="42.8626610" lon="-7.7848600">
        <ele>608.1</ele>
        <time>2020-10-19T11:28:32Z</time>
      </trkpt>
      <trkpt lat="42.8626660" lon="-7.7848730">
        <ele>608.1</ele>
        <time>2020-10-19T11:28:33Z</time>
      </trkpt>
      <trkpt lat="42.8626710" lon="-7.7848840">
        <ele>608.2</ele>
        <time>2020-10-19T11:28:34Z</time>
      </trkpt>
      <trkpt lat="42.8626770" lon="-7.7848940">
        <ele>608.3</ele>
        <time>2020-10-19T11:28:35Z</time>
      </trkpt>
      <trkpt lat="42.8626830" lon="-7.7849050">
        <ele>608.3</ele>
        <time>2020-10-19T11:28:36Z</time>
      </trkpt>
      <trkpt lat="42.8626880" lon="-7.7849160">
        <ele>608.4</ele>
        <time>2020-10-19T11:28:37Z</time>
      </trkpt>
      <trkpt lat="42.8626930" lon="-7.7849290">
        <ele>608.4</ele>
        <time>2020-10-19T11:28:38Z</time>
      </trkpt>
      <trkpt lat="42.8626960" lon="-7.7849410">
        <ele>608.5</ele>
        <time>2020-10-19T11:28:39Z</time>
      </trkpt>
      <trkpt lat="42.8626980" lon="-7.7849530">
        <ele>608.6</ele>
        <time>2020-10-19T11:28:40Z</time>
      </trkpt>
      <trkpt lat="42.8627000" lon="-7.7849620">
        <ele>608.6</ele>
        <time>2020-10-19T11:28:41Z</time>
      </trkpt>
      <trkpt lat="42.8627010" lon="-7.7849690">
        <ele>608.6</ele>
        <time>2020-10-19T11:28:42Z</time>
      </trkpt>
      <trkpt lat="42.8627040" lon="-7.7849760">
        <ele>608.7</ele>
        <time>2020-10-19T11:28:43Z</time>
      </trkpt>
      <trkpt lat="42.8627110" lon="-7.7849850">
        <ele>608.7</ele>
        <time>2020-10-19T11:28:44Z</time>
      </trkpt>
      <trkpt lat="42.8627180" lon="-7.7849950">
        <ele>608.8</ele>
        <time>2020-10-19T11:28:45Z</time>
      </trkpt>
      <trkpt lat="42.8627260" lon="-7.7850050">
        <ele>608.9</ele>
        <time>2020-10-19T11:28:46Z</time>
      </trkpt>
      <trkpt lat="42.8627320" lon="-7.7850140">
        <ele>609.0</ele>
        <time>2020-10-19T11:28:47Z</time>
      </trkpt>
      <trkpt lat="42.8627380" lon="-7.7850230">
        <ele>609.0</ele>
        <time>2020-10-19T11:28:48Z</time>
      </trkpt>
      <trkpt lat="42.8627440" lon="-7.7850310">
        <ele>609.1</ele>
        <time>2020-10-19T11:28:49Z</time>
      </trkpt>
      <trkpt lat="42.8627500" lon="-7.7850390">
        <ele>609.2</ele>
        <time>2020-10-19T11:28:50Z</time>
      </trkpt>
      <trkpt lat="42.8627540" lon="-7.7850450">
        <ele>609.2</ele>
        <time>2020-10-19T11:28:51Z</time>
      </trkpt>
      <trkpt lat="42.8627570" lon="-7.7850490">
        <ele>609.2</ele>
        <time>2020-10-19T11:28:52Z</time>
      </trkpt>
      <trkpt lat="42.8627580" lon="-7.7850500">
        <ele>609.3</ele>
        <time>2020-10-19T11:28:53Z</time>
      </trkpt>
      <trkpt lat="42.8627590" lon="-7.7850500">
        <ele>609.3</ele>
        <time>2020-10-19T11:28:54Z</time>
      </trkpt>
      <trkpt lat="42.8627610" lon="-7.7850480">
        <ele>609.3</ele>
        <time>2020-10-19T11:28:55Z</time>
      </trkpt>
      <trkpt lat="42.8627640" lon="-7.7850490">
        <ele>609.3</ele>
        <time>2020-10-19T11:28:56Z</time>
      </trkpt>
      <trkpt lat="42.8627650" lon="-7.7850500">
        <ele>609.3</ele>
        <time>2020-10-19T11:28:57Z</time>
      </trkpt>
      <trkpt lat="42.8627650" lon="-7.7850500">
        <ele>609.3</ele>
        <time>2020-10-19T11:28:58Z</time>
      </trkpt>
      <trkpt lat="42.8627640" lon="-7.7850490">
        <ele>609.3</ele>
        <time>2020-10-19T11:28:59Z</time>
      </trkpt>
      <trkpt lat="42.8627640" lon="-7.7850490">
        <ele>609.3</ele>
        <time>2020-10-19T11:29:00Z</time>
      </trkpt>
      <trkpt lat="42.8627630" lon="-7.7850500">
        <ele>609.3</ele>
        <time>2020-10-19T11:29:01Z</time>
      </trkpt>
      <trkpt lat="42.8627630" lon="-7.7850500">
        <ele>609.3</ele>
        <time>2020-10-19T11:29:02Z</time>
      </trkpt>
      <trkpt lat="42.8627630" lon="-7.7850500">
        <ele>609.3</ele>
        <time>2020-10-19T11:29:03Z</time>
      </trkpt>
      <trkpt lat="42.8627660" lon="-7.7850500">
        <ele>609.4</ele>
        <time>2020-10-19T11:29:04Z</time>
      </trkpt>
      <trkpt lat="42.8627730" lon="-7.7850550">
        <ele>609.4</ele>
        <time>2020-10-19T11:29:05Z</time>
      </trkpt>
      <trkpt lat="42.8627820" lon="-7.7850610">
        <ele>609.5</ele>
        <time>2020-10-19T11:29:06Z</time>
      </trkpt>
      <trkpt lat="42.8627900" lon="-7.7850680">
        <ele>609.6</ele>
        <time>2020-10-19T11:29:07Z</time>
      </trkpt>
      <trkpt lat="42.8627970" lon="-7.7850710">
        <ele>609.6</ele>
        <time>2020-10-19T11:29:08Z</time>
      </trkpt>
      <trkpt lat="42.8628050" lon="-7.7850770">
        <ele>609.7</ele>
        <time>2020-10-19T11:29:09Z</time>
      </trkpt>
      <trkpt lat="42.8628120" lon="-7.7850830">
        <ele>609.8</ele>
        <time>2020-10-19T11:29:10Z</time>
      </trkpt>
      <trkpt lat="42.8628190" lon="-7.7850900">
        <ele>609.9</ele>
        <time>2020-10-19T11:29:11Z</time>
      </trkpt>
      <trkpt lat="42.8628270" lon="-7.7850950">
        <ele>610.0</ele>
        <time>2020-10-19T11:29:12Z</time>
      </trkpt>
      <trkpt lat="42.8628350" lon="-7.7850990">
        <ele>610.0</ele>
        <time>2020-10-19T11:29:13Z</time>
      </trkpt>
      <trkpt lat="42.8628410" lon="-7.7851020">
        <ele>610.1</ele>
        <time>2020-10-19T11:29:14Z</time>
      </trkpt>
      <trkpt lat="42.8628440" lon="-7.7851030">
        <ele>610.1</ele>
        <time>2020-10-19T11:29:15Z</time>
      </trkpt>
      <trkpt lat="42.8628450" lon="-7.7851030">
        <ele>610.1</ele>
        <time>2020-10-19T11:29:16Z</time>
      </trkpt>
      <trkpt lat="42.8628450" lon="-7.7851030">
        <ele>610.1</ele>
        <time>2020-10-19T11:29:17Z</time>
      </trkpt>
      <trkpt lat="42.8628450" lon="-7.7851020">
        <ele>610.1</ele>
        <time>2020-10-19T11:29:18Z</time>
      </trkpt>
      <trkpt lat="42.8628440" lon="-7.7851010">
        <ele>610.2</ele>
        <time>2020-10-19T11:29:19Z</time>
      </trkpt>
      <trkpt lat="42.8628430" lon="-7.7851000">
        <ele>610.2</ele>
        <time>2020-10-19T11:29:20Z</time>
      </trkpt>
      <trkpt lat="42.8628440" lon="-7.7850990">
        <ele>610.2</ele>
        <time>2020-10-19T11:29:21Z</time>
      </trkpt>
      <trkpt lat="42.8628440" lon="-7.7850980">
        <ele>610.2</ele>
        <time>2020-10-19T11:29:22Z</time>
      </trkpt>
      <trkpt lat="42.8628440" lon="-7.7850980">
        <ele>610.2</ele>
        <time>2020-10-19T11:29:23Z</time>
      </trkpt>
      <trkpt lat="42.8628440" lon="-7.7850970">
        <ele>610.2</ele>
        <time>2020-10-19T11:29:24Z</time>
      </trkpt>
      <trkpt lat="42.8628440" lon="-7.7850960">
        <ele>610.2</ele>
        <time>2020-10-19T11:29:25Z</time>
      </trkpt>
      <trkpt lat="42.8628450" lon="-7.7850950">
        <ele>610.2</ele>
        <time>2020-10-19T11:29:26Z</time>
      </trkpt>
      <trkpt lat="42.8628450" lon="-7.7850940">
        <ele>610.2</ele>
        <time>2020-10-19T11:29:27Z</time>
      </trkpt>
      <trkpt lat="42.8628450" lon="-7.7850950">
        <ele>610.2</ele>
        <time>2020-10-19T11:29:28Z</time>
      </trkpt>
      <trkpt lat="42.8628450" lon="-7.7850950">
        <ele>610.2</ele>
        <time>2020-10-19T11:29:29Z</time>
      </trkpt>
      <trkpt lat="42.8628450" lon="-7.7850940">
        <ele>610.2</ele>
        <time>2020-10-19T11:29:30Z</time>
      </trkpt>
      <trkpt lat="42.8628440" lon="-7.7850950">
        <ele>610.2</ele>
        <time>2020-10-19T11:29:31Z</time>
      </trkpt>
      <trkpt lat="42.8628430" lon="-7.7850980">
        <ele>610.3</ele>
        <time>2020-10-19T11:29:32Z</time>
      </trkpt>
      <trkpt lat="42.8628430" lon="-7.7851030">
        <ele>610.3</ele>
        <time>2020-10-19T11:29:33Z</time>
      </trkpt>
      <trkpt lat="42.8628430" lon="-7.7851080">
        <ele>610.3</ele>
        <time>2020-10-19T11:29:34Z</time>
      </trkpt>
      <trkpt lat="42.8628440" lon="-7.7851110">
        <ele>610.4</ele>
        <time>2020-10-19T11:29:35Z</time>
      </trkpt>
      <trkpt lat="42.8628440" lon="-7.7851110">
        <ele>610.4</ele>
        <time>2020-10-19T11:29:36Z</time>
      </trkpt>
      <trkpt lat="42.8628440" lon="-7.7851120">
        <ele>610.4</ele>
        <time>2020-10-19T11:29:37Z</time>
      </trkpt>
      <trkpt lat="42.8628440" lon="-7.7851120">
        <ele>610.4</ele>
        <time>2020-10-19T11:29:38Z</time>
      </trkpt>
      <trkpt lat="42.8628440" lon="-7.7851120">
        <ele>610.4</ele>
        <time>2020-10-19T11:29:39Z</time>
      </trkpt>
      <trkpt lat="42.8628440" lon="-7.7851130">
        <ele>610.4</ele>
        <time>2020-10-19T11:29:40Z</time>
      </trkpt>
      <trkpt lat="42.8628450" lon="-7.7851120">
        <ele>610.4</ele>
        <time>2020-10-19T11:29:41Z</time>
      </trkpt>
      <trkpt lat="42.8628440" lon="-7.7851130">
        <ele>610.4</ele>
        <time>2020-10-19T11:29:42Z</time>
      </trkpt>
      <trkpt lat="42.8628440" lon="-7.7851130">
        <ele>610.4</ele>
        <time>2020-10-19T11:29:43Z</time>
      </trkpt>
      <trkpt lat="42.8628420" lon="-7.7851130">
        <ele>610.4</ele>
        <time>2020-10-19T11:29:44Z</time>
      </trkpt>
      <trkpt lat="42.8628400" lon="-7.7851130">
        <ele>610.4</ele>
        <time>2020-10-19T11:29:45Z</time>
      </trkpt>
      <trkpt lat="42.8628380" lon="-7.7851130">
        <ele>610.5</ele>
        <time>2020-10-19T11:29:46Z</time>
      </trkpt>
      <trkpt lat="42.8628370" lon="-7.7851120">
        <ele>610.5</ele>
        <time>2020-10-19T11:29:47Z</time>
      </trkpt>
      <trkpt lat="42.8628360" lon="-7.7851120">
        <ele>610.5</ele>
        <time>2020-10-19T11:29:48Z</time>
      </trkpt>
      <trkpt lat="42.8628350" lon="-7.7851110">
        <ele>610.5</ele>
        <time>2020-10-19T11:29:49Z</time>
      </trkpt>
      <trkpt lat="42.8628350" lon="-7.7851100">
        <ele>610.5</ele>
        <time>2020-10-19T11:29:50Z</time>
      </trkpt>
      <trkpt lat="42.8628350" lon="-7.7851100">
        <ele>610.5</ele>
        <time>2020-10-19T11:29:51Z</time>
      </trkpt>
      <trkpt lat="42.8628350" lon="-7.7851090">
        <ele>610.5</ele>
        <time>2020-10-19T11:29:52Z</time>
      </trkpt>
      <trkpt lat="42.8628350" lon="-7.7851090">
        <ele>610.5</ele>
        <time>2020-10-19T11:29:53Z</time>
      </trkpt>
      <trkpt lat="42.8628350" lon="-7.7851090">
        <ele>610.5</ele>
        <time>2020-10-19T11:29:54Z</time>
      </trkpt>
      <trkpt lat="42.8628340" lon="-7.7851080">
        <ele>610.5</ele>
        <time>2020-10-19T11:29:55Z</time>
      </trkpt>
      <trkpt lat="42.8628340" lon="-7.7851080">
        <ele>610.5</ele>
        <time>2020-10-19T11:29:56Z</time>
      </trkpt>
      <trkpt lat="42.8628340" lon="-7.7851090">
        <ele>610.5</ele>
        <time>2020-10-19T11:29:57Z</time>
      </trkpt>
      <trkpt lat="42.8628340" lon="-7.7851090">
        <ele>610.5</ele>
        <time>2020-10-19T11:29:58Z</time>
      </trkpt>
      <trkpt lat="42.8628350" lon="-7.7851100">
        <ele>610.5</ele>
        <time>2020-10-19T11:29:59Z</time>
      </trkpt>
      <trkpt lat="42.8628350" lon="-7.7851100">
        <ele>610.5</ele>
        <time>2020-10-19T11:30:00Z</time>
      </trkpt>
      <trkpt lat="42.8628360" lon="-7.7851100">
        <ele>610.6</ele>
        <time>2020-10-19T11:30:01Z</time>
      </trkpt>
      <trkpt lat="42.8628360" lon="-7.7851100">
        <ele>610.6</ele>
        <time>2020-10-19T11:30:02Z</time>
      </trkpt>
      <trkpt lat="42.8628350" lon="-7.7851090">
        <ele>610.6</ele>
        <time>2020-10-19T11:30:03Z</time>
      </trkpt>
      <trkpt lat="42.8628340" lon="-7.7851070">
        <ele>610.6</ele>
        <time>2020-10-19T11:30:04Z</time>
      </trkpt>
      <trkpt lat="42.8628330" lon="-7.7851050">
        <ele>610.6</ele>
        <time>2020-10-19T11:30:05Z</time>
      </trkpt>
      <trkpt lat="42.8628310" lon="-7.7851030">
        <ele>610.6</ele>
        <time>2020-10-19T11:30:06Z</time>
      </trkpt>
      <trkpt lat="42.8628300" lon="-7.7851010">
        <ele>610.7</ele>
        <time>2020-10-19T11:30:07Z</time>
      </trkpt>
      <trkpt lat="42.8628290" lon="-7.7851000">
        <ele>610.7</ele>
        <time>2020-10-19T11:30:08Z</time>
      </trkpt>
      <trkpt lat="42.8628290" lon="-7.7851000">
        <ele>610.7</ele>
        <time>2020-10-19T11:30:09Z</time>
      </trkpt>
      <trkpt lat="42.8628290" lon="-7.7851010">
        <ele>610.7</ele>
        <time>2020-10-19T11:30:10Z</time>
      </trkpt>
      <trkpt lat="42.8628290" lon="-7.7851020">
        <ele>610.7</ele>
        <time>2020-10-19T11:30:11Z</time>
      </trkpt>
      <trkpt lat="42.8628300" lon="-7.7851020">
        <ele>610.7</ele>
        <time>2020-10-19T11:30:12Z</time>
      </trkpt>
      <trkpt lat="42.8628300" lon="-7.7851020">
        <ele>610.7</ele>
        <time>2020-10-19T11:30:13Z</time>
      </trkpt>
      <trkpt lat="42.8628310" lon="-7.7851010">
        <ele>610.7</ele>
        <time>2020-10-19T11:30:14Z</time>
      </trkpt>
      <trkpt lat="42.8628320" lon="-7.7851000">
        <ele>610.7</ele>
        <time>2020-10-19T11:30:15Z</time>
      </trkpt>
      <trkpt lat="42.8628340" lon="-7.7851000">
        <ele>610.7</ele>
        <time>2020-10-19T11:30:16Z</time>
      </trkpt>
      <trkpt lat="42.8628390" lon="-7.7851000">
        <ele>610.8</ele>
        <time>2020-10-19T11:30:17Z</time>
      </trkpt>
      <trkpt lat="42.8628450" lon="-7.7851000">
        <ele>610.9</ele>
        <time>2020-10-19T11:30:18Z</time>
      </trkpt>
      <trkpt lat="42.8628490" lon="-7.7850990">
        <ele>610.9</ele>
        <time>2020-10-19T11:30:19Z</time>
      </trkpt>
      <trkpt lat="42.8628540" lon="-7.7850970">
        <ele>611.0</ele>
        <time>2020-10-19T11:30:20Z</time>
      </trkpt>
      <trkpt lat="42.8628640" lon="-7.7850960">
        <ele>611.1</ele>
        <time>2020-10-19T11:30:21Z</time>
      </trkpt>
      <trkpt lat="42.8628740" lon="-7.7850970">
        <ele>611.2</ele>
        <time>2020-10-19T11:30:22Z</time>
      </trkpt>
      <trkpt lat="42.8628850" lon="-7.7851000">
        <ele>611.3</ele>
        <time>2020-10-19T11:30:23Z</time>
      </trkpt>
      <trkpt lat="42.8628950" lon="-7.7851030">
        <ele>611.4</ele>
        <time>2020-10-19T11:30:24Z</time>
      </trkpt>
      <trkpt lat="42.8629050" lon="-7.7851050">
        <ele>611.5</ele>
        <time>2020-10-19T11:30:25Z</time>
      </trkpt>
      <trkpt lat="42.8629140" lon="-7.7851060">
        <ele>611.6</ele>
        <time>2020-10-19T11:30:26Z</time>
      </trkpt>
      <trkpt lat="42.8629250" lon="-7.7851090">
        <ele>611.7</ele>
        <time>2020-10-19T11:30:27Z</time>
      </trkpt>
      <trkpt lat="42.8629350" lon="-7.7851110">
        <ele>611.8</ele>
        <time>2020-10-19T11:30:28Z</time>
      </trkpt>
      <trkpt lat="42.8629450" lon="-7.7851140">
        <ele>611.9</ele>
        <time>2020-10-19T11:30:29Z</time>
      </trkpt>
      <trkpt lat="42.8629540" lon="-7.7851160">
        <ele>612.0</ele>
        <time>2020-10-19T11:30:30Z</time>
      </trkpt>
      <trkpt lat="42.8629630" lon="-7.7851180">
        <ele>612.1</ele>
        <time>2020-10-19T11:30:31Z</time>
      </trkpt>
      <trkpt lat="42.8629730" lon="-7.7851200">
        <ele>612.2</ele>
        <time>2020-10-19T11:30:32Z</time>
      </trkpt>
      <trkpt lat="42.8629820" lon="-7.7851220">
        <ele>612.3</ele>
        <time>2020-10-19T11:30:33Z</time>
      </trkpt>
      <trkpt lat="42.8629920" lon="-7.7851260">
        <ele>612.4</ele>
        <time>2020-10-19T11:30:34Z</time>
      </trkpt>
      <trkpt lat="42.8630010" lon="-7.7851290">
        <ele>612.5</ele>
        <time>2020-10-19T11:30:35Z</time>
      </trkpt>
      <trkpt lat="42.8630100" lon="-7.7851300">
        <ele>612.6</ele>
        <time>2020-10-19T11:30:36Z</time>
      </trkpt>
      <trkpt lat="42.8630200" lon="-7.7851310">
        <ele>612.7</ele>
        <time>2020-10-19T11:30:37Z</time>
      </trkpt>
      <trkpt lat="42.8630300" lon="-7.7851320">
        <ele>612.8</ele>
        <time>2020-10-19T11:30:38Z</time>
      </trkpt>
      <trkpt lat="42.8630400" lon="-7.7851340">
        <ele>612.9</ele>
        <time>2020-10-19T11:30:39Z</time>
      </trkpt>
      <trkpt lat="42.8630510" lon="-7.7851370">
        <ele>613.0</ele>
        <time>2020-10-19T11:30:40Z</time>
      </trkpt>
      <trkpt lat="42.8630620" lon="-7.7851410">
        <ele>613.1</ele>
        <time>2020-10-19T11:30:41Z</time>
      </trkpt>
      <trkpt lat="42.8630730" lon="-7.7851440">
        <ele>613.2</ele>
        <time>2020-10-19T11:30:42Z</time>
      </trkpt>
      <trkpt lat="42.8630850" lon="-7.7851480">
        <ele>613.3</ele>
        <time>2020-10-19T11:30:43Z</time>
      </trkpt>
      <trkpt lat="42.8630960" lon="-7.7851530">
        <ele>613.4</ele>
        <time>2020-10-19T11:30:44Z</time>
      </trkpt>
      <trkpt lat="42.8631070" lon="-7.7851570">
        <ele>613.5</ele>
        <time>2020-10-19T11:30:45Z</time>
      </trkpt>
      <trkpt lat="42.8631170" lon="-7.7851600">
        <ele>613.6</ele>
        <time>2020-10-19T11:30:46Z</time>
      </trkpt>
      <trkpt lat="42.8631280" lon="-7.7851640">
        <ele>613.6</ele>
        <time>2020-10-19T11:30:47Z</time>
      </trkpt>
      <trkpt lat="42.8631380" lon="-7.7851680">
        <ele>613.7</ele>
        <time>2020-10-19T11:30:48Z</time>
      </trkpt>
      <trkpt lat="42.8631490" lon="-7.7851710">
        <ele>613.8</ele>
        <time>2020-10-19T11:30:49Z</time>
      </trkpt>
      <trkpt lat="42.8631600" lon="-7.7851750">
        <ele>613.9</ele>
        <time>2020-10-19T11:30:50Z</time>
      </trkpt>
      <trkpt lat="42.8631710" lon="-7.7851780">
        <ele>614.0</ele>
        <time>2020-10-19T11:30:51Z</time>
      </trkpt>
      <trkpt lat="42.8631830" lon="-7.7851830">
        <ele>614.0</ele>
        <time>2020-10-19T11:30:52Z</time>
      </trkpt>
      <trkpt lat="42.8631960" lon="-7.7851870">
        <ele>614.1</ele>
        <time>2020-10-19T11:30:53Z</time>
      </trkpt>
      <trkpt lat="42.8632080" lon="-7.7851900">
        <ele>614.2</ele>
        <time>2020-10-19T11:30:54Z</time>
      </trkpt>
      <trkpt lat="42.8632190" lon="-7.7851930">
        <ele>614.2</ele>
        <time>2020-10-19T11:30:55Z</time>
      </trkpt>
      <trkpt lat="42.8632310" lon="-7.7851960">
        <ele>614.3</ele>
        <time>2020-10-19T11:30:56Z</time>
      </trkpt>
      <trkpt lat="42.8632420" lon="-7.7852000">
        <ele>614.4</ele>
        <time>2020-10-19T11:30:57Z</time>
      </trkpt>
      <trkpt lat="42.8632530" lon="-7.7852050">
        <ele>614.4</ele>
        <time>2020-10-19T11:30:58Z</time>
      </trkpt>
      <trkpt lat="42.8632640" lon="-7.7852100">
        <ele>614.5</ele>
        <time>2020-10-19T11:30:59Z</time>
      </trkpt>
      <trkpt lat="42.8632740" lon="-7.7852140">
        <ele>614.5</ele>
        <time>2020-10-19T11:31:00Z</time>
      </trkpt>
      <trkpt lat="42.8632850" lon="-7.7852180">
        <ele>614.6</ele>
        <time>2020-10-19T11:31:01Z</time>
      </trkpt>
      <trkpt lat="42.8632960" lon="-7.7852230">
        <ele>614.7</ele>
        <time>2020-10-19T11:31:02Z</time>
      </trkpt>
      <trkpt lat="42.8633070" lon="-7.7852290">
        <ele>614.7</ele>
        <time>2020-10-19T11:31:03Z</time>
      </trkpt>
      <trkpt lat="42.8633180" lon="-7.7852340">
        <ele>614.8</ele>
        <time>2020-10-19T11:31:04Z</time>
      </trkpt>
      <trkpt lat="42.8633290" lon="-7.7852400">
        <ele>614.8</ele>
        <time>2020-10-19T11:31:05Z</time>
      </trkpt>
      <trkpt lat="42.8633400" lon="-7.7852450">
        <ele>614.9</ele>
        <time>2020-10-19T11:31:06Z</time>
      </trkpt>
      <trkpt lat="42.8633510" lon="-7.7852490">
        <ele>614.9</ele>
        <time>2020-10-19T11:31:07Z</time>
      </trkpt>
      <trkpt lat="42.8633620" lon="-7.7852530">
        <ele>615.0</ele>
        <time>2020-10-19T11:31:08Z</time>
      </trkpt>
      <trkpt lat="42.8633720" lon="-7.7852570">
        <ele>615.0</ele>
        <time>2020-10-19T11:31:09Z</time>
      </trkpt>
      <trkpt lat="42.8633830" lon="-7.7852620">
        <ele>615.1</ele>
        <time>2020-10-19T11:31:10Z</time>
      </trkpt>
      <trkpt lat="42.8633940" lon="-7.7852680">
        <ele>615.1</ele>
        <time>2020-10-19T11:31:11Z</time>
      </trkpt>
      <trkpt lat="42.8634040" lon="-7.7852730">
        <ele>615.2</ele>
        <time>2020-10-19T11:31:12Z</time>
      </trkpt>
      <trkpt lat="42.8634140" lon="-7.7852790">
        <ele>615.2</ele>
        <time>2020-10-19T11:31:13Z</time>
      </trkpt>
      <trkpt lat="42.8634240" lon="-7.7852840">
        <ele>615.3</ele>
        <time>2020-10-19T11:31:14Z</time>
      </trkpt>
      <trkpt lat="42.8634340" lon="-7.7852910">
        <ele>615.3</ele>
        <time>2020-10-19T11:31:15Z</time>
      </trkpt>
      <trkpt lat="42.8634440" lon="-7.7852970">
        <ele>615.4</ele>
        <time>2020-10-19T11:31:16Z</time>
      </trkpt>
      <trkpt lat="42.8634540" lon="-7.7853020">
        <ele>615.4</ele>
        <time>2020-10-19T11:31:17Z</time>
      </trkpt>
      <trkpt lat="42.8634640" lon="-7.7853090">
        <ele>615.5</ele>
        <time>2020-10-19T11:31:18Z</time>
      </trkpt>
      <trkpt lat="42.8634730" lon="-7.7853160">
        <ele>615.5</ele>
        <time>2020-10-19T11:31:19Z</time>
      </trkpt>
      <trkpt lat="42.8634820" lon="-7.7853240">
        <ele>615.6</ele>
        <time>2020-10-19T11:31:20Z</time>
      </trkpt>
      <trkpt lat="42.8634900" lon="-7.7853310">
        <ele>615.6</ele>
        <time>2020-10-19T11:31:21Z</time>
      </trkpt>
      <trkpt lat="42.8634990" lon="-7.7853380">
        <ele>615.6</ele>
        <time>2020-10-19T11:31:22Z</time>
      </trkpt>
      <trkpt lat="42.8635090" lon="-7.7853450">
        <ele>615.7</ele>
        <time>2020-10-19T11:31:23Z</time>
      </trkpt>
      <trkpt lat="42.8635190" lon="-7.7853510">
        <ele>615.7</ele>
        <time>2020-10-19T11:31:24Z</time>
      </trkpt>
      <trkpt lat="42.8635280" lon="-7.7853580">
        <ele>615.8</ele>
        <time>2020-10-19T11:31:25Z</time>
      </trkpt>
      <trkpt lat="42.8635380" lon="-7.7853660">
        <ele>615.8</ele>
        <time>2020-10-19T11:31:26Z</time>
      </trkpt>
      <trkpt lat="42.8635480" lon="-7.7853750">
        <ele>615.9</ele>
        <time>2020-10-19T11:31:27Z</time>
      </trkpt>
      <trkpt lat="42.8635570" lon="-7.7853840">
        <ele>616.0</ele>
        <time>2020-10-19T11:31:28Z</time>
      </trkpt>
      <trkpt lat="42.8635670" lon="-7.7853930">
        <ele>616.0</ele>
        <time>2020-10-19T11:31:29Z</time>
      </trkpt>
      <trkpt lat="42.8635770" lon="-7.7854010">
        <ele>616.1</ele>
        <time>2020-10-19T11:31:30Z</time>
      </trkpt>
      <trkpt lat="42.8635860" lon="-7.7854090">
        <ele>616.1</ele>
        <time>2020-10-19T11:31:31Z</time>
      </trkpt>
      <trkpt lat="42.8635920" lon="-7.7854140">
        <ele>616.2</ele>
        <time>2020-10-19T11:31:32Z</time>
      </trkpt>
      <trkpt lat="42.8635970" lon="-7.7854170">
        <ele>616.2</ele>
        <time>2020-10-19T11:31:33Z</time>
      </trkpt>
      <trkpt lat="42.8636010" lon="-7.7854200">
        <ele>616.2</ele>
        <time>2020-10-19T11:31:34Z</time>
      </trkpt>
      <trkpt lat="42.8636060" lon="-7.7854250">
        <ele>616.2</ele>
        <time>2020-10-19T11:31:35Z</time>
      </trkpt>
      <trkpt lat="42.8636130" lon="-7.7854320">
        <ele>616.3</ele>
        <time>2020-10-19T11:31:36Z</time>
      </trkpt>
      <trkpt lat="42.8636190" lon="-7.7854390">
        <ele>616.3</ele>
        <time>2020-10-19T11:31:37Z</time>
      </trkpt>
      <trkpt lat="42.8636260" lon="-7.7854470">
        <ele>616.4</ele>
        <time>2020-10-19T11:31:38Z</time>
      </trkpt>
      <trkpt lat="42.8636320" lon="-7.7854550">
        <ele>616.4</ele>
        <time>2020-10-19T11:31:39Z</time>
      </trkpt>
      <trkpt lat="42.8636380" lon="-7.7854620">
        <ele>616.5</ele>
        <time>2020-10-19T11:31:40Z</time>
      </trkpt>
      <trkpt lat="42.8636450" lon="-7.7854700">
        <ele>616.5</ele>
        <time>2020-10-19T11:31:41Z</time>
      </trkpt>
      <trkpt lat="42.8636520" lon="-7.7854770">
        <ele>616.5</ele>
        <time>2020-10-19T11:31:42Z</time>
      </trkpt>
      <trkpt lat="42.8636590" lon="-7.7854850">
        <ele>616.6</ele>
        <time>2020-10-19T11:31:43Z</time>
      </trkpt>
      <trkpt lat="42.8636650" lon="-7.7854930">
        <ele>616.6</ele>
        <time>2020-10-19T11:31:44Z</time>
      </trkpt>
      <trkpt lat="42.8636720" lon="-7.7855020">
        <ele>616.7</ele>
        <time>2020-10-19T11:31:45Z</time>
      </trkpt>
      <trkpt lat="42.8636790" lon="-7.7855110">
        <ele>616.7</ele>
        <time>2020-10-19T11:31:46Z</time>
      </trkpt>
      <trkpt lat="42.8636870" lon="-7.7855190">
        <ele>616.8</ele>
        <time>2020-10-19T11:31:47Z</time>
      </trkpt>
      <trkpt lat="42.8636950" lon="-7.7855260">
        <ele>616.9</ele>
        <time>2020-10-19T11:31:48Z</time>
      </trkpt>
      <trkpt lat="42.8637030" lon="-7.7855350">
        <ele>616.9</ele>
        <time>2020-10-19T11:31:49Z</time>
      </trkpt>
      <trkpt lat="42.8637110" lon="-7.7855440">
        <ele>617.0</ele>
        <time>2020-10-19T11:31:50Z</time>
      </trkpt>
      <trkpt lat="42.8637190" lon="-7.7855540">
        <ele>617.1</ele>
        <time>2020-10-19T11:31:51Z</time>
      </trkpt>
      <trkpt lat="42.8637270" lon="-7.7855650">
        <ele>617.1</ele>
        <time>2020-10-19T11:31:52Z</time>
      </trkpt>
      <trkpt lat="42.8637370" lon="-7.7855760">
        <ele>617.2</ele>
        <time>2020-10-19T11:31:53Z</time>
      </trkpt>
      <trkpt lat="42.8637470" lon="-7.7855870">
        <ele>617.3</ele>
        <time>2020-10-19T11:31:54Z</time>
      </trkpt>
      <trkpt lat="42.8637570" lon="-7.7855960">
        <ele>617.3</ele>
        <time>2020-10-19T11:31:55Z</time>
      </trkpt>
      <trkpt lat="42.8637650" lon="-7.7856040">
        <ele>617.4</ele>
        <time>2020-10-19T11:31:56Z</time>
      </trkpt>
      <trkpt lat="42.8637720" lon="-7.7856100">
        <ele>617.5</ele>
        <time>2020-10-19T11:31:57Z</time>
      </trkpt>
      <trkpt lat="42.8637790" lon="-7.7856170">
        <ele>617.5</ele>
        <time>2020-10-19T11:31:58Z</time>
      </trkpt>
      <trkpt lat="42.8637860" lon="-7.7856230">
        <ele>617.6</ele>
        <time>2020-10-19T11:31:59Z</time>
      </trkpt>
      <trkpt lat="42.8637940" lon="-7.7856300">
        <ele>617.6</ele>
        <time>2020-10-19T11:32:00Z</time>
      </trkpt>
      <trkpt lat="42.8638020" lon="-7.7856360">
        <ele>617.7</ele>
        <time>2020-10-19T11:32:01Z</time>
      </trkpt>
      <trkpt lat="42.8638120" lon="-7.7856430">
        <ele>617.7</ele>
        <time>2020-10-19T11:32:02Z</time>
      </trkpt>
      <trkpt lat="42.8638230" lon="-7.7856510">
        <ele>617.8</ele>
        <time>2020-10-19T11:32:03Z</time>
      </trkpt>
      <trkpt lat="42.8638320" lon="-7.7856600">
        <ele>617.9</ele>
        <time>2020-10-19T11:32:04Z</time>
      </trkpt>
      <trkpt lat="42.8638410" lon="-7.7856710">
        <ele>618.0</ele>
        <time>2020-10-19T11:32:05Z</time>
      </trkpt>
      <trkpt lat="42.8638490" lon="-7.7856840">
        <ele>618.0</ele>
        <time>2020-10-19T11:32:06Z</time>
      </trkpt>
      <trkpt lat="42.8638570" lon="-7.7856960">
        <ele>618.1</ele>
        <time>2020-10-19T11:32:07Z</time>
      </trkpt>
      <trkpt lat="42.8638650" lon="-7.7857070">
        <ele>618.2</ele>
        <time>2020-10-19T11:32:08Z</time>
      </trkpt>
      <trkpt lat="42.8638730" lon="-7.7857170">
        <ele>618.3</ele>
        <time>2020-10-19T11:32:09Z</time>
      </trkpt>
      <trkpt lat="42.8638810" lon="-7.7857270">
        <ele>618.3</ele>
        <time>2020-10-19T11:32:10Z</time>
      </trkpt>
      <trkpt lat="42.8638890" lon="-7.7857370">
        <ele>618.4</ele>
        <time>2020-10-19T11:32:11Z</time>
      </trkpt>
      <trkpt lat="42.8638960" lon="-7.7857470">
        <ele>618.5</ele>
        <time>2020-10-19T11:32:12Z</time>
      </trkpt>
      <trkpt lat="42.8639030" lon="-7.7857550">
        <ele>618.5</ele>
        <time>2020-10-19T11:32:13Z</time>
      </trkpt>
      <trkpt lat="42.8639080" lon="-7.7857630">
        <ele>618.6</ele>
        <time>2020-10-19T11:32:14Z</time>
      </trkpt>
      <trkpt lat="42.8639140" lon="-7.7857720">
        <ele>618.6</ele>
        <time>2020-10-19T11:32:15Z</time>
      </trkpt>
      <trkpt lat="42.8639200" lon="-7.7857800">
        <ele>618.7</ele>
        <time>2020-10-19T11:32:16Z</time>
      </trkpt>
      <trkpt lat="42.8639270" lon="-7.7857890">
        <ele>618.7</ele>
        <time>2020-10-19T11:32:17Z</time>
      </trkpt>
      <trkpt lat="42.8639330" lon="-7.7857970">
        <ele>618.8</ele>
        <time>2020-10-19T11:32:18Z</time>
      </trkpt>
      <trkpt lat="42.8639400" lon="-7.7858070">
        <ele>618.9</ele>
        <time>2020-10-19T11:32:19Z</time>
      </trkpt>
      <trkpt lat="42.8639460" lon="-7.7858160">
        <ele>618.9</ele>
        <time>2020-10-19T11:32:20Z</time>
      </trkpt>
      <trkpt lat="42.8639520" lon="-7.7858270">
        <ele>619.0</ele>
        <time>2020-10-19T11:32:21Z</time>
      </trkpt>
      <trkpt lat="42.8639580" lon="-7.7858370">
        <ele>619.1</ele>
        <time>2020-10-19T11:32:22Z</time>
      </trkpt>
      <trkpt lat="42.8639650" lon="-7.7858470">
        <ele>619.1</ele>
        <time>2020-10-19T11:32:23Z</time>
      </trkpt>
      <trkpt lat="42.8639740" lon="-7.7858570">
        <ele>619.2</ele>
        <time>2020-10-19T11:32:24Z</time>
      </trkpt>
      <trkpt lat="42.8639850" lon="-7.7858700">
        <ele>619.3</ele>
        <time>2020-10-19T11:32:25Z</time>
      </trkpt>
      <trkpt lat="42.8639960" lon="-7.7858830">
        <ele>619.4</ele>
        <time>2020-10-19T11:32:26Z</time>
      </trkpt>
      <trkpt lat="42.8640060" lon="-7.7858970">
        <ele>619.5</ele>
        <time>2020-10-19T11:32:27Z</time>
      </trkpt>
      <trkpt lat="42.8640150" lon="-7.7859080">
        <ele>619.6</ele>
        <time>2020-10-19T11:32:28Z</time>
      </trkpt>
      <trkpt lat="42.8640230" lon="-7.7859190">
        <ele>619.7</ele>
        <time>2020-10-19T11:32:29Z</time>
      </trkpt>
      <trkpt lat="42.8640310" lon="-7.7859300">
        <ele>619.7</ele>
        <time>2020-10-19T11:32:30Z</time>
      </trkpt>
      <trkpt lat="42.8640380" lon="-7.7859410">
        <ele>619.8</ele>
        <time>2020-10-19T11:32:31Z</time>
      </trkpt>
      <trkpt lat="42.8640460" lon="-7.7859530">
        <ele>619.9</ele>
        <time>2020-10-19T11:32:32Z</time>
      </trkpt>
      <trkpt lat="42.8640550" lon="-7.7859650">
        <ele>620.0</ele>
        <time>2020-10-19T11:32:33Z</time>
      </trkpt>
      <trkpt lat="42.8640630" lon="-7.7859770">
        <ele>620.1</ele>
        <time>2020-10-19T11:32:34Z</time>
      </trkpt>
      <trkpt lat="42.8640700" lon="-7.7859900">
        <ele>620.2</ele>
        <time>2020-10-19T11:32:35Z</time>
      </trkpt>
      <trkpt lat="42.8640780" lon="-7.7860030">
        <ele>620.2</ele>
        <time>2020-10-19T11:32:36Z</time>
      </trkpt>
      <trkpt lat="42.8640870" lon="-7.7860160">
        <ele>620.3</ele>
        <time>2020-10-19T11:32:37Z</time>
      </trkpt>
      <trkpt lat="42.8640950" lon="-7.7860290">
        <ele>620.4</ele>
        <time>2020-10-19T11:32:38Z</time>
      </trkpt>
      <trkpt lat="42.8641040" lon="-7.7860410">
        <ele>620.5</ele>
        <time>2020-10-19T11:32:39Z</time>
      </trkpt>
      <trkpt lat="42.8641120" lon="-7.7860530">
        <ele>620.6</ele>
        <time>2020-10-19T11:32:40Z</time>
      </trkpt>
      <trkpt lat="42.8641210" lon="-7.7860650">
        <ele>620.7</ele>
        <time>2020-10-19T11:32:41Z</time>
      </trkpt>
      <trkpt lat="42.8641300" lon="-7.7860790">
        <ele>620.8</ele>
        <time>2020-10-19T11:32:42Z</time>
      </trkpt>
      <trkpt lat="42.8641400" lon="-7.7860930">
        <ele>620.9</ele>
        <time>2020-10-19T11:32:43Z</time>
      </trkpt>
      <trkpt lat="42.8641490" lon="-7.7861070">
        <ele>621.0</ele>
        <time>2020-10-19T11:32:44Z</time>
      </trkpt>
      <trkpt lat="42.8641580" lon="-7.7861210">
        <ele>621.1</ele>
        <time>2020-10-19T11:32:45Z</time>
      </trkpt>
      <trkpt lat="42.8641660" lon="-7.7861340">
        <ele>621.1</ele>
        <time>2020-10-19T11:32:46Z</time>
      </trkpt>
      <trkpt lat="42.8641740" lon="-7.7861470">
        <ele>621.2</ele>
        <time>2020-10-19T11:32:47Z</time>
      </trkpt>
      <trkpt lat="42.8641830" lon="-7.7861580">
        <ele>621.3</ele>
        <time>2020-10-19T11:32:48Z</time>
      </trkpt>
      <trkpt lat="42.8641920" lon="-7.7861720">
        <ele>621.4</ele>
        <time>2020-10-19T11:32:49Z</time>
      </trkpt>
      <trkpt lat="42.8642020" lon="-7.7861860">
        <ele>621.5</ele>
        <time>2020-10-19T11:32:50Z</time>
      </trkpt>
      <trkpt lat="42.8642110" lon="-7.7861990">
        <ele>621.6</ele>
        <time>2020-10-19T11:32:51Z</time>
      </trkpt>
      <trkpt lat="42.8642190" lon="-7.7862110">
        <ele>621.7</ele>
        <time>2020-10-19T11:32:52Z</time>
      </trkpt>
      <trkpt lat="42.8642280" lon="-7.7862220">
        <ele>621.8</ele>
        <time>2020-10-19T11:32:53Z</time>
      </trkpt>
      <trkpt lat="42.8642370" lon="-7.7862320">
        <ele>621.9</ele>
        <time>2020-10-19T11:32:54Z</time>
      </trkpt>
      <trkpt lat="42.8642460" lon="-7.7862450">
        <ele>622.0</ele>
        <time>2020-10-19T11:32:55Z</time>
      </trkpt>
      <trkpt lat="42.8642550" lon="-7.7862600">
        <ele>622.1</ele>
        <time>2020-10-19T11:32:56Z</time>
      </trkpt>
      <trkpt lat="42.8642640" lon="-7.7862760">
        <ele>622.3</ele>
        <time>2020-10-19T11:32:57Z</time>
      </trkpt>
      <trkpt lat="42.8642720" lon="-7.7862900">
        <ele>622.4</ele>
        <time>2020-10-19T11:32:58Z</time>
      </trkpt>
      <trkpt lat="42.8642820" lon="-7.7863040">
        <ele>622.5</ele>
        <time>2020-10-19T11:32:59Z</time>
      </trkpt>
      <trkpt lat="42.8642920" lon="-7.7863180">
        <ele>622.6</ele>
        <time>2020-10-19T11:33:00Z</time>
      </trkpt>
      <trkpt lat="42.8643030" lon="-7.7863340">
        <ele>622.8</ele>
        <time>2020-10-19T11:33:01Z</time>
      </trkpt>
      <trkpt lat="42.8643130" lon="-7.7863480">
        <ele>622.9</ele>
        <time>2020-10-19T11:33:02Z</time>
      </trkpt>
      <trkpt lat="42.8643220" lon="-7.7863610">
        <ele>623.0</ele>
        <time>2020-10-19T11:33:03Z</time>
      </trkpt>
      <trkpt lat="42.8643310" lon="-7.7863730">
        <ele>623.1</ele>
        <time>2020-10-19T11:33:04Z</time>
      </trkpt>
      <trkpt lat="42.8643400" lon="-7.7863850">
        <ele>623.2</ele>
        <time>2020-10-19T11:33:05Z</time>
      </trkpt>
      <trkpt lat="42.8643520" lon="-7.7863950">
        <ele>623.3</ele>
        <time>2020-10-19T11:33:06Z</time>
      </trkpt>
      <trkpt lat="42.8643630" lon="-7.7864030">
        <ele>623.4</ele>
        <time>2020-10-19T11:33:07Z</time>
      </trkpt>
      <trkpt lat="42.8643750" lon="-7.7864110">
        <ele>623.4</ele>
        <time>2020-10-19T11:33:08Z</time>
      </trkpt>
      <trkpt lat="42.8643850" lon="-7.7864190">
        <ele>623.5</ele>
        <time>2020-10-19T11:33:09Z</time>
      </trkpt>
      <trkpt lat="42.8643950" lon="-7.7864280">
        <ele>623.5</ele>
        <time>2020-10-19T11:33:10Z</time>
      </trkpt>
      <trkpt lat="42.8644050" lon="-7.7864370">
        <ele>623.6</ele>
        <time>2020-10-19T11:33:11Z</time>
      </trkpt>
      <trkpt lat="42.8644150" lon="-7.7864470">
        <ele>623.7</ele>
        <time>2020-10-19T11:33:12Z</time>
      </trkpt>
      <trkpt lat="42.8644260" lon="-7.7864540">
        <ele>623.9</ele>
        <time>2020-10-19T11:33:13Z</time>
      </trkpt>
      <trkpt lat="42.8644360" lon="-7.7864610">
        <ele>624.1</ele>
        <time>2020-10-19T11:33:14Z</time>
      </trkpt>
      <trkpt lat="42.8644480" lon="-7.7864670">
        <ele>624.2</ele>
        <time>2020-10-19T11:33:15Z</time>
      </trkpt>
      <trkpt lat="42.8644590" lon="-7.7864740">
        <ele>624.4</ele>
        <time>2020-10-19T11:33:16Z</time>
      </trkpt>
      <trkpt lat="42.8644680" lon="-7.7864810">
        <ele>624.5</ele>
        <time>2020-10-19T11:33:17Z</time>
      </trkpt>
      <trkpt lat="42.8644780" lon="-7.7864900">
        <ele>624.7</ele>
        <time>2020-10-19T11:33:18Z</time>
      </trkpt>
      <trkpt lat="42.8644880" lon="-7.7864980">
        <ele>624.9</ele>
        <time>2020-10-19T11:33:19Z</time>
      </trkpt>
      <trkpt lat="42.8644980" lon="-7.7865060">
        <ele>625.0</ele>
        <time>2020-10-19T11:33:20Z</time>
      </trkpt>
      <trkpt lat="42.8645080" lon="-7.7865120">
        <ele>625.2</ele>
        <time>2020-10-19T11:33:21Z</time>
      </trkpt>
      <trkpt lat="42.8645190" lon="-7.7865180">
        <ele>625.3</ele>
        <time>2020-10-19T11:33:22Z</time>
      </trkpt>
      <trkpt lat="42.8645290" lon="-7.7865230">
        <ele>625.5</ele>
        <time>2020-10-19T11:33:23Z</time>
      </trkpt>
      <trkpt lat="42.8645400" lon="-7.7865280">
        <ele>625.6</ele>
        <time>2020-10-19T11:33:24Z</time>
      </trkpt>
      <trkpt lat="42.8645500" lon="-7.7865330">
        <ele>625.8</ele>
        <time>2020-10-19T11:33:25Z</time>
      </trkpt>
      <trkpt lat="42.8645600" lon="-7.7865390">
        <ele>625.9</ele>
        <time>2020-10-19T11:33:26Z</time>
      </trkpt>
      <trkpt lat="42.8645690" lon="-7.7865470">
        <ele>626.1</ele>
        <time>2020-10-19T11:33:27Z</time>
      </trkpt>
      <trkpt lat="42.8645800" lon="-7.7865540">
        <ele>626.2</ele>
        <time>2020-10-19T11:33:28Z</time>
      </trkpt>
      <trkpt lat="42.8645880" lon="-7.7865610">
        <ele>626.3</ele>
        <time>2020-10-19T11:33:29Z</time>
      </trkpt>
      <trkpt lat="42.8645980" lon="-7.7865680">
        <ele>626.5</ele>
        <time>2020-10-19T11:33:30Z</time>
      </trkpt>
      <trkpt lat="42.8646080" lon="-7.7865760">
        <ele>626.6</ele>
        <time>2020-10-19T11:33:31Z</time>
      </trkpt>
      <trkpt lat="42.8646200" lon="-7.7865860">
        <ele>626.8</ele>
        <time>2020-10-19T11:33:32Z</time>
      </trkpt>
      <trkpt lat="42.8646310" lon="-7.7865960">
        <ele>627.0</ele>
        <time>2020-10-19T11:33:33Z</time>
      </trkpt>
      <trkpt lat="42.8646420" lon="-7.7866070">
        <ele>627.1</ele>
        <time>2020-10-19T11:33:34Z</time>
      </trkpt>
      <trkpt lat="42.8646530" lon="-7.7866180">
        <ele>627.3</ele>
        <time>2020-10-19T11:33:35Z</time>
      </trkpt>
      <trkpt lat="42.8646630" lon="-7.7866270">
        <ele>627.4</ele>
        <time>2020-10-19T11:33:36Z</time>
      </trkpt>
      <trkpt lat="42.8646720" lon="-7.7866370">
        <ele>627.5</ele>
        <time>2020-10-19T11:33:37Z</time>
      </trkpt>
      <trkpt lat="42.8646820" lon="-7.7866470">
        <ele>627.5</ele>
        <time>2020-10-19T11:33:38Z</time>
      </trkpt>
      <trkpt lat="42.8646920" lon="-7.7866570">
        <ele>627.6</ele>
        <time>2020-10-19T11:33:39Z</time>
      </trkpt>
      <trkpt lat="42.8647010" lon="-7.7866670">
        <ele>627.6</ele>
        <time>2020-10-19T11:33:40Z</time>
      </trkpt>
      <trkpt lat="42.8647110" lon="-7.7866760">
        <ele>627.7</ele>
        <time>2020-10-19T11:33:41Z</time>
      </trkpt>
      <trkpt lat="42.8647200" lon="-7.7866860">
        <ele>627.7</ele>
        <time>2020-10-19T11:33:42Z</time>
      </trkpt>
      <trkpt lat="42.8647300" lon="-7.7866950">
        <ele>627.8</ele>
        <time>2020-10-19T11:33:43Z</time>
      </trkpt>
      <trkpt lat="42.8647400" lon="-7.7867020">
        <ele>627.8</ele>
        <time>2020-10-19T11:33:44Z</time>
      </trkpt>
      <trkpt lat="42.8647500" lon="-7.7867090">
        <ele>627.9</ele>
        <time>2020-10-19T11:33:45Z</time>
      </trkpt>
      <trkpt lat="42.8647610" lon="-7.7867160">
        <ele>627.9</ele>
        <time>2020-10-19T11:33:46Z</time>
      </trkpt>
      <trkpt lat="42.8647710" lon="-7.7867240">
        <ele>628.0</ele>
        <time>2020-10-19T11:33:47Z</time>
      </trkpt>
      <trkpt lat="42.8647820" lon="-7.7867340">
        <ele>628.2</ele>
        <time>2020-10-19T11:33:48Z</time>
      </trkpt>
      <trkpt lat="42.8647920" lon="-7.7867430">
        <ele>628.3</ele>
        <time>2020-10-19T11:33:49Z</time>
      </trkpt>
      <trkpt lat="42.8648020" lon="-7.7867530">
        <ele>628.3</ele>
        <time>2020-10-19T11:33:50Z</time>
      </trkpt>
      <trkpt lat="42.8648120" lon="-7.7867610">
        <ele>628.4</ele>
        <time>2020-10-19T11:33:51Z</time>
      </trkpt>
      <trkpt lat="42.8648220" lon="-7.7867700">
        <ele>628.5</ele>
        <time>2020-10-19T11:33:52Z</time>
      </trkpt>
      <trkpt lat="42.8648320" lon="-7.7867780">
        <ele>628.5</ele>
        <time>2020-10-19T11:33:53Z</time>
      </trkpt>
      <trkpt lat="42.8648420" lon="-7.7867860">
        <ele>628.6</ele>
        <time>2020-10-19T11:33:54Z</time>
      </trkpt>
      <trkpt lat="42.8648510" lon="-7.7867940">
        <ele>628.6</ele>
        <time>2020-10-19T11:33:55Z</time>
      </trkpt>
      <trkpt lat="42.8648610" lon="-7.7868020">
        <ele>628.7</ele>
        <time>2020-10-19T11:33:56Z</time>
      </trkpt>
      <trkpt lat="42.8648700" lon="-7.7868110">
        <ele>628.7</ele>
        <time>2020-10-19T11:33:57Z</time>
      </trkpt>
      <trkpt lat="42.8648790" lon="-7.7868200">
        <ele>628.8</ele>
        <time>2020-10-19T11:33:58Z</time>
      </trkpt>
      <trkpt lat="42.8648890" lon="-7.7868280">
        <ele>628.8</ele>
        <time>2020-10-19T11:33:59Z</time>
      </trkpt>
      <trkpt lat="42.8649000" lon="-7.7868350">
        <ele>628.9</ele>
        <time>2020-10-19T11:34:00Z</time>
      </trkpt>
      <trkpt lat="42.8649110" lon="-7.7868430">
        <ele>628.9</ele>
        <time>2020-10-19T11:34:01Z</time>
      </trkpt>
      <trkpt lat="42.8649220" lon="-7.7868510">
        <ele>629.0</ele>
        <time>2020-10-19T11:34:02Z</time>
      </trkpt>
      <trkpt lat="42.8649320" lon="-7.7868600">
        <ele>629.0</ele>
        <time>2020-10-19T11:34:03Z</time>
      </trkpt>
      <trkpt lat="42.8649430" lon="-7.7868690">
        <ele>629.0</ele>
        <time>2020-10-19T11:34:04Z</time>
      </trkpt>
      <trkpt lat="42.8649520" lon="-7.7868780">
        <ele>629.1</ele>
        <time>2020-10-19T11:34:05Z</time>
      </trkpt>
      <trkpt lat="42.8649620" lon="-7.7868870">
        <ele>629.1</ele>
        <time>2020-10-19T11:34:06Z</time>
      </trkpt>
      <trkpt lat="42.8649730" lon="-7.7868960">
        <ele>629.2</ele>
        <time>2020-10-19T11:34:07Z</time>
      </trkpt>
      <trkpt lat="42.8649850" lon="-7.7869060">
        <ele>629.2</ele>
        <time>2020-10-19T11:34:08Z</time>
      </trkpt>
      <trkpt lat="42.8649970" lon="-7.7869170">
        <ele>629.2</ele>
        <time>2020-10-19T11:34:09Z</time>
      </trkpt>
      <trkpt lat="42.8650100" lon="-7.7869270">
        <ele>629.3</ele>
        <time>2020-10-19T11:34:10Z</time>
      </trkpt>
      <trkpt lat="42.8650220" lon="-7.7869380">
        <ele>629.3</ele>
        <time>2020-10-19T11:34:11Z</time>
      </trkpt>
      <trkpt lat="42.8650340" lon="-7.7869470">
        <ele>629.4</ele>
        <time>2020-10-19T11:34:12Z</time>
      </trkpt>
      <trkpt lat="42.8650450" lon="-7.7869550">
        <ele>629.4</ele>
        <time>2020-10-19T11:34:13Z</time>
      </trkpt>
      <trkpt lat="42.8650560" lon="-7.7869630">
        <ele>629.4</ele>
        <time>2020-10-19T11:34:14Z</time>
      </trkpt>
      <trkpt lat="42.8650670" lon="-7.7869710">
        <ele>629.5</ele>
        <time>2020-10-19T11:34:15Z</time>
      </trkpt>
      <trkpt lat="42.8650760" lon="-7.7869800">
        <ele>629.5</ele>
        <time>2020-10-19T11:34:16Z</time>
      </trkpt>
      <trkpt lat="42.8650850" lon="-7.7869890">
        <ele>629.5</ele>
        <time>2020-10-19T11:34:17Z</time>
      </trkpt>
      <trkpt lat="42.8650940" lon="-7.7869980">
        <ele>629.5</ele>
        <time>2020-10-19T11:34:18Z</time>
      </trkpt>
      <trkpt lat="42.8651040" lon="-7.7870050">
        <ele>629.6</ele>
        <time>2020-10-19T11:34:19Z</time>
      </trkpt>
      <trkpt lat="42.8651130" lon="-7.7870120">
        <ele>629.6</ele>
        <time>2020-10-19T11:34:20Z</time>
      </trkpt>
      <trkpt lat="42.8651230" lon="-7.7870200">
        <ele>629.6</ele>
        <time>2020-10-19T11:34:21Z</time>
      </trkpt>
      <trkpt lat="42.8651330" lon="-7.7870270">
        <ele>629.7</ele>
        <time>2020-10-19T11:34:22Z</time>
      </trkpt>
      <trkpt lat="42.8651430" lon="-7.7870360">
        <ele>629.7</ele>
        <time>2020-10-19T11:34:23Z</time>
      </trkpt>
      <trkpt lat="42.8651540" lon="-7.7870460">
        <ele>629.7</ele>
        <time>2020-10-19T11:34:24Z</time>
      </trkpt>
      <trkpt lat="42.8651650" lon="-7.7870540">
        <ele>629.8</ele>
        <time>2020-10-19T11:34:25Z</time>
      </trkpt>
      <trkpt lat="42.8651750" lon="-7.7870610">
        <ele>629.8</ele>
        <time>2020-10-19T11:34:26Z</time>
      </trkpt>
      <trkpt lat="42.8651850" lon="-7.7870670">
        <ele>629.8</ele>
        <time>2020-10-19T11:34:27Z</time>
      </trkpt>
      <trkpt lat="42.8651930" lon="-7.7870730">
        <ele>629.8</ele>
        <time>2020-10-19T11:34:28Z</time>
      </trkpt>
      <trkpt lat="42.8652010" lon="-7.7870780">
        <ele>629.9</ele>
        <time>2020-10-19T11:34:29Z</time>
      </trkpt>
      <trkpt lat="42.8652090" lon="-7.7870840">
        <ele>629.9</ele>
        <time>2020-10-19T11:34:30Z</time>
      </trkpt>
      <trkpt lat="42.8652170" lon="-7.7870900">
        <ele>629.9</ele>
        <time>2020-10-19T11:34:31Z</time>
      </trkpt>
      <trkpt lat="42.8652240" lon="-7.7870970">
        <ele>629.9</ele>
        <time>2020-10-19T11:34:32Z</time>
      </trkpt>
      <trkpt lat="42.8652320" lon="-7.7871050">
        <ele>630.0</ele>
        <time>2020-10-19T11:34:33Z</time>
      </trkpt>
      <trkpt lat="42.8652420" lon="-7.7871150">
        <ele>630.0</ele>
        <time>2020-10-19T11:34:34Z</time>
      </trkpt>
      <trkpt lat="42.8652530" lon="-7.7871260">
        <ele>630.0</ele>
        <time>2020-10-19T11:34:35Z</time>
      </trkpt>
      <trkpt lat="42.8652660" lon="-7.7871360">
        <ele>630.1</ele>
        <time>2020-10-19T11:34:36Z</time>
      </trkpt>
      <trkpt lat="42.8652790" lon="-7.7871470">
        <ele>630.1</ele>
        <time>2020-10-19T11:34:37Z</time>
      </trkpt>
      <trkpt lat="42.8652930" lon="-7.7871600">
        <ele>630.2</ele>
        <time>2020-10-19T11:34:38Z</time>
      </trkpt>
      <trkpt lat="42.8653070" lon="-7.7871730">
        <ele>630.3</ele>
        <time>2020-10-19T11:34:39Z</time>
      </trkpt>
      <trkpt lat="42.8653200" lon="-7.7871860">
        <ele>630.3</ele>
        <time>2020-10-19T11:34:40Z</time>
      </trkpt>
      <trkpt lat="42.8653330" lon="-7.7871970">
        <ele>630.4</ele>
        <time>2020-10-19T11:34:41Z</time>
      </trkpt>
      <trkpt lat="42.8653440" lon="-7.7872070">
        <ele>630.4</ele>
        <time>2020-10-19T11:34:42Z</time>
      </trkpt>
      <trkpt lat="42.8653550" lon="-7.7872170">
        <ele>630.5</ele>
        <time>2020-10-19T11:34:43Z</time>
      </trkpt>
      <trkpt lat="42.8653660" lon="-7.7872280">
        <ele>630.5</ele>
        <time>2020-10-19T11:34:44Z</time>
      </trkpt>
      <trkpt lat="42.8653770" lon="-7.7872390">
        <ele>630.6</ele>
        <time>2020-10-19T11:34:45Z</time>
      </trkpt>
      <trkpt lat="42.8653880" lon="-7.7872490">
        <ele>630.6</ele>
        <time>2020-10-19T11:34:46Z</time>
      </trkpt>
      <trkpt lat="42.8653980" lon="-7.7872600">
        <ele>630.7</ele>
        <time>2020-10-19T11:34:47Z</time>
      </trkpt>
      <trkpt lat="42.8654090" lon="-7.7872730">
        <ele>630.7</ele>
        <time>2020-10-19T11:34:48Z</time>
      </trkpt>
      <trkpt lat="42.8654200" lon="-7.7872860">
        <ele>630.8</ele>
        <time>2020-10-19T11:34:49Z</time>
      </trkpt>
      <trkpt lat="42.8654300" lon="-7.7872980">
        <ele>630.8</ele>
        <time>2020-10-19T11:34:50Z</time>
      </trkpt>
      <trkpt lat="42.8654400" lon="-7.7873100">
        <ele>630.8</ele>
        <time>2020-10-19T11:34:51Z</time>
      </trkpt>
      <trkpt lat="42.8654470" lon="-7.7873220">
        <ele>630.9</ele>
        <time>2020-10-19T11:34:52Z</time>
      </trkpt>
      <trkpt lat="42.8654540" lon="-7.7873350">
        <ele>630.9</ele>
        <time>2020-10-19T11:34:53Z</time>
      </trkpt>
      <trkpt lat="42.8654610" lon="-7.7873490">
        <ele>630.9</ele>
        <time>2020-10-19T11:34:54Z</time>
      </trkpt>
      <trkpt lat="42.8654680" lon="-7.7873630">
        <ele>631.0</ele>
        <time>2020-10-19T11:34:55Z</time>
      </trkpt>
      <trkpt lat="42.8654770" lon="-7.7873780">
        <ele>631.0</ele>
        <time>2020-10-19T11:34:56Z</time>
      </trkpt>
      <trkpt lat="42.8654830" lon="-7.7873920">
        <ele>631.0</ele>
        <time>2020-10-19T11:34:57Z</time>
      </trkpt>
      <trkpt lat="42.8654890" lon="-7.7874070">
        <ele>631.1</ele>
        <time>2020-10-19T11:34:58Z</time>
      </trkpt>
      <trkpt lat="42.8654920" lon="-7.7874220">
        <ele>631.1</ele>
        <time>2020-10-19T11:34:59Z</time>
      </trkpt>
      <trkpt lat="42.8654960" lon="-7.7874370">
        <ele>631.1</ele>
        <time>2020-10-19T11:35:00Z</time>
      </trkpt>
      <trkpt lat="42.8655000" lon="-7.7874500">
        <ele>631.1</ele>
        <time>2020-10-19T11:35:01Z</time>
      </trkpt>
      <trkpt lat="42.8655040" lon="-7.7874630">
        <ele>631.2</ele>
        <time>2020-10-19T11:35:02Z</time>
      </trkpt>
      <trkpt lat="42.8655090" lon="-7.7874760">
        <ele>631.2</ele>
        <time>2020-10-19T11:35:03Z</time>
      </trkpt>
      <trkpt lat="42.8655130" lon="-7.7874890">
        <ele>631.2</ele>
        <time>2020-10-19T11:35:04Z</time>
      </trkpt>
      <trkpt lat="42.8655180" lon="-7.7875030">
        <ele>631.2</ele>
        <time>2020-10-19T11:35:05Z</time>
      </trkpt>
      <trkpt lat="42.8655220" lon="-7.7875190">
        <ele>631.2</ele>
        <time>2020-10-19T11:35:06Z</time>
      </trkpt>
      <trkpt lat="42.8655230" lon="-7.7875360">
        <ele>631.2</ele>
        <time>2020-10-19T11:35:07Z</time>
      </trkpt>
      <trkpt lat="42.8655240" lon="-7.7875520">
        <ele>631.3</ele>
        <time>2020-10-19T11:35:08Z</time>
      </trkpt>
      <trkpt lat="42.8655230" lon="-7.7875690">
        <ele>631.3</ele>
        <time>2020-10-19T11:35:09Z</time>
      </trkpt>
      <trkpt lat="42.8655230" lon="-7.7875860">
        <ele>631.3</ele>
        <time>2020-10-19T11:35:10Z</time>
      </trkpt>
      <trkpt lat="42.8655230" lon="-7.7876030">
        <ele>631.3</ele>
        <time>2020-10-19T11:35:11Z</time>
      </trkpt>
      <trkpt lat="42.8655240" lon="-7.7876200">
        <ele>631.3</ele>
        <time>2020-10-19T11:35:12Z</time>
      </trkpt>
      <trkpt lat="42.8655260" lon="-7.7876360">
        <ele>631.4</ele>
        <time>2020-10-19T11:35:13Z</time>
      </trkpt>
      <trkpt lat="42.8655300" lon="-7.7876540">
        <ele>631.4</ele>
        <time>2020-10-19T11:35:14Z</time>
      </trkpt>
      <trkpt lat="42.8655340" lon="-7.7876700">
        <ele>631.4</ele>
        <time>2020-10-19T11:35:15Z</time>
      </trkpt>
      <trkpt lat="42.8655370" lon="-7.7876880">
        <ele>631.4</ele>
        <time>2020-10-19T11:35:16Z</time>
      </trkpt>
      <trkpt lat="42.8655410" lon="-7.7877040">
        <ele>631.4</ele>
        <time>2020-10-19T11:35:17Z</time>
      </trkpt>
      <trkpt lat="42.8655440" lon="-7.7877210">
        <ele>631.5</ele>
        <time>2020-10-19T11:35:18Z</time>
      </trkpt>
      <trkpt lat="42.8655480" lon="-7.7877390">
        <ele>631.5</ele>
        <time>2020-10-19T11:35:19Z</time>
      </trkpt>
      <trkpt lat="42.8655510" lon="-7.7877550">
        <ele>631.5</ele>
        <time>2020-10-19T11:35:20Z</time>
      </trkpt>
      <trkpt lat="42.8655550" lon="-7.7877730">
        <ele>631.5</ele>
        <time>2020-10-19T11:35:21Z</time>
      </trkpt>
      <trkpt lat="42.8655580" lon="-7.7877900">
        <ele>631.5</ele>
        <time>2020-10-19T11:35:22Z</time>
      </trkpt>
      <trkpt lat="42.8655600" lon="-7.7878090">
        <ele>631.5</ele>
        <time>2020-10-19T11:35:23Z</time>
      </trkpt>
      <trkpt lat="42.8655610" lon="-7.7878270">
        <ele>631.6</ele>
        <time>2020-10-19T11:35:24Z</time>
      </trkpt>
      <trkpt lat="42.8655630" lon="-7.7878450">
        <ele>631.6</ele>
        <time>2020-10-19T11:35:25Z</time>
      </trkpt>
      <trkpt lat="42.8655640" lon="-7.7878630">
        <ele>631.6</ele>
        <time>2020-10-19T11:35:26Z</time>
      </trkpt>
      <trkpt lat="42.8655650" lon="-7.7878800">
        <ele>631.6</ele>
        <time>2020-10-19T11:35:27Z</time>
      </trkpt>
      <trkpt lat="42.8655680" lon="-7.7878970">
        <ele>631.6</ele>
        <time>2020-10-19T11:35:28Z</time>
      </trkpt>
      <trkpt lat="42.8655720" lon="-7.7879140">
        <ele>631.6</ele>
        <time>2020-10-19T11:35:29Z</time>
      </trkpt>
      <trkpt lat="42.8655760" lon="-7.7879320">
        <ele>631.6</ele>
        <time>2020-10-19T11:35:30Z</time>
      </trkpt>
      <trkpt lat="42.8655800" lon="-7.7879490">
        <ele>631.6</ele>
        <time>2020-10-19T11:35:31Z</time>
      </trkpt>
      <trkpt lat="42.8655840" lon="-7.7879670">
        <ele>631.6</ele>
        <time>2020-10-19T11:35:32Z</time>
      </trkpt>
      <trkpt lat="42.8655870" lon="-7.7879850">
        <ele>631.7</ele>
        <time>2020-10-19T11:35:33Z</time>
      </trkpt>
      <trkpt lat="42.8655890" lon="-7.7880020">
        <ele>631.7</ele>
        <time>2020-10-19T11:35:34Z</time>
      </trkpt>
      <trkpt lat="42.8655920" lon="-7.7880190">
        <ele>631.7</ele>
        <time>2020-10-19T11:35:35Z</time>
      </trkpt>
      <trkpt lat="42.8655950" lon="-7.7880350">
        <ele>631.7</ele>
        <time>2020-10-19T11:35:36Z</time>
      </trkpt>
      <trkpt lat="42.8655980" lon="-7.7880510">
        <ele>631.7</ele>
        <time>2020-10-19T11:35:37Z</time>
      </trkpt>
      <trkpt lat="42.8656010" lon="-7.7880670">
        <ele>631.7</ele>
        <time>2020-10-19T11:35:38Z</time>
      </trkpt>
      <trkpt lat="42.8656040" lon="-7.7880830">
        <ele>631.7</ele>
        <time>2020-10-19T11:35:39Z</time>
      </trkpt>
      <trkpt lat="42.8656070" lon="-7.7880990">
        <ele>631.7</ele>
        <time>2020-10-19T11:35:40Z</time>
      </trkpt>
      <trkpt lat="42.8656090" lon="-7.7881160">
        <ele>631.7</ele>
        <time>2020-10-19T11:35:41Z</time>
      </trkpt>
      <trkpt lat="42.8656120" lon="-7.7881330">
        <ele>631.7</ele>
        <time>2020-10-19T11:35:42Z</time>
      </trkpt>
      <trkpt lat="42.8656140" lon="-7.7881500">
        <ele>631.7</ele>
        <time>2020-10-19T11:35:43Z</time>
      </trkpt>
      <trkpt lat="42.8656170" lon="-7.7881660">
        <ele>631.7</ele>
        <time>2020-10-19T11:35:44Z</time>
      </trkpt>
      <trkpt lat="42.8656190" lon="-7.7881830">
        <ele>631.7</ele>
        <time>2020-10-19T11:35:45Z</time>
      </trkpt>
      <trkpt lat="42.8656220" lon="-7.7882000">
        <ele>631.7</ele>
        <time>2020-10-19T11:35:46Z</time>
      </trkpt>
      <trkpt lat="42.8656250" lon="-7.7882160">
        <ele>631.7</ele>
        <time>2020-10-19T11:35:47Z</time>
      </trkpt>
      <trkpt lat="42.8656270" lon="-7.7882330">
        <ele>631.7</ele>
        <time>2020-10-19T11:35:48Z</time>
      </trkpt>
      <trkpt lat="42.8656290" lon="-7.7882510">
        <ele>631.7</ele>
        <time>2020-10-19T11:35:49Z</time>
      </trkpt>
      <trkpt lat="42.8656300" lon="-7.7882680">
        <ele>631.7</ele>
        <time>2020-10-19T11:35:50Z</time>
      </trkpt>
      <trkpt lat="42.8656300" lon="-7.7882860">
        <ele>631.7</ele>
        <time>2020-10-19T11:35:51Z</time>
      </trkpt>
      <trkpt lat="42.8656300" lon="-7.7883040">
        <ele>631.7</ele>
        <time>2020-10-19T11:35:52Z</time>
      </trkpt>
      <trkpt lat="42.8656290" lon="-7.7883230">
        <ele>631.7</ele>
        <time>2020-10-19T11:35:53Z</time>
      </trkpt>
      <trkpt lat="42.8656290" lon="-7.7883410">
        <ele>631.7</ele>
        <time>2020-10-19T11:35:54Z</time>
      </trkpt>
      <trkpt lat="42.8656300" lon="-7.7883590">
        <ele>631.7</ele>
        <time>2020-10-19T11:35:55Z</time>
      </trkpt>
      <trkpt lat="42.8656320" lon="-7.7883780">
        <ele>631.7</ele>
        <time>2020-10-19T11:35:56Z</time>
      </trkpt>
      <trkpt lat="42.8656340" lon="-7.7883970">
        <ele>631.7</ele>
        <time>2020-10-19T11:35:57Z</time>
      </trkpt>
      <trkpt lat="42.8656370" lon="-7.7884150">
        <ele>631.7</ele>
        <time>2020-10-19T11:35:58Z</time>
      </trkpt>
      <trkpt lat="42.8656390" lon="-7.7884320">
        <ele>631.7</ele>
        <time>2020-10-19T11:35:59Z</time>
      </trkpt>
      <trkpt lat="42.8656400" lon="-7.7884470">
        <ele>631.7</ele>
        <time>2020-10-19T11:36:00Z</time>
      </trkpt>
      <trkpt lat="42.8656410" lon="-7.7884630">
        <ele>631.6</ele>
        <time>2020-10-19T11:36:01Z</time>
      </trkpt>
      <trkpt lat="42.8656420" lon="-7.7884780">
        <ele>631.6</ele>
        <time>2020-10-19T11:36:02Z</time>
      </trkpt>
      <trkpt lat="42.8656440" lon="-7.7884940">
        <ele>631.6</ele>
        <time>2020-10-19T11:36:03Z</time>
      </trkpt>
      <trkpt lat="42.8656460" lon="-7.7885110">
        <ele>631.6</ele>
        <time>2020-10-19T11:36:04Z</time>
      </trkpt>
      <trkpt lat="42.8656480" lon="-7.7885280">
        <ele>631.6</ele>
        <time>2020-10-19T11:36:05Z</time>
      </trkpt>
      <trkpt lat="42.8656500" lon="-7.7885460">
        <ele>631.6</ele>
        <time>2020-10-19T11:36:06Z</time>
      </trkpt>
      <trkpt lat="42.8656510" lon="-7.7885630">
        <ele>631.6</ele>
        <time>2020-10-19T11:36:07Z</time>
      </trkpt>
      <trkpt lat="42.8656520" lon="-7.7885800">
        <ele>631.6</ele>
        <time>2020-10-19T11:36:08Z</time>
      </trkpt>
      <trkpt lat="42.8656520" lon="-7.7885980">
        <ele>631.5</ele>
        <time>2020-10-19T11:36:09Z</time>
      </trkpt>
      <trkpt lat="42.8656510" lon="-7.7886150">
        <ele>631.5</ele>
        <time>2020-10-19T11:36:10Z</time>
      </trkpt>
      <trkpt lat="42.8656510" lon="-7.7886330">
        <ele>631.5</ele>
        <time>2020-10-19T11:36:11Z</time>
      </trkpt>
      <trkpt lat="42.8656510" lon="-7.7886500">
        <ele>631.5</ele>
        <time>2020-10-19T11:36:12Z</time>
      </trkpt>
      <trkpt lat="42.8656510" lon="-7.7886680">
        <ele>631.5</ele>
        <time>2020-10-19T11:36:13Z</time>
      </trkpt>
      <trkpt lat="42.8656510" lon="-7.7886860">
        <ele>631.4</ele>
        <time>2020-10-19T11:36:14Z</time>
      </trkpt>
      <trkpt lat="42.8656510" lon="-7.7887040">
        <ele>631.4</ele>
        <time>2020-10-19T11:36:15Z</time>
      </trkpt>
      <trkpt lat="42.8656520" lon="-7.7887230">
        <ele>631.4</ele>
        <time>2020-10-19T11:36:16Z</time>
      </trkpt>
      <trkpt lat="42.8656520" lon="-7.7887410">
        <ele>631.4</ele>
        <time>2020-10-19T11:36:17Z</time>
      </trkpt>
      <trkpt lat="42.8656530" lon="-7.7887590">
        <ele>631.3</ele>
        <time>2020-10-19T11:36:18Z</time>
      </trkpt>
      <trkpt lat="42.8656520" lon="-7.7887760">
        <ele>631.3</ele>
        <time>2020-10-19T11:36:19Z</time>
      </trkpt>
      <trkpt lat="42.8656510" lon="-7.7887940">
        <ele>631.3</ele>
        <time>2020-10-19T11:36:20Z</time>
      </trkpt>
      <trkpt lat="42.8656500" lon="-7.7888120">
        <ele>631.2</ele>
        <time>2020-10-19T11:36:21Z</time>
      </trkpt>
      <trkpt lat="42.8656490" lon="-7.7888290">
        <ele>631.2</ele>
        <time>2020-10-19T11:36:22Z</time>
      </trkpt>
      <trkpt lat="42.8656480" lon="-7.7888460">
        <ele>631.2</ele>
        <time>2020-10-19T11:36:23Z</time>
      </trkpt>
      <trkpt lat="42.8656480" lon="-7.7888630">
        <ele>631.2</ele>
        <time>2020-10-19T11:36:24Z</time>
      </trkpt>
      <trkpt lat="42.8656490" lon="-7.7888790">
        <ele>631.1</ele>
        <time>2020-10-19T11:36:25Z</time>
      </trkpt>
      <trkpt lat="42.8656490" lon="-7.7888940">
        <ele>631.1</ele>
        <time>2020-10-19T11:36:26Z</time>
      </trkpt>
      <trkpt lat="42.8656480" lon="-7.7889090">
        <ele>631.1</ele>
        <time>2020-10-19T11:36:27Z</time>
      </trkpt>
      <trkpt lat="42.8656460" lon="-7.7889250">
        <ele>631.0</ele>
        <time>2020-10-19T11:36:28Z</time>
      </trkpt>
      <trkpt lat="42.8656430" lon="-7.7889410">
        <ele>631.0</ele>
        <time>2020-10-19T11:36:29Z</time>
      </trkpt>
      <trkpt lat="42.8656400" lon="-7.7889570">
        <ele>631.0</ele>
        <time>2020-10-19T11:36:30Z</time>
      </trkpt>
      <trkpt lat="42.8656380" lon="-7.7889720">
        <ele>630.9</ele>
        <time>2020-10-19T11:36:31Z</time>
      </trkpt>
      <trkpt lat="42.8656370" lon="-7.7889880">
        <ele>630.9</ele>
        <time>2020-10-19T11:36:32Z</time>
      </trkpt>
      <trkpt lat="42.8656350" lon="-7.7890030">
        <ele>630.9</ele>
        <time>2020-10-19T11:36:33Z</time>
      </trkpt>
      <trkpt lat="42.8656330" lon="-7.7890180">
        <ele>630.9</ele>
        <time>2020-10-19T11:36:34Z</time>
      </trkpt>
      <trkpt lat="42.8656320" lon="-7.7890340">
        <ele>630.8</ele>
        <time>2020-10-19T11:36:35Z</time>
      </trkpt>
      <trkpt lat="42.8656300" lon="-7.7890500">
        <ele>630.8</ele>
        <time>2020-10-19T11:36:36Z</time>
      </trkpt>
      <trkpt lat="42.8656290" lon="-7.7890660">
        <ele>630.7</ele>
        <time>2020-10-19T11:36:37Z</time>
      </trkpt>
      <trkpt lat="42.8656280" lon="-7.7890830">
        <ele>630.7</ele>
        <time>2020-10-19T11:36:38Z</time>
      </trkpt>
      <trkpt lat="42.8656260" lon="-7.7890990">
        <ele>630.7</ele>
        <time>2020-10-19T11:36:39Z</time>
      </trkpt>
      <trkpt lat="42.8656240" lon="-7.7891150">
        <ele>630.6</ele>
        <time>2020-10-19T11:36:40Z</time>
      </trkpt>
      <trkpt lat="42.8656230" lon="-7.7891300">
        <ele>630.6</ele>
        <time>2020-10-19T11:36:41Z</time>
      </trkpt>
      <trkpt lat="42.8656210" lon="-7.7891450">
        <ele>630.5</ele>
        <time>2020-10-19T11:36:42Z</time>
      </trkpt>
      <trkpt lat="42.8656190" lon="-7.7891600">
        <ele>630.5</ele>
        <time>2020-10-19T11:36:43Z</time>
      </trkpt>
      <trkpt lat="42.8656180" lon="-7.7891770">
        <ele>630.5</ele>
        <time>2020-10-19T11:36:44Z</time>
      </trkpt>
      <trkpt lat="42.8656160" lon="-7.7891940">
        <ele>630.4</ele>
        <time>2020-10-19T11:36:45Z</time>
      </trkpt>
      <trkpt lat="42.8656150" lon="-7.7892110">
        <ele>630.4</ele>
        <time>2020-10-19T11:36:46Z</time>
      </trkpt>
      <trkpt lat="42.8656140" lon="-7.7892270">
        <ele>630.3</ele>
        <time>2020-10-19T11:36:47Z</time>
      </trkpt>
      <trkpt lat="42.8656140" lon="-7.7892440">
        <ele>630.3</ele>
        <time>2020-10-19T11:36:48Z</time>
      </trkpt>
      <trkpt lat="42.8656130" lon="-7.7892610">
        <ele>630.2</ele>
        <time>2020-10-19T11:36:49Z</time>
      </trkpt>
      <trkpt lat="42.8656120" lon="-7.7892790">
        <ele>630.2</ele>
        <time>2020-10-19T11:36:50Z</time>
      </trkpt>
      <trkpt lat="42.8656110" lon="-7.7892960">
        <ele>630.1</ele>
        <time>2020-10-19T11:36:51Z</time>
      </trkpt>
      <trkpt lat="42.8656090" lon="-7.7893130">
        <ele>630.1</ele>
        <time>2020-10-19T11:36:52Z</time>
      </trkpt>
      <trkpt lat="42.8656080" lon="-7.7893300">
        <ele>630.0</ele>
        <time>2020-10-19T11:36:53Z</time>
      </trkpt>
      <trkpt lat="42.8656060" lon="-7.7893470">
        <ele>630.0</ele>
        <time>2020-10-19T11:36:54Z</time>
      </trkpt>
      <trkpt lat="42.8656040" lon="-7.7893640">
        <ele>629.9</ele>
        <time>2020-10-19T11:36:55Z</time>
      </trkpt>
      <trkpt lat="42.8656020" lon="-7.7893810">
        <ele>629.9</ele>
        <time>2020-10-19T11:36:56Z</time>
      </trkpt>
      <trkpt lat="42.8655980" lon="-7.7893980">
        <ele>629.8</ele>
        <time>2020-10-19T11:36:57Z</time>
      </trkpt>
      <trkpt lat="42.8655950" lon="-7.7894150">
        <ele>629.8</ele>
        <time>2020-10-19T11:36:58Z</time>
      </trkpt>
      <trkpt lat="42.8655920" lon="-7.7894330">
        <ele>629.7</ele>
        <time>2020-10-19T11:36:59Z</time>
      </trkpt>
      <trkpt lat="42.8655900" lon="-7.7894500">
        <ele>629.7</ele>
        <time>2020-10-19T11:37:00Z</time>
      </trkpt>
      <trkpt lat="42.8655880" lon="-7.7894680">
        <ele>629.6</ele>
        <time>2020-10-19T11:37:01Z</time>
      </trkpt>
      <trkpt lat="42.8655870" lon="-7.7894850">
        <ele>629.5</ele>
        <time>2020-10-19T11:37:02Z</time>
      </trkpt>
      <trkpt lat="42.8655860" lon="-7.7895020">
        <ele>629.5</ele>
        <time>2020-10-19T11:37:03Z</time>
      </trkpt>
      <trkpt lat="42.8655840" lon="-7.7895180">
        <ele>629.4</ele>
        <time>2020-10-19T11:37:04Z</time>
      </trkpt>
      <trkpt lat="42.8655820" lon="-7.7895330">
        <ele>629.4</ele>
        <time>2020-10-19T11:37:05Z</time>
      </trkpt>
      <trkpt lat="42.8655800" lon="-7.7895490">
        <ele>629.3</ele>
        <time>2020-10-19T11:37:06Z</time>
      </trkpt>
      <trkpt lat="42.8655790" lon="-7.7895670">
        <ele>629.3</ele>
        <time>2020-10-19T11:37:07Z</time>
      </trkpt>
      <trkpt lat="42.8655770" lon="-7.7895830">
        <ele>629.2</ele>
        <time>2020-10-19T11:37:08Z</time>
      </trkpt>
      <trkpt lat="42.8655750" lon="-7.7895990">
        <ele>629.1</ele>
        <time>2020-10-19T11:37:09Z</time>
      </trkpt>
      <trkpt lat="42.8655720" lon="-7.7896140">
        <ele>629.1</ele>
        <time>2020-10-19T11:37:10Z</time>
      </trkpt>
      <trkpt lat="42.8655690" lon="-7.7896280">
        <ele>629.0</ele>
        <time>2020-10-19T11:37:11Z</time>
      </trkpt>
      <trkpt lat="42.8655680" lon="-7.7896410">
        <ele>629.0</ele>
        <time>2020-10-19T11:37:12Z</time>
      </trkpt>
      <trkpt lat="42.8655680" lon="-7.7896560">
        <ele>628.9</ele>
        <time>2020-10-19T11:37:13Z</time>
      </trkpt>
      <trkpt lat="42.8655670" lon="-7.7896710">
        <ele>628.8</ele>
        <time>2020-10-19T11:37:14Z</time>
      </trkpt>
      <trkpt lat="42.8655660" lon="-7.7896870">
        <ele>628.8</ele>
        <time>2020-10-19T11:37:15Z</time>
      </trkpt>
      <trkpt lat="42.8655640" lon="-7.7897020">
        <ele>628.7</ele>
        <time>2020-10-19T11:37:16Z</time>
      </trkpt>
      <trkpt lat="42.8655620" lon="-7.7897180">
        <ele>628.6</ele>
        <time>2020-10-19T11:37:17Z</time>
      </trkpt>
      <trkpt lat="42.8655600" lon="-7.7897330">
        <ele>628.6</ele>
        <time>2020-10-19T11:37:18Z</time>
      </trkpt>
      <trkpt lat="42.8655590" lon="-7.7897490">
        <ele>628.5</ele>
        <time>2020-10-19T11:37:19Z</time>
      </trkpt>
      <trkpt lat="42.8655570" lon="-7.7897650">
        <ele>628.4</ele>
        <time>2020-10-19T11:37:20Z</time>
      </trkpt>
      <trkpt lat="42.8655550" lon="-7.7897820">
        <ele>628.3</ele>
        <time>2020-10-19T11:37:21Z</time>
      </trkpt>
      <trkpt lat="42.8655540" lon="-7.7897980">
        <ele>628.3</ele>
        <time>2020-10-19T11:37:22Z</time>
      </trkpt>
      <trkpt lat="42.8655530" lon="-7.7898140">
        <ele>628.2</ele>
        <time>2020-10-19T11:37:23Z</time>
      </trkpt>
      <trkpt lat="42.8655530" lon="-7.7898290">
        <ele>628.1</ele>
        <time>2020-10-19T11:37:24Z</time>
      </trkpt>
      <trkpt lat="42.8655530" lon="-7.7898430">
        <ele>628.1</ele>
        <time>2020-10-19T11:37:25Z</time>
      </trkpt>
      <trkpt lat="42.8655520" lon="-7.7898560">
        <ele>628.0</ele>
        <time>2020-10-19T11:37:26Z</time>
      </trkpt>
      <trkpt lat="42.8655510" lon="-7.7898690">
        <ele>627.9</ele>
        <time>2020-10-19T11:37:27Z</time>
      </trkpt>
      <trkpt lat="42.8655500" lon="-7.7898830">
        <ele>627.9</ele>
        <time>2020-10-19T11:37:28Z</time>
      </trkpt>
      <trkpt lat="42.8655520" lon="-7.7898960">
        <ele>627.8</ele>
        <time>2020-10-19T11:37:29Z</time>
      </trkpt>
      <trkpt lat="42.8655530" lon="-7.7899090">
        <ele>627.7</ele>
        <time>2020-10-19T11:37:30Z</time>
      </trkpt>
      <trkpt lat="42.8655540" lon="-7.7899220">
        <ele>627.7</ele>
        <time>2020-10-19T11:37:31Z</time>
      </trkpt>
      <trkpt lat="42.8655550" lon="-7.7899360">
        <ele>627.6</ele>
        <time>2020-10-19T11:37:32Z</time>
      </trkpt>
      <trkpt lat="42.8655580" lon="-7.7899510">
        <ele>627.5</ele>
        <time>2020-10-19T11:37:33Z</time>
      </trkpt>
      <trkpt lat="42.8655610" lon="-7.7899640">
        <ele>627.5</ele>
        <time>2020-10-19T11:37:34Z</time>
      </trkpt>
      <trkpt lat="42.8655620" lon="-7.7899780">
        <ele>627.4</ele>
        <time>2020-10-19T11:37:35Z</time>
      </trkpt>
      <trkpt lat="42.8655630" lon="-7.7899920">
        <ele>627.3</ele>
        <time>2020-10-19T11:37:36Z</time>
      </trkpt>
      <trkpt lat="42.8655640" lon="-7.7900070">
        <ele>627.3</ele>
        <time>2020-10-19T11:37:37Z</time>
      </trkpt>
      <trkpt lat="42.8655660" lon="-7.7900200">
        <ele>627.2</ele>
        <time>2020-10-19T11:37:38Z</time>
      </trkpt>
      <trkpt lat="42.8655690" lon="-7.7900340">
        <ele>627.1</ele>
        <time>2020-10-19T11:37:39Z</time>
      </trkpt>
      <trkpt lat="42.8655690" lon="-7.7900500">
        <ele>627.0</ele>
        <time>2020-10-19T11:37:40Z</time>
      </trkpt>
      <trkpt lat="42.8655660" lon="-7.7900710">
        <ele>626.9</ele>
        <time>2020-10-19T11:37:41Z</time>
      </trkpt>
      <trkpt lat="42.8655640" lon="-7.7900950">
        <ele>626.8</ele>
        <time>2020-10-19T11:37:42Z</time>
      </trkpt>
      <trkpt lat="42.8655620" lon="-7.7901170">
        <ele>626.7</ele>
        <time>2020-10-19T11:37:43Z</time>
      </trkpt>
      <trkpt lat="42.8655640" lon="-7.7901370">
        <ele>626.6</ele>
        <time>2020-10-19T11:37:44Z</time>
      </trkpt>
      <trkpt lat="42.8655650" lon="-7.7901560">
        <ele>626.5</ele>
        <time>2020-10-19T11:37:45Z</time>
      </trkpt>
      <trkpt lat="42.8655670" lon="-7.7901780">
        <ele>626.4</ele>
        <time>2020-10-19T11:37:46Z</time>
      </trkpt>
      <trkpt lat="42.8655670" lon="-7.7901990">
        <ele>626.3</ele>
        <time>2020-10-19T11:37:47Z</time>
      </trkpt>
      <trkpt lat="42.8655670" lon="-7.7902200">
        <ele>626.2</ele>
        <time>2020-10-19T11:37:48Z</time>
      </trkpt>
      <trkpt lat="42.8655680" lon="-7.7902410">
        <ele>626.1</ele>
        <time>2020-10-19T11:37:49Z</time>
      </trkpt>
      <trkpt lat="42.8655700" lon="-7.7902600">
        <ele>626.0</ele>
        <time>2020-10-19T11:37:50Z</time>
      </trkpt>
      <trkpt lat="42.8655730" lon="-7.7902790">
        <ele>625.9</ele>
        <time>2020-10-19T11:37:51Z</time>
      </trkpt>
      <trkpt lat="42.8655750" lon="-7.7902980">
        <ele>625.8</ele>
        <time>2020-10-19T11:37:52Z</time>
      </trkpt>
      <trkpt lat="42.8655770" lon="-7.7903160">
        <ele>625.7</ele>
        <time>2020-10-19T11:37:53Z</time>
      </trkpt>
      <trkpt lat="42.8655790" lon="-7.7903340">
        <ele>625.6</ele>
        <time>2020-10-19T11:37:54Z</time>
      </trkpt>
      <trkpt lat="42.8655800" lon="-7.7903520">
        <ele>625.5</ele>
        <time>2020-10-19T11:37:55Z</time>
      </trkpt>
      <trkpt lat="42.8655810" lon="-7.7903690">
        <ele>625.5</ele>
        <time>2020-10-19T11:37:56Z</time>
      </trkpt>
      <trkpt lat="42.8655820" lon="-7.7903850">
        <ele>625.4</ele>
        <time>2020-10-19T11:37:57Z</time>
      </trkpt>
      <trkpt lat="42.8655850" lon="-7.7904000">
        <ele>625.3</ele>
        <time>2020-10-19T11:37:58Z</time>
      </trkpt>
      <trkpt lat="42.8655880" lon="-7.7904170">
        <ele>625.2</ele>
        <time>2020-10-19T11:37:59Z</time>
      </trkpt>
      <trkpt lat="42.8655910" lon="-7.7904330">
        <ele>625.2</ele>
        <time>2020-10-19T11:38:00Z</time>
      </trkpt>
      <trkpt lat="42.8655950" lon="-7.7904490">
        <ele>625.1</ele>
        <time>2020-10-19T11:38:01Z</time>
      </trkpt>
      <trkpt lat="42.8656000" lon="-7.7904650">
        <ele>625.0</ele>
        <time>2020-10-19T11:38:02Z</time>
      </trkpt>
      <trkpt lat="42.8656050" lon="-7.7904820">
        <ele>624.9</ele>
        <time>2020-10-19T11:38:03Z</time>
      </trkpt>
      <trkpt lat="42.8656100" lon="-7.7904990">
        <ele>624.9</ele>
        <time>2020-10-19T11:38:04Z</time>
      </trkpt>
      <trkpt lat="42.8656130" lon="-7.7905160">
        <ele>624.8</ele>
        <time>2020-10-19T11:38:05Z</time>
      </trkpt>
      <trkpt lat="42.8656170" lon="-7.7905330">
        <ele>624.7</ele>
        <time>2020-10-19T11:38:06Z</time>
      </trkpt>
      <trkpt lat="42.8656210" lon="-7.7905480">
        <ele>624.7</ele>
        <time>2020-10-19T11:38:07Z</time>
      </trkpt>
      <trkpt lat="42.8656260" lon="-7.7905650">
        <ele>624.6</ele>
        <time>2020-10-19T11:38:08Z</time>
      </trkpt>
      <trkpt lat="42.8656300" lon="-7.7905810">
        <ele>624.5</ele>
        <time>2020-10-19T11:38:09Z</time>
      </trkpt>
      <trkpt lat="42.8656350" lon="-7.7905990">
        <ele>624.5</ele>
        <time>2020-10-19T11:38:10Z</time>
      </trkpt>
      <trkpt lat="42.8656410" lon="-7.7906150">
        <ele>624.4</ele>
        <time>2020-10-19T11:38:11Z</time>
      </trkpt>
      <trkpt lat="42.8656470" lon="-7.7906320">
        <ele>624.3</ele>
        <time>2020-10-19T11:38:12Z</time>
      </trkpt>
      <trkpt lat="42.8656530" lon="-7.7906480">
        <ele>624.3</ele>
        <time>2020-10-19T11:38:13Z</time>
      </trkpt>
      <trkpt lat="42.8656570" lon="-7.7906640">
        <ele>624.2</ele>
        <time>2020-10-19T11:38:14Z</time>
      </trkpt>
      <trkpt lat="42.8656610" lon="-7.7906800">
        <ele>624.2</ele>
        <time>2020-10-19T11:38:15Z</time>
      </trkpt>
      <trkpt lat="42.8656640" lon="-7.7906960">
        <ele>624.1</ele>
        <time>2020-10-19T11:38:16Z</time>
      </trkpt>
      <trkpt lat="42.8656690" lon="-7.7907120">
        <ele>624.1</ele>
        <time>2020-10-19T11:38:17Z</time>
      </trkpt>
      <trkpt lat="42.8656720" lon="-7.7907280">
        <ele>624.0</ele>
        <time>2020-10-19T11:38:18Z</time>
      </trkpt>
      <trkpt lat="42.8656780" lon="-7.7907430">
        <ele>624.0</ele>
        <time>2020-10-19T11:38:19Z</time>
      </trkpt>
      <trkpt lat="42.8656820" lon="-7.7907570">
        <ele>624.0</ele>
        <time>2020-10-19T11:38:20Z</time>
      </trkpt>
      <trkpt lat="42.8656860" lon="-7.7907730">
        <ele>623.9</ele>
        <time>2020-10-19T11:38:21Z</time>
      </trkpt>
      <trkpt lat="42.8656890" lon="-7.7907900">
        <ele>623.9</ele>
        <time>2020-10-19T11:38:22Z</time>
      </trkpt>
      <trkpt lat="42.8656910" lon="-7.7908090">
        <ele>623.9</ele>
        <time>2020-10-19T11:38:23Z</time>
      </trkpt>
      <trkpt lat="42.8656950" lon="-7.7908260">
        <ele>623.8</ele>
        <time>2020-10-19T11:38:24Z</time>
      </trkpt>
      <trkpt lat="42.8656980" lon="-7.7908460">
        <ele>623.8</ele>
        <time>2020-10-19T11:38:25Z</time>
      </trkpt>
      <trkpt lat="42.8657020" lon="-7.7908650">
        <ele>623.8</ele>
        <time>2020-10-19T11:38:26Z</time>
      </trkpt>
      <trkpt lat="42.8657060" lon="-7.7908810">
        <ele>623.8</ele>
        <time>2020-10-19T11:38:27Z</time>
      </trkpt>
      <trkpt lat="42.8657100" lon="-7.7908900">
        <ele>623.7</ele>
        <time>2020-10-19T11:38:28Z</time>
      </trkpt>
      <trkpt lat="42.8657140" lon="-7.7908950">
        <ele>623.7</ele>
        <time>2020-10-19T11:38:29Z</time>
      </trkpt>
      <trkpt lat="42.8657180" lon="-7.7908990">
        <ele>623.7</ele>
        <time>2020-10-19T11:38:30Z</time>
      </trkpt>
      <trkpt lat="42.8657220" lon="-7.7909000">
        <ele>623.7</ele>
        <time>2020-10-19T11:38:31Z</time>
      </trkpt>
      <trkpt lat="42.8657250" lon="-7.7908990">
        <ele>623.7</ele>
        <time>2020-10-19T11:38:32Z</time>
      </trkpt>
      <trkpt lat="42.8657310" lon="-7.7908990">
        <ele>623.7</ele>
        <time>2020-10-19T11:38:33Z</time>
      </trkpt>
      <trkpt lat="42.8657390" lon="-7.7909030">
        <ele>623.7</ele>
        <time>2020-10-19T11:38:34Z</time>
      </trkpt>
      <trkpt lat="42.8657490" lon="-7.7909130">
        <ele>623.7</ele>
        <time>2020-10-19T11:38:35Z</time>
      </trkpt>
      <trkpt lat="42.8657570" lon="-7.7909250">
        <ele>623.6</ele>
        <time>2020-10-19T11:38:36Z</time>
      </trkpt>
      <trkpt lat="42.8657620" lon="-7.7909350">
        <ele>623.6</ele>
        <time>2020-10-19T11:38:37Z</time>
      </trkpt>
      <trkpt lat="42.8657640" lon="-7.7909450">
        <ele>623.6</ele>
        <time>2020-10-19T11:38:38Z</time>
      </trkpt>
      <trkpt lat="42.8657660" lon="-7.7909560">
        <ele>623.6</ele>
        <time>2020-10-19T11:38:39Z</time>
      </trkpt>
      <trkpt lat="42.8657710" lon="-7.7909710">
        <ele>623.6</ele>
        <time>2020-10-19T11:38:40Z</time>
      </trkpt>
      <trkpt lat="42.8657780" lon="-7.7909870">
        <ele>623.6</ele>
        <time>2020-10-19T11:38:41Z</time>
      </trkpt>
      <trkpt lat="42.8657860" lon="-7.7910040">
        <ele>623.6</ele>
        <time>2020-10-19T11:38:42Z</time>
      </trkpt>
      <trkpt lat="42.8657910" lon="-7.7910190">
        <ele>623.6</ele>
        <time>2020-10-19T11:38:43Z</time>
      </trkpt>
      <trkpt lat="42.8657940" lon="-7.7910320">
        <ele>623.6</ele>
        <time>2020-10-19T11:38:44Z</time>
      </trkpt>
      <trkpt lat="42.8657990" lon="-7.7910440">
        <ele>623.6</ele>
        <time>2020-10-19T11:38:45Z</time>
      </trkpt>
      <trkpt lat="42.8658030" lon="-7.7910560">
        <ele>623.6</ele>
        <time>2020-10-19T11:38:46Z</time>
      </trkpt>
      <trkpt lat="42.8658080" lon="-7.7910680">
        <ele>623.6</ele>
        <time>2020-10-19T11:38:47Z</time>
      </trkpt>
      <trkpt lat="42.8658140" lon="-7.7910810">
        <ele>623.6</ele>
        <time>2020-10-19T11:38:48Z</time>
      </trkpt>
      <trkpt lat="42.8658200" lon="-7.7910930">
        <ele>623.6</ele>
        <time>2020-10-19T11:38:49Z</time>
      </trkpt>
      <trkpt lat="42.8658250" lon="-7.7911040">
        <ele>623.6</ele>
        <time>2020-10-19T11:38:50Z</time>
      </trkpt>
      <trkpt lat="42.8658290" lon="-7.7911160">
        <ele>623.6</ele>
        <time>2020-10-19T11:38:51Z</time>
      </trkpt>
      <trkpt lat="42.8658340" lon="-7.7911280">
        <ele>623.6</ele>
        <time>2020-10-19T11:38:52Z</time>
      </trkpt>
      <trkpt lat="42.8658390" lon="-7.7911410">
        <ele>623.6</ele>
        <time>2020-10-19T11:38:53Z</time>
      </trkpt>
      <trkpt lat="42.8658440" lon="-7.7911530">
        <ele>623.6</ele>
        <time>2020-10-19T11:38:54Z</time>
      </trkpt>
      <trkpt lat="42.8658500" lon="-7.7911660">
        <ele>623.6</ele>
        <time>2020-10-19T11:38:55Z</time>
      </trkpt>
      <trkpt lat="42.8658540" lon="-7.7911770">
        <ele>623.6</ele>
        <time>2020-10-19T11:38:56Z</time>
      </trkpt>
      <trkpt lat="42.8658580" lon="-7.7911910">
        <ele>623.6</ele>
        <time>2020-10-19T11:38:57Z</time>
      </trkpt>
      <trkpt lat="42.8658630" lon="-7.7912040">
        <ele>623.7</ele>
        <time>2020-10-19T11:38:58Z</time>
      </trkpt>
      <trkpt lat="42.8658700" lon="-7.7912170">
        <ele>623.7</ele>
        <time>2020-10-19T11:38:59Z</time>
      </trkpt>
      <trkpt lat="42.8658790" lon="-7.7912300">
        <ele>623.7</ele>
        <time>2020-10-19T11:39:00Z</time>
      </trkpt>
      <trkpt lat="42.8658860" lon="-7.7912420">
        <ele>623.7</ele>
        <time>2020-10-19T11:39:01Z</time>
      </trkpt>
      <trkpt lat="42.8658940" lon="-7.7912560">
        <ele>623.7</ele>
        <time>2020-10-19T11:39:02Z</time>
      </trkpt>
      <trkpt lat="42.8659010" lon="-7.7912700">
        <ele>623.7</ele>
        <time>2020-10-19T11:39:03Z</time>
      </trkpt>
      <trkpt lat="42.8659070" lon="-7.7912850">
        <ele>623.8</ele>
        <time>2020-10-19T11:39:04Z</time>
      </trkpt>
      <trkpt lat="42.8659140" lon="-7.7912990">
        <ele>623.8</ele>
        <time>2020-10-19T11:39:05Z</time>
      </trkpt>
      <trkpt lat="42.8659200" lon="-7.7913140">
        <ele>623.8</ele>
        <time>2020-10-19T11:39:06Z</time>
      </trkpt>
      <trkpt lat="42.8659270" lon="-7.7913280">
        <ele>623.8</ele>
        <time>2020-10-19T11:39:07Z</time>
      </trkpt>
      <trkpt lat="42.8659320" lon="-7.7913410">
        <ele>623.8</ele>
        <time>2020-10-19T11:39:08Z</time>
      </trkpt>
      <trkpt lat="42.8659390" lon="-7.7913540">
        <ele>623.9</ele>
        <time>2020-10-19T11:39:09Z</time>
      </trkpt>
      <trkpt lat="42.8659460" lon="-7.7913680">
        <ele>623.9</ele>
        <time>2020-10-19T11:39:10Z</time>
      </trkpt>
      <trkpt lat="42.8659530" lon="-7.7913830">
        <ele>623.9</ele>
        <time>2020-10-19T11:39:11Z</time>
      </trkpt>
      <trkpt lat="42.8659590" lon="-7.7913970">
        <ele>623.9</ele>
        <time>2020-10-19T11:39:12Z</time>
      </trkpt>
      <trkpt lat="42.8659640" lon="-7.7914090">
        <ele>624.0</ele>
        <time>2020-10-19T11:39:13Z</time>
      </trkpt>
      <trkpt lat="42.8659690" lon="-7.7914220">
        <ele>624.0</ele>
        <time>2020-10-19T11:39:14Z</time>
      </trkpt>
      <trkpt lat="42.8659740" lon="-7.7914330">
        <ele>624.0</ele>
        <time>2020-10-19T11:39:15Z</time>
      </trkpt>
      <trkpt lat="42.8659800" lon="-7.7914450">
        <ele>624.0</ele>
        <time>2020-10-19T11:39:16Z</time>
      </trkpt>
      <trkpt lat="42.8659860" lon="-7.7914570">
        <ele>624.0</ele>
        <time>2020-10-19T11:39:17Z</time>
      </trkpt>
      <trkpt lat="42.8659940" lon="-7.7914710">
        <ele>624.1</ele>
        <time>2020-10-19T11:39:18Z</time>
      </trkpt>
      <trkpt lat="42.8659990" lon="-7.7914860">
        <ele>624.1</ele>
        <time>2020-10-19T11:39:19Z</time>
      </trkpt>
      <trkpt lat="42.8660040" lon="-7.7915020">
        <ele>624.1</ele>
        <time>2020-10-19T11:39:20Z</time>
      </trkpt>
      <trkpt lat="42.8660050" lon="-7.7915180">
        <ele>624.1</ele>
        <time>2020-10-19T11:39:21Z</time>
      </trkpt>
      <trkpt lat="42.8660050" lon="-7.7915350">
        <ele>624.2</ele>
        <time>2020-10-19T11:39:22Z</time>
      </trkpt>
      <trkpt lat="42.8660080" lon="-7.7915500">
        <ele>624.2</ele>
        <time>2020-10-19T11:39:23Z</time>
      </trkpt>
      <trkpt lat="42.8660110" lon="-7.7915650">
        <ele>624.2</ele>
        <time>2020-10-19T11:39:24Z</time>
      </trkpt>
      <trkpt lat="42.8660140" lon="-7.7915830">
        <ele>624.2</ele>
        <time>2020-10-19T11:39:25Z</time>
      </trkpt>
      <trkpt lat="42.8660140" lon="-7.7916010">
        <ele>624.3</ele>
        <time>2020-10-19T11:39:26Z</time>
      </trkpt>
      <trkpt lat="42.8660160" lon="-7.7916200">
        <ele>624.3</ele>
        <time>2020-10-19T11:39:27Z</time>
      </trkpt>
      <trkpt lat="42.8660190" lon="-7.7916360">
        <ele>624.3</ele>
        <time>2020-10-19T11:39:28Z</time>
      </trkpt>
      <trkpt lat="42.8660220" lon="-7.7916550">
        <ele>624.4</ele>
        <time>2020-10-19T11:39:29Z</time>
      </trkpt>
      <trkpt lat="42.8660240" lon="-7.7916720">
        <ele>624.4</ele>
        <time>2020-10-19T11:39:30Z</time>
      </trkpt>
      <trkpt lat="42.8660250" lon="-7.7916910">
        <ele>624.4</ele>
        <time>2020-10-19T11:39:31Z</time>
      </trkpt>
      <trkpt lat="42.8660260" lon="-7.7917090">
        <ele>624.4</ele>
        <time>2020-10-19T11:39:32Z</time>
      </trkpt>
      <trkpt lat="42.8660280" lon="-7.7917260">
        <ele>624.5</ele>
        <time>2020-10-19T11:39:33Z</time>
      </trkpt>
      <trkpt lat="42.8660300" lon="-7.7917420">
        <ele>624.5</ele>
        <time>2020-10-19T11:39:34Z</time>
      </trkpt>
      <trkpt lat="42.8660310" lon="-7.7917600">
        <ele>624.5</ele>
        <time>2020-10-19T11:39:35Z</time>
      </trkpt>
      <trkpt lat="42.8660310" lon="-7.7917790">
        <ele>624.6</ele>
        <time>2020-10-19T11:39:36Z</time>
      </trkpt>
      <trkpt lat="42.8660300" lon="-7.7917990">
        <ele>624.6</ele>
        <time>2020-10-19T11:39:37Z</time>
      </trkpt>
      <trkpt lat="42.8660300" lon="-7.7918190">
        <ele>624.6</ele>
        <time>2020-10-19T11:39:38Z</time>
      </trkpt>
      <trkpt lat="42.8660300" lon="-7.7918370">
        <ele>624.7</ele>
        <time>2020-10-19T11:39:39Z</time>
      </trkpt>
      <trkpt lat="42.8660290" lon="-7.7918550">
        <ele>624.7</ele>
        <time>2020-10-19T11:39:40Z</time>
      </trkpt>
      <trkpt lat="42.8660280" lon="-7.7918740">
        <ele>624.7</ele>
        <time>2020-10-19T11:39:41Z</time>
      </trkpt>
      <trkpt lat="42.8660250" lon="-7.7918910">
        <ele>624.8</ele>
        <time>2020-10-19T11:39:42Z</time>
      </trkpt>
      <trkpt lat="42.8660240" lon="-7.7919080">
        <ele>624.8</ele>
        <time>2020-10-19T11:39:43Z</time>
      </trkpt>
      <trkpt lat="42.8660220" lon="-7.7919230">
        <ele>624.8</ele>
        <time>2020-10-19T11:39:44Z</time>
      </trkpt>
      <trkpt lat="42.8660200" lon="-7.7919370">
        <ele>624.8</ele>
        <time>2020-10-19T11:39:45Z</time>
      </trkpt>
      <trkpt lat="42.8660180" lon="-7.7919520">
        <ele>624.9</ele>
        <time>2020-10-19T11:39:46Z</time>
      </trkpt>
      <trkpt lat="42.8660170" lon="-7.7919650">
        <ele>624.9</ele>
        <time>2020-10-19T11:39:47Z</time>
      </trkpt>
      <trkpt lat="42.8660170" lon="-7.7919800">
        <ele>624.9</ele>
        <time>2020-10-19T11:39:48Z</time>
      </trkpt>
      <trkpt lat="42.8660160" lon="-7.7919950">
        <ele>625.0</ele>
        <time>2020-10-19T11:39:49Z</time>
      </trkpt>
      <trkpt lat="42.8660160" lon="-7.7920120">
        <ele>625.0</ele>
        <time>2020-10-19T11:39:50Z</time>
      </trkpt>
      <trkpt lat="42.8660150" lon="-7.7920290">
        <ele>625.0</ele>
        <time>2020-10-19T11:39:51Z</time>
      </trkpt>
      <trkpt lat="42.8660130" lon="-7.7920470">
        <ele>625.1</ele>
        <time>2020-10-19T11:39:52Z</time>
      </trkpt>
      <trkpt lat="42.8660120" lon="-7.7920650">
        <ele>625.1</ele>
        <time>2020-10-19T11:39:53Z</time>
      </trkpt>
      <trkpt lat="42.8660130" lon="-7.7920830">
        <ele>625.2</ele>
        <time>2020-10-19T11:39:54Z</time>
      </trkpt>
      <trkpt lat="42.8660160" lon="-7.7921010">
        <ele>625.2</ele>
        <time>2020-10-19T11:39:55Z</time>
      </trkpt>
      <trkpt lat="42.8660160" lon="-7.7921190">
        <ele>625.2</ele>
        <time>2020-10-19T11:39:56Z</time>
      </trkpt>
      <trkpt lat="42.8660160" lon="-7.7921370">
        <ele>625.3</ele>
        <time>2020-10-19T11:39:57Z</time>
      </trkpt>
      <trkpt lat="42.8660150" lon="-7.7921540">
        <ele>625.3</ele>
        <time>2020-10-19T11:39:58Z</time>
      </trkpt>
      <trkpt lat="42.8660150" lon="-7.7921720">
        <ele>625.3</ele>
        <time>2020-10-19T11:39:59Z</time>
      </trkpt>
      <trkpt lat="42.8660160" lon="-7.7921900">
        <ele>625.4</ele>
        <time>2020-10-19T11:40:00Z</time>
      </trkpt>
      <trkpt lat="42.8660160" lon="-7.7922100">
        <ele>625.4</ele>
        <time>2020-10-19T11:40:01Z</time>
      </trkpt>
      <trkpt lat="42.8660150" lon="-7.7922280">
        <ele>625.5</ele>
        <time>2020-10-19T11:40:02Z</time>
      </trkpt>
      <trkpt lat="42.8660140" lon="-7.7922460">
        <ele>625.5</ele>
        <time>2020-10-19T11:40:03Z</time>
      </trkpt>
      <trkpt lat="42.8660130" lon="-7.7922630">
        <ele>625.6</ele>
        <time>2020-10-19T11:40:04Z</time>
      </trkpt>
      <trkpt lat="42.8660120" lon="-7.7922810">
        <ele>625.6</ele>
        <time>2020-10-19T11:40:05Z</time>
      </trkpt>
      <trkpt lat="42.8660110" lon="-7.7922970">
        <ele>625.6</ele>
        <time>2020-10-19T11:40:06Z</time>
      </trkpt>
      <trkpt lat="42.8660110" lon="-7.7923140">
        <ele>625.7</ele>
        <time>2020-10-19T11:40:07Z</time>
      </trkpt>
      <trkpt lat="42.8660120" lon="-7.7923320">
        <ele>625.7</ele>
        <time>2020-10-19T11:40:08Z</time>
      </trkpt>
      <trkpt lat="42.8660120" lon="-7.7923500">
        <ele>625.8</ele>
        <time>2020-10-19T11:40:09Z</time>
      </trkpt>
      <trkpt lat="42.8660120" lon="-7.7923670">
        <ele>625.8</ele>
        <time>2020-10-19T11:40:10Z</time>
      </trkpt>
      <trkpt lat="42.8660120" lon="-7.7923850">
        <ele>625.9</ele>
        <time>2020-10-19T11:40:11Z</time>
      </trkpt>
      <trkpt lat="42.8660110" lon="-7.7924020">
        <ele>625.9</ele>
        <time>2020-10-19T11:40:12Z</time>
      </trkpt>
      <trkpt lat="42.8660100" lon="-7.7924190">
        <ele>626.0</ele>
        <time>2020-10-19T11:40:13Z</time>
      </trkpt>
      <trkpt lat="42.8660100" lon="-7.7924360">
        <ele>626.0</ele>
        <time>2020-10-19T11:40:14Z</time>
      </trkpt>
      <trkpt lat="42.8660110" lon="-7.7924530">
        <ele>626.1</ele>
        <time>2020-10-19T11:40:15Z</time>
      </trkpt>
      <trkpt lat="42.8660120" lon="-7.7924700">
        <ele>626.2</ele>
        <time>2020-10-19T11:40:16Z</time>
      </trkpt>
      <trkpt lat="42.8660140" lon="-7.7924880">
        <ele>626.2</ele>
        <time>2020-10-19T11:40:17Z</time>
      </trkpt>
      <trkpt lat="42.8660160" lon="-7.7925060">
        <ele>626.3</ele>
        <time>2020-10-19T11:40:18Z</time>
      </trkpt>
      <trkpt lat="42.8660180" lon="-7.7925240">
        <ele>626.3</ele>
        <time>2020-10-19T11:40:19Z</time>
      </trkpt>
      <trkpt lat="42.8660190" lon="-7.7925410">
        <ele>626.4</ele>
        <time>2020-10-19T11:40:20Z</time>
      </trkpt>
      <trkpt lat="42.8660210" lon="-7.7925580">
        <ele>626.5</ele>
        <time>2020-10-19T11:40:21Z</time>
      </trkpt>
      <trkpt lat="42.8660230" lon="-7.7925750">
        <ele>626.5</ele>
        <time>2020-10-19T11:40:22Z</time>
      </trkpt>
      <trkpt lat="42.8660250" lon="-7.7925910">
        <ele>626.6</ele>
        <time>2020-10-19T11:40:23Z</time>
      </trkpt>
      <trkpt lat="42.8660260" lon="-7.7926070">
        <ele>626.6</ele>
        <time>2020-10-19T11:40:24Z</time>
      </trkpt>
      <trkpt lat="42.8660270" lon="-7.7926230">
        <ele>626.7</ele>
        <time>2020-10-19T11:40:25Z</time>
      </trkpt>
      <trkpt lat="42.8660280" lon="-7.7926380">
        <ele>626.7</ele>
        <time>2020-10-19T11:40:26Z</time>
      </trkpt>
      <trkpt lat="42.8660290" lon="-7.7926540">
        <ele>626.8</ele>
        <time>2020-10-19T11:40:27Z</time>
      </trkpt>
      <trkpt lat="42.8660300" lon="-7.7926690">
        <ele>626.9</ele>
        <time>2020-10-19T11:40:28Z</time>
      </trkpt>
      <trkpt lat="42.8660320" lon="-7.7926840">
        <ele>626.9</ele>
        <time>2020-10-19T11:40:29Z</time>
      </trkpt>
      <trkpt lat="42.8660340" lon="-7.7927000">
        <ele>627.0</ele>
        <time>2020-10-19T11:40:30Z</time>
      </trkpt>
      <trkpt lat="42.8660360" lon="-7.7927160">
        <ele>627.0</ele>
        <time>2020-10-19T11:40:31Z</time>
      </trkpt>
      <trkpt lat="42.8660380" lon="-7.7927320">
        <ele>627.1</ele>
        <time>2020-10-19T11:40:32Z</time>
      </trkpt>
      <trkpt lat="42.8660400" lon="-7.7927470">
        <ele>627.1</ele>
        <time>2020-10-19T11:40:33Z</time>
      </trkpt>
      <trkpt lat="42.8660430" lon="-7.7927620">
        <ele>627.2</ele>
        <time>2020-10-19T11:40:34Z</time>
      </trkpt>
      <trkpt lat="42.8660450" lon="-7.7927760">
        <ele>627.3</ele>
        <time>2020-10-19T11:40:35Z</time>
      </trkpt>
      <trkpt lat="42.8660470" lon="-7.7927910">
        <ele>627.3</ele>
        <time>2020-10-19T11:40:36Z</time>
      </trkpt>
      <trkpt lat="42.8660480" lon="-7.7928060">
        <ele>627.4</ele>
        <time>2020-10-19T11:40:37Z</time>
      </trkpt>
      <trkpt lat="42.8660500" lon="-7.7928220">
        <ele>627.4</ele>
        <time>2020-10-19T11:40:38Z</time>
      </trkpt>
      <trkpt lat="42.8660500" lon="-7.7928390">
        <ele>627.5</ele>
        <time>2020-10-19T11:40:39Z</time>
      </trkpt>
      <trkpt lat="42.8660500" lon="-7.7928550">
        <ele>627.6</ele>
        <time>2020-10-19T11:40:40Z</time>
      </trkpt>
      <trkpt lat="42.8660500" lon="-7.7928710">
        <ele>627.6</ele>
        <time>2020-10-19T11:40:41Z</time>
      </trkpt>
      <trkpt lat="42.8660490" lon="-7.7928860">
        <ele>627.7</ele>
        <time>2020-10-19T11:40:42Z</time>
      </trkpt>
      <trkpt lat="42.8660480" lon="-7.7929010">
        <ele>627.7</ele>
        <time>2020-10-19T11:40:43Z</time>
      </trkpt>
      <trkpt lat="42.8660470" lon="-7.7929160">
        <ele>627.8</ele>
        <time>2020-10-19T11:40:44Z</time>
      </trkpt>
      <trkpt lat="42.8660460" lon="-7.7929320">
        <ele>627.8</ele>
        <time>2020-10-19T11:40:45Z</time>
      </trkpt>
      <trkpt lat="42.8660450" lon="-7.7929490">
        <ele>627.9</ele>
        <time>2020-10-19T11:40:46Z</time>
      </trkpt>
      <trkpt lat="42.8660450" lon="-7.7929660">
        <ele>627.9</ele>
        <time>2020-10-19T11:40:47Z</time>
      </trkpt>
      <trkpt lat="42.8660470" lon="-7.7929830">
        <ele>628.0</ele>
        <time>2020-10-19T11:40:48Z</time>
      </trkpt>
      <trkpt lat="42.8660490" lon="-7.7930000">
        <ele>628.0</ele>
        <time>2020-10-19T11:40:49Z</time>
      </trkpt>
      <trkpt lat="42.8660500" lon="-7.7930160">
        <ele>628.1</ele>
        <time>2020-10-19T11:40:50Z</time>
      </trkpt>
      <trkpt lat="42.8660530" lon="-7.7930310">
        <ele>628.1</ele>
        <time>2020-10-19T11:40:51Z</time>
      </trkpt>
      <trkpt lat="42.8660560" lon="-7.7930460">
        <ele>628.2</ele>
        <time>2020-10-19T11:40:52Z</time>
      </trkpt>
      <trkpt lat="42.8660590" lon="-7.7930620">
        <ele>628.3</ele>
        <time>2020-10-19T11:40:53Z</time>
      </trkpt>
      <trkpt lat="42.8660630" lon="-7.7930780">
        <ele>628.3</ele>
        <time>2020-10-19T11:40:54Z</time>
      </trkpt>
      <trkpt lat="42.8660670" lon="-7.7930940">
        <ele>628.3</ele>
        <time>2020-10-19T11:40:55Z</time>
      </trkpt>
      <trkpt lat="42.8660710" lon="-7.7931110">
        <ele>628.4</ele>
        <time>2020-10-19T11:40:56Z</time>
      </trkpt>
      <trkpt lat="42.8660730" lon="-7.7931270">
        <ele>628.4</ele>
        <time>2020-10-19T11:40:57Z</time>
      </trkpt>
      <trkpt lat="42.8660750" lon="-7.7931430">
        <ele>628.5</ele>
        <time>2020-10-19T11:40:58Z</time>
      </trkpt>
      <trkpt lat="42.8660780" lon="-7.7931580">
        <ele>628.5</ele>
        <time>2020-10-19T11:40:59Z</time>
      </trkpt>
      <trkpt lat="42.8660810" lon="-7.7931740">
        <ele>628.6</ele>
        <time>2020-10-19T11:41:00Z</time>
      </trkpt>
      <trkpt lat="42.8660840" lon="-7.7931890">
        <ele>628.6</ele>
        <time>2020-10-19T11:41:01Z</time>
      </trkpt>
      <trkpt lat="42.8660870" lon="-7.7932050">
        <ele>628.6</ele>
        <time>2020-10-19T11:41:02Z</time>
      </trkpt>
      <trkpt lat="42.8660910" lon="-7.7932210">
        <ele>628.7</ele>
        <time>2020-10-19T11:41:03Z</time>
      </trkpt>
      <trkpt lat="42.8660950" lon="-7.7932360">
        <ele>628.7</ele>
        <time>2020-10-19T11:41:04Z</time>
      </trkpt>
      <trkpt lat="42.8660990" lon="-7.7932530">
        <ele>628.8</ele>
        <time>2020-10-19T11:41:05Z</time>
      </trkpt>
      <trkpt lat="42.8661030" lon="-7.7932690">
        <ele>628.8</ele>
        <time>2020-10-19T11:41:06Z</time>
      </trkpt>
      <trkpt lat="42.8661070" lon="-7.7932840">
        <ele>628.8</ele>
        <time>2020-10-19T11:41:07Z</time>
      </trkpt>
      <trkpt lat="42.8661110" lon="-7.7933000">
        <ele>628.9</ele>
        <time>2020-10-19T11:41:08Z</time>
      </trkpt>
      <trkpt lat="42.8661160" lon="-7.7933150">
        <ele>628.9</ele>
        <time>2020-10-19T11:41:09Z</time>
      </trkpt>
      <trkpt lat="42.8661210" lon="-7.7933310">
        <ele>629.0</ele>
        <time>2020-10-19T11:41:10Z</time>
      </trkpt>
      <trkpt lat="42.8661260" lon="-7.7933460">
        <ele>629.0</ele>
        <time>2020-10-19T11:41:11Z</time>
      </trkpt>
      <trkpt lat="42.8661310" lon="-7.7933620">
        <ele>629.0</ele>
        <time>2020-10-19T11:41:12Z</time>
      </trkpt>
      <trkpt lat="42.8661350" lon="-7.7933770">
        <ele>629.1</ele>
        <time>2020-10-19T11:41:13Z</time>
      </trkpt>
      <trkpt lat="42.8661390" lon="-7.7933920">
        <ele>629.1</ele>
        <time>2020-10-19T11:41:14Z</time>
      </trkpt>
      <trkpt lat="42.8661430" lon="-7.7934070">
        <ele>629.1</ele>
        <time>2020-10-19T11:41:15Z</time>
      </trkpt>
      <trkpt lat="42.8661490" lon="-7.7934220">
        <ele>629.2</ele>
        <time>2020-10-19T11:41:16Z</time>
      </trkpt>
      <trkpt lat="42.8661550" lon="-7.7934380">
        <ele>629.2</ele>
        <time>2020-10-19T11:41:17Z</time>
      </trkpt>
      <trkpt lat="42.8661600" lon="-7.7934530">
        <ele>629.3</ele>
        <time>2020-10-19T11:41:18Z</time>
      </trkpt>
      <trkpt lat="42.8661650" lon="-7.7934690">
        <ele>629.3</ele>
        <time>2020-10-19T11:41:19Z</time>
      </trkpt>
      <trkpt lat="42.8661690" lon="-7.7934840">
        <ele>629.3</ele>
        <time>2020-10-19T11:41:20Z</time>
      </trkpt>
      <trkpt lat="42.8661730" lon="-7.7934980">
        <ele>629.4</ele>
        <time>2020-10-19T11:41:21Z</time>
      </trkpt>
      <trkpt lat="42.8661760" lon="-7.7935120">
        <ele>629.4</ele>
        <time>2020-10-19T11:41:22Z</time>
      </trkpt>
      <trkpt lat="42.8661790" lon="-7.7935260">
        <ele>629.4</ele>
        <time>2020-10-19T11:41:23Z</time>
      </trkpt>
      <trkpt lat="42.8661840" lon="-7.7935400">
        <ele>629.5</ele>
        <time>2020-10-19T11:41:24Z</time>
      </trkpt>
      <trkpt lat="42.8661890" lon="-7.7935540">
        <ele>629.5</ele>
        <time>2020-10-19T11:41:25Z</time>
      </trkpt>
      <trkpt lat="42.8661960" lon="-7.7935680">
        <ele>629.6</ele>
        <time>2020-10-19T11:41:26Z</time>
      </trkpt>
      <trkpt lat="42.8662030" lon="-7.7935820">
        <ele>629.6</ele>
        <time>2020-10-19T11:41:27Z</time>
      </trkpt>
      <trkpt lat="42.8662090" lon="-7.7935970">
        <ele>629.6</ele>
        <time>2020-10-19T11:41:28Z</time>
      </trkpt>
      <trkpt lat="42.8662170" lon="-7.7936110">
        <ele>629.7</ele>
        <time>2020-10-19T11:41:29Z</time>
      </trkpt>
      <trkpt lat="42.8662260" lon="-7.7936260">
        <ele>629.7</ele>
        <time>2020-10-19T11:41:30Z</time>
      </trkpt>
      <trkpt lat="42.8662350" lon="-7.7936410">
        <ele>629.8</ele>
        <time>2020-10-19T11:41:31Z</time>
      </trkpt>
      <trkpt lat="42.8662450" lon="-7.7936570">
        <ele>629.8</ele>
        <time>2020-10-19T11:41:32Z</time>
      </trkpt>
      <trkpt lat="42.8662530" lon="-7.7936720">
        <ele>629.9</ele>
        <time>2020-10-19T11:41:33Z</time>
      </trkpt>
      <trkpt lat="42.8662610" lon="-7.7936870">
        <ele>629.9</ele>
        <time>2020-10-19T11:41:34Z</time>
      </trkpt>
      <trkpt lat="42.8662690" lon="-7.7937020">
        <ele>630.0</ele>
        <time>2020-10-19T11:41:35Z</time>
      </trkpt>
      <trkpt lat="42.8662770" lon="-7.7937160">
        <ele>630.0</ele>
        <time>2020-10-19T11:41:36Z</time>
      </trkpt>
      <trkpt lat="42.8662840" lon="-7.7937300">
        <ele>630.0</ele>
        <time>2020-10-19T11:41:37Z</time>
      </trkpt>
      <trkpt lat="42.8662900" lon="-7.7937440">
        <ele>630.1</ele>
        <time>2020-10-19T11:41:38Z</time>
      </trkpt>
      <trkpt lat="42.8662950" lon="-7.7937580">
        <ele>630.1</ele>
        <time>2020-10-19T11:41:39Z</time>
      </trkpt>
      <trkpt lat="42.8663000" lon="-7.7937740">
        <ele>630.2</ele>
        <time>2020-10-19T11:41:40Z</time>
      </trkpt>
      <trkpt lat="42.8663050" lon="-7.7937890">
        <ele>630.2</ele>
        <time>2020-10-19T11:41:41Z</time>
      </trkpt>
      <trkpt lat="42.8663110" lon="-7.7938050">
        <ele>630.3</ele>
        <time>2020-10-19T11:41:42Z</time>
      </trkpt>
      <trkpt lat="42.8663170" lon="-7.7938190">
        <ele>630.3</ele>
        <time>2020-10-19T11:41:43Z</time>
      </trkpt>
      <trkpt lat="42.8663240" lon="-7.7938330">
        <ele>630.3</ele>
        <time>2020-10-19T11:41:44Z</time>
      </trkpt>
      <trkpt lat="42.8663310" lon="-7.7938460">
        <ele>630.4</ele>
        <time>2020-10-19T11:41:45Z</time>
      </trkpt>
      <trkpt lat="42.8663390" lon="-7.7938600">
        <ele>630.4</ele>
        <time>2020-10-19T11:41:46Z</time>
      </trkpt>
      <trkpt lat="42.8663460" lon="-7.7938750">
        <ele>630.5</ele>
        <time>2020-10-19T11:41:47Z</time>
      </trkpt>
      <trkpt lat="42.8663520" lon="-7.7938900">
        <ele>630.5</ele>
        <time>2020-10-19T11:41:48Z</time>
      </trkpt>
      <trkpt lat="42.8663560" lon="-7.7939040">
        <ele>630.5</ele>
        <time>2020-10-19T11:41:49Z</time>
      </trkpt>
      <trkpt lat="42.8663610" lon="-7.7939180">
        <ele>630.6</ele>
        <time>2020-10-19T11:41:50Z</time>
      </trkpt>
      <trkpt lat="42.8663660" lon="-7.7939310">
        <ele>630.6</ele>
        <time>2020-10-19T11:41:51Z</time>
      </trkpt>
      <trkpt lat="42.8663710" lon="-7.7939440">
        <ele>630.7</ele>
        <time>2020-10-19T11:41:52Z</time>
      </trkpt>
      <trkpt lat="42.8663780" lon="-7.7939580">
        <ele>630.7</ele>
        <time>2020-10-19T11:41:53Z</time>
      </trkpt>
      <trkpt lat="42.8663840" lon="-7.7939710">
        <ele>630.7</ele>
        <time>2020-10-19T11:41:54Z</time>
      </trkpt>
      <trkpt lat="42.8663910" lon="-7.7939850">
        <ele>630.8</ele>
        <time>2020-10-19T11:41:55Z</time>
      </trkpt>
      <trkpt lat="42.8663980" lon="-7.7939980">
        <ele>630.8</ele>
        <time>2020-10-19T11:41:56Z</time>
      </trkpt>
      <trkpt lat="42.8664070" lon="-7.7940110">
        <ele>630.9</ele>
        <time>2020-10-19T11:41:57Z</time>
      </trkpt>
      <trkpt lat="42.8664170" lon="-7.7940240">
        <ele>630.9</ele>
        <time>2020-10-19T11:41:58Z</time>
      </trkpt>
      <trkpt lat="42.8664270" lon="-7.7940390">
        <ele>631.0</ele>
        <time>2020-10-19T11:41:59Z</time>
      </trkpt>
      <trkpt lat="42.8664370" lon="-7.7940530">
        <ele>631.0</ele>
        <time>2020-10-19T11:42:00Z</time>
      </trkpt>
      <trkpt lat="42.8664460" lon="-7.7940670">
        <ele>631.1</ele>
        <time>2020-10-19T11:42:01Z</time>
      </trkpt>
      <trkpt lat="42.8664550" lon="-7.7940800">
        <ele>631.1</ele>
        <time>2020-10-19T11:42:02Z</time>
      </trkpt>
      <trkpt lat="42.8664630" lon="-7.7940920">
        <ele>631.1</ele>
        <time>2020-10-19T11:42:03Z</time>
      </trkpt>
      <trkpt lat="42.8664700" lon="-7.7941030">
        <ele>631.2</ele>
        <time>2020-10-19T11:42:04Z</time>
      </trkpt>
      <trkpt lat="42.8664750" lon="-7.7941130">
        <ele>631.2</ele>
        <time>2020-10-19T11:42:05Z</time>
      </trkpt>
      <trkpt lat="42.8664800" lon="-7.7941230">
        <ele>631.2</ele>
        <time>2020-10-19T11:42:06Z</time>
      </trkpt>
      <trkpt lat="42.8664860" lon="-7.7941340">
        <ele>631.3</ele>
        <time>2020-10-19T11:42:07Z</time>
      </trkpt>
      <trkpt lat="42.8664920" lon="-7.7941450">
        <ele>631.3</ele>
        <time>2020-10-19T11:42:08Z</time>
      </trkpt>
      <trkpt lat="42.8665010" lon="-7.7941570">
        <ele>631.4</ele>
        <time>2020-10-19T11:42:09Z</time>
      </trkpt>
      <trkpt lat="42.8665110" lon="-7.7941690">
        <ele>631.4</ele>
        <time>2020-10-19T11:42:10Z</time>
      </trkpt>
      <trkpt lat="42.8665200" lon="-7.7941830">
        <ele>631.4</ele>
        <time>2020-10-19T11:42:11Z</time>
      </trkpt>
      <trkpt lat="42.8665260" lon="-7.7941970">
        <ele>631.5</ele>
        <time>2020-10-19T11:42:12Z</time>
      </trkpt>
      <trkpt lat="42.8665320" lon="-7.7942100">
        <ele>631.5</ele>
        <time>2020-10-19T11:42:13Z</time>
      </trkpt>
      <trkpt lat="42.8665400" lon="-7.7942210">
        <ele>631.6</ele>
        <time>2020-10-19T11:42:14Z</time>
      </trkpt>
      <trkpt lat="42.8665470" lon="-7.7942320">
        <ele>631.6</ele>
        <time>2020-10-19T11:42:15Z</time>
      </trkpt>
      <trkpt lat="42.8665530" lon="-7.7942440">
        <ele>631.6</ele>
        <time>2020-10-19T11:42:16Z</time>
      </trkpt>
      <trkpt lat="42.8665590" lon="-7.7942560">
        <ele>631.7</ele>
        <time>2020-10-19T11:42:17Z</time>
      </trkpt>
      <trkpt lat="42.8665660" lon="-7.7942670">
        <ele>631.7</ele>
        <time>2020-10-19T11:42:18Z</time>
      </trkpt>
      <trkpt lat="42.8665730" lon="-7.7942780">
        <ele>631.8</ele>
        <time>2020-10-19T11:42:19Z</time>
      </trkpt>
      <trkpt lat="42.8665790" lon="-7.7942890">
        <ele>631.8</ele>
        <time>2020-10-19T11:42:20Z</time>
      </trkpt>
      <trkpt lat="42.8665850" lon="-7.7943010">
        <ele>631.8</ele>
        <time>2020-10-19T11:42:21Z</time>
      </trkpt>
      <trkpt lat="42.8665900" lon="-7.7943120">
        <ele>631.9</ele>
        <time>2020-10-19T11:42:22Z</time>
      </trkpt>
      <trkpt lat="42.8665960" lon="-7.7943210">
        <ele>631.9</ele>
        <time>2020-10-19T11:42:23Z</time>
      </trkpt>
      <trkpt lat="42.8666020" lon="-7.7943300">
        <ele>632.0</ele>
        <time>2020-10-19T11:42:24Z</time>
      </trkpt>
      <trkpt lat="42.8666080" lon="-7.7943400">
        <ele>632.0</ele>
        <time>2020-10-19T11:42:25Z</time>
      </trkpt>
      <trkpt lat="42.8666180" lon="-7.7943520">
        <ele>632.1</ele>
        <time>2020-10-19T11:42:26Z</time>
      </trkpt>
      <trkpt lat="42.8666280" lon="-7.7943650">
        <ele>632.1</ele>
        <time>2020-10-19T11:42:27Z</time>
      </trkpt>
      <trkpt lat="42.8666390" lon="-7.7943790">
        <ele>632.2</ele>
        <time>2020-10-19T11:42:28Z</time>
      </trkpt>
      <trkpt lat="42.8666470" lon="-7.7943920">
        <ele>632.2</ele>
        <time>2020-10-19T11:42:29Z</time>
      </trkpt>
      <trkpt lat="42.8666560" lon="-7.7944060">
        <ele>632.3</ele>
        <time>2020-10-19T11:42:30Z</time>
      </trkpt>
      <trkpt lat="42.8666650" lon="-7.7944210">
        <ele>632.3</ele>
        <time>2020-10-19T11:42:31Z</time>
      </trkpt>
      <trkpt lat="42.8666760" lon="-7.7944370">
        <ele>632.4</ele>
        <time>2020-10-19T11:42:32Z</time>
      </trkpt>
      <trkpt lat="42.8666860" lon="-7.7944530">
        <ele>632.5</ele>
        <time>2020-10-19T11:42:33Z</time>
      </trkpt>
      <trkpt lat="42.8666920" lon="-7.7944670">
        <ele>632.5</ele>
        <time>2020-10-19T11:42:34Z</time>
      </trkpt>
      <trkpt lat="42.8666950" lon="-7.7944800">
        <ele>632.6</ele>
        <time>2020-10-19T11:42:35Z</time>
      </trkpt>
      <trkpt lat="42.8666990" lon="-7.7944930">
        <ele>632.6</ele>
        <time>2020-10-19T11:42:36Z</time>
      </trkpt>
      <trkpt lat="42.8667060" lon="-7.7945050">
        <ele>632.7</ele>
        <time>2020-10-19T11:42:37Z</time>
      </trkpt>
      <trkpt lat="42.8667150" lon="-7.7945170">
        <ele>632.7</ele>
        <time>2020-10-19T11:42:38Z</time>
      </trkpt>
      <trkpt lat="42.8667240" lon="-7.7945270">
        <ele>632.8</ele>
        <time>2020-10-19T11:42:39Z</time>
      </trkpt>
      <trkpt lat="42.8667310" lon="-7.7945360">
        <ele>632.8</ele>
        <time>2020-10-19T11:42:40Z</time>
      </trkpt>
      <trkpt lat="42.8667350" lon="-7.7945470">
        <ele>632.9</ele>
        <time>2020-10-19T11:42:41Z</time>
      </trkpt>
      <trkpt lat="42.8667380" lon="-7.7945610">
        <ele>632.9</ele>
        <time>2020-10-19T11:42:42Z</time>
      </trkpt>
      <trkpt lat="42.8667400" lon="-7.7945770">
        <ele>633.0</ele>
        <time>2020-10-19T11:42:43Z</time>
      </trkpt>
      <trkpt lat="42.8667450" lon="-7.7945910">
        <ele>633.0</ele>
        <time>2020-10-19T11:42:44Z</time>
      </trkpt>
      <trkpt lat="42.8667520" lon="-7.7946050">
        <ele>633.1</ele>
        <time>2020-10-19T11:42:45Z</time>
      </trkpt>
      <trkpt lat="42.8667600" lon="-7.7946170">
        <ele>633.1</ele>
        <time>2020-10-19T11:42:46Z</time>
      </trkpt>
      <trkpt lat="42.8667660" lon="-7.7946300">
        <ele>633.2</ele>
        <time>2020-10-19T11:42:47Z</time>
      </trkpt>
      <trkpt lat="42.8667700" lon="-7.7946400">
        <ele>633.2</ele>
        <time>2020-10-19T11:42:48Z</time>
      </trkpt>
      <trkpt lat="42.8667730" lon="-7.7946500">
        <ele>633.2</ele>
        <time>2020-10-19T11:42:49Z</time>
      </trkpt>
      <trkpt lat="42.8667790" lon="-7.7946600">
        <ele>633.3</ele>
        <time>2020-10-19T11:42:50Z</time>
      </trkpt>
      <trkpt lat="42.8667850" lon="-7.7946710">
        <ele>633.3</ele>
        <time>2020-10-19T11:42:51Z</time>
      </trkpt>
      <trkpt lat="42.8667930" lon="-7.7946850">
        <ele>633.4</ele>
        <time>2020-10-19T11:42:52Z</time>
      </trkpt>
      <trkpt lat="42.8667990" lon="-7.7946980">
        <ele>633.4</ele>
        <time>2020-10-19T11:42:53Z</time>
      </trkpt>
      <trkpt lat="42.8668040" lon="-7.7947090">
        <ele>633.5</ele>
        <time>2020-10-19T11:42:54Z</time>
      </trkpt>
      <trkpt lat="42.8668100" lon="-7.7947210">
        <ele>633.5</ele>
        <time>2020-10-19T11:42:55Z</time>
      </trkpt>
      <trkpt lat="42.8668150" lon="-7.7947350">
        <ele>633.6</ele>
        <time>2020-10-19T11:42:56Z</time>
      </trkpt>
      <trkpt lat="42.8668220" lon="-7.7947520">
        <ele>633.7</ele>
        <time>2020-10-19T11:42:57Z</time>
      </trkpt>
      <trkpt lat="42.8668280" lon="-7.7947680">
        <ele>633.7</ele>
        <time>2020-10-19T11:42:58Z</time>
      </trkpt>
      <trkpt lat="42.8668360" lon="-7.7947830">
        <ele>633.8</ele>
        <time>2020-10-19T11:42:59Z</time>
      </trkpt>
      <trkpt lat="42.8668430" lon="-7.7947970">
        <ele>633.8</ele>
        <time>2020-10-19T11:43:00Z</time>
      </trkpt>
      <trkpt lat="42.8668510" lon="-7.7948110">
        <ele>633.9</ele>
        <time>2020-10-19T11:43:01Z</time>
      </trkpt>
      <trkpt lat="42.8668580" lon="-7.7948260">
        <ele>634.0</ele>
        <time>2020-10-19T11:43:02Z</time>
      </trkpt>
      <trkpt lat="42.8668650" lon="-7.7948400">
        <ele>634.0</ele>
        <time>2020-10-19T11:43:03Z</time>
      </trkpt>
      <trkpt lat="42.8668700" lon="-7.7948540">
        <ele>634.1</ele>
        <time>2020-10-19T11:43:04Z</time>
      </trkpt>
      <trkpt lat="42.8668740" lon="-7.7948670">
        <ele>634.1</ele>
        <time>2020-10-19T11:43:05Z</time>
      </trkpt>
      <trkpt lat="42.8668790" lon="-7.7948810">
        <ele>634.2</ele>
        <time>2020-10-19T11:43:06Z</time>
      </trkpt>
      <trkpt lat="42.8668850" lon="-7.7948940">
        <ele>634.2</ele>
        <time>2020-10-19T11:43:07Z</time>
      </trkpt>
      <trkpt lat="42.8668920" lon="-7.7949080">
        <ele>634.3</ele>
        <time>2020-10-19T11:43:08Z</time>
      </trkpt>
      <trkpt lat="42.8668980" lon="-7.7949230">
        <ele>634.3</ele>
        <time>2020-10-19T11:43:09Z</time>
      </trkpt>
      <trkpt lat="42.8669040" lon="-7.7949390">
        <ele>634.4</ele>
        <time>2020-10-19T11:43:10Z</time>
      </trkpt>
      <trkpt lat="42.8669080" lon="-7.7949540">
        <ele>634.5</ele>
        <time>2020-10-19T11:43:11Z</time>
      </trkpt>
      <trkpt lat="42.8669110" lon="-7.7949670">
        <ele>634.5</ele>
        <time>2020-10-19T11:43:12Z</time>
      </trkpt>
      <trkpt lat="42.8669140" lon="-7.7949790">
        <ele>634.5</ele>
        <time>2020-10-19T11:43:13Z</time>
      </trkpt>
      <trkpt lat="42.8669170" lon="-7.7949900">
        <ele>634.6</ele>
        <time>2020-10-19T11:43:14Z</time>
      </trkpt>
      <trkpt lat="42.8669200" lon="-7.7950000">
        <ele>634.6</ele>
        <time>2020-10-19T11:43:15Z</time>
      </trkpt>
      <trkpt lat="42.8669210" lon="-7.7950100">
        <ele>634.6</ele>
        <time>2020-10-19T11:43:16Z</time>
      </trkpt>
      <trkpt lat="42.8669210" lon="-7.7950240">
        <ele>634.7</ele>
        <time>2020-10-19T11:43:17Z</time>
      </trkpt>
      <trkpt lat="42.8669210" lon="-7.7950400">
        <ele>634.7</ele>
        <time>2020-10-19T11:43:18Z</time>
      </trkpt>
      <trkpt lat="42.8669220" lon="-7.7950560">
        <ele>634.8</ele>
        <time>2020-10-19T11:43:19Z</time>
      </trkpt>
      <trkpt lat="42.8669230" lon="-7.7950700">
        <ele>634.8</ele>
        <time>2020-10-19T11:43:20Z</time>
      </trkpt>
      <trkpt lat="42.8669280" lon="-7.7950840">
        <ele>634.9</ele>
        <time>2020-10-19T11:43:21Z</time>
      </trkpt>
      <trkpt lat="42.8669370" lon="-7.7951000">
        <ele>635.0</ele>
        <time>2020-10-19T11:43:22Z</time>
      </trkpt>
      <trkpt lat="42.8669480" lon="-7.7951160">
        <ele>635.0</ele>
        <time>2020-10-19T11:43:23Z</time>
      </trkpt>
      <trkpt lat="42.8669570" lon="-7.7951300">
        <ele>635.1</ele>
        <time>2020-10-19T11:43:24Z</time>
      </trkpt>
      <trkpt lat="42.8669660" lon="-7.7951430">
        <ele>635.1</ele>
        <time>2020-10-19T11:43:25Z</time>
      </trkpt>
      <trkpt lat="42.8669740" lon="-7.7951560">
        <ele>635.2</ele>
        <time>2020-10-19T11:43:26Z</time>
      </trkpt>
      <trkpt lat="42.8669830" lon="-7.7951690">
        <ele>635.3</ele>
        <time>2020-10-19T11:43:27Z</time>
      </trkpt>
      <trkpt lat="42.8669910" lon="-7.7951820">
        <ele>635.3</ele>
        <time>2020-10-19T11:43:28Z</time>
      </trkpt>
      <trkpt lat="42.8670010" lon="-7.7951960">
        <ele>635.4</ele>
        <time>2020-10-19T11:43:29Z</time>
      </trkpt>
      <trkpt lat="42.8670110" lon="-7.7952100">
        <ele>635.4</ele>
        <time>2020-10-19T11:43:30Z</time>
      </trkpt>
      <trkpt lat="42.8670200" lon="-7.7952250">
        <ele>635.5</ele>
        <time>2020-10-19T11:43:31Z</time>
      </trkpt>
      <trkpt lat="42.8670280" lon="-7.7952370">
        <ele>635.5</ele>
        <time>2020-10-19T11:43:32Z</time>
      </trkpt>
      <trkpt lat="42.8670350" lon="-7.7952500">
        <ele>635.6</ele>
        <time>2020-10-19T11:43:33Z</time>
      </trkpt>
      <trkpt lat="42.8670430" lon="-7.7952630">
        <ele>635.6</ele>
        <time>2020-10-19T11:43:34Z</time>
      </trkpt>
      <trkpt lat="42.8670480" lon="-7.7952780">
        <ele>635.7</ele>
        <time>2020-10-19T11:43:35Z</time>
      </trkpt>
      <trkpt lat="42.8670540" lon="-7.7952930">
        <ele>635.7</ele>
        <time>2020-10-19T11:43:36Z</time>
      </trkpt>
      <trkpt lat="42.8670610" lon="-7.7953090">
        <ele>635.8</ele>
        <time>2020-10-19T11:43:37Z</time>
      </trkpt>
      <trkpt lat="42.8670710" lon="-7.7953270">
        <ele>635.9</ele>
        <time>2020-10-19T11:43:38Z</time>
      </trkpt>
      <trkpt lat="42.8670850" lon="-7.7953470">
        <ele>636.0</ele>
        <time>2020-10-19T11:43:39Z</time>
      </trkpt>
      <trkpt lat="42.8670930" lon="-7.7953660">
        <ele>636.0</ele>
        <time>2020-10-19T11:43:40Z</time>
      </trkpt>
      <trkpt lat="42.8671010" lon="-7.7953830">
        <ele>636.1</ele>
        <time>2020-10-19T11:43:41Z</time>
      </trkpt>
      <trkpt lat="42.8671050" lon="-7.7954010">
        <ele>636.1</ele>
        <time>2020-10-19T11:43:42Z</time>
      </trkpt>
      <trkpt lat="42.8671130" lon="-7.7954190">
        <ele>636.2</ele>
        <time>2020-10-19T11:43:43Z</time>
      </trkpt>
      <trkpt lat="42.8671220" lon="-7.7954380">
        <ele>636.3</ele>
        <time>2020-10-19T11:43:44Z</time>
      </trkpt>
      <trkpt lat="42.8671330" lon="-7.7954540">
        <ele>636.3</ele>
        <time>2020-10-19T11:43:45Z</time>
      </trkpt>
      <trkpt lat="42.8671440" lon="-7.7954720">
        <ele>636.4</ele>
        <time>2020-10-19T11:43:46Z</time>
      </trkpt>
      <trkpt lat="42.8671560" lon="-7.7954900">
        <ele>636.5</ele>
        <time>2020-10-19T11:43:47Z</time>
      </trkpt>
      <trkpt lat="42.8671680" lon="-7.7955100">
        <ele>636.6</ele>
        <time>2020-10-19T11:43:48Z</time>
      </trkpt>
      <trkpt lat="42.8671780" lon="-7.7955290">
        <ele>636.6</ele>
        <time>2020-10-19T11:43:49Z</time>
      </trkpt>
      <trkpt lat="42.8671870" lon="-7.7955470">
        <ele>636.7</ele>
        <time>2020-10-19T11:43:50Z</time>
      </trkpt>
      <trkpt lat="42.8671940" lon="-7.7955620">
        <ele>636.8</ele>
        <time>2020-10-19T11:43:51Z</time>
      </trkpt>
      <trkpt lat="42.8672020" lon="-7.7955770">
        <ele>636.8</ele>
        <time>2020-10-19T11:43:52Z</time>
      </trkpt>
      <trkpt lat="42.8672110" lon="-7.7955920">
        <ele>636.9</ele>
        <time>2020-10-19T11:43:53Z</time>
      </trkpt>
      <trkpt lat="42.8672190" lon="-7.7956060">
        <ele>636.9</ele>
        <time>2020-10-19T11:43:54Z</time>
      </trkpt>
      <trkpt lat="42.8672260" lon="-7.7956190">
        <ele>637.0</ele>
        <time>2020-10-19T11:43:55Z</time>
      </trkpt>
      <trkpt lat="42.8672320" lon="-7.7956330">
        <ele>637.0</ele>
        <time>2020-10-19T11:43:56Z</time>
      </trkpt>
      <trkpt lat="42.8672390" lon="-7.7956460">
        <ele>637.1</ele>
        <time>2020-10-19T11:43:57Z</time>
      </trkpt>
      <trkpt lat="42.8672470" lon="-7.7956580">
        <ele>637.1</ele>
        <time>2020-10-19T11:43:58Z</time>
      </trkpt>
      <trkpt lat="42.8672550" lon="-7.7956710">
        <ele>637.2</ele>
        <time>2020-10-19T11:43:59Z</time>
      </trkpt>
      <trkpt lat="42.8672640" lon="-7.7956830">
        <ele>637.2</ele>
        <time>2020-10-19T11:44:00Z</time>
      </trkpt>
      <trkpt lat="42.8672720" lon="-7.7956960">
        <ele>637.3</ele>
        <time>2020-10-19T11:44:01Z</time>
      </trkpt>
      <trkpt lat="42.8672810" lon="-7.7957080">
        <ele>637.3</ele>
        <time>2020-10-19T11:44:02Z</time>
      </trkpt>
      <trkpt lat="42.8672890" lon="-7.7957220">
        <ele>637.4</ele>
        <time>2020-10-19T11:44:03Z</time>
      </trkpt>
      <trkpt lat="42.8672970" lon="-7.7957360">
        <ele>637.5</ele>
        <time>2020-10-19T11:44:04Z</time>
      </trkpt>
      <trkpt lat="42.8673050" lon="-7.7957490">
        <ele>637.5</ele>
        <time>2020-10-19T11:44:05Z</time>
      </trkpt>
      <trkpt lat="42.8673140" lon="-7.7957610">
        <ele>637.6</ele>
        <time>2020-10-19T11:44:06Z</time>
      </trkpt>
      <trkpt lat="42.8673210" lon="-7.7957730">
        <ele>637.6</ele>
        <time>2020-10-19T11:44:07Z</time>
      </trkpt>
      <trkpt lat="42.8673270" lon="-7.7957860">
        <ele>637.7</ele>
        <time>2020-10-19T11:44:08Z</time>
      </trkpt>
      <trkpt lat="42.8673330" lon="-7.7958000">
        <ele>637.8</ele>
        <time>2020-10-19T11:44:09Z</time>
      </trkpt>
      <trkpt lat="42.8673390" lon="-7.7958140">
        <ele>637.8</ele>
        <time>2020-10-19T11:44:10Z</time>
      </trkpt>
      <trkpt lat="42.8673460" lon="-7.7958300">
        <ele>637.9</ele>
        <time>2020-10-19T11:44:11Z</time>
      </trkpt>
      <trkpt lat="42.8673530" lon="-7.7958460">
        <ele>638.0</ele>
        <time>2020-10-19T11:44:12Z</time>
      </trkpt>
      <trkpt lat="42.8673610" lon="-7.7958620">
        <ele>638.0</ele>
        <time>2020-10-19T11:44:13Z</time>
      </trkpt>
      <trkpt lat="42.8673680" lon="-7.7958760">
        <ele>638.1</ele>
        <time>2020-10-19T11:44:14Z</time>
      </trkpt>
      <trkpt lat="42.8673750" lon="-7.7958920">
        <ele>638.2</ele>
        <time>2020-10-19T11:44:15Z</time>
      </trkpt>
      <trkpt lat="42.8673820" lon="-7.7959080">
        <ele>638.3</ele>
        <time>2020-10-19T11:44:16Z</time>
      </trkpt>
      <trkpt lat="42.8673900" lon="-7.7959260">
        <ele>638.4</ele>
        <time>2020-10-19T11:44:17Z</time>
      </trkpt>
      <trkpt lat="42.8673980" lon="-7.7959410">
        <ele>638.5</ele>
        <time>2020-10-19T11:44:18Z</time>
      </trkpt>
      <trkpt lat="42.8674060" lon="-7.7959560">
        <ele>638.5</ele>
        <time>2020-10-19T11:44:19Z</time>
      </trkpt>
      <trkpt lat="42.8674140" lon="-7.7959720">
        <ele>638.6</ele>
        <time>2020-10-19T11:44:20Z</time>
      </trkpt>
      <trkpt lat="42.8674210" lon="-7.7959890">
        <ele>638.7</ele>
        <time>2020-10-19T11:44:21Z</time>
      </trkpt>
      <trkpt lat="42.8674270" lon="-7.7960040">
        <ele>638.8</ele>
        <time>2020-10-19T11:44:22Z</time>
      </trkpt>
      <trkpt lat="42.8674320" lon="-7.7960170">
        <ele>638.9</ele>
        <time>2020-10-19T11:44:23Z</time>
      </trkpt>
      <trkpt lat="42.8674390" lon="-7.7960290">
        <ele>638.9</ele>
        <time>2020-10-19T11:44:24Z</time>
      </trkpt>
      <trkpt lat="42.8674460" lon="-7.7960410">
        <ele>639.0</ele>
        <time>2020-10-19T11:44:25Z</time>
      </trkpt>
      <trkpt lat="42.8674540" lon="-7.7960550">
        <ele>639.1</ele>
        <time>2020-10-19T11:44:26Z</time>
      </trkpt>
      <trkpt lat="42.8674620" lon="-7.7960690">
        <ele>639.2</ele>
        <time>2020-10-19T11:44:27Z</time>
      </trkpt>
      <trkpt lat="42.8674700" lon="-7.7960830">
        <ele>639.3</ele>
        <time>2020-10-19T11:44:28Z</time>
      </trkpt>
      <trkpt lat="42.8674780" lon="-7.7960960">
        <ele>639.3</ele>
        <time>2020-10-19T11:44:29Z</time>
      </trkpt>
      <trkpt lat="42.8674840" lon="-7.7961090">
        <ele>639.4</ele>
        <time>2020-10-19T11:44:30Z</time>
      </trkpt>
      <trkpt lat="42.8674890" lon="-7.7961220">
        <ele>639.5</ele>
        <time>2020-10-19T11:44:31Z</time>
      </trkpt>
      <trkpt lat="42.8674940" lon="-7.7961350">
        <ele>639.5</ele>
        <time>2020-10-19T11:44:32Z</time>
      </trkpt>
      <trkpt lat="42.8674990" lon="-7.7961490">
        <ele>639.6</ele>
        <time>2020-10-19T11:44:33Z</time>
      </trkpt>
      <trkpt lat="42.8675050" lon="-7.7961620">
        <ele>639.7</ele>
        <time>2020-10-19T11:44:34Z</time>
      </trkpt>
      <trkpt lat="42.8675120" lon="-7.7961750">
        <ele>639.7</ele>
        <time>2020-10-19T11:44:35Z</time>
      </trkpt>
      <trkpt lat="42.8675200" lon="-7.7961890">
        <ele>639.8</ele>
        <time>2020-10-19T11:44:36Z</time>
      </trkpt>
      <trkpt lat="42.8675290" lon="-7.7962030">
        <ele>639.9</ele>
        <time>2020-10-19T11:44:37Z</time>
      </trkpt>
      <trkpt lat="42.8675390" lon="-7.7962160">
        <ele>640.0</ele>
        <time>2020-10-19T11:44:38Z</time>
      </trkpt>
      <trkpt lat="42.8675480" lon="-7.7962290">
        <ele>640.1</ele>
        <time>2020-10-19T11:44:39Z</time>
      </trkpt>
      <trkpt lat="42.8675550" lon="-7.7962420">
        <ele>640.1</ele>
        <time>2020-10-19T11:44:40Z</time>
      </trkpt>
      <trkpt lat="42.8675610" lon="-7.7962570">
        <ele>640.2</ele>
        <time>2020-10-19T11:44:41Z</time>
      </trkpt>
      <trkpt lat="42.8675670" lon="-7.7962710">
        <ele>640.3</ele>
        <time>2020-10-19T11:44:42Z</time>
      </trkpt>
      <trkpt lat="42.8675750" lon="-7.7962850">
        <ele>640.3</ele>
        <time>2020-10-19T11:44:43Z</time>
      </trkpt>
      <trkpt lat="42.8675840" lon="-7.7962980">
        <ele>640.4</ele>
        <time>2020-10-19T11:44:44Z</time>
      </trkpt>
      <trkpt lat="42.8675940" lon="-7.7963120">
        <ele>640.5</ele>
        <time>2020-10-19T11:44:45Z</time>
      </trkpt>
      <trkpt lat="42.8676030" lon="-7.7963270">
        <ele>640.6</ele>
        <time>2020-10-19T11:44:46Z</time>
      </trkpt>
      <trkpt lat="42.8676120" lon="-7.7963420">
        <ele>640.7</ele>
        <time>2020-10-19T11:44:47Z</time>
      </trkpt>
      <trkpt lat="42.8676200" lon="-7.7963580">
        <ele>640.8</ele>
        <time>2020-10-19T11:44:48Z</time>
      </trkpt>
      <trkpt lat="42.8676280" lon="-7.7963720">
        <ele>640.8</ele>
        <time>2020-10-19T11:44:49Z</time>
      </trkpt>
      <trkpt lat="42.8676360" lon="-7.7963830">
        <ele>640.9</ele>
        <time>2020-10-19T11:44:50Z</time>
      </trkpt>
      <trkpt lat="42.8676450" lon="-7.7963940">
        <ele>641.0</ele>
        <time>2020-10-19T11:44:51Z</time>
      </trkpt>
      <trkpt lat="42.8676540" lon="-7.7964070">
        <ele>641.0</ele>
        <time>2020-10-19T11:44:52Z</time>
      </trkpt>
      <trkpt lat="42.8676620" lon="-7.7964220">
        <ele>641.1</ele>
        <time>2020-10-19T11:44:53Z</time>
      </trkpt>
      <trkpt lat="42.8676690" lon="-7.7964380">
        <ele>641.2</ele>
        <time>2020-10-19T11:44:54Z</time>
      </trkpt>
      <trkpt lat="42.8676760" lon="-7.7964530">
        <ele>641.3</ele>
        <time>2020-10-19T11:44:55Z</time>
      </trkpt>
      <trkpt lat="42.8676850" lon="-7.7964700">
        <ele>641.4</ele>
        <time>2020-10-19T11:44:56Z</time>
      </trkpt>
      <trkpt lat="42.8676930" lon="-7.7964870">
        <ele>641.5</ele>
        <time>2020-10-19T11:44:57Z</time>
      </trkpt>
      <trkpt lat="42.8677010" lon="-7.7965030">
        <ele>641.6</ele>
        <time>2020-10-19T11:44:58Z</time>
      </trkpt>
      <trkpt lat="42.8677090" lon="-7.7965180">
        <ele>641.7</ele>
        <time>2020-10-19T11:44:59Z</time>
      </trkpt>
      <trkpt lat="42.8677150" lon="-7.7965330">
        <ele>641.7</ele>
        <time>2020-10-19T11:45:00Z</time>
      </trkpt>
      <trkpt lat="42.8677220" lon="-7.7965480">
        <ele>641.8</ele>
        <time>2020-10-19T11:45:01Z</time>
      </trkpt>
      <trkpt lat="42.8677280" lon="-7.7965640">
        <ele>641.9</ele>
        <time>2020-10-19T11:45:02Z</time>
      </trkpt>
      <trkpt lat="42.8677350" lon="-7.7965790">
        <ele>642.0</ele>
        <time>2020-10-19T11:45:03Z</time>
      </trkpt>
      <trkpt lat="42.8677430" lon="-7.7965940">
        <ele>642.1</ele>
        <time>2020-10-19T11:45:04Z</time>
      </trkpt>
      <trkpt lat="42.8677500" lon="-7.7966090">
        <ele>642.2</ele>
        <time>2020-10-19T11:45:05Z</time>
      </trkpt>
      <trkpt lat="42.8677570" lon="-7.7966230">
        <ele>642.2</ele>
        <time>2020-10-19T11:45:06Z</time>
      </trkpt>
      <trkpt lat="42.8677640" lon="-7.7966370">
        <ele>642.3</ele>
        <time>2020-10-19T11:45:07Z</time>
      </trkpt>
      <trkpt lat="42.8677700" lon="-7.7966520">
        <ele>642.4</ele>
        <time>2020-10-19T11:45:08Z</time>
      </trkpt>
      <trkpt lat="42.8677770" lon="-7.7966660">
        <ele>642.5</ele>
        <time>2020-10-19T11:45:09Z</time>
      </trkpt>
      <trkpt lat="42.8677850" lon="-7.7966810">
        <ele>642.6</ele>
        <time>2020-10-19T11:45:10Z</time>
      </trkpt>
      <trkpt lat="42.8677930" lon="-7.7966950">
        <ele>642.7</ele>
        <time>2020-10-19T11:45:11Z</time>
      </trkpt>
      <trkpt lat="42.8678000" lon="-7.7967090">
        <ele>642.8</ele>
        <time>2020-10-19T11:45:12Z</time>
      </trkpt>
      <trkpt lat="42.8678060" lon="-7.7967240">
        <ele>642.8</ele>
        <time>2020-10-19T11:45:13Z</time>
      </trkpt>
      <trkpt lat="42.8678130" lon="-7.7967380">
        <ele>642.9</ele>
        <time>2020-10-19T11:45:14Z</time>
      </trkpt>
      <trkpt lat="42.8678200" lon="-7.7967530">
        <ele>643.0</ele>
        <time>2020-10-19T11:45:15Z</time>
      </trkpt>
      <trkpt lat="42.8678280" lon="-7.7967670">
        <ele>643.1</ele>
        <time>2020-10-19T11:45:16Z</time>
      </trkpt>
      <trkpt lat="42.8678350" lon="-7.7967810">
        <ele>643.2</ele>
        <time>2020-10-19T11:45:17Z</time>
      </trkpt>
      <trkpt lat="42.8678420" lon="-7.7967940">
        <ele>643.3</ele>
        <time>2020-10-19T11:45:18Z</time>
      </trkpt>
      <trkpt lat="42.8678500" lon="-7.7968080">
        <ele>643.4</ele>
        <time>2020-10-19T11:45:19Z</time>
      </trkpt>
      <trkpt lat="42.8678570" lon="-7.7968210">
        <ele>643.4</ele>
        <time>2020-10-19T11:45:20Z</time>
      </trkpt>
      <trkpt lat="42.8678640" lon="-7.7968340">
        <ele>643.5</ele>
        <time>2020-10-19T11:45:21Z</time>
      </trkpt>
      <trkpt lat="42.8678720" lon="-7.7968480">
        <ele>643.6</ele>
        <time>2020-10-19T11:45:22Z</time>
      </trkpt>
      <trkpt lat="42.8678780" lon="-7.7968610">
        <ele>643.7</ele>
        <time>2020-10-19T11:45:23Z</time>
      </trkpt>
      <trkpt lat="42.8678830" lon="-7.7968750">
        <ele>643.8</ele>
        <time>2020-10-19T11:45:24Z</time>
      </trkpt>
      <trkpt lat="42.8678870" lon="-7.7968910">
        <ele>643.9</ele>
        <time>2020-10-19T11:45:25Z</time>
      </trkpt>
      <trkpt lat="42.8678910" lon="-7.7969070">
        <ele>644.0</ele>
        <time>2020-10-19T11:45:26Z</time>
      </trkpt>
      <trkpt lat="42.8678970" lon="-7.7969210">
        <ele>644.1</ele>
        <time>2020-10-19T11:45:27Z</time>
      </trkpt>
      <trkpt lat="42.8679040" lon="-7.7969340">
        <ele>644.2</ele>
        <time>2020-10-19T11:45:28Z</time>
      </trkpt>
      <trkpt lat="42.8679120" lon="-7.7969470">
        <ele>644.3</ele>
        <time>2020-10-19T11:45:29Z</time>
      </trkpt>
      <trkpt lat="42.8679200" lon="-7.7969600">
        <ele>644.4</ele>
        <time>2020-10-19T11:45:30Z</time>
      </trkpt>
      <trkpt lat="42.8679280" lon="-7.7969730">
        <ele>644.5</ele>
        <time>2020-10-19T11:45:31Z</time>
      </trkpt>
      <trkpt lat="42.8679350" lon="-7.7969860">
        <ele>644.6</ele>
        <time>2020-10-19T11:45:32Z</time>
      </trkpt>
      <trkpt lat="42.8679430" lon="-7.7970000">
        <ele>644.7</ele>
        <time>2020-10-19T11:45:33Z</time>
      </trkpt>
      <trkpt lat="42.8679500" lon="-7.7970130">
        <ele>644.8</ele>
        <time>2020-10-19T11:45:34Z</time>
      </trkpt>
      <trkpt lat="42.8679570" lon="-7.7970270">
        <ele>644.9</ele>
        <time>2020-10-19T11:45:35Z</time>
      </trkpt>
      <trkpt lat="42.8679630" lon="-7.7970380">
        <ele>644.9</ele>
        <time>2020-10-19T11:45:36Z</time>
      </trkpt>
      <trkpt lat="42.8679690" lon="-7.7970450">
        <ele>645.0</ele>
        <time>2020-10-19T11:45:37Z</time>
      </trkpt>
      <trkpt lat="42.8679760" lon="-7.7970500">
        <ele>645.1</ele>
        <time>2020-10-19T11:45:38Z</time>
      </trkpt>
      <trkpt lat="42.8679850" lon="-7.7970580">
        <ele>645.2</ele>
        <time>2020-10-19T11:45:39Z</time>
      </trkpt>
      <trkpt lat="42.8679930" lon="-7.7970700">
        <ele>645.3</ele>
        <time>2020-10-19T11:45:40Z</time>
      </trkpt>
      <trkpt lat="42.8680010" lon="-7.7970850">
        <ele>645.4</ele>
        <time>2020-10-19T11:45:41Z</time>
      </trkpt>
      <trkpt lat="42.8680080" lon="-7.7971000">
        <ele>645.5</ele>
        <time>2020-10-19T11:45:42Z</time>
      </trkpt>
      <trkpt lat="42.8680150" lon="-7.7971150">
        <ele>645.6</ele>
        <time>2020-10-19T11:45:43Z</time>
      </trkpt>
      <trkpt lat="42.8680230" lon="-7.7971290">
        <ele>645.7</ele>
        <time>2020-10-19T11:45:44Z</time>
      </trkpt>
      <trkpt lat="42.8680310" lon="-7.7971440">
        <ele>645.8</ele>
        <time>2020-10-19T11:45:45Z</time>
      </trkpt>
      <trkpt lat="42.8680390" lon="-7.7971580">
        <ele>645.8</ele>
        <time>2020-10-19T11:45:46Z</time>
      </trkpt>
      <trkpt lat="42.8680470" lon="-7.7971720">
        <ele>645.9</ele>
        <time>2020-10-19T11:45:47Z</time>
      </trkpt>
      <trkpt lat="42.8680560" lon="-7.7971850">
        <ele>646.0</ele>
        <time>2020-10-19T11:45:48Z</time>
      </trkpt>
      <trkpt lat="42.8680650" lon="-7.7971980">
        <ele>646.1</ele>
        <time>2020-10-19T11:45:49Z</time>
      </trkpt>
      <trkpt lat="42.8680740" lon="-7.7972110">
        <ele>646.2</ele>
        <time>2020-10-19T11:45:50Z</time>
      </trkpt>
      <trkpt lat="42.8680830" lon="-7.7972230">
        <ele>646.3</ele>
        <time>2020-10-19T11:45:51Z</time>
      </trkpt>
      <trkpt lat="42.8680900" lon="-7.7972360">
        <ele>646.4</ele>
        <time>2020-10-19T11:45:52Z</time>
      </trkpt>
      <trkpt lat="42.8680980" lon="-7.7972480">
        <ele>646.5</ele>
        <time>2020-10-19T11:45:53Z</time>
      </trkpt>
      <trkpt lat="42.8681050" lon="-7.7972610">
        <ele>646.5</ele>
        <time>2020-10-19T11:45:54Z</time>
      </trkpt>
      <trkpt lat="42.8681130" lon="-7.7972740">
        <ele>646.6</ele>
        <time>2020-10-19T11:45:55Z</time>
      </trkpt>
      <trkpt lat="42.8681210" lon="-7.7972880">
        <ele>646.7</ele>
        <time>2020-10-19T11:45:56Z</time>
      </trkpt>
      <trkpt lat="42.8681290" lon="-7.7973010">
        <ele>646.8</ele>
        <time>2020-10-19T11:45:57Z</time>
      </trkpt>
      <trkpt lat="42.8681370" lon="-7.7973150">
        <ele>646.9</ele>
        <time>2020-10-19T11:45:58Z</time>
      </trkpt>
      <trkpt lat="42.8681450" lon="-7.7973280">
        <ele>646.9</ele>
        <time>2020-10-19T11:45:59Z</time>
      </trkpt>
      <trkpt lat="42.8681520" lon="-7.7973420">
        <ele>647.0</ele>
        <time>2020-10-19T11:46:00Z</time>
      </trkpt>
      <trkpt lat="42.8681590" lon="-7.7973550">
        <ele>647.1</ele>
        <time>2020-10-19T11:46:01Z</time>
      </trkpt>
      <trkpt lat="42.8681660" lon="-7.7973670">
        <ele>647.1</ele>
        <time>2020-10-19T11:46:02Z</time>
      </trkpt>
      <trkpt lat="42.8681710" lon="-7.7973780">
        <ele>647.2</ele>
        <time>2020-10-19T11:46:03Z</time>
      </trkpt>
      <trkpt lat="42.8681760" lon="-7.7973880">
        <ele>647.2</ele>
        <time>2020-10-19T11:46:04Z</time>
      </trkpt>
      <trkpt lat="42.8681810" lon="-7.7973970">
        <ele>647.3</ele>
        <time>2020-10-19T11:46:05Z</time>
      </trkpt>
      <trkpt lat="42.8681880" lon="-7.7974070">
        <ele>647.3</ele>
        <time>2020-10-19T11:46:06Z</time>
      </trkpt>
      <trkpt lat="42.8681940" lon="-7.7974180">
        <ele>647.4</ele>
        <time>2020-10-19T11:46:07Z</time>
      </trkpt>
      <trkpt lat="42.8682000" lon="-7.7974300">
        <ele>647.4</ele>
        <time>2020-10-19T11:46:08Z</time>
      </trkpt>
      <trkpt lat="42.8682070" lon="-7.7974420">
        <ele>647.5</ele>
        <time>2020-10-19T11:46:09Z</time>
      </trkpt>
      <trkpt lat="42.8682150" lon="-7.7974550">
        <ele>647.5</ele>
        <time>2020-10-19T11:46:10Z</time>
      </trkpt>
      <trkpt lat="42.8682220" lon="-7.7974690">
        <ele>647.6</ele>
        <time>2020-10-19T11:46:11Z</time>
      </trkpt>
      <trkpt lat="42.8682290" lon="-7.7974830">
        <ele>647.6</ele>
        <time>2020-10-19T11:46:12Z</time>
      </trkpt>
      <trkpt lat="42.8682360" lon="-7.7974970">
        <ele>647.7</ele>
        <time>2020-10-19T11:46:13Z</time>
      </trkpt>
      <trkpt lat="42.8682430" lon="-7.7975100">
        <ele>647.7</ele>
        <time>2020-10-19T11:46:14Z</time>
      </trkpt>
      <trkpt lat="42.8682490" lon="-7.7975240">
        <ele>647.8</ele>
        <time>2020-10-19T11:46:15Z</time>
      </trkpt>
      <trkpt lat="42.8682560" lon="-7.7975380">
        <ele>647.8</ele>
        <time>2020-10-19T11:46:16Z</time>
      </trkpt>
      <trkpt lat="42.8682610" lon="-7.7975510">
        <ele>647.9</ele>
        <time>2020-10-19T11:46:17Z</time>
      </trkpt>
      <trkpt lat="42.8682650" lon="-7.7975660">
        <ele>647.9</ele>
        <time>2020-10-19T11:46:18Z</time>
      </trkpt>
      <trkpt lat="42.8682680" lon="-7.7975810">
        <ele>647.9</ele>
        <time>2020-10-19T11:46:19Z</time>
      </trkpt>
      <trkpt lat="42.8682720" lon="-7.7975970">
        <ele>648.0</ele>
        <time>2020-10-19T11:46:20Z</time>
      </trkpt>
      <trkpt lat="42.8682770" lon="-7.7976120">
        <ele>648.0</ele>
        <time>2020-10-19T11:46:21Z</time>
      </trkpt>
      <trkpt lat="42.8682810" lon="-7.7976270">
        <ele>648.0</ele>
        <time>2020-10-19T11:46:22Z</time>
      </trkpt>
      <trkpt lat="42.8682840" lon="-7.7976420">
        <ele>648.1</ele>
        <time>2020-10-19T11:46:23Z</time>
      </trkpt>
      <trkpt lat="42.8682880" lon="-7.7976580">
        <ele>648.1</ele>
        <time>2020-10-19T11:46:24Z</time>
      </trkpt>
      <trkpt lat="42.8682920" lon="-7.7976740">
        <ele>648.2</ele>
        <time>2020-10-19T11:46:25Z</time>
      </trkpt>
      <trkpt lat="42.8682980" lon="-7.7976880">
        <ele>648.2</ele>
        <time>2020-10-19T11:46:26Z</time>
      </trkpt>
      <trkpt lat="42.8683020" lon="-7.7977020">
        <ele>648.2</ele>
        <time>2020-10-19T11:46:27Z</time>
      </trkpt>
      <trkpt lat="42.8683060" lon="-7.7977150">
        <ele>648.2</ele>
        <time>2020-10-19T11:46:28Z</time>
      </trkpt>
      <trkpt lat="42.8683100" lon="-7.7977270">
        <ele>648.3</ele>
        <time>2020-10-19T11:46:29Z</time>
      </trkpt>
      <trkpt lat="42.8683140" lon="-7.7977400">
        <ele>648.3</ele>
        <time>2020-10-19T11:46:30Z</time>
      </trkpt>
      <trkpt lat="42.8683190" lon="-7.7977520">
        <ele>648.3</ele>
        <time>2020-10-19T11:46:31Z</time>
      </trkpt>
      <trkpt lat="42.8683230" lon="-7.7977640">
        <ele>648.3</ele>
        <time>2020-10-19T11:46:32Z</time>
      </trkpt>
      <trkpt lat="42.8683270" lon="-7.7977750">
        <ele>648.4</ele>
        <time>2020-10-19T11:46:33Z</time>
      </trkpt>
      <trkpt lat="42.8683320" lon="-7.7977860">
        <ele>648.4</ele>
        <time>2020-10-19T11:46:34Z</time>
      </trkpt>
      <trkpt lat="42.8683370" lon="-7.7977950">
        <ele>648.4</ele>
        <time>2020-10-19T11:46:35Z</time>
      </trkpt>
      <trkpt lat="42.8683440" lon="-7.7978040">
        <ele>648.4</ele>
        <time>2020-10-19T11:46:36Z</time>
      </trkpt>
      <trkpt lat="42.8683510" lon="-7.7978130">
        <ele>648.4</ele>
        <time>2020-10-19T11:46:37Z</time>
      </trkpt>
      <trkpt lat="42.8683590" lon="-7.7978210">
        <ele>648.5</ele>
        <time>2020-10-19T11:46:38Z</time>
      </trkpt>
      <trkpt lat="42.8683670" lon="-7.7978280">
        <ele>648.5</ele>
        <time>2020-10-19T11:46:39Z</time>
      </trkpt>
      <trkpt lat="42.8683770" lon="-7.7978350">
        <ele>648.5</ele>
        <time>2020-10-19T11:46:40Z</time>
      </trkpt>
      <trkpt lat="42.8683870" lon="-7.7978430">
        <ele>648.5</ele>
        <time>2020-10-19T11:46:41Z</time>
      </trkpt>
      <trkpt lat="42.8683970" lon="-7.7978500">
        <ele>648.5</ele>
        <time>2020-10-19T11:46:42Z</time>
      </trkpt>
      <trkpt lat="42.8684080" lon="-7.7978580">
        <ele>648.5</ele>
        <time>2020-10-19T11:46:43Z</time>
      </trkpt>
      <trkpt lat="42.8684180" lon="-7.7978660">
        <ele>648.5</ele>
        <time>2020-10-19T11:46:44Z</time>
      </trkpt>
      <trkpt lat="42.8684280" lon="-7.7978740">
        <ele>648.5</ele>
        <time>2020-10-19T11:46:45Z</time>
      </trkpt>
      <trkpt lat="42.8684360" lon="-7.7978830">
        <ele>648.5</ele>
        <time>2020-10-19T11:46:46Z</time>
      </trkpt>
      <trkpt lat="42.8684450" lon="-7.7978930">
        <ele>648.5</ele>
        <time>2020-10-19T11:46:47Z</time>
      </trkpt>
      <trkpt lat="42.8684530" lon="-7.7979050">
        <ele>648.5</ele>
        <time>2020-10-19T11:46:48Z</time>
      </trkpt>
      <trkpt lat="42.8684610" lon="-7.7979180">
        <ele>648.5</ele>
        <time>2020-10-19T11:46:49Z</time>
      </trkpt>
      <trkpt lat="42.8684690" lon="-7.7979300">
        <ele>648.4</ele>
        <time>2020-10-19T11:46:50Z</time>
      </trkpt>
      <trkpt lat="42.8684750" lon="-7.7979410">
        <ele>648.4</ele>
        <time>2020-10-19T11:46:51Z</time>
      </trkpt>
      <trkpt lat="42.8684780" lon="-7.7979480">
        <ele>648.4</ele>
        <time>2020-10-19T11:46:52Z</time>
      </trkpt>
      <trkpt lat="42.8684820" lon="-7.7979540">
        <ele>648.4</ele>
        <time>2020-10-19T11:46:53Z</time>
      </trkpt>
      <trkpt lat="42.8684860" lon="-7.7979610">
        <ele>648.4</ele>
        <time>2020-10-19T11:46:54Z</time>
      </trkpt>
      <trkpt lat="42.8684930" lon="-7.7979700">
        <ele>648.3</ele>
        <time>2020-10-19T11:46:55Z</time>
      </trkpt>
      <trkpt lat="42.8685020" lon="-7.7979790">
        <ele>648.3</ele>
        <time>2020-10-19T11:46:56Z</time>
      </trkpt>
      <trkpt lat="42.8685100" lon="-7.7979900">
        <ele>648.3</ele>
        <time>2020-10-19T11:46:57Z</time>
      </trkpt>
      <trkpt lat="42.8685180" lon="-7.7980020">
        <ele>648.2</ele>
        <time>2020-10-19T11:46:58Z</time>
      </trkpt>
      <trkpt lat="42.8685250" lon="-7.7980140">
        <ele>648.2</ele>
        <time>2020-10-19T11:46:59Z</time>
      </trkpt>
      <trkpt lat="42.8685340" lon="-7.7980270">
        <ele>648.2</ele>
        <time>2020-10-19T11:47:00Z</time>
      </trkpt>
      <trkpt lat="42.8685430" lon="-7.7980390">
        <ele>648.1</ele>
        <time>2020-10-19T11:47:01Z</time>
      </trkpt>
      <trkpt lat="42.8685530" lon="-7.7980500">
        <ele>648.1</ele>
        <time>2020-10-19T11:47:02Z</time>
      </trkpt>
      <trkpt lat="42.8685620" lon="-7.7980610">
        <ele>648.1</ele>
        <time>2020-10-19T11:47:03Z</time>
      </trkpt>
      <trkpt lat="42.8685700" lon="-7.7980720">
        <ele>648.0</ele>
        <time>2020-10-19T11:47:04Z</time>
      </trkpt>
      <trkpt lat="42.8685800" lon="-7.7980830">
        <ele>648.0</ele>
        <time>2020-10-19T11:47:05Z</time>
      </trkpt>
      <trkpt lat="42.8685890" lon="-7.7980930">
        <ele>648.0</ele>
        <time>2020-10-19T11:47:06Z</time>
      </trkpt>
      <trkpt lat="42.8685980" lon="-7.7981030">
        <ele>647.9</ele>
        <time>2020-10-19T11:47:07Z</time>
      </trkpt>
      <trkpt lat="42.8686050" lon="-7.7981130">
        <ele>647.9</ele>
        <time>2020-10-19T11:47:08Z</time>
      </trkpt>
      <trkpt lat="42.8686110" lon="-7.7981220">
        <ele>647.9</ele>
        <time>2020-10-19T11:47:09Z</time>
      </trkpt>
      <trkpt lat="42.8686180" lon="-7.7981310">
        <ele>647.8</ele>
        <time>2020-10-19T11:47:10Z</time>
      </trkpt>
      <trkpt lat="42.8686260" lon="-7.7981400">
        <ele>647.8</ele>
        <time>2020-10-19T11:47:11Z</time>
      </trkpt>
      <trkpt lat="42.8686340" lon="-7.7981520">
        <ele>647.7</ele>
        <time>2020-10-19T11:47:12Z</time>
      </trkpt>
      <trkpt lat="42.8686430" lon="-7.7981640">
        <ele>647.7</ele>
        <time>2020-10-19T11:47:13Z</time>
      </trkpt>
      <trkpt lat="42.8686520" lon="-7.7981740">
        <ele>647.7</ele>
        <time>2020-10-19T11:47:14Z</time>
      </trkpt>
      <trkpt lat="42.8686620" lon="-7.7981850">
        <ele>647.6</ele>
        <time>2020-10-19T11:47:15Z</time>
      </trkpt>
      <trkpt lat="42.8686710" lon="-7.7981960">
        <ele>647.6</ele>
        <time>2020-10-19T11:47:16Z</time>
      </trkpt>
      <trkpt lat="42.8686810" lon="-7.7982070">
        <ele>647.5</ele>
        <time>2020-10-19T11:47:17Z</time>
      </trkpt>
      <trkpt lat="42.8686910" lon="-7.7982180">
        <ele>647.5</ele>
        <time>2020-10-19T11:47:18Z</time>
      </trkpt>
      <trkpt lat="42.8687010" lon="-7.7982290">
        <ele>647.4</ele>
        <time>2020-10-19T11:47:19Z</time>
      </trkpt>
      <trkpt lat="42.8687110" lon="-7.7982410">
        <ele>647.4</ele>
        <time>2020-10-19T11:47:20Z</time>
      </trkpt>
      <trkpt lat="42.8687200" lon="-7.7982520">
        <ele>647.3</ele>
        <time>2020-10-19T11:47:21Z</time>
      </trkpt>
      <trkpt lat="42.8687290" lon="-7.7982620">
        <ele>647.3</ele>
        <time>2020-10-19T11:47:22Z</time>
      </trkpt>
      <trkpt lat="42.8687380" lon="-7.7982720">
        <ele>647.2</ele>
        <time>2020-10-19T11:47:23Z</time>
      </trkpt>
      <trkpt lat="42.8687470" lon="-7.7982820">
        <ele>647.2</ele>
        <time>2020-10-19T11:47:24Z</time>
      </trkpt>
      <trkpt lat="42.8687560" lon="-7.7982920">
        <ele>647.1</ele>
        <time>2020-10-19T11:47:25Z</time>
      </trkpt>
      <trkpt lat="42.8687640" lon="-7.7983020">
        <ele>647.1</ele>
        <time>2020-10-19T11:47:26Z</time>
      </trkpt>
      <trkpt lat="42.8687730" lon="-7.7983120">
        <ele>647.0</ele>
        <time>2020-10-19T11:47:27Z</time>
      </trkpt>
      <trkpt lat="42.8687810" lon="-7.7983210">
        <ele>647.0</ele>
        <time>2020-10-19T11:47:28Z</time>
      </trkpt>
      <trkpt lat="42.8687900" lon="-7.7983300">
        <ele>647.0</ele>
        <time>2020-10-19T11:47:29Z</time>
      </trkpt>
      <trkpt lat="42.8687990" lon="-7.7983420">
        <ele>646.9</ele>
        <time>2020-10-19T11:47:30Z</time>
      </trkpt>
      <trkpt lat="42.8688090" lon="-7.7983540">
        <ele>646.8</ele>
        <time>2020-10-19T11:47:31Z</time>
      </trkpt>
      <trkpt lat="42.8688170" lon="-7.7983660">
        <ele>646.8</ele>
        <time>2020-10-19T11:47:32Z</time>
      </trkpt>
      <trkpt lat="42.8688250" lon="-7.7983760">
        <ele>646.8</ele>
        <time>2020-10-19T11:47:33Z</time>
      </trkpt>
      <trkpt lat="42.8688330" lon="-7.7983850">
        <ele>646.7</ele>
        <time>2020-10-19T11:47:34Z</time>
      </trkpt>
      <trkpt lat="42.8688420" lon="-7.7983950">
        <ele>646.7</ele>
        <time>2020-10-19T11:47:35Z</time>
      </trkpt>
      <trkpt lat="42.8688520" lon="-7.7984050">
        <ele>646.6</ele>
        <time>2020-10-19T11:47:36Z</time>
      </trkpt>
      <trkpt lat="42.8688620" lon="-7.7984150">
        <ele>646.5</ele>
        <time>2020-10-19T11:47:37Z</time>
      </trkpt>
      <trkpt lat="42.8688710" lon="-7.7984260">
        <ele>646.5</ele>
        <time>2020-10-19T11:47:38Z</time>
      </trkpt>
      <trkpt lat="42.8688800" lon="-7.7984390">
        <ele>646.4</ele>
        <time>2020-10-19T11:47:39Z</time>
      </trkpt>
      <trkpt lat="42.8688890" lon="-7.7984510">
        <ele>646.4</ele>
        <time>2020-10-19T11:47:40Z</time>
      </trkpt>
      <trkpt lat="42.8688980" lon="-7.7984630">
        <ele>646.3</ele>
        <time>2020-10-19T11:47:41Z</time>
      </trkpt>
      <trkpt lat="42.8689080" lon="-7.7984740">
        <ele>646.3</ele>
        <time>2020-10-19T11:47:42Z</time>
      </trkpt>
      <trkpt lat="42.8689180" lon="-7.7984850">
        <ele>646.2</ele>
        <time>2020-10-19T11:47:43Z</time>
      </trkpt>
      <trkpt lat="42.8689290" lon="-7.7984940">
        <ele>646.2</ele>
        <time>2020-10-19T11:47:44Z</time>
      </trkpt>
      <trkpt lat="42.8689390" lon="-7.7985040">
        <ele>646.1</ele>
        <time>2020-10-19T11:47:45Z</time>
      </trkpt>
      <trkpt lat="42.8689490" lon="-7.7985130">
        <ele>646.1</ele>
        <time>2020-10-19T11:47:46Z</time>
      </trkpt>
      <trkpt lat="42.8689570" lon="-7.7985250">
        <ele>646.0</ele>
        <time>2020-10-19T11:47:47Z</time>
      </trkpt>
      <trkpt lat="42.8689650" lon="-7.7985360">
        <ele>646.0</ele>
        <time>2020-10-19T11:47:48Z</time>
      </trkpt>
      <trkpt lat="42.8689730" lon="-7.7985480">
        <ele>645.9</ele>
        <time>2020-10-19T11:47:49Z</time>
      </trkpt>
      <trkpt lat="42.8689820" lon="-7.7985590">
        <ele>645.8</ele>
        <time>2020-10-19T11:47:50Z</time>
      </trkpt>
      <trkpt lat="42.8689920" lon="-7.7985690">
        <ele>645.8</ele>
        <time>2020-10-19T11:47:51Z</time>
      </trkpt>
      <trkpt lat="42.8690020" lon="-7.7985790">
        <ele>645.7</ele>
        <time>2020-10-19T11:47:52Z</time>
      </trkpt>
      <trkpt lat="42.8690110" lon="-7.7985890">
        <ele>645.7</ele>
        <time>2020-10-19T11:47:53Z</time>
      </trkpt>
      <trkpt lat="42.8690210" lon="-7.7986000">
        <ele>645.6</ele>
        <time>2020-10-19T11:47:54Z</time>
      </trkpt>
      <trkpt lat="42.8690300" lon="-7.7986100">
        <ele>645.6</ele>
        <time>2020-10-19T11:47:55Z</time>
      </trkpt>
      <trkpt lat="42.8690390" lon="-7.7986210">
        <ele>645.5</ele>
        <time>2020-10-19T11:47:56Z</time>
      </trkpt>
      <trkpt lat="42.8690470" lon="-7.7986320">
        <ele>645.5</ele>
        <time>2020-10-19T11:47:57Z</time>
      </trkpt>
      <trkpt lat="42.8690560" lon="-7.7986430">
        <ele>645.4</ele>
        <time>2020-10-19T11:47:58Z</time>
      </trkpt>
      <trkpt lat="42.8690650" lon="-7.7986550">
        <ele>645.4</ele>
        <time>2020-10-19T11:47:59Z</time>
      </trkpt>
      <trkpt lat="42.8690740" lon="-7.7986660">
        <ele>645.3</ele>
        <time>2020-10-19T11:48:00Z</time>
      </trkpt>
      <trkpt lat="42.8690830" lon="-7.7986780">
        <ele>645.3</ele>
        <time>2020-10-19T11:48:01Z</time>
      </trkpt>
      <trkpt lat="42.8690900" lon="-7.7986890">
        <ele>645.2</ele>
        <time>2020-10-19T11:48:02Z</time>
      </trkpt>
      <trkpt lat="42.8690980" lon="-7.7987000">
        <ele>645.2</ele>
        <time>2020-10-19T11:48:03Z</time>
      </trkpt>
      <trkpt lat="42.8691060" lon="-7.7987100">
        <ele>645.2</ele>
        <time>2020-10-19T11:48:04Z</time>
      </trkpt>
      <trkpt lat="42.8691150" lon="-7.7987210">
        <ele>645.1</ele>
        <time>2020-10-19T11:48:05Z</time>
      </trkpt>
      <trkpt lat="42.8691230" lon="-7.7987320">
        <ele>645.1</ele>
        <time>2020-10-19T11:48:06Z</time>
      </trkpt>
      <trkpt lat="42.8691320" lon="-7.7987430">
        <ele>645.0</ele>
        <time>2020-10-19T11:48:07Z</time>
      </trkpt>
      <trkpt lat="42.8691410" lon="-7.7987540">
        <ele>645.0</ele>
        <time>2020-10-19T11:48:08Z</time>
      </trkpt>
      <trkpt lat="42.8691500" lon="-7.7987650">
        <ele>644.9</ele>
        <time>2020-10-19T11:48:09Z</time>
      </trkpt>
      <trkpt lat="42.8691590" lon="-7.7987760">
        <ele>644.9</ele>
        <time>2020-10-19T11:48:10Z</time>
      </trkpt>
      <trkpt lat="42.8691680" lon="-7.7987870">
        <ele>644.8</ele>
        <time>2020-10-19T11:48:11Z</time>
      </trkpt>
      <trkpt lat="42.8691780" lon="-7.7987970">
        <ele>644.8</ele>
        <time>2020-10-19T11:48:12Z</time>
      </trkpt>
      <trkpt lat="42.8691880" lon="-7.7988080">
        <ele>644.7</ele>
        <time>2020-10-19T11:48:13Z</time>
      </trkpt>
      <trkpt lat="42.8691980" lon="-7.7988190">
        <ele>644.7</ele>
        <time>2020-10-19T11:48:14Z</time>
      </trkpt>
      <trkpt lat="42.8692070" lon="-7.7988300">
        <ele>644.6</ele>
        <time>2020-10-19T11:48:15Z</time>
      </trkpt>
      <trkpt lat="42.8692160" lon="-7.7988410">
        <ele>644.6</ele>
        <time>2020-10-19T11:48:16Z</time>
      </trkpt>
      <trkpt lat="42.8692250" lon="-7.7988520">
        <ele>644.6</ele>
        <time>2020-10-19T11:48:17Z</time>
      </trkpt>
      <trkpt lat="42.8692340" lon="-7.7988630">
        <ele>644.5</ele>
        <time>2020-10-19T11:48:18Z</time>
      </trkpt>
      <trkpt lat="42.8692430" lon="-7.7988740">
        <ele>644.5</ele>
        <time>2020-10-19T11:48:19Z</time>
      </trkpt>
      <trkpt lat="42.8692510" lon="-7.7988850">
        <ele>644.4</ele>
        <time>2020-10-19T11:48:20Z</time>
      </trkpt>
      <trkpt lat="42.8692590" lon="-7.7988960">
        <ele>644.4</ele>
        <time>2020-10-19T11:48:21Z</time>
      </trkpt>
      <trkpt lat="42.8692680" lon="-7.7989070">
        <ele>644.4</ele>
        <time>2020-10-19T11:48:22Z</time>
      </trkpt>
      <trkpt lat="42.8692770" lon="-7.7989180">
        <ele>644.3</ele>
        <time>2020-10-19T11:48:23Z</time>
      </trkpt>
      <trkpt lat="42.8692860" lon="-7.7989290">
        <ele>644.3</ele>
        <time>2020-10-19T11:48:24Z</time>
      </trkpt>
      <trkpt lat="42.8692950" lon="-7.7989400">
        <ele>644.2</ele>
        <time>2020-10-19T11:48:25Z</time>
      </trkpt>
      <trkpt lat="42.8693040" lon="-7.7989510">
        <ele>644.2</ele>
        <time>2020-10-19T11:48:26Z</time>
      </trkpt>
      <trkpt lat="42.8693120" lon="-7.7989620">
        <ele>644.2</ele>
        <time>2020-10-19T11:48:27Z</time>
      </trkpt>
      <trkpt lat="42.8693210" lon="-7.7989730">
        <ele>644.1</ele>
        <time>2020-10-19T11:48:28Z</time>
      </trkpt>
      <trkpt lat="42.8693300" lon="-7.7989840">
        <ele>644.1</ele>
        <time>2020-10-19T11:48:29Z</time>
      </trkpt>
      <trkpt lat="42.8693390" lon="-7.7989950">
        <ele>644.0</ele>
        <time>2020-10-19T11:48:30Z</time>
      </trkpt>
      <trkpt lat="42.8693490" lon="-7.7990060">
        <ele>644.0</ele>
        <time>2020-10-19T11:48:31Z</time>
      </trkpt>
      <trkpt lat="42.8693570" lon="-7.7990180">
        <ele>644.0</ele>
        <time>2020-10-19T11:48:32Z</time>
      </trkpt>
      <trkpt lat="42.8693660" lon="-7.7990280">
        <ele>643.9</ele>
        <time>2020-10-19T11:48:33Z</time>
      </trkpt>
      <trkpt lat="42.8693750" lon="-7.7990390">
        <ele>643.9</ele>
        <time>2020-10-19T11:48:34Z</time>
      </trkpt>
      <trkpt lat="42.8693830" lon="-7.7990500">
        <ele>643.8</ele>
        <time>2020-10-19T11:48:35Z</time>
      </trkpt>
      <trkpt lat="42.8693920" lon="-7.7990610">
        <ele>643.8</ele>
        <time>2020-10-19T11:48:36Z</time>
      </trkpt>
      <trkpt lat="42.8694000" lon="-7.7990730">
        <ele>643.8</ele>
        <time>2020-10-19T11:48:37Z</time>
      </trkpt>
      <trkpt lat="42.8694090" lon="-7.7990840">
        <ele>643.7</ele>
        <time>2020-10-19T11:48:38Z</time>
      </trkpt>
      <trkpt lat="42.8694190" lon="-7.7990950">
        <ele>643.7</ele>
        <time>2020-10-19T11:48:39Z</time>
      </trkpt>
      <trkpt lat="42.8694290" lon="-7.7991060">
        <ele>643.6</ele>
        <time>2020-10-19T11:48:40Z</time>
      </trkpt>
      <trkpt lat="42.8694380" lon="-7.7991170">
        <ele>643.6</ele>
        <time>2020-10-19T11:48:41Z</time>
      </trkpt>
      <trkpt lat="42.8694470" lon="-7.7991270">
        <ele>643.6</ele>
        <time>2020-10-19T11:48:42Z</time>
      </trkpt>
      <trkpt lat="42.8694570" lon="-7.7991370">
        <ele>643.5</ele>
        <time>2020-10-19T11:48:43Z</time>
      </trkpt>
      <trkpt lat="42.8694660" lon="-7.7991480">
        <ele>643.5</ele>
        <time>2020-10-19T11:48:44Z</time>
      </trkpt>
      <trkpt lat="42.8694750" lon="-7.7991590">
        <ele>643.4</ele>
        <time>2020-10-19T11:48:45Z</time>
      </trkpt>
      <trkpt lat="42.8694840" lon="-7.7991690">
        <ele>643.4</ele>
        <time>2020-10-19T11:48:46Z</time>
      </trkpt>
      <trkpt lat="42.8694920" lon="-7.7991810">
        <ele>643.4</ele>
        <time>2020-10-19T11:48:47Z</time>
      </trkpt>
      <trkpt lat="42.8695000" lon="-7.7991930">
        <ele>643.3</ele>
        <time>2020-10-19T11:48:48Z</time>
      </trkpt>
      <trkpt lat="42.8695070" lon="-7.7992060">
        <ele>643.3</ele>
        <time>2020-10-19T11:48:49Z</time>
      </trkpt>
      <trkpt lat="42.8695150" lon="-7.7992180">
        <ele>643.3</ele>
        <time>2020-10-19T11:48:50Z</time>
      </trkpt>
      <trkpt lat="42.8695230" lon="-7.7992300">
        <ele>643.2</ele>
        <time>2020-10-19T11:48:51Z</time>
      </trkpt>
      <trkpt lat="42.8695310" lon="-7.7992410">
        <ele>643.2</ele>
        <time>2020-10-19T11:48:52Z</time>
      </trkpt>
      <trkpt lat="42.8695400" lon="-7.7992520">
        <ele>643.1</ele>
        <time>2020-10-19T11:48:53Z</time>
      </trkpt>
      <trkpt lat="42.8695490" lon="-7.7992630">
        <ele>643.1</ele>
        <time>2020-10-19T11:48:54Z</time>
      </trkpt>
      <trkpt lat="42.8695570" lon="-7.7992740">
        <ele>643.1</ele>
        <time>2020-10-19T11:48:55Z</time>
      </trkpt>
      <trkpt lat="42.8695660" lon="-7.7992850">
        <ele>643.0</ele>
        <time>2020-10-19T11:48:56Z</time>
      </trkpt>
      <trkpt lat="42.8695740" lon="-7.7992960">
        <ele>643.0</ele>
        <time>2020-10-19T11:48:57Z</time>
      </trkpt>
      <trkpt lat="42.8695830" lon="-7.7993070">
        <ele>642.9</ele>
        <time>2020-10-19T11:48:58Z</time>
      </trkpt>
      <trkpt lat="42.8695920" lon="-7.7993180">
        <ele>642.9</ele>
        <time>2020-10-19T11:48:59Z</time>
      </trkpt>
      <trkpt lat="42.8696010" lon="-7.7993280">
        <ele>642.9</ele>
        <time>2020-10-19T11:49:00Z</time>
      </trkpt>
      <trkpt lat="42.8696090" lon="-7.7993380">
        <ele>642.8</ele>
        <time>2020-10-19T11:49:01Z</time>
      </trkpt>
      <trkpt lat="42.8696180" lon="-7.7993480">
        <ele>642.8</ele>
        <time>2020-10-19T11:49:02Z</time>
      </trkpt>
      <trkpt lat="42.8696260" lon="-7.7993580">
        <ele>642.8</ele>
        <time>2020-10-19T11:49:03Z</time>
      </trkpt>
      <trkpt lat="42.8696340" lon="-7.7993690">
        <ele>642.7</ele>
        <time>2020-10-19T11:49:04Z</time>
      </trkpt>
      <trkpt lat="42.8696430" lon="-7.7993800">
        <ele>642.7</ele>
        <time>2020-10-19T11:49:05Z</time>
      </trkpt>
      <trkpt lat="42.8696520" lon="-7.7993910">
        <ele>642.6</ele>
        <time>2020-10-19T11:49:06Z</time>
      </trkpt>
      <trkpt lat="42.8696600" lon="-7.7994010">
        <ele>642.6</ele>
        <time>2020-10-19T11:49:07Z</time>
      </trkpt>
      <trkpt lat="42.8696690" lon="-7.7994100">
        <ele>642.6</ele>
        <time>2020-10-19T11:49:08Z</time>
      </trkpt>
      <trkpt lat="42.8696780" lon="-7.7994210">
        <ele>642.5</ele>
        <time>2020-10-19T11:49:09Z</time>
      </trkpt>
      <trkpt lat="42.8696860" lon="-7.7994320">
        <ele>642.5</ele>
        <time>2020-10-19T11:49:10Z</time>
      </trkpt>
      <trkpt lat="42.8696940" lon="-7.7994430">
        <ele>642.4</ele>
        <time>2020-10-19T11:49:11Z</time>
      </trkpt>
      <trkpt lat="42.8697020" lon="-7.7994550">
        <ele>642.4</ele>
        <time>2020-10-19T11:49:12Z</time>
      </trkpt>
      <trkpt lat="42.8697110" lon="-7.7994660">
        <ele>642.4</ele>
        <time>2020-10-19T11:49:13Z</time>
      </trkpt>
      <trkpt lat="42.8697200" lon="-7.7994760">
        <ele>642.3</ele>
        <time>2020-10-19T11:49:14Z</time>
      </trkpt>
      <trkpt lat="42.8697280" lon="-7.7994870">
        <ele>642.3</ele>
        <time>2020-10-19T11:49:15Z</time>
      </trkpt>
      <trkpt lat="42.8697370" lon="-7.7994990">
        <ele>642.3</ele>
        <time>2020-10-19T11:49:16Z</time>
      </trkpt>
      <trkpt lat="42.8697460" lon="-7.7995100">
        <ele>642.2</ele>
        <time>2020-10-19T11:49:17Z</time>
      </trkpt>
      <trkpt lat="42.8697550" lon="-7.7995220">
        <ele>642.2</ele>
        <time>2020-10-19T11:49:18Z</time>
      </trkpt>
      <trkpt lat="42.8697650" lon="-7.7995340">
        <ele>642.1</ele>
        <time>2020-10-19T11:49:19Z</time>
      </trkpt>
      <trkpt lat="42.8697740" lon="-7.7995460">
        <ele>642.1</ele>
        <time>2020-10-19T11:49:20Z</time>
      </trkpt>
      <trkpt lat="42.8697840" lon="-7.7995590">
        <ele>642.0</ele>
        <time>2020-10-19T11:49:21Z</time>
      </trkpt>
      <trkpt lat="42.8697930" lon="-7.7995700">
        <ele>642.0</ele>
        <time>2020-10-19T11:49:22Z</time>
      </trkpt>
      <trkpt lat="42.8698030" lon="-7.7995820">
        <ele>642.0</ele>
        <time>2020-10-19T11:49:23Z</time>
      </trkpt>
      <trkpt lat="42.8698120" lon="-7.7995930">
        <ele>641.9</ele>
        <time>2020-10-19T11:49:24Z</time>
      </trkpt>
      <trkpt lat="42.8698220" lon="-7.7996050">
        <ele>641.9</ele>
        <time>2020-10-19T11:49:25Z</time>
      </trkpt>
      <trkpt lat="42.8698310" lon="-7.7996170">
        <ele>641.8</ele>
        <time>2020-10-19T11:49:26Z</time>
      </trkpt>
      <trkpt lat="42.8698410" lon="-7.7996290">
        <ele>641.8</ele>
        <time>2020-10-19T11:49:27Z</time>
      </trkpt>
      <trkpt lat="42.8698490" lon="-7.7996410">
        <ele>641.7</ele>
        <time>2020-10-19T11:49:28Z</time>
      </trkpt>
      <trkpt lat="42.8698570" lon="-7.7996510">
        <ele>641.7</ele>
        <time>2020-10-19T11:49:29Z</time>
      </trkpt>
      <trkpt lat="42.8698650" lon="-7.7996600">
        <ele>641.7</ele>
        <time>2020-10-19T11:49:30Z</time>
      </trkpt>
      <trkpt lat="42.8698740" lon="-7.7996700">
        <ele>641.6</ele>
        <time>2020-10-19T11:49:31Z</time>
      </trkpt>
      <trkpt lat="42.8698820" lon="-7.7996820">
        <ele>641.6</ele>
        <time>2020-10-19T11:49:32Z</time>
      </trkpt>
      <trkpt lat="42.8698900" lon="-7.7996930">
        <ele>641.6</ele>
        <time>2020-10-19T11:49:33Z</time>
      </trkpt>
      <trkpt lat="42.8698980" lon="-7.7997040">
        <ele>641.5</ele>
        <time>2020-10-19T11:49:34Z</time>
      </trkpt>
      <trkpt lat="42.8699070" lon="-7.7997150">
        <ele>641.5</ele>
        <time>2020-10-19T11:49:35Z</time>
      </trkpt>
      <trkpt lat="42.8699160" lon="-7.7997260">
        <ele>641.5</ele>
        <time>2020-10-19T11:49:36Z</time>
      </trkpt>
      <trkpt lat="42.8699250" lon="-7.7997370">
        <ele>641.4</ele>
        <time>2020-10-19T11:49:37Z</time>
      </trkpt>
      <trkpt lat="42.8699350" lon="-7.7997480">
        <ele>641.4</ele>
        <time>2020-10-19T11:49:38Z</time>
      </trkpt>
      <trkpt lat="42.8699450" lon="-7.7997590">
        <ele>641.4</ele>
        <time>2020-10-19T11:49:39Z</time>
      </trkpt>
      <trkpt lat="42.8699540" lon="-7.7997700">
        <ele>641.3</ele>
        <time>2020-10-19T11:49:40Z</time>
      </trkpt>
      <trkpt lat="42.8699620" lon="-7.7997810">
        <ele>641.3</ele>
        <time>2020-10-19T11:49:41Z</time>
      </trkpt>
      <trkpt lat="42.8699700" lon="-7.7997930">
        <ele>641.3</ele>
        <time>2020-10-19T11:49:42Z</time>
      </trkpt>
      <trkpt lat="42.8699790" lon="-7.7998050">
        <ele>641.3</ele>
        <time>2020-10-19T11:49:43Z</time>
      </trkpt>
      <trkpt lat="42.8699880" lon="-7.7998160">
        <ele>641.2</ele>
        <time>2020-10-19T11:49:44Z</time>
      </trkpt>
      <trkpt lat="42.8699970" lon="-7.7998290">
        <ele>641.2</ele>
        <time>2020-10-19T11:49:45Z</time>
      </trkpt>
      <trkpt lat="42.8700060" lon="-7.7998420">
        <ele>641.1</ele>
        <time>2020-10-19T11:49:46Z</time>
      </trkpt>
      <trkpt lat="42.8700140" lon="-7.7998550">
        <ele>641.1</ele>
        <time>2020-10-19T11:49:47Z</time>
      </trkpt>
      <trkpt lat="42.8700220" lon="-7.7998680">
        <ele>641.1</ele>
        <time>2020-10-19T11:49:48Z</time>
      </trkpt>
      <trkpt lat="42.8700310" lon="-7.7998800">
        <ele>641.0</ele>
        <time>2020-10-19T11:49:49Z</time>
      </trkpt>
      <trkpt lat="42.8700410" lon="-7.7998910">
        <ele>641.0</ele>
        <time>2020-10-19T11:49:50Z</time>
      </trkpt>
      <trkpt lat="42.8700490" lon="-7.7999030">
        <ele>641.0</ele>
        <time>2020-10-19T11:49:51Z</time>
      </trkpt>
      <trkpt lat="42.8700580" lon="-7.7999140">
        <ele>640.9</ele>
        <time>2020-10-19T11:49:52Z</time>
      </trkpt>
      <trkpt lat="42.8700640" lon="-7.7999270">
        <ele>640.9</ele>
        <time>2020-10-19T11:49:53Z</time>
      </trkpt>
      <trkpt lat="42.8700710" lon="-7.7999390">
        <ele>640.9</ele>
        <time>2020-10-19T11:49:54Z</time>
      </trkpt>
      <trkpt lat="42.8700780" lon="-7.7999520">
        <ele>640.8</ele>
        <time>2020-10-19T11:49:55Z</time>
      </trkpt>
      <trkpt lat="42.8700850" lon="-7.7999650">
        <ele>640.8</ele>
        <time>2020-10-19T11:49:56Z</time>
      </trkpt>
      <trkpt lat="42.8700940" lon="-7.7999760">
        <ele>640.8</ele>
        <time>2020-10-19T11:49:57Z</time>
      </trkpt>
      <trkpt lat="42.8701020" lon="-7.7999870">
        <ele>640.7</ele>
        <time>2020-10-19T11:49:58Z</time>
      </trkpt>
      <trkpt lat="42.8701120" lon="-7.7999980">
        <ele>640.7</ele>
        <time>2020-10-19T11:49:59Z</time>
      </trkpt>
      <trkpt lat="42.8701210" lon="-7.8000100">
        <ele>640.6</ele>
        <time>2020-10-19T11:50:00Z</time>
      </trkpt>
      <trkpt lat="42.8701300" lon="-7.8000210">
        <ele>640.6</ele>
        <time>2020-10-19T11:50:01Z</time>
      </trkpt>
      <trkpt lat="42.8701380" lon="-7.8000330">
        <ele>640.6</ele>
        <time>2020-10-19T11:50:02Z</time>
      </trkpt>
      <trkpt lat="42.8701470" lon="-7.8000450">
        <ele>640.5</ele>
        <time>2020-10-19T11:50:03Z</time>
      </trkpt>
      <trkpt lat="42.8701550" lon="-7.8000570">
        <ele>640.5</ele>
        <time>2020-10-19T11:50:04Z</time>
      </trkpt>
      <trkpt lat="42.8701620" lon="-7.8000690">
        <ele>640.5</ele>
        <time>2020-10-19T11:50:05Z</time>
      </trkpt>
      <trkpt lat="42.8701700" lon="-7.8000810">
        <ele>640.4</ele>
        <time>2020-10-19T11:50:06Z</time>
      </trkpt>
      <trkpt lat="42.8701780" lon="-7.8000920">
        <ele>640.4</ele>
        <time>2020-10-19T11:50:07Z</time>
      </trkpt>
      <trkpt lat="42.8701870" lon="-7.8001020">
        <ele>640.4</ele>
        <time>2020-10-19T11:50:08Z</time>
      </trkpt>
      <trkpt lat="42.8701950" lon="-7.8001130">
        <ele>640.4</ele>
        <time>2020-10-19T11:50:09Z</time>
      </trkpt>
      <trkpt lat="42.8702040" lon="-7.8001250">
        <ele>640.3</ele>
        <time>2020-10-19T11:50:10Z</time>
      </trkpt>
      <trkpt lat="42.8702120" lon="-7.8001360">
        <ele>640.3</ele>
        <time>2020-10-19T11:50:11Z</time>
      </trkpt>
      <trkpt lat="42.8702210" lon="-7.8001470">
        <ele>640.3</ele>
        <time>2020-10-19T11:50:12Z</time>
      </trkpt>
      <trkpt lat="42.8702290" lon="-7.8001590">
        <ele>640.2</ele>
        <time>2020-10-19T11:50:13Z</time>
      </trkpt>
      <trkpt lat="42.8702360" lon="-7.8001710">
        <ele>640.2</ele>
        <time>2020-10-19T11:50:14Z</time>
      </trkpt>
      <trkpt lat="42.8702430" lon="-7.8001840">
        <ele>640.2</ele>
        <time>2020-10-19T11:50:15Z</time>
      </trkpt>
      <trkpt lat="42.8702530" lon="-7.8001960">
        <ele>640.1</ele>
        <time>2020-10-19T11:50:16Z</time>
      </trkpt>
      <trkpt lat="42.8702640" lon="-7.8002080">
        <ele>640.1</ele>
        <time>2020-10-19T11:50:17Z</time>
      </trkpt>
      <trkpt lat="42.8702780" lon="-7.8002170">
        <ele>640.0</ele>
        <time>2020-10-19T11:50:18Z</time>
      </trkpt>
      <trkpt lat="42.8702910" lon="-7.8002250">
        <ele>640.0</ele>
        <time>2020-10-19T11:50:19Z</time>
      </trkpt>
      <trkpt lat="42.8703040" lon="-7.8002330">
        <ele>640.0</ele>
        <time>2020-10-19T11:50:20Z</time>
      </trkpt>
      <trkpt lat="42.8703140" lon="-7.8002440">
        <ele>639.9</ele>
        <time>2020-10-19T11:50:21Z</time>
      </trkpt>
      <trkpt lat="42.8703240" lon="-7.8002550">
        <ele>639.9</ele>
        <time>2020-10-19T11:50:22Z</time>
      </trkpt>
      <trkpt lat="42.8703350" lon="-7.8002650">
        <ele>639.8</ele>
        <time>2020-10-19T11:50:23Z</time>
      </trkpt>
      <trkpt lat="42.8703440" lon="-7.8002760">
        <ele>639.8</ele>
        <time>2020-10-19T11:50:24Z</time>
      </trkpt>
      <trkpt lat="42.8703520" lon="-7.8002860">
        <ele>639.8</ele>
        <time>2020-10-19T11:50:25Z</time>
      </trkpt>
      <trkpt lat="42.8703610" lon="-7.8002970">
        <ele>639.7</ele>
        <time>2020-10-19T11:50:26Z</time>
      </trkpt>
      <trkpt lat="42.8703710" lon="-7.8003080">
        <ele>639.7</ele>
        <time>2020-10-19T11:50:27Z</time>
      </trkpt>
      <trkpt lat="42.8703810" lon="-7.8003190">
        <ele>639.6</ele>
        <time>2020-10-19T11:50:28Z</time>
      </trkpt>
      <trkpt lat="42.8703920" lon="-7.8003310">
        <ele>639.6</ele>
        <time>2020-10-19T11:50:29Z</time>
      </trkpt>
      <trkpt lat="42.8704020" lon="-7.8003430">
        <ele>639.5</ele>
        <time>2020-10-19T11:50:30Z</time>
      </trkpt>
      <trkpt lat="42.8704110" lon="-7.8003550">
        <ele>639.5</ele>
        <time>2020-10-19T11:50:31Z</time>
      </trkpt>
      <trkpt lat="42.8704200" lon="-7.8003660">
        <ele>639.5</ele>
        <time>2020-10-19T11:50:32Z</time>
      </trkpt>
      <trkpt lat="42.8704290" lon="-7.8003770">
        <ele>639.4</ele>
        <time>2020-10-19T11:50:33Z</time>
      </trkpt>
      <trkpt lat="42.8704370" lon="-7.8003880">
        <ele>639.4</ele>
        <time>2020-10-19T11:50:34Z</time>
      </trkpt>
      <trkpt lat="42.8704460" lon="-7.8003990">
        <ele>639.4</ele>
        <time>2020-10-19T11:50:35Z</time>
      </trkpt>
      <trkpt lat="42.8704550" lon="-7.8004090">
        <ele>639.3</ele>
        <time>2020-10-19T11:50:36Z</time>
      </trkpt>
      <trkpt lat="42.8704640" lon="-7.8004180">
        <ele>639.3</ele>
        <time>2020-10-19T11:50:37Z</time>
      </trkpt>
      <trkpt lat="42.8704740" lon="-7.8004280">
        <ele>639.2</ele>
        <time>2020-10-19T11:50:38Z</time>
      </trkpt>
      <trkpt lat="42.8704820" lon="-7.8004400">
        <ele>639.2</ele>
        <time>2020-10-19T11:50:39Z</time>
      </trkpt>
      <trkpt lat="42.8704910" lon="-7.8004520">
        <ele>639.2</ele>
        <time>2020-10-19T11:50:40Z</time>
      </trkpt>
      <trkpt lat="42.8705000" lon="-7.8004640">
        <ele>639.1</ele>
        <time>2020-10-19T11:50:41Z</time>
      </trkpt>
      <trkpt lat="42.8705100" lon="-7.8004740">
        <ele>639.1</ele>
        <time>2020-10-19T11:50:42Z</time>
      </trkpt>
      <trkpt lat="42.8705190" lon="-7.8004860">
        <ele>639.0</ele>
        <time>2020-10-19T11:50:43Z</time>
      </trkpt>
      <trkpt lat="42.8705270" lon="-7.8004980">
        <ele>639.0</ele>
        <time>2020-10-19T11:50:44Z</time>
      </trkpt>
      <trkpt lat="42.8705350" lon="-7.8005100">
        <ele>639.0</ele>
        <time>2020-10-19T11:50:45Z</time>
      </trkpt>
      <trkpt lat="42.8705420" lon="-7.8005210">
        <ele>638.9</ele>
        <time>2020-10-19T11:50:46Z</time>
      </trkpt>
      <trkpt lat="42.8705510" lon="-7.8005330">
        <ele>638.9</ele>
        <time>2020-10-19T11:50:47Z</time>
      </trkpt>
      <trkpt lat="42.8705600" lon="-7.8005440">
        <ele>638.9</ele>
        <time>2020-10-19T11:50:48Z</time>
      </trkpt>
      <trkpt lat="42.8705690" lon="-7.8005540">
        <ele>638.8</ele>
        <time>2020-10-19T11:50:49Z</time>
      </trkpt>
      <trkpt lat="42.8705780" lon="-7.8005650">
        <ele>638.8</ele>
        <time>2020-10-19T11:50:50Z</time>
      </trkpt>
      <trkpt lat="42.8705870" lon="-7.8005770">
        <ele>638.7</ele>
        <time>2020-10-19T11:50:51Z</time>
      </trkpt>
      <trkpt lat="42.8705960" lon="-7.8005880">
        <ele>638.7</ele>
        <time>2020-10-19T11:50:52Z</time>
      </trkpt>
      <trkpt lat="42.8706050" lon="-7.8006000">
        <ele>638.7</ele>
        <time>2020-10-19T11:50:53Z</time>
      </trkpt>
      <trkpt lat="42.8706150" lon="-7.8006120">
        <ele>638.6</ele>
        <time>2020-10-19T11:50:54Z</time>
      </trkpt>
      <trkpt lat="42.8706230" lon="-7.8006230">
        <ele>638.6</ele>
        <time>2020-10-19T11:50:55Z</time>
      </trkpt>
      <trkpt lat="42.8706330" lon="-7.8006350">
        <ele>638.5</ele>
        <time>2020-10-19T11:50:56Z</time>
      </trkpt>
      <trkpt lat="42.8706420" lon="-7.8006460">
        <ele>638.5</ele>
        <time>2020-10-19T11:50:57Z</time>
      </trkpt>
      <trkpt lat="42.8706520" lon="-7.8006580">
        <ele>638.4</ele>
        <time>2020-10-19T11:50:58Z</time>
      </trkpt>
      <trkpt lat="42.8706620" lon="-7.8006700">
        <ele>638.4</ele>
        <time>2020-10-19T11:50:59Z</time>
      </trkpt>
      <trkpt lat="42.8706720" lon="-7.8006830">
        <ele>638.3</ele>
        <time>2020-10-19T11:51:00Z</time>
      </trkpt>
      <trkpt lat="42.8706820" lon="-7.8006960">
        <ele>638.3</ele>
        <time>2020-10-19T11:51:01Z</time>
      </trkpt>
      <trkpt lat="42.8706910" lon="-7.8007080">
        <ele>638.2</ele>
        <time>2020-10-19T11:51:02Z</time>
      </trkpt>
      <trkpt lat="42.8707000" lon="-7.8007200">
        <ele>638.2</ele>
        <time>2020-10-19T11:51:03Z</time>
      </trkpt>
      <trkpt lat="42.8707080" lon="-7.8007300">
        <ele>638.2</ele>
        <time>2020-10-19T11:51:04Z</time>
      </trkpt>
      <trkpt lat="42.8707160" lon="-7.8007420">
        <ele>638.1</ele>
        <time>2020-10-19T11:51:05Z</time>
      </trkpt>
      <trkpt lat="42.8707240" lon="-7.8007530">
        <ele>638.1</ele>
        <time>2020-10-19T11:51:06Z</time>
      </trkpt>
      <trkpt lat="42.8707320" lon="-7.8007640">
        <ele>638.0</ele>
        <time>2020-10-19T11:51:07Z</time>
      </trkpt>
      <trkpt lat="42.8707410" lon="-7.8007740">
        <ele>638.0</ele>
        <time>2020-10-19T11:51:08Z</time>
      </trkpt>
      <trkpt lat="42.8707510" lon="-7.8007840">
        <ele>637.9</ele>
        <time>2020-10-19T11:51:09Z</time>
      </trkpt>
      <trkpt lat="42.8707610" lon="-7.8007950">
        <ele>637.9</ele>
        <time>2020-10-19T11:51:10Z</time>
      </trkpt>
      <trkpt lat="42.8707690" lon="-7.8008040">
        <ele>637.8</ele>
        <time>2020-10-19T11:51:11Z</time>
      </trkpt>
      <trkpt lat="42.8707760" lon="-7.8008130">
        <ele>637.8</ele>
        <time>2020-10-19T11:51:12Z</time>
      </trkpt>
      <trkpt lat="42.8707830" lon="-7.8008220">
        <ele>637.7</ele>
        <time>2020-10-19T11:51:13Z</time>
      </trkpt>
      <trkpt lat="42.8707910" lon="-7.8008330">
        <ele>637.7</ele>
        <time>2020-10-19T11:51:14Z</time>
      </trkpt>
      <trkpt lat="42.8708000" lon="-7.8008440">
        <ele>637.7</ele>
        <time>2020-10-19T11:51:15Z</time>
      </trkpt>
      <trkpt lat="42.8708100" lon="-7.8008540">
        <ele>637.6</ele>
        <time>2020-10-19T11:51:16Z</time>
      </trkpt>
      <trkpt lat="42.8708190" lon="-7.8008640">
        <ele>637.6</ele>
        <time>2020-10-19T11:51:17Z</time>
      </trkpt>
      <trkpt lat="42.8708280" lon="-7.8008750">
        <ele>637.5</ele>
        <time>2020-10-19T11:51:18Z</time>
      </trkpt>
      <trkpt lat="42.8708370" lon="-7.8008880">
        <ele>637.5</ele>
        <time>2020-10-19T11:51:19Z</time>
      </trkpt>
      <trkpt lat="42.8708450" lon="-7.8009010">
        <ele>637.4</ele>
        <time>2020-10-19T11:51:20Z</time>
      </trkpt>
      <trkpt lat="42.8708530" lon="-7.8009140">
        <ele>637.3</ele>
        <time>2020-10-19T11:51:21Z</time>
      </trkpt>
      <trkpt lat="42.8708610" lon="-7.8009250">
        <ele>637.3</ele>
        <time>2020-10-19T11:51:22Z</time>
      </trkpt>
      <trkpt lat="42.8708670" lon="-7.8009380">
        <ele>637.2</ele>
        <time>2020-10-19T11:51:23Z</time>
      </trkpt>
      <trkpt lat="42.8708740" lon="-7.8009510">
        <ele>637.2</ele>
        <time>2020-10-19T11:51:24Z</time>
      </trkpt>
      <trkpt lat="42.8708810" lon="-7.8009630">
        <ele>637.1</ele>
        <time>2020-10-19T11:51:25Z</time>
      </trkpt>
      <trkpt lat="42.8708880" lon="-7.8009750">
        <ele>637.1</ele>
        <time>2020-10-19T11:51:26Z</time>
      </trkpt>
      <trkpt lat="42.8708960" lon="-7.8009860">
        <ele>637.0</ele>
        <time>2020-10-19T11:51:27Z</time>
      </trkpt>
      <trkpt lat="42.8709040" lon="-7.8009970">
        <ele>637.0</ele>
        <time>2020-10-19T11:51:28Z</time>
      </trkpt>
      <trkpt lat="42.8709130" lon="-7.8010090">
        <ele>636.9</ele>
        <time>2020-10-19T11:51:29Z</time>
      </trkpt>
      <trkpt lat="42.8709210" lon="-7.8010210">
        <ele>636.9</ele>
        <time>2020-10-19T11:51:30Z</time>
      </trkpt>
      <trkpt lat="42.8709290" lon="-7.8010350">
        <ele>636.8</ele>
        <time>2020-10-19T11:51:31Z</time>
      </trkpt>
      <trkpt lat="42.8709380" lon="-7.8010470">
        <ele>636.8</ele>
        <time>2020-10-19T11:51:32Z</time>
      </trkpt>
      <trkpt lat="42.8709470" lon="-7.8010580">
        <ele>636.7</ele>
        <time>2020-10-19T11:51:33Z</time>
      </trkpt>
      <trkpt lat="42.8709560" lon="-7.8010680">
        <ele>636.7</ele>
        <time>2020-10-19T11:51:34Z</time>
      </trkpt>
      <trkpt lat="42.8709660" lon="-7.8010790">
        <ele>636.6</ele>
        <time>2020-10-19T11:51:35Z</time>
      </trkpt>
      <trkpt lat="42.8709760" lon="-7.8010900">
        <ele>636.5</ele>
        <time>2020-10-19T11:51:36Z</time>
      </trkpt>
      <trkpt lat="42.8709850" lon="-7.8011020">
        <ele>636.5</ele>
        <time>2020-10-19T11:51:37Z</time>
      </trkpt>
      <trkpt lat="42.8709930" lon="-7.8011130">
        <ele>636.4</ele>
        <time>2020-10-19T11:51:38Z</time>
      </trkpt>
      <trkpt lat="42.8710010" lon="-7.8011250">
        <ele>636.4</ele>
        <time>2020-10-19T11:51:39Z</time>
      </trkpt>
      <trkpt lat="42.8710090" lon="-7.8011370">
        <ele>636.3</ele>
        <time>2020-10-19T11:51:40Z</time>
      </trkpt>
      <trkpt lat="42.8710150" lon="-7.8011490">
        <ele>636.2</ele>
        <time>2020-10-19T11:51:41Z</time>
      </trkpt>
      <trkpt lat="42.8710220" lon="-7.8011610">
        <ele>636.2</ele>
        <time>2020-10-19T11:51:42Z</time>
      </trkpt>
      <trkpt lat="42.8710280" lon="-7.8011730">
        <ele>636.1</ele>
        <time>2020-10-19T11:51:43Z</time>
      </trkpt>
      <trkpt lat="42.8710350" lon="-7.8011850">
        <ele>636.0</ele>
        <time>2020-10-19T11:51:44Z</time>
      </trkpt>
      <trkpt lat="42.8710410" lon="-7.8011970">
        <ele>636.0</ele>
        <time>2020-10-19T11:51:45Z</time>
      </trkpt>
      <trkpt lat="42.8710480" lon="-7.8012100">
        <ele>635.9</ele>
        <time>2020-10-19T11:51:46Z</time>
      </trkpt>
      <trkpt lat="42.8710550" lon="-7.8012220">
        <ele>635.8</ele>
        <time>2020-10-19T11:51:47Z</time>
      </trkpt>
      <trkpt lat="42.8710620" lon="-7.8012350">
        <ele>635.8</ele>
        <time>2020-10-19T11:51:48Z</time>
      </trkpt>
      <trkpt lat="42.8710690" lon="-7.8012470">
        <ele>635.7</ele>
        <time>2020-10-19T11:51:49Z</time>
      </trkpt>
      <trkpt lat="42.8710750" lon="-7.8012580">
        <ele>635.6</ele>
        <time>2020-10-19T11:51:50Z</time>
      </trkpt>
      <trkpt lat="42.8710830" lon="-7.8012690">
        <ele>635.6</ele>
        <time>2020-10-19T11:51:51Z</time>
      </trkpt>
      <trkpt lat="42.8710910" lon="-7.8012800">
        <ele>635.5</ele>
        <time>2020-10-19T11:51:52Z</time>
      </trkpt>
      <trkpt lat="42.8711000" lon="-7.8012920">
        <ele>635.4</ele>
        <time>2020-10-19T11:51:53Z</time>
      </trkpt>
      <trkpt lat="42.8711080" lon="-7.8013040">
        <ele>635.3</ele>
        <time>2020-10-19T11:51:54Z</time>
      </trkpt>
      <trkpt lat="42.8711150" lon="-7.8013160">
        <ele>635.3</ele>
        <time>2020-10-19T11:51:55Z</time>
      </trkpt>
      <trkpt lat="42.8711230" lon="-7.8013290">
        <ele>635.2</ele>
        <time>2020-10-19T11:51:56Z</time>
      </trkpt>
      <trkpt lat="42.8711300" lon="-7.8013430">
        <ele>635.1</ele>
        <time>2020-10-19T11:51:57Z</time>
      </trkpt>
      <trkpt lat="42.8711370" lon="-7.8013560">
        <ele>635.0</ele>
        <time>2020-10-19T11:51:58Z</time>
      </trkpt>
      <trkpt lat="42.8711450" lon="-7.8013700">
        <ele>634.9</ele>
        <time>2020-10-19T11:51:59Z</time>
      </trkpt>
      <trkpt lat="42.8711520" lon="-7.8013840">
        <ele>634.9</ele>
        <time>2020-10-19T11:52:00Z</time>
      </trkpt>
      <trkpt lat="42.8711590" lon="-7.8013980">
        <ele>634.8</ele>
        <time>2020-10-19T11:52:01Z</time>
      </trkpt>
      <trkpt lat="42.8711640" lon="-7.8014120">
        <ele>634.7</ele>
        <time>2020-10-19T11:52:02Z</time>
      </trkpt>
      <trkpt lat="42.8711700" lon="-7.8014240">
        <ele>634.6</ele>
        <time>2020-10-19T11:52:03Z</time>
      </trkpt>
      <trkpt lat="42.8711760" lon="-7.8014360">
        <ele>634.5</ele>
        <time>2020-10-19T11:52:04Z</time>
      </trkpt>
      <trkpt lat="42.8711830" lon="-7.8014470">
        <ele>634.5</ele>
        <time>2020-10-19T11:52:05Z</time>
      </trkpt>
      <trkpt lat="42.8711900" lon="-7.8014570">
        <ele>634.4</ele>
        <time>2020-10-19T11:52:06Z</time>
      </trkpt>
      <trkpt lat="42.8711970" lon="-7.8014660">
        <ele>634.3</ele>
        <time>2020-10-19T11:52:07Z</time>
      </trkpt>
      <trkpt lat="42.8712040" lon="-7.8014750">
        <ele>634.2</ele>
        <time>2020-10-19T11:52:08Z</time>
      </trkpt>
      <trkpt lat="42.8712110" lon="-7.8014870">
        <ele>634.2</ele>
        <time>2020-10-19T11:52:09Z</time>
      </trkpt>
      <trkpt lat="42.8712170" lon="-7.8015000">
        <ele>634.1</ele>
        <time>2020-10-19T11:52:10Z</time>
      </trkpt>
      <trkpt lat="42.8712230" lon="-7.8015150">
        <ele>634.0</ele>
        <time>2020-10-19T11:52:11Z</time>
      </trkpt>
      <trkpt lat="42.8712290" lon="-7.8015300">
        <ele>633.9</ele>
        <time>2020-10-19T11:52:12Z</time>
      </trkpt>
      <trkpt lat="42.8712350" lon="-7.8015450">
        <ele>633.8</ele>
        <time>2020-10-19T11:52:13Z</time>
      </trkpt>
      <trkpt lat="42.8712420" lon="-7.8015600">
        <ele>633.7</ele>
        <time>2020-10-19T11:52:14Z</time>
      </trkpt>
      <trkpt lat="42.8712490" lon="-7.8015750">
        <ele>633.6</ele>
        <time>2020-10-19T11:52:15Z</time>
      </trkpt>
      <trkpt lat="42.8712560" lon="-7.8015900">
        <ele>633.4</ele>
        <time>2020-10-19T11:52:16Z</time>
      </trkpt>
      <trkpt lat="42.8712620" lon="-7.8016050">
        <ele>633.3</ele>
        <time>2020-10-19T11:52:17Z</time>
      </trkpt>
      <trkpt lat="42.8712680" lon="-7.8016190">
        <ele>633.2</ele>
        <time>2020-10-19T11:52:18Z</time>
      </trkpt>
      <trkpt lat="42.8712740" lon="-7.8016330">
        <ele>633.1</ele>
        <time>2020-10-19T11:52:19Z</time>
      </trkpt>
      <trkpt lat="42.8712790" lon="-7.8016480">
        <ele>633.0</ele>
        <time>2020-10-19T11:52:20Z</time>
      </trkpt>
      <trkpt lat="42.8712850" lon="-7.8016640">
        <ele>632.9</ele>
        <time>2020-10-19T11:52:21Z</time>
      </trkpt>
      <trkpt lat="42.8712910" lon="-7.8016790">
        <ele>632.8</ele>
        <time>2020-10-19T11:52:22Z</time>
      </trkpt>
      <trkpt lat="42.8712980" lon="-7.8016930">
        <ele>632.7</ele>
        <time>2020-10-19T11:52:23Z</time>
      </trkpt>
      <trkpt lat="42.8713040" lon="-7.8017070">
        <ele>632.6</ele>
        <time>2020-10-19T11:52:24Z</time>
      </trkpt>
      <trkpt lat="42.8713110" lon="-7.8017200">
        <ele>632.4</ele>
        <time>2020-10-19T11:52:25Z</time>
      </trkpt>
      <trkpt lat="42.8713170" lon="-7.8017340">
        <ele>632.3</ele>
        <time>2020-10-19T11:52:26Z</time>
      </trkpt>
      <trkpt lat="42.8713220" lon="-7.8017470">
        <ele>632.2</ele>
        <time>2020-10-19T11:52:27Z</time>
      </trkpt>
      <trkpt lat="42.8713280" lon="-7.8017600">
        <ele>632.1</ele>
        <time>2020-10-19T11:52:28Z</time>
      </trkpt>
      <trkpt lat="42.8713340" lon="-7.8017740">
        <ele>632.0</ele>
        <time>2020-10-19T11:52:29Z</time>
      </trkpt>
      <trkpt lat="42.8713400" lon="-7.8017880">
        <ele>631.9</ele>
        <time>2020-10-19T11:52:30Z</time>
      </trkpt>
      <trkpt lat="42.8713450" lon="-7.8018020">
        <ele>631.8</ele>
        <time>2020-10-19T11:52:31Z</time>
      </trkpt>
      <trkpt lat="42.8713510" lon="-7.8018160">
        <ele>631.6</ele>
        <time>2020-10-19T11:52:32Z</time>
      </trkpt>
      <trkpt lat="42.8713560" lon="-7.8018300">
        <ele>631.5</ele>
        <time>2020-10-19T11:52:33Z</time>
      </trkpt>
      <trkpt lat="42.8713620" lon="-7.8018440">
        <ele>631.4</ele>
        <time>2020-10-19T11:52:34Z</time>
      </trkpt>
      <trkpt lat="42.8713670" lon="-7.8018580">
        <ele>631.3</ele>
        <time>2020-10-19T11:52:35Z</time>
      </trkpt>
      <trkpt lat="42.8713720" lon="-7.8018710">
        <ele>631.1</ele>
        <time>2020-10-19T11:52:36Z</time>
      </trkpt>
      <trkpt lat="42.8713770" lon="-7.8018840">
        <ele>631.0</ele>
        <time>2020-10-19T11:52:37Z</time>
      </trkpt>
      <trkpt lat="42.8713810" lon="-7.8018980">
        <ele>630.9</ele>
        <time>2020-10-19T11:52:38Z</time>
      </trkpt>
      <trkpt lat="42.8713860" lon="-7.8019120">
        <ele>630.8</ele>
        <time>2020-10-19T11:52:39Z</time>
      </trkpt>
      <trkpt lat="42.8713920" lon="-7.8019260">
        <ele>630.6</ele>
        <time>2020-10-19T11:52:40Z</time>
      </trkpt>
      <trkpt lat="42.8713970" lon="-7.8019400">
        <ele>630.5</ele>
        <time>2020-10-19T11:52:41Z</time>
      </trkpt>
      <trkpt lat="42.8714010" lon="-7.8019530">
        <ele>630.4</ele>
        <time>2020-10-19T11:52:42Z</time>
      </trkpt>
      <trkpt lat="42.8714040" lon="-7.8019680">
        <ele>630.2</ele>
        <time>2020-10-19T11:52:43Z</time>
      </trkpt>
      <trkpt lat="42.8714070" lon="-7.8019820">
        <ele>630.1</ele>
        <time>2020-10-19T11:52:44Z</time>
      </trkpt>
      <trkpt lat="42.8714090" lon="-7.8019980">
        <ele>630.0</ele>
        <time>2020-10-19T11:52:45Z</time>
      </trkpt>
      <trkpt lat="42.8714100" lon="-7.8020130">
        <ele>629.8</ele>
        <time>2020-10-19T11:52:46Z</time>
      </trkpt>
      <trkpt lat="42.8714120" lon="-7.8020290">
        <ele>629.7</ele>
        <time>2020-10-19T11:52:47Z</time>
      </trkpt>
      <trkpt lat="42.8714150" lon="-7.8020420">
        <ele>629.6</ele>
        <time>2020-10-19T11:52:48Z</time>
      </trkpt>
      <trkpt lat="42.8714180" lon="-7.8020550">
        <ele>629.4</ele>
        <time>2020-10-19T11:52:49Z</time>
      </trkpt>
      <trkpt lat="42.8714230" lon="-7.8020660">
        <ele>629.3</ele>
        <time>2020-10-19T11:52:50Z</time>
      </trkpt>
      <trkpt lat="42.8714270" lon="-7.8020770">
        <ele>629.2</ele>
        <time>2020-10-19T11:52:51Z</time>
      </trkpt>
      <trkpt lat="42.8714320" lon="-7.8020890">
        <ele>629.1</ele>
        <time>2020-10-19T11:52:52Z</time>
      </trkpt>
      <trkpt lat="42.8714370" lon="-7.8020990">
        <ele>629.0</ele>
        <time>2020-10-19T11:52:53Z</time>
      </trkpt>
      <trkpt lat="42.8714390" lon="-7.8021070">
        <ele>628.9</ele>
        <time>2020-10-19T11:52:54Z</time>
      </trkpt>
      <trkpt lat="42.8714420" lon="-7.8021130">
        <ele>628.8</ele>
        <time>2020-10-19T11:52:55Z</time>
      </trkpt>
      <trkpt lat="42.8714440" lon="-7.8021180">
        <ele>628.8</ele>
        <time>2020-10-19T11:52:56Z</time>
      </trkpt>
      <trkpt lat="42.8714490" lon="-7.8021260">
        <ele>628.7</ele>
        <time>2020-10-19T11:52:57Z</time>
      </trkpt>
      <trkpt lat="42.8714530" lon="-7.8021330">
        <ele>628.6</ele>
        <time>2020-10-19T11:52:58Z</time>
      </trkpt>
      <trkpt lat="42.8714580" lon="-7.8021410">
        <ele>628.5</ele>
        <time>2020-10-19T11:52:59Z</time>
      </trkpt>
      <trkpt lat="42.8714620" lon="-7.8021480">
        <ele>628.4</ele>
        <time>2020-10-19T11:53:00Z</time>
      </trkpt>
      <trkpt lat="42.8714680" lon="-7.8021570">
        <ele>628.3</ele>
        <time>2020-10-19T11:53:01Z</time>
      </trkpt>
      <trkpt lat="42.8714720" lon="-7.8021710">
        <ele>628.2</ele>
        <time>2020-10-19T11:53:02Z</time>
      </trkpt>
      <trkpt lat="42.8714760" lon="-7.8021890">
        <ele>628.0</ele>
        <time>2020-10-19T11:53:03Z</time>
      </trkpt>
      <trkpt lat="42.8714800" lon="-7.8022080">
        <ele>627.9</ele>
        <time>2020-10-19T11:53:04Z</time>
      </trkpt>
      <trkpt lat="42.8714840" lon="-7.8022240">
        <ele>627.7</ele>
        <time>2020-10-19T11:53:05Z</time>
      </trkpt>
      <trkpt lat="42.8714890" lon="-7.8022390">
        <ele>627.6</ele>
        <time>2020-10-19T11:53:06Z</time>
      </trkpt>
      <trkpt lat="42.8714930" lon="-7.8022510">
        <ele>627.4</ele>
        <time>2020-10-19T11:53:07Z</time>
      </trkpt>
      <trkpt lat="42.8714980" lon="-7.8022630">
        <ele>627.3</ele>
        <time>2020-10-19T11:53:08Z</time>
      </trkpt>
      <trkpt lat="42.8715020" lon="-7.8022760">
        <ele>627.2</ele>
        <time>2020-10-19T11:53:09Z</time>
      </trkpt>
      <trkpt lat="42.8715050" lon="-7.8022890">
        <ele>627.1</ele>
        <time>2020-10-19T11:53:10Z</time>
      </trkpt>
      <trkpt lat="42.8715070" lon="-7.8023020">
        <ele>627.0</ele>
        <time>2020-10-19T11:53:11Z</time>
      </trkpt>
      <trkpt lat="42.8715100" lon="-7.8023130">
        <ele>626.9</ele>
        <time>2020-10-19T11:53:12Z</time>
      </trkpt>
      <trkpt lat="42.8715140" lon="-7.8023260">
        <ele>626.7</ele>
        <time>2020-10-19T11:53:13Z</time>
      </trkpt>
      <trkpt lat="42.8715180" lon="-7.8023390">
        <ele>626.6</ele>
        <time>2020-10-19T11:53:14Z</time>
      </trkpt>
      <trkpt lat="42.8715230" lon="-7.8023530">
        <ele>626.5</ele>
        <time>2020-10-19T11:53:15Z</time>
      </trkpt>
      <trkpt lat="42.8715270" lon="-7.8023670">
        <ele>626.3</ele>
        <time>2020-10-19T11:53:16Z</time>
      </trkpt>
      <trkpt lat="42.8715310" lon="-7.8023820">
        <ele>626.2</ele>
        <time>2020-10-19T11:53:17Z</time>
      </trkpt>
      <trkpt lat="42.8715330" lon="-7.8023980">
        <ele>626.0</ele>
        <time>2020-10-19T11:53:18Z</time>
      </trkpt>
      <trkpt lat="42.8715350" lon="-7.8024120">
        <ele>625.9</ele>
        <time>2020-10-19T11:53:19Z</time>
      </trkpt>
      <trkpt lat="42.8715360" lon="-7.8024220">
        <ele>625.8</ele>
        <time>2020-10-19T11:53:20Z</time>
      </trkpt>
      <trkpt lat="42.8715420" lon="-7.8024330">
        <ele>625.7</ele>
        <time>2020-10-19T11:53:21Z</time>
      </trkpt>
      <trkpt lat="42.8715500" lon="-7.8024480">
        <ele>625.5</ele>
        <time>2020-10-19T11:53:22Z</time>
      </trkpt>
      <trkpt lat="42.8715590" lon="-7.8024630">
        <ele>625.3</ele>
        <time>2020-10-19T11:53:23Z</time>
      </trkpt>
      <trkpt lat="42.8715660" lon="-7.8024780">
        <ele>625.2</ele>
        <time>2020-10-19T11:53:24Z</time>
      </trkpt>
      <trkpt lat="42.8715720" lon="-7.8024910">
        <ele>625.0</ele>
        <time>2020-10-19T11:53:25Z</time>
      </trkpt>
      <trkpt lat="42.8715790" lon="-7.8025060">
        <ele>624.8</ele>
        <time>2020-10-19T11:53:26Z</time>
      </trkpt>
      <trkpt lat="42.8715840" lon="-7.8025220">
        <ele>624.7</ele>
        <time>2020-10-19T11:53:27Z</time>
      </trkpt>
      <trkpt lat="42.8715880" lon="-7.8025360">
        <ele>624.5</ele>
        <time>2020-10-19T11:53:28Z</time>
      </trkpt>
      <trkpt lat="42.8715930" lon="-7.8025500">
        <ele>624.4</ele>
        <time>2020-10-19T11:53:29Z</time>
      </trkpt>
      <trkpt lat="42.8715980" lon="-7.8025640">
        <ele>624.3</ele>
        <time>2020-10-19T11:53:30Z</time>
      </trkpt>
      <trkpt lat="42.8716040" lon="-7.8025780">
        <ele>624.1</ele>
        <time>2020-10-19T11:53:31Z</time>
      </trkpt>
      <trkpt lat="42.8716100" lon="-7.8025910">
        <ele>624.0</ele>
        <time>2020-10-19T11:53:32Z</time>
      </trkpt>
      <trkpt lat="42.8716160" lon="-7.8026050">
        <ele>623.8</ele>
        <time>2020-10-19T11:53:33Z</time>
      </trkpt>
      <trkpt lat="42.8716210" lon="-7.8026180">
        <ele>623.7</ele>
        <time>2020-10-19T11:53:34Z</time>
      </trkpt>
      <trkpt lat="42.8716260" lon="-7.8026310">
        <ele>623.5</ele>
        <time>2020-10-19T11:53:35Z</time>
      </trkpt>
      <trkpt lat="42.8716310" lon="-7.8026430">
        <ele>623.4</ele>
        <time>2020-10-19T11:53:36Z</time>
      </trkpt>
      <trkpt lat="42.8716370" lon="-7.8026560">
        <ele>623.3</ele>
        <time>2020-10-19T11:53:37Z</time>
      </trkpt>
      <trkpt lat="42.8716420" lon="-7.8026690">
        <ele>623.1</ele>
        <time>2020-10-19T11:53:38Z</time>
      </trkpt>
      <trkpt lat="42.8716470" lon="-7.8026810">
        <ele>623.0</ele>
        <time>2020-10-19T11:53:39Z</time>
      </trkpt>
      <trkpt lat="42.8716520" lon="-7.8026940">
        <ele>622.9</ele>
        <time>2020-10-19T11:53:40Z</time>
      </trkpt>
      <trkpt lat="42.8716560" lon="-7.8027070">
        <ele>622.7</ele>
        <time>2020-10-19T11:53:41Z</time>
      </trkpt>
      <trkpt lat="42.8716600" lon="-7.8027190">
        <ele>622.6</ele>
        <time>2020-10-19T11:53:42Z</time>
      </trkpt>
      <trkpt lat="42.8716630" lon="-7.8027310">
        <ele>622.5</ele>
        <time>2020-10-19T11:53:43Z</time>
      </trkpt>
      <trkpt lat="42.8716660" lon="-7.8027450">
        <ele>622.4</ele>
        <time>2020-10-19T11:53:44Z</time>
      </trkpt>
      <trkpt lat="42.8716680" lon="-7.8027600">
        <ele>622.2</ele>
        <time>2020-10-19T11:53:45Z</time>
      </trkpt>
      <trkpt lat="42.8716720" lon="-7.8027740">
        <ele>622.1</ele>
        <time>2020-10-19T11:53:46Z</time>
      </trkpt>
      <trkpt lat="42.8716770" lon="-7.8027880">
        <ele>621.9</ele>
        <time>2020-10-19T11:53:47Z</time>
      </trkpt>
      <trkpt lat="42.8716840" lon="-7.8028020">
        <ele>621.8</ele>
        <time>2020-10-19T11:53:48Z</time>
      </trkpt>
      <trkpt lat="42.8716910" lon="-7.8028160">
        <ele>621.6</ele>
        <time>2020-10-19T11:53:49Z</time>
      </trkpt>
      <trkpt lat="42.8716970" lon="-7.8028290">
        <ele>621.5</ele>
        <time>2020-10-19T11:53:50Z</time>
      </trkpt>
      <trkpt lat="42.8717020" lon="-7.8028420">
        <ele>621.3</ele>
        <time>2020-10-19T11:53:51Z</time>
      </trkpt>
      <trkpt lat="42.8717060" lon="-7.8028560">
        <ele>621.2</ele>
        <time>2020-10-19T11:53:52Z</time>
      </trkpt>
      <trkpt lat="42.8717110" lon="-7.8028700">
        <ele>621.0</ele>
        <time>2020-10-19T11:53:53Z</time>
      </trkpt>
      <trkpt lat="42.8717170" lon="-7.8028840">
        <ele>620.9</ele>
        <time>2020-10-19T11:53:54Z</time>
      </trkpt>
      <trkpt lat="42.8717210" lon="-7.8028960">
        <ele>620.8</ele>
        <time>2020-10-19T11:53:55Z</time>
      </trkpt>
      <trkpt lat="42.8717240" lon="-7.8029080">
        <ele>620.6</ele>
        <time>2020-10-19T11:53:56Z</time>
      </trkpt>
      <trkpt lat="42.8717290" lon="-7.8029200">
        <ele>620.5</ele>
        <time>2020-10-19T11:53:57Z</time>
      </trkpt>
      <trkpt lat="42.8717340" lon="-7.8029330">
        <ele>620.4</ele>
        <time>2020-10-19T11:53:58Z</time>
      </trkpt>
      <trkpt lat="42.8717400" lon="-7.8029450">
        <ele>620.2</ele>
        <time>2020-10-19T11:53:59Z</time>
      </trkpt>
      <trkpt lat="42.8717450" lon="-7.8029570">
        <ele>620.1</ele>
        <time>2020-10-19T11:54:00Z</time>
      </trkpt>
      <trkpt lat="42.8717500" lon="-7.8029680">
        <ele>620.0</ele>
        <time>2020-10-19T11:54:01Z</time>
      </trkpt>
      <trkpt lat="42.8717560" lon="-7.8029800">
        <ele>619.8</ele>
        <time>2020-10-19T11:54:02Z</time>
      </trkpt>
      <trkpt lat="42.8717620" lon="-7.8029930">
        <ele>619.7</ele>
        <time>2020-10-19T11:54:03Z</time>
      </trkpt>
      <trkpt lat="42.8717680" lon="-7.8030040">
        <ele>619.6</ele>
        <time>2020-10-19T11:54:04Z</time>
      </trkpt>
      <trkpt lat="42.8717740" lon="-7.8030160">
        <ele>619.4</ele>
        <time>2020-10-19T11:54:05Z</time>
      </trkpt>
      <trkpt lat="42.8717790" lon="-7.8030280">
        <ele>619.3</ele>
        <time>2020-10-19T11:54:06Z</time>
      </trkpt>
      <trkpt lat="42.8717850" lon="-7.8030430">
        <ele>619.1</ele>
        <time>2020-10-19T11:54:07Z</time>
      </trkpt>
      <trkpt lat="42.8717910" lon="-7.8030580">
        <ele>619.0</ele>
        <time>2020-10-19T11:54:08Z</time>
      </trkpt>
      <trkpt lat="42.8717970" lon="-7.8030730">
        <ele>618.8</ele>
        <time>2020-10-19T11:54:09Z</time>
      </trkpt>
      <trkpt lat="42.8718020" lon="-7.8030870">
        <ele>618.6</ele>
        <time>2020-10-19T11:54:10Z</time>
      </trkpt>
      <trkpt lat="42.8718080" lon="-7.8031010">
        <ele>618.5</ele>
        <time>2020-10-19T11:54:11Z</time>
      </trkpt>
      <trkpt lat="42.8718140" lon="-7.8031160">
        <ele>618.4</ele>
        <time>2020-10-19T11:54:12Z</time>
      </trkpt>
      <trkpt lat="42.8718200" lon="-7.8031310">
        <ele>618.2</ele>
        <time>2020-10-19T11:54:13Z</time>
      </trkpt>
      <trkpt lat="42.8718260" lon="-7.8031460">
        <ele>618.0</ele>
        <time>2020-10-19T11:54:14Z</time>
      </trkpt>
      <trkpt lat="42.8718320" lon="-7.8031630">
        <ele>617.9</ele>
        <time>2020-10-19T11:54:15Z</time>
      </trkpt>
      <trkpt lat="42.8718380" lon="-7.8031790">
        <ele>617.7</ele>
        <time>2020-10-19T11:54:16Z</time>
      </trkpt>
      <trkpt lat="42.8718450" lon="-7.8031960">
        <ele>617.5</ele>
        <time>2020-10-19T11:54:17Z</time>
      </trkpt>
      <trkpt lat="42.8718530" lon="-7.8032140">
        <ele>617.4</ele>
        <time>2020-10-19T11:54:18Z</time>
      </trkpt>
      <trkpt lat="42.8718600" lon="-7.8032310">
        <ele>617.2</ele>
        <time>2020-10-19T11:54:19Z</time>
      </trkpt>
      <trkpt lat="42.8718670" lon="-7.8032480">
        <ele>617.0</ele>
        <time>2020-10-19T11:54:20Z</time>
      </trkpt>
      <trkpt lat="42.8718730" lon="-7.8032660">
        <ele>616.8</ele>
        <time>2020-10-19T11:54:21Z</time>
      </trkpt>
      <trkpt lat="42.8718790" lon="-7.8032830">
        <ele>616.7</ele>
        <time>2020-10-19T11:54:22Z</time>
      </trkpt>
      <trkpt lat="42.8718850" lon="-7.8032990">
        <ele>616.5</ele>
        <time>2020-10-19T11:54:23Z</time>
      </trkpt>
      <trkpt lat="42.8718910" lon="-7.8033140">
        <ele>616.4</ele>
        <time>2020-10-19T11:54:24Z</time>
      </trkpt>
      <trkpt lat="42.8718980" lon="-7.8033300">
        <ele>616.2</ele>
        <time>2020-10-19T11:54:25Z</time>
      </trkpt>
      <trkpt lat="42.8719070" lon="-7.8033450">
        <ele>616.0</ele>
        <time>2020-10-19T11:54:26Z</time>
      </trkpt>
      <trkpt lat="42.8719170" lon="-7.8033610">
        <ele>615.8</ele>
        <time>2020-10-19T11:54:27Z</time>
      </trkpt>
      <trkpt lat="42.8719240" lon="-7.8033760">
        <ele>615.7</ele>
        <time>2020-10-19T11:54:28Z</time>
      </trkpt>
      <trkpt lat="42.8719300" lon="-7.8033900">
        <ele>615.5</ele>
        <time>2020-10-19T11:54:29Z</time>
      </trkpt>
      <trkpt lat="42.8719360" lon="-7.8034050">
        <ele>615.4</ele>
        <time>2020-10-19T11:54:30Z</time>
      </trkpt>
      <trkpt lat="42.8719410" lon="-7.8034200">
        <ele>615.2</ele>
        <time>2020-10-19T11:54:31Z</time>
      </trkpt>
      <trkpt lat="42.8719460" lon="-7.8034360">
        <ele>615.1</ele>
        <time>2020-10-19T11:54:32Z</time>
      </trkpt>
      <trkpt lat="42.8719520" lon="-7.8034520">
        <ele>614.9</ele>
        <time>2020-10-19T11:54:33Z</time>
      </trkpt>
      <trkpt lat="42.8719580" lon="-7.8034690">
        <ele>614.7</ele>
        <time>2020-10-19T11:54:34Z</time>
      </trkpt>
      <trkpt lat="42.8719640" lon="-7.8034840">
        <ele>614.6</ele>
        <time>2020-10-19T11:54:35Z</time>
      </trkpt>
      <trkpt lat="42.8719700" lon="-7.8035000">
        <ele>614.4</ele>
        <time>2020-10-19T11:54:36Z</time>
      </trkpt>
      <trkpt lat="42.8719760" lon="-7.8035150">
        <ele>614.3</ele>
        <time>2020-10-19T11:54:37Z</time>
      </trkpt>
      <trkpt lat="42.8719820" lon="-7.8035330">
        <ele>614.1</ele>
        <time>2020-10-19T11:54:38Z</time>
      </trkpt>
      <trkpt lat="42.8719870" lon="-7.8035530">
        <ele>613.9</ele>
        <time>2020-10-19T11:54:39Z</time>
      </trkpt>
      <trkpt lat="42.8719890" lon="-7.8035770">
        <ele>613.7</ele>
        <time>2020-10-19T11:54:40Z</time>
      </trkpt>
      <trkpt lat="42.8719880" lon="-7.8035990">
        <ele>613.5</ele>
        <time>2020-10-19T11:54:41Z</time>
      </trkpt>
      <trkpt lat="42.8719840" lon="-7.8036170">
        <ele>613.4</ele>
        <time>2020-10-19T11:54:42Z</time>
      </trkpt>
      <trkpt lat="42.8719810" lon="-7.8036310">
        <ele>613.3</ele>
        <time>2020-10-19T11:54:43Z</time>
      </trkpt>
      <trkpt lat="42.8719770" lon="-7.8036430">
        <ele>613.2</ele>
        <time>2020-10-19T11:54:44Z</time>
      </trkpt>
      <trkpt lat="42.8719720" lon="-7.8036540">
        <ele>613.1</ele>
        <time>2020-10-19T11:54:45Z</time>
      </trkpt>
      <trkpt lat="42.8719670" lon="-7.8036610">
        <ele>613.0</ele>
        <time>2020-10-19T11:54:46Z</time>
      </trkpt>
      <trkpt lat="42.8719660" lon="-7.8036630">
        <ele>613.0</ele>
        <time>2020-10-19T11:54:47Z</time>
      </trkpt>
      <trkpt lat="42.8719660" lon="-7.8036630">
        <ele>613.0</ele>
        <time>2020-10-19T11:54:48Z</time>
      </trkpt>
      <trkpt lat="42.8719680" lon="-7.8036650">
        <ele>612.9</ele>
        <time>2020-10-19T11:54:49Z</time>
      </trkpt>
      <trkpt lat="42.8719700" lon="-7.8036670">
        <ele>612.9</ele>
        <time>2020-10-19T11:54:50Z</time>
      </trkpt>
      <trkpt lat="42.8719710" lon="-7.8036700">
        <ele>612.9</ele>
        <time>2020-10-19T11:54:51Z</time>
      </trkpt>
      <trkpt lat="42.8719710" lon="-7.8036720">
        <ele>612.9</ele>
        <time>2020-10-19T11:54:52Z</time>
      </trkpt>
      <trkpt lat="42.8719710" lon="-7.8036750">
        <ele>612.9</ele>
        <time>2020-10-19T11:54:53Z</time>
      </trkpt>
      <trkpt lat="42.8719700" lon="-7.8036770">
        <ele>612.8</ele>
        <time>2020-10-19T11:54:54Z</time>
      </trkpt>
      <trkpt lat="42.8719690" lon="-7.8036780">
        <ele>612.8</ele>
        <time>2020-10-19T11:54:55Z</time>
      </trkpt>
      <trkpt lat="42.8719690" lon="-7.8036800">
        <ele>612.8</ele>
        <time>2020-10-19T11:54:56Z</time>
      </trkpt>
      <trkpt lat="42.8719680" lon="-7.8036830">
        <ele>612.8</ele>
        <time>2020-10-19T11:54:57Z</time>
      </trkpt>
      <trkpt lat="42.8719660" lon="-7.8036850">
        <ele>612.8</ele>
        <time>2020-10-19T11:54:58Z</time>
      </trkpt>
      <trkpt lat="42.8719650" lon="-7.8036880">
        <ele>612.7</ele>
        <time>2020-10-19T11:54:59Z</time>
      </trkpt>
      <trkpt lat="42.8719640" lon="-7.8036900">
        <ele>612.7</ele>
        <time>2020-10-19T11:55:00Z</time>
      </trkpt>
      <trkpt lat="42.8719630" lon="-7.8036910">
        <ele>612.7</ele>
        <time>2020-10-19T11:55:01Z</time>
      </trkpt>
      <trkpt lat="42.8719630" lon="-7.8036930">
        <ele>612.7</ele>
        <time>2020-10-19T11:55:02Z</time>
      </trkpt>
      <trkpt lat="42.8719630" lon="-7.8036930">
        <ele>612.7</ele>
        <time>2020-10-19T11:55:03Z</time>
      </trkpt>
      <trkpt lat="42.8719630" lon="-7.8036930">
        <ele>612.7</ele>
        <time>2020-10-19T11:55:04Z</time>
      </trkpt>
      <trkpt lat="42.8719610" lon="-7.8036920">
        <ele>612.7</ele>
        <time>2020-10-19T11:55:05Z</time>
      </trkpt>
      <trkpt lat="42.8719590" lon="-7.8036900">
        <ele>612.6</ele>
        <time>2020-10-19T11:55:06Z</time>
      </trkpt>
      <trkpt lat="42.8719560" lon="-7.8036900">
        <ele>612.6</ele>
        <time>2020-10-19T11:55:07Z</time>
      </trkpt>
      <trkpt lat="42.8719540" lon="-7.8036890">
        <ele>612.6</ele>
        <time>2020-10-19T11:55:08Z</time>
      </trkpt>
      <trkpt lat="42.8719510" lon="-7.8036890">
        <ele>612.6</ele>
        <time>2020-10-19T11:55:09Z</time>
      </trkpt>
      <trkpt lat="42.8719490" lon="-7.8036890">
        <ele>612.5</ele>
        <time>2020-10-19T11:55:10Z</time>
      </trkpt>
      <trkpt lat="42.8719460" lon="-7.8036880">
        <ele>612.5</ele>
        <time>2020-10-19T11:55:11Z</time>
      </trkpt>
      <trkpt lat="42.8719430" lon="-7.8036860">
        <ele>612.5</ele>
        <time>2020-10-19T11:55:12Z</time>
      </trkpt>
      <trkpt lat="42.8719400" lon="-7.8036840">
        <ele>612.4</ele>
        <time>2020-10-19T11:55:13Z</time>
      </trkpt>
      <trkpt lat="42.8719380" lon="-7.8036820">
        <ele>612.4</ele>
        <time>2020-10-19T11:55:14Z</time>
      </trkpt>
      <trkpt lat="42.8719350" lon="-7.8036810">
        <ele>612.4</ele>
        <time>2020-10-19T11:55:15Z</time>
      </trkpt>
      <trkpt lat="42.8719320" lon="-7.8036790">
        <ele>612.4</ele>
        <time>2020-10-19T11:55:16Z</time>
      </trkpt>
      <trkpt lat="42.8719290" lon="-7.8036770">
        <ele>612.3</ele>
        <time>2020-10-19T11:55:17Z</time>
      </trkpt>
      <trkpt lat="42.8719260" lon="-7.8036760">
        <ele>612.3</ele>
        <time>2020-10-19T11:55:18Z</time>
      </trkpt>
      <trkpt lat="42.8719250" lon="-7.8036760">
        <ele>612.3</ele>
        <time>2020-10-19T11:55:19Z</time>
      </trkpt>
      <trkpt lat="42.8719240" lon="-7.8036760">
        <ele>612.3</ele>
        <time>2020-10-19T11:55:20Z</time>
      </trkpt>
      <trkpt lat="42.8719240" lon="-7.8036770">
        <ele>612.3</ele>
        <time>2020-10-19T11:55:21Z</time>
      </trkpt>
      <trkpt lat="42.8719220" lon="-7.8036770">
        <ele>612.2</ele>
        <time>2020-10-19T11:55:22Z</time>
      </trkpt>
      <trkpt lat="42.8719200" lon="-7.8036760">
        <ele>612.2</ele>
        <time>2020-10-19T11:55:23Z</time>
      </trkpt>
      <trkpt lat="42.8719180" lon="-7.8036740">
        <ele>612.2</ele>
        <time>2020-10-19T11:55:24Z</time>
      </trkpt>
      <trkpt lat="42.8719170" lon="-7.8036740">
        <ele>612.2</ele>
        <time>2020-10-19T11:55:25Z</time>
      </trkpt>
      <trkpt lat="42.8719170" lon="-7.8036750">
        <ele>612.2</ele>
        <time>2020-10-19T11:55:26Z</time>
      </trkpt>
      <trkpt lat="42.8719170" lon="-7.8036770">
        <ele>612.2</ele>
        <time>2020-10-19T11:55:27Z</time>
      </trkpt>
      <trkpt lat="42.8719180" lon="-7.8036770">
        <ele>612.2</ele>
        <time>2020-10-19T11:55:28Z</time>
      </trkpt>
      <trkpt lat="42.8719180" lon="-7.8036780">
        <ele>612.2</ele>
        <time>2020-10-19T11:55:29Z</time>
      </trkpt>
      <trkpt lat="42.8719180" lon="-7.8036790">
        <ele>612.1</ele>
        <time>2020-10-19T11:55:30Z</time>
      </trkpt>
      <trkpt lat="42.8719170" lon="-7.8036810">
        <ele>612.1</ele>
        <time>2020-10-19T11:55:31Z</time>
      </trkpt>
      <trkpt lat="42.8719160" lon="-7.8036830">
        <ele>612.1</ele>
        <time>2020-10-19T11:55:32Z</time>
      </trkpt>
      <trkpt lat="42.8719140" lon="-7.8036840">
        <ele>612.1</ele>
        <time>2020-10-19T11:55:33Z</time>
      </trkpt>
      <trkpt lat="42.8719130" lon="-7.8036860">
        <ele>612.1</ele>
        <time>2020-10-19T11:55:34Z</time>
      </trkpt>
      <trkpt lat="42.8719120" lon="-7.8036870">
        <ele>612.1</ele>
        <time>2020-10-19T11:55:35Z</time>
      </trkpt>
      <trkpt lat="42.8719110" lon="-7.8036890">
        <ele>612.0</ele>
        <time>2020-10-19T11:55:36Z</time>
      </trkpt>
      <trkpt lat="42.8719090" lon="-7.8036900">
        <ele>612.0</ele>
        <time>2020-10-19T11:55:37Z</time>
      </trkpt>
      <trkpt lat="42.8719070" lon="-7.8036900">
        <ele>612.0</ele>
        <time>2020-10-19T11:55:38Z</time>
      </trkpt>
      <trkpt lat="42.8719080" lon="-7.8036850">
        <ele>612.0</ele>
        <time>2020-10-19T11:55:39Z</time>
      </trkpt>
      <trkpt lat="42.8719090" lon="-7.8036760">
        <ele>611.9</ele>
        <time>2020-10-19T11:55:40Z</time>
      </trkpt>
      <trkpt lat="42.8719140" lon="-7.8036630">
        <ele>611.8</ele>
        <time>2020-10-19T11:55:41Z</time>
      </trkpt>
      <trkpt lat="42.8719180" lon="-7.8036520">
        <ele>611.7</ele>
        <time>2020-10-19T11:55:42Z</time>
      </trkpt>
      <trkpt lat="42.8719240" lon="-7.8036430">
        <ele>611.6</ele>
        <time>2020-10-19T11:55:43Z</time>
      </trkpt>
      <trkpt lat="42.8719280" lon="-7.8036330">
        <ele>611.5</ele>
        <time>2020-10-19T11:55:44Z</time>
      </trkpt>
      <trkpt lat="42.8719330" lon="-7.8036230">
        <ele>611.5</ele>
        <time>2020-10-19T11:55:45Z</time>
      </trkpt>
      <trkpt lat="42.8719390" lon="-7.8036160">
        <ele>611.4</ele>
        <time>2020-10-19T11:55:46Z</time>
      </trkpt>
      <trkpt lat="42.8719460" lon="-7.8036140">
        <ele>611.3</ele>
        <time>2020-10-19T11:55:47Z</time>
      </trkpt>
      <trkpt lat="42.8719510" lon="-7.8036150">
        <ele>611.3</ele>
        <time>2020-10-19T11:55:48Z</time>
      </trkpt>
      <trkpt lat="42.8719600" lon="-7.8036200">
        <ele>611.2</ele>
        <time>2020-10-19T11:55:49Z</time>
      </trkpt>
      <trkpt lat="42.8719690" lon="-7.8036270">
        <ele>611.1</ele>
        <time>2020-10-19T11:55:50Z</time>
      </trkpt>
      <trkpt lat="42.8719810" lon="-7.8036370">
        <ele>610.9</ele>
        <time>2020-10-19T11:55:51Z</time>
      </trkpt>
      <trkpt lat="42.8719920" lon="-7.8036470">
        <ele>610.8</ele>
        <time>2020-10-19T11:55:52Z</time>
      </trkpt>
      <trkpt lat="42.8720040" lon="-7.8036570">
        <ele>610.7</ele>
        <time>2020-10-19T11:55:53Z</time>
      </trkpt>
      <trkpt lat="42.8720160" lon="-7.8036670">
        <ele>610.5</ele>
        <time>2020-10-19T11:55:54Z</time>
      </trkpt>
      <trkpt lat="42.8720260" lon="-7.8036770">
        <ele>610.4</ele>
        <time>2020-10-19T11:55:55Z</time>
      </trkpt>
      <trkpt lat="42.8720350" lon="-7.8036890">
        <ele>610.3</ele>
        <time>2020-10-19T11:55:56Z</time>
      </trkpt>
      <trkpt lat="42.8720450" lon="-7.8037000">
        <ele>610.2</ele>
        <time>2020-10-19T11:55:57Z</time>
      </trkpt>
      <trkpt lat="42.8720560" lon="-7.8037130">
        <ele>610.0</ele>
        <time>2020-10-19T11:55:58Z</time>
      </trkpt>
      <trkpt lat="42.8720670" lon="-7.8037260">
        <ele>609.9</ele>
        <time>2020-10-19T11:55:59Z</time>
      </trkpt>
      <trkpt lat="42.8720780" lon="-7.8037400">
        <ele>609.7</ele>
        <time>2020-10-19T11:56:00Z</time>
      </trkpt>
      <trkpt lat="42.8720900" lon="-7.8037550">
        <ele>609.6</ele>
        <time>2020-10-19T11:56:01Z</time>
      </trkpt>
      <trkpt lat="42.8721020" lon="-7.8037690">
        <ele>609.4</ele>
        <time>2020-10-19T11:56:02Z</time>
      </trkpt>
      <trkpt lat="42.8721120" lon="-7.8037820">
        <ele>609.3</ele>
        <time>2020-10-19T11:56:03Z</time>
      </trkpt>
      <trkpt lat="42.8721210" lon="-7.8037940">
        <ele>609.2</ele>
        <time>2020-10-19T11:56:04Z</time>
      </trkpt>
      <trkpt lat="42.8721300" lon="-7.8038060">
        <ele>609.1</ele>
        <time>2020-10-19T11:56:05Z</time>
      </trkpt>
      <trkpt lat="42.8721390" lon="-7.8038170">
        <ele>608.9</ele>
        <time>2020-10-19T11:56:06Z</time>
      </trkpt>
      <trkpt lat="42.8721470" lon="-7.8038270">
        <ele>608.8</ele>
        <time>2020-10-19T11:56:07Z</time>
      </trkpt>
      <trkpt lat="42.8721560" lon="-7.8038350">
        <ele>608.7</ele>
        <time>2020-10-19T11:56:08Z</time>
      </trkpt>
      <trkpt lat="42.8721690" lon="-7.8038460">
        <ele>608.6</ele>
        <time>2020-10-19T11:56:09Z</time>
      </trkpt>
      <trkpt lat="42.8721830" lon="-7.8038600">
        <ele>608.4</ele>
        <time>2020-10-19T11:56:10Z</time>
      </trkpt>
      <trkpt lat="42.8721980" lon="-7.8038760">
        <ele>608.2</ele>
        <time>2020-10-19T11:56:11Z</time>
      </trkpt>
      <trkpt lat="42.8722110" lon="-7.8038920">
        <ele>608.0</ele>
        <time>2020-10-19T11:56:12Z</time>
      </trkpt>
      <trkpt lat="42.8722230" lon="-7.8039070">
        <ele>607.9</ele>
        <time>2020-10-19T11:56:13Z</time>
      </trkpt>
      <trkpt lat="42.8722360" lon="-7.8039220">
        <ele>607.7</ele>
        <time>2020-10-19T11:56:14Z</time>
      </trkpt>
      <trkpt lat="42.8722490" lon="-7.8039380">
        <ele>607.5</ele>
        <time>2020-10-19T11:56:15Z</time>
      </trkpt>
      <trkpt lat="42.8722610" lon="-7.8039540">
        <ele>607.4</ele>
        <time>2020-10-19T11:56:16Z</time>
      </trkpt>
      <trkpt lat="42.8722740" lon="-7.8039690">
        <ele>607.2</ele>
        <time>2020-10-19T11:56:17Z</time>
      </trkpt>
      <trkpt lat="42.8722850" lon="-7.8039830">
        <ele>607.1</ele>
        <time>2020-10-19T11:56:18Z</time>
      </trkpt>
      <trkpt lat="42.8722970" lon="-7.8039950">
        <ele>606.9</ele>
        <time>2020-10-19T11:56:19Z</time>
      </trkpt>
      <trkpt lat="42.8723070" lon="-7.8040080">
        <ele>606.8</ele>
        <time>2020-10-19T11:56:20Z</time>
      </trkpt>
      <trkpt lat="42.8723180" lon="-7.8040200">
        <ele>606.6</ele>
        <time>2020-10-19T11:56:21Z</time>
      </trkpt>
      <trkpt lat="42.8723280" lon="-7.8040340">
        <ele>606.5</ele>
        <time>2020-10-19T11:56:22Z</time>
      </trkpt>
      <trkpt lat="42.8723380" lon="-7.8040490">
        <ele>606.3</ele>
        <time>2020-10-19T11:56:23Z</time>
      </trkpt>
      <trkpt lat="42.8723470" lon="-7.8040660">
        <ele>606.2</ele>
        <time>2020-10-19T11:56:24Z</time>
      </trkpt>
      <trkpt lat="42.8723560" lon="-7.8040820">
        <ele>606.1</ele>
        <time>2020-10-19T11:56:25Z</time>
      </trkpt>
      <trkpt lat="42.8723650" lon="-7.8040970">
        <ele>605.9</ele>
        <time>2020-10-19T11:56:26Z</time>
      </trkpt>
      <trkpt lat="42.8723740" lon="-7.8041100">
        <ele>605.8</ele>
        <time>2020-10-19T11:56:27Z</time>
      </trkpt>
      <trkpt lat="42.8723820" lon="-7.8041210">
        <ele>605.7</ele>
        <time>2020-10-19T11:56:28Z</time>
      </trkpt>
      <trkpt lat="42.8723910" lon="-7.8041340">
        <ele>605.6</ele>
        <time>2020-10-19T11:56:29Z</time>
      </trkpt>
      <trkpt lat="42.8724010" lon="-7.8041490">
        <ele>605.4</ele>
        <time>2020-10-19T11:56:30Z</time>
      </trkpt>
      <trkpt lat="42.8724120" lon="-7.8041620">
        <ele>605.3</ele>
        <time>2020-10-19T11:56:31Z</time>
      </trkpt>
      <trkpt lat="42.8724240" lon="-7.8041740">
        <ele>605.2</ele>
        <time>2020-10-19T11:56:32Z</time>
      </trkpt>
      <trkpt lat="42.8724370" lon="-7.8041860">
        <ele>605.0</ele>
        <time>2020-10-19T11:56:33Z</time>
      </trkpt>
      <trkpt lat="42.8724500" lon="-7.8041990">
        <ele>604.9</ele>
        <time>2020-10-19T11:56:34Z</time>
      </trkpt>
      <trkpt lat="42.8724620" lon="-7.8042120">
        <ele>604.7</ele>
        <time>2020-10-19T11:56:35Z</time>
      </trkpt>
      <trkpt lat="42.8724750" lon="-7.8042250">
        <ele>604.6</ele>
        <time>2020-10-19T11:56:36Z</time>
      </trkpt>
      <trkpt lat="42.8724890" lon="-7.8042390">
        <ele>604.4</ele>
        <time>2020-10-19T11:56:37Z</time>
      </trkpt>
      <trkpt lat="42.8725020" lon="-7.8042530">
        <ele>604.3</ele>
        <time>2020-10-19T11:56:38Z</time>
      </trkpt>
      <trkpt lat="42.8725150" lon="-7.8042670">
        <ele>604.1</ele>
        <time>2020-10-19T11:56:39Z</time>
      </trkpt>
      <trkpt lat="42.8725280" lon="-7.8042800">
        <ele>604.0</ele>
        <time>2020-10-19T11:56:40Z</time>
      </trkpt>
      <trkpt lat="42.8725430" lon="-7.8042930">
        <ele>603.8</ele>
        <time>2020-10-19T11:56:41Z</time>
      </trkpt>
      <trkpt lat="42.8725570" lon="-7.8043050">
        <ele>603.6</ele>
        <time>2020-10-19T11:56:42Z</time>
      </trkpt>
      <trkpt lat="42.8725690" lon="-7.8043170">
        <ele>603.5</ele>
        <time>2020-10-19T11:56:43Z</time>
      </trkpt>
      <trkpt lat="42.8725810" lon="-7.8043280">
        <ele>603.4</ele>
        <time>2020-10-19T11:56:44Z</time>
      </trkpt>
      <trkpt lat="42.8725920" lon="-7.8043400">
        <ele>603.2</ele>
        <time>2020-10-19T11:56:45Z</time>
      </trkpt>
      <trkpt lat="42.8726050" lon="-7.8043520">
        <ele>603.1</ele>
        <time>2020-10-19T11:56:46Z</time>
      </trkpt>
      <trkpt lat="42.8726160" lon="-7.8043660">
        <ele>602.9</ele>
        <time>2020-10-19T11:56:47Z</time>
      </trkpt>
      <trkpt lat="42.8726280" lon="-7.8043800">
        <ele>602.8</ele>
        <time>2020-10-19T11:56:48Z</time>
      </trkpt>
      <trkpt lat="42.8726390" lon="-7.8043950">
        <ele>602.6</ele>
        <time>2020-10-19T11:56:49Z</time>
      </trkpt>
      <trkpt lat="42.8726510" lon="-7.8044090">
        <ele>602.5</ele>
        <time>2020-10-19T11:56:50Z</time>
      </trkpt>
      <trkpt lat="42.8726640" lon="-7.8044220">
        <ele>602.3</ele>
        <time>2020-10-19T11:56:51Z</time>
      </trkpt>
      <trkpt lat="42.8726760" lon="-7.8044340">
        <ele>602.1</ele>
        <time>2020-10-19T11:56:52Z</time>
      </trkpt>
      <trkpt lat="42.8726890" lon="-7.8044470">
        <ele>602.0</ele>
        <time>2020-10-19T11:56:53Z</time>
      </trkpt>
      <trkpt lat="42.8727000" lon="-7.8044600">
        <ele>601.8</ele>
        <time>2020-10-19T11:56:54Z</time>
      </trkpt>
      <trkpt lat="42.8727120" lon="-7.8044730">
        <ele>601.7</ele>
        <time>2020-10-19T11:56:55Z</time>
      </trkpt>
      <trkpt lat="42.8727240" lon="-7.8044850">
        <ele>601.5</ele>
        <time>2020-10-19T11:56:56Z</time>
      </trkpt>
      <trkpt lat="42.8727350" lon="-7.8044980">
        <ele>601.4</ele>
        <time>2020-10-19T11:56:57Z</time>
      </trkpt>
      <trkpt lat="42.8727450" lon="-7.8045080">
        <ele>601.2</ele>
        <time>2020-10-19T11:56:58Z</time>
      </trkpt>
      <trkpt lat="42.8727540" lon="-7.8045190">
        <ele>601.1</ele>
        <time>2020-10-19T11:56:59Z</time>
      </trkpt>
      <trkpt lat="42.8727650" lon="-7.8045280">
        <ele>601.0</ele>
        <time>2020-10-19T11:57:00Z</time>
      </trkpt>
      <trkpt lat="42.8727770" lon="-7.8045390">
        <ele>600.8</ele>
        <time>2020-10-19T11:57:01Z</time>
      </trkpt>
      <trkpt lat="42.8727900" lon="-7.8045510">
        <ele>600.7</ele>
        <time>2020-10-19T11:57:02Z</time>
      </trkpt>
      <trkpt lat="42.8728050" lon="-7.8045660">
        <ele>600.5</ele>
        <time>2020-10-19T11:57:03Z</time>
      </trkpt>
      <trkpt lat="42.8728180" lon="-7.8045790">
        <ele>600.3</ele>
        <time>2020-10-19T11:57:04Z</time>
      </trkpt>
      <trkpt lat="42.8728300" lon="-7.8045930">
        <ele>600.2</ele>
        <time>2020-10-19T11:57:05Z</time>
      </trkpt>
      <trkpt lat="42.8728430" lon="-7.8046060">
        <ele>600.0</ele>
        <time>2020-10-19T11:57:06Z</time>
      </trkpt>
      <trkpt lat="42.8728540" lon="-7.8046190">
        <ele>599.9</ele>
        <time>2020-10-19T11:57:07Z</time>
      </trkpt>
      <trkpt lat="42.8728660" lon="-7.8046330">
        <ele>599.8</ele>
        <time>2020-10-19T11:57:08Z</time>
      </trkpt>
      <trkpt lat="42.8728770" lon="-7.8046460">
        <ele>599.6</ele>
        <time>2020-10-19T11:57:09Z</time>
      </trkpt>
      <trkpt lat="42.8728880" lon="-7.8046590">
        <ele>599.5</ele>
        <time>2020-10-19T11:57:10Z</time>
      </trkpt>
      <trkpt lat="42.8729010" lon="-7.8046710">
        <ele>599.4</ele>
        <time>2020-10-19T11:57:11Z</time>
      </trkpt>
      <trkpt lat="42.8729130" lon="-7.8046840">
        <ele>599.2</ele>
        <time>2020-10-19T11:57:12Z</time>
      </trkpt>
      <trkpt lat="42.8729260" lon="-7.8046990">
        <ele>599.1</ele>
        <time>2020-10-19T11:57:13Z</time>
      </trkpt>
      <trkpt lat="42.8729360" lon="-7.8047150">
        <ele>598.9</ele>
        <time>2020-10-19T11:57:14Z</time>
      </trkpt>
      <trkpt lat="42.8729460" lon="-7.8047310">
        <ele>598.8</ele>
        <time>2020-10-19T11:57:15Z</time>
      </trkpt>
      <trkpt lat="42.8729560" lon="-7.8047460">
        <ele>598.7</ele>
        <time>2020-10-19T11:57:16Z</time>
      </trkpt>
      <trkpt lat="42.8729660" lon="-7.8047590">
        <ele>598.5</ele>
        <time>2020-10-19T11:57:17Z</time>
      </trkpt>
      <trkpt lat="42.8729770" lon="-7.8047720">
        <ele>598.4</ele>
        <time>2020-10-19T11:57:18Z</time>
      </trkpt>
      <trkpt lat="42.8729890" lon="-7.8047850">
        <ele>598.3</ele>
        <time>2020-10-19T11:57:19Z</time>
      </trkpt>
      <trkpt lat="42.8730000" lon="-7.8047980">
        <ele>598.1</ele>
        <time>2020-10-19T11:57:20Z</time>
      </trkpt>
      <trkpt lat="42.8730110" lon="-7.8048110">
        <ele>598.0</ele>
        <time>2020-10-19T11:57:21Z</time>
      </trkpt>
      <trkpt lat="42.8730210" lon="-7.8048240">
        <ele>597.9</ele>
        <time>2020-10-19T11:57:22Z</time>
      </trkpt>
      <trkpt lat="42.8730310" lon="-7.8048360">
        <ele>597.7</ele>
        <time>2020-10-19T11:57:23Z</time>
      </trkpt>
      <trkpt lat="42.8730410" lon="-7.8048490">
        <ele>597.6</ele>
        <time>2020-10-19T11:57:24Z</time>
      </trkpt>
      <trkpt lat="42.8730500" lon="-7.8048620">
        <ele>597.5</ele>
        <time>2020-10-19T11:57:25Z</time>
      </trkpt>
      <trkpt lat="42.8730600" lon="-7.8048750">
        <ele>597.3</ele>
        <time>2020-10-19T11:57:26Z</time>
      </trkpt>
      <trkpt lat="42.8730710" lon="-7.8048890">
        <ele>597.2</ele>
        <time>2020-10-19T11:57:27Z</time>
      </trkpt>
      <trkpt lat="42.8730810" lon="-7.8049010">
        <ele>597.1</ele>
        <time>2020-10-19T11:57:28Z</time>
      </trkpt>
      <trkpt lat="42.8730920" lon="-7.8049120">
        <ele>596.9</ele>
        <time>2020-10-19T11:57:29Z</time>
      </trkpt>
      <trkpt lat="42.8731020" lon="-7.8049230">
        <ele>596.8</ele>
        <time>2020-10-19T11:57:30Z</time>
      </trkpt>
      <trkpt lat="42.8731130" lon="-7.8049350">
        <ele>596.7</ele>
        <time>2020-10-19T11:57:31Z</time>
      </trkpt>
      <trkpt lat="42.8731220" lon="-7.8049480">
        <ele>596.5</ele>
        <time>2020-10-19T11:57:32Z</time>
      </trkpt>
      <trkpt lat="42.8731310" lon="-7.8049600">
        <ele>596.4</ele>
        <time>2020-10-19T11:57:33Z</time>
      </trkpt>
      <trkpt lat="42.8731390" lon="-7.8049720">
        <ele>596.3</ele>
        <time>2020-10-19T11:57:34Z</time>
      </trkpt>
      <trkpt lat="42.8731470" lon="-7.8049840">
        <ele>596.2</ele>
        <time>2020-10-19T11:57:35Z</time>
      </trkpt>
      <trkpt lat="42.8731560" lon="-7.8049960">
        <ele>596.1</ele>
        <time>2020-10-19T11:57:36Z</time>
      </trkpt>
      <trkpt lat="42.8731660" lon="-7.8050080">
        <ele>595.9</ele>
        <time>2020-10-19T11:57:37Z</time>
      </trkpt>
      <trkpt lat="42.8731770" lon="-7.8050200">
        <ele>595.8</ele>
        <time>2020-10-19T11:57:38Z</time>
      </trkpt>
      <trkpt lat="42.8731880" lon="-7.8050320">
        <ele>595.7</ele>
        <time>2020-10-19T11:57:39Z</time>
      </trkpt>
      <trkpt lat="42.8731990" lon="-7.8050450">
        <ele>595.5</ele>
        <time>2020-10-19T11:57:40Z</time>
      </trkpt>
      <trkpt lat="42.8732100" lon="-7.8050570">
        <ele>595.4</ele>
        <time>2020-10-19T11:57:41Z</time>
      </trkpt>
      <trkpt lat="42.8732220" lon="-7.8050690">
        <ele>595.2</ele>
        <time>2020-10-19T11:57:42Z</time>
      </trkpt>
      <trkpt lat="42.8732340" lon="-7.8050810">
        <ele>595.1</ele>
        <time>2020-10-19T11:57:43Z</time>
      </trkpt>
      <trkpt lat="42.8732450" lon="-7.8050940">
        <ele>595.0</ele>
        <time>2020-10-19T11:57:44Z</time>
      </trkpt>
      <trkpt lat="42.8732550" lon="-7.8051070">
        <ele>594.8</ele>
        <time>2020-10-19T11:57:45Z</time>
      </trkpt>
      <trkpt lat="42.8732650" lon="-7.8051200">
        <ele>594.7</ele>
        <time>2020-10-19T11:57:46Z</time>
      </trkpt>
      <trkpt lat="42.8732770" lon="-7.8051320">
        <ele>594.5</ele>
        <time>2020-10-19T11:57:47Z</time>
      </trkpt>
      <trkpt lat="42.8732890" lon="-7.8051440">
        <ele>594.4</ele>
        <time>2020-10-19T11:57:48Z</time>
      </trkpt>
      <trkpt lat="42.8733000" lon="-7.8051570">
        <ele>594.2</ele>
        <time>2020-10-19T11:57:49Z</time>
      </trkpt>
      <trkpt lat="42.8733120" lon="-7.8051710">
        <ele>594.1</ele>
        <time>2020-10-19T11:57:50Z</time>
      </trkpt>
      <trkpt lat="42.8733230" lon="-7.8051830">
        <ele>593.9</ele>
        <time>2020-10-19T11:57:51Z</time>
      </trkpt>
      <trkpt lat="42.8733340" lon="-7.8051950">
        <ele>593.8</ele>
        <time>2020-10-19T11:57:52Z</time>
      </trkpt>
      <trkpt lat="42.8733440" lon="-7.8052050">
        <ele>593.7</ele>
        <time>2020-10-19T11:57:53Z</time>
      </trkpt>
      <trkpt lat="42.8733520" lon="-7.8052160">
        <ele>593.6</ele>
        <time>2020-10-19T11:57:54Z</time>
      </trkpt>
      <trkpt lat="42.8733610" lon="-7.8052270">
        <ele>593.4</ele>
        <time>2020-10-19T11:57:55Z</time>
      </trkpt>
      <trkpt lat="42.8733710" lon="-7.8052390">
        <ele>593.3</ele>
        <time>2020-10-19T11:57:56Z</time>
      </trkpt>
      <trkpt lat="42.8733810" lon="-7.8052530">
        <ele>593.2</ele>
        <time>2020-10-19T11:57:57Z</time>
      </trkpt>
      <trkpt lat="42.8733920" lon="-7.8052660">
        <ele>593.0</ele>
        <time>2020-10-19T11:57:58Z</time>
      </trkpt>
      <trkpt lat="42.8734020" lon="-7.8052790">
        <ele>592.9</ele>
        <time>2020-10-19T11:57:59Z</time>
      </trkpt>
      <trkpt lat="42.8734130" lon="-7.8052910">
        <ele>592.7</ele>
        <time>2020-10-19T11:58:00Z</time>
      </trkpt>
      <trkpt lat="42.8734230" lon="-7.8053040">
        <ele>592.6</ele>
        <time>2020-10-19T11:58:01Z</time>
      </trkpt>
      <trkpt lat="42.8734330" lon="-7.8053180">
        <ele>592.4</ele>
        <time>2020-10-19T11:58:02Z</time>
      </trkpt>
      <trkpt lat="42.8734430" lon="-7.8053310">
        <ele>592.3</ele>
        <time>2020-10-19T11:58:03Z</time>
      </trkpt>
      <trkpt lat="42.8734530" lon="-7.8053440">
        <ele>592.1</ele>
        <time>2020-10-19T11:58:04Z</time>
      </trkpt>
      <trkpt lat="42.8734630" lon="-7.8053570">
        <ele>591.9</ele>
        <time>2020-10-19T11:58:05Z</time>
      </trkpt>
      <trkpt lat="42.8734720" lon="-7.8053700">
        <ele>591.8</ele>
        <time>2020-10-19T11:58:06Z</time>
      </trkpt>
      <trkpt lat="42.8734820" lon="-7.8053830">
        <ele>591.6</ele>
        <time>2020-10-19T11:58:07Z</time>
      </trkpt>
      <trkpt lat="42.8734910" lon="-7.8053950">
        <ele>591.5</ele>
        <time>2020-10-19T11:58:08Z</time>
      </trkpt>
      <trkpt lat="42.8735010" lon="-7.8054080">
        <ele>591.3</ele>
        <time>2020-10-19T11:58:09Z</time>
      </trkpt>
      <trkpt lat="42.8735100" lon="-7.8054200">
        <ele>591.2</ele>
        <time>2020-10-19T11:58:10Z</time>
      </trkpt>
      <trkpt lat="42.8735190" lon="-7.8054330">
        <ele>591.0</ele>
        <time>2020-10-19T11:58:11Z</time>
      </trkpt>
      <trkpt lat="42.8735270" lon="-7.8054440">
        <ele>590.9</ele>
        <time>2020-10-19T11:58:12Z</time>
      </trkpt>
      <trkpt lat="42.8735350" lon="-7.8054560">
        <ele>590.7</ele>
        <time>2020-10-19T11:58:13Z</time>
      </trkpt>
      <trkpt lat="42.8735440" lon="-7.8054670">
        <ele>590.6</ele>
        <time>2020-10-19T11:58:14Z</time>
      </trkpt>
      <trkpt lat="42.8735520" lon="-7.8054790">
        <ele>590.4</ele>
        <time>2020-10-19T11:58:15Z</time>
      </trkpt>
      <trkpt lat="42.8735610" lon="-7.8054910">
        <ele>590.3</ele>
        <time>2020-10-19T11:58:16Z</time>
      </trkpt>
      <trkpt lat="42.8735680" lon="-7.8055010">
        <ele>590.1</ele>
        <time>2020-10-19T11:58:17Z</time>
      </trkpt>
      <trkpt lat="42.8735760" lon="-7.8055120">
        <ele>590.0</ele>
        <time>2020-10-19T11:58:18Z</time>
      </trkpt>
      <trkpt lat="42.8735840" lon="-7.8055230">
        <ele>589.8</ele>
        <time>2020-10-19T11:58:19Z</time>
      </trkpt>
      <trkpt lat="42.8735910" lon="-7.8055330">
        <ele>589.7</ele>
        <time>2020-10-19T11:58:20Z</time>
      </trkpt>
      <trkpt lat="42.8736000" lon="-7.8055450">
        <ele>589.5</ele>
        <time>2020-10-19T11:58:21Z</time>
      </trkpt>
      <trkpt lat="42.8736070" lon="-7.8055570">
        <ele>589.4</ele>
        <time>2020-10-19T11:58:22Z</time>
      </trkpt>
      <trkpt lat="42.8736170" lon="-7.8055690">
        <ele>589.2</ele>
        <time>2020-10-19T11:58:23Z</time>
      </trkpt>
      <trkpt lat="42.8736250" lon="-7.8055780">
        <ele>589.1</ele>
        <time>2020-10-19T11:58:24Z</time>
      </trkpt>
      <trkpt lat="42.8736330" lon="-7.8055870">
        <ele>588.9</ele>
        <time>2020-10-19T11:58:25Z</time>
      </trkpt>
      <trkpt lat="42.8736430" lon="-7.8055980">
        <ele>588.8</ele>
        <time>2020-10-19T11:58:26Z</time>
      </trkpt>
      <trkpt lat="42.8736530" lon="-7.8056110">
        <ele>588.6</ele>
        <time>2020-10-19T11:58:27Z</time>
      </trkpt>
      <trkpt lat="42.8736640" lon="-7.8056260">
        <ele>588.4</ele>
        <time>2020-10-19T11:58:28Z</time>
      </trkpt>
      <trkpt lat="42.8736730" lon="-7.8056390">
        <ele>588.2</ele>
        <time>2020-10-19T11:58:29Z</time>
      </trkpt>
      <trkpt lat="42.8736830" lon="-7.8056520">
        <ele>588.0</ele>
        <time>2020-10-19T11:58:30Z</time>
      </trkpt>
      <trkpt lat="42.8736930" lon="-7.8056650">
        <ele>587.8</ele>
        <time>2020-10-19T11:58:31Z</time>
      </trkpt>
      <trkpt lat="42.8737030" lon="-7.8056800">
        <ele>587.6</ele>
        <time>2020-10-19T11:58:32Z</time>
      </trkpt>
      <trkpt lat="42.8737130" lon="-7.8056930">
        <ele>587.4</ele>
        <time>2020-10-19T11:58:33Z</time>
      </trkpt>
      <trkpt lat="42.8737220" lon="-7.8057070">
        <ele>587.2</ele>
        <time>2020-10-19T11:58:34Z</time>
      </trkpt>
      <trkpt lat="42.8737310" lon="-7.8057200">
        <ele>587.1</ele>
        <time>2020-10-19T11:58:35Z</time>
      </trkpt>
      <trkpt lat="42.8737370" lon="-7.8057340">
        <ele>586.9</ele>
        <time>2020-10-19T11:58:36Z</time>
      </trkpt>
      <trkpt lat="42.8737420" lon="-7.8057490">
        <ele>586.8</ele>
        <time>2020-10-19T11:58:37Z</time>
      </trkpt>
      <trkpt lat="42.8737470" lon="-7.8057640">
        <ele>586.6</ele>
        <time>2020-10-19T11:58:38Z</time>
      </trkpt>
      <trkpt lat="42.8737530" lon="-7.8057800">
        <ele>586.4</ele>
        <time>2020-10-19T11:58:39Z</time>
      </trkpt>
      <trkpt lat="42.8737600" lon="-7.8057960">
        <ele>586.3</ele>
        <time>2020-10-19T11:58:40Z</time>
      </trkpt>
      <trkpt lat="42.8737660" lon="-7.8058130">
        <ele>586.1</ele>
        <time>2020-10-19T11:58:41Z</time>
      </trkpt>
      <trkpt lat="42.8737700" lon="-7.8058280">
        <ele>585.9</ele>
        <time>2020-10-19T11:58:42Z</time>
      </trkpt>
      <trkpt lat="42.8737720" lon="-7.8058450">
        <ele>585.8</ele>
        <time>2020-10-19T11:58:43Z</time>
      </trkpt>
      <trkpt lat="42.8737730" lon="-7.8058610">
        <ele>585.7</ele>
        <time>2020-10-19T11:58:44Z</time>
      </trkpt>
      <trkpt lat="42.8737730" lon="-7.8058800">
        <ele>585.5</ele>
        <time>2020-10-19T11:58:45Z</time>
      </trkpt>
      <trkpt lat="42.8737750" lon="-7.8058980">
        <ele>585.3</ele>
        <time>2020-10-19T11:58:46Z</time>
      </trkpt>
      <trkpt lat="42.8737760" lon="-7.8059160">
        <ele>585.2</ele>
        <time>2020-10-19T11:58:47Z</time>
      </trkpt>
      <trkpt lat="42.8737760" lon="-7.8059320">
        <ele>585.1</ele>
        <time>2020-10-19T11:58:48Z</time>
      </trkpt>
      <trkpt lat="42.8737760" lon="-7.8059490">
        <ele>584.9</ele>
        <time>2020-10-19T11:58:49Z</time>
      </trkpt>
      <trkpt lat="42.8737750" lon="-7.8059680">
        <ele>584.8</ele>
        <time>2020-10-19T11:58:50Z</time>
      </trkpt>
      <trkpt lat="42.8737740" lon="-7.8059870">
        <ele>584.7</ele>
        <time>2020-10-19T11:58:51Z</time>
      </trkpt>
      <trkpt lat="42.8737730" lon="-7.8060060">
        <ele>584.5</ele>
        <time>2020-10-19T11:58:52Z</time>
      </trkpt>
      <trkpt lat="42.8737720" lon="-7.8060250">
        <ele>584.4</ele>
        <time>2020-10-19T11:58:53Z</time>
      </trkpt>
      <trkpt lat="42.8737710" lon="-7.8060430">
        <ele>584.3</ele>
        <time>2020-10-19T11:58:54Z</time>
      </trkpt>
      <trkpt lat="42.8737690" lon="-7.8060620">
        <ele>584.2</ele>
        <time>2020-10-19T11:58:55Z</time>
      </trkpt>
      <trkpt lat="42.8737680" lon="-7.8060790">
        <ele>584.1</ele>
        <time>2020-10-19T11:58:56Z</time>
      </trkpt>
      <trkpt lat="42.8737680" lon="-7.8060980">
        <ele>584.0</ele>
        <time>2020-10-19T11:58:57Z</time>
      </trkpt>
      <trkpt lat="42.8737660" lon="-7.8061170">
        <ele>583.9</ele>
        <time>2020-10-19T11:58:58Z</time>
      </trkpt>
      <trkpt lat="42.8737650" lon="-7.8061380">
        <ele>583.8</ele>
        <time>2020-10-19T11:58:59Z</time>
      </trkpt>
      <trkpt lat="42.8737620" lon="-7.8061580">
        <ele>583.7</ele>
        <time>2020-10-19T11:59:00Z</time>
      </trkpt>
      <trkpt lat="42.8737590" lon="-7.8061800">
        <ele>583.6</ele>
        <time>2020-10-19T11:59:01Z</time>
      </trkpt>
      <trkpt lat="42.8737570" lon="-7.8062020">
        <ele>583.5</ele>
        <time>2020-10-19T11:59:02Z</time>
      </trkpt>
      <trkpt lat="42.8737550" lon="-7.8062240">
        <ele>583.4</ele>
        <time>2020-10-19T11:59:03Z</time>
      </trkpt>
      <trkpt lat="42.8737530" lon="-7.8062430">
        <ele>583.3</ele>
        <time>2020-10-19T11:59:04Z</time>
      </trkpt>
      <trkpt lat="42.8737520" lon="-7.8062620">
        <ele>583.2</ele>
        <time>2020-10-19T11:59:05Z</time>
      </trkpt>
      <trkpt lat="42.8737500" lon="-7.8062800">
        <ele>583.2</ele>
        <time>2020-10-19T11:59:06Z</time>
      </trkpt>
      <trkpt lat="42.8737480" lon="-7.8062990">
        <ele>583.1</ele>
        <time>2020-10-19T11:59:07Z</time>
      </trkpt>
      <trkpt lat="42.8737460" lon="-7.8063190">
        <ele>583.0</ele>
        <time>2020-10-19T11:59:08Z</time>
      </trkpt>
      <trkpt lat="42.8737430" lon="-7.8063380">
        <ele>582.9</ele>
        <time>2020-10-19T11:59:09Z</time>
      </trkpt>
      <trkpt lat="42.8737410" lon="-7.8063570">
        <ele>582.9</ele>
        <time>2020-10-19T11:59:10Z</time>
      </trkpt>
      <trkpt lat="42.8737390" lon="-7.8063760">
        <ele>582.8</ele>
        <time>2020-10-19T11:59:11Z</time>
      </trkpt>
      <trkpt lat="42.8737360" lon="-7.8063930">
        <ele>582.7</ele>
        <time>2020-10-19T11:59:12Z</time>
      </trkpt>
      <trkpt lat="42.8737330" lon="-7.8064100">
        <ele>582.7</ele>
        <time>2020-10-19T11:59:13Z</time>
      </trkpt>
      <trkpt lat="42.8737310" lon="-7.8064280">
        <ele>582.6</ele>
        <time>2020-10-19T11:59:14Z</time>
      </trkpt>
      <trkpt lat="42.8737290" lon="-7.8064470">
        <ele>582.5</ele>
        <time>2020-10-19T11:59:15Z</time>
      </trkpt>
      <trkpt lat="42.8737270" lon="-7.8064670">
        <ele>582.5</ele>
        <time>2020-10-19T11:59:16Z</time>
      </trkpt>
      <trkpt lat="42.8737250" lon="-7.8064860">
        <ele>582.4</ele>
        <time>2020-10-19T11:59:17Z</time>
      </trkpt>
      <trkpt lat="42.8737230" lon="-7.8065060">
        <ele>582.3</ele>
        <time>2020-10-19T11:59:18Z</time>
      </trkpt>
      <trkpt lat="42.8737220" lon="-7.8065280">
        <ele>582.3</ele>
        <time>2020-10-19T11:59:19Z</time>
      </trkpt>
      <trkpt lat="42.8737200" lon="-7.8065510">
        <ele>582.2</ele>
        <time>2020-10-19T11:59:20Z</time>
      </trkpt>
      <trkpt lat="42.8737180" lon="-7.8065730">
        <ele>582.1</ele>
        <time>2020-10-19T11:59:21Z</time>
      </trkpt>
      <trkpt lat="42.8737160" lon="-7.8065950">
        <ele>582.0</ele>
        <time>2020-10-19T11:59:22Z</time>
      </trkpt>
      <trkpt lat="42.8737160" lon="-7.8066150">
        <ele>582.0</ele>
        <time>2020-10-19T11:59:23Z</time>
      </trkpt>
      <trkpt lat="42.8737150" lon="-7.8066350">
        <ele>581.9</ele>
        <time>2020-10-19T11:59:24Z</time>
      </trkpt>
      <trkpt lat="42.8737150" lon="-7.8066560">
        <ele>581.9</ele>
        <time>2020-10-19T11:59:25Z</time>
      </trkpt>
      <trkpt lat="42.8737140" lon="-7.8066780">
        <ele>581.8</ele>
        <time>2020-10-19T11:59:26Z</time>
      </trkpt>
      <trkpt lat="42.8737110" lon="-7.8066980">
        <ele>581.8</ele>
        <time>2020-10-19T11:59:27Z</time>
      </trkpt>
      <trkpt lat="42.8737090" lon="-7.8067170">
        <ele>581.7</ele>
        <time>2020-10-19T11:59:28Z</time>
      </trkpt>
      <trkpt lat="42.8737050" lon="-7.8067360">
        <ele>581.7</ele>
        <time>2020-10-19T11:59:29Z</time>
      </trkpt>
      <trkpt lat="42.8737010" lon="-7.8067540">
        <ele>581.7</ele>
        <time>2020-10-19T11:59:30Z</time>
      </trkpt>
      <trkpt lat="42.8736960" lon="-7.8067720">
        <ele>581.7</ele>
        <time>2020-10-19T11:59:31Z</time>
      </trkpt>
      <trkpt lat="42.8736910" lon="-7.8067890">
        <ele>581.7</ele>
        <time>2020-10-19T11:59:32Z</time>
      </trkpt>
      <trkpt lat="42.8736860" lon="-7.8068060">
        <ele>581.8</ele>
        <time>2020-10-19T11:59:33Z</time>
      </trkpt>
      <trkpt lat="42.8736810" lon="-7.8068220">
        <ele>581.8</ele>
        <time>2020-10-19T11:59:34Z</time>
      </trkpt>
      <trkpt lat="42.8736760" lon="-7.8068370">
        <ele>581.8</ele>
        <time>2020-10-19T11:59:35Z</time>
      </trkpt>
      <trkpt lat="42.8736710" lon="-7.8068520">
        <ele>581.8</ele>
        <time>2020-10-19T11:59:36Z</time>
      </trkpt>
      <trkpt lat="42.8736670" lon="-7.8068680">
        <ele>581.8</ele>
        <time>2020-10-19T11:59:37Z</time>
      </trkpt>
      <trkpt lat="42.8736610" lon="-7.8068840">
        <ele>581.8</ele>
        <time>2020-10-19T11:59:38Z</time>
      </trkpt>
      <trkpt lat="42.8736550" lon="-7.8069000">
        <ele>581.8</ele>
        <time>2020-10-19T11:59:39Z</time>
      </trkpt>
      <trkpt lat="42.8736470" lon="-7.8069160">
        <ele>581.8</ele>
        <time>2020-10-19T11:59:40Z</time>
      </trkpt>
      <trkpt lat="42.8736380" lon="-7.8069310">
        <ele>581.8</ele>
        <time>2020-10-19T11:59:41Z</time>
      </trkpt>
      <trkpt lat="42.8736290" lon="-7.8069450">
        <ele>581.8</ele>
        <time>2020-10-19T11:59:42Z</time>
      </trkpt>
      <trkpt lat="42.8736190" lon="-7.8069580">
        <ele>581.8</ele>
        <time>2020-10-19T11:59:43Z</time>
      </trkpt>
      <trkpt lat="42.8736090" lon="-7.8069700">
        <ele>581.8</ele>
        <time>2020-10-19T11:59:44Z</time>
      </trkpt>
      <trkpt lat="42.8735990" lon="-7.8069820">
        <ele>581.9</ele>
        <time>2020-10-19T11:59:45Z</time>
      </trkpt>
      <trkpt lat="42.8735900" lon="-7.8069940">
        <ele>581.9</ele>
        <time>2020-10-19T11:59:46Z</time>
      </trkpt>
      <trkpt lat="42.8735820" lon="-7.8070070">
        <ele>581.9</ele>
        <time>2020-10-19T11:59:47Z</time>
      </trkpt>
      <trkpt lat="42.8735740" lon="-7.8070190">
        <ele>581.9</ele>
        <time>2020-10-19T11:59:48Z</time>
      </trkpt>
      <trkpt lat="42.8735660" lon="-7.8070310">
        <ele>581.9</ele>
        <time>2020-10-19T11:59:49Z</time>
      </trkpt>
      <trkpt lat="42.8735590" lon="-7.8070430">
        <ele>581.9</ele>
        <time>2020-10-19T11:59:50Z</time>
      </trkpt>
      <trkpt lat="42.8735530" lon="-7.8070560">
        <ele>582.0</ele>
        <time>2020-10-19T11:59:51Z</time>
      </trkpt>
      <trkpt lat="42.8735460" lon="-7.8070700">
        <ele>582.0</ele>
        <time>2020-10-19T11:59:52Z</time>
      </trkpt>
      <trkpt lat="42.8735410" lon="-7.8070840">
        <ele>582.0</ele>
        <time>2020-10-19T11:59:53Z</time>
      </trkpt>
      <trkpt lat="42.8735350" lon="-7.8070980">
        <ele>582.0</ele>
        <time>2020-10-19T11:59:54Z</time>
      </trkpt>
      <trkpt lat="42.8735310" lon="-7.8071120">
        <ele>582.0</ele>
        <time>2020-10-19T11:59:55Z</time>
      </trkpt>
      <trkpt lat="42.8735260" lon="-7.8071260">
        <ele>582.0</ele>
        <time>2020-10-19T11:59:56Z</time>
      </trkpt>
      <trkpt lat="42.8735220" lon="-7.8071390">
        <ele>581.9</ele>
        <time>2020-10-19T11:59:57Z</time>
      </trkpt>
      <trkpt lat="42.8735180" lon="-7.8071520">
        <ele>581.9</ele>
        <time>2020-10-19T11:59:58Z</time>
      </trkpt>
      <trkpt lat="42.8735150" lon="-7.8071630">
        <ele>581.9</ele>
        <time>2020-10-19T11:59:59Z</time>
      </trkpt>
      <trkpt lat="42.8735120" lon="-7.8071710">
        <ele>581.9</ele>
        <time>2020-10-19T12:00:00Z</time>
      </trkpt>
      <trkpt lat="42.8735090" lon="-7.8071770">
        <ele>581.9</ele>
        <time>2020-10-19T12:00:01Z</time>
      </trkpt>
      <trkpt lat="42.8735060" lon="-7.8071810">
        <ele>581.9</ele>
        <time>2020-10-19T12:00:02Z</time>
      </trkpt>
      <trkpt lat="42.8735030" lon="-7.8071830">
        <ele>581.9</ele>
        <time>2020-10-19T12:00:03Z</time>
      </trkpt>
      <trkpt lat="42.8735020" lon="-7.8071830">
        <ele>581.9</ele>
        <time>2020-10-19T12:00:04Z</time>
      </trkpt>
      <trkpt lat="42.8735010" lon="-7.8071840">
        <ele>581.9</ele>
        <time>2020-10-19T12:00:05Z</time>
      </trkpt>
      <trkpt lat="42.8735010" lon="-7.8071840">
        <ele>581.9</ele>
        <time>2020-10-19T12:00:06Z</time>
      </trkpt>
      <trkpt lat="42.8735010" lon="-7.8071840">
        <ele>581.9</ele>
        <time>2020-10-19T12:00:07Z</time>
      </trkpt>
      <trkpt lat="42.8735000" lon="-7.8071850">
        <ele>581.9</ele>
        <time>2020-10-19T12:00:08Z</time>
      </trkpt>
      <trkpt lat="42.8734980" lon="-7.8071870">
        <ele>581.9</ele>
        <time>2020-10-19T12:00:09Z</time>
      </trkpt>
      <trkpt lat="42.8734960" lon="-7.8071880">
        <ele>581.8</ele>
        <time>2020-10-19T12:00:10Z</time>
      </trkpt>
      <trkpt lat="42.8734710" lon="-7.8071890">
        <ele>581.8</ele>
        <time>2020-10-19T13:25:59Z</time>
      </trkpt>
      <trkpt lat="42.8734750" lon="-7.8072000">
        <ele>581.8</ele>
        <time>2020-10-19T13:26:00Z</time>
      </trkpt>
      <trkpt lat="42.8734780" lon="-7.8072120">
        <ele>581.8</ele>
        <time>2020-10-19T13:26:01Z</time>
      </trkpt>
      <trkpt lat="42.8734820" lon="-7.8072230">
        <ele>581.8</ele>
        <time>2020-10-19T13:26:02Z</time>
      </trkpt>
      <trkpt lat="42.8734860" lon="-7.8072350">
        <ele>581.8</ele>
        <time>2020-10-19T13:26:03Z</time>
      </trkpt>
      <trkpt lat="42.8734890" lon="-7.8072460">
        <ele>581.8</ele>
        <time>2020-10-19T13:26:04Z</time>
      </trkpt>
      <trkpt lat="42.8734930" lon="-7.8072580">
        <ele>581.7</ele>
        <time>2020-10-19T13:26:05Z</time>
      </trkpt>
      <trkpt lat="42.8734970" lon="-7.8072690">
        <ele>581.7</ele>
        <time>2020-10-19T13:26:06Z</time>
      </trkpt>
      <trkpt lat="42.8735010" lon="-7.8072810">
        <ele>581.7</ele>
        <time>2020-10-19T13:26:07Z</time>
      </trkpt>
      <trkpt lat="42.8735040" lon="-7.8072920">
        <ele>581.7</ele>
        <time>2020-10-19T13:26:08Z</time>
      </trkpt>
      <trkpt lat="42.8735080" lon="-7.8073040">
        <ele>581.7</ele>
        <time>2020-10-19T13:26:09Z</time>
      </trkpt>
      <trkpt lat="42.8735120" lon="-7.8073150">
        <ele>581.7</ele>
        <time>2020-10-19T13:26:10Z</time>
      </trkpt>
      <trkpt lat="42.8735150" lon="-7.8073270">
        <ele>581.6</ele>
        <time>2020-10-19T13:26:11Z</time>
      </trkpt>
      <trkpt lat="42.8735190" lon="-7.8073380">
        <ele>581.6</ele>
        <time>2020-10-19T13:26:12Z</time>
      </trkpt>
      <trkpt lat="42.8735170" lon="-7.8073540">
        <ele>581.6</ele>
        <time>2020-10-19T13:26:13Z</time>
      </trkpt>
      <trkpt lat="42.8735160" lon="-7.8073700">
        <ele>581.6</ele>
        <time>2020-10-19T13:26:14Z</time>
      </trkpt>
      <trkpt lat="42.8735140" lon="-7.8073860">
        <ele>581.6</ele>
        <time>2020-10-19T13:26:15Z</time>
      </trkpt>
      <trkpt lat="42.8735130" lon="-7.8074010">
        <ele>581.5</ele>
        <time>2020-10-19T13:26:16Z</time>
      </trkpt>
      <trkpt lat="42.8735120" lon="-7.8074170">
        <ele>581.5</ele>
        <time>2020-10-19T13:26:17Z</time>
      </trkpt>
      <trkpt lat="42.8735110" lon="-7.8074330">
        <ele>581.5</ele>
        <time>2020-10-19T13:26:18Z</time>
      </trkpt>
      <trkpt lat="42.8735100" lon="-7.8074480">
        <ele>581.5</ele>
        <time>2020-10-19T13:26:19Z</time>
      </trkpt>
      <trkpt lat="42.8735090" lon="-7.8074580">
        <ele>581.4</ele>
        <time>2020-10-19T13:26:20Z</time>
      </trkpt>
      <trkpt lat="42.8735070" lon="-7.8074630">
        <ele>581.4</ele>
        <time>2020-10-19T13:26:21Z</time>
      </trkpt>
      <trkpt lat="42.8735090" lon="-7.8074650">
        <ele>581.4</ele>
        <time>2020-10-19T13:26:22Z</time>
      </trkpt>
      <trkpt lat="42.8735100" lon="-7.8074650">
        <ele>581.4</ele>
        <time>2020-10-19T13:26:23Z</time>
      </trkpt>
      <trkpt lat="42.8735090" lon="-7.8074670">
        <ele>581.4</ele>
        <time>2020-10-19T13:26:24Z</time>
      </trkpt>
      <trkpt lat="42.8735080" lon="-7.8074690">
        <ele>581.4</ele>
        <time>2020-10-19T13:26:25Z</time>
      </trkpt>
      <trkpt lat="42.8735080" lon="-7.8074710">
        <ele>581.4</ele>
        <time>2020-10-19T13:26:26Z</time>
      </trkpt>
      <trkpt lat="42.8735100" lon="-7.8074700">
        <ele>581.4</ele>
        <time>2020-10-19T13:26:27Z</time>
      </trkpt>
      <trkpt lat="42.8735110" lon="-7.8074700">
        <ele>581.4</ele>
        <time>2020-10-19T13:26:28Z</time>
      </trkpt>
      <trkpt lat="42.8735120" lon="-7.8074700">
        <ele>581.4</ele>
        <time>2020-10-19T13:26:29Z</time>
      </trkpt>
      <trkpt lat="42.8735090" lon="-7.8074700">
        <ele>581.4</ele>
        <time>2020-10-19T13:26:30Z</time>
      </trkpt>
      <trkpt lat="42.8735070" lon="-7.8074700">
        <ele>581.4</ele>
        <time>2020-10-19T13:26:31Z</time>
      </trkpt>
      <trkpt lat="42.8735040" lon="-7.8074710">
        <ele>581.4</ele>
        <time>2020-10-19T13:26:32Z</time>
      </trkpt>
      <trkpt lat="42.8735030" lon="-7.8074730">
        <ele>581.4</ele>
        <time>2020-10-19T13:26:33Z</time>
      </trkpt>
      <trkpt lat="42.8735020" lon="-7.8074740">
        <ele>581.4</ele>
        <time>2020-10-19T13:26:34Z</time>
      </trkpt>
      <trkpt lat="42.8735020" lon="-7.8074760">
        <ele>581.4</ele>
        <time>2020-10-19T13:26:35Z</time>
      </trkpt>
      <trkpt lat="42.8735010" lon="-7.8074780">
        <ele>581.4</ele>
        <time>2020-10-19T13:26:36Z</time>
      </trkpt>
      <trkpt lat="42.8735010" lon="-7.8074790">
        <ele>581.4</ele>
        <time>2020-10-19T13:26:37Z</time>
      </trkpt>
      <trkpt lat="42.8735010" lon="-7.8074810">
        <ele>581.4</ele>
        <time>2020-10-19T13:26:38Z</time>
      </trkpt>
      <trkpt lat="42.8735010" lon="-7.8074850">
        <ele>581.4</ele>
        <time>2020-10-19T13:26:39Z</time>
      </trkpt>
      <trkpt lat="42.8735000" lon="-7.8074900">
        <ele>581.4</ele>
        <time>2020-10-19T13:26:40Z</time>
      </trkpt>
      <trkpt lat="42.8734990" lon="-7.8074930">
        <ele>581.4</ele>
        <time>2020-10-19T13:26:41Z</time>
      </trkpt>
      <trkpt lat="42.8734990" lon="-7.8074960">
        <ele>581.4</ele>
        <time>2020-10-19T13:26:42Z</time>
      </trkpt>
      <trkpt lat="42.8734980" lon="-7.8074980">
        <ele>581.4</ele>
        <time>2020-10-19T13:26:43Z</time>
      </trkpt>
      <trkpt lat="42.8734980" lon="-7.8075010">
        <ele>581.4</ele>
        <time>2020-10-19T13:26:44Z</time>
      </trkpt>
      <trkpt lat="42.8734980" lon="-7.8075010">
        <ele>581.4</ele>
        <time>2020-10-19T13:26:45Z</time>
      </trkpt>
      <trkpt lat="42.8734970" lon="-7.8075000">
        <ele>581.4</ele>
        <time>2020-10-19T13:26:46Z</time>
      </trkpt>
      <trkpt lat="42.8734960" lon="-7.8074980">
        <ele>581.3</ele>
        <time>2020-10-19T13:26:47Z</time>
      </trkpt>
      <trkpt lat="42.8734940" lon="-7.8074970">
        <ele>581.3</ele>
        <time>2020-10-19T13:26:48Z</time>
      </trkpt>
      <trkpt lat="42.8734920" lon="-7.8074980">
        <ele>581.3</ele>
        <time>2020-10-19T13:26:49Z</time>
      </trkpt>
      <trkpt lat="42.8734910" lon="-7.8074980">
        <ele>581.3</ele>
        <time>2020-10-19T13:26:50Z</time>
      </trkpt>
      <trkpt lat="42.8734900" lon="-7.8074990">
        <ele>581.3</ele>
        <time>2020-10-19T13:26:51Z</time>
      </trkpt>
      <trkpt lat="42.8734910" lon="-7.8075010">
        <ele>581.3</ele>
        <time>2020-10-19T13:26:52Z</time>
      </trkpt>
      <trkpt lat="42.8734930" lon="-7.8075060">
        <ele>581.3</ele>
        <time>2020-10-19T13:26:53Z</time>
      </trkpt>
      <trkpt lat="42.8734960" lon="-7.8075150">
        <ele>581.3</ele>
        <time>2020-10-19T13:26:54Z</time>
      </trkpt>
      <trkpt lat="42.8734990" lon="-7.8075280">
        <ele>581.3</ele>
        <time>2020-10-19T13:26:55Z</time>
      </trkpt>
      <trkpt lat="42.8735020" lon="-7.8075430">
        <ele>581.3</ele>
        <time>2020-10-19T13:26:56Z</time>
      </trkpt>
      <trkpt lat="42.8735060" lon="-7.8075570">
        <ele>581.2</ele>
        <time>2020-10-19T13:26:57Z</time>
      </trkpt>
      <trkpt lat="42.8735100" lon="-7.8075740">
        <ele>581.2</ele>
        <time>2020-10-19T13:26:58Z</time>
      </trkpt>
      <trkpt lat="42.8735140" lon="-7.8075930">
        <ele>581.2</ele>
        <time>2020-10-19T13:26:59Z</time>
      </trkpt>
      <trkpt lat="42.8735150" lon="-7.8076110">
        <ele>581.2</ele>
        <time>2020-10-19T13:27:00Z</time>
      </trkpt>
      <trkpt lat="42.8735170" lon="-7.8076290">
        <ele>581.1</ele>
        <time>2020-10-19T13:27:01Z</time>
      </trkpt>
      <trkpt lat="42.8735170" lon="-7.8076480">
        <ele>581.1</ele>
        <time>2020-10-19T13:27:02Z</time>
      </trkpt>
      <trkpt lat="42.8735180" lon="-7.8076680">
        <ele>581.1</ele>
        <time>2020-10-19T13:27:03Z</time>
      </trkpt>
      <trkpt lat="42.8735190" lon="-7.8076900">
        <ele>581.1</ele>
        <time>2020-10-19T13:27:04Z</time>
      </trkpt>
      <trkpt lat="42.8735220" lon="-7.8077150">
        <ele>581.0</ele>
        <time>2020-10-19T13:27:05Z</time>
      </trkpt>
      <trkpt lat="42.8735280" lon="-7.8077400">
        <ele>581.0</ele>
        <time>2020-10-19T13:27:06Z</time>
      </trkpt>
      <trkpt lat="42.8735370" lon="-7.8077670">
        <ele>580.9</ele>
        <time>2020-10-19T13:27:07Z</time>
      </trkpt>
      <trkpt lat="42.8735460" lon="-7.8077990">
        <ele>580.9</ele>
        <time>2020-10-19T13:27:08Z</time>
      </trkpt>
      <trkpt lat="42.8735560" lon="-7.8078290">
        <ele>580.9</ele>
        <time>2020-10-19T13:27:09Z</time>
      </trkpt>
      <trkpt lat="42.8735640" lon="-7.8078590">
        <ele>580.8</ele>
        <time>2020-10-19T13:27:10Z</time>
      </trkpt>
      <trkpt lat="42.8735730" lon="-7.8078860">
        <ele>580.8</ele>
        <time>2020-10-19T13:27:11Z</time>
      </trkpt>
      <trkpt lat="42.8735840" lon="-7.8079150">
        <ele>580.8</ele>
        <time>2020-10-19T13:27:12Z</time>
      </trkpt>
      <trkpt lat="42.8735960" lon="-7.8079420">
        <ele>580.8</ele>
        <time>2020-10-19T13:27:13Z</time>
      </trkpt>
      <trkpt lat="42.8736090" lon="-7.8079710">
        <ele>580.7</ele>
        <time>2020-10-19T13:27:14Z</time>
      </trkpt>
      <trkpt lat="42.8736230" lon="-7.8080010">
        <ele>580.7</ele>
        <time>2020-10-19T13:27:15Z</time>
      </trkpt>
      <trkpt lat="42.8736390" lon="-7.8080330">
        <ele>580.7</ele>
        <time>2020-10-19T13:27:16Z</time>
      </trkpt>
      <trkpt lat="42.8736530" lon="-7.8080640">
        <ele>580.7</ele>
        <time>2020-10-19T13:27:17Z</time>
      </trkpt>
      <trkpt lat="42.8736670" lon="-7.8080980">
        <ele>580.7</ele>
        <time>2020-10-19T13:27:18Z</time>
      </trkpt>
      <trkpt lat="42.8736770" lon="-7.8081320">
        <ele>580.7</ele>
        <time>2020-10-19T13:27:19Z</time>
      </trkpt>
      <trkpt lat="42.8736890" lon="-7.8081710">
        <ele>580.7</ele>
        <time>2020-10-19T13:27:20Z</time>
      </trkpt>
      <trkpt lat="42.8737000" lon="-7.8082100">
        <ele>580.7</ele>
        <time>2020-10-19T13:27:21Z</time>
      </trkpt>
      <trkpt lat="42.8737130" lon="-7.8082500">
        <ele>580.7</ele>
        <time>2020-10-19T13:27:22Z</time>
      </trkpt>
      <trkpt lat="42.8737240" lon="-7.8082910">
        <ele>580.8</ele>
        <time>2020-10-19T13:27:23Z</time>
      </trkpt>
      <trkpt lat="42.8737340" lon="-7.8083300">
        <ele>580.8</ele>
        <time>2020-10-19T13:27:24Z</time>
      </trkpt>
      <trkpt lat="42.8737410" lon="-7.8083600">
        <ele>580.9</ele>
        <time>2020-10-19T13:27:25Z</time>
      </trkpt>
      <trkpt lat="42.8737480" lon="-7.8083800">
        <ele>580.9</ele>
        <time>2020-10-19T13:27:26Z</time>
      </trkpt>
      <trkpt lat="42.8737510" lon="-7.8083940">
        <ele>581.0</ele>
        <time>2020-10-19T13:27:27Z</time>
      </trkpt>
      <trkpt lat="42.8737510" lon="-7.8083990">
        <ele>581.0</ele>
        <time>2020-10-19T13:27:28Z</time>
      </trkpt>
      <trkpt lat="42.8737480" lon="-7.8083990">
        <ele>581.0</ele>
        <time>2020-10-19T13:27:29Z</time>
      </trkpt>
      <trkpt lat="42.8737440" lon="-7.8083990">
        <ele>581.0</ele>
        <time>2020-10-19T13:27:30Z</time>
      </trkpt>
      <trkpt lat="42.8737410" lon="-7.8084040">
        <ele>581.0</ele>
        <time>2020-10-19T13:27:31Z</time>
      </trkpt>
      <trkpt lat="42.8737400" lon="-7.8084080">
        <ele>581.0</ele>
        <time>2020-10-19T13:27:32Z</time>
      </trkpt>
      <trkpt lat="42.8737400" lon="-7.8084100">
        <ele>581.0</ele>
        <time>2020-10-19T13:27:33Z</time>
      </trkpt>
      <trkpt lat="42.8737400" lon="-7.8084100">
        <ele>581.0</ele>
        <time>2020-10-19T13:27:34Z</time>
      </trkpt>
      <trkpt lat="42.8737420" lon="-7.8084120">
        <ele>581.0</ele>
        <time>2020-10-19T13:27:35Z</time>
      </trkpt>
      <trkpt lat="42.8737430" lon="-7.8084130">
        <ele>581.0</ele>
        <time>2020-10-19T13:27:36Z</time>
      </trkpt>
      <trkpt lat="42.8737450" lon="-7.8084140">
        <ele>581.0</ele>
        <time>2020-10-19T13:27:37Z</time>
      </trkpt>
      <trkpt lat="42.8737450" lon="-7.8084150">
        <ele>581.0</ele>
        <time>2020-10-19T13:27:38Z</time>
      </trkpt>
      <trkpt lat="42.8737450" lon="-7.8084150">
        <ele>581.0</ele>
        <time>2020-10-19T13:27:39Z</time>
      </trkpt>
      <trkpt lat="42.8737440" lon="-7.8084150">
        <ele>581.0</ele>
        <time>2020-10-19T13:27:40Z</time>
      </trkpt>
      <trkpt lat="42.8737430" lon="-7.8084170">
        <ele>581.0</ele>
        <time>2020-10-19T13:27:41Z</time>
      </trkpt>
      <trkpt lat="42.8737420" lon="-7.8084220">
        <ele>581.1</ele>
        <time>2020-10-19T13:27:42Z</time>
      </trkpt>
      <trkpt lat="42.8737400" lon="-7.8084320">
        <ele>581.1</ele>
        <time>2020-10-19T13:27:43Z</time>
      </trkpt>
      <trkpt lat="42.8737390" lon="-7.8084430">
        <ele>581.1</ele>
        <time>2020-10-19T13:27:44Z</time>
      </trkpt>
      <trkpt lat="42.8737370" lon="-7.8084550">
        <ele>581.1</ele>
        <time>2020-10-19T13:27:45Z</time>
      </trkpt>
      <trkpt lat="42.8737350" lon="-7.8084670">
        <ele>581.2</ele>
        <time>2020-10-19T13:27:46Z</time>
      </trkpt>
      <trkpt lat="42.8737320" lon="-7.8084800">
        <ele>581.2</ele>
        <time>2020-10-19T13:27:47Z</time>
      </trkpt>
      <trkpt lat="42.8737290" lon="-7.8084920">
        <ele>581.2</ele>
        <time>2020-10-19T13:27:48Z</time>
      </trkpt>
      <trkpt lat="42.8737260" lon="-7.8085050">
        <ele>581.3</ele>
        <time>2020-10-19T13:27:49Z</time>
      </trkpt>
      <trkpt lat="42.8737220" lon="-7.8085190">
        <ele>581.3</ele>
        <time>2020-10-19T13:27:50Z</time>
      </trkpt>
      <trkpt lat="42.8737180" lon="-7.8085340">
        <ele>581.4</ele>
        <time>2020-10-19T13:27:51Z</time>
      </trkpt>
      <trkpt lat="42.8737150" lon="-7.8085510">
        <ele>581.4</ele>
        <time>2020-10-19T13:27:52Z</time>
      </trkpt>
      <trkpt lat="42.8737140" lon="-7.8085690">
        <ele>581.4</ele>
        <time>2020-10-19T13:27:53Z</time>
      </trkpt>
      <trkpt lat="42.8737130" lon="-7.8085880">
        <ele>581.5</ele>
        <time>2020-10-19T13:27:54Z</time>
      </trkpt>
      <trkpt lat="42.8737140" lon="-7.8086110">
        <ele>581.6</ele>
        <time>2020-10-19T13:27:55Z</time>
      </trkpt>
      <trkpt lat="42.8737150" lon="-7.8086340">
        <ele>581.6</ele>
        <time>2020-10-19T13:27:56Z</time>
      </trkpt>
      <trkpt lat="42.8737160" lon="-7.8086580">
        <ele>581.7</ele>
        <time>2020-10-19T13:27:57Z</time>
      </trkpt>
      <trkpt lat="42.8737140" lon="-7.8086780">
        <ele>581.8</ele>
        <time>2020-10-19T13:27:58Z</time>
      </trkpt>
      <trkpt lat="42.8737130" lon="-7.8086970">
        <ele>581.8</ele>
        <time>2020-10-19T13:27:59Z</time>
      </trkpt>
      <trkpt lat="42.8737120" lon="-7.8087160">
        <ele>581.9</ele>
        <time>2020-10-19T13:28:00Z</time>
      </trkpt>
      <trkpt lat="42.8737120" lon="-7.8087330">
        <ele>581.9</ele>
        <time>2020-10-19T13:28:01Z</time>
      </trkpt>
      <trkpt lat="42.8737120" lon="-7.8087490">
        <ele>582.0</ele>
        <time>2020-10-19T13:28:02Z</time>
      </trkpt>
      <trkpt lat="42.8737120" lon="-7.8087660">
        <ele>582.0</ele>
        <time>2020-10-19T13:28:03Z</time>
      </trkpt>
      <trkpt lat="42.8737100" lon="-7.8087860">
        <ele>582.1</ele>
        <time>2020-10-19T13:28:04Z</time>
      </trkpt>
      <trkpt lat="42.8737080" lon="-7.8088050">
        <ele>582.1</ele>
        <time>2020-10-19T13:28:05Z</time>
      </trkpt>
      <trkpt lat="42.8737050" lon="-7.8088250">
        <ele>582.2</ele>
        <time>2020-10-19T13:28:06Z</time>
      </trkpt>
      <trkpt lat="42.8737060" lon="-7.8088470">
        <ele>582.3</ele>
        <time>2020-10-19T13:28:07Z</time>
      </trkpt>
      <trkpt lat="42.8737090" lon="-7.8088740">
        <ele>582.4</ele>
        <time>2020-10-19T13:28:08Z</time>
      </trkpt>
      <trkpt lat="42.8737110" lon="-7.8089000">
        <ele>582.5</ele>
        <time>2020-10-19T13:28:09Z</time>
      </trkpt>
      <trkpt lat="42.8737100" lon="-7.8089240">
        <ele>582.5</ele>
        <time>2020-10-19T13:28:10Z</time>
      </trkpt>
      <trkpt lat="42.8737070" lon="-7.8089450">
        <ele>582.6</ele>
        <time>2020-10-19T13:28:11Z</time>
      </trkpt>
      <trkpt lat="42.8737030" lon="-7.8089670">
        <ele>582.7</ele>
        <time>2020-10-19T13:28:12Z</time>
      </trkpt>
      <trkpt lat="42.8736970" lon="-7.8089880">
        <ele>582.8</ele>
        <time>2020-10-19T13:28:13Z</time>
      </trkpt>
      <trkpt lat="42.8736910" lon="-7.8090080">
        <ele>582.8</ele>
        <time>2020-10-19T13:28:14Z</time>
      </trkpt>
      <trkpt lat="42.8736830" lon="-7.8090280">
        <ele>582.9</ele>
        <time>2020-10-19T13:28:15Z</time>
      </trkpt>
      <trkpt lat="42.8736770" lon="-7.8090480">
        <ele>583.0</ele>
        <time>2020-10-19T13:28:16Z</time>
      </trkpt>
      <trkpt lat="42.8736700" lon="-7.8090680">
        <ele>583.1</ele>
        <time>2020-10-19T13:28:17Z</time>
      </trkpt>
      <trkpt lat="42.8736620" lon="-7.8090870">
        <ele>583.1</ele>
        <time>2020-10-19T13:28:18Z</time>
      </trkpt>
      <trkpt lat="42.8736530" lon="-7.8091070">
        <ele>583.2</ele>
        <time>2020-10-19T13:28:19Z</time>
      </trkpt>
      <trkpt lat="42.8736450" lon="-7.8091260">
        <ele>583.3</ele>
        <time>2020-10-19T13:28:20Z</time>
      </trkpt>
      <trkpt lat="42.8736380" lon="-7.8091460">
        <ele>583.4</ele>
        <time>2020-10-19T13:28:21Z</time>
      </trkpt>
      <trkpt lat="42.8736300" lon="-7.8091660">
        <ele>583.5</ele>
        <time>2020-10-19T13:28:22Z</time>
      </trkpt>
      <trkpt lat="42.8736220" lon="-7.8091860">
        <ele>583.6</ele>
        <time>2020-10-19T13:28:23Z</time>
      </trkpt>
      <trkpt lat="42.8736170" lon="-7.8092050">
        <ele>583.7</ele>
        <time>2020-10-19T13:28:24Z</time>
      </trkpt>
      <trkpt lat="42.8736120" lon="-7.8092220">
        <ele>583.7</ele>
        <time>2020-10-19T13:28:25Z</time>
      </trkpt>
      <trkpt lat="42.8736080" lon="-7.8092390">
        <ele>583.8</ele>
        <time>2020-10-19T13:28:26Z</time>
      </trkpt>
      <trkpt lat="42.8736030" lon="-7.8092570">
        <ele>583.9</ele>
        <time>2020-10-19T13:28:27Z</time>
      </trkpt>
      <trkpt lat="42.8735990" lon="-7.8092750">
        <ele>584.0</ele>
        <time>2020-10-19T13:28:28Z</time>
      </trkpt>
      <trkpt lat="42.8735940" lon="-7.8092930">
        <ele>584.0</ele>
        <time>2020-10-19T13:28:29Z</time>
      </trkpt>
      <trkpt lat="42.8735900" lon="-7.8093110">
        <ele>584.1</ele>
        <time>2020-10-19T13:28:30Z</time>
      </trkpt>
      <trkpt lat="42.8735870" lon="-7.8093280">
        <ele>584.2</ele>
        <time>2020-10-19T13:28:31Z</time>
      </trkpt>
      <trkpt lat="42.8735840" lon="-7.8093450">
        <ele>584.3</ele>
        <time>2020-10-19T13:28:32Z</time>
      </trkpt>
      <trkpt lat="42.8735810" lon="-7.8093610">
        <ele>584.3</ele>
        <time>2020-10-19T13:28:33Z</time>
      </trkpt>
      <trkpt lat="42.8735770" lon="-7.8093760">
        <ele>584.4</ele>
        <time>2020-10-19T13:28:34Z</time>
      </trkpt>
      <trkpt lat="42.8735730" lon="-7.8093890">
        <ele>584.4</ele>
        <time>2020-10-19T13:28:35Z</time>
      </trkpt>
      <trkpt lat="42.8735690" lon="-7.8094010">
        <ele>584.5</ele>
        <time>2020-10-19T13:28:36Z</time>
      </trkpt>
      <trkpt lat="42.8735650" lon="-7.8094080">
        <ele>584.5</ele>
        <time>2020-10-19T13:28:37Z</time>
      </trkpt>
      <trkpt lat="42.8735630" lon="-7.8094120">
        <ele>584.5</ele>
        <time>2020-10-19T13:28:38Z</time>
      </trkpt>
      <trkpt lat="42.8735620" lon="-7.8094120">
        <ele>584.6</ele>
        <time>2020-10-19T13:28:39Z</time>
      </trkpt>
      <trkpt lat="42.8735620" lon="-7.8094120">
        <ele>584.6</ele>
        <time>2020-10-19T13:28:40Z</time>
      </trkpt>
      <trkpt lat="42.8735600" lon="-7.8094120">
        <ele>584.6</ele>
        <time>2020-10-19T13:28:41Z</time>
      </trkpt>
      <trkpt lat="42.8735590" lon="-7.8094140">
        <ele>584.6</ele>
        <time>2020-10-19T13:28:42Z</time>
      </trkpt>
      <trkpt lat="42.8735580" lon="-7.8094170">
        <ele>584.6</ele>
        <time>2020-10-19T13:28:43Z</time>
      </trkpt>
      <trkpt lat="42.8735570" lon="-7.8094180">
        <ele>584.6</ele>
        <time>2020-10-19T13:28:44Z</time>
      </trkpt>
      <trkpt lat="42.8735570" lon="-7.8094190">
        <ele>584.6</ele>
        <time>2020-10-19T13:28:45Z</time>
      </trkpt>
      <trkpt lat="42.8735550" lon="-7.8094190">
        <ele>584.6</ele>
        <time>2020-10-19T13:28:46Z</time>
      </trkpt>
      <trkpt lat="42.8735540" lon="-7.8094200">
        <ele>584.6</ele>
        <time>2020-10-19T13:28:47Z</time>
      </trkpt>
      <trkpt lat="42.8735540" lon="-7.8094220">
        <ele>584.6</ele>
        <time>2020-10-19T13:28:48Z</time>
      </trkpt>
      <trkpt lat="42.8735530" lon="-7.8094240">
        <ele>584.6</ele>
        <time>2020-10-19T13:28:49Z</time>
      </trkpt>
      <trkpt lat="42.8735520" lon="-7.8094250">
        <ele>584.6</ele>
        <time>2020-10-19T13:28:50Z</time>
      </trkpt>
      <trkpt lat="42.8735510" lon="-7.8094260">
        <ele>584.6</ele>
        <time>2020-10-19T13:28:51Z</time>
      </trkpt>
      <trkpt lat="42.8735490" lon="-7.8094280">
        <ele>584.7</ele>
        <time>2020-10-19T13:28:52Z</time>
      </trkpt>
      <trkpt lat="42.8735470" lon="-7.8094320">
        <ele>584.7</ele>
        <time>2020-10-19T13:28:53Z</time>
      </trkpt>
      <trkpt lat="42.8735450" lon="-7.8094380">
        <ele>584.7</ele>
        <time>2020-10-19T13:28:54Z</time>
      </trkpt>
      <trkpt lat="42.8735430" lon="-7.8094460">
        <ele>584.7</ele>
        <time>2020-10-19T13:28:55Z</time>
      </trkpt>
      <trkpt lat="42.8735410" lon="-7.8094570">
        <ele>584.8</ele>
        <time>2020-10-19T13:28:56Z</time>
      </trkpt>
      <trkpt lat="42.8735380" lon="-7.8094700">
        <ele>584.8</ele>
        <time>2020-10-19T13:28:57Z</time>
      </trkpt>
      <trkpt lat="42.8735350" lon="-7.8094870">
        <ele>584.9</ele>
        <time>2020-10-19T13:28:58Z</time>
      </trkpt>
      <trkpt lat="42.8735310" lon="-7.8095050">
        <ele>585.0</ele>
        <time>2020-10-19T13:28:59Z</time>
      </trkpt>
      <trkpt lat="42.8735260" lon="-7.8095260">
        <ele>585.0</ele>
        <time>2020-10-19T13:29:00Z</time>
      </trkpt>
      <trkpt lat="42.8735200" lon="-7.8095440">
        <ele>585.1</ele>
        <time>2020-10-19T13:29:01Z</time>
      </trkpt>
      <trkpt lat="42.8735140" lon="-7.8095600">
        <ele>585.2</ele>
        <time>2020-10-19T13:29:02Z</time>
      </trkpt>
      <trkpt lat="42.8735070" lon="-7.8095760">
        <ele>585.2</ele>
        <time>2020-10-19T13:29:03Z</time>
      </trkpt>
      <trkpt lat="42.8734970" lon="-7.8095940">
        <ele>585.3</ele>
        <time>2020-10-19T13:29:04Z</time>
      </trkpt>
      <trkpt lat="42.8734870" lon="-7.8096110">
        <ele>585.4</ele>
        <time>2020-10-19T13:29:05Z</time>
      </trkpt>
      <trkpt lat="42.8734770" lon="-7.8096260">
        <ele>585.5</ele>
        <time>2020-10-19T13:29:06Z</time>
      </trkpt>
      <trkpt lat="42.8734700" lon="-7.8096400">
        <ele>585.5</ele>
        <time>2020-10-19T13:29:07Z</time>
      </trkpt>
      <trkpt lat="42.8734630" lon="-7.8096560">
        <ele>585.6</ele>
        <time>2020-10-19T13:29:08Z</time>
      </trkpt>
      <trkpt lat="42.8734560" lon="-7.8096750">
        <ele>585.7</ele>
        <time>2020-10-19T13:29:09Z</time>
      </trkpt>
      <trkpt lat="42.8734490" lon="-7.8096950">
        <ele>585.7</ele>
        <time>2020-10-19T13:29:10Z</time>
      </trkpt>
      <trkpt lat="42.8734410" lon="-7.8097150">
        <ele>585.8</ele>
        <time>2020-10-19T13:29:11Z</time>
      </trkpt>
      <trkpt lat="42.8734330" lon="-7.8097320">
        <ele>585.9</ele>
        <time>2020-10-19T13:29:12Z</time>
      </trkpt>
      <trkpt lat="42.8734240" lon="-7.8097500">
        <ele>585.9</ele>
        <time>2020-10-19T13:29:13Z</time>
      </trkpt>
      <trkpt lat="42.8734140" lon="-7.8097680">
        <ele>586.0</ele>
        <time>2020-10-19T13:29:14Z</time>
      </trkpt>
      <trkpt lat="42.8734040" lon="-7.8097840">
        <ele>586.1</ele>
        <time>2020-10-19T13:29:15Z</time>
      </trkpt>
      <trkpt lat="42.8733940" lon="-7.8097970">
        <ele>586.1</ele>
        <time>2020-10-19T13:29:16Z</time>
      </trkpt>
      <trkpt lat="42.8733890" lon="-7.8098030">
        <ele>586.1</ele>
        <time>2020-10-19T13:29:17Z</time>
      </trkpt>
      <trkpt lat="42.8733870" lon="-7.8098060">
        <ele>586.2</ele>
        <time>2020-10-19T13:29:18Z</time>
      </trkpt>
      <trkpt lat="42.8733870" lon="-7.8098070">
        <ele>586.2</ele>
        <time>2020-10-19T13:29:19Z</time>
      </trkpt>
      <trkpt lat="42.8733850" lon="-7.8098100">
        <ele>586.2</ele>
        <time>2020-10-19T13:29:20Z</time>
      </trkpt>
      <trkpt lat="42.8733830" lon="-7.8098130">
        <ele>586.2</ele>
        <time>2020-10-19T13:29:21Z</time>
      </trkpt>
      <trkpt lat="42.8733820" lon="-7.8098160">
        <ele>586.2</ele>
        <time>2020-10-19T13:29:22Z</time>
      </trkpt>
      <trkpt lat="42.8733810" lon="-7.8098190">
        <ele>586.2</ele>
        <time>2020-10-19T13:29:23Z</time>
      </trkpt>
      <trkpt lat="42.8733800" lon="-7.8098220">
        <ele>586.2</ele>
        <time>2020-10-19T13:29:24Z</time>
      </trkpt>
      <trkpt lat="42.8733780" lon="-7.8098230">
        <ele>586.2</ele>
        <time>2020-10-19T13:29:25Z</time>
      </trkpt>
      <trkpt lat="42.8733770" lon="-7.8098260">
        <ele>586.2</ele>
        <time>2020-10-19T13:29:26Z</time>
      </trkpt>
      <trkpt lat="42.8733760" lon="-7.8098300">
        <ele>586.2</ele>
        <time>2020-10-19T13:29:27Z</time>
      </trkpt>
      <trkpt lat="42.8733760" lon="-7.8098360">
        <ele>586.2</ele>
        <time>2020-10-19T13:29:28Z</time>
      </trkpt>
      <trkpt lat="42.8733740" lon="-7.8098470">
        <ele>586.3</ele>
        <time>2020-10-19T13:29:29Z</time>
      </trkpt>
      <trkpt lat="42.8733710" lon="-7.8098630">
        <ele>586.3</ele>
        <time>2020-10-19T13:29:30Z</time>
      </trkpt>
      <trkpt lat="42.8733650" lon="-7.8098820">
        <ele>586.4</ele>
        <time>2020-10-19T13:29:31Z</time>
      </trkpt>
      <trkpt lat="42.8733580" lon="-7.8099000">
        <ele>586.4</ele>
        <time>2020-10-19T13:29:32Z</time>
      </trkpt>
      <trkpt lat="42.8733500" lon="-7.8099150">
        <ele>586.5</ele>
        <time>2020-10-19T13:29:33Z</time>
      </trkpt>
      <trkpt lat="42.8733430" lon="-7.8099300">
        <ele>586.5</ele>
        <time>2020-10-19T13:29:34Z</time>
      </trkpt>
      <trkpt lat="42.8733360" lon="-7.8099440">
        <ele>586.5</ele>
        <time>2020-10-19T13:29:35Z</time>
      </trkpt>
      <trkpt lat="42.8733300" lon="-7.8099600">
        <ele>586.6</ele>
        <time>2020-10-19T13:29:36Z</time>
      </trkpt>
      <trkpt lat="42.8733230" lon="-7.8099770">
        <ele>586.6</ele>
        <time>2020-10-19T13:29:37Z</time>
      </trkpt>
      <trkpt lat="42.8733180" lon="-7.8099950">
        <ele>586.7</ele>
        <time>2020-10-19T13:29:38Z</time>
      </trkpt>
      <trkpt lat="42.8733090" lon="-7.8100130">
        <ele>586.7</ele>
        <time>2020-10-19T13:29:39Z</time>
      </trkpt>
      <trkpt lat="42.8733010" lon="-7.8100300">
        <ele>586.7</ele>
        <time>2020-10-19T13:29:40Z</time>
      </trkpt>
      <trkpt lat="42.8732920" lon="-7.8100450">
        <ele>586.8</ele>
        <time>2020-10-19T13:29:41Z</time>
      </trkpt>
      <trkpt lat="42.8732850" lon="-7.8100610">
        <ele>586.8</ele>
        <time>2020-10-19T13:29:42Z</time>
      </trkpt>
      <trkpt lat="42.8732780" lon="-7.8100770">
        <ele>586.8</ele>
        <time>2020-10-19T13:29:43Z</time>
      </trkpt>
      <trkpt lat="42.8732700" lon="-7.8100950">
        <ele>586.9</ele>
        <time>2020-10-19T13:29:44Z</time>
      </trkpt>
      <trkpt lat="42.8732610" lon="-7.8101130">
        <ele>586.9</ele>
        <time>2020-10-19T13:29:45Z</time>
      </trkpt>
      <trkpt lat="42.8732540" lon="-7.8101300">
        <ele>587.0</ele>
        <time>2020-10-19T13:29:46Z</time>
      </trkpt>
      <trkpt lat="42.8732470" lon="-7.8101480">
        <ele>587.0</ele>
        <time>2020-10-19T13:29:47Z</time>
      </trkpt>
      <trkpt lat="42.8732400" lon="-7.8101680">
        <ele>587.0</ele>
        <time>2020-10-19T13:29:48Z</time>
      </trkpt>
      <trkpt lat="42.8732330" lon="-7.8101880">
        <ele>587.1</ele>
        <time>2020-10-19T13:29:49Z</time>
      </trkpt>
      <trkpt lat="42.8732250" lon="-7.8102070">
        <ele>587.1</ele>
        <time>2020-10-19T13:29:50Z</time>
      </trkpt>
      <trkpt lat="42.8732180" lon="-7.8102240">
        <ele>587.1</ele>
        <time>2020-10-19T13:29:51Z</time>
      </trkpt>
      <trkpt lat="42.8732110" lon="-7.8102410">
        <ele>587.2</ele>
        <time>2020-10-19T13:29:52Z</time>
      </trkpt>
      <trkpt lat="42.8732040" lon="-7.8102600">
        <ele>587.2</ele>
        <time>2020-10-19T13:29:53Z</time>
      </trkpt>
      <trkpt lat="42.8731980" lon="-7.8102780">
        <ele>587.2</ele>
        <time>2020-10-19T13:29:54Z</time>
      </trkpt>
      <trkpt lat="42.8731900" lon="-7.8102960">
        <ele>587.3</ele>
        <time>2020-10-19T13:29:55Z</time>
      </trkpt>
      <trkpt lat="42.8731810" lon="-7.8103130">
        <ele>587.3</ele>
        <time>2020-10-19T13:29:56Z</time>
      </trkpt>
      <trkpt lat="42.8731710" lon="-7.8103300">
        <ele>587.3</ele>
        <time>2020-10-19T13:29:57Z</time>
      </trkpt>
      <trkpt lat="42.8731640" lon="-7.8103460">
        <ele>587.3</ele>
        <time>2020-10-19T13:29:58Z</time>
      </trkpt>
      <trkpt lat="42.8731590" lon="-7.8103610">
        <ele>587.4</ele>
        <time>2020-10-19T13:29:59Z</time>
      </trkpt>
      <trkpt lat="42.8731540" lon="-7.8103780">
        <ele>587.4</ele>
        <time>2020-10-19T13:30:00Z</time>
      </trkpt>
      <trkpt lat="42.8731480" lon="-7.8103970">
        <ele>587.4</ele>
        <time>2020-10-19T13:30:01Z</time>
      </trkpt>
      <trkpt lat="42.8731400" lon="-7.8104190">
        <ele>587.4</ele>
        <time>2020-10-19T13:30:02Z</time>
      </trkpt>
      <trkpt lat="42.8731300" lon="-7.8104390">
        <ele>587.5</ele>
        <time>2020-10-19T13:30:03Z</time>
      </trkpt>
      <trkpt lat="42.8731210" lon="-7.8104590">
        <ele>587.5</ele>
        <time>2020-10-19T13:30:04Z</time>
      </trkpt>
      <trkpt lat="42.8731120" lon="-7.8104760">
        <ele>587.5</ele>
        <time>2020-10-19T13:30:05Z</time>
      </trkpt>
      <trkpt lat="42.8731040" lon="-7.8104930">
        <ele>587.6</ele>
        <time>2020-10-19T13:30:06Z</time>
      </trkpt>
      <trkpt lat="42.8730970" lon="-7.8105090">
        <ele>587.6</ele>
        <time>2020-10-19T13:30:07Z</time>
      </trkpt>
      <trkpt lat="42.8730890" lon="-7.8105270">
        <ele>587.6</ele>
        <time>2020-10-19T13:30:08Z</time>
      </trkpt>
      <trkpt lat="42.8730800" lon="-7.8105450">
        <ele>587.6</ele>
        <time>2020-10-19T13:30:09Z</time>
      </trkpt>
      <trkpt lat="42.8730720" lon="-7.8105620">
        <ele>587.7</ele>
        <time>2020-10-19T13:30:10Z</time>
      </trkpt>
      <trkpt lat="42.8730630" lon="-7.8105790">
        <ele>587.7</ele>
        <time>2020-10-19T13:30:11Z</time>
      </trkpt>
      <trkpt lat="42.8730530" lon="-7.8105960">
        <ele>587.7</ele>
        <time>2020-10-19T13:30:12Z</time>
      </trkpt>
      <trkpt lat="42.8730430" lon="-7.8106120">
        <ele>587.7</ele>
        <time>2020-10-19T13:30:13Z</time>
      </trkpt>
      <trkpt lat="42.8730350" lon="-7.8106300">
        <ele>587.8</ele>
        <time>2020-10-19T13:30:14Z</time>
      </trkpt>
      <trkpt lat="42.8730240" lon="-7.8106460">
        <ele>587.8</ele>
        <time>2020-10-19T13:30:15Z</time>
      </trkpt>
      <trkpt lat="42.8730150" lon="-7.8106630">
        <ele>587.8</ele>
        <time>2020-10-19T13:30:16Z</time>
      </trkpt>
      <trkpt lat="42.8730050" lon="-7.8106780">
        <ele>587.9</ele>
        <time>2020-10-19T13:30:17Z</time>
      </trkpt>
      <trkpt lat="42.8729960" lon="-7.8106940">
        <ele>587.9</ele>
        <time>2020-10-19T13:30:18Z</time>
      </trkpt>
      <trkpt lat="42.8729850" lon="-7.8107120">
        <ele>587.9</ele>
        <time>2020-10-19T13:30:19Z</time>
      </trkpt>
      <trkpt lat="42.8729740" lon="-7.8107300">
        <ele>587.9</ele>
        <time>2020-10-19T13:30:20Z</time>
      </trkpt>
      <trkpt lat="42.8729630" lon="-7.8107470">
        <ele>588.0</ele>
        <time>2020-10-19T13:30:21Z</time>
      </trkpt>
      <trkpt lat="42.8729520" lon="-7.8107620">
        <ele>588.0</ele>
        <time>2020-10-19T13:30:22Z</time>
      </trkpt>
      <trkpt lat="42.8729420" lon="-7.8107770">
        <ele>588.0</ele>
        <time>2020-10-19T13:30:23Z</time>
      </trkpt>
      <trkpt lat="42.8729310" lon="-7.8107910">
        <ele>588.0</ele>
        <time>2020-10-19T13:30:24Z</time>
      </trkpt>
      <trkpt lat="42.8729210" lon="-7.8108060">
        <ele>588.0</ele>
        <time>2020-10-19T13:30:25Z</time>
      </trkpt>
      <trkpt lat="42.8729120" lon="-7.8108210">
        <ele>588.1</ele>
        <time>2020-10-19T13:30:26Z</time>
      </trkpt>
      <trkpt lat="42.8729020" lon="-7.8108370">
        <ele>588.1</ele>
        <time>2020-10-19T13:30:27Z</time>
      </trkpt>
      <trkpt lat="42.8728910" lon="-7.8108530">
        <ele>588.1</ele>
        <time>2020-10-19T13:30:28Z</time>
      </trkpt>
      <trkpt lat="42.8728810" lon="-7.8108680">
        <ele>588.1</ele>
        <time>2020-10-19T13:30:29Z</time>
      </trkpt>
      <trkpt lat="42.8728710" lon="-7.8108830">
        <ele>588.2</ele>
        <time>2020-10-19T13:30:30Z</time>
      </trkpt>
      <trkpt lat="42.8728610" lon="-7.8108990">
        <ele>588.2</ele>
        <time>2020-10-19T13:30:31Z</time>
      </trkpt>
      <trkpt lat="42.8728510" lon="-7.8109130">
        <ele>588.2</ele>
        <time>2020-10-19T13:30:32Z</time>
      </trkpt>
      <trkpt lat="42.8728410" lon="-7.8109280">
        <ele>588.2</ele>
        <time>2020-10-19T13:30:33Z</time>
      </trkpt>
      <trkpt lat="42.8728320" lon="-7.8109410">
        <ele>588.2</ele>
        <time>2020-10-19T13:30:34Z</time>
      </trkpt>
      <trkpt lat="42.8728220" lon="-7.8109550">
        <ele>588.3</ele>
        <time>2020-10-19T13:30:35Z</time>
      </trkpt>
      <trkpt lat="42.8728120" lon="-7.8109690">
        <ele>588.3</ele>
        <time>2020-10-19T13:30:36Z</time>
      </trkpt>
      <trkpt lat="42.8728030" lon="-7.8109840">
        <ele>588.3</ele>
        <time>2020-10-19T13:30:37Z</time>
      </trkpt>
      <trkpt lat="42.8727930" lon="-7.8109980">
        <ele>588.3</ele>
        <time>2020-10-19T13:30:38Z</time>
      </trkpt>
      <trkpt lat="42.8727840" lon="-7.8110110">
        <ele>588.4</ele>
        <time>2020-10-19T13:30:39Z</time>
      </trkpt>
      <trkpt lat="42.8727760" lon="-7.8110200">
        <ele>588.4</ele>
        <time>2020-10-19T13:30:40Z</time>
      </trkpt>
      <trkpt lat="42.8727690" lon="-7.8110270">
        <ele>588.4</ele>
        <time>2020-10-19T13:30:41Z</time>
      </trkpt>
      <trkpt lat="42.8727650" lon="-7.8110340">
        <ele>588.4</ele>
        <time>2020-10-19T13:30:42Z</time>
      </trkpt>
      <trkpt lat="42.8727590" lon="-7.8110450">
        <ele>588.4</ele>
        <time>2020-10-19T13:30:43Z</time>
      </trkpt>
      <trkpt lat="42.8727550" lon="-7.8110580">
        <ele>588.4</ele>
        <time>2020-10-19T13:30:44Z</time>
      </trkpt>
      <trkpt lat="42.8727500" lon="-7.8110740">
        <ele>588.4</ele>
        <time>2020-10-19T13:30:45Z</time>
      </trkpt>
      <trkpt lat="42.8727440" lon="-7.8110900">
        <ele>588.5</ele>
        <time>2020-10-19T13:30:46Z</time>
      </trkpt>
      <trkpt lat="42.8727340" lon="-7.8111070">
        <ele>588.5</ele>
        <time>2020-10-19T13:30:47Z</time>
      </trkpt>
      <trkpt lat="42.8727230" lon="-7.8111220">
        <ele>588.5</ele>
        <time>2020-10-19T13:30:48Z</time>
      </trkpt>
      <trkpt lat="42.8727120" lon="-7.8111370">
        <ele>588.6</ele>
        <time>2020-10-19T13:30:49Z</time>
      </trkpt>
      <trkpt lat="42.8727020" lon="-7.8111520">
        <ele>588.6</ele>
        <time>2020-10-19T13:30:50Z</time>
      </trkpt>
      <trkpt lat="42.8726930" lon="-7.8111670">
        <ele>588.6</ele>
        <time>2020-10-19T13:30:51Z</time>
      </trkpt>
      <trkpt lat="42.8726840" lon="-7.8111810">
        <ele>588.6</ele>
        <time>2020-10-19T13:30:52Z</time>
      </trkpt>
      <trkpt lat="42.8726770" lon="-7.8111950">
        <ele>588.6</ele>
        <time>2020-10-19T13:30:53Z</time>
      </trkpt>
      <trkpt lat="42.8726690" lon="-7.8112080">
        <ele>588.7</ele>
        <time>2020-10-19T13:30:54Z</time>
      </trkpt>
      <trkpt lat="42.8726600" lon="-7.8112230">
        <ele>588.7</ele>
        <time>2020-10-19T13:30:55Z</time>
      </trkpt>
      <trkpt lat="42.8726510" lon="-7.8112370">
        <ele>588.7</ele>
        <time>2020-10-19T13:30:56Z</time>
      </trkpt>
      <trkpt lat="42.8726410" lon="-7.8112510">
        <ele>588.7</ele>
        <time>2020-10-19T13:30:57Z</time>
      </trkpt>
      <trkpt lat="42.8726320" lon="-7.8112660">
        <ele>588.8</ele>
        <time>2020-10-19T13:30:58Z</time>
      </trkpt>
      <trkpt lat="42.8726240" lon="-7.8112810">
        <ele>588.8</ele>
        <time>2020-10-19T13:30:59Z</time>
      </trkpt>
      <trkpt lat="42.8726160" lon="-7.8112960">
        <ele>588.8</ele>
        <time>2020-10-19T13:31:00Z</time>
      </trkpt>
      <trkpt lat="42.8726080" lon="-7.8113100">
        <ele>588.8</ele>
        <time>2020-10-19T13:31:01Z</time>
      </trkpt>
      <trkpt lat="42.8725980" lon="-7.8113230">
        <ele>588.8</ele>
        <time>2020-10-19T13:31:02Z</time>
      </trkpt>
      <trkpt lat="42.8725880" lon="-7.8113360">
        <ele>588.9</ele>
        <time>2020-10-19T13:31:03Z</time>
      </trkpt>
      <trkpt lat="42.8725790" lon="-7.8113490">
        <ele>588.9</ele>
        <time>2020-10-19T13:31:04Z</time>
      </trkpt>
      <trkpt lat="42.8725720" lon="-7.8113630">
        <ele>588.9</ele>
        <time>2020-10-19T13:31:05Z</time>
      </trkpt>
      <trkpt lat="42.8725660" lon="-7.8113760">
        <ele>588.9</ele>
        <time>2020-10-19T13:31:06Z</time>
      </trkpt>
      <trkpt lat="42.8725600" lon="-7.8113880">
        <ele>588.9</ele>
        <time>2020-10-19T13:31:07Z</time>
      </trkpt>
      <trkpt lat="42.8725530" lon="-7.8114010">
        <ele>588.9</ele>
        <time>2020-10-19T13:31:08Z</time>
      </trkpt>
      <trkpt lat="42.8725460" lon="-7.8114130">
        <ele>589.0</ele>
        <time>2020-10-19T13:31:09Z</time>
      </trkpt>
      <trkpt lat="42.8725380" lon="-7.8114270">
        <ele>589.0</ele>
        <time>2020-10-19T13:31:10Z</time>
      </trkpt>
      <trkpt lat="42.8725290" lon="-7.8114400">
        <ele>589.0</ele>
        <time>2020-10-19T13:31:11Z</time>
      </trkpt>
      <trkpt lat="42.8725210" lon="-7.8114540">
        <ele>589.0</ele>
        <time>2020-10-19T13:31:12Z</time>
      </trkpt>
      <trkpt lat="42.8725130" lon="-7.8114680">
        <ele>589.0</ele>
        <time>2020-10-19T13:31:13Z</time>
      </trkpt>
      <trkpt lat="42.8725050" lon="-7.8114820">
        <ele>589.0</ele>
        <time>2020-10-19T13:31:14Z</time>
      </trkpt>
      <trkpt lat="42.8724980" lon="-7.8114960">
        <ele>589.1</ele>
        <time>2020-10-19T13:31:15Z</time>
      </trkpt>
      <trkpt lat="42.8724910" lon="-7.8115100">
        <ele>589.1</ele>
        <time>2020-10-19T13:31:16Z</time>
      </trkpt>
      <trkpt lat="42.8724840" lon="-7.8115250">
        <ele>589.1</ele>
        <time>2020-10-19T13:31:17Z</time>
      </trkpt>
      <trkpt lat="42.8724760" lon="-7.8115400">
        <ele>589.1</ele>
        <time>2020-10-19T13:31:18Z</time>
      </trkpt>
      <trkpt lat="42.8724680" lon="-7.8115560">
        <ele>589.1</ele>
        <time>2020-10-19T13:31:19Z</time>
      </trkpt>
      <trkpt lat="42.8724600" lon="-7.8115710">
        <ele>589.2</ele>
        <time>2020-10-19T13:31:20Z</time>
      </trkpt>
      <trkpt lat="42.8724530" lon="-7.8115870">
        <ele>589.2</ele>
        <time>2020-10-19T13:31:21Z</time>
      </trkpt>
      <trkpt lat="42.8724460" lon="-7.8116020">
        <ele>589.2</ele>
        <time>2020-10-19T13:31:22Z</time>
      </trkpt>
      <trkpt lat="42.8724390" lon="-7.8116170">
        <ele>589.2</ele>
        <time>2020-10-19T13:31:23Z</time>
      </trkpt>
      <trkpt lat="42.8724320" lon="-7.8116320">
        <ele>589.2</ele>
        <time>2020-10-19T13:31:24Z</time>
      </trkpt>
      <trkpt lat="42.8724250" lon="-7.8116470">
        <ele>589.3</ele>
        <time>2020-10-19T13:31:25Z</time>
      </trkpt>
      <trkpt lat="42.8724190" lon="-7.8116630">
        <ele>589.3</ele>
        <time>2020-10-19T13:31:26Z</time>
      </trkpt>
      <trkpt lat="42.8724130" lon="-7.8116780">
        <ele>589.3</ele>
        <time>2020-10-19T13:31:27Z</time>
      </trkpt>
      <trkpt lat="42.8724070" lon="-7.8116920">
        <ele>589.3</ele>
        <time>2020-10-19T13:31:28Z</time>
      </trkpt>
      <trkpt lat="42.8724020" lon="-7.8117050">
        <ele>589.4</ele>
        <time>2020-10-19T13:31:29Z</time>
      </trkpt>
      <trkpt lat="42.8723970" lon="-7.8117210">
        <ele>589.4</ele>
        <time>2020-10-19T13:31:30Z</time>
      </trkpt>
      <trkpt lat="42.8723910" lon="-7.8117370">
        <ele>589.4</ele>
        <time>2020-10-19T13:31:31Z</time>
      </trkpt>
      <trkpt lat="42.8723850" lon="-7.8117540">
        <ele>589.4</ele>
        <time>2020-10-19T13:31:32Z</time>
      </trkpt>
      <trkpt lat="42.8723800" lon="-7.8117720">
        <ele>589.4</ele>
        <time>2020-10-19T13:31:33Z</time>
      </trkpt>
      <trkpt lat="42.8723750" lon="-7.8117910">
        <ele>589.5</ele>
        <time>2020-10-19T13:31:34Z</time>
      </trkpt>
      <trkpt lat="42.8723700" lon="-7.8118110">
        <ele>589.5</ele>
        <time>2020-10-19T13:31:35Z</time>
      </trkpt>
      <trkpt lat="42.8723650" lon="-7.8118290">
        <ele>589.5</ele>
        <time>2020-10-19T13:31:36Z</time>
      </trkpt>
      <trkpt lat="42.8723600" lon="-7.8118470">
        <ele>589.5</ele>
        <time>2020-10-19T13:31:37Z</time>
      </trkpt>
      <trkpt lat="42.8723550" lon="-7.8118650">
        <ele>589.6</ele>
        <time>2020-10-19T13:31:38Z</time>
      </trkpt>
      <trkpt lat="42.8723500" lon="-7.8118830">
        <ele>589.6</ele>
        <time>2020-10-19T13:31:39Z</time>
      </trkpt>
      <trkpt lat="42.8723450" lon="-7.8118990">
        <ele>589.6</ele>
        <time>2020-10-19T13:31:40Z</time>
      </trkpt>
      <trkpt lat="42.8723420" lon="-7.8119170">
        <ele>589.6</ele>
        <time>2020-10-19T13:31:41Z</time>
      </trkpt>
      <trkpt lat="42.8723390" lon="-7.8119350">
        <ele>589.7</ele>
        <time>2020-10-19T13:31:42Z</time>
      </trkpt>
      <trkpt lat="42.8723370" lon="-7.8119540">
        <ele>589.7</ele>
        <time>2020-10-19T13:31:43Z</time>
      </trkpt>
      <trkpt lat="42.8723350" lon="-7.8119720">
        <ele>589.7</ele>
        <time>2020-10-19T13:31:44Z</time>
      </trkpt>
      <trkpt lat="42.8723320" lon="-7.8119900">
        <ele>589.8</ele>
        <time>2020-10-19T13:31:45Z</time>
      </trkpt>
      <trkpt lat="42.8723300" lon="-7.8120070">
        <ele>589.8</ele>
        <time>2020-10-19T13:31:46Z</time>
      </trkpt>
      <trkpt lat="42.8723270" lon="-7.8120250">
        <ele>589.8</ele>
        <time>2020-10-19T13:31:47Z</time>
      </trkpt>
      <trkpt lat="42.8723260" lon="-7.8120430">
        <ele>589.8</ele>
        <time>2020-10-19T13:31:48Z</time>
      </trkpt>
      <trkpt lat="42.8723240" lon="-7.8120620">
        <ele>589.9</ele>
        <time>2020-10-19T13:31:49Z</time>
      </trkpt>
      <trkpt lat="42.8723230" lon="-7.8120800">
        <ele>589.9</ele>
        <time>2020-10-19T13:31:50Z</time>
      </trkpt>
      <trkpt lat="42.8723210" lon="-7.8120970">
        <ele>589.9</ele>
        <time>2020-10-19T13:31:51Z</time>
      </trkpt>
      <trkpt lat="42.8723200" lon="-7.8121140">
        <ele>589.9</ele>
        <time>2020-10-19T13:31:52Z</time>
      </trkpt>
      <trkpt lat="42.8723190" lon="-7.8121320">
        <ele>590.0</ele>
        <time>2020-10-19T13:31:53Z</time>
      </trkpt>
      <trkpt lat="42.8723170" lon="-7.8121490">
        <ele>590.0</ele>
        <time>2020-10-19T13:31:54Z</time>
      </trkpt>
      <trkpt lat="42.8723150" lon="-7.8121660">
        <ele>590.0</ele>
        <time>2020-10-19T13:31:55Z</time>
      </trkpt>
      <trkpt lat="42.8723140" lon="-7.8121830">
        <ele>590.1</ele>
        <time>2020-10-19T13:31:56Z</time>
      </trkpt>
      <trkpt lat="42.8723140" lon="-7.8121970">
        <ele>590.1</ele>
        <time>2020-10-19T13:31:57Z</time>
      </trkpt>
      <trkpt lat="42.8723140" lon="-7.8122100">
        <ele>590.1</ele>
        <time>2020-10-19T13:31:58Z</time>
      </trkpt>
      <trkpt lat="42.8723130" lon="-7.8122210">
        <ele>590.1</ele>
        <time>2020-10-19T13:31:59Z</time>
      </trkpt>
      <trkpt lat="42.8723130" lon="-7.8122340">
        <ele>590.1</ele>
        <time>2020-10-19T13:32:00Z</time>
      </trkpt>
      <trkpt lat="42.8723140" lon="-7.8122490">
        <ele>590.2</ele>
        <time>2020-10-19T13:32:01Z</time>
      </trkpt>
      <trkpt lat="42.8723150" lon="-7.8122670">
        <ele>590.2</ele>
        <time>2020-10-19T13:32:02Z</time>
      </trkpt>
      <trkpt lat="42.8723130" lon="-7.8122840">
        <ele>590.2</ele>
        <time>2020-10-19T13:32:03Z</time>
      </trkpt>
      <trkpt lat="42.8723090" lon="-7.8122990">
        <ele>590.2</ele>
        <time>2020-10-19T13:32:04Z</time>
      </trkpt>
      <trkpt lat="42.8723070" lon="-7.8123150">
        <ele>590.3</ele>
        <time>2020-10-19T13:32:05Z</time>
      </trkpt>
      <trkpt lat="42.8723050" lon="-7.8123300">
        <ele>590.3</ele>
        <time>2020-10-19T13:32:06Z</time>
      </trkpt>
      <trkpt lat="42.8723030" lon="-7.8123470">
        <ele>590.3</ele>
        <time>2020-10-19T13:32:07Z</time>
      </trkpt>
      <trkpt lat="42.8723000" lon="-7.8123630">
        <ele>590.4</ele>
        <time>2020-10-19T13:32:08Z</time>
      </trkpt>
      <trkpt lat="42.8722980" lon="-7.8123790">
        <ele>590.4</ele>
        <time>2020-10-19T13:32:09Z</time>
      </trkpt>
      <trkpt lat="42.8722970" lon="-7.8123960">
        <ele>590.4</ele>
        <time>2020-10-19T13:32:10Z</time>
      </trkpt>
      <trkpt lat="42.8722970" lon="-7.8124140">
        <ele>590.4</ele>
        <time>2020-10-19T13:32:11Z</time>
      </trkpt>
      <trkpt lat="42.8722960" lon="-7.8124320">
        <ele>590.5</ele>
        <time>2020-10-19T13:32:12Z</time>
      </trkpt>
      <trkpt lat="42.8722950" lon="-7.8124490">
        <ele>590.5</ele>
        <time>2020-10-19T13:32:13Z</time>
      </trkpt>
      <trkpt lat="42.8722940" lon="-7.8124670">
        <ele>590.5</ele>
        <time>2020-10-19T13:32:14Z</time>
      </trkpt>
      <trkpt lat="42.8722920" lon="-7.8124850">
        <ele>590.6</ele>
        <time>2020-10-19T13:32:15Z</time>
      </trkpt>
      <trkpt lat="42.8722900" lon="-7.8125020">
        <ele>590.6</ele>
        <time>2020-10-19T13:32:16Z</time>
      </trkpt>
      <trkpt lat="42.8722880" lon="-7.8125200">
        <ele>590.6</ele>
        <time>2020-10-19T13:32:17Z</time>
      </trkpt>
      <trkpt lat="42.8722860" lon="-7.8125380">
        <ele>590.7</ele>
        <time>2020-10-19T13:32:18Z</time>
      </trkpt>
      <trkpt lat="42.8722860" lon="-7.8125560">
        <ele>590.7</ele>
        <time>2020-10-19T13:32:19Z</time>
      </trkpt>
      <trkpt lat="42.8722850" lon="-7.8125720">
        <ele>590.7</ele>
        <time>2020-10-19T13:32:20Z</time>
      </trkpt>
      <trkpt lat="42.8722850" lon="-7.8125900">
        <ele>590.8</ele>
        <time>2020-10-19T13:32:21Z</time>
      </trkpt>
      <trkpt lat="42.8722840" lon="-7.8126070">
        <ele>590.8</ele>
        <time>2020-10-19T13:32:22Z</time>
      </trkpt>
      <trkpt lat="42.8722840" lon="-7.8126250">
        <ele>590.8</ele>
        <time>2020-10-19T13:32:23Z</time>
      </trkpt>
      <trkpt lat="42.8722840" lon="-7.8126440">
        <ele>590.8</ele>
        <time>2020-10-19T13:32:24Z</time>
      </trkpt>
      <trkpt lat="42.8722830" lon="-7.8126630">
        <ele>590.9</ele>
        <time>2020-10-19T13:32:25Z</time>
      </trkpt>
      <trkpt lat="42.8722830" lon="-7.8126800">
        <ele>590.9</ele>
        <time>2020-10-19T13:32:26Z</time>
      </trkpt>
      <trkpt lat="42.8722830" lon="-7.8126970">
        <ele>590.9</ele>
        <time>2020-10-19T13:32:27Z</time>
      </trkpt>
      <trkpt lat="42.8722830" lon="-7.8127150">
        <ele>591.0</ele>
        <time>2020-10-19T13:32:28Z</time>
      </trkpt>
      <trkpt lat="42.8722820" lon="-7.8127330">
        <ele>591.0</ele>
        <time>2020-10-19T13:32:29Z</time>
      </trkpt>
      <trkpt lat="42.8722800" lon="-7.8127540">
        <ele>591.0</ele>
        <time>2020-10-19T13:32:30Z</time>
      </trkpt>
      <trkpt lat="42.8722760" lon="-7.8127780">
        <ele>591.1</ele>
        <time>2020-10-19T13:32:31Z</time>
      </trkpt>
      <trkpt lat="42.8722710" lon="-7.8128040">
        <ele>591.1</ele>
        <time>2020-10-19T13:32:32Z</time>
      </trkpt>
      <trkpt lat="42.8722670" lon="-7.8128350">
        <ele>591.2</ele>
        <time>2020-10-19T13:32:33Z</time>
      </trkpt>
      <trkpt lat="42.8722650" lon="-7.8128690">
        <ele>591.2</ele>
        <time>2020-10-19T13:32:34Z</time>
      </trkpt>
      <trkpt lat="42.8722620" lon="-7.8129060">
        <ele>591.3</ele>
        <time>2020-10-19T13:32:35Z</time>
      </trkpt>
      <trkpt lat="42.8722600" lon="-7.8129420">
        <ele>591.4</ele>
        <time>2020-10-19T13:32:36Z</time>
      </trkpt>
      <trkpt lat="42.8722570" lon="-7.8129800">
        <ele>591.5</ele>
        <time>2020-10-19T13:32:37Z</time>
      </trkpt>
      <trkpt lat="42.8722550" lon="-7.8130160">
        <ele>591.6</ele>
        <time>2020-10-19T13:32:38Z</time>
      </trkpt>
      <trkpt lat="42.8722510" lon="-7.8130530">
        <ele>591.7</ele>
        <time>2020-10-19T13:32:39Z</time>
      </trkpt>
      <trkpt lat="42.8722470" lon="-7.8130900">
        <ele>591.8</ele>
        <time>2020-10-19T13:32:40Z</time>
      </trkpt>
      <trkpt lat="42.8722440" lon="-7.8131240">
        <ele>591.9</ele>
        <time>2020-10-19T13:32:41Z</time>
      </trkpt>
      <trkpt lat="42.8722420" lon="-7.8131560">
        <ele>591.9</ele>
        <time>2020-10-19T13:32:42Z</time>
      </trkpt>
      <trkpt lat="42.8722420" lon="-7.8131850">
        <ele>592.0</ele>
        <time>2020-10-19T13:32:43Z</time>
      </trkpt>
      <trkpt lat="42.8722390" lon="-7.8132160">
        <ele>592.1</ele>
        <time>2020-10-19T13:32:44Z</time>
      </trkpt>
      <trkpt lat="42.8722380" lon="-7.8132490">
        <ele>592.2</ele>
        <time>2020-10-19T13:32:45Z</time>
      </trkpt>
      <trkpt lat="42.8722330" lon="-7.8132850">
        <ele>592.4</ele>
        <time>2020-10-19T13:32:46Z</time>
      </trkpt>
      <trkpt lat="42.8722270" lon="-7.8133210">
        <ele>592.5</ele>
        <time>2020-10-19T13:32:47Z</time>
      </trkpt>
      <trkpt lat="42.8722190" lon="-7.8133580">
        <ele>592.6</ele>
        <time>2020-10-19T13:32:48Z</time>
      </trkpt>
      <trkpt lat="42.8722140" lon="-7.8133930">
        <ele>592.7</ele>
        <time>2020-10-19T13:32:49Z</time>
      </trkpt>
      <trkpt lat="42.8722090" lon="-7.8134300">
        <ele>592.9</ele>
        <time>2020-10-19T13:32:50Z</time>
      </trkpt>
      <trkpt lat="42.8722070" lon="-7.8134640">
        <ele>593.0</ele>
        <time>2020-10-19T13:32:51Z</time>
      </trkpt>
      <trkpt lat="42.8722020" lon="-7.8135030">
        <ele>593.2</ele>
        <time>2020-10-19T13:32:52Z</time>
      </trkpt>
      <trkpt lat="42.8721960" lon="-7.8135390">
        <ele>593.3</ele>
        <time>2020-10-19T13:32:53Z</time>
      </trkpt>
      <trkpt lat="42.8721910" lon="-7.8135790">
        <ele>593.5</ele>
        <time>2020-10-19T13:32:54Z</time>
      </trkpt>
      <trkpt lat="42.8721880" lon="-7.8136170">
        <ele>593.6</ele>
        <time>2020-10-19T13:32:55Z</time>
      </trkpt>
      <trkpt lat="42.8721840" lon="-7.8136560">
        <ele>593.8</ele>
        <time>2020-10-19T13:32:56Z</time>
      </trkpt>
      <trkpt lat="42.8721810" lon="-7.8136940">
        <ele>594.0</ele>
        <time>2020-10-19T13:32:57Z</time>
      </trkpt>
      <trkpt lat="42.8721770" lon="-7.8137340">
        <ele>594.2</ele>
        <time>2020-10-19T13:32:58Z</time>
      </trkpt>
      <trkpt lat="42.8721740" lon="-7.8137750">
        <ele>594.4</ele>
        <time>2020-10-19T13:32:59Z</time>
      </trkpt>
      <trkpt lat="42.8721720" lon="-7.8138160">
        <ele>594.6</ele>
        <time>2020-10-19T13:33:00Z</time>
      </trkpt>
      <trkpt lat="42.8721680" lon="-7.8138560">
        <ele>594.9</ele>
        <time>2020-10-19T13:33:01Z</time>
      </trkpt>
      <trkpt lat="42.8721640" lon="-7.8138920">
        <ele>595.1</ele>
        <time>2020-10-19T13:33:02Z</time>
      </trkpt>
      <trkpt lat="42.8721590" lon="-7.8139290">
        <ele>595.3</ele>
        <time>2020-10-19T13:33:03Z</time>
      </trkpt>
      <trkpt lat="42.8721570" lon="-7.8139630">
        <ele>595.4</ele>
        <time>2020-10-19T13:33:04Z</time>
      </trkpt>
      <trkpt lat="42.8721550" lon="-7.8139970">
        <ele>595.6</ele>
        <time>2020-10-19T13:33:05Z</time>
      </trkpt>
      <trkpt lat="42.8721530" lon="-7.8140260">
        <ele>595.8</ele>
        <time>2020-10-19T13:33:06Z</time>
      </trkpt>
      <trkpt lat="42.8721510" lon="-7.8140570">
        <ele>596.0</ele>
        <time>2020-10-19T13:33:07Z</time>
      </trkpt>
      <trkpt lat="42.8721510" lon="-7.8140880">
        <ele>596.1</ele>
        <time>2020-10-19T13:33:08Z</time>
      </trkpt>
      <trkpt lat="42.8721540" lon="-7.8141210">
        <ele>596.2</ele>
        <time>2020-10-19T13:33:09Z</time>
      </trkpt>
      <trkpt lat="42.8721610" lon="-7.8141490">
        <ele>596.3</ele>
        <time>2020-10-19T13:33:10Z</time>
      </trkpt>
      <trkpt lat="42.8721700" lon="-7.8141700">
        <ele>596.3</ele>
        <time>2020-10-19T13:33:11Z</time>
      </trkpt>
      <trkpt lat="42.8721800" lon="-7.8141820">
        <ele>596.4</ele>
        <time>2020-10-19T13:33:12Z</time>
      </trkpt>
      <trkpt lat="42.8721910" lon="-7.8141920">
        <ele>596.4</ele>
        <time>2020-10-19T13:33:13Z</time>
      </trkpt>
      <trkpt lat="42.8722050" lon="-7.8142010">
        <ele>596.5</ele>
        <time>2020-10-19T13:33:14Z</time>
      </trkpt>
      <trkpt lat="42.8722190" lon="-7.8142160">
        <ele>596.5</ele>
        <time>2020-10-19T13:33:15Z</time>
      </trkpt>
      <trkpt lat="42.8722280" lon="-7.8142310">
        <ele>596.6</ele>
        <time>2020-10-19T13:33:16Z</time>
      </trkpt>
      <trkpt lat="42.8722300" lon="-7.8142460">
        <ele>596.6</ele>
        <time>2020-10-19T13:33:17Z</time>
      </trkpt>
      <trkpt lat="42.8722290" lon="-7.8142590">
        <ele>596.6</ele>
        <time>2020-10-19T13:33:18Z</time>
      </trkpt>
      <trkpt lat="42.8722280" lon="-7.8142670">
        <ele>596.6</ele>
        <time>2020-10-19T13:33:19Z</time>
      </trkpt>
      <trkpt lat="42.8722320" lon="-7.8142720">
        <ele>596.6</ele>
        <time>2020-10-19T13:33:20Z</time>
      </trkpt>
      <trkpt lat="42.8722360" lon="-7.8142760">
        <ele>596.7</ele>
        <time>2020-10-19T13:33:21Z</time>
      </trkpt>
      <trkpt lat="42.8722410" lon="-7.8142790">
        <ele>596.7</ele>
        <time>2020-10-19T13:33:22Z</time>
      </trkpt>
      <trkpt lat="42.8722430" lon="-7.8142810">
        <ele>596.7</ele>
        <time>2020-10-19T13:33:23Z</time>
      </trkpt>
      <trkpt lat="42.8722440" lon="-7.8142810">
        <ele>596.7</ele>
        <time>2020-10-19T13:33:24Z</time>
      </trkpt>
      <trkpt lat="42.8722430" lon="-7.8142810">
        <ele>596.7</ele>
        <time>2020-10-19T13:33:25Z</time>
      </trkpt>
      <trkpt lat="42.8722420" lon="-7.8142810">
        <ele>596.7</ele>
        <time>2020-10-19T13:33:26Z</time>
      </trkpt>
      <trkpt lat="42.8722420" lon="-7.8142830">
        <ele>596.7</ele>
        <time>2020-10-19T13:33:27Z</time>
      </trkpt>
      <trkpt lat="42.8722420" lon="-7.8142840">
        <ele>596.7</ele>
        <time>2020-10-19T13:33:28Z</time>
      </trkpt>
      <trkpt lat="42.8722420" lon="-7.8142850">
        <ele>596.7</ele>
        <time>2020-10-19T13:33:29Z</time>
      </trkpt>
      <trkpt lat="42.8722420" lon="-7.8142860">
        <ele>596.7</ele>
        <time>2020-10-19T13:33:30Z</time>
      </trkpt>
      <trkpt lat="42.8722420" lon="-7.8142850">
        <ele>596.7</ele>
        <time>2020-10-19T13:33:31Z</time>
      </trkpt>
      <trkpt lat="42.8722420" lon="-7.8142840">
        <ele>596.7</ele>
        <time>2020-10-19T13:33:32Z</time>
      </trkpt>
      <trkpt lat="42.8722420" lon="-7.8142810">
        <ele>596.7</ele>
        <time>2020-10-19T13:33:33Z</time>
      </trkpt>
      <trkpt lat="42.8722420" lon="-7.8142800">
        <ele>596.7</ele>
        <time>2020-10-19T13:33:34Z</time>
      </trkpt>
      <trkpt lat="42.8722420" lon="-7.8142780">
        <ele>596.7</ele>
        <time>2020-10-19T13:33:35Z</time>
      </trkpt>
      <trkpt lat="42.8722420" lon="-7.8142760">
        <ele>596.7</ele>
        <time>2020-10-19T13:33:36Z</time>
      </trkpt>
      <trkpt lat="42.8722420" lon="-7.8142740">
        <ele>596.7</ele>
        <time>2020-10-19T13:33:37Z</time>
      </trkpt>
      <trkpt lat="42.8722420" lon="-7.8142720">
        <ele>596.7</ele>
        <time>2020-10-19T13:33:38Z</time>
      </trkpt>
      <trkpt lat="42.8722410" lon="-7.8142710">
        <ele>596.7</ele>
        <time>2020-10-19T13:33:39Z</time>
      </trkpt>
      <trkpt lat="42.8722400" lon="-7.8142710">
        <ele>596.7</ele>
        <time>2020-10-19T13:33:40Z</time>
      </trkpt>
      <trkpt lat="42.8722400" lon="-7.8142700">
        <ele>596.7</ele>
        <time>2020-10-19T13:33:41Z</time>
      </trkpt>
      <trkpt lat="42.8722400" lon="-7.8142690">
        <ele>596.7</ele>
        <time>2020-10-19T13:33:42Z</time>
      </trkpt>
      <trkpt lat="42.8722390" lon="-7.8142690">
        <ele>596.7</ele>
        <time>2020-10-19T13:33:43Z</time>
      </trkpt>
      <trkpt lat="42.8722380" lon="-7.8142690">
        <ele>596.7</ele>
        <time>2020-10-19T13:33:44Z</time>
      </trkpt>
      <trkpt lat="42.8722380" lon="-7.8142690">
        <ele>596.7</ele>
        <time>2020-10-19T13:33:45Z</time>
      </trkpt>
      <trkpt lat="42.8722370" lon="-7.8142680">
        <ele>596.7</ele>
        <time>2020-10-19T13:33:46Z</time>
      </trkpt>
      <trkpt lat="42.8722370" lon="-7.8142680">
        <ele>596.7</ele>
        <time>2020-10-19T13:33:47Z</time>
      </trkpt>
      <trkpt lat="42.8722370" lon="-7.8142690">
        <ele>596.7</ele>
        <time>2020-10-19T13:33:48Z</time>
      </trkpt>
      <trkpt lat="42.8722370" lon="-7.8142690">
        <ele>596.7</ele>
        <time>2020-10-19T13:33:49Z</time>
      </trkpt>
      <trkpt lat="42.8722360" lon="-7.8142690">
        <ele>596.7</ele>
        <time>2020-10-19T13:33:50Z</time>
      </trkpt>
      <trkpt lat="42.8722350" lon="-7.8142700">
        <ele>596.7</ele>
        <time>2020-10-19T13:33:51Z</time>
      </trkpt>
      <trkpt lat="42.8722350" lon="-7.8142710">
        <ele>596.7</ele>
        <time>2020-10-19T13:33:52Z</time>
      </trkpt>
      <trkpt lat="42.8722340" lon="-7.8142710">
        <ele>596.7</ele>
        <time>2020-10-19T13:33:53Z</time>
      </trkpt>
      <trkpt lat="42.8722330" lon="-7.8142720">
        <ele>596.7</ele>
        <time>2020-10-19T13:33:54Z</time>
      </trkpt>
      <trkpt lat="42.8722320" lon="-7.8142720">
        <ele>596.7</ele>
        <time>2020-10-19T13:33:55Z</time>
      </trkpt>
      <trkpt lat="42.8722310" lon="-7.8142730">
        <ele>596.7</ele>
        <time>2020-10-19T13:33:56Z</time>
      </trkpt>
      <trkpt lat="42.8722310" lon="-7.8142740">
        <ele>596.7</ele>
        <time>2020-10-19T13:33:57Z</time>
      </trkpt>
      <trkpt lat="42.8722310" lon="-7.8142760">
        <ele>596.7</ele>
        <time>2020-10-19T13:33:58Z</time>
      </trkpt>
      <trkpt lat="42.8722320" lon="-7.8142780">
        <ele>596.8</ele>
        <time>2020-10-19T13:33:59Z</time>
      </trkpt>
      <trkpt lat="42.8722320" lon="-7.8142800">
        <ele>596.8</ele>
        <time>2020-10-19T13:34:00Z</time>
      </trkpt>
      <trkpt lat="42.8722310" lon="-7.8142800">
        <ele>596.8</ele>
        <time>2020-10-19T13:34:01Z</time>
      </trkpt>
      <trkpt lat="42.8722310" lon="-7.8142790">
        <ele>596.8</ele>
        <time>2020-10-19T13:34:02Z</time>
      </trkpt>
      <trkpt lat="42.8722300" lon="-7.8142770">
        <ele>596.8</ele>
        <time>2020-10-19T13:34:03Z</time>
      </trkpt>
      <trkpt lat="42.8722290" lon="-7.8142750">
        <ele>596.8</ele>
        <time>2020-10-19T13:34:04Z</time>
      </trkpt>
      <trkpt lat="42.8722280" lon="-7.8142740">
        <ele>596.8</ele>
        <time>2020-10-19T13:34:05Z</time>
      </trkpt>
      <trkpt lat="42.8722270" lon="-7.8142730">
        <ele>596.8</ele>
        <time>2020-10-19T13:34:06Z</time>
      </trkpt>
      <trkpt lat="42.8722260" lon="-7.8142740">
        <ele>596.8</ele>
        <time>2020-10-19T13:34:07Z</time>
      </trkpt>
      <trkpt lat="42.8722260" lon="-7.8142730">
        <ele>596.8</ele>
        <time>2020-10-19T13:34:08Z</time>
      </trkpt>
      <trkpt lat="42.8722260" lon="-7.8142720">
        <ele>596.8</ele>
        <time>2020-10-19T13:34:09Z</time>
      </trkpt>
      <trkpt lat="42.8722270" lon="-7.8142700">
        <ele>596.8</ele>
        <time>2020-10-19T13:34:10Z</time>
      </trkpt>
      <trkpt lat="42.8722300" lon="-7.8142660">
        <ele>596.8</ele>
        <time>2020-10-19T13:34:11Z</time>
      </trkpt>
      <trkpt lat="42.8722380" lon="-7.8142620">
        <ele>596.8</ele>
        <time>2020-10-19T13:34:12Z</time>
      </trkpt>
      <trkpt lat="42.8722510" lon="-7.8142610">
        <ele>596.8</ele>
        <time>2020-10-19T13:34:13Z</time>
      </trkpt>
      <trkpt lat="42.8722640" lon="-7.8142640">
        <ele>596.9</ele>
        <time>2020-10-19T13:34:14Z</time>
      </trkpt>
      <trkpt lat="42.8722750" lon="-7.8142700">
        <ele>596.9</ele>
        <time>2020-10-19T13:34:15Z</time>
      </trkpt>
      <trkpt lat="42.8722850" lon="-7.8142760">
        <ele>596.9</ele>
        <time>2020-10-19T13:34:16Z</time>
      </trkpt>
      <trkpt lat="42.8722980" lon="-7.8142850">
        <ele>596.9</ele>
        <time>2020-10-19T13:34:17Z</time>
      </trkpt>
      <trkpt lat="42.8723110" lon="-7.8142940">
        <ele>597.0</ele>
        <time>2020-10-19T13:34:18Z</time>
      </trkpt>
      <trkpt lat="42.8723230" lon="-7.8143060">
        <ele>597.0</ele>
        <time>2020-10-19T13:34:19Z</time>
      </trkpt>
      <trkpt lat="42.8723340" lon="-7.8143160">
        <ele>597.1</ele>
        <time>2020-10-19T13:34:20Z</time>
      </trkpt>
      <trkpt lat="42.8723450" lon="-7.8143280">
        <ele>597.1</ele>
        <time>2020-10-19T13:34:21Z</time>
      </trkpt>
      <trkpt lat="42.8723560" lon="-7.8143400">
        <ele>597.1</ele>
        <time>2020-10-19T13:34:22Z</time>
      </trkpt>
      <trkpt lat="42.8723680" lon="-7.8143540">
        <ele>597.2</ele>
        <time>2020-10-19T13:34:23Z</time>
      </trkpt>
      <trkpt lat="42.8723780" lon="-7.8143660">
        <ele>597.2</ele>
        <time>2020-10-19T13:34:24Z</time>
      </trkpt>
      <trkpt lat="42.8723870" lon="-7.8143780">
        <ele>597.3</ele>
        <time>2020-10-19T13:34:25Z</time>
      </trkpt>
      <trkpt lat="42.8723950" lon="-7.8143910">
        <ele>597.4</ele>
        <time>2020-10-19T13:34:26Z</time>
      </trkpt>
      <trkpt lat="42.8724060" lon="-7.8144050">
        <ele>597.4</ele>
        <time>2020-10-19T13:34:27Z</time>
      </trkpt>
      <trkpt lat="42.8724180" lon="-7.8144180">
        <ele>597.5</ele>
        <time>2020-10-19T13:34:28Z</time>
      </trkpt>
      <trkpt lat="42.8724320" lon="-7.8144310">
        <ele>597.6</ele>
        <time>2020-10-19T13:34:29Z</time>
      </trkpt>
      <trkpt lat="42.8724440" lon="-7.8144410">
        <ele>597.7</ele>
        <time>2020-10-19T13:34:30Z</time>
      </trkpt>
      <trkpt lat="42.8724550" lon="-7.8144510">
        <ele>597.7</ele>
        <time>2020-10-19T13:34:31Z</time>
      </trkpt>
      <trkpt lat="42.8724650" lon="-7.8144620">
        <ele>597.8</ele>
        <time>2020-10-19T13:34:32Z</time>
      </trkpt>
      <trkpt lat="42.8724780" lon="-7.8144730">
        <ele>597.9</ele>
        <time>2020-10-19T13:34:33Z</time>
      </trkpt>
      <trkpt lat="42.8724920" lon="-7.8144860">
        <ele>598.1</ele>
        <time>2020-10-19T13:34:34Z</time>
      </trkpt>
      <trkpt lat="42.8725060" lon="-7.8144980">
        <ele>598.2</ele>
        <time>2020-10-19T13:34:35Z</time>
      </trkpt>
      <trkpt lat="42.8725190" lon="-7.8145100">
        <ele>598.3</ele>
        <time>2020-10-19T13:34:36Z</time>
      </trkpt>
      <trkpt lat="42.8725320" lon="-7.8145200">
        <ele>598.5</ele>
        <time>2020-10-19T13:34:37Z</time>
      </trkpt>
      <trkpt lat="42.8725450" lon="-7.8145300">
        <ele>598.6</ele>
        <time>2020-10-19T13:34:38Z</time>
      </trkpt>
      <trkpt lat="42.8725580" lon="-7.8145400">
        <ele>598.8</ele>
        <time>2020-10-19T13:34:39Z</time>
      </trkpt>
      <trkpt lat="42.8725720" lon="-7.8145510">
        <ele>598.9</ele>
        <time>2020-10-19T13:34:40Z</time>
      </trkpt>
      <trkpt lat="42.8725860" lon="-7.8145670">
        <ele>599.1</ele>
        <time>2020-10-19T13:34:41Z</time>
      </trkpt>
      <trkpt lat="42.8725980" lon="-7.8145860">
        <ele>599.3</ele>
        <time>2020-10-19T13:34:42Z</time>
      </trkpt>
      <trkpt lat="42.8726090" lon="-7.8146070">
        <ele>599.6</ele>
        <time>2020-10-19T13:34:43Z</time>
      </trkpt>
      <trkpt lat="42.8726180" lon="-7.8146280">
        <ele>599.8</ele>
        <time>2020-10-19T13:34:44Z</time>
      </trkpt>
      <trkpt lat="42.8726240" lon="-7.8146470">
        <ele>600.0</ele>
        <time>2020-10-19T13:34:45Z</time>
      </trkpt>
      <trkpt lat="42.8726280" lon="-7.8146650">
        <ele>600.1</ele>
        <time>2020-10-19T13:34:46Z</time>
      </trkpt>
      <trkpt lat="42.8726320" lon="-7.8146840">
        <ele>600.3</ele>
        <time>2020-10-19T13:34:47Z</time>
      </trkpt>
      <trkpt lat="42.8726350" lon="-7.8147030">
        <ele>600.5</ele>
        <time>2020-10-19T13:34:48Z</time>
      </trkpt>
      <trkpt lat="42.8726360" lon="-7.8147210">
        <ele>600.7</ele>
        <time>2020-10-19T13:34:49Z</time>
      </trkpt>
      <trkpt lat="42.8726330" lon="-7.8147400">
        <ele>600.8</ele>
        <time>2020-10-19T13:34:50Z</time>
      </trkpt>
      <trkpt lat="42.8726290" lon="-7.8147600">
        <ele>601.0</ele>
        <time>2020-10-19T13:34:51Z</time>
      </trkpt>
      <trkpt lat="42.8726250" lon="-7.8147800">
        <ele>601.2</ele>
        <time>2020-10-19T13:34:52Z</time>
      </trkpt>
      <trkpt lat="42.8726220" lon="-7.8148000">
        <ele>601.4</ele>
        <time>2020-10-19T13:34:53Z</time>
      </trkpt>
      <trkpt lat="42.8726210" lon="-7.8148190">
        <ele>601.6</ele>
        <time>2020-10-19T13:34:54Z</time>
      </trkpt>
      <trkpt lat="42.8726210" lon="-7.8148380">
        <ele>601.8</ele>
        <time>2020-10-19T13:34:55Z</time>
      </trkpt>
      <trkpt lat="42.8726210" lon="-7.8148570">
        <ele>602.0</ele>
        <time>2020-10-19T13:34:56Z</time>
      </trkpt>
      <trkpt lat="42.8726200" lon="-7.8148750">
        <ele>602.1</ele>
        <time>2020-10-19T13:34:57Z</time>
      </trkpt>
      <trkpt lat="42.8726190" lon="-7.8148950">
        <ele>602.3</ele>
        <time>2020-10-19T13:34:58Z</time>
      </trkpt>
      <trkpt lat="42.8726180" lon="-7.8149140">
        <ele>602.5</ele>
        <time>2020-10-19T13:34:59Z</time>
      </trkpt>
      <trkpt lat="42.8726180" lon="-7.8149320">
        <ele>602.6</ele>
        <time>2020-10-19T13:35:00Z</time>
      </trkpt>
      <trkpt lat="42.8726180" lon="-7.8149490">
        <ele>602.8</ele>
        <time>2020-10-19T13:35:01Z</time>
      </trkpt>
      <trkpt lat="42.8726190" lon="-7.8149670">
        <ele>602.9</ele>
        <time>2020-10-19T13:35:02Z</time>
      </trkpt>
      <trkpt lat="42.8726220" lon="-7.8149860">
        <ele>603.1</ele>
        <time>2020-10-19T13:35:03Z</time>
      </trkpt>
      <trkpt lat="42.8726230" lon="-7.8150050">
        <ele>603.3</ele>
        <time>2020-10-19T13:35:04Z</time>
      </trkpt>
      <trkpt lat="42.8726250" lon="-7.8150230">
        <ele>603.4</ele>
        <time>2020-10-19T13:35:05Z</time>
      </trkpt>
      <trkpt lat="42.8726280" lon="-7.8150400">
        <ele>603.6</ele>
        <time>2020-10-19T13:35:06Z</time>
      </trkpt>
      <trkpt lat="42.8726340" lon="-7.8150570">
        <ele>603.7</ele>
        <time>2020-10-19T13:35:07Z</time>
      </trkpt>
      <trkpt lat="42.8726430" lon="-7.8150730">
        <ele>603.9</ele>
        <time>2020-10-19T13:35:08Z</time>
      </trkpt>
      <trkpt lat="42.8726530" lon="-7.8150880">
        <ele>604.0</ele>
        <time>2020-10-19T13:35:09Z</time>
      </trkpt>
      <trkpt lat="42.8726630" lon="-7.8151020">
        <ele>604.2</ele>
        <time>2020-10-19T13:35:10Z</time>
      </trkpt>
      <trkpt lat="42.8726740" lon="-7.8151170">
        <ele>604.3</ele>
        <time>2020-10-19T13:35:11Z</time>
      </trkpt>
      <trkpt lat="42.8726850" lon="-7.8151310">
        <ele>604.5</ele>
        <time>2020-10-19T13:35:12Z</time>
      </trkpt>
      <trkpt lat="42.8726970" lon="-7.8151460">
        <ele>604.6</ele>
        <time>2020-10-19T13:35:13Z</time>
      </trkpt>
      <trkpt lat="42.8727070" lon="-7.8151590">
        <ele>604.8</ele>
        <time>2020-10-19T13:35:14Z</time>
      </trkpt>
      <trkpt lat="42.8727170" lon="-7.8151730">
        <ele>604.9</ele>
        <time>2020-10-19T13:35:15Z</time>
      </trkpt>
      <trkpt lat="42.8727260" lon="-7.8151850">
        <ele>605.0</ele>
        <time>2020-10-19T13:35:16Z</time>
      </trkpt>
      <trkpt lat="42.8727360" lon="-7.8151940">
        <ele>605.1</ele>
        <time>2020-10-19T13:35:17Z</time>
      </trkpt>
      <trkpt lat="42.8727470" lon="-7.8152000">
        <ele>605.2</ele>
        <time>2020-10-19T13:35:18Z</time>
      </trkpt>
      <trkpt lat="42.8727590" lon="-7.8152070">
        <ele>605.3</ele>
        <time>2020-10-19T13:35:19Z</time>
      </trkpt>
      <trkpt lat="42.8727720" lon="-7.8152150">
        <ele>605.4</ele>
        <time>2020-10-19T13:35:20Z</time>
      </trkpt>
      <trkpt lat="42.8727850" lon="-7.8152250">
        <ele>605.5</ele>
        <time>2020-10-19T13:35:21Z</time>
      </trkpt>
      <trkpt lat="42.8727970" lon="-7.8152370">
        <ele>605.6</ele>
        <time>2020-10-19T13:35:22Z</time>
      </trkpt>
      <trkpt lat="42.8728090" lon="-7.8152500">
        <ele>605.8</ele>
        <time>2020-10-19T13:35:23Z</time>
      </trkpt>
      <trkpt lat="42.8728200" lon="-7.8152630">
        <ele>605.9</ele>
        <time>2020-10-19T13:35:24Z</time>
      </trkpt>
      <trkpt lat="42.8728330" lon="-7.8152740">
        <ele>606.0</ele>
        <time>2020-10-19T13:35:25Z</time>
      </trkpt>
      <trkpt lat="42.8728450" lon="-7.8152860">
        <ele>606.1</ele>
        <time>2020-10-19T13:35:26Z</time>
      </trkpt>
      <trkpt lat="42.8728560" lon="-7.8152980">
        <ele>606.2</ele>
        <time>2020-10-19T13:35:27Z</time>
      </trkpt>
      <trkpt lat="42.8728650" lon="-7.8153100">
        <ele>606.3</ele>
        <time>2020-10-19T13:35:28Z</time>
      </trkpt>
      <trkpt lat="42.8728750" lon="-7.8153210">
        <ele>606.4</ele>
        <time>2020-10-19T13:35:29Z</time>
      </trkpt>
      <trkpt lat="42.8728850" lon="-7.8153330">
        <ele>606.5</ele>
        <time>2020-10-19T13:35:30Z</time>
      </trkpt>
      <trkpt lat="42.8728960" lon="-7.8153450">
        <ele>606.6</ele>
        <time>2020-10-19T13:35:31Z</time>
      </trkpt>
      <trkpt lat="42.8729050" lon="-7.8153560">
        <ele>606.7</ele>
        <time>2020-10-19T13:35:32Z</time>
      </trkpt>
      <trkpt lat="42.8729140" lon="-7.8153660">
        <ele>606.8</ele>
        <time>2020-10-19T13:35:33Z</time>
      </trkpt>
      <trkpt lat="42.8729230" lon="-7.8153760">
        <ele>606.9</ele>
        <time>2020-10-19T13:35:34Z</time>
      </trkpt>
      <trkpt lat="42.8729340" lon="-7.8153890">
        <ele>607.0</ele>
        <time>2020-10-19T13:35:35Z</time>
      </trkpt>
      <trkpt lat="42.8729450" lon="-7.8154040">
        <ele>607.1</ele>
        <time>2020-10-19T13:35:36Z</time>
      </trkpt>
      <trkpt lat="42.8729600" lon="-7.8154200">
        <ele>607.2</ele>
        <time>2020-10-19T13:35:37Z</time>
      </trkpt>
      <trkpt lat="42.8729770" lon="-7.8154390">
        <ele>607.3</ele>
        <time>2020-10-19T13:35:38Z</time>
      </trkpt>
      <trkpt lat="42.8729950" lon="-7.8154600">
        <ele>607.5</ele>
        <time>2020-10-19T13:35:39Z</time>
      </trkpt>
      <trkpt lat="42.8730110" lon="-7.8154800">
        <ele>607.6</ele>
        <time>2020-10-19T13:35:40Z</time>
      </trkpt>
      <trkpt lat="42.8730280" lon="-7.8155010">
        <ele>607.8</ele>
        <time>2020-10-19T13:35:41Z</time>
      </trkpt>
      <trkpt lat="42.8730480" lon="-7.8155190">
        <ele>607.9</ele>
        <time>2020-10-19T13:35:42Z</time>
      </trkpt>
      <trkpt lat="42.8730680" lon="-7.8155400">
        <ele>608.1</ele>
        <time>2020-10-19T13:35:43Z</time>
      </trkpt>
      <trkpt lat="42.8730870" lon="-7.8155600">
        <ele>608.2</ele>
        <time>2020-10-19T13:35:44Z</time>
      </trkpt>
      <trkpt lat="42.8731020" lon="-7.8155810">
        <ele>608.3</ele>
        <time>2020-10-19T13:35:45Z</time>
      </trkpt>
      <trkpt lat="42.8731170" lon="-7.8155990">
        <ele>608.4</ele>
        <time>2020-10-19T13:35:46Z</time>
      </trkpt>
      <trkpt lat="42.8731270" lon="-7.8156110">
        <ele>608.5</ele>
        <time>2020-10-19T13:35:47Z</time>
      </trkpt>
      <trkpt lat="42.8731340" lon="-7.8156190">
        <ele>608.5</ele>
        <time>2020-10-19T13:35:48Z</time>
      </trkpt>
      <trkpt lat="42.8731370" lon="-7.8156240">
        <ele>608.6</ele>
        <time>2020-10-19T13:35:49Z</time>
      </trkpt>
      <trkpt lat="42.8731390" lon="-7.8156270">
        <ele>608.6</ele>
        <time>2020-10-19T13:35:50Z</time>
      </trkpt>
      <trkpt lat="42.8731400" lon="-7.8156280">
        <ele>608.6</ele>
        <time>2020-10-19T13:35:51Z</time>
      </trkpt>
      <trkpt lat="42.8731400" lon="-7.8156270">
        <ele>608.6</ele>
        <time>2020-10-19T13:35:52Z</time>
      </trkpt>
      <trkpt lat="42.8731440" lon="-7.8156310">
        <ele>608.6</ele>
        <time>2020-10-19T13:35:53Z</time>
      </trkpt>
      <trkpt lat="42.8731500" lon="-7.8156410">
        <ele>608.7</ele>
        <time>2020-10-19T13:35:54Z</time>
      </trkpt>
      <trkpt lat="42.8731560" lon="-7.8156570">
        <ele>608.7</ele>
        <time>2020-10-19T13:35:55Z</time>
      </trkpt>
      <trkpt lat="42.8731610" lon="-7.8156770">
        <ele>608.8</ele>
        <time>2020-10-19T13:35:56Z</time>
      </trkpt>
      <trkpt lat="42.8731660" lon="-7.8156970">
        <ele>608.9</ele>
        <time>2020-10-19T13:35:57Z</time>
      </trkpt>
      <trkpt lat="42.8731720" lon="-7.8157170">
        <ele>608.9</ele>
        <time>2020-10-19T13:35:58Z</time>
      </trkpt>
      <trkpt lat="42.8731780" lon="-7.8157380">
        <ele>609.0</ele>
        <time>2020-10-19T13:35:59Z</time>
      </trkpt>
      <trkpt lat="42.8731850" lon="-7.8157590">
        <ele>609.1</ele>
        <time>2020-10-19T13:36:00Z</time>
      </trkpt>
      <trkpt lat="42.8731900" lon="-7.8157780">
        <ele>609.2</ele>
        <time>2020-10-19T13:36:01Z</time>
      </trkpt>
      <trkpt lat="42.8731950" lon="-7.8157980">
        <ele>609.2</ele>
        <time>2020-10-19T13:36:02Z</time>
      </trkpt>
      <trkpt lat="42.8731980" lon="-7.8158190">
        <ele>609.3</ele>
        <time>2020-10-19T13:36:03Z</time>
      </trkpt>
      <trkpt lat="42.8732020" lon="-7.8158390">
        <ele>609.4</ele>
        <time>2020-10-19T13:36:04Z</time>
      </trkpt>
      <trkpt lat="42.8732060" lon="-7.8158570">
        <ele>609.4</ele>
        <time>2020-10-19T13:36:05Z</time>
      </trkpt>
      <trkpt lat="42.8732110" lon="-7.8158730">
        <ele>609.5</ele>
        <time>2020-10-19T13:36:06Z</time>
      </trkpt>
      <trkpt lat="42.8732170" lon="-7.8158900">
        <ele>609.5</ele>
        <time>2020-10-19T13:36:07Z</time>
      </trkpt>
      <trkpt lat="42.8732220" lon="-7.8159080">
        <ele>609.6</ele>
        <time>2020-10-19T13:36:08Z</time>
      </trkpt>
      <trkpt lat="42.8732260" lon="-7.8159280">
        <ele>609.7</ele>
        <time>2020-10-19T13:36:09Z</time>
      </trkpt>
      <trkpt lat="42.8732290" lon="-7.8159480">
        <ele>609.7</ele>
        <time>2020-10-19T13:36:10Z</time>
      </trkpt>
      <trkpt lat="42.8732320" lon="-7.8159670">
        <ele>609.8</ele>
        <time>2020-10-19T13:36:11Z</time>
      </trkpt>
      <trkpt lat="42.8732380" lon="-7.8159870">
        <ele>609.8</ele>
        <time>2020-10-19T13:36:12Z</time>
      </trkpt>
      <trkpt lat="42.8732440" lon="-7.8160070">
        <ele>609.9</ele>
        <time>2020-10-19T13:36:13Z</time>
      </trkpt>
      <trkpt lat="42.8732490" lon="-7.8160270">
        <ele>610.0</ele>
        <time>2020-10-19T13:36:14Z</time>
      </trkpt>
      <trkpt lat="42.8732550" lon="-7.8160470">
        <ele>610.0</ele>
        <time>2020-10-19T13:36:15Z</time>
      </trkpt>
      <trkpt lat="42.8732600" lon="-7.8160660">
        <ele>610.1</ele>
        <time>2020-10-19T13:36:16Z</time>
      </trkpt>
      <trkpt lat="42.8732660" lon="-7.8160840">
        <ele>610.2</ele>
        <time>2020-10-19T13:36:17Z</time>
      </trkpt>
      <trkpt lat="42.8732720" lon="-7.8161020">
        <ele>610.2</ele>
        <time>2020-10-19T13:36:18Z</time>
      </trkpt>
      <trkpt lat="42.8732780" lon="-7.8161200">
        <ele>610.3</ele>
        <time>2020-10-19T13:36:19Z</time>
      </trkpt>
      <trkpt lat="42.8732830" lon="-7.8161390">
        <ele>610.3</ele>
        <time>2020-10-19T13:36:20Z</time>
      </trkpt>
      <trkpt lat="42.8732890" lon="-7.8161600">
        <ele>610.4</ele>
        <time>2020-10-19T13:36:21Z</time>
      </trkpt>
      <trkpt lat="42.8732940" lon="-7.8161800">
        <ele>610.5</ele>
        <time>2020-10-19T13:36:22Z</time>
      </trkpt>
      <trkpt lat="42.8733000" lon="-7.8161990">
        <ele>610.5</ele>
        <time>2020-10-19T13:36:23Z</time>
      </trkpt>
      <trkpt lat="42.8733050" lon="-7.8162170">
        <ele>610.6</ele>
        <time>2020-10-19T13:36:24Z</time>
      </trkpt>
      <trkpt lat="42.8733090" lon="-7.8162350">
        <ele>610.7</ele>
        <time>2020-10-19T13:36:25Z</time>
      </trkpt>
      <trkpt lat="42.8733140" lon="-7.8162540">
        <ele>610.7</ele>
        <time>2020-10-19T13:36:26Z</time>
      </trkpt>
      <trkpt lat="42.8733170" lon="-7.8162740">
        <ele>610.8</ele>
        <time>2020-10-19T13:36:27Z</time>
      </trkpt>
      <trkpt lat="42.8733190" lon="-7.8162920">
        <ele>610.8</ele>
        <time>2020-10-19T13:36:28Z</time>
      </trkpt>
      <trkpt lat="42.8733210" lon="-7.8163090">
        <ele>610.9</ele>
        <time>2020-10-19T13:36:29Z</time>
      </trkpt>
      <trkpt lat="42.8733240" lon="-7.8163270">
        <ele>611.0</ele>
        <time>2020-10-19T13:36:30Z</time>
      </trkpt>
      <trkpt lat="42.8733280" lon="-7.8163470">
        <ele>611.0</ele>
        <time>2020-10-19T13:36:31Z</time>
      </trkpt>
      <trkpt lat="42.8733330" lon="-7.8163670">
        <ele>611.1</ele>
        <time>2020-10-19T13:36:32Z</time>
      </trkpt>
      <trkpt lat="42.8733390" lon="-7.8163880">
        <ele>611.2</ele>
        <time>2020-10-19T13:36:33Z</time>
      </trkpt>
      <trkpt lat="42.8733430" lon="-7.8164080">
        <ele>611.2</ele>
        <time>2020-10-19T13:36:34Z</time>
      </trkpt>
      <trkpt lat="42.8733490" lon="-7.8164270">
        <ele>611.3</ele>
        <time>2020-10-19T13:36:35Z</time>
      </trkpt>
      <trkpt lat="42.8733550" lon="-7.8164460">
        <ele>611.4</ele>
        <time>2020-10-19T13:36:36Z</time>
      </trkpt>
      <trkpt lat="42.8733600" lon="-7.8164650">
        <ele>611.4</ele>
        <time>2020-10-19T13:36:37Z</time>
      </trkpt>
      <trkpt lat="42.8733630" lon="-7.8164850">
        <ele>611.5</ele>
        <time>2020-10-19T13:36:38Z</time>
      </trkpt>
      <trkpt lat="42.8733640" lon="-7.8165060">
        <ele>611.6</ele>
        <time>2020-10-19T13:36:39Z</time>
      </trkpt>
      <trkpt lat="42.8733660" lon="-7.8165250">
        <ele>611.6</ele>
        <time>2020-10-19T13:36:40Z</time>
      </trkpt>
      <trkpt lat="42.8733670" lon="-7.8165440">
        <ele>611.7</ele>
        <time>2020-10-19T13:36:41Z</time>
      </trkpt>
      <trkpt lat="42.8733680" lon="-7.8165620">
        <ele>611.7</ele>
        <time>2020-10-19T13:36:42Z</time>
      </trkpt>
      <trkpt lat="42.8733690" lon="-7.8165810">
        <ele>611.8</ele>
        <time>2020-10-19T13:36:43Z</time>
      </trkpt>
      <trkpt lat="42.8733700" lon="-7.8165990">
        <ele>611.8</ele>
        <time>2020-10-19T13:36:44Z</time>
      </trkpt>
      <trkpt lat="42.8733700" lon="-7.8166180">
        <ele>611.9</ele>
        <time>2020-10-19T13:36:45Z</time>
      </trkpt>
      <trkpt lat="42.8733700" lon="-7.8166360">
        <ele>611.9</ele>
        <time>2020-10-19T13:36:46Z</time>
      </trkpt>
      <trkpt lat="42.8733700" lon="-7.8166550">
        <ele>612.0</ele>
        <time>2020-10-19T13:36:47Z</time>
      </trkpt>
      <trkpt lat="42.8733700" lon="-7.8166730">
        <ele>612.1</ele>
        <time>2020-10-19T13:36:48Z</time>
      </trkpt>
      <trkpt lat="42.8733710" lon="-7.8166900">
        <ele>612.1</ele>
        <time>2020-10-19T13:36:49Z</time>
      </trkpt>
      <trkpt lat="42.8733710" lon="-7.8167080">
        <ele>612.2</ele>
        <time>2020-10-19T13:36:50Z</time>
      </trkpt>
      <trkpt lat="42.8733710" lon="-7.8167260">
        <ele>612.2</ele>
        <time>2020-10-19T13:36:51Z</time>
      </trkpt>
      <trkpt lat="42.8733700" lon="-7.8167440">
        <ele>612.3</ele>
        <time>2020-10-19T13:36:52Z</time>
      </trkpt>
      <trkpt lat="42.8733700" lon="-7.8167610">
        <ele>612.3</ele>
        <time>2020-10-19T13:36:53Z</time>
      </trkpt>
      <trkpt lat="42.8733700" lon="-7.8167790">
        <ele>612.4</ele>
        <time>2020-10-19T13:36:54Z</time>
      </trkpt>
      <trkpt lat="42.8733710" lon="-7.8167980">
        <ele>612.4</ele>
        <time>2020-10-19T13:36:55Z</time>
      </trkpt>
      <trkpt lat="42.8733720" lon="-7.8168170">
        <ele>612.5</ele>
        <time>2020-10-19T13:36:56Z</time>
      </trkpt>
      <trkpt lat="42.8733710" lon="-7.8168360">
        <ele>612.5</ele>
        <time>2020-10-19T13:36:57Z</time>
      </trkpt>
      <trkpt lat="42.8733710" lon="-7.8168550">
        <ele>612.6</ele>
        <time>2020-10-19T13:36:58Z</time>
      </trkpt>
      <trkpt lat="42.8733710" lon="-7.8168740">
        <ele>612.6</ele>
        <time>2020-10-19T13:36:59Z</time>
      </trkpt>
      <trkpt lat="42.8733710" lon="-7.8168920">
        <ele>612.6</ele>
        <time>2020-10-19T13:37:00Z</time>
      </trkpt>
      <trkpt lat="42.8733700" lon="-7.8169080">
        <ele>612.7</ele>
        <time>2020-10-19T13:37:01Z</time>
      </trkpt>
      <trkpt lat="42.8733680" lon="-7.8169230">
        <ele>612.7</ele>
        <time>2020-10-19T13:37:02Z</time>
      </trkpt>
      <trkpt lat="42.8733670" lon="-7.8169370">
        <ele>612.7</ele>
        <time>2020-10-19T13:37:03Z</time>
      </trkpt>
      <trkpt lat="42.8733720" lon="-7.8169540">
        <ele>612.8</ele>
        <time>2020-10-19T13:37:04Z</time>
      </trkpt>
      <trkpt lat="42.8733770" lon="-7.8169710">
        <ele>612.8</ele>
        <time>2020-10-19T13:37:05Z</time>
      </trkpt>
      <trkpt lat="42.8733820" lon="-7.8169920">
        <ele>612.9</ele>
        <time>2020-10-19T13:37:06Z</time>
      </trkpt>
      <trkpt lat="42.8733830" lon="-7.8170110">
        <ele>612.9</ele>
        <time>2020-10-19T13:37:07Z</time>
      </trkpt>
      <trkpt lat="42.8733830" lon="-7.8170320">
        <ele>613.0</ele>
        <time>2020-10-19T13:37:08Z</time>
      </trkpt>
      <trkpt lat="42.8733850" lon="-7.8170510">
        <ele>613.0</ele>
        <time>2020-10-19T13:37:09Z</time>
      </trkpt>
      <trkpt lat="42.8733860" lon="-7.8170700">
        <ele>613.0</ele>
        <time>2020-10-19T13:37:10Z</time>
      </trkpt>
      <trkpt lat="42.8733850" lon="-7.8170880">
        <ele>613.1</ele>
        <time>2020-10-19T13:37:11Z</time>
      </trkpt>
      <trkpt lat="42.8733800" lon="-7.8171050">
        <ele>613.1</ele>
        <time>2020-10-19T13:37:12Z</time>
      </trkpt>
      <trkpt lat="42.8733730" lon="-7.8171210">
        <ele>613.2</ele>
        <time>2020-10-19T13:37:13Z</time>
      </trkpt>
      <trkpt lat="42.8733670" lon="-7.8171380">
        <ele>613.2</ele>
        <time>2020-10-19T13:37:14Z</time>
      </trkpt>
      <trkpt lat="42.8733640" lon="-7.8171570">
        <ele>613.2</ele>
        <time>2020-10-19T13:37:15Z</time>
      </trkpt>
      <trkpt lat="42.8733620" lon="-7.8171750">
        <ele>613.2</ele>
        <time>2020-10-19T13:37:16Z</time>
      </trkpt>
      <trkpt lat="42.8733630" lon="-7.8171910">
        <ele>613.3</ele>
        <time>2020-10-19T13:37:17Z</time>
      </trkpt>
      <trkpt lat="42.8733630" lon="-7.8172070">
        <ele>613.3</ele>
        <time>2020-10-19T13:37:18Z</time>
      </trkpt>
      <trkpt lat="42.8733640" lon="-7.8172210">
        <ele>613.3</ele>
        <time>2020-10-19T13:37:19Z</time>
      </trkpt>
      <trkpt lat="42.8733650" lon="-7.8172360">
        <ele>613.4</ele>
        <time>2020-10-19T13:37:20Z</time>
      </trkpt>
      <trkpt lat="42.8733700" lon="-7.8172490">
        <ele>613.4</ele>
        <time>2020-10-19T13:37:21Z</time>
      </trkpt>
      <trkpt lat="42.8733750" lon="-7.8172600">
        <ele>613.4</ele>
        <time>2020-10-19T13:37:22Z</time>
      </trkpt>
      <trkpt lat="42.8733800" lon="-7.8172690">
        <ele>613.4</ele>
        <time>2020-10-19T13:37:23Z</time>
      </trkpt>
      <trkpt lat="42.8733840" lon="-7.8172770">
        <ele>613.4</ele>
        <time>2020-10-19T13:37:24Z</time>
      </trkpt>
      <trkpt lat="42.8733860" lon="-7.8172840">
        <ele>613.4</ele>
        <time>2020-10-19T13:37:25Z</time>
      </trkpt>
      <trkpt lat="42.8733880" lon="-7.8172900">
        <ele>613.5</ele>
        <time>2020-10-19T13:37:26Z</time>
      </trkpt>
      <trkpt lat="42.8733900" lon="-7.8172980">
        <ele>613.5</ele>
        <time>2020-10-19T13:37:27Z</time>
      </trkpt>
      <trkpt lat="42.8733950" lon="-7.8173070">
        <ele>613.5</ele>
        <time>2020-10-19T13:37:28Z</time>
      </trkpt>
      <trkpt lat="42.8734020" lon="-7.8173180">
        <ele>613.5</ele>
        <time>2020-10-19T13:37:29Z</time>
      </trkpt>
      <trkpt lat="42.8734120" lon="-7.8173280">
        <ele>613.5</ele>
        <time>2020-10-19T13:37:30Z</time>
      </trkpt>
      <trkpt lat="42.8734190" lon="-7.8173380">
        <ele>613.6</ele>
        <time>2020-10-19T13:37:31Z</time>
      </trkpt>
      <trkpt lat="42.8734260" lon="-7.8173500">
        <ele>613.6</ele>
        <time>2020-10-19T13:37:32Z</time>
      </trkpt>
      <trkpt lat="42.8734320" lon="-7.8173600">
        <ele>613.6</ele>
        <time>2020-10-19T13:37:33Z</time>
      </trkpt>
      <trkpt lat="42.8734360" lon="-7.8173690">
        <ele>613.6</ele>
        <time>2020-10-19T13:37:34Z</time>
      </trkpt>
      <trkpt lat="42.8734370" lon="-7.8173740">
        <ele>613.6</ele>
        <time>2020-10-19T13:37:35Z</time>
      </trkpt>
      <trkpt lat="42.8734360" lon="-7.8173780">
        <ele>613.7</ele>
        <time>2020-10-19T13:37:36Z</time>
      </trkpt>
      <trkpt lat="42.8734350" lon="-7.8173800">
        <ele>613.7</ele>
        <time>2020-10-19T13:37:37Z</time>
      </trkpt>
      <trkpt lat="42.8734380" lon="-7.8173830">
        <ele>613.7</ele>
        <time>2020-10-19T13:37:38Z</time>
      </trkpt>
      <trkpt lat="42.8734450" lon="-7.8173860">
        <ele>613.7</ele>
        <time>2020-10-19T13:37:39Z</time>
      </trkpt>
      <trkpt lat="42.8734540" lon="-7.8173900">
        <ele>613.7</ele>
        <time>2020-10-19T13:37:40Z</time>
      </trkpt>
      <trkpt lat="42.8734630" lon="-7.8174000">
        <ele>613.7</ele>
        <time>2020-10-19T13:37:41Z</time>
      </trkpt>
      <trkpt lat="42.8734730" lon="-7.8174120">
        <ele>613.8</ele>
        <time>2020-10-19T13:37:42Z</time>
      </trkpt>
      <trkpt lat="42.8734820" lon="-7.8174230">
        <ele>613.8</ele>
        <time>2020-10-19T13:37:43Z</time>
      </trkpt>
      <trkpt lat="42.8734920" lon="-7.8174300">
        <ele>613.8</ele>
        <time>2020-10-19T13:37:44Z</time>
      </trkpt>
      <trkpt lat="42.8735020" lon="-7.8174370">
        <ele>613.8</ele>
        <time>2020-10-19T13:37:45Z</time>
      </trkpt>
      <trkpt lat="42.8735130" lon="-7.8174430">
        <ele>613.9</ele>
        <time>2020-10-19T13:37:46Z</time>
      </trkpt>
      <trkpt lat="42.8735240" lon="-7.8174490">
        <ele>613.9</ele>
        <time>2020-10-19T13:37:47Z</time>
      </trkpt>
      <trkpt lat="42.8735370" lon="-7.8174560">
        <ele>613.9</ele>
        <time>2020-10-19T13:37:48Z</time>
      </trkpt>
      <trkpt lat="42.8735490" lon="-7.8174630">
        <ele>614.0</ele>
        <time>2020-10-19T13:37:49Z</time>
      </trkpt>
      <trkpt lat="42.8735610" lon="-7.8174710">
        <ele>614.0</ele>
        <time>2020-10-19T13:37:50Z</time>
      </trkpt>
      <trkpt lat="42.8735710" lon="-7.8174790">
        <ele>614.0</ele>
        <time>2020-10-19T13:37:51Z</time>
      </trkpt>
      <trkpt lat="42.8735810" lon="-7.8174840">
        <ele>614.0</ele>
        <time>2020-10-19T13:37:52Z</time>
      </trkpt>
      <trkpt lat="42.8735880" lon="-7.8174900">
        <ele>614.1</ele>
        <time>2020-10-19T13:37:53Z</time>
      </trkpt>
      <trkpt lat="42.8735950" lon="-7.8174950">
        <ele>614.1</ele>
        <time>2020-10-19T13:37:54Z</time>
      </trkpt>
      <trkpt lat="42.8736020" lon="-7.8175010">
        <ele>614.1</ele>
        <time>2020-10-19T13:37:55Z</time>
      </trkpt>
      <trkpt lat="42.8736090" lon="-7.8175050">
        <ele>614.1</ele>
        <time>2020-10-19T13:37:56Z</time>
      </trkpt>
      <trkpt lat="42.8736160" lon="-7.8175080">
        <ele>614.1</ele>
        <time>2020-10-19T13:37:57Z</time>
      </trkpt>
      <trkpt lat="42.8736200" lon="-7.8175120">
        <ele>614.2</ele>
        <time>2020-10-19T13:37:58Z</time>
      </trkpt>
      <trkpt lat="42.8736260" lon="-7.8175160">
        <ele>614.2</ele>
        <time>2020-10-19T13:37:59Z</time>
      </trkpt>
      <trkpt lat="42.8736340" lon="-7.8175180">
        <ele>614.2</ele>
        <time>2020-10-19T13:38:00Z</time>
      </trkpt>
      <trkpt lat="42.8736430" lon="-7.8175210">
        <ele>614.2</ele>
        <time>2020-10-19T13:38:01Z</time>
      </trkpt>
      <trkpt lat="42.8736530" lon="-7.8175260">
        <ele>614.2</ele>
        <time>2020-10-19T13:38:02Z</time>
      </trkpt>
      <trkpt lat="42.8736640" lon="-7.8175320">
        <ele>614.3</ele>
        <time>2020-10-19T13:38:03Z</time>
      </trkpt>
      <trkpt lat="42.8736750" lon="-7.8175380">
        <ele>614.3</ele>
        <time>2020-10-19T13:38:04Z</time>
      </trkpt>
      <trkpt lat="42.8736870" lon="-7.8175470">
        <ele>614.4</ele>
        <time>2020-10-19T13:38:05Z</time>
      </trkpt>
      <trkpt lat="42.8736970" lon="-7.8175540">
        <ele>614.4</ele>
        <time>2020-10-19T13:38:06Z</time>
      </trkpt>
      <trkpt lat="42.8737060" lon="-7.8175600">
        <ele>614.4</ele>
        <time>2020-10-19T13:38:07Z</time>
      </trkpt>
      <trkpt lat="42.8737170" lon="-7.8175680">
        <ele>614.4</ele>
        <time>2020-10-19T13:38:08Z</time>
      </trkpt>
      <trkpt lat="42.8737280" lon="-7.8175750">
        <ele>614.5</ele>
        <time>2020-10-19T13:38:09Z</time>
      </trkpt>
      <trkpt lat="42.8737390" lon="-7.8175840">
        <ele>614.5</ele>
        <time>2020-10-19T13:38:10Z</time>
      </trkpt>
      <trkpt lat="42.8737490" lon="-7.8175910">
        <ele>614.6</ele>
        <time>2020-10-19T13:38:11Z</time>
      </trkpt>
      <trkpt lat="42.8737570" lon="-7.8176000">
        <ele>614.6</ele>
        <time>2020-10-19T13:38:12Z</time>
      </trkpt>
      <trkpt lat="42.8737660" lon="-7.8176100">
        <ele>614.6</ele>
        <time>2020-10-19T13:38:13Z</time>
      </trkpt>
      <trkpt lat="42.8737760" lon="-7.8176180">
        <ele>614.7</ele>
        <time>2020-10-19T13:38:14Z</time>
      </trkpt>
      <trkpt lat="42.8737880" lon="-7.8176230">
        <ele>614.7</ele>
        <time>2020-10-19T13:38:15Z</time>
      </trkpt>
      <trkpt lat="42.8738000" lon="-7.8176270">
        <ele>614.7</ele>
        <time>2020-10-19T13:38:16Z</time>
      </trkpt>
      <trkpt lat="42.8738130" lon="-7.8176330">
        <ele>614.8</ele>
        <time>2020-10-19T13:38:17Z</time>
      </trkpt>
      <trkpt lat="42.8738270" lon="-7.8176410">
        <ele>614.8</ele>
        <time>2020-10-19T13:38:18Z</time>
      </trkpt>
      <trkpt lat="42.8738410" lon="-7.8176490">
        <ele>614.9</ele>
        <time>2020-10-19T13:38:19Z</time>
      </trkpt>
      <trkpt lat="42.8738540" lon="-7.8176550">
        <ele>615.0</ele>
        <time>2020-10-19T13:38:20Z</time>
      </trkpt>
      <trkpt lat="42.8738670" lon="-7.8176610">
        <ele>615.0</ele>
        <time>2020-10-19T13:38:21Z</time>
      </trkpt>
      <trkpt lat="42.8738800" lon="-7.8176680">
        <ele>615.1</ele>
        <time>2020-10-19T13:38:22Z</time>
      </trkpt>
      <trkpt lat="42.8738940" lon="-7.8176770">
        <ele>615.2</ele>
        <time>2020-10-19T13:38:23Z</time>
      </trkpt>
      <trkpt lat="42.8739070" lon="-7.8176850">
        <ele>615.2</ele>
        <time>2020-10-19T13:38:24Z</time>
      </trkpt>
      <trkpt lat="42.8739200" lon="-7.8176930">
        <ele>615.3</ele>
        <time>2020-10-19T13:38:25Z</time>
      </trkpt>
      <trkpt lat="42.8739320" lon="-7.8177000">
        <ele>615.4</ele>
        <time>2020-10-19T13:38:26Z</time>
      </trkpt>
      <trkpt lat="42.8739460" lon="-7.8177070">
        <ele>615.5</ele>
        <time>2020-10-19T13:38:27Z</time>
      </trkpt>
      <trkpt lat="42.8739600" lon="-7.8177160">
        <ele>615.5</ele>
        <time>2020-10-19T13:38:28Z</time>
      </trkpt>
      <trkpt lat="42.8739760" lon="-7.8177250">
        <ele>615.7</ele>
        <time>2020-10-19T13:38:29Z</time>
      </trkpt>
      <trkpt lat="42.8739910" lon="-7.8177350">
        <ele>615.8</ele>
        <time>2020-10-19T13:38:30Z</time>
      </trkpt>
      <trkpt lat="42.8740050" lon="-7.8177450">
        <ele>615.9</ele>
        <time>2020-10-19T13:38:31Z</time>
      </trkpt>
      <trkpt lat="42.8740170" lon="-7.8177530">
        <ele>616.0</ele>
        <time>2020-10-19T13:38:32Z</time>
      </trkpt>
      <trkpt lat="42.8740290" lon="-7.8177610">
        <ele>616.1</ele>
        <time>2020-10-19T13:38:33Z</time>
      </trkpt>
      <trkpt lat="42.8740410" lon="-7.8177700">
        <ele>616.2</ele>
        <time>2020-10-19T13:38:34Z</time>
      </trkpt>
      <trkpt lat="42.8740530" lon="-7.8177790">
        <ele>616.3</ele>
        <time>2020-10-19T13:38:35Z</time>
      </trkpt>
      <trkpt lat="42.8740650" lon="-7.8177880">
        <ele>616.4</ele>
        <time>2020-10-19T13:38:36Z</time>
      </trkpt>
      <trkpt lat="42.8740760" lon="-7.8177970">
        <ele>616.5</ele>
        <time>2020-10-19T13:38:37Z</time>
      </trkpt>
      <trkpt lat="42.8740870" lon="-7.8178080">
        <ele>616.6</ele>
        <time>2020-10-19T13:38:38Z</time>
      </trkpt>
      <trkpt lat="42.8740980" lon="-7.8178200">
        <ele>616.7</ele>
        <time>2020-10-19T13:38:39Z</time>
      </trkpt>
      <trkpt lat="42.8741070" lon="-7.8178360">
        <ele>616.8</ele>
        <time>2020-10-19T13:38:40Z</time>
      </trkpt>
      <trkpt lat="42.8741160" lon="-7.8178520">
        <ele>617.0</ele>
        <time>2020-10-19T13:38:41Z</time>
      </trkpt>
      <trkpt lat="42.8741240" lon="-7.8178680">
        <ele>617.1</ele>
        <time>2020-10-19T13:38:42Z</time>
      </trkpt>
      <trkpt lat="42.8741330" lon="-7.8178820">
        <ele>617.2</ele>
        <time>2020-10-19T13:38:43Z</time>
      </trkpt>
      <trkpt lat="42.8741410" lon="-7.8178970">
        <ele>617.3</ele>
        <time>2020-10-19T13:38:44Z</time>
      </trkpt>
      <trkpt lat="42.8741480" lon="-7.8179130">
        <ele>617.5</ele>
        <time>2020-10-19T13:38:45Z</time>
      </trkpt>
      <trkpt lat="42.8741550" lon="-7.8179300">
        <ele>617.6</ele>
        <time>2020-10-19T13:38:46Z</time>
      </trkpt>
      <trkpt lat="42.8741620" lon="-7.8179480">
        <ele>617.7</ele>
        <time>2020-10-19T13:38:47Z</time>
      </trkpt>
      <trkpt lat="42.8741680" lon="-7.8179680">
        <ele>617.9</ele>
        <time>2020-10-19T13:38:48Z</time>
      </trkpt>
      <trkpt lat="42.8741730" lon="-7.8179870">
        <ele>618.0</ele>
        <time>2020-10-19T13:38:49Z</time>
      </trkpt>
      <trkpt lat="42.8741780" lon="-7.8180050">
        <ele>618.2</ele>
        <time>2020-10-19T13:38:50Z</time>
      </trkpt>
      <trkpt lat="42.8741820" lon="-7.8180230">
        <ele>618.3</ele>
        <time>2020-10-19T13:38:51Z</time>
      </trkpt>
      <trkpt lat="42.8741840" lon="-7.8180420">
        <ele>618.5</ele>
        <time>2020-10-19T13:38:52Z</time>
      </trkpt>
      <trkpt lat="42.8741860" lon="-7.8180600">
        <ele>618.6</ele>
        <time>2020-10-19T13:38:53Z</time>
      </trkpt>
      <trkpt lat="42.8741850" lon="-7.8180780">
        <ele>618.7</ele>
        <time>2020-10-19T13:38:54Z</time>
      </trkpt>
      <trkpt lat="42.8741820" lon="-7.8180920">
        <ele>618.9</ele>
        <time>2020-10-19T13:38:55Z</time>
      </trkpt>
      <trkpt lat="42.8741810" lon="-7.8181040">
        <ele>618.9</ele>
        <time>2020-10-19T13:38:56Z</time>
      </trkpt>
      <trkpt lat="42.8741800" lon="-7.8181160">
        <ele>619.0</ele>
        <time>2020-10-19T13:38:57Z</time>
      </trkpt>
      <trkpt lat="42.8741780" lon="-7.8181280">
        <ele>619.1</ele>
        <time>2020-10-19T13:38:58Z</time>
      </trkpt>
      <trkpt lat="42.8741750" lon="-7.8181410">
        <ele>619.2</ele>
        <time>2020-10-19T13:38:59Z</time>
      </trkpt>
      <trkpt lat="42.8741720" lon="-7.8181540">
        <ele>619.3</ele>
        <time>2020-10-19T13:39:00Z</time>
      </trkpt>
      <trkpt lat="42.8741700" lon="-7.8181660">
        <ele>619.4</ele>
        <time>2020-10-19T13:39:01Z</time>
      </trkpt>
      <trkpt lat="42.8741690" lon="-7.8181760">
        <ele>619.5</ele>
        <time>2020-10-19T13:39:02Z</time>
      </trkpt>
      <trkpt lat="42.8741670" lon="-7.8181880">
        <ele>619.6</ele>
        <time>2020-10-19T13:39:03Z</time>
      </trkpt>
      <trkpt lat="42.8741630" lon="-7.8182010">
        <ele>619.7</ele>
        <time>2020-10-19T13:39:04Z</time>
      </trkpt>
      <trkpt lat="42.8741580" lon="-7.8182140">
        <ele>619.8</ele>
        <time>2020-10-19T13:39:05Z</time>
      </trkpt>
      <trkpt lat="42.8741520" lon="-7.8182280">
        <ele>620.0</ele>
        <time>2020-10-19T13:39:06Z</time>
      </trkpt>
      <trkpt lat="42.8741450" lon="-7.8182420">
        <ele>620.1</ele>
        <time>2020-10-19T13:39:07Z</time>
      </trkpt>
      <trkpt lat="42.8741380" lon="-7.8182560">
        <ele>620.2</ele>
        <time>2020-10-19T13:39:08Z</time>
      </trkpt>
      <trkpt lat="42.8741290" lon="-7.8182670">
        <ele>620.3</ele>
        <time>2020-10-19T13:39:09Z</time>
      </trkpt>
      <trkpt lat="42.8741210" lon="-7.8182780">
        <ele>620.5</ele>
        <time>2020-10-19T13:39:10Z</time>
      </trkpt>
      <trkpt lat="42.8741140" lon="-7.8182910">
        <ele>620.6</ele>
        <time>2020-10-19T13:39:11Z</time>
      </trkpt>
      <trkpt lat="42.8741080" lon="-7.8183070">
        <ele>620.7</ele>
        <time>2020-10-19T13:39:12Z</time>
      </trkpt>
      <trkpt lat="42.8741020" lon="-7.8183240">
        <ele>620.9</ele>
        <time>2020-10-19T13:39:13Z</time>
      </trkpt>
      <trkpt lat="42.8740960" lon="-7.8183410">
        <ele>621.0</ele>
        <time>2020-10-19T13:39:14Z</time>
      </trkpt>
      <trkpt lat="42.8740900" lon="-7.8183590">
        <ele>621.1</ele>
        <time>2020-10-19T13:39:15Z</time>
      </trkpt>
      <trkpt lat="42.8740850" lon="-7.8183760">
        <ele>621.3</ele>
        <time>2020-10-19T13:39:16Z</time>
      </trkpt>
      <trkpt lat="42.8740800" lon="-7.8183920">
        <ele>621.4</ele>
        <time>2020-10-19T13:39:17Z</time>
      </trkpt>
      <trkpt lat="42.8740750" lon="-7.8184090">
        <ele>621.5</ele>
        <time>2020-10-19T13:39:18Z</time>
      </trkpt>
      <trkpt lat="42.8740700" lon="-7.8184260">
        <ele>621.7</ele>
        <time>2020-10-19T13:39:19Z</time>
      </trkpt>
      <trkpt lat="42.8740650" lon="-7.8184420">
        <ele>621.8</ele>
        <time>2020-10-19T13:39:20Z</time>
      </trkpt>
      <trkpt lat="42.8740590" lon="-7.8184590">
        <ele>621.9</ele>
        <time>2020-10-19T13:39:21Z</time>
      </trkpt>
      <trkpt lat="42.8740530" lon="-7.8184740">
        <ele>622.1</ele>
        <time>2020-10-19T13:39:22Z</time>
      </trkpt>
      <trkpt lat="42.8740470" lon="-7.8184900">
        <ele>622.2</ele>
        <time>2020-10-19T13:39:23Z</time>
      </trkpt>
      <trkpt lat="42.8740410" lon="-7.8185060">
        <ele>622.3</ele>
        <time>2020-10-19T13:39:24Z</time>
      </trkpt>
      <trkpt lat="42.8740360" lon="-7.8185210">
        <ele>622.4</ele>
        <time>2020-10-19T13:39:25Z</time>
      </trkpt>
      <trkpt lat="42.8740310" lon="-7.8185370">
        <ele>622.6</ele>
        <time>2020-10-19T13:39:26Z</time>
      </trkpt>
      <trkpt lat="42.8740260" lon="-7.8185530">
        <ele>622.7</ele>
        <time>2020-10-19T13:39:27Z</time>
      </trkpt>
      <trkpt lat="42.8740210" lon="-7.8185690">
        <ele>622.8</ele>
        <time>2020-10-19T13:39:28Z</time>
      </trkpt>
      <trkpt lat="42.8740160" lon="-7.8185860">
        <ele>622.9</ele>
        <time>2020-10-19T13:39:29Z</time>
      </trkpt>
      <trkpt lat="42.8740100" lon="-7.8186020">
        <ele>623.0</ele>
        <time>2020-10-19T13:39:30Z</time>
      </trkpt>
      <trkpt lat="42.8740040" lon="-7.8186180">
        <ele>623.1</ele>
        <time>2020-10-19T13:39:31Z</time>
      </trkpt>
      <trkpt lat="42.8739970" lon="-7.8186350">
        <ele>623.3</ele>
        <time>2020-10-19T13:39:32Z</time>
      </trkpt>
      <trkpt lat="42.8739910" lon="-7.8186510">
        <ele>623.4</ele>
        <time>2020-10-19T13:39:33Z</time>
      </trkpt>
      <trkpt lat="42.8739840" lon="-7.8186670">
        <ele>623.5</ele>
        <time>2020-10-19T13:39:34Z</time>
      </trkpt>
      <trkpt lat="42.8739790" lon="-7.8186830">
        <ele>623.6</ele>
        <time>2020-10-19T13:39:35Z</time>
      </trkpt>
      <trkpt lat="42.8739740" lon="-7.8186990">
        <ele>623.7</ele>
        <time>2020-10-19T13:39:36Z</time>
      </trkpt>
      <trkpt lat="42.8739680" lon="-7.8187140">
        <ele>623.7</ele>
        <time>2020-10-19T13:39:37Z</time>
      </trkpt>
      <trkpt lat="42.8739660" lon="-7.8187270">
        <ele>623.8</ele>
        <time>2020-10-19T13:39:38Z</time>
      </trkpt>
      <trkpt lat="42.8739640" lon="-7.8187400">
        <ele>623.9</ele>
        <time>2020-10-19T13:39:39Z</time>
      </trkpt>
      <trkpt lat="42.8739630" lon="-7.8187530">
        <ele>623.9</ele>
        <time>2020-10-19T13:39:40Z</time>
      </trkpt>
      <trkpt lat="42.8739590" lon="-7.8187660">
        <ele>624.0</ele>
        <time>2020-10-19T13:39:41Z</time>
      </trkpt>
      <trkpt lat="42.8739550" lon="-7.8187790">
        <ele>624.1</ele>
        <time>2020-10-19T13:39:42Z</time>
      </trkpt>
      <trkpt lat="42.8739530" lon="-7.8187890">
        <ele>624.1</ele>
        <time>2020-10-19T13:39:43Z</time>
      </trkpt>
      <trkpt lat="42.8739520" lon="-7.8187990">
        <ele>624.2</ele>
        <time>2020-10-19T13:39:44Z</time>
      </trkpt>
      <trkpt lat="42.8739510" lon="-7.8188060">
        <ele>624.2</ele>
        <time>2020-10-19T13:39:45Z</time>
      </trkpt>
      <trkpt lat="42.8739510" lon="-7.8188110">
        <ele>624.2</ele>
        <time>2020-10-19T13:39:46Z</time>
      </trkpt>
      <trkpt lat="42.8739500" lon="-7.8188160">
        <ele>624.2</ele>
        <time>2020-10-19T13:39:47Z</time>
      </trkpt>
      <trkpt lat="42.8739510" lon="-7.8188200">
        <ele>624.3</ele>
        <time>2020-10-19T13:39:48Z</time>
      </trkpt>
      <trkpt lat="42.8739520" lon="-7.8188220">
        <ele>624.3</ele>
        <time>2020-10-19T13:39:49Z</time>
      </trkpt>
      <trkpt lat="42.8739550" lon="-7.8188230">
        <ele>624.3</ele>
        <time>2020-10-19T13:39:50Z</time>
      </trkpt>
      <trkpt lat="42.8739560" lon="-7.8188260">
        <ele>624.3</ele>
        <time>2020-10-19T13:39:51Z</time>
      </trkpt>
      <trkpt lat="42.8739560" lon="-7.8188340">
        <ele>624.3</ele>
        <time>2020-10-19T13:39:52Z</time>
      </trkpt>
      <trkpt lat="42.8739550" lon="-7.8188440">
        <ele>624.4</ele>
        <time>2020-10-19T13:39:53Z</time>
      </trkpt>
      <trkpt lat="42.8739530" lon="-7.8188580">
        <ele>624.4</ele>
        <time>2020-10-19T13:39:54Z</time>
      </trkpt>
      <trkpt lat="42.8739510" lon="-7.8188720">
        <ele>624.5</ele>
        <time>2020-10-19T13:39:55Z</time>
      </trkpt>
      <trkpt lat="42.8739480" lon="-7.8188860">
        <ele>624.5</ele>
        <time>2020-10-19T13:39:56Z</time>
      </trkpt>
      <trkpt lat="42.8739440" lon="-7.8188990">
        <ele>624.6</ele>
        <time>2020-10-19T13:39:57Z</time>
      </trkpt>
      <trkpt lat="42.8739400" lon="-7.8189110">
        <ele>624.6</ele>
        <time>2020-10-19T13:39:58Z</time>
      </trkpt>
      <trkpt lat="42.8739340" lon="-7.8189230">
        <ele>624.7</ele>
        <time>2020-10-19T13:39:59Z</time>
      </trkpt>
      <trkpt lat="42.8739300" lon="-7.8189380">
        <ele>624.7</ele>
        <time>2020-10-19T13:40:00Z</time>
      </trkpt>
      <trkpt lat="42.8739270" lon="-7.8189530">
        <ele>624.8</ele>
        <time>2020-10-19T13:40:01Z</time>
      </trkpt>
      <trkpt lat="42.8739260" lon="-7.8189710">
        <ele>624.8</ele>
        <time>2020-10-19T13:40:02Z</time>
      </trkpt>
      <trkpt lat="42.8739240" lon="-7.8189890">
        <ele>624.9</ele>
        <time>2020-10-19T13:40:03Z</time>
      </trkpt>
      <trkpt lat="42.8739200" lon="-7.8190070">
        <ele>624.9</ele>
        <time>2020-10-19T13:40:04Z</time>
      </trkpt>
      <trkpt lat="42.8739170" lon="-7.8190240">
        <ele>625.0</ele>
        <time>2020-10-19T13:40:05Z</time>
      </trkpt>
      <trkpt lat="42.8739150" lon="-7.8190390">
        <ele>625.0</ele>
        <time>2020-10-19T13:40:06Z</time>
      </trkpt>
      <trkpt lat="42.8739110" lon="-7.8190540">
        <ele>625.0</ele>
        <time>2020-10-19T13:40:07Z</time>
      </trkpt>
      <trkpt lat="42.8739070" lon="-7.8190690">
        <ele>625.0</ele>
        <time>2020-10-19T13:40:08Z</time>
      </trkpt>
      <trkpt lat="42.8739030" lon="-7.8190890">
        <ele>625.1</ele>
        <time>2020-10-19T13:40:09Z</time>
      </trkpt>
      <trkpt lat="42.8739000" lon="-7.8191080">
        <ele>625.1</ele>
        <time>2020-10-19T13:40:10Z</time>
      </trkpt>
      <trkpt lat="42.8738990" lon="-7.8191280">
        <ele>625.1</ele>
        <time>2020-10-19T13:40:11Z</time>
      </trkpt>
      <trkpt lat="42.8738980" lon="-7.8191460">
        <ele>625.2</ele>
        <time>2020-10-19T13:40:12Z</time>
      </trkpt>
      <trkpt lat="42.8738980" lon="-7.8191640">
        <ele>625.2</ele>
        <time>2020-10-19T13:40:13Z</time>
      </trkpt>
      <trkpt lat="42.8738960" lon="-7.8191810">
        <ele>625.2</ele>
        <time>2020-10-19T13:40:14Z</time>
      </trkpt>
      <trkpt lat="42.8738930" lon="-7.8191990">
        <ele>625.2</ele>
        <time>2020-10-19T13:40:15Z</time>
      </trkpt>
      <trkpt lat="42.8738900" lon="-7.8192170">
        <ele>625.2</ele>
        <time>2020-10-19T13:40:16Z</time>
      </trkpt>
      <trkpt lat="42.8738890" lon="-7.8192340">
        <ele>625.2</ele>
        <time>2020-10-19T13:40:17Z</time>
      </trkpt>
      <trkpt lat="42.8738870" lon="-7.8192520">
        <ele>625.2</ele>
        <time>2020-10-19T13:40:18Z</time>
      </trkpt>
      <trkpt lat="42.8738830" lon="-7.8192690">
        <ele>625.3</ele>
        <time>2020-10-19T13:40:19Z</time>
      </trkpt>
      <trkpt lat="42.8738790" lon="-7.8192860">
        <ele>625.3</ele>
        <time>2020-10-19T13:40:20Z</time>
      </trkpt>
      <trkpt lat="42.8738740" lon="-7.8193020">
        <ele>625.3</ele>
        <time>2020-10-19T13:40:21Z</time>
      </trkpt>
      <trkpt lat="42.8738700" lon="-7.8193170">
        <ele>625.3</ele>
        <time>2020-10-19T13:40:22Z</time>
      </trkpt>
      <trkpt lat="42.8738640" lon="-7.8193340">
        <ele>625.3</ele>
        <time>2020-10-19T13:40:23Z</time>
      </trkpt>
      <trkpt lat="42.8738610" lon="-7.8193500">
        <ele>625.3</ele>
        <time>2020-10-19T13:40:24Z</time>
      </trkpt>
      <trkpt lat="42.8738570" lon="-7.8193670">
        <ele>625.3</ele>
        <time>2020-10-19T13:40:25Z</time>
      </trkpt>
      <trkpt lat="42.8738510" lon="-7.8193830">
        <ele>625.3</ele>
        <time>2020-10-19T13:40:26Z</time>
      </trkpt>
      <trkpt lat="42.8738450" lon="-7.8193960">
        <ele>625.3</ele>
        <time>2020-10-19T13:40:27Z</time>
      </trkpt>
      <trkpt lat="42.8738400" lon="-7.8194070">
        <ele>625.3</ele>
        <time>2020-10-19T13:40:28Z</time>
      </trkpt>
      <trkpt lat="42.8738370" lon="-7.8194150">
        <ele>625.3</ele>
        <time>2020-10-19T13:40:29Z</time>
      </trkpt>
      <trkpt lat="42.8738350" lon="-7.8194250">
        <ele>625.3</ele>
        <time>2020-10-19T13:40:30Z</time>
      </trkpt>
      <trkpt lat="42.8738340" lon="-7.8194350">
        <ele>625.3</ele>
        <time>2020-10-19T13:40:31Z</time>
      </trkpt>
      <trkpt lat="42.8738330" lon="-7.8194450">
        <ele>625.3</ele>
        <time>2020-10-19T13:40:32Z</time>
      </trkpt>
      <trkpt lat="42.8738300" lon="-7.8194530">
        <ele>625.3</ele>
        <time>2020-10-19T13:40:33Z</time>
      </trkpt>
      <trkpt lat="42.8738260" lon="-7.8194630">
        <ele>625.3</ele>
        <time>2020-10-19T13:40:34Z</time>
      </trkpt>
      <trkpt lat="42.8738230" lon="-7.8194740">
        <ele>625.3</ele>
        <time>2020-10-19T13:40:35Z</time>
      </trkpt>
      <trkpt lat="42.8738200" lon="-7.8194900">
        <ele>625.3</ele>
        <time>2020-10-19T13:40:36Z</time>
      </trkpt>
      <trkpt lat="42.8738180" lon="-7.8195050">
        <ele>625.3</ele>
        <time>2020-10-19T13:40:37Z</time>
      </trkpt>
      <trkpt lat="42.8738150" lon="-7.8195220">
        <ele>625.3</ele>
        <time>2020-10-19T13:40:38Z</time>
      </trkpt>
      <trkpt lat="42.8738120" lon="-7.8195350">
        <ele>625.3</ele>
        <time>2020-10-19T13:40:39Z</time>
      </trkpt>
      <trkpt lat="42.8738100" lon="-7.8195520">
        <ele>625.3</ele>
        <time>2020-10-19T13:40:40Z</time>
      </trkpt>
      <trkpt lat="42.8738040" lon="-7.8195710">
        <ele>625.3</ele>
        <time>2020-10-19T13:40:41Z</time>
      </trkpt>
      <trkpt lat="42.8737980" lon="-7.8195930">
        <ele>625.3</ele>
        <time>2020-10-19T13:40:42Z</time>
      </trkpt>
      <trkpt lat="42.8737910" lon="-7.8196140">
        <ele>625.2</ele>
        <time>2020-10-19T13:40:43Z</time>
      </trkpt>
      <trkpt lat="42.8737850" lon="-7.8196350">
        <ele>625.2</ele>
        <time>2020-10-19T13:40:44Z</time>
      </trkpt>
      <trkpt lat="42.8737790" lon="-7.8196550">
        <ele>625.2</ele>
        <time>2020-10-19T13:40:45Z</time>
      </trkpt>
      <trkpt lat="42.8737730" lon="-7.8196740">
        <ele>625.2</ele>
        <time>2020-10-19T13:40:46Z</time>
      </trkpt>
      <trkpt lat="42.8737670" lon="-7.8196930">
        <ele>625.2</ele>
        <time>2020-10-19T13:40:47Z</time>
      </trkpt>
      <trkpt lat="42.8737610" lon="-7.8197130">
        <ele>625.2</ele>
        <time>2020-10-19T13:40:48Z</time>
      </trkpt>
      <trkpt lat="42.8737560" lon="-7.8197330">
        <ele>625.2</ele>
        <time>2020-10-19T13:40:49Z</time>
      </trkpt>
      <trkpt lat="42.8737490" lon="-7.8197540">
        <ele>625.2</ele>
        <time>2020-10-19T13:40:50Z</time>
      </trkpt>
      <trkpt lat="42.8737450" lon="-7.8197750">
        <ele>625.1</ele>
        <time>2020-10-19T13:40:51Z</time>
      </trkpt>
      <trkpt lat="42.8737400" lon="-7.8197970">
        <ele>625.1</ele>
        <time>2020-10-19T13:40:52Z</time>
      </trkpt>
      <trkpt lat="42.8737370" lon="-7.8198180">
        <ele>625.1</ele>
        <time>2020-10-19T13:40:53Z</time>
      </trkpt>
      <trkpt lat="42.8737330" lon="-7.8198380">
        <ele>625.1</ele>
        <time>2020-10-19T13:40:54Z</time>
      </trkpt>
      <trkpt lat="42.8737300" lon="-7.8198590">
        <ele>625.1</ele>
        <time>2020-10-19T13:40:55Z</time>
      </trkpt>
      <trkpt lat="42.8737280" lon="-7.8198790">
        <ele>625.1</ele>
        <time>2020-10-19T13:40:56Z</time>
      </trkpt>
      <trkpt lat="42.8737240" lon="-7.8198980">
        <ele>625.1</ele>
        <time>2020-10-19T13:40:57Z</time>
      </trkpt>
      <trkpt lat="42.8737180" lon="-7.8199170">
        <ele>625.0</ele>
        <time>2020-10-19T13:40:58Z</time>
      </trkpt>
      <trkpt lat="42.8737130" lon="-7.8199350">
        <ele>625.0</ele>
        <time>2020-10-19T13:40:59Z</time>
      </trkpt>
      <trkpt lat="42.8737090" lon="-7.8199550">
        <ele>625.0</ele>
        <time>2020-10-19T13:41:00Z</time>
      </trkpt>
      <trkpt lat="42.8737060" lon="-7.8199740">
        <ele>625.0</ele>
        <time>2020-10-19T13:41:01Z</time>
      </trkpt>
      <trkpt lat="42.8737030" lon="-7.8199940">
        <ele>625.0</ele>
        <time>2020-10-19T13:41:02Z</time>
      </trkpt>
      <trkpt lat="42.8737010" lon="-7.8200130">
        <ele>625.0</ele>
        <time>2020-10-19T13:41:03Z</time>
      </trkpt>
      <trkpt lat="42.8736980" lon="-7.8200310">
        <ele>625.0</ele>
        <time>2020-10-19T13:41:04Z</time>
      </trkpt>
      <trkpt lat="42.8736940" lon="-7.8200500">
        <ele>625.0</ele>
        <time>2020-10-19T13:41:05Z</time>
      </trkpt>
      <trkpt lat="42.8736900" lon="-7.8200690">
        <ele>625.0</ele>
        <time>2020-10-19T13:41:06Z</time>
      </trkpt>
      <trkpt lat="42.8736850" lon="-7.8200900">
        <ele>625.0</ele>
        <time>2020-10-19T13:41:07Z</time>
      </trkpt>
      <trkpt lat="42.8736800" lon="-7.8201100">
        <ele>625.0</ele>
        <time>2020-10-19T13:41:08Z</time>
      </trkpt>
      <trkpt lat="42.8736740" lon="-7.8201300">
        <ele>624.9</ele>
        <time>2020-10-19T13:41:09Z</time>
      </trkpt>
      <trkpt lat="42.8736670" lon="-7.8201480">
        <ele>624.9</ele>
        <time>2020-10-19T13:41:10Z</time>
      </trkpt>
      <trkpt lat="42.8736600" lon="-7.8201660">
        <ele>624.9</ele>
        <time>2020-10-19T13:41:11Z</time>
      </trkpt>
      <trkpt lat="42.8736530" lon="-7.8201850">
        <ele>624.9</ele>
        <time>2020-10-19T13:41:12Z</time>
      </trkpt>
      <trkpt lat="42.8736470" lon="-7.8202050">
        <ele>624.9</ele>
        <time>2020-10-19T13:41:13Z</time>
      </trkpt>
      <trkpt lat="42.8736410" lon="-7.8202250">
        <ele>624.9</ele>
        <time>2020-10-19T13:41:14Z</time>
      </trkpt>
      <trkpt lat="42.8736370" lon="-7.8202440">
        <ele>624.9</ele>
        <time>2020-10-19T13:41:15Z</time>
      </trkpt>
      <trkpt lat="42.8736330" lon="-7.8202610">
        <ele>624.9</ele>
        <time>2020-10-19T13:41:16Z</time>
      </trkpt>
      <trkpt lat="42.8736290" lon="-7.8202790">
        <ele>624.9</ele>
        <time>2020-10-19T13:41:17Z</time>
      </trkpt>
      <trkpt lat="42.8736240" lon="-7.8202960">
        <ele>625.0</ele>
        <time>2020-10-19T13:41:18Z</time>
      </trkpt>
      <trkpt lat="42.8736180" lon="-7.8203140">
        <ele>625.0</ele>
        <time>2020-10-19T13:41:19Z</time>
      </trkpt>
      <trkpt lat="42.8736130" lon="-7.8203310">
        <ele>625.0</ele>
        <time>2020-10-19T13:41:20Z</time>
      </trkpt>
      <trkpt lat="42.8736080" lon="-7.8203470">
        <ele>625.0</ele>
        <time>2020-10-19T13:41:21Z</time>
      </trkpt>
      <trkpt lat="42.8736030" lon="-7.8203640">
        <ele>625.0</ele>
        <time>2020-10-19T13:41:22Z</time>
      </trkpt>
      <trkpt lat="42.8735960" lon="-7.8203800">
        <ele>625.0</ele>
        <time>2020-10-19T13:41:23Z</time>
      </trkpt>
      <trkpt lat="42.8735890" lon="-7.8203970">
        <ele>625.0</ele>
        <time>2020-10-19T13:41:24Z</time>
      </trkpt>
      <trkpt lat="42.8735820" lon="-7.8204130">
        <ele>625.0</ele>
        <time>2020-10-19T13:41:25Z</time>
      </trkpt>
      <trkpt lat="42.8735760" lon="-7.8204290">
        <ele>625.1</ele>
        <time>2020-10-19T13:41:26Z</time>
      </trkpt>
      <trkpt lat="42.8735700" lon="-7.8204450">
        <ele>625.1</ele>
        <time>2020-10-19T13:41:27Z</time>
      </trkpt>
      <trkpt lat="42.8735640" lon="-7.8204610">
        <ele>625.1</ele>
        <time>2020-10-19T13:41:28Z</time>
      </trkpt>
      <trkpt lat="42.8735590" lon="-7.8204760">
        <ele>625.1</ele>
        <time>2020-10-19T13:41:29Z</time>
      </trkpt>
      <trkpt lat="42.8735530" lon="-7.8204920">
        <ele>625.2</ele>
        <time>2020-10-19T13:41:30Z</time>
      </trkpt>
      <trkpt lat="42.8735470" lon="-7.8205070">
        <ele>625.2</ele>
        <time>2020-10-19T13:41:31Z</time>
      </trkpt>
      <trkpt lat="42.8735420" lon="-7.8205230">
        <ele>625.2</ele>
        <time>2020-10-19T13:41:32Z</time>
      </trkpt>
      <trkpt lat="42.8735360" lon="-7.8205390">
        <ele>625.2</ele>
        <time>2020-10-19T13:41:33Z</time>
      </trkpt>
      <trkpt lat="42.8735300" lon="-7.8205530">
        <ele>625.3</ele>
        <time>2020-10-19T13:41:34Z</time>
      </trkpt>
      <trkpt lat="42.8735240" lon="-7.8205680">
        <ele>625.3</ele>
        <time>2020-10-19T13:41:35Z</time>
      </trkpt>
      <trkpt lat="42.8735190" lon="-7.8205830">
        <ele>625.3</ele>
        <time>2020-10-19T13:41:36Z</time>
      </trkpt>
      <trkpt lat="42.8735140" lon="-7.8205980">
        <ele>625.3</ele>
        <time>2020-10-19T13:41:37Z</time>
      </trkpt>
      <trkpt lat="42.8735080" lon="-7.8206120">
        <ele>625.4</ele>
        <time>2020-10-19T13:41:38Z</time>
      </trkpt>
      <trkpt lat="42.8735020" lon="-7.8206270">
        <ele>625.4</ele>
        <time>2020-10-19T13:41:39Z</time>
      </trkpt>
      <trkpt lat="42.8734960" lon="-7.8206410">
        <ele>625.4</ele>
        <time>2020-10-19T13:41:40Z</time>
      </trkpt>
      <trkpt lat="42.8734900" lon="-7.8206520">
        <ele>625.5</ele>
        <time>2020-10-19T13:41:41Z</time>
      </trkpt>
      <trkpt lat="42.8734860" lon="-7.8206640">
        <ele>625.5</ele>
        <time>2020-10-19T13:41:42Z</time>
      </trkpt>
      <trkpt lat="42.8734820" lon="-7.8206770">
        <ele>625.5</ele>
        <time>2020-10-19T13:41:43Z</time>
      </trkpt>
      <trkpt lat="42.8734780" lon="-7.8206930">
        <ele>625.6</ele>
        <time>2020-10-19T13:41:44Z</time>
      </trkpt>
      <trkpt lat="42.8734750" lon="-7.8207090">
        <ele>625.6</ele>
        <time>2020-10-19T13:41:45Z</time>
      </trkpt>
      <trkpt lat="42.8734700" lon="-7.8207240">
        <ele>625.7</ele>
        <time>2020-10-19T13:41:46Z</time>
      </trkpt>
      <trkpt lat="42.8734680" lon="-7.8207380">
        <ele>625.7</ele>
        <time>2020-10-19T13:41:47Z</time>
      </trkpt>
      <trkpt lat="42.8734680" lon="-7.8207470">
        <ele>625.7</ele>
        <time>2020-10-19T13:41:48Z</time>
      </trkpt>
      <trkpt lat="42.8734810" lon="-7.8207540">
        <ele>625.8</ele>
        <time>2020-10-19T13:41:49Z</time>
      </trkpt>
      <trkpt lat="42.8734980" lon="-7.8207570">
        <ele>625.8</ele>
        <time>2020-10-19T13:41:50Z</time>
      </trkpt>
      <trkpt lat="42.8735190" lon="-7.8207610">
        <ele>625.9</ele>
        <time>2020-10-19T13:41:51Z</time>
      </trkpt>
      <trkpt lat="42.8735330" lon="-7.8207630">
        <ele>626.0</ele>
        <time>2020-10-19T13:41:52Z</time>
      </trkpt>
      <trkpt lat="42.8735460" lon="-7.8207660">
        <ele>626.0</ele>
        <time>2020-10-19T13:41:53Z</time>
      </trkpt>
      <trkpt lat="42.8735560" lon="-7.8207700">
        <ele>626.1</ele>
        <time>2020-10-19T13:41:54Z</time>
      </trkpt>
      <trkpt lat="42.8735640" lon="-7.8207730">
        <ele>626.1</ele>
        <time>2020-10-19T13:41:55Z</time>
      </trkpt>
      <trkpt lat="42.8735670" lon="-7.8207750">
        <ele>626.2</ele>
        <time>2020-10-19T13:41:56Z</time>
      </trkpt>
      <trkpt lat="42.8735670" lon="-7.8207760">
        <ele>626.2</ele>
        <time>2020-10-19T13:41:57Z</time>
      </trkpt>
      <trkpt lat="42.8735660" lon="-7.8207760">
        <ele>626.2</ele>
        <time>2020-10-19T13:41:58Z</time>
      </trkpt>
      <trkpt lat="42.8735660" lon="-7.8207750">
        <ele>626.2</ele>
        <time>2020-10-19T13:41:59Z</time>
      </trkpt>
      <trkpt lat="42.8735670" lon="-7.8207710">
        <ele>626.2</ele>
        <time>2020-10-19T13:42:00Z</time>
      </trkpt>
      <trkpt lat="42.8735670" lon="-7.8207680">
        <ele>626.2</ele>
        <time>2020-10-19T13:42:01Z</time>
      </trkpt>
      <trkpt lat="42.8735660" lon="-7.8207640">
        <ele>626.2</ele>
        <time>2020-10-19T13:42:02Z</time>
      </trkpt>
      <trkpt lat="42.8735650" lon="-7.8207620">
        <ele>626.2</ele>
        <time>2020-10-19T13:42:03Z</time>
      </trkpt>
      <trkpt lat="42.8735650" lon="-7.8207590">
        <ele>626.2</ele>
        <time>2020-10-19T13:42:04Z</time>
      </trkpt>
      <trkpt lat="42.8735650" lon="-7.8207570">
        <ele>626.2</ele>
        <time>2020-10-19T13:42:05Z</time>
      </trkpt>
      <trkpt lat="42.8735640" lon="-7.8207550">
        <ele>626.2</ele>
        <time>2020-10-19T13:42:06Z</time>
      </trkpt>
      <trkpt lat="42.8735640" lon="-7.8207540">
        <ele>626.2</ele>
        <time>2020-10-19T13:42:07Z</time>
      </trkpt>
      <trkpt lat="42.8735630" lon="-7.8207530">
        <ele>626.2</ele>
        <time>2020-10-19T13:42:08Z</time>
      </trkpt>
      <trkpt lat="42.8735630" lon="-7.8207520">
        <ele>626.2</ele>
        <time>2020-10-19T13:42:09Z</time>
      </trkpt>
      <trkpt lat="42.8735630" lon="-7.8207510">
        <ele>626.3</ele>
        <time>2020-10-19T13:42:10Z</time>
      </trkpt>
      <trkpt lat="42.8735620" lon="-7.8207500">
        <ele>626.3</ele>
        <time>2020-10-19T13:42:11Z</time>
      </trkpt>
      <trkpt lat="42.8735610" lon="-7.8207490">
        <ele>626.3</ele>
        <time>2020-10-19T13:42:12Z</time>
      </trkpt>
      <trkpt lat="42.8735600" lon="-7.8207480">
        <ele>626.3</ele>
        <time>2020-10-19T13:42:13Z</time>
      </trkpt>
      <trkpt lat="42.8735600" lon="-7.8207470">
        <ele>626.3</ele>
        <time>2020-10-19T13:42:14Z</time>
      </trkpt>
      <trkpt lat="42.8735590" lon="-7.8207460">
        <ele>626.3</ele>
        <time>2020-10-19T13:42:15Z</time>
      </trkpt>
      <trkpt lat="42.8735580" lon="-7.8207450">
        <ele>626.3</ele>
        <time>2020-10-19T13:42:16Z</time>
      </trkpt>
      <trkpt lat="42.8735580" lon="-7.8207440">
        <ele>626.3</ele>
        <time>2020-10-19T13:42:17Z</time>
      </trkpt>
      <trkpt lat="42.8735580" lon="-7.8207430">
        <ele>626.3</ele>
        <time>2020-10-19T13:42:18Z</time>
      </trkpt>
      <trkpt lat="42.8735570" lon="-7.8207420">
        <ele>626.3</ele>
        <time>2020-10-19T13:42:19Z</time>
      </trkpt>
      <trkpt lat="42.8735570" lon="-7.8207420">
        <ele>626.3</ele>
        <time>2020-10-19T13:42:20Z</time>
      </trkpt>
      <trkpt lat="42.8735570" lon="-7.8207420">
        <ele>626.3</ele>
        <time>2020-10-19T13:42:21Z</time>
      </trkpt>
      <trkpt lat="42.8735560" lon="-7.8207410">
        <ele>626.3</ele>
        <time>2020-10-19T13:42:22Z</time>
      </trkpt>
      <trkpt lat="42.8735550" lon="-7.8207410">
        <ele>626.3</ele>
        <time>2020-10-19T13:42:23Z</time>
      </trkpt>
      <trkpt lat="42.8735550" lon="-7.8207410">
        <ele>626.3</ele>
        <time>2020-10-19T13:42:24Z</time>
      </trkpt>
      <trkpt lat="42.8735540" lon="-7.8207410">
        <ele>626.3</ele>
        <time>2020-10-19T13:42:25Z</time>
      </trkpt>
      <trkpt lat="42.8735540" lon="-7.8207400">
        <ele>626.3</ele>
        <time>2020-10-19T13:42:26Z</time>
      </trkpt>
      <trkpt lat="42.8735530" lon="-7.8207390">
        <ele>626.3</ele>
        <time>2020-10-19T13:42:27Z</time>
      </trkpt>
      <trkpt lat="42.8735530" lon="-7.8207380">
        <ele>626.3</ele>
        <time>2020-10-19T13:42:28Z</time>
      </trkpt>
      <trkpt lat="42.8735520" lon="-7.8207380">
        <ele>626.3</ele>
        <time>2020-10-19T13:42:29Z</time>
      </trkpt>
      <trkpt lat="42.8735520" lon="-7.8207370">
        <ele>626.3</ele>
        <time>2020-10-19T13:42:30Z</time>
      </trkpt>
      <trkpt lat="42.8735520" lon="-7.8207370">
        <ele>626.3</ele>
        <time>2020-10-19T13:42:31Z</time>
      </trkpt>
      <trkpt lat="42.8735520" lon="-7.8207360">
        <ele>626.3</ele>
        <time>2020-10-19T13:42:32Z</time>
      </trkpt>
      <trkpt lat="42.8735520" lon="-7.8207350">
        <ele>626.3</ele>
        <time>2020-10-19T13:42:33Z</time>
      </trkpt>
      <trkpt lat="42.8735510" lon="-7.8207340">
        <ele>626.3</ele>
        <time>2020-10-19T13:42:34Z</time>
      </trkpt>
      <trkpt lat="42.8735510" lon="-7.8207340">
        <ele>626.3</ele>
        <time>2020-10-19T13:42:35Z</time>
      </trkpt>
      <trkpt lat="42.8735500" lon="-7.8207340">
        <ele>626.4</ele>
        <time>2020-10-19T13:42:36Z</time>
      </trkpt>
      <trkpt lat="42.8735500" lon="-7.8207330">
        <ele>626.4</ele>
        <time>2020-10-19T13:42:37Z</time>
      </trkpt>
      <trkpt lat="42.8735500" lon="-7.8207330">
        <ele>626.4</ele>
        <time>2020-10-19T13:42:38Z</time>
      </trkpt>
      <trkpt lat="42.8735500" lon="-7.8207330">
        <ele>626.4</ele>
        <time>2020-10-19T13:42:39Z</time>
      </trkpt>
      <trkpt lat="42.8735500" lon="-7.8207330">
        <ele>626.4</ele>
        <time>2020-10-19T13:42:40Z</time>
      </trkpt>
      <trkpt lat="42.8735500" lon="-7.8207320">
        <ele>626.4</ele>
        <time>2020-10-19T13:42:41Z</time>
      </trkpt>
      <trkpt lat="42.8735490" lon="-7.8207310">
        <ele>626.4</ele>
        <time>2020-10-19T13:42:42Z</time>
      </trkpt>
      <trkpt lat="42.8735460" lon="-7.8207310">
        <ele>626.4</ele>
        <time>2020-10-19T13:42:43Z</time>
      </trkpt>
      <trkpt lat="42.8735390" lon="-7.8207320">
        <ele>626.5</ele>
        <time>2020-10-19T13:42:44Z</time>
      </trkpt>
      <trkpt lat="42.8735300" lon="-7.8207310">
        <ele>626.5</ele>
        <time>2020-10-19T13:42:45Z</time>
      </trkpt>
      <trkpt lat="42.8735210" lon="-7.8207320">
        <ele>626.6</ele>
        <time>2020-10-19T13:42:46Z</time>
      </trkpt>
      <trkpt lat="42.8735100" lon="-7.8207360">
        <ele>626.6</ele>
        <time>2020-10-19T13:42:47Z</time>
      </trkpt>
      <trkpt lat="42.8735000" lon="-7.8207450">
        <ele>626.7</ele>
        <time>2020-10-19T13:42:48Z</time>
      </trkpt>
      <trkpt lat="42.8734900" lon="-7.8207580">
        <ele>626.8</ele>
        <time>2020-10-19T13:42:49Z</time>
      </trkpt>
      <trkpt lat="42.8734800" lon="-7.8207740">
        <ele>626.8</ele>
        <time>2020-10-19T13:42:50Z</time>
      </trkpt>
      <trkpt lat="42.8734660" lon="-7.8207940">
        <ele>626.9</ele>
        <time>2020-10-19T13:42:51Z</time>
      </trkpt>
      <trkpt lat="42.8734470" lon="-7.8208160">
        <ele>627.1</ele>
        <time>2020-10-19T13:42:52Z</time>
      </trkpt>
      <trkpt lat="42.8734270" lon="-7.8208410">
        <ele>627.2</ele>
        <time>2020-10-19T13:42:53Z</time>
      </trkpt>
      <trkpt lat="42.8734080" lon="-7.8208700">
        <ele>627.4</ele>
        <time>2020-10-19T13:42:54Z</time>
      </trkpt>
      <trkpt lat="42.8733910" lon="-7.8209020">
        <ele>627.5</ele>
        <time>2020-10-19T13:42:55Z</time>
      </trkpt>
      <trkpt lat="42.8733750" lon="-7.8209360">
        <ele>627.7</ele>
        <time>2020-10-19T13:42:56Z</time>
      </trkpt>
      <trkpt lat="42.8733570" lon="-7.8209740">
        <ele>627.8</ele>
        <time>2020-10-19T13:42:57Z</time>
      </trkpt>
      <trkpt lat="42.8733350" lon="-7.8210140">
        <ele>628.0</ele>
        <time>2020-10-19T13:42:58Z</time>
      </trkpt>
      <trkpt lat="42.8733150" lon="-7.8210530">
        <ele>628.1</ele>
        <time>2020-10-19T13:42:59Z</time>
      </trkpt>
      <trkpt lat="42.8732940" lon="-7.8210900">
        <ele>628.3</ele>
        <time>2020-10-19T13:43:00Z</time>
      </trkpt>
      <trkpt lat="42.8732730" lon="-7.8211270">
        <ele>628.4</ele>
        <time>2020-10-19T13:43:01Z</time>
      </trkpt>
      <trkpt lat="42.8732510" lon="-7.8211660">
        <ele>628.5</ele>
        <time>2020-10-19T13:43:02Z</time>
      </trkpt>
      <trkpt lat="42.8732310" lon="-7.8212030">
        <ele>628.6</ele>
        <time>2020-10-19T13:43:03Z</time>
      </trkpt>
      <trkpt lat="42.8732150" lon="-7.8212410">
        <ele>628.7</ele>
        <time>2020-10-19T13:43:04Z</time>
      </trkpt>
      <trkpt lat="42.8732000" lon="-7.8212770">
        <ele>628.8</ele>
        <time>2020-10-19T13:43:05Z</time>
      </trkpt>
      <trkpt lat="42.8731880" lon="-7.8213150">
        <ele>628.9</ele>
        <time>2020-10-19T13:43:06Z</time>
      </trkpt>
      <trkpt lat="42.8731760" lon="-7.8213530">
        <ele>629.0</ele>
        <time>2020-10-19T13:43:07Z</time>
      </trkpt>
      <trkpt lat="42.8731650" lon="-7.8213920">
        <ele>629.0</ele>
        <time>2020-10-19T13:43:08Z</time>
      </trkpt>
      <trkpt lat="42.8731540" lon="-7.8214300">
        <ele>629.1</ele>
        <time>2020-10-19T13:43:09Z</time>
      </trkpt>
      <trkpt lat="42.8731440" lon="-7.8214670">
        <ele>629.2</ele>
        <time>2020-10-19T13:43:10Z</time>
      </trkpt>
      <trkpt lat="42.8731360" lon="-7.8215010">
        <ele>629.3</ele>
        <time>2020-10-19T13:43:11Z</time>
      </trkpt>
      <trkpt lat="42.8731300" lon="-7.8215360">
        <ele>629.3</ele>
        <time>2020-10-19T13:43:12Z</time>
      </trkpt>
      <trkpt lat="42.8731280" lon="-7.8215650">
        <ele>629.4</ele>
        <time>2020-10-19T13:43:13Z</time>
      </trkpt>
      <trkpt lat="42.8731250" lon="-7.8215920">
        <ele>629.4</ele>
        <time>2020-10-19T13:43:14Z</time>
      </trkpt>
      <trkpt lat="42.8731260" lon="-7.8216130">
        <ele>629.5</ele>
        <time>2020-10-19T13:43:15Z</time>
      </trkpt>
      <trkpt lat="42.8731270" lon="-7.8216360">
        <ele>629.5</ele>
        <time>2020-10-19T13:43:16Z</time>
      </trkpt>
      <trkpt lat="42.8731290" lon="-7.8216620">
        <ele>629.6</ele>
        <time>2020-10-19T13:43:17Z</time>
      </trkpt>
      <trkpt lat="42.8731290" lon="-7.8216910">
        <ele>629.6</ele>
        <time>2020-10-19T13:43:18Z</time>
      </trkpt>
      <trkpt lat="42.8731300" lon="-7.8217210">
        <ele>629.7</ele>
        <time>2020-10-19T13:43:19Z</time>
      </trkpt>
      <trkpt lat="42.8731310" lon="-7.8217520">
        <ele>629.7</ele>
        <time>2020-10-19T13:43:20Z</time>
      </trkpt>
      <trkpt lat="42.8731310" lon="-7.8217850">
        <ele>629.8</ele>
        <time>2020-10-19T13:43:21Z</time>
      </trkpt>
      <trkpt lat="42.8731310" lon="-7.8218230">
        <ele>629.9</ele>
        <time>2020-10-19T13:43:22Z</time>
      </trkpt>
      <trkpt lat="42.8731310" lon="-7.8218610">
        <ele>629.9</ele>
        <time>2020-10-19T13:43:23Z</time>
      </trkpt>
      <trkpt lat="42.8731310" lon="-7.8219030">
        <ele>630.0</ele>
        <time>2020-10-19T13:43:24Z</time>
      </trkpt>
      <trkpt lat="42.8731290" lon="-7.8219430">
        <ele>630.1</ele>
        <time>2020-10-19T13:43:25Z</time>
      </trkpt>
      <trkpt lat="42.8731290" lon="-7.8219860">
        <ele>630.2</ele>
        <time>2020-10-19T13:43:26Z</time>
      </trkpt>
      <trkpt lat="42.8731280" lon="-7.8220260">
        <ele>630.3</ele>
        <time>2020-10-19T13:43:27Z</time>
      </trkpt>
      <trkpt lat="42.8731270" lon="-7.8220680">
        <ele>630.4</ele>
        <time>2020-10-19T13:43:28Z</time>
      </trkpt>
      <trkpt lat="42.8731240" lon="-7.8221060">
        <ele>630.5</ele>
        <time>2020-10-19T13:43:29Z</time>
      </trkpt>
      <trkpt lat="42.8731220" lon="-7.8221460">
        <ele>630.6</ele>
        <time>2020-10-19T13:43:30Z</time>
      </trkpt>
      <trkpt lat="42.8731190" lon="-7.8221840">
        <ele>630.8</ele>
        <time>2020-10-19T13:43:31Z</time>
      </trkpt>
      <trkpt lat="42.8731170" lon="-7.8222220">
        <ele>630.9</ele>
        <time>2020-10-19T13:43:32Z</time>
      </trkpt>
      <trkpt lat="42.8731150" lon="-7.8222580">
        <ele>631.0</ele>
        <time>2020-10-19T13:43:33Z</time>
      </trkpt>
      <trkpt lat="42.8731060" lon="-7.8222940">
        <ele>631.3</ele>
        <time>2020-10-19T13:43:34Z</time>
      </trkpt>
      <trkpt lat="42.8730950" lon="-7.8223280">
        <ele>631.5</ele>
        <time>2020-10-19T13:43:35Z</time>
      </trkpt>
      <trkpt lat="42.8730810" lon="-7.8223610">
        <ele>631.7</ele>
        <time>2020-10-19T13:43:36Z</time>
      </trkpt>
      <trkpt lat="42.8730710" lon="-7.8223930">
        <ele>631.9</ele>
        <time>2020-10-19T13:43:37Z</time>
      </trkpt>
      <trkpt lat="42.8730620" lon="-7.8224250">
        <ele>632.2</ele>
        <time>2020-10-19T13:43:38Z</time>
      </trkpt>
      <trkpt lat="42.8730540" lon="-7.8224570">
        <ele>632.4</ele>
        <time>2020-10-19T13:43:39Z</time>
      </trkpt>
      <trkpt lat="42.8730450" lon="-7.8224900">
        <ele>632.6</ele>
        <time>2020-10-19T13:43:40Z</time>
      </trkpt>
      <trkpt lat="42.8730350" lon="-7.8225240">
        <ele>632.8</ele>
        <time>2020-10-19T13:43:41Z</time>
      </trkpt>
      <trkpt lat="42.8730250" lon="-7.8225600">
        <ele>633.0</ele>
        <time>2020-10-19T13:43:42Z</time>
      </trkpt>
      <trkpt lat="42.8730160" lon="-7.8225950">
        <ele>633.1</ele>
        <time>2020-10-19T13:43:43Z</time>
      </trkpt>
      <trkpt lat="42.8730060" lon="-7.8226320">
        <ele>633.3</ele>
        <time>2020-10-19T13:43:44Z</time>
      </trkpt>
      <trkpt lat="42.8729980" lon="-7.8226690">
        <ele>633.5</ele>
        <time>2020-10-19T13:43:45Z</time>
      </trkpt>
      <trkpt lat="42.8729930" lon="-7.8227060">
        <ele>633.7</ele>
        <time>2020-10-19T13:43:46Z</time>
      </trkpt>
      <trkpt lat="42.8729910" lon="-7.8227410">
        <ele>633.8</ele>
        <time>2020-10-19T13:43:47Z</time>
      </trkpt>
      <trkpt lat="42.8729910" lon="-7.8227720">
        <ele>633.9</ele>
        <time>2020-10-19T13:43:48Z</time>
      </trkpt>
      <trkpt lat="42.8729900" lon="-7.8227960">
        <ele>634.0</ele>
        <time>2020-10-19T13:43:49Z</time>
      </trkpt>
      <trkpt lat="42.8729900" lon="-7.8228180">
        <ele>634.1</ele>
        <time>2020-10-19T13:43:50Z</time>
      </trkpt>
      <trkpt lat="42.8729880" lon="-7.8228350">
        <ele>634.2</ele>
        <time>2020-10-19T13:43:51Z</time>
      </trkpt>
      <trkpt lat="42.8729880" lon="-7.8228550">
        <ele>634.2</ele>
        <time>2020-10-19T13:43:52Z</time>
      </trkpt>
      <trkpt lat="42.8729860" lon="-7.8228740">
        <ele>634.3</ele>
        <time>2020-10-19T13:43:53Z</time>
      </trkpt>
      <trkpt lat="42.8729820" lon="-7.8228920">
        <ele>634.4</ele>
        <time>2020-10-19T13:43:54Z</time>
      </trkpt>
      <trkpt lat="42.8729790" lon="-7.8229120">
        <ele>634.4</ele>
        <time>2020-10-19T13:43:55Z</time>
      </trkpt>
      <trkpt lat="42.8729760" lon="-7.8229310">
        <ele>634.5</ele>
        <time>2020-10-19T13:43:56Z</time>
      </trkpt>
      <trkpt lat="42.8729760" lon="-7.8229510">
        <ele>634.5</ele>
        <time>2020-10-19T13:43:57Z</time>
      </trkpt>
      <trkpt lat="42.8729770" lon="-7.8229720">
        <ele>634.5</ele>
        <time>2020-10-19T13:43:58Z</time>
      </trkpt>
      <trkpt lat="42.8729790" lon="-7.8229940">
        <ele>634.6</ele>
        <time>2020-10-19T13:43:59Z</time>
      </trkpt>
      <trkpt lat="42.8729780" lon="-7.8230160">
        <ele>634.6</ele>
        <time>2020-10-19T13:44:00Z</time>
      </trkpt>
      <trkpt lat="42.8729770" lon="-7.8230380">
        <ele>634.6</ele>
        <time>2020-10-19T13:44:01Z</time>
      </trkpt>
      <trkpt lat="42.8729750" lon="-7.8230600">
        <ele>634.7</ele>
        <time>2020-10-19T13:44:02Z</time>
      </trkpt>
      <trkpt lat="42.8729730" lon="-7.8230820">
        <ele>634.7</ele>
        <time>2020-10-19T13:44:03Z</time>
      </trkpt>
      <trkpt lat="42.8729700" lon="-7.8231020">
        <ele>634.7</ele>
        <time>2020-10-19T13:44:04Z</time>
      </trkpt>
      <trkpt lat="42.8729680" lon="-7.8231220">
        <ele>634.7</ele>
        <time>2020-10-19T13:44:05Z</time>
      </trkpt>
      <trkpt lat="42.8729680" lon="-7.8231410">
        <ele>634.8</ele>
        <time>2020-10-19T13:44:06Z</time>
      </trkpt>
      <trkpt lat="42.8729690" lon="-7.8231610">
        <ele>634.8</ele>
        <time>2020-10-19T13:44:07Z</time>
      </trkpt>
      <trkpt lat="42.8729710" lon="-7.8231820">
        <ele>634.8</ele>
        <time>2020-10-19T13:44:08Z</time>
      </trkpt>
      <trkpt lat="42.8729730" lon="-7.8232020">
        <ele>634.8</ele>
        <time>2020-10-19T13:44:09Z</time>
      </trkpt>
      <trkpt lat="42.8729740" lon="-7.8232240">
        <ele>634.8</ele>
        <time>2020-10-19T13:44:10Z</time>
      </trkpt>
      <trkpt lat="42.8729760" lon="-7.8232470">
        <ele>634.8</ele>
        <time>2020-10-19T13:44:11Z</time>
      </trkpt>
      <trkpt lat="42.8729770" lon="-7.8232690">
        <ele>634.8</ele>
        <time>2020-10-19T13:44:12Z</time>
      </trkpt>
      <trkpt lat="42.8729790" lon="-7.8232910">
        <ele>634.8</ele>
        <time>2020-10-19T13:44:13Z</time>
      </trkpt>
      <trkpt lat="42.8729810" lon="-7.8233110">
        <ele>634.8</ele>
        <time>2020-10-19T13:44:14Z</time>
      </trkpt>
      <trkpt lat="42.8729840" lon="-7.8233310">
        <ele>634.8</ele>
        <time>2020-10-19T13:44:15Z</time>
      </trkpt>
      <trkpt lat="42.8729870" lon="-7.8233500">
        <ele>634.8</ele>
        <time>2020-10-19T13:44:16Z</time>
      </trkpt>
      <trkpt lat="42.8729880" lon="-7.8233700">
        <ele>634.8</ele>
        <time>2020-10-19T13:44:17Z</time>
      </trkpt>
      <trkpt lat="42.8729890" lon="-7.8233900">
        <ele>634.8</ele>
        <time>2020-10-19T13:44:18Z</time>
      </trkpt>
      <trkpt lat="42.8729910" lon="-7.8234110">
        <ele>634.8</ele>
        <time>2020-10-19T13:44:19Z</time>
      </trkpt>
      <trkpt lat="42.8729920" lon="-7.8234290">
        <ele>634.8</ele>
        <time>2020-10-19T13:44:20Z</time>
      </trkpt>
      <trkpt lat="42.8729940" lon="-7.8234450">
        <ele>634.8</ele>
        <time>2020-10-19T13:44:21Z</time>
      </trkpt>
      <trkpt lat="42.8729980" lon="-7.8234550">
        <ele>634.8</ele>
        <time>2020-10-19T13:44:22Z</time>
      </trkpt>
      <trkpt lat="42.8730030" lon="-7.8234610">
        <ele>634.8</ele>
        <time>2020-10-19T13:44:23Z</time>
      </trkpt>
      <trkpt lat="42.8730100" lon="-7.8234670">
        <ele>634.8</ele>
        <time>2020-10-19T13:44:24Z</time>
      </trkpt>
      <trkpt lat="42.8730130" lon="-7.8234710">
        <ele>634.8</ele>
        <time>2020-10-19T13:44:25Z</time>
      </trkpt>
      <trkpt lat="42.8730120" lon="-7.8234760">
        <ele>634.8</ele>
        <time>2020-10-19T13:44:26Z</time>
      </trkpt>
      <trkpt lat="42.8730110" lon="-7.8234770">
        <ele>634.8</ele>
        <time>2020-10-19T13:44:27Z</time>
      </trkpt>
      <trkpt lat="42.8730100" lon="-7.8234790">
        <ele>634.8</ele>
        <time>2020-10-19T13:44:28Z</time>
      </trkpt>
      <trkpt lat="42.8730120" lon="-7.8234830">
        <ele>634.8</ele>
        <time>2020-10-19T13:44:29Z</time>
      </trkpt>
      <trkpt lat="42.8730120" lon="-7.8234930">
        <ele>634.8</ele>
        <time>2020-10-19T13:44:30Z</time>
      </trkpt>
      <trkpt lat="42.8730110" lon="-7.8235060">
        <ele>634.8</ele>
        <time>2020-10-19T13:44:31Z</time>
      </trkpt>
      <trkpt lat="42.8730100" lon="-7.8235180">
        <ele>634.8</ele>
        <time>2020-10-19T13:44:32Z</time>
      </trkpt>
      <trkpt lat="42.8730100" lon="-7.8235290">
        <ele>634.8</ele>
        <time>2020-10-19T13:44:33Z</time>
      </trkpt>
      <trkpt lat="42.8730140" lon="-7.8235390">
        <ele>634.8</ele>
        <time>2020-10-19T13:44:34Z</time>
      </trkpt>
      <trkpt lat="42.8730170" lon="-7.8235520">
        <ele>634.8</ele>
        <time>2020-10-19T13:44:35Z</time>
      </trkpt>
      <trkpt lat="42.8730190" lon="-7.8235650">
        <ele>634.7</ele>
        <time>2020-10-19T13:44:36Z</time>
      </trkpt>
      <trkpt lat="42.8730190" lon="-7.8235820">
        <ele>634.7</ele>
        <time>2020-10-19T13:44:37Z</time>
      </trkpt>
      <trkpt lat="42.8730190" lon="-7.8236000">
        <ele>634.7</ele>
        <time>2020-10-19T13:44:38Z</time>
      </trkpt>
      <trkpt lat="42.8730200" lon="-7.8236200">
        <ele>634.7</ele>
        <time>2020-10-19T13:44:39Z</time>
      </trkpt>
      <trkpt lat="42.8730200" lon="-7.8236380">
        <ele>634.7</ele>
        <time>2020-10-19T13:44:40Z</time>
      </trkpt>
      <trkpt lat="42.8730200" lon="-7.8236550">
        <ele>634.7</ele>
        <time>2020-10-19T13:44:41Z</time>
      </trkpt>
      <trkpt lat="42.8730200" lon="-7.8236720">
        <ele>634.6</ele>
        <time>2020-10-19T13:44:42Z</time>
      </trkpt>
      <trkpt lat="42.8730200" lon="-7.8236890">
        <ele>634.6</ele>
        <time>2020-10-19T13:44:43Z</time>
      </trkpt>
      <trkpt lat="42.8730200" lon="-7.8237060">
        <ele>634.6</ele>
        <time>2020-10-19T13:44:44Z</time>
      </trkpt>
      <trkpt lat="42.8730190" lon="-7.8237220">
        <ele>634.6</ele>
        <time>2020-10-19T13:44:45Z</time>
      </trkpt>
      <trkpt lat="42.8730170" lon="-7.8237380">
        <ele>634.6</ele>
        <time>2020-10-19T13:44:46Z</time>
      </trkpt>
      <trkpt lat="42.8730160" lon="-7.8237540">
        <ele>634.5</ele>
        <time>2020-10-19T13:44:47Z</time>
      </trkpt>
      <trkpt lat="42.8730140" lon="-7.8237720">
        <ele>634.5</ele>
        <time>2020-10-19T13:44:48Z</time>
      </trkpt>
      <trkpt lat="42.8730130" lon="-7.8237900">
        <ele>634.5</ele>
        <time>2020-10-19T13:44:49Z</time>
      </trkpt>
      <trkpt lat="42.8730110" lon="-7.8238070">
        <ele>634.5</ele>
        <time>2020-10-19T13:44:50Z</time>
      </trkpt>
      <trkpt lat="42.8730090" lon="-7.8238240">
        <ele>634.4</ele>
        <time>2020-10-19T13:44:51Z</time>
      </trkpt>
      <trkpt lat="42.8730080" lon="-7.8238420">
        <ele>634.4</ele>
        <time>2020-10-19T13:44:52Z</time>
      </trkpt>
      <trkpt lat="42.8730060" lon="-7.8238610">
        <ele>634.4</ele>
        <time>2020-10-19T13:44:53Z</time>
      </trkpt>
      <trkpt lat="42.8730030" lon="-7.8238800">
        <ele>634.3</ele>
        <time>2020-10-19T13:44:54Z</time>
      </trkpt>
      <trkpt lat="42.8729990" lon="-7.8238990">
        <ele>634.3</ele>
        <time>2020-10-19T13:44:55Z</time>
      </trkpt>
      <trkpt lat="42.8729950" lon="-7.8239180">
        <ele>634.2</ele>
        <time>2020-10-19T13:44:56Z</time>
      </trkpt>
      <trkpt lat="42.8729940" lon="-7.8239370">
        <ele>634.2</ele>
        <time>2020-10-19T13:44:57Z</time>
      </trkpt>
      <trkpt lat="42.8729930" lon="-7.8239540">
        <ele>634.1</ele>
        <time>2020-10-19T13:44:58Z</time>
      </trkpt>
      <trkpt lat="42.8729910" lon="-7.8239710">
        <ele>634.1</ele>
        <time>2020-10-19T13:44:59Z</time>
      </trkpt>
      <trkpt lat="42.8729890" lon="-7.8239890">
        <ele>634.0</ele>
        <time>2020-10-19T13:45:00Z</time>
      </trkpt>
      <trkpt lat="42.8729860" lon="-7.8240100">
        <ele>634.0</ele>
        <time>2020-10-19T13:45:01Z</time>
      </trkpt>
      <trkpt lat="42.8729830" lon="-7.8240330">
        <ele>633.9</ele>
        <time>2020-10-19T13:45:02Z</time>
      </trkpt>
      <trkpt lat="42.8729790" lon="-7.8240550">
        <ele>633.8</ele>
        <time>2020-10-19T13:45:03Z</time>
      </trkpt>
      <trkpt lat="42.8729770" lon="-7.8240750">
        <ele>633.8</ele>
        <time>2020-10-19T13:45:04Z</time>
      </trkpt>
      <trkpt lat="42.8729750" lon="-7.8240930">
        <ele>633.7</ele>
        <time>2020-10-19T13:45:05Z</time>
      </trkpt>
      <trkpt lat="42.8729710" lon="-7.8241110">
        <ele>633.7</ele>
        <time>2020-10-19T13:45:06Z</time>
      </trkpt>
      <trkpt lat="42.8729670" lon="-7.8241290">
        <ele>633.6</ele>
        <time>2020-10-19T13:45:07Z</time>
      </trkpt>
      <trkpt lat="42.8729650" lon="-7.8241470">
        <ele>633.5</ele>
        <time>2020-10-19T13:45:08Z</time>
      </trkpt>
      <trkpt lat="42.8729640" lon="-7.8241650">
        <ele>633.5</ele>
        <time>2020-10-19T13:45:09Z</time>
      </trkpt>
      <trkpt lat="42.8729630" lon="-7.8241830">
        <ele>633.4</ele>
        <time>2020-10-19T13:45:10Z</time>
      </trkpt>
      <trkpt lat="42.8729610" lon="-7.8242020">
        <ele>633.4</ele>
        <time>2020-10-19T13:45:11Z</time>
      </trkpt>
      <trkpt lat="42.8729580" lon="-7.8242220">
        <ele>633.3</ele>
        <time>2020-10-19T13:45:12Z</time>
      </trkpt>
      <trkpt lat="42.8729550" lon="-7.8242420">
        <ele>633.2</ele>
        <time>2020-10-19T13:45:13Z</time>
      </trkpt>
      <trkpt lat="42.8729520" lon="-7.8242620">
        <ele>633.2</ele>
        <time>2020-10-19T13:45:14Z</time>
      </trkpt>
      <trkpt lat="42.8729500" lon="-7.8242820">
        <ele>633.1</ele>
        <time>2020-10-19T13:45:15Z</time>
      </trkpt>
      <trkpt lat="42.8729480" lon="-7.8243010">
        <ele>633.1</ele>
        <time>2020-10-19T13:45:16Z</time>
      </trkpt>
      <trkpt lat="42.8729450" lon="-7.8243220">
        <ele>633.0</ele>
        <time>2020-10-19T13:45:17Z</time>
      </trkpt>
      <trkpt lat="42.8729440" lon="-7.8243410">
        <ele>632.9</ele>
        <time>2020-10-19T13:45:18Z</time>
      </trkpt>
      <trkpt lat="42.8729420" lon="-7.8243610">
        <ele>632.9</ele>
        <time>2020-10-19T13:45:19Z</time>
      </trkpt>
      <trkpt lat="42.8729400" lon="-7.8243810">
        <ele>632.8</ele>
        <time>2020-10-19T13:45:20Z</time>
      </trkpt>
      <trkpt lat="42.8729380" lon="-7.8244010">
        <ele>632.7</ele>
        <time>2020-10-19T13:45:21Z</time>
      </trkpt>
      <trkpt lat="42.8729370" lon="-7.8244230">
        <ele>632.7</ele>
        <time>2020-10-19T13:45:22Z</time>
      </trkpt>
      <trkpt lat="42.8729360" lon="-7.8244430">
        <ele>632.6</ele>
        <time>2020-10-19T13:45:23Z</time>
      </trkpt>
      <trkpt lat="42.8729360" lon="-7.8244630">
        <ele>632.5</ele>
        <time>2020-10-19T13:45:24Z</time>
      </trkpt>
      <trkpt lat="42.8729340" lon="-7.8244830">
        <ele>632.5</ele>
        <time>2020-10-19T13:45:25Z</time>
      </trkpt>
      <trkpt lat="42.8729330" lon="-7.8245020">
        <ele>632.4</ele>
        <time>2020-10-19T13:45:26Z</time>
      </trkpt>
      <trkpt lat="42.8729310" lon="-7.8245220">
        <ele>632.3</ele>
        <time>2020-10-19T13:45:27Z</time>
      </trkpt>
      <trkpt lat="42.8729300" lon="-7.8245420">
        <ele>632.3</ele>
        <time>2020-10-19T13:45:28Z</time>
      </trkpt>
      <trkpt lat="42.8729290" lon="-7.8245620">
        <ele>632.2</ele>
        <time>2020-10-19T13:45:29Z</time>
      </trkpt>
      <trkpt lat="42.8729290" lon="-7.8245810">
        <ele>632.1</ele>
        <time>2020-10-19T13:45:30Z</time>
      </trkpt>
      <trkpt lat="42.8729330" lon="-7.8245990">
        <ele>632.0</ele>
        <time>2020-10-19T13:45:31Z</time>
      </trkpt>
      <trkpt lat="42.8729360" lon="-7.8246170">
        <ele>632.0</ele>
        <time>2020-10-19T13:45:32Z</time>
      </trkpt>
      <trkpt lat="42.8729390" lon="-7.8246360">
        <ele>631.9</ele>
        <time>2020-10-19T13:45:33Z</time>
      </trkpt>
      <trkpt lat="42.8729390" lon="-7.8246550">
        <ele>631.8</ele>
        <time>2020-10-19T13:45:34Z</time>
      </trkpt>
      <trkpt lat="42.8729400" lon="-7.8246720">
        <ele>631.8</ele>
        <time>2020-10-19T13:45:35Z</time>
      </trkpt>
      <trkpt lat="42.8729410" lon="-7.8246900">
        <ele>631.7</ele>
        <time>2020-10-19T13:45:36Z</time>
      </trkpt>
      <trkpt lat="42.8729440" lon="-7.8247080">
        <ele>631.6</ele>
        <time>2020-10-19T13:45:37Z</time>
      </trkpt>
      <trkpt lat="42.8729460" lon="-7.8247270">
        <ele>631.6</ele>
        <time>2020-10-19T13:45:38Z</time>
      </trkpt>
      <trkpt lat="42.8729490" lon="-7.8247460">
        <ele>631.5</ele>
        <time>2020-10-19T13:45:39Z</time>
      </trkpt>
      <trkpt lat="42.8729510" lon="-7.8247650">
        <ele>631.4</ele>
        <time>2020-10-19T13:45:40Z</time>
      </trkpt>
      <trkpt lat="42.8729550" lon="-7.8247850">
        <ele>631.3</ele>
        <time>2020-10-19T13:45:41Z</time>
      </trkpt>
      <trkpt lat="42.8729580" lon="-7.8248060">
        <ele>631.2</ele>
        <time>2020-10-19T13:45:42Z</time>
      </trkpt>
      <trkpt lat="42.8729600" lon="-7.8248260">
        <ele>631.2</ele>
        <time>2020-10-19T13:45:43Z</time>
      </trkpt>
      <trkpt lat="42.8729620" lon="-7.8248460">
        <ele>631.1</ele>
        <time>2020-10-19T13:45:44Z</time>
      </trkpt>
      <trkpt lat="42.8729660" lon="-7.8248670">
        <ele>631.0</ele>
        <time>2020-10-19T13:45:45Z</time>
      </trkpt>
      <trkpt lat="42.8729710" lon="-7.8248880">
        <ele>630.9</ele>
        <time>2020-10-19T13:45:46Z</time>
      </trkpt>
      <trkpt lat="42.8729730" lon="-7.8249080">
        <ele>630.8</ele>
        <time>2020-10-19T13:45:47Z</time>
      </trkpt>
      <trkpt lat="42.8729730" lon="-7.8249280">
        <ele>630.8</ele>
        <time>2020-10-19T13:45:48Z</time>
      </trkpt>
      <trkpt lat="42.8729740" lon="-7.8249480">
        <ele>630.7</ele>
        <time>2020-10-19T13:45:49Z</time>
      </trkpt>
      <trkpt lat="42.8729760" lon="-7.8249710">
        <ele>630.6</ele>
        <time>2020-10-19T13:45:50Z</time>
      </trkpt>
      <trkpt lat="42.8729800" lon="-7.8249910">
        <ele>630.5</ele>
        <time>2020-10-19T13:45:51Z</time>
      </trkpt>
      <trkpt lat="42.8729820" lon="-7.8250100">
        <ele>630.5</ele>
        <time>2020-10-19T13:45:52Z</time>
      </trkpt>
      <trkpt lat="42.8729850" lon="-7.8250280">
        <ele>630.4</ele>
        <time>2020-10-19T13:45:53Z</time>
      </trkpt>
      <trkpt lat="42.8729860" lon="-7.8250470">
        <ele>630.3</ele>
        <time>2020-10-19T13:45:54Z</time>
      </trkpt>
      <trkpt lat="42.8729870" lon="-7.8250660">
        <ele>630.3</ele>
        <time>2020-10-19T13:45:55Z</time>
      </trkpt>
      <trkpt lat="42.8729880" lon="-7.8250850">
        <ele>630.2</ele>
        <time>2020-10-19T13:45:56Z</time>
      </trkpt>
      <trkpt lat="42.8729910" lon="-7.8251040">
        <ele>630.1</ele>
        <time>2020-10-19T13:45:57Z</time>
      </trkpt>
      <trkpt lat="42.8729940" lon="-7.8251230">
        <ele>630.1</ele>
        <time>2020-10-19T13:45:58Z</time>
      </trkpt>
      <trkpt lat="42.8729970" lon="-7.8251420">
        <ele>630.0</ele>
        <time>2020-10-19T13:45:59Z</time>
      </trkpt>
      <trkpt lat="42.8729970" lon="-7.8251600">
        <ele>629.9</ele>
        <time>2020-10-19T13:46:00Z</time>
      </trkpt>
      <trkpt lat="42.8729950" lon="-7.8251770">
        <ele>629.9</ele>
        <time>2020-10-19T13:46:01Z</time>
      </trkpt>
      <trkpt lat="42.8729960" lon="-7.8251940">
        <ele>629.8</ele>
        <time>2020-10-19T13:46:02Z</time>
      </trkpt>
      <trkpt lat="42.8730010" lon="-7.8252120">
        <ele>629.8</ele>
        <time>2020-10-19T13:46:03Z</time>
      </trkpt>
      <trkpt lat="42.8730050" lon="-7.8252300">
        <ele>629.7</ele>
        <time>2020-10-19T13:46:04Z</time>
      </trkpt>
      <trkpt lat="42.8730100" lon="-7.8252490">
        <ele>629.7</ele>
        <time>2020-10-19T13:46:05Z</time>
      </trkpt>
      <trkpt lat="42.8730150" lon="-7.8252700">
        <ele>629.6</ele>
        <time>2020-10-19T13:46:06Z</time>
      </trkpt>
      <trkpt lat="42.8730210" lon="-7.8252910">
        <ele>629.5</ele>
        <time>2020-10-19T13:46:07Z</time>
      </trkpt>
      <trkpt lat="42.8730270" lon="-7.8253100">
        <ele>629.5</ele>
        <time>2020-10-19T13:46:08Z</time>
      </trkpt>
      <trkpt lat="42.8730320" lon="-7.8253300">
        <ele>629.4</ele>
        <time>2020-10-19T13:46:09Z</time>
      </trkpt>
      <trkpt lat="42.8730370" lon="-7.8253500">
        <ele>629.4</ele>
        <time>2020-10-19T13:46:10Z</time>
      </trkpt>
      <trkpt lat="42.8730420" lon="-7.8253690">
        <ele>629.3</ele>
        <time>2020-10-19T13:46:11Z</time>
      </trkpt>
      <trkpt lat="42.8730470" lon="-7.8253880">
        <ele>629.3</ele>
        <time>2020-10-19T13:46:12Z</time>
      </trkpt>
      <trkpt lat="42.8730520" lon="-7.8254060">
        <ele>629.2</ele>
        <time>2020-10-19T13:46:13Z</time>
      </trkpt>
      <trkpt lat="42.8730580" lon="-7.8254210">
        <ele>629.2</ele>
        <time>2020-10-19T13:46:14Z</time>
      </trkpt>
      <trkpt lat="42.8730640" lon="-7.8254380">
        <ele>629.1</ele>
        <time>2020-10-19T13:46:15Z</time>
      </trkpt>
      <trkpt lat="42.8730690" lon="-7.8254560">
        <ele>629.1</ele>
        <time>2020-10-19T13:46:16Z</time>
      </trkpt>
      <trkpt lat="42.8730730" lon="-7.8254750">
        <ele>629.0</ele>
        <time>2020-10-19T13:46:17Z</time>
      </trkpt>
      <trkpt lat="42.8730780" lon="-7.8254940">
        <ele>629.0</ele>
        <time>2020-10-19T13:46:18Z</time>
      </trkpt>
      <trkpt lat="42.8730840" lon="-7.8255130">
        <ele>628.9</ele>
        <time>2020-10-19T13:46:19Z</time>
      </trkpt>
      <trkpt lat="42.8730910" lon="-7.8255310">
        <ele>628.8</ele>
        <time>2020-10-19T13:46:20Z</time>
      </trkpt>
      <trkpt lat="42.8730970" lon="-7.8255510">
        <ele>628.8</ele>
        <time>2020-10-19T13:46:21Z</time>
      </trkpt>
      <trkpt lat="42.8731030" lon="-7.8255690">
        <ele>628.7</ele>
        <time>2020-10-19T13:46:22Z</time>
      </trkpt>
      <trkpt lat="42.8731070" lon="-7.8255870">
        <ele>628.7</ele>
        <time>2020-10-19T13:46:23Z</time>
      </trkpt>
      <trkpt lat="42.8731120" lon="-7.8256040">
        <ele>628.6</ele>
        <time>2020-10-19T13:46:24Z</time>
      </trkpt>
      <trkpt lat="42.8731170" lon="-7.8256220">
        <ele>628.6</ele>
        <time>2020-10-19T13:46:25Z</time>
      </trkpt>
      <trkpt lat="42.8731230" lon="-7.8256410">
        <ele>628.5</ele>
        <time>2020-10-19T13:46:26Z</time>
      </trkpt>
      <trkpt lat="42.8731270" lon="-7.8256580">
        <ele>628.5</ele>
        <time>2020-10-19T13:46:27Z</time>
      </trkpt>
      <trkpt lat="42.8731330" lon="-7.8256740">
        <ele>628.4</ele>
        <time>2020-10-19T13:46:28Z</time>
      </trkpt>
      <trkpt lat="42.8731390" lon="-7.8256900">
        <ele>628.4</ele>
        <time>2020-10-19T13:46:29Z</time>
      </trkpt>
      <trkpt lat="42.8731440" lon="-7.8257070">
        <ele>628.3</ele>
        <time>2020-10-19T13:46:30Z</time>
      </trkpt>
      <trkpt lat="42.8731500" lon="-7.8257240">
        <ele>628.3</ele>
        <time>2020-10-19T13:46:31Z</time>
      </trkpt>
      <trkpt lat="42.8731570" lon="-7.8257410">
        <ele>628.2</ele>
        <time>2020-10-19T13:46:32Z</time>
      </trkpt>
      <trkpt lat="42.8731640" lon="-7.8257550">
        <ele>628.2</ele>
        <time>2020-10-19T13:46:33Z</time>
      </trkpt>
      <trkpt lat="42.8731720" lon="-7.8257700">
        <ele>628.1</ele>
        <time>2020-10-19T13:46:34Z</time>
      </trkpt>
      <trkpt lat="42.8731780" lon="-7.8257850">
        <ele>628.1</ele>
        <time>2020-10-19T13:46:35Z</time>
      </trkpt>
      <trkpt lat="42.8731840" lon="-7.8258000">
        <ele>628.0</ele>
        <time>2020-10-19T13:46:36Z</time>
      </trkpt>
      <trkpt lat="42.8731870" lon="-7.8258180">
        <ele>628.0</ele>
        <time>2020-10-19T13:46:37Z</time>
      </trkpt>
      <trkpt lat="42.8731910" lon="-7.8258350">
        <ele>627.9</ele>
        <time>2020-10-19T13:46:38Z</time>
      </trkpt>
      <trkpt lat="42.8731960" lon="-7.8258540">
        <ele>627.9</ele>
        <time>2020-10-19T13:46:39Z</time>
      </trkpt>
      <trkpt lat="42.8732020" lon="-7.8258710">
        <ele>627.8</ele>
        <time>2020-10-19T13:46:40Z</time>
      </trkpt>
      <trkpt lat="42.8732100" lon="-7.8258880">
        <ele>627.8</ele>
        <time>2020-10-19T13:46:41Z</time>
      </trkpt>
      <trkpt lat="42.8732160" lon="-7.8259020">
        <ele>627.7</ele>
        <time>2020-10-19T13:46:42Z</time>
      </trkpt>
      <trkpt lat="42.8732240" lon="-7.8259160">
        <ele>627.7</ele>
        <time>2020-10-19T13:46:43Z</time>
      </trkpt>
      <trkpt lat="42.8732300" lon="-7.8259300">
        <ele>627.6</ele>
        <time>2020-10-19T13:46:44Z</time>
      </trkpt>
      <trkpt lat="42.8732340" lon="-7.8259490">
        <ele>627.6</ele>
        <time>2020-10-19T13:46:45Z</time>
      </trkpt>
      <trkpt lat="42.8732390" lon="-7.8259680">
        <ele>627.5</ele>
        <time>2020-10-19T13:46:46Z</time>
      </trkpt>
      <trkpt lat="42.8732440" lon="-7.8259910">
        <ele>627.4</ele>
        <time>2020-10-19T13:46:47Z</time>
      </trkpt>
      <trkpt lat="42.8732500" lon="-7.8260120">
        <ele>627.4</ele>
        <time>2020-10-19T13:46:48Z</time>
      </trkpt>
      <trkpt lat="42.8732560" lon="-7.8260350">
        <ele>627.3</ele>
        <time>2020-10-19T13:46:49Z</time>
      </trkpt>
      <trkpt lat="42.8732620" lon="-7.8260580">
        <ele>627.2</ele>
        <time>2020-10-19T13:46:50Z</time>
      </trkpt>
      <trkpt lat="42.8732700" lon="-7.8260810">
        <ele>627.1</ele>
        <time>2020-10-19T13:46:51Z</time>
      </trkpt>
      <trkpt lat="42.8732770" lon="-7.8261020">
        <ele>627.1</ele>
        <time>2020-10-19T13:46:52Z</time>
      </trkpt>
      <trkpt lat="42.8732830" lon="-7.8261210">
        <ele>627.0</ele>
        <time>2020-10-19T13:46:53Z</time>
      </trkpt>
      <trkpt lat="42.8732890" lon="-7.8261380">
        <ele>626.9</ele>
        <time>2020-10-19T13:46:54Z</time>
      </trkpt>
      <trkpt lat="42.8732960" lon="-7.8261570">
        <ele>626.9</ele>
        <time>2020-10-19T13:46:55Z</time>
      </trkpt>
      <trkpt lat="42.8733010" lon="-7.8261750">
        <ele>626.8</ele>
        <time>2020-10-19T13:46:56Z</time>
      </trkpt>
      <trkpt lat="42.8733060" lon="-7.8261940">
        <ele>626.8</ele>
        <time>2020-10-19T13:46:57Z</time>
      </trkpt>
      <trkpt lat="42.8733120" lon="-7.8262140">
        <ele>626.7</ele>
        <time>2020-10-19T13:46:58Z</time>
      </trkpt>
      <trkpt lat="42.8733190" lon="-7.8262360">
        <ele>626.6</ele>
        <time>2020-10-19T13:46:59Z</time>
      </trkpt>
      <trkpt lat="42.8733260" lon="-7.8262560">
        <ele>626.5</ele>
        <time>2020-10-19T13:47:00Z</time>
      </trkpt>
      <trkpt lat="42.8733330" lon="-7.8262780">
        <ele>626.5</ele>
        <time>2020-10-19T13:47:01Z</time>
      </trkpt>
      <trkpt lat="42.8733420" lon="-7.8262980">
        <ele>626.4</ele>
        <time>2020-10-19T13:47:02Z</time>
      </trkpt>
      <trkpt lat="42.8733520" lon="-7.8263220">
        <ele>626.3</ele>
        <time>2020-10-19T13:47:03Z</time>
      </trkpt>
      <trkpt lat="42.8733640" lon="-7.8263490">
        <ele>626.2</ele>
        <time>2020-10-19T13:47:04Z</time>
      </trkpt>
      <trkpt lat="42.8733740" lon="-7.8263800">
        <ele>626.1</ele>
        <time>2020-10-19T13:47:05Z</time>
      </trkpt>
      <trkpt lat="42.8733890" lon="-7.8264150">
        <ele>625.9</ele>
        <time>2020-10-19T13:47:06Z</time>
      </trkpt>
      <trkpt lat="42.8734070" lon="-7.8264530">
        <ele>625.8</ele>
        <time>2020-10-19T13:47:07Z</time>
      </trkpt>
      <trkpt lat="42.8734270" lon="-7.8264960">
        <ele>625.6</ele>
        <time>2020-10-19T13:47:08Z</time>
      </trkpt>
      <trkpt lat="42.8734480" lon="-7.8265400">
        <ele>625.4</ele>
        <time>2020-10-19T13:47:09Z</time>
      </trkpt>
      <trkpt lat="42.8734700" lon="-7.8265830">
        <ele>625.2</ele>
        <time>2020-10-19T13:47:10Z</time>
      </trkpt>
      <trkpt lat="42.8734940" lon="-7.8266230">
        <ele>625.0</ele>
        <time>2020-10-19T13:47:11Z</time>
      </trkpt>
      <trkpt lat="42.8735210" lon="-7.8266620">
        <ele>624.8</ele>
        <time>2020-10-19T13:47:12Z</time>
      </trkpt>
      <trkpt lat="42.8735450" lon="-7.8267010">
        <ele>624.6</ele>
        <time>2020-10-19T13:47:13Z</time>
      </trkpt>
      <trkpt lat="42.8735710" lon="-7.8267400">
        <ele>624.4</ele>
        <time>2020-10-19T13:47:14Z</time>
      </trkpt>
      <trkpt lat="42.8735940" lon="-7.8267770">
        <ele>624.2</ele>
        <time>2020-10-19T13:47:15Z</time>
      </trkpt>
      <trkpt lat="42.8736180" lon="-7.8268160">
        <ele>624.0</ele>
        <time>2020-10-19T13:47:16Z</time>
      </trkpt>
      <trkpt lat="42.8736360" lon="-7.8268530">
        <ele>623.8</ele>
        <time>2020-10-19T13:47:17Z</time>
      </trkpt>
      <trkpt lat="42.8736490" lon="-7.8268750">
        <ele>623.7</ele>
        <time>2020-10-19T13:47:18Z</time>
      </trkpt>
      <trkpt lat="42.8736600" lon="-7.8268830">
        <ele>623.6</ele>
        <time>2020-10-19T13:47:19Z</time>
      </trkpt>
      <trkpt lat="42.8736730" lon="-7.8268860">
        <ele>623.5</ele>
        <time>2020-10-19T13:47:20Z</time>
      </trkpt>
      <trkpt lat="42.8736880" lon="-7.8268950">
        <ele>623.4</ele>
        <time>2020-10-19T13:47:21Z</time>
      </trkpt>
      <trkpt lat="42.8737040" lon="-7.8269030">
        <ele>623.3</ele>
        <time>2020-10-19T13:47:22Z</time>
      </trkpt>
      <trkpt lat="42.8737180" lon="-7.8269100">
        <ele>623.2</ele>
        <time>2020-10-19T13:47:23Z</time>
      </trkpt>
      <trkpt lat="42.8737290" lon="-7.8269200">
        <ele>623.1</ele>
        <time>2020-10-19T13:47:24Z</time>
      </trkpt>
      <trkpt lat="42.8737390" lon="-7.8269330">
        <ele>623.0</ele>
        <time>2020-10-19T13:47:25Z</time>
      </trkpt>
      <trkpt lat="42.8737450" lon="-7.8269460">
        <ele>622.9</ele>
        <time>2020-10-19T13:47:26Z</time>
      </trkpt>
      <trkpt lat="42.8737510" lon="-7.8269530">
        <ele>622.9</ele>
        <time>2020-10-19T13:47:27Z</time>
      </trkpt>
      <trkpt lat="42.8737520" lon="-7.8269540">
        <ele>622.9</ele>
        <time>2020-10-19T13:47:28Z</time>
      </trkpt>
      <trkpt lat="42.8737510" lon="-7.8269520">
        <ele>622.9</ele>
        <time>2020-10-19T13:47:29Z</time>
      </trkpt>
      <trkpt lat="42.8737500" lon="-7.8269470">
        <ele>622.9</ele>
        <time>2020-10-19T13:47:30Z</time>
      </trkpt>
      <trkpt lat="42.8737510" lon="-7.8269420">
        <ele>622.8</ele>
        <time>2020-10-19T13:47:31Z</time>
      </trkpt>
      <trkpt lat="42.8737530" lon="-7.8269370">
        <ele>622.8</ele>
        <time>2020-10-19T13:47:32Z</time>
      </trkpt>
      <trkpt lat="42.8737510" lon="-7.8269350">
        <ele>622.8</ele>
        <time>2020-10-19T13:47:33Z</time>
      </trkpt>
      <trkpt lat="42.8737510" lon="-7.8269320">
        <ele>622.8</ele>
        <time>2020-10-19T13:47:34Z</time>
      </trkpt>
      <trkpt lat="42.8737500" lon="-7.8269310">
        <ele>622.8</ele>
        <time>2020-10-19T13:47:35Z</time>
      </trkpt>
      <trkpt lat="42.8737510" lon="-7.8269300">
        <ele>622.8</ele>
        <time>2020-10-19T13:47:36Z</time>
      </trkpt>
      <trkpt lat="42.8737520" lon="-7.8269340">
        <ele>622.7</ele>
        <time>2020-10-19T13:47:37Z</time>
      </trkpt>
      <trkpt lat="42.8737540" lon="-7.8269380">
        <ele>622.7</ele>
        <time>2020-10-19T13:47:38Z</time>
      </trkpt>
      <trkpt lat="42.8737550" lon="-7.8269410">
        <ele>622.7</ele>
        <time>2020-10-19T13:47:39Z</time>
      </trkpt>
      <trkpt lat="42.8737560" lon="-7.8269410">
        <ele>622.7</ele>
        <time>2020-10-19T13:47:40Z</time>
      </trkpt>
      <trkpt lat="42.8737570" lon="-7.8269410">
        <ele>622.7</ele>
        <time>2020-10-19T13:47:41Z</time>
      </trkpt>
      <trkpt lat="42.8737580" lon="-7.8269410">
        <ele>622.7</ele>
        <time>2020-10-19T13:47:42Z</time>
      </trkpt>
      <trkpt lat="42.8737600" lon="-7.8269410">
        <ele>622.7</ele>
        <time>2020-10-19T13:47:43Z</time>
      </trkpt>
      <trkpt lat="42.8737600" lon="-7.8269400">
        <ele>622.7</ele>
        <time>2020-10-19T13:47:44Z</time>
      </trkpt>
      <trkpt lat="42.8737590" lon="-7.8269390">
        <ele>622.6</ele>
        <time>2020-10-19T13:47:45Z</time>
      </trkpt>
      <trkpt lat="42.8737580" lon="-7.8269380">
        <ele>622.6</ele>
        <time>2020-10-19T13:47:46Z</time>
      </trkpt>
      <trkpt lat="42.8737580" lon="-7.8269370">
        <ele>622.6</ele>
        <time>2020-10-19T13:47:47Z</time>
      </trkpt>
      <trkpt lat="42.8737570" lon="-7.8269370">
        <ele>622.6</ele>
        <time>2020-10-19T13:47:48Z</time>
      </trkpt>
      <trkpt lat="42.8737570" lon="-7.8269370">
        <ele>622.6</ele>
        <time>2020-10-19T13:47:49Z</time>
      </trkpt>
      <trkpt lat="42.8737550" lon="-7.8269370">
        <ele>622.6</ele>
        <time>2020-10-19T13:47:50Z</time>
      </trkpt>
      <trkpt lat="42.8737550" lon="-7.8269380">
        <ele>622.6</ele>
        <time>2020-10-19T13:47:51Z</time>
      </trkpt>
      <trkpt lat="42.8737550" lon="-7.8269390">
        <ele>622.6</ele>
        <time>2020-10-19T13:47:52Z</time>
      </trkpt>
      <trkpt lat="42.8737580" lon="-7.8269400">
        <ele>622.6</ele>
        <time>2020-10-19T13:47:53Z</time>
      </trkpt>
      <trkpt lat="42.8737630" lon="-7.8269430">
        <ele>622.5</ele>
        <time>2020-10-19T13:47:54Z</time>
      </trkpt>
      <trkpt lat="42.8737670" lon="-7.8269470">
        <ele>622.5</ele>
        <time>2020-10-19T13:47:55Z</time>
      </trkpt>
      <trkpt lat="42.8737700" lon="-7.8269530">
        <ele>622.5</ele>
        <time>2020-10-19T13:47:56Z</time>
      </trkpt>
      <trkpt lat="42.8737720" lon="-7.8269630">
        <ele>622.4</ele>
        <time>2020-10-19T13:47:57Z</time>
      </trkpt>
      <trkpt lat="42.8737760" lon="-7.8269750">
        <ele>622.4</ele>
        <time>2020-10-19T13:47:58Z</time>
      </trkpt>
      <trkpt lat="42.8737820" lon="-7.8269870">
        <ele>622.3</ele>
        <time>2020-10-19T13:47:59Z</time>
      </trkpt>
      <trkpt lat="42.8737880" lon="-7.8270000">
        <ele>622.2</ele>
        <time>2020-10-19T13:48:00Z</time>
      </trkpt>
      <trkpt lat="42.8737930" lon="-7.8270120">
        <ele>622.2</ele>
        <time>2020-10-19T13:48:01Z</time>
      </trkpt>
      <trkpt lat="42.8737980" lon="-7.8270210">
        <ele>622.1</ele>
        <time>2020-10-19T13:48:02Z</time>
      </trkpt>
      <trkpt lat="42.8738050" lon="-7.8270310">
        <ele>622.1</ele>
        <time>2020-10-19T13:48:03Z</time>
      </trkpt>
      <trkpt lat="42.8738130" lon="-7.8270440">
        <ele>622.0</ele>
        <time>2020-10-19T13:48:04Z</time>
      </trkpt>
      <trkpt lat="42.8738210" lon="-7.8270610">
        <ele>621.9</ele>
        <time>2020-10-19T13:48:05Z</time>
      </trkpt>
      <trkpt lat="42.8738300" lon="-7.8270760">
        <ele>621.8</ele>
        <time>2020-10-19T13:48:06Z</time>
      </trkpt>
      <trkpt lat="42.8738390" lon="-7.8270890">
        <ele>621.7</ele>
        <time>2020-10-19T13:48:07Z</time>
      </trkpt>
      <trkpt lat="42.8738470" lon="-7.8271000">
        <ele>621.6</ele>
        <time>2020-10-19T13:48:08Z</time>
      </trkpt>
      <trkpt lat="42.8738530" lon="-7.8271130">
        <ele>621.6</ele>
        <time>2020-10-19T13:48:09Z</time>
      </trkpt>
      <trkpt lat="42.8738600" lon="-7.8271280">
        <ele>621.5</ele>
        <time>2020-10-19T13:48:10Z</time>
      </trkpt>
      <trkpt lat="42.8738670" lon="-7.8271460">
        <ele>621.4</ele>
        <time>2020-10-19T13:48:11Z</time>
      </trkpt>
      <trkpt lat="42.8738760" lon="-7.8271650">
        <ele>621.3</ele>
        <time>2020-10-19T13:48:12Z</time>
      </trkpt>
      <trkpt lat="42.8738840" lon="-7.8271830">
        <ele>621.2</ele>
        <time>2020-10-19T13:48:13Z</time>
      </trkpt>
      <trkpt lat="42.8738950" lon="-7.8272000">
        <ele>621.1</ele>
        <time>2020-10-19T13:48:14Z</time>
      </trkpt>
      <trkpt lat="42.8739050" lon="-7.8272140">
        <ele>621.1</ele>
        <time>2020-10-19T13:48:15Z</time>
      </trkpt>
      <trkpt lat="42.8739170" lon="-7.8272290">
        <ele>621.0</ele>
        <time>2020-10-19T13:48:16Z</time>
      </trkpt>
      <trkpt lat="42.8739270" lon="-7.8272430">
        <ele>620.9</ele>
        <time>2020-10-19T13:48:17Z</time>
      </trkpt>
      <trkpt lat="42.8739390" lon="-7.8272590">
        <ele>620.8</ele>
        <time>2020-10-19T13:48:18Z</time>
      </trkpt>
      <trkpt lat="42.8739490" lon="-7.8272740">
        <ele>620.7</ele>
        <time>2020-10-19T13:48:19Z</time>
      </trkpt>
      <trkpt lat="42.8739580" lon="-7.8272900">
        <ele>620.6</ele>
        <time>2020-10-19T13:48:20Z</time>
      </trkpt>
      <trkpt lat="42.8739670" lon="-7.8273050">
        <ele>620.5</ele>
        <time>2020-10-19T13:48:21Z</time>
      </trkpt>
      <trkpt lat="42.8739770" lon="-7.8273220">
        <ele>620.5</ele>
        <time>2020-10-19T13:48:22Z</time>
      </trkpt>
      <trkpt lat="42.8739860" lon="-7.8273390">
        <ele>620.4</ele>
        <time>2020-10-19T13:48:23Z</time>
      </trkpt>
      <trkpt lat="42.8739960" lon="-7.8273550">
        <ele>620.3</ele>
        <time>2020-10-19T13:48:24Z</time>
      </trkpt>
      <trkpt lat="42.8740040" lon="-7.8273700">
        <ele>620.2</ele>
        <time>2020-10-19T13:48:25Z</time>
      </trkpt>
      <trkpt lat="42.8740110" lon="-7.8273850">
        <ele>620.2</ele>
        <time>2020-10-19T13:48:26Z</time>
      </trkpt>
      <trkpt lat="42.8740170" lon="-7.8274000">
        <ele>620.1</ele>
        <time>2020-10-19T13:48:27Z</time>
      </trkpt>
      <trkpt lat="42.8740230" lon="-7.8274140">
        <ele>620.0</ele>
        <time>2020-10-19T13:48:28Z</time>
      </trkpt>
      <trkpt lat="42.8740280" lon="-7.8274300">
        <ele>620.0</ele>
        <time>2020-10-19T13:48:29Z</time>
      </trkpt>
      <trkpt lat="42.8740350" lon="-7.8274450">
        <ele>619.9</ele>
        <time>2020-10-19T13:48:30Z</time>
      </trkpt>
      <trkpt lat="42.8740410" lon="-7.8274610">
        <ele>619.8</ele>
        <time>2020-10-19T13:48:31Z</time>
      </trkpt>
      <trkpt lat="42.8740500" lon="-7.8274780">
        <ele>619.8</ele>
        <time>2020-10-19T13:48:32Z</time>
      </trkpt>
      <trkpt lat="42.8740590" lon="-7.8274950">
        <ele>619.7</ele>
        <time>2020-10-19T13:48:33Z</time>
      </trkpt>
      <trkpt lat="42.8740700" lon="-7.8275110">
        <ele>619.6</ele>
        <time>2020-10-19T13:48:34Z</time>
      </trkpt>
      <trkpt lat="42.8740800" lon="-7.8275280">
        <ele>619.5</ele>
        <time>2020-10-19T13:48:35Z</time>
      </trkpt>
      <trkpt lat="42.8740900" lon="-7.8275420">
        <ele>619.4</ele>
        <time>2020-10-19T13:48:36Z</time>
      </trkpt>
      <trkpt lat="42.8740990" lon="-7.8275580">
        <ele>619.4</ele>
        <time>2020-10-19T13:48:37Z</time>
      </trkpt>
      <trkpt lat="42.8741100" lon="-7.8275760">
        <ele>619.3</ele>
        <time>2020-10-19T13:48:38Z</time>
      </trkpt>
      <trkpt lat="42.8741220" lon="-7.8275960">
        <ele>619.2</ele>
        <time>2020-10-19T13:48:39Z</time>
      </trkpt>
      <trkpt lat="42.8741330" lon="-7.8276190">
        <ele>619.1</ele>
        <time>2020-10-19T13:48:40Z</time>
      </trkpt>
      <trkpt lat="42.8741420" lon="-7.8276440">
        <ele>619.0</ele>
        <time>2020-10-19T13:48:41Z</time>
      </trkpt>
      <trkpt lat="42.8741480" lon="-7.8276690">
        <ele>618.9</ele>
        <time>2020-10-19T13:48:42Z</time>
      </trkpt>
      <trkpt lat="42.8741520" lon="-7.8276930">
        <ele>618.9</ele>
        <time>2020-10-19T13:48:43Z</time>
      </trkpt>
      <trkpt lat="42.8741580" lon="-7.8277140">
        <ele>618.8</ele>
        <time>2020-10-19T13:48:44Z</time>
      </trkpt>
      <trkpt lat="42.8741650" lon="-7.8277330">
        <ele>618.7</ele>
        <time>2020-10-19T13:48:45Z</time>
      </trkpt>
      <trkpt lat="42.8741720" lon="-7.8277510">
        <ele>618.7</ele>
        <time>2020-10-19T13:48:46Z</time>
      </trkpt>
      <trkpt lat="42.8741790" lon="-7.8277680">
        <ele>618.6</ele>
        <time>2020-10-19T13:48:47Z</time>
      </trkpt>
      <trkpt lat="42.8741880" lon="-7.8277850">
        <ele>618.5</ele>
        <time>2020-10-19T13:48:48Z</time>
      </trkpt>
      <trkpt lat="42.8741980" lon="-7.8278010">
        <ele>618.5</ele>
        <time>2020-10-19T13:48:49Z</time>
      </trkpt>
      <trkpt lat="42.8742080" lon="-7.8278170">
        <ele>618.4</ele>
        <time>2020-10-19T13:48:50Z</time>
      </trkpt>
      <trkpt lat="42.8742180" lon="-7.8278320">
        <ele>618.4</ele>
        <time>2020-10-19T13:48:51Z</time>
      </trkpt>
      <trkpt lat="42.8742260" lon="-7.8278470">
        <ele>618.3</ele>
        <time>2020-10-19T13:48:52Z</time>
      </trkpt>
      <trkpt lat="42.8742330" lon="-7.8278620">
        <ele>618.3</ele>
        <time>2020-10-19T13:48:53Z</time>
      </trkpt>
      <trkpt lat="42.8742390" lon="-7.8278740">
        <ele>618.2</ele>
        <time>2020-10-19T13:48:54Z</time>
      </trkpt>
      <trkpt lat="42.8742440" lon="-7.8278870">
        <ele>618.2</ele>
        <time>2020-10-19T13:48:55Z</time>
      </trkpt>
      <trkpt lat="42.8742510" lon="-7.8278990">
        <ele>618.2</ele>
        <time>2020-10-19T13:48:56Z</time>
      </trkpt>
      <trkpt lat="42.8742560" lon="-7.8279140">
        <ele>618.1</ele>
        <time>2020-10-19T13:48:57Z</time>
      </trkpt>
      <trkpt lat="42.8742630" lon="-7.8279300">
        <ele>618.1</ele>
        <time>2020-10-19T13:48:58Z</time>
      </trkpt>
      <trkpt lat="42.8742670" lon="-7.8279460">
        <ele>618.1</ele>
        <time>2020-10-19T13:48:59Z</time>
      </trkpt>
      <trkpt lat="42.8742750" lon="-7.8279600">
        <ele>618.0</ele>
        <time>2020-10-19T13:49:00Z</time>
      </trkpt>
      <trkpt lat="42.8742830" lon="-7.8279730">
        <ele>618.0</ele>
        <time>2020-10-19T13:49:01Z</time>
      </trkpt>
      <trkpt lat="42.8742900" lon="-7.8279870">
        <ele>617.9</ele>
        <time>2020-10-19T13:49:02Z</time>
      </trkpt>
      <trkpt lat="42.8742960" lon="-7.8280020">
        <ele>617.9</ele>
        <time>2020-10-19T13:49:03Z</time>
      </trkpt>
      <trkpt lat="42.8743020" lon="-7.8280170">
        <ele>617.9</ele>
        <time>2020-10-19T13:49:04Z</time>
      </trkpt>
      <trkpt lat="42.8743080" lon="-7.8280310">
        <ele>617.8</ele>
        <time>2020-10-19T13:49:05Z</time>
      </trkpt>
      <trkpt lat="42.8743140" lon="-7.8280460">
        <ele>617.8</ele>
        <time>2020-10-19T13:49:06Z</time>
      </trkpt>
      <trkpt lat="42.8743210" lon="-7.8280600">
        <ele>617.8</ele>
        <time>2020-10-19T13:49:07Z</time>
      </trkpt>
      <trkpt lat="42.8743220" lon="-7.8280710">
        <ele>617.7</ele>
        <time>2020-10-19T13:49:08Z</time>
      </trkpt>
      <trkpt lat="42.8743200" lon="-7.8280760">
        <ele>617.7</ele>
        <time>2020-10-19T13:49:09Z</time>
      </trkpt>
      <trkpt lat="42.8743170" lon="-7.8280770">
        <ele>617.7</ele>
        <time>2020-10-19T13:49:10Z</time>
      </trkpt>
      <trkpt lat="42.8743170" lon="-7.8280770">
        <ele>617.7</ele>
        <time>2020-10-19T13:49:11Z</time>
      </trkpt>
      <trkpt lat="42.8743190" lon="-7.8280760">
        <ele>617.7</ele>
        <time>2020-10-19T13:49:12Z</time>
      </trkpt>
      <trkpt lat="42.8743180" lon="-7.8280780">
        <ele>617.7</ele>
        <time>2020-10-19T13:49:13Z</time>
      </trkpt>
      <trkpt lat="42.8743180" lon="-7.8280780">
        <ele>617.7</ele>
        <time>2020-10-19T13:49:14Z</time>
      </trkpt>
      <trkpt lat="42.8743180" lon="-7.8280800">
        <ele>617.7</ele>
        <time>2020-10-19T13:49:15Z</time>
      </trkpt>
      <trkpt lat="42.8743210" lon="-7.8280790">
        <ele>617.7</ele>
        <time>2020-10-19T13:49:16Z</time>
      </trkpt>
      <trkpt lat="42.8743260" lon="-7.8280820">
        <ele>617.7</ele>
        <time>2020-10-19T13:49:17Z</time>
      </trkpt>
      <trkpt lat="42.8743320" lon="-7.8280890">
        <ele>617.7</ele>
        <time>2020-10-19T13:49:18Z</time>
      </trkpt>
      <trkpt lat="42.8743370" lon="-7.8281050">
        <ele>617.6</ele>
        <time>2020-10-19T13:49:19Z</time>
      </trkpt>
      <trkpt lat="42.8743420" lon="-7.8281240">
        <ele>617.6</ele>
        <time>2020-10-19T13:49:20Z</time>
      </trkpt>
      <trkpt lat="42.8743480" lon="-7.8281430">
        <ele>617.5</ele>
        <time>2020-10-19T13:49:21Z</time>
      </trkpt>
      <trkpt lat="42.8743550" lon="-7.8281580">
        <ele>617.5</ele>
        <time>2020-10-19T13:49:22Z</time>
      </trkpt>
      <trkpt lat="42.8743610" lon="-7.8281720">
        <ele>617.5</ele>
        <time>2020-10-19T13:49:23Z</time>
      </trkpt>
      <trkpt lat="42.8743660" lon="-7.8281860">
        <ele>617.4</ele>
        <time>2020-10-19T13:49:24Z</time>
      </trkpt>
      <trkpt lat="42.8743720" lon="-7.8281990">
        <ele>617.4</ele>
        <time>2020-10-19T13:49:25Z</time>
      </trkpt>
      <trkpt lat="42.8743760" lon="-7.8282140">
        <ele>617.4</ele>
        <time>2020-10-19T13:49:26Z</time>
      </trkpt>
      <trkpt lat="42.8743810" lon="-7.8282300">
        <ele>617.4</ele>
        <time>2020-10-19T13:49:27Z</time>
      </trkpt>
      <trkpt lat="42.8743850" lon="-7.8282460">
        <ele>617.4</ele>
        <time>2020-10-19T13:49:28Z</time>
      </trkpt>
      <trkpt lat="42.8743910" lon="-7.8282620">
        <ele>617.3</ele>
        <time>2020-10-19T13:49:29Z</time>
      </trkpt>
      <trkpt lat="42.8743970" lon="-7.8282790">
        <ele>617.3</ele>
        <time>2020-10-19T13:49:30Z</time>
      </trkpt>
      <trkpt lat="42.8744030" lon="-7.8282950">
        <ele>617.3</ele>
        <time>2020-10-19T13:49:31Z</time>
      </trkpt>
      <trkpt lat="42.8744100" lon="-7.8283090">
        <ele>617.3</ele>
        <time>2020-10-19T13:49:32Z</time>
      </trkpt>
      <trkpt lat="42.8744150" lon="-7.8283240">
        <ele>617.3</ele>
        <time>2020-10-19T13:49:33Z</time>
      </trkpt>
      <trkpt lat="42.8744200" lon="-7.8283400">
        <ele>617.3</ele>
        <time>2020-10-19T13:49:34Z</time>
      </trkpt>
      <trkpt lat="42.8744260" lon="-7.8283560">
        <ele>617.3</ele>
        <time>2020-10-19T13:49:35Z</time>
      </trkpt>
      <trkpt lat="42.8744340" lon="-7.8283710">
        <ele>617.3</ele>
        <time>2020-10-19T13:49:36Z</time>
      </trkpt>
      <trkpt lat="42.8744410" lon="-7.8283860">
        <ele>617.2</ele>
        <time>2020-10-19T13:49:37Z</time>
      </trkpt>
      <trkpt lat="42.8744460" lon="-7.8284020">
        <ele>617.2</ele>
        <time>2020-10-19T13:49:38Z</time>
      </trkpt>
      <trkpt lat="42.8744520" lon="-7.8284180">
        <ele>617.2</ele>
        <time>2020-10-19T13:49:39Z</time>
      </trkpt>
      <trkpt lat="42.8744630" lon="-7.8284350">
        <ele>617.2</ele>
        <time>2020-10-19T13:49:40Z</time>
      </trkpt>
      <trkpt lat="42.8744750" lon="-7.8284510">
        <ele>617.2</ele>
        <time>2020-10-19T13:49:41Z</time>
      </trkpt>
      <trkpt lat="42.8744860" lon="-7.8284670">
        <ele>617.2</ele>
        <time>2020-10-19T13:49:42Z</time>
      </trkpt>
      <trkpt lat="42.8744950" lon="-7.8284830">
        <ele>617.2</ele>
        <time>2020-10-19T13:49:43Z</time>
      </trkpt>
      <trkpt lat="42.8745020" lon="-7.8284980">
        <ele>617.2</ele>
        <time>2020-10-19T13:49:44Z</time>
      </trkpt>
      <trkpt lat="42.8745100" lon="-7.8285130">
        <ele>617.2</ele>
        <time>2020-10-19T13:49:45Z</time>
      </trkpt>
      <trkpt lat="42.8745170" lon="-7.8285280">
        <ele>617.2</ele>
        <time>2020-10-19T13:49:46Z</time>
      </trkpt>
      <trkpt lat="42.8745240" lon="-7.8285440">
        <ele>617.2</ele>
        <time>2020-10-19T13:49:47Z</time>
      </trkpt>
      <trkpt lat="42.8745300" lon="-7.8285570">
        <ele>617.2</ele>
        <time>2020-10-19T13:49:48Z</time>
      </trkpt>
      <trkpt lat="42.8745370" lon="-7.8285670">
        <ele>617.2</ele>
        <time>2020-10-19T13:49:49Z</time>
      </trkpt>
      <trkpt lat="42.8745440" lon="-7.8285760">
        <ele>617.2</ele>
        <time>2020-10-19T13:49:50Z</time>
      </trkpt>
      <trkpt lat="42.8745520" lon="-7.8285880">
        <ele>617.2</ele>
        <time>2020-10-19T13:49:51Z</time>
      </trkpt>
      <trkpt lat="42.8745580" lon="-7.8286020">
        <ele>617.2</ele>
        <time>2020-10-19T13:49:52Z</time>
      </trkpt>
      <trkpt lat="42.8745620" lon="-7.8286180">
        <ele>617.2</ele>
        <time>2020-10-19T13:49:53Z</time>
      </trkpt>
      <trkpt lat="42.8745660" lon="-7.8286340">
        <ele>617.2</ele>
        <time>2020-10-19T13:49:54Z</time>
      </trkpt>
      <trkpt lat="42.8745710" lon="-7.8286520">
        <ele>617.2</ele>
        <time>2020-10-19T13:49:55Z</time>
      </trkpt>
      <trkpt lat="42.8745760" lon="-7.8286710">
        <ele>617.2</ele>
        <time>2020-10-19T13:49:56Z</time>
      </trkpt>
      <trkpt lat="42.8745820" lon="-7.8286910">
        <ele>617.2</ele>
        <time>2020-10-19T13:49:57Z</time>
      </trkpt>
      <trkpt lat="42.8745890" lon="-7.8287090">
        <ele>617.2</ele>
        <time>2020-10-19T13:49:58Z</time>
      </trkpt>
      <trkpt lat="42.8745970" lon="-7.8287260">
        <ele>617.2</ele>
        <time>2020-10-19T13:49:59Z</time>
      </trkpt>
      <trkpt lat="42.8746040" lon="-7.8287420">
        <ele>617.2</ele>
        <time>2020-10-19T13:50:00Z</time>
      </trkpt>
      <trkpt lat="42.8746120" lon="-7.8287580">
        <ele>617.2</ele>
        <time>2020-10-19T13:50:01Z</time>
      </trkpt>
      <trkpt lat="42.8746210" lon="-7.8287760">
        <ele>617.2</ele>
        <time>2020-10-19T13:50:02Z</time>
      </trkpt>
      <trkpt lat="42.8746300" lon="-7.8287940">
        <ele>617.2</ele>
        <time>2020-10-19T13:50:03Z</time>
      </trkpt>
      <trkpt lat="42.8746390" lon="-7.8288130">
        <ele>617.2</ele>
        <time>2020-10-19T13:50:04Z</time>
      </trkpt>
      <trkpt lat="42.8746470" lon="-7.8288310">
        <ele>617.2</ele>
        <time>2020-10-19T13:50:05Z</time>
      </trkpt>
      <trkpt lat="42.8746540" lon="-7.8288500">
        <ele>617.2</ele>
        <time>2020-10-19T13:50:06Z</time>
      </trkpt>
      <trkpt lat="42.8746620" lon="-7.8288680">
        <ele>617.2</ele>
        <time>2020-10-19T13:50:07Z</time>
      </trkpt>
      <trkpt lat="42.8746700" lon="-7.8288840">
        <ele>617.2</ele>
        <time>2020-10-19T13:50:08Z</time>
      </trkpt>
      <trkpt lat="42.8746790" lon="-7.8289000">
        <ele>617.2</ele>
        <time>2020-10-19T13:50:09Z</time>
      </trkpt>
      <trkpt lat="42.8746890" lon="-7.8289160">
        <ele>617.2</ele>
        <time>2020-10-19T13:50:10Z</time>
      </trkpt>
      <trkpt lat="42.8746990" lon="-7.8289340">
        <ele>617.2</ele>
        <time>2020-10-19T13:50:11Z</time>
      </trkpt>
      <trkpt lat="42.8747090" lon="-7.8289520">
        <ele>617.2</ele>
        <time>2020-10-19T13:50:12Z</time>
      </trkpt>
      <trkpt lat="42.8747190" lon="-7.8289710">
        <ele>617.2</ele>
        <time>2020-10-19T13:50:13Z</time>
      </trkpt>
      <trkpt lat="42.8747280" lon="-7.8289890">
        <ele>617.2</ele>
        <time>2020-10-19T13:50:14Z</time>
      </trkpt>
      <trkpt lat="42.8747390" lon="-7.8290070">
        <ele>617.1</ele>
        <time>2020-10-19T13:50:15Z</time>
      </trkpt>
      <trkpt lat="42.8747500" lon="-7.8290240">
        <ele>617.1</ele>
        <time>2020-10-19T13:50:16Z</time>
      </trkpt>
      <trkpt lat="42.8747610" lon="-7.8290400">
        <ele>617.1</ele>
        <time>2020-10-19T13:50:17Z</time>
      </trkpt>
      <trkpt lat="42.8747720" lon="-7.8290550">
        <ele>617.1</ele>
        <time>2020-10-19T13:50:18Z</time>
      </trkpt>
      <trkpt lat="42.8747810" lon="-7.8290700">
        <ele>617.0</ele>
        <time>2020-10-19T13:50:19Z</time>
      </trkpt>
      <trkpt lat="42.8747910" lon="-7.8290850">
        <ele>617.0</ele>
        <time>2020-10-19T13:50:20Z</time>
      </trkpt>
      <trkpt lat="42.8748020" lon="-7.8290990">
        <ele>617.0</ele>
        <time>2020-10-19T13:50:21Z</time>
      </trkpt>
      <trkpt lat="42.8748150" lon="-7.8291130">
        <ele>616.9</ele>
        <time>2020-10-19T13:50:22Z</time>
      </trkpt>
      <trkpt lat="42.8748290" lon="-7.8291270">
        <ele>616.9</ele>
        <time>2020-10-19T13:50:23Z</time>
      </trkpt>
      <trkpt lat="42.8748410" lon="-7.8291410">
        <ele>616.9</ele>
        <time>2020-10-19T13:50:24Z</time>
      </trkpt>
      <trkpt lat="42.8748530" lon="-7.8291540">
        <ele>616.8</ele>
        <time>2020-10-19T13:50:25Z</time>
      </trkpt>
      <trkpt lat="42.8748640" lon="-7.8291660">
        <ele>616.8</ele>
        <time>2020-10-19T13:50:26Z</time>
      </trkpt>
      <trkpt lat="42.8748760" lon="-7.8291780">
        <ele>616.7</ele>
        <time>2020-10-19T13:50:27Z</time>
      </trkpt>
      <trkpt lat="42.8748870" lon="-7.8291890">
        <ele>616.7</ele>
        <time>2020-10-19T13:50:28Z</time>
      </trkpt>
      <trkpt lat="42.8748980" lon="-7.8292000">
        <ele>616.6</ele>
        <time>2020-10-19T13:50:29Z</time>
      </trkpt>
      <trkpt lat="42.8749100" lon="-7.8292100">
        <ele>616.6</ele>
        <time>2020-10-19T13:50:30Z</time>
      </trkpt>
      <trkpt lat="42.8749220" lon="-7.8292210">
        <ele>616.5</ele>
        <time>2020-10-19T13:50:31Z</time>
      </trkpt>
      <trkpt lat="42.8749350" lon="-7.8292310">
        <ele>616.5</ele>
        <time>2020-10-19T13:50:32Z</time>
      </trkpt>
      <trkpt lat="42.8749470" lon="-7.8292420">
        <ele>616.5</ele>
        <time>2020-10-19T13:50:33Z</time>
      </trkpt>
      <trkpt lat="42.8749610" lon="-7.8292520">
        <ele>616.4</ele>
        <time>2020-10-19T13:50:34Z</time>
      </trkpt>
      <trkpt lat="42.8749740" lon="-7.8292620">
        <ele>616.4</ele>
        <time>2020-10-19T13:50:35Z</time>
      </trkpt>
      <trkpt lat="42.8749860" lon="-7.8292720">
        <ele>616.4</ele>
        <time>2020-10-19T13:50:36Z</time>
      </trkpt>
      <trkpt lat="42.8749980" lon="-7.8292820">
        <ele>616.3</ele>
        <time>2020-10-19T13:50:37Z</time>
      </trkpt>
      <trkpt lat="42.8750110" lon="-7.8292910">
        <ele>616.3</ele>
        <time>2020-10-19T13:50:38Z</time>
      </trkpt>
      <trkpt lat="42.8750230" lon="-7.8293000">
        <ele>616.2</ele>
        <time>2020-10-19T13:50:39Z</time>
      </trkpt>
      <trkpt lat="42.8750350" lon="-7.8293100">
        <ele>616.2</ele>
        <time>2020-10-19T13:50:40Z</time>
      </trkpt>
      <trkpt lat="42.8750470" lon="-7.8293200">
        <ele>616.1</ele>
        <time>2020-10-19T13:50:41Z</time>
      </trkpt>
      <trkpt lat="42.8750580" lon="-7.8293310">
        <ele>616.1</ele>
        <time>2020-10-19T13:50:42Z</time>
      </trkpt>
      <trkpt lat="42.8750690" lon="-7.8293430">
        <ele>616.0</ele>
        <time>2020-10-19T13:50:43Z</time>
      </trkpt>
      <trkpt lat="42.8750800" lon="-7.8293570">
        <ele>616.0</ele>
        <time>2020-10-19T13:50:44Z</time>
      </trkpt>
      <trkpt lat="42.8750910" lon="-7.8293700">
        <ele>615.9</ele>
        <time>2020-10-19T13:50:45Z</time>
      </trkpt>
      <trkpt lat="42.8751010" lon="-7.8293840">
        <ele>615.9</ele>
        <time>2020-10-19T13:50:46Z</time>
      </trkpt>
      <trkpt lat="42.8751110" lon="-7.8293960">
        <ele>615.9</ele>
        <time>2020-10-19T13:50:47Z</time>
      </trkpt>
      <trkpt lat="42.8751180" lon="-7.8294120">
        <ele>615.8</ele>
        <time>2020-10-19T13:50:48Z</time>
      </trkpt>
      <trkpt lat="42.8751260" lon="-7.8294300">
        <ele>615.8</ele>
        <time>2020-10-19T13:50:49Z</time>
      </trkpt>
      <trkpt lat="42.8751330" lon="-7.8294490">
        <ele>615.7</ele>
        <time>2020-10-19T13:50:50Z</time>
      </trkpt>
      <trkpt lat="42.8751410" lon="-7.8294670">
        <ele>615.7</ele>
        <time>2020-10-19T13:50:51Z</time>
      </trkpt>
      <trkpt lat="42.8751480" lon="-7.8294860">
        <ele>615.6</ele>
        <time>2020-10-19T13:50:52Z</time>
      </trkpt>
      <trkpt lat="42.8751530" lon="-7.8295030">
        <ele>615.6</ele>
        <time>2020-10-19T13:50:53Z</time>
      </trkpt>
      <trkpt lat="42.8751590" lon="-7.8295210">
        <ele>615.6</ele>
        <time>2020-10-19T13:50:54Z</time>
      </trkpt>
      <trkpt lat="42.8751660" lon="-7.8295380">
        <ele>615.5</ele>
        <time>2020-10-19T13:50:55Z</time>
      </trkpt>
      <trkpt lat="42.8751720" lon="-7.8295560">
        <ele>615.5</ele>
        <time>2020-10-19T13:50:56Z</time>
      </trkpt>
      <trkpt lat="42.8751780" lon="-7.8295750">
        <ele>615.5</ele>
        <time>2020-10-19T13:50:57Z</time>
      </trkpt>
      <trkpt lat="42.8751850" lon="-7.8295920">
        <ele>615.5</ele>
        <time>2020-10-19T13:50:58Z</time>
      </trkpt>
      <trkpt lat="42.8751930" lon="-7.8296070">
        <ele>615.4</ele>
        <time>2020-10-19T13:50:59Z</time>
      </trkpt>
      <trkpt lat="42.8752030" lon="-7.8296230">
        <ele>615.4</ele>
        <time>2020-10-19T13:51:00Z</time>
      </trkpt>
      <trkpt lat="42.8752130" lon="-7.8296410">
        <ele>615.4</ele>
        <time>2020-10-19T13:51:01Z</time>
      </trkpt>
      <trkpt lat="42.8752210" lon="-7.8296600">
        <ele>615.4</ele>
        <time>2020-10-19T13:51:02Z</time>
      </trkpt>
      <trkpt lat="42.8752270" lon="-7.8296790">
        <ele>615.3</ele>
        <time>2020-10-19T13:51:03Z</time>
      </trkpt>
      <trkpt lat="42.8752330" lon="-7.8296970">
        <ele>615.3</ele>
        <time>2020-10-19T13:51:04Z</time>
      </trkpt>
      <trkpt lat="42.8752380" lon="-7.8297150">
        <ele>615.3</ele>
        <time>2020-10-19T13:51:05Z</time>
      </trkpt>
      <trkpt lat="42.8752440" lon="-7.8297330">
        <ele>615.3</ele>
        <time>2020-10-19T13:51:06Z</time>
      </trkpt>
      <trkpt lat="42.8752470" lon="-7.8297510">
        <ele>615.3</ele>
        <time>2020-10-19T13:51:07Z</time>
      </trkpt>
      <trkpt lat="42.8752510" lon="-7.8297690">
        <ele>615.2</ele>
        <time>2020-10-19T13:51:08Z</time>
      </trkpt>
      <trkpt lat="42.8752540" lon="-7.8297890">
        <ele>615.2</ele>
        <time>2020-10-19T13:51:09Z</time>
      </trkpt>
      <trkpt lat="42.8752600" lon="-7.8298080">
        <ele>615.2</ele>
        <time>2020-10-19T13:51:10Z</time>
      </trkpt>
      <trkpt lat="42.8752650" lon="-7.8298270">
        <ele>615.2</ele>
        <time>2020-10-19T13:51:11Z</time>
      </trkpt>
      <trkpt lat="42.8752710" lon="-7.8298460">
        <ele>615.2</ele>
        <time>2020-10-19T13:51:12Z</time>
      </trkpt>
      <trkpt lat="42.8752760" lon="-7.8298650">
        <ele>615.1</ele>
        <time>2020-10-19T13:51:13Z</time>
      </trkpt>
      <trkpt lat="42.8752810" lon="-7.8298840">
        <ele>615.1</ele>
        <time>2020-10-19T13:51:14Z</time>
      </trkpt>
      <trkpt lat="42.8752860" lon="-7.8299020">
        <ele>615.1</ele>
        <time>2020-10-19T13:51:15Z</time>
      </trkpt>
      <trkpt lat="42.8752910" lon="-7.8299210">
        <ele>615.1</ele>
        <time>2020-10-19T13:51:16Z</time>
      </trkpt>
      <trkpt lat="42.8752960" lon="-7.8299390">
        <ele>615.1</ele>
        <time>2020-10-19T13:51:17Z</time>
      </trkpt>
      <trkpt lat="42.8753010" lon="-7.8299570">
        <ele>615.1</ele>
        <time>2020-10-19T13:51:18Z</time>
      </trkpt>
      <trkpt lat="42.8753060" lon="-7.8299750">
        <ele>615.0</ele>
        <time>2020-10-19T13:51:19Z</time>
      </trkpt>
      <trkpt lat="42.8753120" lon="-7.8299930">
        <ele>615.0</ele>
        <time>2020-10-19T13:51:20Z</time>
      </trkpt>
      <trkpt lat="42.8753170" lon="-7.8300110">
        <ele>615.0</ele>
        <time>2020-10-19T13:51:21Z</time>
      </trkpt>
      <trkpt lat="42.8753230" lon="-7.8300290">
        <ele>615.0</ele>
        <time>2020-10-19T13:51:22Z</time>
      </trkpt>
      <trkpt lat="42.8753280" lon="-7.8300470">
        <ele>615.0</ele>
        <time>2020-10-19T13:51:23Z</time>
      </trkpt>
      <trkpt lat="42.8753330" lon="-7.8300660">
        <ele>615.0</ele>
        <time>2020-10-19T13:51:24Z</time>
      </trkpt>
      <trkpt lat="42.8753380" lon="-7.8300840">
        <ele>614.9</ele>
        <time>2020-10-19T13:51:25Z</time>
      </trkpt>
      <trkpt lat="42.8753440" lon="-7.8301040">
        <ele>614.9</ele>
        <time>2020-10-19T13:51:26Z</time>
      </trkpt>
      <trkpt lat="42.8753500" lon="-7.8301230">
        <ele>614.9</ele>
        <time>2020-10-19T13:51:27Z</time>
      </trkpt>
      <trkpt lat="42.8753560" lon="-7.8301420">
        <ele>614.9</ele>
        <time>2020-10-19T13:51:28Z</time>
      </trkpt>
      <trkpt lat="42.8753620" lon="-7.8301610">
        <ele>614.9</ele>
        <time>2020-10-19T13:51:29Z</time>
      </trkpt>
      <trkpt lat="42.8753670" lon="-7.8301790">
        <ele>614.9</ele>
        <time>2020-10-19T13:51:30Z</time>
      </trkpt>
      <trkpt lat="42.8753720" lon="-7.8301980">
        <ele>614.9</ele>
        <time>2020-10-19T13:51:31Z</time>
      </trkpt>
      <trkpt lat="42.8753780" lon="-7.8302160">
        <ele>614.8</ele>
        <time>2020-10-19T13:51:32Z</time>
      </trkpt>
      <trkpt lat="42.8753840" lon="-7.8302340">
        <ele>614.8</ele>
        <time>2020-10-19T13:51:33Z</time>
      </trkpt>
      <trkpt lat="42.8753890" lon="-7.8302510">
        <ele>614.8</ele>
        <time>2020-10-19T13:51:34Z</time>
      </trkpt>
      <trkpt lat="42.8753940" lon="-7.8302690">
        <ele>614.8</ele>
        <time>2020-10-19T13:51:35Z</time>
      </trkpt>
      <trkpt lat="42.8753980" lon="-7.8302860">
        <ele>614.8</ele>
        <time>2020-10-19T13:51:36Z</time>
      </trkpt>
      <trkpt lat="42.8754030" lon="-7.8303040">
        <ele>614.8</ele>
        <time>2020-10-19T13:51:37Z</time>
      </trkpt>
      <trkpt lat="42.8754070" lon="-7.8303210">
        <ele>614.8</ele>
        <time>2020-10-19T13:51:38Z</time>
      </trkpt>
      <trkpt lat="42.8754120" lon="-7.8303380">
        <ele>614.8</ele>
        <time>2020-10-19T13:51:39Z</time>
      </trkpt>
      <trkpt lat="42.8754160" lon="-7.8303550">
        <ele>614.8</ele>
        <time>2020-10-19T13:51:40Z</time>
      </trkpt>
      <trkpt lat="42.8754210" lon="-7.8303730">
        <ele>614.8</ele>
        <time>2020-10-19T13:51:41Z</time>
      </trkpt>
      <trkpt lat="42.8754260" lon="-7.8303910">
        <ele>614.8</ele>
        <time>2020-10-19T13:51:42Z</time>
      </trkpt>
      <trkpt lat="42.8754300" lon="-7.8304090">
        <ele>614.8</ele>
        <time>2020-10-19T13:51:43Z</time>
      </trkpt>
      <trkpt lat="42.8754330" lon="-7.8304260">
        <ele>614.8</ele>
        <time>2020-10-19T13:51:44Z</time>
      </trkpt>
      <trkpt lat="42.8754360" lon="-7.8304430">
        <ele>614.8</ele>
        <time>2020-10-19T13:51:45Z</time>
      </trkpt>
      <trkpt lat="42.8754380" lon="-7.8304600">
        <ele>614.9</ele>
        <time>2020-10-19T13:51:46Z</time>
      </trkpt>
      <trkpt lat="42.8754400" lon="-7.8304770">
        <ele>614.9</ele>
        <time>2020-10-19T13:51:47Z</time>
      </trkpt>
      <trkpt lat="42.8754430" lon="-7.8304930">
        <ele>614.9</ele>
        <time>2020-10-19T13:51:48Z</time>
      </trkpt>
      <trkpt lat="42.8754470" lon="-7.8305100">
        <ele>614.9</ele>
        <time>2020-10-19T13:51:49Z</time>
      </trkpt>
      <trkpt lat="42.8754510" lon="-7.8305250">
        <ele>614.9</ele>
        <time>2020-10-19T13:51:50Z</time>
      </trkpt>
      <trkpt lat="42.8754540" lon="-7.8305400">
        <ele>614.9</ele>
        <time>2020-10-19T13:51:51Z</time>
      </trkpt>
      <trkpt lat="42.8754560" lon="-7.8305520">
        <ele>614.9</ele>
        <time>2020-10-19T13:51:52Z</time>
      </trkpt>
      <trkpt lat="42.8754600" lon="-7.8305620">
        <ele>614.9</ele>
        <time>2020-10-19T13:51:53Z</time>
      </trkpt>
      <trkpt lat="42.8754630" lon="-7.8305700">
        <ele>614.9</ele>
        <time>2020-10-19T13:51:54Z</time>
      </trkpt>
      <trkpt lat="42.8754660" lon="-7.8305790">
        <ele>614.9</ele>
        <time>2020-10-19T13:51:55Z</time>
      </trkpt>
      <trkpt lat="42.8754680" lon="-7.8305890">
        <ele>614.9</ele>
        <time>2020-10-19T13:51:56Z</time>
      </trkpt>
      <trkpt lat="42.8754720" lon="-7.8306000">
        <ele>614.9</ele>
        <time>2020-10-19T13:51:57Z</time>
      </trkpt>
      <trkpt lat="42.8754770" lon="-7.8306120">
        <ele>614.9</ele>
        <time>2020-10-19T13:51:58Z</time>
      </trkpt>
      <trkpt lat="42.8754810" lon="-7.8306250">
        <ele>614.9</ele>
        <time>2020-10-19T13:51:59Z</time>
      </trkpt>
      <trkpt lat="42.8754830" lon="-7.8306380">
        <ele>615.0</ele>
        <time>2020-10-19T13:52:00Z</time>
      </trkpt>
      <trkpt lat="42.8754860" lon="-7.8306510">
        <ele>615.0</ele>
        <time>2020-10-19T13:52:01Z</time>
      </trkpt>
      <trkpt lat="42.8754890" lon="-7.8306640">
        <ele>615.0</ele>
        <time>2020-10-19T13:52:02Z</time>
      </trkpt>
      <trkpt lat="42.8754920" lon="-7.8306770">
        <ele>615.0</ele>
        <time>2020-10-19T13:52:03Z</time>
      </trkpt>
      <trkpt lat="42.8754960" lon="-7.8306900">
        <ele>615.0</ele>
        <time>2020-10-19T13:52:04Z</time>
      </trkpt>
      <trkpt lat="42.8755000" lon="-7.8307030">
        <ele>615.0</ele>
        <time>2020-10-19T13:52:05Z</time>
      </trkpt>
      <trkpt lat="42.8755050" lon="-7.8307160">
        <ele>615.0</ele>
        <time>2020-10-19T13:52:06Z</time>
      </trkpt>
      <trkpt lat="42.8755100" lon="-7.8307310">
        <ele>615.0</ele>
        <time>2020-10-19T13:52:07Z</time>
      </trkpt>
      <trkpt lat="42.8755130" lon="-7.8307480">
        <ele>615.0</ele>
        <time>2020-10-19T13:52:08Z</time>
      </trkpt>
      <trkpt lat="42.8755160" lon="-7.8307620">
        <ele>615.0</ele>
        <time>2020-10-19T13:52:09Z</time>
      </trkpt>
      <trkpt lat="42.8755200" lon="-7.8307760">
        <ele>615.0</ele>
        <time>2020-10-19T13:52:10Z</time>
      </trkpt>
      <trkpt lat="42.8755260" lon="-7.8307890">
        <ele>615.0</ele>
        <time>2020-10-19T13:52:11Z</time>
      </trkpt>
      <trkpt lat="42.8755320" lon="-7.8308050">
        <ele>615.0</ele>
        <time>2020-10-19T13:52:12Z</time>
      </trkpt>
      <trkpt lat="42.8755360" lon="-7.8308210">
        <ele>615.0</ele>
        <time>2020-10-19T13:52:13Z</time>
      </trkpt>
      <trkpt lat="42.8755410" lon="-7.8308380">
        <ele>615.0</ele>
        <time>2020-10-19T13:52:14Z</time>
      </trkpt>
      <trkpt lat="42.8755460" lon="-7.8308550">
        <ele>615.0</ele>
        <time>2020-10-19T13:52:15Z</time>
      </trkpt>
      <trkpt lat="42.8755510" lon="-7.8308730">
        <ele>615.0</ele>
        <time>2020-10-19T13:52:16Z</time>
      </trkpt>
      <trkpt lat="42.8755570" lon="-7.8308890">
        <ele>615.0</ele>
        <time>2020-10-19T13:52:17Z</time>
      </trkpt>
      <trkpt lat="42.8755630" lon="-7.8309060">
        <ele>615.1</ele>
        <time>2020-10-19T13:52:18Z</time>
      </trkpt>
      <trkpt lat="42.8755680" lon="-7.8309230">
        <ele>615.1</ele>
        <time>2020-10-19T13:52:19Z</time>
      </trkpt>
      <trkpt lat="42.8755730" lon="-7.8309400">
        <ele>615.1</ele>
        <time>2020-10-19T13:52:20Z</time>
      </trkpt>
      <trkpt lat="42.8755760" lon="-7.8309580">
        <ele>615.1</ele>
        <time>2020-10-19T13:52:21Z</time>
      </trkpt>
      <trkpt lat="42.8755800" lon="-7.8309760">
        <ele>615.1</ele>
        <time>2020-10-19T13:52:22Z</time>
      </trkpt>
      <trkpt lat="42.8755850" lon="-7.8309950">
        <ele>615.1</ele>
        <time>2020-10-19T13:52:23Z</time>
      </trkpt>
      <trkpt lat="42.8755910" lon="-7.8310130">
        <ele>615.1</ele>
        <time>2020-10-19T13:52:24Z</time>
      </trkpt>
      <trkpt lat="42.8755960" lon="-7.8310320">
        <ele>615.1</ele>
        <time>2020-10-19T13:52:25Z</time>
      </trkpt>
      <trkpt lat="42.8756000" lon="-7.8310500">
        <ele>615.1</ele>
        <time>2020-10-19T13:52:26Z</time>
      </trkpt>
      <trkpt lat="42.8756030" lon="-7.8310680">
        <ele>615.1</ele>
        <time>2020-10-19T13:52:27Z</time>
      </trkpt>
      <trkpt lat="42.8756070" lon="-7.8310850">
        <ele>615.2</ele>
        <time>2020-10-19T13:52:28Z</time>
      </trkpt>
      <trkpt lat="42.8756100" lon="-7.8311020">
        <ele>615.2</ele>
        <time>2020-10-19T13:52:29Z</time>
      </trkpt>
      <trkpt lat="42.8756110" lon="-7.8311200">
        <ele>615.2</ele>
        <time>2020-10-19T13:52:30Z</time>
      </trkpt>
      <trkpt lat="42.8756130" lon="-7.8311380">
        <ele>615.2</ele>
        <time>2020-10-19T13:52:31Z</time>
      </trkpt>
      <trkpt lat="42.8756160" lon="-7.8311560">
        <ele>615.2</ele>
        <time>2020-10-19T13:52:32Z</time>
      </trkpt>
      <trkpt lat="42.8756180" lon="-7.8311740">
        <ele>615.2</ele>
        <time>2020-10-19T13:52:33Z</time>
      </trkpt>
      <trkpt lat="42.8756200" lon="-7.8311920">
        <ele>615.2</ele>
        <time>2020-10-19T13:52:34Z</time>
      </trkpt>
      <trkpt lat="42.8756230" lon="-7.8312100">
        <ele>615.2</ele>
        <time>2020-10-19T13:52:35Z</time>
      </trkpt>
      <trkpt lat="42.8756260" lon="-7.8312270">
        <ele>615.2</ele>
        <time>2020-10-19T13:52:36Z</time>
      </trkpt>
      <trkpt lat="42.8756300" lon="-7.8312440">
        <ele>615.2</ele>
        <time>2020-10-19T13:52:37Z</time>
      </trkpt>
      <trkpt lat="42.8756330" lon="-7.8312610">
        <ele>615.2</ele>
        <time>2020-10-19T13:52:38Z</time>
      </trkpt>
      <trkpt lat="42.8756350" lon="-7.8312790">
        <ele>615.3</ele>
        <time>2020-10-19T13:52:39Z</time>
      </trkpt>
      <trkpt lat="42.8756360" lon="-7.8312970">
        <ele>615.3</ele>
        <time>2020-10-19T13:52:40Z</time>
      </trkpt>
      <trkpt lat="42.8756380" lon="-7.8313150">
        <ele>615.3</ele>
        <time>2020-10-19T13:52:41Z</time>
      </trkpt>
      <trkpt lat="42.8756400" lon="-7.8313330">
        <ele>615.3</ele>
        <time>2020-10-19T13:52:42Z</time>
      </trkpt>
      <trkpt lat="42.8756420" lon="-7.8313500">
        <ele>615.3</ele>
        <time>2020-10-19T13:52:43Z</time>
      </trkpt>
      <trkpt lat="42.8756440" lon="-7.8313680">
        <ele>615.3</ele>
        <time>2020-10-19T13:52:44Z</time>
      </trkpt>
      <trkpt lat="42.8756450" lon="-7.8313870">
        <ele>615.4</ele>
        <time>2020-10-19T13:52:45Z</time>
      </trkpt>
      <trkpt lat="42.8756470" lon="-7.8314040">
        <ele>615.4</ele>
        <time>2020-10-19T13:52:46Z</time>
      </trkpt>
      <trkpt lat="42.8756490" lon="-7.8314210">
        <ele>615.4</ele>
        <time>2020-10-19T13:52:47Z</time>
      </trkpt>
      <trkpt lat="42.8756510" lon="-7.8314390">
        <ele>615.4</ele>
        <time>2020-10-19T13:52:48Z</time>
      </trkpt>
      <trkpt lat="42.8756530" lon="-7.8314570">
        <ele>615.4</ele>
        <time>2020-10-19T13:52:49Z</time>
      </trkpt>
      <trkpt lat="42.8756550" lon="-7.8314750">
        <ele>615.4</ele>
        <time>2020-10-19T13:52:50Z</time>
      </trkpt>
      <trkpt lat="42.8756560" lon="-7.8314930">
        <ele>615.5</ele>
        <time>2020-10-19T13:52:51Z</time>
      </trkpt>
      <trkpt lat="42.8756580" lon="-7.8315120">
        <ele>615.5</ele>
        <time>2020-10-19T13:52:52Z</time>
      </trkpt>
      <trkpt lat="42.8756610" lon="-7.8315300">
        <ele>615.5</ele>
        <time>2020-10-19T13:52:53Z</time>
      </trkpt>
      <trkpt lat="42.8756630" lon="-7.8315490">
        <ele>615.5</ele>
        <time>2020-10-19T13:52:54Z</time>
      </trkpt>
      <trkpt lat="42.8756650" lon="-7.8315690">
        <ele>615.5</ele>
        <time>2020-10-19T13:52:55Z</time>
      </trkpt>
      <trkpt lat="42.8756650" lon="-7.8315890">
        <ele>615.6</ele>
        <time>2020-10-19T13:52:56Z</time>
      </trkpt>
      <trkpt lat="42.8756660" lon="-7.8316080">
        <ele>615.6</ele>
        <time>2020-10-19T13:52:57Z</time>
      </trkpt>
      <trkpt lat="42.8756680" lon="-7.8316270">
        <ele>615.6</ele>
        <time>2020-10-19T13:52:58Z</time>
      </trkpt>
      <trkpt lat="42.8756710" lon="-7.8316450">
        <ele>615.6</ele>
        <time>2020-10-19T13:52:59Z</time>
      </trkpt>
      <trkpt lat="42.8756730" lon="-7.8316640">
        <ele>615.6</ele>
        <time>2020-10-19T13:53:00Z</time>
      </trkpt>
      <trkpt lat="42.8756760" lon="-7.8316840">
        <ele>615.6</ele>
        <time>2020-10-19T13:53:01Z</time>
      </trkpt>
      <trkpt lat="42.8756790" lon="-7.8317040">
        <ele>615.7</ele>
        <time>2020-10-19T13:53:02Z</time>
      </trkpt>
      <trkpt lat="42.8756830" lon="-7.8317250">
        <ele>615.7</ele>
        <time>2020-10-19T13:53:03Z</time>
      </trkpt>
      <trkpt lat="42.8756860" lon="-7.8317450">
        <ele>615.7</ele>
        <time>2020-10-19T13:53:04Z</time>
      </trkpt>
      <trkpt lat="42.8756890" lon="-7.8317640">
        <ele>615.7</ele>
        <time>2020-10-19T13:53:05Z</time>
      </trkpt>
      <trkpt lat="42.8756920" lon="-7.8317830">
        <ele>615.7</ele>
        <time>2020-10-19T13:53:06Z</time>
      </trkpt>
      <trkpt lat="42.8756950" lon="-7.8318020">
        <ele>615.8</ele>
        <time>2020-10-19T13:53:07Z</time>
      </trkpt>
      <trkpt lat="42.8756980" lon="-7.8318200">
        <ele>615.8</ele>
        <time>2020-10-19T13:53:08Z</time>
      </trkpt>
      <trkpt lat="42.8757010" lon="-7.8318380">
        <ele>615.8</ele>
        <time>2020-10-19T13:53:09Z</time>
      </trkpt>
      <trkpt lat="42.8757040" lon="-7.8318570">
        <ele>615.8</ele>
        <time>2020-10-19T13:53:10Z</time>
      </trkpt>
      <trkpt lat="42.8757070" lon="-7.8318750">
        <ele>615.9</ele>
        <time>2020-10-19T13:53:11Z</time>
      </trkpt>
      <trkpt lat="42.8757100" lon="-7.8318940">
        <ele>615.9</ele>
        <time>2020-10-19T13:53:12Z</time>
      </trkpt>
      <trkpt lat="42.8757120" lon="-7.8319120">
        <ele>615.9</ele>
        <time>2020-10-19T13:53:13Z</time>
      </trkpt>
      <trkpt lat="42.8757150" lon="-7.8319310">
        <ele>615.9</ele>
        <time>2020-10-19T13:53:14Z</time>
      </trkpt>
      <trkpt lat="42.8757180" lon="-7.8319500">
        <ele>615.9</ele>
        <time>2020-10-19T13:53:15Z</time>
      </trkpt>
      <trkpt lat="42.8757200" lon="-7.8319700">
        <ele>616.0</ele>
        <time>2020-10-19T13:53:16Z</time>
      </trkpt>
      <trkpt lat="42.8757220" lon="-7.8319890">
        <ele>616.0</ele>
        <time>2020-10-19T13:53:17Z</time>
      </trkpt>
      <trkpt lat="42.8757230" lon="-7.8320080">
        <ele>616.0</ele>
        <time>2020-10-19T13:53:18Z</time>
      </trkpt>
      <trkpt lat="42.8757250" lon="-7.8320280">
        <ele>616.0</ele>
        <time>2020-10-19T13:53:19Z</time>
      </trkpt>
      <trkpt lat="42.8757250" lon="-7.8320480">
        <ele>616.1</ele>
        <time>2020-10-19T13:53:20Z</time>
      </trkpt>
      <trkpt lat="42.8757270" lon="-7.8320680">
        <ele>616.1</ele>
        <time>2020-10-19T13:53:21Z</time>
      </trkpt>
      <trkpt lat="42.8757290" lon="-7.8320870">
        <ele>616.1</ele>
        <time>2020-10-19T13:53:22Z</time>
      </trkpt>
      <trkpt lat="42.8757330" lon="-7.8321080">
        <ele>616.2</ele>
        <time>2020-10-19T13:53:23Z</time>
      </trkpt>
      <trkpt lat="42.8757380" lon="-7.8321280">
        <ele>616.2</ele>
        <time>2020-10-19T13:53:24Z</time>
      </trkpt>
      <trkpt lat="42.8757420" lon="-7.8321490">
        <ele>616.2</ele>
        <time>2020-10-19T13:53:25Z</time>
      </trkpt>
      <trkpt lat="42.8757460" lon="-7.8321700">
        <ele>616.2</ele>
        <time>2020-10-19T13:53:26Z</time>
      </trkpt>
      <trkpt lat="42.8757500" lon="-7.8321900">
        <ele>616.3</ele>
        <time>2020-10-19T13:53:27Z</time>
      </trkpt>
      <trkpt lat="42.8757530" lon="-7.8322110">
        <ele>616.3</ele>
        <time>2020-10-19T13:53:28Z</time>
      </trkpt>
      <trkpt lat="42.8757570" lon="-7.8322310">
        <ele>616.3</ele>
        <time>2020-10-19T13:53:29Z</time>
      </trkpt>
      <trkpt lat="42.8757600" lon="-7.8322510">
        <ele>616.3</ele>
        <time>2020-10-19T13:53:30Z</time>
      </trkpt>
      <trkpt lat="42.8757640" lon="-7.8322710">
        <ele>616.4</ele>
        <time>2020-10-19T13:53:31Z</time>
      </trkpt>
      <trkpt lat="42.8757670" lon="-7.8322910">
        <ele>616.4</ele>
        <time>2020-10-19T13:53:32Z</time>
      </trkpt>
      <trkpt lat="42.8757710" lon="-7.8323110">
        <ele>616.4</ele>
        <time>2020-10-19T13:53:33Z</time>
      </trkpt>
      <trkpt lat="42.8757750" lon="-7.8323300">
        <ele>616.5</ele>
        <time>2020-10-19T13:53:34Z</time>
      </trkpt>
      <trkpt lat="42.8757790" lon="-7.8323490">
        <ele>616.5</ele>
        <time>2020-10-19T13:53:35Z</time>
      </trkpt>
      <trkpt lat="42.8757820" lon="-7.8323670">
        <ele>616.5</ele>
        <time>2020-10-19T13:53:36Z</time>
      </trkpt>
      <trkpt lat="42.8757870" lon="-7.8323860">
        <ele>616.5</ele>
        <time>2020-10-19T13:53:37Z</time>
      </trkpt>
      <trkpt lat="42.8757910" lon="-7.8324060">
        <ele>616.6</ele>
        <time>2020-10-19T13:53:38Z</time>
      </trkpt>
      <trkpt lat="42.8757940" lon="-7.8324250">
        <ele>616.6</ele>
        <time>2020-10-19T13:53:39Z</time>
      </trkpt>
      <trkpt lat="42.8757970" lon="-7.8324440">
        <ele>616.6</ele>
        <time>2020-10-19T13:53:40Z</time>
      </trkpt>
      <trkpt lat="42.8757990" lon="-7.8324630">
        <ele>616.6</ele>
        <time>2020-10-19T13:53:41Z</time>
      </trkpt>
      <trkpt lat="42.8758030" lon="-7.8324810">
        <ele>616.7</ele>
        <time>2020-10-19T13:53:42Z</time>
      </trkpt>
      <trkpt lat="42.8758070" lon="-7.8325000">
        <ele>616.7</ele>
        <time>2020-10-19T13:53:43Z</time>
      </trkpt>
      <trkpt lat="42.8758100" lon="-7.8325190">
        <ele>616.7</ele>
        <time>2020-10-19T13:53:44Z</time>
      </trkpt>
      <trkpt lat="42.8758130" lon="-7.8325380">
        <ele>616.7</ele>
        <time>2020-10-19T13:53:45Z</time>
      </trkpt>
      <trkpt lat="42.8758160" lon="-7.8325570">
        <ele>616.8</ele>
        <time>2020-10-19T13:53:46Z</time>
      </trkpt>
      <trkpt lat="42.8758190" lon="-7.8325760">
        <ele>616.8</ele>
        <time>2020-10-19T13:53:47Z</time>
      </trkpt>
      <trkpt lat="42.8758230" lon="-7.8325950">
        <ele>616.8</ele>
        <time>2020-10-19T13:53:48Z</time>
      </trkpt>
      <trkpt lat="42.8758260" lon="-7.8326140">
        <ele>616.8</ele>
        <time>2020-10-19T13:53:49Z</time>
      </trkpt>
      <trkpt lat="42.8758300" lon="-7.8326320">
        <ele>616.9</ele>
        <time>2020-10-19T13:53:50Z</time>
      </trkpt>
      <trkpt lat="42.8758330" lon="-7.8326510">
        <ele>616.9</ele>
        <time>2020-10-19T13:53:51Z</time>
      </trkpt>
      <trkpt lat="42.8758360" lon="-7.8326710">
        <ele>616.9</ele>
        <time>2020-10-19T13:53:52Z</time>
      </trkpt>
      <trkpt lat="42.8758380" lon="-7.8326910">
        <ele>616.9</ele>
        <time>2020-10-19T13:53:53Z</time>
      </trkpt>
      <trkpt lat="42.8758410" lon="-7.8327110">
        <ele>617.0</ele>
        <time>2020-10-19T13:53:54Z</time>
      </trkpt>
      <trkpt lat="42.8758450" lon="-7.8327320">
        <ele>617.0</ele>
        <time>2020-10-19T13:53:55Z</time>
      </trkpt>
      <trkpt lat="42.8758490" lon="-7.8327520">
        <ele>617.0</ele>
        <time>2020-10-19T13:53:56Z</time>
      </trkpt>
      <trkpt lat="42.8758520" lon="-7.8327730">
        <ele>617.1</ele>
        <time>2020-10-19T13:53:57Z</time>
      </trkpt>
      <trkpt lat="42.8758560" lon="-7.8327920">
        <ele>617.1</ele>
        <time>2020-10-19T13:53:58Z</time>
      </trkpt>
      <trkpt lat="42.8758590" lon="-7.8328110">
        <ele>617.1</ele>
        <time>2020-10-19T13:53:59Z</time>
      </trkpt>
      <trkpt lat="42.8758600" lon="-7.8328260">
        <ele>617.1</ele>
        <time>2020-10-19T13:54:00Z</time>
      </trkpt>
      <trkpt lat="42.8758620" lon="-7.8328390">
        <ele>617.2</ele>
        <time>2020-10-19T13:54:01Z</time>
      </trkpt>
      <trkpt lat="42.8758660" lon="-7.8328530">
        <ele>617.2</ele>
        <time>2020-10-19T13:54:02Z</time>
      </trkpt>
      <trkpt lat="42.8758710" lon="-7.8328700">
        <ele>617.2</ele>
        <time>2020-10-19T13:54:03Z</time>
      </trkpt>
      <trkpt lat="42.8758760" lon="-7.8328890">
        <ele>617.3</ele>
        <time>2020-10-19T13:54:04Z</time>
      </trkpt>
      <trkpt lat="42.8758790" lon="-7.8329080">
        <ele>617.3</ele>
        <time>2020-10-19T13:54:05Z</time>
      </trkpt>
      <trkpt lat="42.8758820" lon="-7.8329270">
        <ele>617.3</ele>
        <time>2020-10-19T13:54:06Z</time>
      </trkpt>
      <trkpt lat="42.8758840" lon="-7.8329440">
        <ele>617.4</ele>
        <time>2020-10-19T13:54:07Z</time>
      </trkpt>
      <trkpt lat="42.8758860" lon="-7.8329650">
        <ele>617.4</ele>
        <time>2020-10-19T13:54:08Z</time>
      </trkpt>
      <trkpt lat="42.8758880" lon="-7.8329860">
        <ele>617.4</ele>
        <time>2020-10-19T13:54:09Z</time>
      </trkpt>
      <trkpt lat="42.8758900" lon="-7.8330080">
        <ele>617.5</ele>
        <time>2020-10-19T13:54:10Z</time>
      </trkpt>
      <trkpt lat="42.8758910" lon="-7.8330290">
        <ele>617.5</ele>
        <time>2020-10-19T13:54:11Z</time>
      </trkpt>
      <trkpt lat="42.8758940" lon="-7.8330490">
        <ele>617.5</ele>
        <time>2020-10-19T13:54:12Z</time>
      </trkpt>
      <trkpt lat="42.8758960" lon="-7.8330690">
        <ele>617.6</ele>
        <time>2020-10-19T13:54:13Z</time>
      </trkpt>
      <trkpt lat="42.8758990" lon="-7.8330900">
        <ele>617.6</ele>
        <time>2020-10-19T13:54:14Z</time>
      </trkpt>
      <trkpt lat="42.8759010" lon="-7.8331100">
        <ele>617.6</ele>
        <time>2020-10-19T13:54:15Z</time>
      </trkpt>
      <trkpt lat="42.8759040" lon="-7.8331310">
        <ele>617.7</ele>
        <time>2020-10-19T13:54:16Z</time>
      </trkpt>
      <trkpt lat="42.8759060" lon="-7.8331510">
        <ele>617.7</ele>
        <time>2020-10-19T13:54:17Z</time>
      </trkpt>
      <trkpt lat="42.8759080" lon="-7.8331700">
        <ele>617.8</ele>
        <time>2020-10-19T13:54:18Z</time>
      </trkpt>
      <trkpt lat="42.8759090" lon="-7.8331900">
        <ele>617.8</ele>
        <time>2020-10-19T13:54:19Z</time>
      </trkpt>
      <trkpt lat="42.8759090" lon="-7.8332090">
        <ele>617.8</ele>
        <time>2020-10-19T13:54:20Z</time>
      </trkpt>
      <trkpt lat="42.8759110" lon="-7.8332280">
        <ele>617.9</ele>
        <time>2020-10-19T13:54:21Z</time>
      </trkpt>
      <trkpt lat="42.8759130" lon="-7.8332480">
        <ele>617.9</ele>
        <time>2020-10-19T13:54:22Z</time>
      </trkpt>
      <trkpt lat="42.8759150" lon="-7.8332670">
        <ele>617.9</ele>
        <time>2020-10-19T13:54:23Z</time>
      </trkpt>
      <trkpt lat="42.8759180" lon="-7.8332870">
        <ele>618.0</ele>
        <time>2020-10-19T13:54:24Z</time>
      </trkpt>
      <trkpt lat="42.8759210" lon="-7.8333070">
        <ele>618.0</ele>
        <time>2020-10-19T13:54:25Z</time>
      </trkpt>
      <trkpt lat="42.8759240" lon="-7.8333270">
        <ele>618.1</ele>
        <time>2020-10-19T13:54:26Z</time>
      </trkpt>
      <trkpt lat="42.8759260" lon="-7.8333460">
        <ele>618.1</ele>
        <time>2020-10-19T13:54:27Z</time>
      </trkpt>
      <trkpt lat="42.8759300" lon="-7.8333640">
        <ele>618.2</ele>
        <time>2020-10-19T13:54:28Z</time>
      </trkpt>
      <trkpt lat="42.8759350" lon="-7.8333830">
        <ele>618.2</ele>
        <time>2020-10-19T13:54:29Z</time>
      </trkpt>
      <trkpt lat="42.8759370" lon="-7.8334030">
        <ele>618.2</ele>
        <time>2020-10-19T13:54:30Z</time>
      </trkpt>
      <trkpt lat="42.8759380" lon="-7.8334240">
        <ele>618.3</ele>
        <time>2020-10-19T13:54:31Z</time>
      </trkpt>
      <trkpt lat="42.8759370" lon="-7.8334450">
        <ele>618.3</ele>
        <time>2020-10-19T13:54:32Z</time>
      </trkpt>
      <trkpt lat="42.8759380" lon="-7.8334660">
        <ele>618.4</ele>
        <time>2020-10-19T13:54:33Z</time>
      </trkpt>
      <trkpt lat="42.8759410" lon="-7.8334850">
        <ele>618.4</ele>
        <time>2020-10-19T13:54:34Z</time>
      </trkpt>
      <trkpt lat="42.8759420" lon="-7.8335050">
        <ele>618.5</ele>
        <time>2020-10-19T13:54:35Z</time>
      </trkpt>
      <trkpt lat="42.8759430" lon="-7.8335240">
        <ele>618.5</ele>
        <time>2020-10-19T13:54:36Z</time>
      </trkpt>
      <trkpt lat="42.8759430" lon="-7.8335440">
        <ele>618.6</ele>
        <time>2020-10-19T13:54:37Z</time>
      </trkpt>
      <trkpt lat="42.8759420" lon="-7.8335620">
        <ele>618.6</ele>
        <time>2020-10-19T13:54:38Z</time>
      </trkpt>
      <trkpt lat="42.8759400" lon="-7.8335770">
        <ele>618.7</ele>
        <time>2020-10-19T13:54:39Z</time>
      </trkpt>
      <trkpt lat="42.8759370" lon="-7.8335920">
        <ele>618.7</ele>
        <time>2020-10-19T13:54:40Z</time>
      </trkpt>
      <trkpt lat="42.8759350" lon="-7.8336090">
        <ele>618.7</ele>
        <time>2020-10-19T13:54:41Z</time>
      </trkpt>
      <trkpt lat="42.8759340" lon="-7.8336290">
        <ele>618.8</ele>
        <time>2020-10-19T13:54:42Z</time>
      </trkpt>
      <trkpt lat="42.8759350" lon="-7.8336480">
        <ele>618.8</ele>
        <time>2020-10-19T13:54:43Z</time>
      </trkpt>
      <trkpt lat="42.8759360" lon="-7.8336680">
        <ele>618.9</ele>
        <time>2020-10-19T13:54:44Z</time>
      </trkpt>
      <trkpt lat="42.8759370" lon="-7.8336870">
        <ele>618.9</ele>
        <time>2020-10-19T13:54:45Z</time>
      </trkpt>
      <trkpt lat="42.8759390" lon="-7.8337060">
        <ele>618.9</ele>
        <time>2020-10-19T13:54:46Z</time>
      </trkpt>
      <trkpt lat="42.8759410" lon="-7.8337250">
        <ele>619.0</ele>
        <time>2020-10-19T13:54:47Z</time>
      </trkpt>
      <trkpt lat="42.8759430" lon="-7.8337440">
        <ele>619.0</ele>
        <time>2020-10-19T13:54:48Z</time>
      </trkpt>
      <trkpt lat="42.8759450" lon="-7.8337640">
        <ele>619.0</ele>
        <time>2020-10-19T13:54:49Z</time>
      </trkpt>
      <trkpt lat="42.8759470" lon="-7.8337840">
        <ele>619.1</ele>
        <time>2020-10-19T13:54:50Z</time>
      </trkpt>
      <trkpt lat="42.8759480" lon="-7.8338050">
        <ele>619.1</ele>
        <time>2020-10-19T13:54:51Z</time>
      </trkpt>
      <trkpt lat="42.8759490" lon="-7.8338250">
        <ele>619.1</ele>
        <time>2020-10-19T13:54:52Z</time>
      </trkpt>
      <trkpt lat="42.8759510" lon="-7.8338450">
        <ele>619.1</ele>
        <time>2020-10-19T13:54:53Z</time>
      </trkpt>
      <trkpt lat="42.8759530" lon="-7.8338650">
        <ele>619.2</ele>
        <time>2020-10-19T13:54:54Z</time>
      </trkpt>
      <trkpt lat="42.8759550" lon="-7.8338850">
        <ele>619.2</ele>
        <time>2020-10-19T13:54:55Z</time>
      </trkpt>
      <trkpt lat="42.8759580" lon="-7.8339060">
        <ele>619.2</ele>
        <time>2020-10-19T13:54:56Z</time>
      </trkpt>
      <trkpt lat="42.8759600" lon="-7.8339260">
        <ele>619.2</ele>
        <time>2020-10-19T13:54:57Z</time>
      </trkpt>
      <trkpt lat="42.8759610" lon="-7.8339470">
        <ele>619.2</ele>
        <time>2020-10-19T13:54:58Z</time>
      </trkpt>
      <trkpt lat="42.8759620" lon="-7.8339690">
        <ele>619.2</ele>
        <time>2020-10-19T13:54:59Z</time>
      </trkpt>
      <trkpt lat="42.8759620" lon="-7.8339920">
        <ele>619.3</ele>
        <time>2020-10-19T13:55:00Z</time>
      </trkpt>
      <trkpt lat="42.8759620" lon="-7.8340130">
        <ele>619.3</ele>
        <time>2020-10-19T13:55:01Z</time>
      </trkpt>
      <trkpt lat="42.8759630" lon="-7.8340340">
        <ele>619.3</ele>
        <time>2020-10-19T13:55:02Z</time>
      </trkpt>
      <trkpt lat="42.8759640" lon="-7.8340550">
        <ele>619.3</ele>
        <time>2020-10-19T13:55:03Z</time>
      </trkpt>
      <trkpt lat="42.8759650" lon="-7.8340740">
        <ele>619.3</ele>
        <time>2020-10-19T13:55:04Z</time>
      </trkpt>
      <trkpt lat="42.8759660" lon="-7.8340950">
        <ele>619.3</ele>
        <time>2020-10-19T13:55:05Z</time>
      </trkpt>
      <trkpt lat="42.8759680" lon="-7.8341150">
        <ele>619.3</ele>
        <time>2020-10-19T13:55:06Z</time>
      </trkpt>
      <trkpt lat="42.8759700" lon="-7.8341350">
        <ele>619.3</ele>
        <time>2020-10-19T13:55:07Z</time>
      </trkpt>
      <trkpt lat="42.8759720" lon="-7.8341560">
        <ele>619.3</ele>
        <time>2020-10-19T13:55:08Z</time>
      </trkpt>
      <trkpt lat="42.8759730" lon="-7.8341750">
        <ele>619.3</ele>
        <time>2020-10-19T13:55:09Z</time>
      </trkpt>
      <trkpt lat="42.8759730" lon="-7.8341940">
        <ele>619.2</ele>
        <time>2020-10-19T13:55:10Z</time>
      </trkpt>
      <trkpt lat="42.8759720" lon="-7.8342120">
        <ele>619.2</ele>
        <time>2020-10-19T13:55:11Z</time>
      </trkpt>
      <trkpt lat="42.8759720" lon="-7.8342310">
        <ele>619.2</ele>
        <time>2020-10-19T13:55:12Z</time>
      </trkpt>
      <trkpt lat="42.8759720" lon="-7.8342500">
        <ele>619.2</ele>
        <time>2020-10-19T13:55:13Z</time>
      </trkpt>
      <trkpt lat="42.8759730" lon="-7.8342700">
        <ele>619.2</ele>
        <time>2020-10-19T13:55:14Z</time>
      </trkpt>
      <trkpt lat="42.8759740" lon="-7.8342890">
        <ele>619.2</ele>
        <time>2020-10-19T13:55:15Z</time>
      </trkpt>
      <trkpt lat="42.8759750" lon="-7.8343090">
        <ele>619.2</ele>
        <time>2020-10-19T13:55:16Z</time>
      </trkpt>
      <trkpt lat="42.8759760" lon="-7.8343280">
        <ele>619.2</ele>
        <time>2020-10-19T13:55:17Z</time>
      </trkpt>
      <trkpt lat="42.8759760" lon="-7.8343470">
        <ele>619.2</ele>
        <time>2020-10-19T13:55:18Z</time>
      </trkpt>
      <trkpt lat="42.8759770" lon="-7.8343670">
        <ele>619.2</ele>
        <time>2020-10-19T13:55:19Z</time>
      </trkpt>
      <trkpt lat="42.8759780" lon="-7.8343860">
        <ele>619.2</ele>
        <time>2020-10-19T13:55:20Z</time>
      </trkpt>
      <trkpt lat="42.8759790" lon="-7.8344050">
        <ele>619.2</ele>
        <time>2020-10-19T13:55:21Z</time>
      </trkpt>
      <trkpt lat="42.8759810" lon="-7.8344250">
        <ele>619.2</ele>
        <time>2020-10-19T13:55:22Z</time>
      </trkpt>
      <trkpt lat="42.8759830" lon="-7.8344440">
        <ele>619.2</ele>
        <time>2020-10-19T13:55:23Z</time>
      </trkpt>
      <trkpt lat="42.8759860" lon="-7.8344640">
        <ele>619.1</ele>
        <time>2020-10-19T13:55:24Z</time>
      </trkpt>
      <trkpt lat="42.8759880" lon="-7.8344840">
        <ele>619.1</ele>
        <time>2020-10-19T13:55:25Z</time>
      </trkpt>
      <trkpt lat="42.8759910" lon="-7.8345040">
        <ele>619.1</ele>
        <time>2020-10-19T13:55:26Z</time>
      </trkpt>
      <trkpt lat="42.8759920" lon="-7.8345240">
        <ele>619.1</ele>
        <time>2020-10-19T13:55:27Z</time>
      </trkpt>
      <trkpt lat="42.8759920" lon="-7.8345430">
        <ele>619.1</ele>
        <time>2020-10-19T13:55:28Z</time>
      </trkpt>
      <trkpt lat="42.8759940" lon="-7.8345610">
        <ele>619.1</ele>
        <time>2020-10-19T13:55:29Z</time>
      </trkpt>
      <trkpt lat="42.8759950" lon="-7.8345800">
        <ele>619.1</ele>
        <time>2020-10-19T13:55:30Z</time>
      </trkpt>
      <trkpt lat="42.8759950" lon="-7.8346000">
        <ele>619.1</ele>
        <time>2020-10-19T13:55:31Z</time>
      </trkpt>
      <trkpt lat="42.8759940" lon="-7.8346210">
        <ele>619.1</ele>
        <time>2020-10-19T13:55:32Z</time>
      </trkpt>
      <trkpt lat="42.8759930" lon="-7.8346400">
        <ele>619.1</ele>
        <time>2020-10-19T13:55:33Z</time>
      </trkpt>
      <trkpt lat="42.8759910" lon="-7.8346590">
        <ele>619.1</ele>
        <time>2020-10-19T13:55:34Z</time>
      </trkpt>
      <trkpt lat="42.8759900" lon="-7.8346790">
        <ele>619.1</ele>
        <time>2020-10-19T13:55:35Z</time>
      </trkpt>
      <trkpt lat="42.8759880" lon="-7.8346980">
        <ele>619.1</ele>
        <time>2020-10-19T13:55:36Z</time>
      </trkpt>
      <trkpt lat="42.8759870" lon="-7.8347170">
        <ele>619.0</ele>
        <time>2020-10-19T13:55:37Z</time>
      </trkpt>
      <trkpt lat="42.8759880" lon="-7.8347350">
        <ele>619.0</ele>
        <time>2020-10-19T13:55:38Z</time>
      </trkpt>
      <trkpt lat="42.8759880" lon="-7.8347550">
        <ele>619.0</ele>
        <time>2020-10-19T13:55:39Z</time>
      </trkpt>
      <trkpt lat="42.8759880" lon="-7.8347750">
        <ele>619.0</ele>
        <time>2020-10-19T13:55:40Z</time>
      </trkpt>
      <trkpt lat="42.8759870" lon="-7.8347940">
        <ele>619.0</ele>
        <time>2020-10-19T13:55:41Z</time>
      </trkpt>
      <trkpt lat="42.8759870" lon="-7.8348120">
        <ele>619.0</ele>
        <time>2020-10-19T13:55:42Z</time>
      </trkpt>
      <trkpt lat="42.8759880" lon="-7.8348290">
        <ele>619.0</ele>
        <time>2020-10-19T13:55:43Z</time>
      </trkpt>
      <trkpt lat="42.8759900" lon="-7.8348470">
        <ele>619.0</ele>
        <time>2020-10-19T13:55:44Z</time>
      </trkpt>
      <trkpt lat="42.8759910" lon="-7.8348650">
        <ele>619.0</ele>
        <time>2020-10-19T13:55:45Z</time>
      </trkpt>
      <trkpt lat="42.8759920" lon="-7.8348850">
        <ele>619.0</ele>
        <time>2020-10-19T13:55:46Z</time>
      </trkpt>
      <trkpt lat="42.8759920" lon="-7.8349060">
        <ele>619.0</ele>
        <time>2020-10-19T13:55:47Z</time>
      </trkpt>
      <trkpt lat="42.8759900" lon="-7.8349260">
        <ele>619.0</ele>
        <time>2020-10-19T13:55:48Z</time>
      </trkpt>
      <trkpt lat="42.8759850" lon="-7.8349430">
        <ele>619.0</ele>
        <time>2020-10-19T13:55:49Z</time>
      </trkpt>
      <trkpt lat="42.8759790" lon="-7.8349600">
        <ele>619.0</ele>
        <time>2020-10-19T13:55:50Z</time>
      </trkpt>
      <trkpt lat="42.8759760" lon="-7.8349770">
        <ele>619.0</ele>
        <time>2020-10-19T13:55:51Z</time>
      </trkpt>
      <trkpt lat="42.8759750" lon="-7.8349950">
        <ele>619.0</ele>
        <time>2020-10-19T13:55:52Z</time>
      </trkpt>
      <trkpt lat="42.8759750" lon="-7.8350130">
        <ele>619.0</ele>
        <time>2020-10-19T13:55:53Z</time>
      </trkpt>
      <trkpt lat="42.8759740" lon="-7.8350310">
        <ele>619.0</ele>
        <time>2020-10-19T13:55:54Z</time>
      </trkpt>
      <trkpt lat="42.8759740" lon="-7.8350470">
        <ele>619.0</ele>
        <time>2020-10-19T13:55:55Z</time>
      </trkpt>
      <trkpt lat="42.8759750" lon="-7.8350650">
        <ele>619.0</ele>
        <time>2020-10-19T13:55:56Z</time>
      </trkpt>
      <trkpt lat="42.8759770" lon="-7.8350830">
        <ele>619.0</ele>
        <time>2020-10-19T13:55:57Z</time>
      </trkpt>
      <trkpt lat="42.8759760" lon="-7.8351000">
        <ele>619.0</ele>
        <time>2020-10-19T13:55:58Z</time>
      </trkpt>
      <trkpt lat="42.8759730" lon="-7.8351140">
        <ele>619.0</ele>
        <time>2020-10-19T13:55:59Z</time>
      </trkpt>
      <trkpt lat="42.8759710" lon="-7.8351260">
        <ele>619.0</ele>
        <time>2020-10-19T13:56:00Z</time>
      </trkpt>
      <trkpt lat="42.8759710" lon="-7.8351410">
        <ele>619.0</ele>
        <time>2020-10-19T13:56:01Z</time>
      </trkpt>
      <trkpt lat="42.8759700" lon="-7.8351590">
        <ele>619.0</ele>
        <time>2020-10-19T13:56:02Z</time>
      </trkpt>
      <trkpt lat="42.8759690" lon="-7.8351790">
        <ele>619.0</ele>
        <time>2020-10-19T13:56:03Z</time>
      </trkpt>
      <trkpt lat="42.8759670" lon="-7.8351980">
        <ele>619.0</ele>
        <time>2020-10-19T13:56:04Z</time>
      </trkpt>
      <trkpt lat="42.8759660" lon="-7.8352170">
        <ele>619.0</ele>
        <time>2020-10-19T13:56:05Z</time>
      </trkpt>
      <trkpt lat="42.8759640" lon="-7.8352360">
        <ele>619.0</ele>
        <time>2020-10-19T13:56:06Z</time>
      </trkpt>
      <trkpt lat="42.8759620" lon="-7.8352550">
        <ele>619.0</ele>
        <time>2020-10-19T13:56:07Z</time>
      </trkpt>
      <trkpt lat="42.8759600" lon="-7.8352750">
        <ele>619.0</ele>
        <time>2020-10-19T13:56:08Z</time>
      </trkpt>
      <trkpt lat="42.8759590" lon="-7.8352940">
        <ele>619.0</ele>
        <time>2020-10-19T13:56:09Z</time>
      </trkpt>
      <trkpt lat="42.8759580" lon="-7.8353140">
        <ele>619.1</ele>
        <time>2020-10-19T13:56:10Z</time>
      </trkpt>
      <trkpt lat="42.8759560" lon="-7.8353340">
        <ele>619.1</ele>
        <time>2020-10-19T13:56:11Z</time>
      </trkpt>
      <trkpt lat="42.8759550" lon="-7.8353550">
        <ele>619.1</ele>
        <time>2020-10-19T13:56:12Z</time>
      </trkpt>
      <trkpt lat="42.8759540" lon="-7.8353740">
        <ele>619.1</ele>
        <time>2020-10-19T13:56:13Z</time>
      </trkpt>
      <trkpt lat="42.8759530" lon="-7.8353940">
        <ele>619.1</ele>
        <time>2020-10-19T13:56:14Z</time>
      </trkpt>
      <trkpt lat="42.8759510" lon="-7.8354130">
        <ele>619.1</ele>
        <time>2020-10-19T13:56:15Z</time>
      </trkpt>
      <trkpt lat="42.8759500" lon="-7.8354320">
        <ele>619.2</ele>
        <time>2020-10-19T13:56:16Z</time>
      </trkpt>
      <trkpt lat="42.8759480" lon="-7.8354520">
        <ele>619.2</ele>
        <time>2020-10-19T13:56:17Z</time>
      </trkpt>
      <trkpt lat="42.8759470" lon="-7.8354710">
        <ele>619.2</ele>
        <time>2020-10-19T13:56:18Z</time>
      </trkpt>
      <trkpt lat="42.8759440" lon="-7.8354880">
        <ele>619.2</ele>
        <time>2020-10-19T13:56:19Z</time>
      </trkpt>
      <trkpt lat="42.8759420" lon="-7.8355030">
        <ele>619.3</ele>
        <time>2020-10-19T13:56:20Z</time>
      </trkpt>
      <trkpt lat="42.8759390" lon="-7.8355190">
        <ele>619.3</ele>
        <time>2020-10-19T13:56:21Z</time>
      </trkpt>
      <trkpt lat="42.8759380" lon="-7.8355370">
        <ele>619.3</ele>
        <time>2020-10-19T13:56:22Z</time>
      </trkpt>
      <trkpt lat="42.8759360" lon="-7.8355560">
        <ele>619.3</ele>
        <time>2020-10-19T13:56:23Z</time>
      </trkpt>
      <trkpt lat="42.8759350" lon="-7.8355750">
        <ele>619.3</ele>
        <time>2020-10-19T13:56:24Z</time>
      </trkpt>
      <trkpt lat="42.8759360" lon="-7.8355920">
        <ele>619.4</ele>
        <time>2020-10-19T13:56:25Z</time>
      </trkpt>
      <trkpt lat="42.8759360" lon="-7.8356120">
        <ele>619.4</ele>
        <time>2020-10-19T13:56:26Z</time>
      </trkpt>
      <trkpt lat="42.8759350" lon="-7.8356310">
        <ele>619.4</ele>
        <time>2020-10-19T13:56:27Z</time>
      </trkpt>
      <trkpt lat="42.8759330" lon="-7.8356500">
        <ele>619.4</ele>
        <time>2020-10-19T13:56:28Z</time>
      </trkpt>
      <trkpt lat="42.8759310" lon="-7.8356680">
        <ele>619.5</ele>
        <time>2020-10-19T13:56:29Z</time>
      </trkpt>
      <trkpt lat="42.8759290" lon="-7.8356880">
        <ele>619.5</ele>
        <time>2020-10-19T13:56:30Z</time>
      </trkpt>
      <trkpt lat="42.8759260" lon="-7.8357070">
        <ele>619.5</ele>
        <time>2020-10-19T13:56:31Z</time>
      </trkpt>
      <trkpt lat="42.8759230" lon="-7.8357260">
        <ele>619.6</ele>
        <time>2020-10-19T13:56:32Z</time>
      </trkpt>
      <trkpt lat="42.8759200" lon="-7.8357440">
        <ele>619.6</ele>
        <time>2020-10-19T13:56:33Z</time>
      </trkpt>
      <trkpt lat="42.8759180" lon="-7.8357630">
        <ele>619.6</ele>
        <time>2020-10-19T13:56:34Z</time>
      </trkpt>
      <trkpt lat="42.8759150" lon="-7.8357830">
        <ele>619.7</ele>
        <time>2020-10-19T13:56:35Z</time>
      </trkpt>
      <trkpt lat="42.8759120" lon="-7.8358020">
        <ele>619.7</ele>
        <time>2020-10-19T13:56:36Z</time>
      </trkpt>
      <trkpt lat="42.8759090" lon="-7.8358210">
        <ele>619.7</ele>
        <time>2020-10-19T13:56:37Z</time>
      </trkpt>
      <trkpt lat="42.8759050" lon="-7.8358410">
        <ele>619.8</ele>
        <time>2020-10-19T13:56:38Z</time>
      </trkpt>
      <trkpt lat="42.8759010" lon="-7.8358600">
        <ele>619.8</ele>
        <time>2020-10-19T13:56:39Z</time>
      </trkpt>
      <trkpt lat="42.8758960" lon="-7.8358790">
        <ele>619.8</ele>
        <time>2020-10-19T13:56:40Z</time>
      </trkpt>
      <trkpt lat="42.8758910" lon="-7.8358970">
        <ele>619.9</ele>
        <time>2020-10-19T13:56:41Z</time>
      </trkpt>
      <trkpt lat="42.8758870" lon="-7.8359150">
        <ele>619.9</ele>
        <time>2020-10-19T13:56:42Z</time>
      </trkpt>
      <trkpt lat="42.8758810" lon="-7.8359330">
        <ele>620.0</ele>
        <time>2020-10-19T13:56:43Z</time>
      </trkpt>
      <trkpt lat="42.8758750" lon="-7.8359520">
        <ele>620.0</ele>
        <time>2020-10-19T13:56:44Z</time>
      </trkpt>
      <trkpt lat="42.8758690" lon="-7.8359700">
        <ele>620.0</ele>
        <time>2020-10-19T13:56:45Z</time>
      </trkpt>
      <trkpt lat="42.8758630" lon="-7.8359880">
        <ele>620.1</ele>
        <time>2020-10-19T13:56:46Z</time>
      </trkpt>
      <trkpt lat="42.8758570" lon="-7.8360060">
        <ele>620.1</ele>
        <time>2020-10-19T13:56:47Z</time>
      </trkpt>
      <trkpt lat="42.8758500" lon="-7.8360230">
        <ele>620.1</ele>
        <time>2020-10-19T13:56:48Z</time>
      </trkpt>
      <trkpt lat="42.8758430" lon="-7.8360380">
        <ele>620.2</ele>
        <time>2020-10-19T13:56:49Z</time>
      </trkpt>
      <trkpt lat="42.8758370" lon="-7.8360540">
        <ele>620.2</ele>
        <time>2020-10-19T13:56:50Z</time>
      </trkpt>
      <trkpt lat="42.8758310" lon="-7.8360700">
        <ele>620.2</ele>
        <time>2020-10-19T13:56:51Z</time>
      </trkpt>
      <trkpt lat="42.8758260" lon="-7.8360870">
        <ele>620.2</ele>
        <time>2020-10-19T13:56:52Z</time>
      </trkpt>
      <trkpt lat="42.8758220" lon="-7.8361040">
        <ele>620.2</ele>
        <time>2020-10-19T13:56:53Z</time>
      </trkpt>
      <trkpt lat="42.8758180" lon="-7.8361210">
        <ele>620.2</ele>
        <time>2020-10-19T13:56:54Z</time>
      </trkpt>
      <trkpt lat="42.8758140" lon="-7.8361380">
        <ele>620.2</ele>
        <time>2020-10-19T13:56:55Z</time>
      </trkpt>
      <trkpt lat="42.8758100" lon="-7.8361550">
        <ele>620.3</ele>
        <time>2020-10-19T13:56:56Z</time>
      </trkpt>
      <trkpt lat="42.8758070" lon="-7.8361710">
        <ele>620.3</ele>
        <time>2020-10-19T13:56:57Z</time>
      </trkpt>
      <trkpt lat="42.8758050" lon="-7.8361880">
        <ele>620.3</ele>
        <time>2020-10-19T13:56:58Z</time>
      </trkpt>
      <trkpt lat="42.8758030" lon="-7.8362050">
        <ele>620.3</ele>
        <time>2020-10-19T13:56:59Z</time>
      </trkpt>
      <trkpt lat="42.8758030" lon="-7.8362220">
        <ele>620.3</ele>
        <time>2020-10-19T13:57:00Z</time>
      </trkpt>
      <trkpt lat="42.8758050" lon="-7.8362400">
        <ele>620.4</ele>
        <time>2020-10-19T13:57:01Z</time>
      </trkpt>
      <trkpt lat="42.8758080" lon="-7.8362580">
        <ele>620.4</ele>
        <time>2020-10-19T13:57:02Z</time>
      </trkpt>
      <trkpt lat="42.8758120" lon="-7.8362770">
        <ele>620.4</ele>
        <time>2020-10-19T13:57:03Z</time>
      </trkpt>
      <trkpt lat="42.8758150" lon="-7.8362960">
        <ele>620.4</ele>
        <time>2020-10-19T13:57:04Z</time>
      </trkpt>
      <trkpt lat="42.8758130" lon="-7.8363150">
        <ele>620.5</ele>
        <time>2020-10-19T13:57:05Z</time>
      </trkpt>
      <trkpt lat="42.8758130" lon="-7.8363320">
        <ele>620.5</ele>
        <time>2020-10-19T13:57:06Z</time>
      </trkpt>
      <trkpt lat="42.8758120" lon="-7.8363480">
        <ele>620.5</ele>
        <time>2020-10-19T13:57:07Z</time>
      </trkpt>
      <trkpt lat="42.8758140" lon="-7.8363670">
        <ele>620.5</ele>
        <time>2020-10-19T13:57:08Z</time>
      </trkpt>
      <trkpt lat="42.8758160" lon="-7.8363880">
        <ele>620.6</ele>
        <time>2020-10-19T13:57:09Z</time>
      </trkpt>
      <trkpt lat="42.8758160" lon="-7.8364090">
        <ele>620.6</ele>
        <time>2020-10-19T13:57:10Z</time>
      </trkpt>
      <trkpt lat="42.8758180" lon="-7.8364300">
        <ele>620.6</ele>
        <time>2020-10-19T13:57:11Z</time>
      </trkpt>
      <trkpt lat="42.8758180" lon="-7.8364500">
        <ele>620.7</ele>
        <time>2020-10-19T13:57:12Z</time>
      </trkpt>
      <trkpt lat="42.8758190" lon="-7.8364700">
        <ele>620.7</ele>
        <time>2020-10-19T13:57:13Z</time>
      </trkpt>
      <trkpt lat="42.8758190" lon="-7.8364900">
        <ele>620.7</ele>
        <time>2020-10-19T13:57:14Z</time>
      </trkpt>
      <trkpt lat="42.8758200" lon="-7.8365090">
        <ele>620.8</ele>
        <time>2020-10-19T13:57:15Z</time>
      </trkpt>
      <trkpt lat="42.8758200" lon="-7.8365280">
        <ele>620.8</ele>
        <time>2020-10-19T13:57:16Z</time>
      </trkpt>
      <trkpt lat="42.8758200" lon="-7.8365450">
        <ele>620.8</ele>
        <time>2020-10-19T13:57:17Z</time>
      </trkpt>
      <trkpt lat="42.8758200" lon="-7.8365610">
        <ele>620.9</ele>
        <time>2020-10-19T13:57:18Z</time>
      </trkpt>
      <trkpt lat="42.8758210" lon="-7.8365770">
        <ele>620.9</ele>
        <time>2020-10-19T13:57:19Z</time>
      </trkpt>
      <trkpt lat="42.8758220" lon="-7.8365940">
        <ele>620.9</ele>
        <time>2020-10-19T13:57:20Z</time>
      </trkpt>
      <trkpt lat="42.8758210" lon="-7.8366120">
        <ele>621.0</ele>
        <time>2020-10-19T13:57:21Z</time>
      </trkpt>
      <trkpt lat="42.8758190" lon="-7.8366300">
        <ele>621.0</ele>
        <time>2020-10-19T13:57:22Z</time>
      </trkpt>
      <trkpt lat="42.8758160" lon="-7.8366490">
        <ele>621.1</ele>
        <time>2020-10-19T13:57:23Z</time>
      </trkpt>
      <trkpt lat="42.8758130" lon="-7.8366680">
        <ele>621.1</ele>
        <time>2020-10-19T13:57:24Z</time>
      </trkpt>
      <trkpt lat="42.8758100" lon="-7.8366860">
        <ele>621.1</ele>
        <time>2020-10-19T13:57:25Z</time>
      </trkpt>
      <trkpt lat="42.8758070" lon="-7.8367020">
        <ele>621.2</ele>
        <time>2020-10-19T13:57:26Z</time>
      </trkpt>
      <trkpt lat="42.8758040" lon="-7.8367180">
        <ele>621.2</ele>
        <time>2020-10-19T13:57:27Z</time>
      </trkpt>
      <trkpt lat="42.8758000" lon="-7.8367340">
        <ele>621.2</ele>
        <time>2020-10-19T13:57:28Z</time>
      </trkpt>
      <trkpt lat="42.8757950" lon="-7.8367500">
        <ele>621.3</ele>
        <time>2020-10-19T13:57:29Z</time>
      </trkpt>
      <trkpt lat="42.8757900" lon="-7.8367660">
        <ele>621.3</ele>
        <time>2020-10-19T13:57:30Z</time>
      </trkpt>
      <trkpt lat="42.8757860" lon="-7.8367830">
        <ele>621.3</ele>
        <time>2020-10-19T13:57:31Z</time>
      </trkpt>
      <trkpt lat="42.8757820" lon="-7.8368000">
        <ele>621.4</ele>
        <time>2020-10-19T13:57:32Z</time>
      </trkpt>
      <trkpt lat="42.8757780" lon="-7.8368180">
        <ele>621.4</ele>
        <time>2020-10-19T13:57:33Z</time>
      </trkpt>
      <trkpt lat="42.8757750" lon="-7.8368340">
        <ele>621.4</ele>
        <time>2020-10-19T13:57:34Z</time>
      </trkpt>
      <trkpt lat="42.8757700" lon="-7.8368520">
        <ele>621.5</ele>
        <time>2020-10-19T13:57:35Z</time>
      </trkpt>
      <trkpt lat="42.8757660" lon="-7.8368720">
        <ele>621.5</ele>
        <time>2020-10-19T13:57:36Z</time>
      </trkpt>
      <trkpt lat="42.8757640" lon="-7.8368920">
        <ele>621.5</ele>
        <time>2020-10-19T13:57:37Z</time>
      </trkpt>
      <trkpt lat="42.8757610" lon="-7.8369120">
        <ele>621.5</ele>
        <time>2020-10-19T13:57:38Z</time>
      </trkpt>
      <trkpt lat="42.8757590" lon="-7.8369320">
        <ele>621.6</ele>
        <time>2020-10-19T13:57:39Z</time>
      </trkpt>
      <trkpt lat="42.8757560" lon="-7.8369500">
        <ele>621.6</ele>
        <time>2020-10-19T13:57:40Z</time>
      </trkpt>
      <trkpt lat="42.8757540" lon="-7.8369670">
        <ele>621.6</ele>
        <time>2020-10-19T13:57:41Z</time>
      </trkpt>
      <trkpt lat="42.8757500" lon="-7.8369840">
        <ele>621.6</ele>
        <time>2020-10-19T13:57:42Z</time>
      </trkpt>
      <trkpt lat="42.8757460" lon="-7.8370000">
        <ele>621.7</ele>
        <time>2020-10-19T13:57:43Z</time>
      </trkpt>
      <trkpt lat="42.8757410" lon="-7.8370140">
        <ele>621.7</ele>
        <time>2020-10-19T13:57:44Z</time>
      </trkpt>
      <trkpt lat="42.8757370" lon="-7.8370280">
        <ele>621.7</ele>
        <time>2020-10-19T13:57:45Z</time>
      </trkpt>
      <trkpt lat="42.8757340" lon="-7.8370450">
        <ele>621.7</ele>
        <time>2020-10-19T13:57:46Z</time>
      </trkpt>
      <trkpt lat="42.8757300" lon="-7.8370650">
        <ele>621.8</ele>
        <time>2020-10-19T13:57:47Z</time>
      </trkpt>
      <trkpt lat="42.8757260" lon="-7.8370860">
        <ele>621.8</ele>
        <time>2020-10-19T13:57:48Z</time>
      </trkpt>
      <trkpt lat="42.8757220" lon="-7.8371060">
        <ele>621.8</ele>
        <time>2020-10-19T13:57:49Z</time>
      </trkpt>
      <trkpt lat="42.8757170" lon="-7.8371260">
        <ele>621.9</ele>
        <time>2020-10-19T13:57:50Z</time>
      </trkpt>
      <trkpt lat="42.8757110" lon="-7.8371450">
        <ele>621.9</ele>
        <time>2020-10-19T13:57:51Z</time>
      </trkpt>
      <trkpt lat="42.8757050" lon="-7.8371620">
        <ele>621.9</ele>
        <time>2020-10-19T13:57:52Z</time>
      </trkpt>
      <trkpt lat="42.8756990" lon="-7.8371800">
        <ele>622.0</ele>
        <time>2020-10-19T13:57:53Z</time>
      </trkpt>
      <trkpt lat="42.8756940" lon="-7.8371970">
        <ele>622.0</ele>
        <time>2020-10-19T13:57:54Z</time>
      </trkpt>
      <trkpt lat="42.8756900" lon="-7.8372140">
        <ele>622.0</ele>
        <time>2020-10-19T13:57:55Z</time>
      </trkpt>
      <trkpt lat="42.8756870" lon="-7.8372300">
        <ele>622.0</ele>
        <time>2020-10-19T13:57:56Z</time>
      </trkpt>
      <trkpt lat="42.8756840" lon="-7.8372460">
        <ele>622.1</ele>
        <time>2020-10-19T13:57:57Z</time>
      </trkpt>
      <trkpt lat="42.8756800" lon="-7.8372620">
        <ele>622.1</ele>
        <time>2020-10-19T13:57:58Z</time>
      </trkpt>
      <trkpt lat="42.8756770" lon="-7.8372800">
        <ele>622.1</ele>
        <time>2020-10-19T13:57:59Z</time>
      </trkpt>
      <trkpt lat="42.8756710" lon="-7.8372970">
        <ele>622.2</ele>
        <time>2020-10-19T13:58:00Z</time>
      </trkpt>
      <trkpt lat="42.8756650" lon="-7.8373130">
        <ele>622.2</ele>
        <time>2020-10-19T13:58:01Z</time>
      </trkpt>
      <trkpt lat="42.8756580" lon="-7.8373310">
        <ele>622.2</ele>
        <time>2020-10-19T13:58:02Z</time>
      </trkpt>
      <trkpt lat="42.8756520" lon="-7.8373510">
        <ele>622.3</ele>
        <time>2020-10-19T13:58:03Z</time>
      </trkpt>
      <trkpt lat="42.8756450" lon="-7.8373700">
        <ele>622.3</ele>
        <time>2020-10-19T13:58:04Z</time>
      </trkpt>
      <trkpt lat="42.8756370" lon="-7.8373890">
        <ele>622.4</ele>
        <time>2020-10-19T13:58:05Z</time>
      </trkpt>
      <trkpt lat="42.8756300" lon="-7.8374060">
        <ele>622.4</ele>
        <time>2020-10-19T13:58:06Z</time>
      </trkpt>
      <trkpt lat="42.8756230" lon="-7.8374240">
        <ele>622.4</ele>
        <time>2020-10-19T13:58:07Z</time>
      </trkpt>
      <trkpt lat="42.8756170" lon="-7.8374410">
        <ele>622.5</ele>
        <time>2020-10-19T13:58:08Z</time>
      </trkpt>
      <trkpt lat="42.8756120" lon="-7.8374570">
        <ele>622.5</ele>
        <time>2020-10-19T13:58:09Z</time>
      </trkpt>
      <trkpt lat="42.8756080" lon="-7.8374740">
        <ele>622.5</ele>
        <time>2020-10-19T13:58:10Z</time>
      </trkpt>
      <trkpt lat="42.8756020" lon="-7.8374910">
        <ele>622.6</ele>
        <time>2020-10-19T13:58:11Z</time>
      </trkpt>
      <trkpt lat="42.8755960" lon="-7.8375060">
        <ele>622.6</ele>
        <time>2020-10-19T13:58:12Z</time>
      </trkpt>
      <trkpt lat="42.8755880" lon="-7.8375210">
        <ele>622.6</ele>
        <time>2020-10-19T13:58:13Z</time>
      </trkpt>
      <trkpt lat="42.8755790" lon="-7.8375350">
        <ele>622.7</ele>
        <time>2020-10-19T13:58:14Z</time>
      </trkpt>
      <trkpt lat="42.8755710" lon="-7.8375510">
        <ele>622.7</ele>
        <time>2020-10-19T13:58:15Z</time>
      </trkpt>
      <trkpt lat="42.8755630" lon="-7.8375670">
        <ele>622.8</ele>
        <time>2020-10-19T13:58:16Z</time>
      </trkpt>
      <trkpt lat="42.8755550" lon="-7.8375840">
        <ele>622.8</ele>
        <time>2020-10-19T13:58:17Z</time>
      </trkpt>
      <trkpt lat="42.8755460" lon="-7.8376030">
        <ele>622.9</ele>
        <time>2020-10-19T13:58:18Z</time>
      </trkpt>
      <trkpt lat="42.8755360" lon="-7.8376250">
        <ele>622.9</ele>
        <time>2020-10-19T13:58:19Z</time>
      </trkpt>
      <trkpt lat="42.8755260" lon="-7.8376480">
        <ele>623.0</ele>
        <time>2020-10-19T13:58:20Z</time>
      </trkpt>
      <trkpt lat="42.8755180" lon="-7.8376730">
        <ele>623.0</ele>
        <time>2020-10-19T13:58:21Z</time>
      </trkpt>
      <trkpt lat="42.8755090" lon="-7.8376980">
        <ele>623.1</ele>
        <time>2020-10-19T13:58:22Z</time>
      </trkpt>
      <trkpt lat="42.8755000" lon="-7.8377260">
        <ele>623.1</ele>
        <time>2020-10-19T13:58:23Z</time>
      </trkpt>
      <trkpt lat="42.8754870" lon="-7.8377550">
        <ele>623.2</ele>
        <time>2020-10-19T13:58:24Z</time>
      </trkpt>
      <trkpt lat="42.8754710" lon="-7.8377860">
        <ele>623.3</ele>
        <time>2020-10-19T13:58:25Z</time>
      </trkpt>
      <trkpt lat="42.8754530" lon="-7.8378180">
        <ele>623.4</ele>
        <time>2020-10-19T13:58:26Z</time>
      </trkpt>
      <trkpt lat="42.8754360" lon="-7.8378490">
        <ele>623.5</ele>
        <time>2020-10-19T13:58:27Z</time>
      </trkpt>
      <trkpt lat="42.8754200" lon="-7.8378840">
        <ele>623.6</ele>
        <time>2020-10-19T13:58:28Z</time>
      </trkpt>
      <trkpt lat="42.8754050" lon="-7.8379180">
        <ele>623.7</ele>
        <time>2020-10-19T13:58:29Z</time>
      </trkpt>
      <trkpt lat="42.8753870" lon="-7.8379550">
        <ele>623.8</ele>
        <time>2020-10-19T13:58:30Z</time>
      </trkpt>
      <trkpt lat="42.8753690" lon="-7.8379900">
        <ele>624.0</ele>
        <time>2020-10-19T13:58:31Z</time>
      </trkpt>
      <trkpt lat="42.8753570" lon="-7.8380180">
        <ele>624.1</ele>
        <time>2020-10-19T13:58:32Z</time>
      </trkpt>
      <trkpt lat="42.8753490" lon="-7.8380400">
        <ele>624.2</ele>
        <time>2020-10-19T13:58:33Z</time>
      </trkpt>
      <trkpt lat="42.8753430" lon="-7.8380570">
        <ele>624.2</ele>
        <time>2020-10-19T13:58:34Z</time>
      </trkpt>
      <trkpt lat="42.8753320" lon="-7.8380730">
        <ele>624.3</ele>
        <time>2020-10-19T13:58:35Z</time>
      </trkpt>
      <trkpt lat="42.8753280" lon="-7.8380790">
        <ele>624.4</ele>
        <time>2020-10-19T13:58:36Z</time>
      </trkpt>
      <trkpt lat="42.8753270" lon="-7.8380810">
        <ele>624.4</ele>
        <time>2020-10-19T13:58:37Z</time>
      </trkpt>
      <trkpt lat="42.8753290" lon="-7.8380820">
        <ele>624.4</ele>
        <time>2020-10-19T13:58:38Z</time>
      </trkpt>
      <trkpt lat="42.8753250" lon="-7.8380890">
        <ele>624.4</ele>
        <time>2020-10-19T13:58:39Z</time>
      </trkpt>
      <trkpt lat="42.8753200" lon="-7.8380990">
        <ele>624.5</ele>
        <time>2020-10-19T13:58:40Z</time>
      </trkpt>
      <trkpt lat="42.8753140" lon="-7.8381080">
        <ele>624.5</ele>
        <time>2020-10-19T13:58:41Z</time>
      </trkpt>
      <trkpt lat="42.8753090" lon="-7.8381160">
        <ele>624.6</ele>
        <time>2020-10-19T13:58:42Z</time>
      </trkpt>
      <trkpt lat="42.8753060" lon="-7.8381210">
        <ele>624.6</ele>
        <time>2020-10-19T13:58:43Z</time>
      </trkpt>
      <trkpt lat="42.8753040" lon="-7.8381260">
        <ele>624.6</ele>
        <time>2020-10-19T13:58:44Z</time>
      </trkpt>
      <trkpt lat="42.8753020" lon="-7.8381310">
        <ele>624.6</ele>
        <time>2020-10-19T13:58:45Z</time>
      </trkpt>
      <trkpt lat="42.8752990" lon="-7.8381350">
        <ele>624.7</ele>
        <time>2020-10-19T13:58:46Z</time>
      </trkpt>
      <trkpt lat="42.8752980" lon="-7.8381380">
        <ele>624.7</ele>
        <time>2020-10-19T13:58:47Z</time>
      </trkpt>
      <trkpt lat="42.8752970" lon="-7.8381410">
        <ele>624.7</ele>
        <time>2020-10-19T13:58:48Z</time>
      </trkpt>
      <trkpt lat="42.8752960" lon="-7.8381420">
        <ele>624.7</ele>
        <time>2020-10-19T13:58:49Z</time>
      </trkpt>
      <trkpt lat="42.8752950" lon="-7.8381430">
        <ele>624.7</ele>
        <time>2020-10-19T13:58:50Z</time>
      </trkpt>
      <trkpt lat="42.8752940" lon="-7.8381440">
        <ele>624.7</ele>
        <time>2020-10-19T13:58:51Z</time>
      </trkpt>
      <trkpt lat="42.8752930" lon="-7.8381460">
        <ele>624.7</ele>
        <time>2020-10-19T13:58:52Z</time>
      </trkpt>
      <trkpt lat="42.8752910" lon="-7.8381470">
        <ele>624.7</ele>
        <time>2020-10-19T13:58:53Z</time>
      </trkpt>
      <trkpt lat="42.8752890" lon="-7.8381490">
        <ele>624.7</ele>
        <time>2020-10-19T13:58:54Z</time>
      </trkpt>
      <trkpt lat="42.8752880" lon="-7.8381510">
        <ele>624.8</ele>
        <time>2020-10-19T13:58:55Z</time>
      </trkpt>
      <trkpt lat="42.8752860" lon="-7.8381510">
        <ele>624.8</ele>
        <time>2020-10-19T13:58:56Z</time>
      </trkpt>
      <trkpt lat="42.8752850" lon="-7.8381520">
        <ele>624.8</ele>
        <time>2020-10-19T13:58:57Z</time>
      </trkpt>
      <trkpt lat="42.8752830" lon="-7.8381520">
        <ele>624.8</ele>
        <time>2020-10-19T13:58:58Z</time>
      </trkpt>
      <trkpt lat="42.8752820" lon="-7.8381530">
        <ele>624.8</ele>
        <time>2020-10-19T13:58:59Z</time>
      </trkpt>
      <trkpt lat="42.8752800" lon="-7.8381540">
        <ele>624.8</ele>
        <time>2020-10-19T13:59:00Z</time>
      </trkpt>
      <trkpt lat="42.8752790" lon="-7.8381560">
        <ele>624.8</ele>
        <time>2020-10-19T13:59:01Z</time>
      </trkpt>
      <trkpt lat="42.8752760" lon="-7.8381590">
        <ele>624.8</ele>
        <time>2020-10-19T13:59:02Z</time>
      </trkpt>
      <trkpt lat="42.8752710" lon="-7.8381660">
        <ele>624.9</ele>
        <time>2020-10-19T13:59:03Z</time>
      </trkpt>
      <trkpt lat="42.8752630" lon="-7.8381770">
        <ele>624.9</ele>
        <time>2020-10-19T13:59:04Z</time>
      </trkpt>
      <trkpt lat="42.8752530" lon="-7.8381920">
        <ele>625.0</ele>
        <time>2020-10-19T13:59:05Z</time>
      </trkpt>
      <trkpt lat="42.8752460" lon="-7.8382060">
        <ele>625.1</ele>
        <time>2020-10-19T13:59:06Z</time>
      </trkpt>
      <trkpt lat="42.8752390" lon="-7.8382220">
        <ele>625.2</ele>
        <time>2020-10-19T13:59:07Z</time>
      </trkpt>
      <trkpt lat="42.8752340" lon="-7.8382360">
        <ele>625.3</ele>
        <time>2020-10-19T13:59:08Z</time>
      </trkpt>
      <trkpt lat="42.8752280" lon="-7.8382510">
        <ele>625.3</ele>
        <time>2020-10-19T13:59:09Z</time>
      </trkpt>
      <trkpt lat="42.8752230" lon="-7.8382640">
        <ele>625.4</ele>
        <time>2020-10-19T13:59:10Z</time>
      </trkpt>
      <trkpt lat="42.8752150" lon="-7.8382780">
        <ele>625.5</ele>
        <time>2020-10-19T13:59:11Z</time>
      </trkpt>
      <trkpt lat="42.8752080" lon="-7.8382890">
        <ele>625.5</ele>
        <time>2020-10-19T13:59:12Z</time>
      </trkpt>
      <trkpt lat="42.8752010" lon="-7.8383010">
        <ele>625.6</ele>
        <time>2020-10-19T13:59:13Z</time>
      </trkpt>
      <trkpt lat="42.8751920" lon="-7.8383140">
        <ele>625.7</ele>
        <time>2020-10-19T13:59:14Z</time>
      </trkpt>
      <trkpt lat="42.8751810" lon="-7.8383300">
        <ele>625.8</ele>
        <time>2020-10-19T13:59:15Z</time>
      </trkpt>
      <trkpt lat="42.8751710" lon="-7.8383440">
        <ele>625.8</ele>
        <time>2020-10-19T13:59:16Z</time>
      </trkpt>
      <trkpt lat="42.8751620" lon="-7.8383560">
        <ele>625.9</ele>
        <time>2020-10-19T13:59:17Z</time>
      </trkpt>
      <trkpt lat="42.8751530" lon="-7.8383690">
        <ele>626.0</ele>
        <time>2020-10-19T13:59:18Z</time>
      </trkpt>
      <trkpt lat="42.8751440" lon="-7.8383830">
        <ele>626.0</ele>
        <time>2020-10-19T13:59:19Z</time>
      </trkpt>
      <trkpt lat="42.8751360" lon="-7.8383980">
        <ele>626.1</ele>
        <time>2020-10-19T13:59:20Z</time>
      </trkpt>
      <trkpt lat="42.8751260" lon="-7.8384130">
        <ele>626.2</ele>
        <time>2020-10-19T13:59:21Z</time>
      </trkpt>
      <trkpt lat="42.8751170" lon="-7.8384300">
        <ele>626.2</ele>
        <time>2020-10-19T13:59:22Z</time>
      </trkpt>
      <trkpt lat="42.8751060" lon="-7.8384470">
        <ele>626.3</ele>
        <time>2020-10-19T13:59:23Z</time>
      </trkpt>
      <trkpt lat="42.8750970" lon="-7.8384630">
        <ele>626.3</ele>
        <time>2020-10-19T13:59:24Z</time>
      </trkpt>
      <trkpt lat="42.8750880" lon="-7.8384790">
        <ele>626.4</ele>
        <time>2020-10-19T13:59:25Z</time>
      </trkpt>
      <trkpt lat="42.8750790" lon="-7.8384960">
        <ele>626.5</ele>
        <time>2020-10-19T13:59:26Z</time>
      </trkpt>
      <trkpt lat="42.8750690" lon="-7.8385140">
        <ele>626.5</ele>
        <time>2020-10-19T13:59:27Z</time>
      </trkpt>
      <trkpt lat="42.8750590" lon="-7.8385330">
        <ele>626.6</ele>
        <time>2020-10-19T13:59:28Z</time>
      </trkpt>
      <trkpt lat="42.8750490" lon="-7.8385510">
        <ele>626.6</ele>
        <time>2020-10-19T13:59:29Z</time>
      </trkpt>
      <trkpt lat="42.8750400" lon="-7.8385690">
        <ele>626.7</ele>
        <time>2020-10-19T13:59:30Z</time>
      </trkpt>
      <trkpt lat="42.8750290" lon="-7.8385870">
        <ele>626.7</ele>
        <time>2020-10-19T13:59:31Z</time>
      </trkpt>
      <trkpt lat="42.8750170" lon="-7.8386050">
        <ele>626.8</ele>
        <time>2020-10-19T13:59:32Z</time>
      </trkpt>
      <trkpt lat="42.8750050" lon="-7.8386250">
        <ele>626.8</ele>
        <time>2020-10-19T13:59:33Z</time>
      </trkpt>
      <trkpt lat="42.8749940" lon="-7.8386450">
        <ele>626.9</ele>
        <time>2020-10-19T13:59:34Z</time>
      </trkpt>
      <trkpt lat="42.8749850" lon="-7.8386620">
        <ele>626.9</ele>
        <time>2020-10-19T13:59:35Z</time>
      </trkpt>
      <trkpt lat="42.8749760" lon="-7.8386780">
        <ele>627.0</ele>
        <time>2020-10-19T13:59:36Z</time>
      </trkpt>
      <trkpt lat="42.8749670" lon="-7.8386960">
        <ele>627.0</ele>
        <time>2020-10-19T13:59:37Z</time>
      </trkpt>
      <trkpt lat="42.8749580" lon="-7.8387160">
        <ele>627.1</ele>
        <time>2020-10-19T13:59:38Z</time>
      </trkpt>
      <trkpt lat="42.8749500" lon="-7.8387370">
        <ele>627.1</ele>
        <time>2020-10-19T13:59:39Z</time>
      </trkpt>
      <trkpt lat="42.8749420" lon="-7.8387560">
        <ele>627.1</ele>
        <time>2020-10-19T13:59:40Z</time>
      </trkpt>
      <trkpt lat="42.8749330" lon="-7.8387740">
        <ele>627.2</ele>
        <time>2020-10-19T13:59:41Z</time>
      </trkpt>
      <trkpt lat="42.8749240" lon="-7.8387920">
        <ele>627.2</ele>
        <time>2020-10-19T13:59:42Z</time>
      </trkpt>
      <trkpt lat="42.8749150" lon="-7.8388080">
        <ele>627.3</ele>
        <time>2020-10-19T13:59:43Z</time>
      </trkpt>
      <trkpt lat="42.8749070" lon="-7.8388240">
        <ele>627.3</ele>
        <time>2020-10-19T13:59:44Z</time>
      </trkpt>
      <trkpt lat="42.8748990" lon="-7.8388410">
        <ele>627.3</ele>
        <time>2020-10-19T13:59:45Z</time>
      </trkpt>
      <trkpt lat="42.8748910" lon="-7.8388580">
        <ele>627.4</ele>
        <time>2020-10-19T13:59:46Z</time>
      </trkpt>
      <trkpt lat="42.8748830" lon="-7.8388750">
        <ele>627.4</ele>
        <time>2020-10-19T13:59:47Z</time>
      </trkpt>
      <trkpt lat="42.8748750" lon="-7.8388900">
        <ele>627.4</ele>
        <time>2020-10-19T13:59:48Z</time>
      </trkpt>
      <trkpt lat="42.8748670" lon="-7.8389050">
        <ele>627.5</ele>
        <time>2020-10-19T13:59:49Z</time>
      </trkpt>
      <trkpt lat="42.8748610" lon="-7.8389210">
        <ele>627.5</ele>
        <time>2020-10-19T13:59:50Z</time>
      </trkpt>
      <trkpt lat="42.8748530" lon="-7.8389370">
        <ele>627.6</ele>
        <time>2020-10-19T13:59:51Z</time>
      </trkpt>
      <trkpt lat="42.8748470" lon="-7.8389520">
        <ele>627.6</ele>
        <time>2020-10-19T13:59:52Z</time>
      </trkpt>
      <trkpt lat="42.8748400" lon="-7.8389660">
        <ele>627.6</ele>
        <time>2020-10-19T13:59:53Z</time>
      </trkpt>
      <trkpt lat="42.8748340" lon="-7.8389790">
        <ele>627.7</ele>
        <time>2020-10-19T13:59:54Z</time>
      </trkpt>
      <trkpt lat="42.8748270" lon="-7.8389940">
        <ele>627.7</ele>
        <time>2020-10-19T13:59:55Z</time>
      </trkpt>
      <trkpt lat="42.8748210" lon="-7.8390090">
        <ele>627.7</ele>
        <time>2020-10-19T13:59:56Z</time>
      </trkpt>
      <trkpt lat="42.8748150" lon="-7.8390230">
        <ele>627.8</ele>
        <time>2020-10-19T13:59:57Z</time>
      </trkpt>
      <trkpt lat="42.8748070" lon="-7.8390370">
        <ele>627.8</ele>
        <time>2020-10-19T13:59:58Z</time>
      </trkpt>
      <trkpt lat="42.8747980" lon="-7.8390500">
        <ele>627.9</ele>
        <time>2020-10-19T13:59:59Z</time>
      </trkpt>
      <trkpt lat="42.8747900" lon="-7.8390640">
        <ele>627.9</ele>
        <time>2020-10-19T14:00:00Z</time>
      </trkpt>
      <trkpt lat="42.8747820" lon="-7.8390770">
        <ele>627.9</ele>
        <time>2020-10-19T14:00:01Z</time>
      </trkpt>
      <trkpt lat="42.8747760" lon="-7.8390890">
        <ele>628.0</ele>
        <time>2020-10-19T14:00:02Z</time>
      </trkpt>
      <trkpt lat="42.8747690" lon="-7.8391020">
        <ele>628.0</ele>
        <time>2020-10-19T14:00:03Z</time>
      </trkpt>
      <trkpt lat="42.8747620" lon="-7.8391150">
        <ele>628.0</ele>
        <time>2020-10-19T14:00:04Z</time>
      </trkpt>
      <trkpt lat="42.8747540" lon="-7.8391280">
        <ele>628.1</ele>
        <time>2020-10-19T14:00:05Z</time>
      </trkpt>
      <trkpt lat="42.8747460" lon="-7.8391410">
        <ele>628.1</ele>
        <time>2020-10-19T14:00:06Z</time>
      </trkpt>
      <trkpt lat="42.8747370" lon="-7.8391530">
        <ele>628.1</ele>
        <time>2020-10-19T14:00:07Z</time>
      </trkpt>
      <trkpt lat="42.8747290" lon="-7.8391660">
        <ele>628.2</ele>
        <time>2020-10-19T14:00:08Z</time>
      </trkpt>
      <trkpt lat="42.8747200" lon="-7.8391800">
        <ele>628.2</ele>
        <time>2020-10-19T14:00:09Z</time>
      </trkpt>
      <trkpt lat="42.8747110" lon="-7.8391980">
        <ele>628.3</ele>
        <time>2020-10-19T14:00:10Z</time>
      </trkpt>
      <trkpt lat="42.8747000" lon="-7.8392170">
        <ele>628.3</ele>
        <time>2020-10-19T14:00:11Z</time>
      </trkpt>
      <trkpt lat="42.8746890" lon="-7.8392350">
        <ele>628.4</ele>
        <time>2020-10-19T14:00:12Z</time>
      </trkpt>
      <trkpt lat="42.8746760" lon="-7.8392540">
        <ele>628.4</ele>
        <time>2020-10-19T14:00:13Z</time>
      </trkpt>
      <trkpt lat="42.8746630" lon="-7.8392730">
        <ele>628.5</ele>
        <time>2020-10-19T14:00:14Z</time>
      </trkpt>
      <trkpt lat="42.8746510" lon="-7.8392900">
        <ele>628.5</ele>
        <time>2020-10-19T14:00:15Z</time>
      </trkpt>
      <trkpt lat="42.8746420" lon="-7.8393040">
        <ele>628.6</ele>
        <time>2020-10-19T14:00:16Z</time>
      </trkpt>
      <trkpt lat="42.8746330" lon="-7.8393180">
        <ele>628.6</ele>
        <time>2020-10-19T14:00:17Z</time>
      </trkpt>
      <trkpt lat="42.8746240" lon="-7.8393320">
        <ele>628.6</ele>
        <time>2020-10-19T14:00:18Z</time>
      </trkpt>
      <trkpt lat="42.8746150" lon="-7.8393450">
        <ele>628.7</ele>
        <time>2020-10-19T14:00:19Z</time>
      </trkpt>
      <trkpt lat="42.8746070" lon="-7.8393580">
        <ele>628.7</ele>
        <time>2020-10-19T14:00:20Z</time>
      </trkpt>
      <trkpt lat="42.8746000" lon="-7.8393700">
        <ele>628.7</ele>
        <time>2020-10-19T14:00:21Z</time>
      </trkpt>
      <trkpt lat="42.8745930" lon="-7.8393820">
        <ele>628.8</ele>
        <time>2020-10-19T14:00:22Z</time>
      </trkpt>
      <trkpt lat="42.8745850" lon="-7.8393940">
        <ele>628.8</ele>
        <time>2020-10-19T14:00:23Z</time>
      </trkpt>
      <trkpt lat="42.8745780" lon="-7.8394080">
        <ele>628.8</ele>
        <time>2020-10-19T14:00:24Z</time>
      </trkpt>
      <trkpt lat="42.8745720" lon="-7.8394240">
        <ele>628.8</ele>
        <time>2020-10-19T14:00:25Z</time>
      </trkpt>
      <trkpt lat="42.8745650" lon="-7.8394380">
        <ele>628.9</ele>
        <time>2020-10-19T14:00:26Z</time>
      </trkpt>
      <trkpt lat="42.8745590" lon="-7.8394530">
        <ele>628.9</ele>
        <time>2020-10-19T14:00:27Z</time>
      </trkpt>
      <trkpt lat="42.8745510" lon="-7.8394670">
        <ele>628.9</ele>
        <time>2020-10-19T14:00:28Z</time>
      </trkpt>
      <trkpt lat="42.8745450" lon="-7.8394810">
        <ele>628.9</ele>
        <time>2020-10-19T14:00:29Z</time>
      </trkpt>
      <trkpt lat="42.8745390" lon="-7.8394960">
        <ele>629.0</ele>
        <time>2020-10-19T14:00:30Z</time>
      </trkpt>
      <trkpt lat="42.8745310" lon="-7.8395120">
        <ele>629.0</ele>
        <time>2020-10-19T14:00:31Z</time>
      </trkpt>
      <trkpt lat="42.8745210" lon="-7.8395290">
        <ele>629.0</ele>
        <time>2020-10-19T14:00:32Z</time>
      </trkpt>
      <trkpt lat="42.8745130" lon="-7.8395470">
        <ele>629.0</ele>
        <time>2020-10-19T14:00:33Z</time>
      </trkpt>
      <trkpt lat="42.8745070" lon="-7.8395650">
        <ele>629.0</ele>
        <time>2020-10-19T14:00:34Z</time>
      </trkpt>
      <trkpt lat="42.8745020" lon="-7.8395820">
        <ele>629.0</ele>
        <time>2020-10-19T14:00:35Z</time>
      </trkpt>
      <trkpt lat="42.8744970" lon="-7.8396010">
        <ele>629.0</ele>
        <time>2020-10-19T14:00:36Z</time>
      </trkpt>
      <trkpt lat="42.8744930" lon="-7.8396200">
        <ele>629.1</ele>
        <time>2020-10-19T14:00:37Z</time>
      </trkpt>
      <trkpt lat="42.8744890" lon="-7.8396410">
        <ele>629.1</ele>
        <time>2020-10-19T14:00:38Z</time>
      </trkpt>
      <trkpt lat="42.8744880" lon="-7.8396600">
        <ele>629.1</ele>
        <time>2020-10-19T14:00:39Z</time>
      </trkpt>
      <trkpt lat="42.8744870" lon="-7.8396800">
        <ele>629.1</ele>
        <time>2020-10-19T14:00:40Z</time>
      </trkpt>
      <trkpt lat="42.8744850" lon="-7.8397010">
        <ele>629.1</ele>
        <time>2020-10-19T14:00:41Z</time>
      </trkpt>
      <trkpt lat="42.8744810" lon="-7.8397230">
        <ele>629.2</ele>
        <time>2020-10-19T14:00:42Z</time>
      </trkpt>
      <trkpt lat="42.8744780" lon="-7.8397440">
        <ele>629.2</ele>
        <time>2020-10-19T14:00:43Z</time>
      </trkpt>
      <trkpt lat="42.8744770" lon="-7.8397630">
        <ele>629.2</ele>
        <time>2020-10-19T14:00:44Z</time>
      </trkpt>
      <trkpt lat="42.8744760" lon="-7.8397810">
        <ele>629.2</ele>
        <time>2020-10-19T14:00:45Z</time>
      </trkpt>
      <trkpt lat="42.8744750" lon="-7.8398000">
        <ele>629.2</ele>
        <time>2020-10-19T14:00:46Z</time>
      </trkpt>
      <trkpt lat="42.8744740" lon="-7.8398190">
        <ele>629.2</ele>
        <time>2020-10-19T14:00:47Z</time>
      </trkpt>
      <trkpt lat="42.8744740" lon="-7.8398390">
        <ele>629.2</ele>
        <time>2020-10-19T14:00:48Z</time>
      </trkpt>
      <trkpt lat="42.8744750" lon="-7.8398590">
        <ele>629.2</ele>
        <time>2020-10-19T14:00:49Z</time>
      </trkpt>
      <trkpt lat="42.8744760" lon="-7.8398780">
        <ele>629.2</ele>
        <time>2020-10-19T14:00:50Z</time>
      </trkpt>
      <trkpt lat="42.8744770" lon="-7.8398980">
        <ele>629.1</ele>
        <time>2020-10-19T14:00:51Z</time>
      </trkpt>
      <trkpt lat="42.8744780" lon="-7.8399190">
        <ele>629.1</ele>
        <time>2020-10-19T14:00:52Z</time>
      </trkpt>
      <trkpt lat="42.8744780" lon="-7.8399390">
        <ele>629.1</ele>
        <time>2020-10-19T14:00:53Z</time>
      </trkpt>
      <trkpt lat="42.8744790" lon="-7.8399580">
        <ele>629.1</ele>
        <time>2020-10-19T14:00:54Z</time>
      </trkpt>
      <trkpt lat="42.8744800" lon="-7.8399760">
        <ele>629.1</ele>
        <time>2020-10-19T14:00:55Z</time>
      </trkpt>
      <trkpt lat="42.8744790" lon="-7.8399930">
        <ele>629.1</ele>
        <time>2020-10-19T14:00:56Z</time>
      </trkpt>
      <trkpt lat="42.8744770" lon="-7.8400090">
        <ele>629.1</ele>
        <time>2020-10-19T14:00:57Z</time>
      </trkpt>
      <trkpt lat="42.8744750" lon="-7.8400240">
        <ele>629.1</ele>
        <time>2020-10-19T14:00:58Z</time>
      </trkpt>
      <trkpt lat="42.8744750" lon="-7.8400400">
        <ele>629.1</ele>
        <time>2020-10-19T14:00:59Z</time>
      </trkpt>
      <trkpt lat="42.8744770" lon="-7.8400560">
        <ele>629.1</ele>
        <time>2020-10-19T14:01:00Z</time>
      </trkpt>
      <trkpt lat="42.8744780" lon="-7.8400710">
        <ele>629.0</ele>
        <time>2020-10-19T14:01:01Z</time>
      </trkpt>
      <trkpt lat="42.8744770" lon="-7.8400870">
        <ele>629.0</ele>
        <time>2020-10-19T14:01:02Z</time>
      </trkpt>
      <trkpt lat="42.8744740" lon="-7.8401010">
        <ele>629.0</ele>
        <time>2020-10-19T14:01:03Z</time>
      </trkpt>
      <trkpt lat="42.8744700" lon="-7.8401190">
        <ele>629.0</ele>
        <time>2020-10-19T14:01:04Z</time>
      </trkpt>
      <trkpt lat="42.8744670" lon="-7.8401390">
        <ele>629.0</ele>
        <time>2020-10-19T14:01:05Z</time>
      </trkpt>
      <trkpt lat="42.8744650" lon="-7.8401600">
        <ele>629.0</ele>
        <time>2020-10-19T14:01:06Z</time>
      </trkpt>
      <trkpt lat="42.8744630" lon="-7.8401780">
        <ele>629.0</ele>
        <time>2020-10-19T14:01:07Z</time>
      </trkpt>
      <trkpt lat="42.8744640" lon="-7.8401950">
        <ele>629.0</ele>
        <time>2020-10-19T14:01:08Z</time>
      </trkpt>
      <trkpt lat="42.8744660" lon="-7.8402100">
        <ele>629.0</ele>
        <time>2020-10-19T14:01:09Z</time>
      </trkpt>
      <trkpt lat="42.8744700" lon="-7.8402270">
        <ele>629.0</ele>
        <time>2020-10-19T14:01:10Z</time>
      </trkpt>
      <trkpt lat="42.8744740" lon="-7.8402450">
        <ele>629.0</ele>
        <time>2020-10-19T14:01:11Z</time>
      </trkpt>
      <trkpt lat="42.8744790" lon="-7.8402640">
        <ele>628.9</ele>
        <time>2020-10-19T14:01:12Z</time>
      </trkpt>
      <trkpt lat="42.8744800" lon="-7.8402830">
        <ele>628.9</ele>
        <time>2020-10-19T14:01:13Z</time>
      </trkpt>
      <trkpt lat="42.8744810" lon="-7.8403010">
        <ele>628.9</ele>
        <time>2020-10-19T14:01:14Z</time>
      </trkpt>
      <trkpt lat="42.8744820" lon="-7.8403200">
        <ele>628.9</ele>
        <time>2020-10-19T14:01:15Z</time>
      </trkpt>
      <trkpt lat="42.8744830" lon="-7.8403410">
        <ele>628.9</ele>
        <time>2020-10-19T14:01:16Z</time>
      </trkpt>
      <trkpt lat="42.8744830" lon="-7.8403620">
        <ele>628.9</ele>
        <time>2020-10-19T14:01:17Z</time>
      </trkpt>
      <trkpt lat="42.8744820" lon="-7.8403820">
        <ele>628.9</ele>
        <time>2020-10-19T14:01:18Z</time>
      </trkpt>
      <trkpt lat="42.8744800" lon="-7.8404010">
        <ele>628.9</ele>
        <time>2020-10-19T14:01:19Z</time>
      </trkpt>
      <trkpt lat="42.8744780" lon="-7.8404200">
        <ele>628.9</ele>
        <time>2020-10-19T14:01:20Z</time>
      </trkpt>
      <trkpt lat="42.8744780" lon="-7.8404410">
        <ele>628.9</ele>
        <time>2020-10-19T14:01:21Z</time>
      </trkpt>
      <trkpt lat="42.8744760" lon="-7.8404630">
        <ele>628.9</ele>
        <time>2020-10-19T14:01:22Z</time>
      </trkpt>
      <trkpt lat="42.8744720" lon="-7.8404850">
        <ele>628.9</ele>
        <time>2020-10-19T14:01:23Z</time>
      </trkpt>
      <trkpt lat="42.8744690" lon="-7.8405040">
        <ele>628.9</ele>
        <time>2020-10-19T14:01:24Z</time>
      </trkpt>
      <trkpt lat="42.8744660" lon="-7.8405250">
        <ele>628.9</ele>
        <time>2020-10-19T14:01:25Z</time>
      </trkpt>
      <trkpt lat="42.8744640" lon="-7.8405460">
        <ele>628.9</ele>
        <time>2020-10-19T14:01:26Z</time>
      </trkpt>
      <trkpt lat="42.8744600" lon="-7.8405690">
        <ele>628.9</ele>
        <time>2020-10-19T14:01:27Z</time>
      </trkpt>
      <trkpt lat="42.8744570" lon="-7.8405880">
        <ele>628.9</ele>
        <time>2020-10-19T14:01:28Z</time>
      </trkpt>
      <trkpt lat="42.8744540" lon="-7.8406080">
        <ele>628.9</ele>
        <time>2020-10-19T14:01:29Z</time>
      </trkpt>
      <trkpt lat="42.8744510" lon="-7.8406260">
        <ele>628.9</ele>
        <time>2020-10-19T14:01:30Z</time>
      </trkpt>
      <trkpt lat="42.8744500" lon="-7.8406440">
        <ele>628.9</ele>
        <time>2020-10-19T14:01:31Z</time>
      </trkpt>
      <trkpt lat="42.8744480" lon="-7.8406580">
        <ele>628.9</ele>
        <time>2020-10-19T14:01:32Z</time>
      </trkpt>
      <trkpt lat="42.8744490" lon="-7.8406720">
        <ele>628.9</ele>
        <time>2020-10-19T14:01:33Z</time>
      </trkpt>
      <trkpt lat="42.8744510" lon="-7.8406870">
        <ele>628.9</ele>
        <time>2020-10-19T14:01:34Z</time>
      </trkpt>
      <trkpt lat="42.8744510" lon="-7.8407040">
        <ele>628.9</ele>
        <time>2020-10-19T14:01:35Z</time>
      </trkpt>
      <trkpt lat="42.8744500" lon="-7.8407240">
        <ele>628.9</ele>
        <time>2020-10-19T14:01:36Z</time>
      </trkpt>
      <trkpt lat="42.8744510" lon="-7.8407440">
        <ele>628.9</ele>
        <time>2020-10-19T14:01:37Z</time>
      </trkpt>
      <trkpt lat="42.8744510" lon="-7.8407650">
        <ele>628.9</ele>
        <time>2020-10-19T14:01:38Z</time>
      </trkpt>
      <trkpt lat="42.8744500" lon="-7.8407840">
        <ele>628.9</ele>
        <time>2020-10-19T14:01:39Z</time>
      </trkpt>
      <trkpt lat="42.8744480" lon="-7.8408030">
        <ele>628.9</ele>
        <time>2020-10-19T14:01:40Z</time>
      </trkpt>
      <trkpt lat="42.8744450" lon="-7.8408230">
        <ele>628.9</ele>
        <time>2020-10-19T14:01:41Z</time>
      </trkpt>
      <trkpt lat="42.8744430" lon="-7.8408440">
        <ele>628.9</ele>
        <time>2020-10-19T14:01:42Z</time>
      </trkpt>
      <trkpt lat="42.8744420" lon="-7.8408640">
        <ele>628.9</ele>
        <time>2020-10-19T14:01:43Z</time>
      </trkpt>
      <trkpt lat="42.8744410" lon="-7.8408850">
        <ele>628.9</ele>
        <time>2020-10-19T14:01:44Z</time>
      </trkpt>
      <trkpt lat="42.8744400" lon="-7.8409040">
        <ele>628.9</ele>
        <time>2020-10-19T14:01:45Z</time>
      </trkpt>
      <trkpt lat="42.8744380" lon="-7.8409230">
        <ele>628.8</ele>
        <time>2020-10-19T14:01:46Z</time>
      </trkpt>
      <trkpt lat="42.8744370" lon="-7.8409430">
        <ele>628.8</ele>
        <time>2020-10-19T14:01:47Z</time>
      </trkpt>
      <trkpt lat="42.8744350" lon="-7.8409620">
        <ele>628.8</ele>
        <time>2020-10-19T14:01:48Z</time>
      </trkpt>
      <trkpt lat="42.8744300" lon="-7.8409820">
        <ele>628.8</ele>
        <time>2020-10-19T14:01:49Z</time>
      </trkpt>
      <trkpt lat="42.8744240" lon="-7.8410010">
        <ele>628.8</ele>
        <time>2020-10-19T14:01:50Z</time>
      </trkpt>
      <trkpt lat="42.8744170" lon="-7.8410200">
        <ele>628.8</ele>
        <time>2020-10-19T14:01:51Z</time>
      </trkpt>
      <trkpt lat="42.8744130" lon="-7.8410380">
        <ele>628.8</ele>
        <time>2020-10-19T14:01:52Z</time>
      </trkpt>
      <trkpt lat="42.8744110" lon="-7.8410570">
        <ele>628.8</ele>
        <time>2020-10-19T14:01:53Z</time>
      </trkpt>
      <trkpt lat="42.8744110" lon="-7.8410770">
        <ele>628.8</ele>
        <time>2020-10-19T14:01:54Z</time>
      </trkpt>
      <trkpt lat="42.8744110" lon="-7.8410970">
        <ele>628.8</ele>
        <time>2020-10-19T14:01:55Z</time>
      </trkpt>
      <trkpt lat="42.8744090" lon="-7.8411150">
        <ele>628.8</ele>
        <time>2020-10-19T14:01:56Z</time>
      </trkpt>
      <trkpt lat="42.8744080" lon="-7.8411330">
        <ele>628.8</ele>
        <time>2020-10-19T14:01:57Z</time>
      </trkpt>
      <trkpt lat="42.8744070" lon="-7.8411500">
        <ele>628.8</ele>
        <time>2020-10-19T14:01:58Z</time>
      </trkpt>
      <trkpt lat="42.8744070" lon="-7.8411680">
        <ele>628.8</ele>
        <time>2020-10-19T14:01:59Z</time>
      </trkpt>
      <trkpt lat="42.8744080" lon="-7.8411860">
        <ele>628.8</ele>
        <time>2020-10-19T14:02:00Z</time>
      </trkpt>
      <trkpt lat="42.8744100" lon="-7.8412020">
        <ele>628.8</ele>
        <time>2020-10-19T14:02:01Z</time>
      </trkpt>
      <trkpt lat="42.8744100" lon="-7.8412190">
        <ele>628.8</ele>
        <time>2020-10-19T14:02:02Z</time>
      </trkpt>
      <trkpt lat="42.8744100" lon="-7.8412370">
        <ele>628.8</ele>
        <time>2020-10-19T14:02:03Z</time>
      </trkpt>
      <trkpt lat="42.8744090" lon="-7.8412540">
        <ele>628.8</ele>
        <time>2020-10-19T14:02:04Z</time>
      </trkpt>
      <trkpt lat="42.8744090" lon="-7.8412680">
        <ele>628.8</ele>
        <time>2020-10-19T14:02:05Z</time>
      </trkpt>
      <trkpt lat="42.8744080" lon="-7.8412810">
        <ele>628.8</ele>
        <time>2020-10-19T14:02:06Z</time>
      </trkpt>
      <trkpt lat="42.8744070" lon="-7.8412950">
        <ele>628.8</ele>
        <time>2020-10-19T14:02:07Z</time>
      </trkpt>
      <trkpt lat="42.8744070" lon="-7.8413120">
        <ele>628.8</ele>
        <time>2020-10-19T14:02:08Z</time>
      </trkpt>
      <trkpt lat="42.8744070" lon="-7.8413320">
        <ele>628.8</ele>
        <time>2020-10-19T14:02:09Z</time>
      </trkpt>
      <trkpt lat="42.8744090" lon="-7.8413550">
        <ele>628.8</ele>
        <time>2020-10-19T14:02:10Z</time>
      </trkpt>
      <trkpt lat="42.8744110" lon="-7.8413770">
        <ele>628.8</ele>
        <time>2020-10-19T14:02:11Z</time>
      </trkpt>
      <trkpt lat="42.8744130" lon="-7.8413980">
        <ele>628.8</ele>
        <time>2020-10-19T14:02:12Z</time>
      </trkpt>
      <trkpt lat="42.8744130" lon="-7.8414170">
        <ele>628.8</ele>
        <time>2020-10-19T14:02:13Z</time>
      </trkpt>
      <trkpt lat="42.8744130" lon="-7.8414350">
        <ele>628.8</ele>
        <time>2020-10-19T14:02:14Z</time>
      </trkpt>
      <trkpt lat="42.8744130" lon="-7.8414510">
        <ele>628.8</ele>
        <time>2020-10-19T14:02:15Z</time>
      </trkpt>
      <trkpt lat="42.8744140" lon="-7.8414660">
        <ele>628.8</ele>
        <time>2020-10-19T14:02:16Z</time>
      </trkpt>
      <trkpt lat="42.8744140" lon="-7.8414800">
        <ele>628.8</ele>
        <time>2020-10-19T14:02:17Z</time>
      </trkpt>
      <trkpt lat="42.8744140" lon="-7.8414940">
        <ele>628.8</ele>
        <time>2020-10-19T14:02:18Z</time>
      </trkpt>
      <trkpt lat="42.8744130" lon="-7.8415100">
        <ele>628.8</ele>
        <time>2020-10-19T14:02:19Z</time>
      </trkpt>
      <trkpt lat="42.8744120" lon="-7.8415280">
        <ele>628.8</ele>
        <time>2020-10-19T14:02:20Z</time>
      </trkpt>
      <trkpt lat="42.8744110" lon="-7.8415460">
        <ele>628.8</ele>
        <time>2020-10-19T14:02:21Z</time>
      </trkpt>
      <trkpt lat="42.8744070" lon="-7.8415660">
        <ele>628.8</ele>
        <time>2020-10-19T14:02:22Z</time>
      </trkpt>
      <trkpt lat="42.8744040" lon="-7.8415840">
        <ele>628.8</ele>
        <time>2020-10-19T14:02:23Z</time>
      </trkpt>
      <trkpt lat="42.8744010" lon="-7.8416020">
        <ele>628.8</ele>
        <time>2020-10-19T14:02:24Z</time>
      </trkpt>
      <trkpt lat="42.8743950" lon="-7.8416270">
        <ele>628.8</ele>
        <time>2020-10-19T14:02:25Z</time>
      </trkpt>
      <trkpt lat="42.8743850" lon="-7.8416580">
        <ele>628.8</ele>
        <time>2020-10-19T14:02:26Z</time>
      </trkpt>
      <trkpt lat="42.8743760" lon="-7.8416910">
        <ele>628.8</ele>
        <time>2020-10-19T14:02:27Z</time>
      </trkpt>
      <trkpt lat="42.8743690" lon="-7.8417200">
        <ele>628.8</ele>
        <time>2020-10-19T14:02:28Z</time>
      </trkpt>
      <trkpt lat="42.8743650" lon="-7.8417410">
        <ele>628.8</ele>
        <time>2020-10-19T14:02:29Z</time>
      </trkpt>
      <trkpt lat="42.8743610" lon="-7.8417620">
        <ele>628.8</ele>
        <time>2020-10-19T14:02:30Z</time>
      </trkpt>
      <trkpt lat="42.8743580" lon="-7.8417830">
        <ele>628.8</ele>
        <time>2020-10-19T14:02:31Z</time>
      </trkpt>
      <trkpt lat="42.8743550" lon="-7.8418040">
        <ele>628.8</ele>
        <time>2020-10-19T14:02:32Z</time>
      </trkpt>
      <trkpt lat="42.8743520" lon="-7.8418240">
        <ele>628.8</ele>
        <time>2020-10-19T14:02:33Z</time>
      </trkpt>
      <trkpt lat="42.8743480" lon="-7.8418440">
        <ele>628.8</ele>
        <time>2020-10-19T14:02:34Z</time>
      </trkpt>
      <trkpt lat="42.8743420" lon="-7.8418660">
        <ele>628.9</ele>
        <time>2020-10-19T14:02:35Z</time>
      </trkpt>
      <trkpt lat="42.8743340" lon="-7.8418890">
        <ele>628.9</ele>
        <time>2020-10-19T14:02:36Z</time>
      </trkpt>
      <trkpt lat="42.8743270" lon="-7.8419120">
        <ele>628.9</ele>
        <time>2020-10-19T14:02:37Z</time>
      </trkpt>
      <trkpt lat="42.8743210" lon="-7.8419350">
        <ele>628.9</ele>
        <time>2020-10-19T14:02:38Z</time>
      </trkpt>
      <trkpt lat="42.8743180" lon="-7.8419570">
        <ele>628.9</ele>
        <time>2020-10-19T14:02:39Z</time>
      </trkpt>
      <trkpt lat="42.8743140" lon="-7.8419800">
        <ele>629.0</ele>
        <time>2020-10-19T14:02:40Z</time>
      </trkpt>
      <trkpt lat="42.8743130" lon="-7.8420010">
        <ele>629.0</ele>
        <time>2020-10-19T14:02:41Z</time>
      </trkpt>
      <trkpt lat="42.8743110" lon="-7.8420230">
        <ele>629.0</ele>
        <time>2020-10-19T14:02:42Z</time>
      </trkpt>
      <trkpt lat="42.8743090" lon="-7.8420440">
        <ele>629.1</ele>
        <time>2020-10-19T14:02:43Z</time>
      </trkpt>
      <trkpt lat="42.8743040" lon="-7.8420660">
        <ele>629.1</ele>
        <time>2020-10-19T14:02:44Z</time>
      </trkpt>
      <trkpt lat="42.8742990" lon="-7.8420900">
        <ele>629.1</ele>
        <time>2020-10-19T14:02:45Z</time>
      </trkpt>
      <trkpt lat="42.8742960" lon="-7.8421170">
        <ele>629.2</ele>
        <time>2020-10-19T14:02:46Z</time>
      </trkpt>
      <trkpt lat="42.8742920" lon="-7.8421470">
        <ele>629.2</ele>
        <time>2020-10-19T14:02:47Z</time>
      </trkpt>
      <trkpt lat="42.8742920" lon="-7.8421780">
        <ele>629.3</ele>
        <time>2020-10-19T14:02:48Z</time>
      </trkpt>
      <trkpt lat="42.8742900" lon="-7.8422130">
        <ele>629.4</ele>
        <time>2020-10-19T14:02:49Z</time>
      </trkpt>
      <trkpt lat="42.8742910" lon="-7.8422510">
        <ele>629.5</ele>
        <time>2020-10-19T14:02:50Z</time>
      </trkpt>
      <trkpt lat="42.8742910" lon="-7.8422910">
        <ele>629.6</ele>
        <time>2020-10-19T14:02:51Z</time>
      </trkpt>
      <trkpt lat="42.8742920" lon="-7.8423300">
        <ele>629.7</ele>
        <time>2020-10-19T14:02:52Z</time>
      </trkpt>
      <trkpt lat="42.8742920" lon="-7.8423680">
        <ele>629.8</ele>
        <time>2020-10-19T14:02:53Z</time>
      </trkpt>
      <trkpt lat="42.8742950" lon="-7.8424080">
        <ele>629.9</ele>
        <time>2020-10-19T14:02:54Z</time>
      </trkpt>
      <trkpt lat="42.8742980" lon="-7.8424460">
        <ele>630.0</ele>
        <time>2020-10-19T14:02:55Z</time>
      </trkpt>
      <trkpt lat="42.8743000" lon="-7.8424810">
        <ele>630.0</ele>
        <time>2020-10-19T14:02:56Z</time>
      </trkpt>
      <trkpt lat="42.8743000" lon="-7.8425050">
        <ele>630.1</ele>
        <time>2020-10-19T14:02:57Z</time>
      </trkpt>
      <trkpt lat="42.8743010" lon="-7.8425230">
        <ele>630.1</ele>
        <time>2020-10-19T14:02:58Z</time>
      </trkpt>
      <trkpt lat="42.8743030" lon="-7.8425400">
        <ele>630.2</ele>
        <time>2020-10-19T14:02:59Z</time>
      </trkpt>
      <trkpt lat="42.8743050" lon="-7.8425600">
        <ele>630.2</ele>
        <time>2020-10-19T14:03:00Z</time>
      </trkpt>
      <trkpt lat="42.8743070" lon="-7.8425810">
        <ele>630.3</ele>
        <time>2020-10-19T14:03:01Z</time>
      </trkpt>
      <trkpt lat="42.8743100" lon="-7.8426010">
        <ele>630.3</ele>
        <time>2020-10-19T14:03:02Z</time>
      </trkpt>
      <trkpt lat="42.8743120" lon="-7.8426210">
        <ele>630.4</ele>
        <time>2020-10-19T14:03:03Z</time>
      </trkpt>
      <trkpt lat="42.8743160" lon="-7.8426390">
        <ele>630.4</ele>
        <time>2020-10-19T14:03:04Z</time>
      </trkpt>
      <trkpt lat="42.8743190" lon="-7.8426580">
        <ele>630.5</ele>
        <time>2020-10-19T14:03:05Z</time>
      </trkpt>
      <trkpt lat="42.8743240" lon="-7.8426750">
        <ele>630.5</ele>
        <time>2020-10-19T14:03:06Z</time>
      </trkpt>
      <trkpt lat="42.8743280" lon="-7.8426910">
        <ele>630.6</ele>
        <time>2020-10-19T14:03:07Z</time>
      </trkpt>
      <trkpt lat="42.8743330" lon="-7.8427030">
        <ele>630.6</ele>
        <time>2020-10-19T14:03:08Z</time>
      </trkpt>
      <trkpt lat="42.8743360" lon="-7.8427120">
        <ele>630.6</ele>
        <time>2020-10-19T14:03:09Z</time>
      </trkpt>
      <trkpt lat="42.8743380" lon="-7.8427190">
        <ele>630.7</ele>
        <time>2020-10-19T14:03:10Z</time>
      </trkpt>
      <trkpt lat="42.8743390" lon="-7.8427280">
        <ele>630.7</ele>
        <time>2020-10-19T14:03:11Z</time>
      </trkpt>
      <trkpt lat="42.8743420" lon="-7.8427390">
        <ele>630.7</ele>
        <time>2020-10-19T14:03:12Z</time>
      </trkpt>
      <trkpt lat="42.8743450" lon="-7.8427510">
        <ele>630.8</ele>
        <time>2020-10-19T14:03:13Z</time>
      </trkpt>
      <trkpt lat="42.8743500" lon="-7.8427660">
        <ele>630.8</ele>
        <time>2020-10-19T14:03:14Z</time>
      </trkpt>
      <trkpt lat="42.8743540" lon="-7.8427830">
        <ele>630.9</ele>
        <time>2020-10-19T14:03:15Z</time>
      </trkpt>
      <trkpt lat="42.8743570" lon="-7.8428010">
        <ele>631.0</ele>
        <time>2020-10-19T14:03:16Z</time>
      </trkpt>
      <trkpt lat="42.8743580" lon="-7.8428160">
        <ele>631.0</ele>
        <time>2020-10-19T14:03:17Z</time>
      </trkpt>
      <trkpt lat="42.8743570" lon="-7.8428310">
        <ele>631.1</ele>
        <time>2020-10-19T14:03:18Z</time>
      </trkpt>
      <trkpt lat="42.8743570" lon="-7.8428500">
        <ele>631.1</ele>
        <time>2020-10-19T14:03:19Z</time>
      </trkpt>
      <trkpt lat="42.8743550" lon="-7.8428640">
        <ele>631.2</ele>
        <time>2020-10-19T14:03:20Z</time>
      </trkpt>
      <trkpt lat="42.8743520" lon="-7.8428750">
        <ele>631.2</ele>
        <time>2020-10-19T14:03:21Z</time>
      </trkpt>
      <trkpt lat="42.8743490" lon="-7.8428810">
        <ele>631.2</ele>
        <time>2020-10-19T14:03:22Z</time>
      </trkpt>
      <trkpt lat="42.8743480" lon="-7.8428840">
        <ele>631.2</ele>
        <time>2020-10-19T14:03:23Z</time>
      </trkpt>
      <trkpt lat="42.8743480" lon="-7.8428870">
        <ele>631.3</ele>
        <time>2020-10-19T14:03:24Z</time>
      </trkpt>
      <trkpt lat="42.8743490" lon="-7.8428900">
        <ele>631.3</ele>
        <time>2020-10-19T14:03:25Z</time>
      </trkpt>
      <trkpt lat="42.8743490" lon="-7.8428970">
        <ele>631.3</ele>
        <time>2020-10-19T14:03:26Z</time>
      </trkpt>
      <trkpt lat="42.8743500" lon="-7.8429090">
        <ele>631.3</ele>
        <time>2020-10-19T14:03:27Z</time>
      </trkpt>
      <trkpt lat="42.8743520" lon="-7.8429240">
        <ele>631.4</ele>
        <time>2020-10-19T14:03:28Z</time>
      </trkpt>
      <trkpt lat="42.8743530" lon="-7.8429440">
        <ele>631.4</ele>
        <time>2020-10-19T14:03:29Z</time>
      </trkpt>
      <trkpt lat="42.8743550" lon="-7.8429640">
        <ele>631.5</ele>
        <time>2020-10-19T14:03:30Z</time>
      </trkpt>
      <trkpt lat="42.8743560" lon="-7.8429870">
        <ele>631.6</ele>
        <time>2020-10-19T14:03:31Z</time>
      </trkpt>
      <trkpt lat="42.8743540" lon="-7.8430060">
        <ele>631.6</ele>
        <time>2020-10-19T14:03:32Z</time>
      </trkpt>
      <trkpt lat="42.8743540" lon="-7.8430240">
        <ele>631.7</ele>
        <time>2020-10-19T14:03:33Z</time>
      </trkpt>
      <trkpt lat="42.8743560" lon="-7.8430360">
        <ele>631.7</ele>
        <time>2020-10-19T14:03:34Z</time>
      </trkpt>
      <trkpt lat="42.8743590" lon="-7.8430450">
        <ele>631.8</ele>
        <time>2020-10-19T14:03:35Z</time>
      </trkpt>
      <trkpt lat="42.8743620" lon="-7.8430490">
        <ele>631.8</ele>
        <time>2020-10-19T14:03:36Z</time>
      </trkpt>
      <trkpt lat="42.8743630" lon="-7.8430550">
        <ele>631.8</ele>
        <time>2020-10-19T14:03:37Z</time>
      </trkpt>
      <trkpt lat="42.8743660" lon="-7.8430620">
        <ele>631.8</ele>
        <time>2020-10-19T14:03:38Z</time>
      </trkpt>
      <trkpt lat="42.8743680" lon="-7.8430710">
        <ele>631.8</ele>
        <time>2020-10-19T14:03:39Z</time>
      </trkpt>
      <trkpt lat="42.8743700" lon="-7.8430840">
        <ele>631.9</ele>
        <time>2020-10-19T14:03:40Z</time>
      </trkpt>
      <trkpt lat="42.8743740" lon="-7.8431020">
        <ele>631.9</ele>
        <time>2020-10-19T14:03:41Z</time>
      </trkpt>
      <trkpt lat="42.8743800" lon="-7.8431210">
        <ele>632.0</ele>
        <time>2020-10-19T14:03:42Z</time>
      </trkpt>
      <trkpt lat="42.8743850" lon="-7.8431410">
        <ele>632.0</ele>
        <time>2020-10-19T14:03:43Z</time>
      </trkpt>
      <trkpt lat="42.8743890" lon="-7.8431580">
        <ele>632.1</ele>
        <time>2020-10-19T14:03:44Z</time>
      </trkpt>
      <trkpt lat="42.8743890" lon="-7.8431720">
        <ele>632.1</ele>
        <time>2020-10-19T14:03:45Z</time>
      </trkpt>
      <trkpt lat="42.8743880" lon="-7.8431830">
        <ele>632.1</ele>
        <time>2020-10-19T14:03:46Z</time>
      </trkpt>
      <trkpt lat="42.8743830" lon="-7.8431870">
        <ele>632.2</ele>
        <time>2020-10-19T14:03:47Z</time>
      </trkpt>
      <trkpt lat="42.8743770" lon="-7.8431880">
        <ele>632.2</ele>
        <time>2020-10-19T14:03:48Z</time>
      </trkpt>
      <trkpt lat="42.8743710" lon="-7.8431880">
        <ele>632.2</ele>
        <time>2020-10-19T14:03:49Z</time>
      </trkpt>
      <trkpt lat="42.8743670" lon="-7.8431900">
        <ele>632.2</ele>
        <time>2020-10-19T14:03:50Z</time>
      </trkpt>
      <trkpt lat="42.8743640" lon="-7.8431910">
        <ele>632.2</ele>
        <time>2020-10-19T14:03:51Z</time>
      </trkpt>
      <trkpt lat="42.8743620" lon="-7.8431900">
        <ele>632.2</ele>
        <time>2020-10-19T14:03:52Z</time>
      </trkpt>
      <trkpt lat="42.8743600" lon="-7.8431900">
        <ele>632.3</ele>
        <time>2020-10-19T14:03:53Z</time>
      </trkpt>
      <trkpt lat="42.8743600" lon="-7.8431900">
        <ele>632.3</ele>
        <time>2020-10-19T14:03:54Z</time>
      </trkpt>
      <trkpt lat="42.8743590" lon="-7.8431920">
        <ele>632.3</ele>
        <time>2020-10-19T14:03:55Z</time>
      </trkpt>
      <trkpt lat="42.8743590" lon="-7.8431930">
        <ele>632.3</ele>
        <time>2020-10-19T14:03:56Z</time>
      </trkpt>
      <trkpt lat="42.8743600" lon="-7.8431950">
        <ele>632.3</ele>
        <time>2020-10-19T14:03:57Z</time>
      </trkpt>
      <trkpt lat="42.8743600" lon="-7.8431970">
        <ele>632.3</ele>
        <time>2020-10-19T14:03:58Z</time>
      </trkpt>
      <trkpt lat="42.8743600" lon="-7.8432000">
        <ele>632.3</ele>
        <time>2020-10-19T14:03:59Z</time>
      </trkpt>
      <trkpt lat="42.8743610" lon="-7.8432080">
        <ele>632.3</ele>
        <time>2020-10-19T14:04:00Z</time>
      </trkpt>
      <trkpt lat="42.8743640" lon="-7.8432220">
        <ele>632.3</ele>
        <time>2020-10-19T14:04:01Z</time>
      </trkpt>
      <trkpt lat="42.8743670" lon="-7.8432410">
        <ele>632.4</ele>
        <time>2020-10-19T14:04:02Z</time>
      </trkpt>
      <trkpt lat="42.8743680" lon="-7.8432620">
        <ele>632.4</ele>
        <time>2020-10-19T14:04:03Z</time>
      </trkpt>
      <trkpt lat="42.8743670" lon="-7.8432830">
        <ele>632.5</ele>
        <time>2020-10-19T14:04:04Z</time>
      </trkpt>
      <trkpt lat="42.8743660" lon="-7.8433040">
        <ele>632.6</ele>
        <time>2020-10-19T14:04:05Z</time>
      </trkpt>
      <trkpt lat="42.8743660" lon="-7.8433220">
        <ele>632.6</ele>
        <time>2020-10-19T14:04:06Z</time>
      </trkpt>
      <trkpt lat="42.8743650" lon="-7.8433370">
        <ele>632.7</ele>
        <time>2020-10-19T14:04:07Z</time>
      </trkpt>
      <trkpt lat="42.8743650" lon="-7.8433530">
        <ele>632.7</ele>
        <time>2020-10-19T14:04:08Z</time>
      </trkpt>
      <trkpt lat="42.8743670" lon="-7.8433690">
        <ele>632.8</ele>
        <time>2020-10-19T14:04:09Z</time>
      </trkpt>
      <trkpt lat="42.8743690" lon="-7.8433870">
        <ele>632.8</ele>
        <time>2020-10-19T14:04:10Z</time>
      </trkpt>
      <trkpt lat="42.8743710" lon="-7.8434060">
        <ele>632.9</ele>
        <time>2020-10-19T14:04:11Z</time>
      </trkpt>
      <trkpt lat="42.8743740" lon="-7.8434260">
        <ele>633.0</ele>
        <time>2020-10-19T14:04:12Z</time>
      </trkpt>
      <trkpt lat="42.8743780" lon="-7.8434450">
        <ele>633.1</ele>
        <time>2020-10-19T14:04:13Z</time>
      </trkpt>
      <trkpt lat="42.8743810" lon="-7.8434630">
        <ele>633.1</ele>
        <time>2020-10-19T14:04:14Z</time>
      </trkpt>
      <trkpt lat="42.8743820" lon="-7.8434820">
        <ele>633.2</ele>
        <time>2020-10-19T14:04:15Z</time>
      </trkpt>
      <trkpt lat="42.8743810" lon="-7.8435010">
        <ele>633.3</ele>
        <time>2020-10-19T14:04:16Z</time>
      </trkpt>
      <trkpt lat="42.8743770" lon="-7.8435210">
        <ele>633.4</ele>
        <time>2020-10-19T14:04:17Z</time>
      </trkpt>
      <trkpt lat="42.8743750" lon="-7.8435380">
        <ele>633.5</ele>
        <time>2020-10-19T14:04:18Z</time>
      </trkpt>
      <trkpt lat="42.8743750" lon="-7.8435570">
        <ele>633.6</ele>
        <time>2020-10-19T14:04:19Z</time>
      </trkpt>
      <trkpt lat="42.8743760" lon="-7.8435770">
        <ele>633.7</ele>
        <time>2020-10-19T14:04:20Z</time>
      </trkpt>
      <trkpt lat="42.8743780" lon="-7.8435970">
        <ele>633.7</ele>
        <time>2020-10-19T14:04:21Z</time>
      </trkpt>
      <trkpt lat="42.8743770" lon="-7.8436170">
        <ele>633.8</ele>
        <time>2020-10-19T14:04:22Z</time>
      </trkpt>
      <trkpt lat="42.8743780" lon="-7.8436360">
        <ele>633.9</ele>
        <time>2020-10-19T14:04:23Z</time>
      </trkpt>
      <trkpt lat="42.8743790" lon="-7.8436540">
        <ele>634.0</ele>
        <time>2020-10-19T14:04:24Z</time>
      </trkpt>
      <trkpt lat="42.8743810" lon="-7.8436710">
        <ele>634.1</ele>
        <time>2020-10-19T14:04:25Z</time>
      </trkpt>
      <trkpt lat="42.8743840" lon="-7.8436870">
        <ele>634.2</ele>
        <time>2020-10-19T14:04:26Z</time>
      </trkpt>
      <trkpt lat="42.8743890" lon="-7.8437060">
        <ele>634.2</ele>
        <time>2020-10-19T14:04:27Z</time>
      </trkpt>
      <trkpt lat="42.8743920" lon="-7.8437230">
        <ele>634.3</ele>
        <time>2020-10-19T14:04:28Z</time>
      </trkpt>
      <trkpt lat="42.8743920" lon="-7.8437430">
        <ele>634.4</ele>
        <time>2020-10-19T14:04:29Z</time>
      </trkpt>
      <trkpt lat="42.8743910" lon="-7.8437620">
        <ele>634.5</ele>
        <time>2020-10-19T14:04:30Z</time>
      </trkpt>
      <trkpt lat="42.8743910" lon="-7.8437810">
        <ele>634.5</ele>
        <time>2020-10-19T14:04:31Z</time>
      </trkpt>
      <trkpt lat="42.8743910" lon="-7.8437980">
        <ele>634.6</ele>
        <time>2020-10-19T14:04:32Z</time>
      </trkpt>
      <trkpt lat="42.8743900" lon="-7.8438170">
        <ele>634.7</ele>
        <time>2020-10-19T14:04:33Z</time>
      </trkpt>
      <trkpt lat="42.8743890" lon="-7.8438380">
        <ele>634.7</ele>
        <time>2020-10-19T14:04:34Z</time>
      </trkpt>
      <trkpt lat="42.8743900" lon="-7.8438600">
        <ele>634.8</ele>
        <time>2020-10-19T14:04:35Z</time>
      </trkpt>
      <trkpt lat="42.8743920" lon="-7.8438820">
        <ele>634.9</ele>
        <time>2020-10-19T14:04:36Z</time>
      </trkpt>
      <trkpt lat="42.8743930" lon="-7.8439040">
        <ele>634.9</ele>
        <time>2020-10-19T14:04:37Z</time>
      </trkpt>
      <trkpt lat="42.8743900" lon="-7.8439270">
        <ele>635.0</ele>
        <time>2020-10-19T14:04:38Z</time>
      </trkpt>
      <trkpt lat="42.8743890" lon="-7.8439500">
        <ele>635.0</ele>
        <time>2020-10-19T14:04:39Z</time>
      </trkpt>
      <trkpt lat="42.8743890" lon="-7.8439710">
        <ele>635.0</ele>
        <time>2020-10-19T14:04:40Z</time>
      </trkpt>
      <trkpt lat="42.8743910" lon="-7.8439920">
        <ele>635.1</ele>
        <time>2020-10-19T14:04:41Z</time>
      </trkpt>
      <trkpt lat="42.8743920" lon="-7.8440110">
        <ele>635.1</ele>
        <time>2020-10-19T14:04:42Z</time>
      </trkpt>
      <trkpt lat="42.8743940" lon="-7.8440290">
        <ele>635.1</ele>
        <time>2020-10-19T14:04:43Z</time>
      </trkpt>
      <trkpt lat="42.8743980" lon="-7.8440490">
        <ele>635.1</ele>
        <time>2020-10-19T14:04:44Z</time>
      </trkpt>
      <trkpt lat="42.8744030" lon="-7.8440690">
        <ele>635.2</ele>
        <time>2020-10-19T14:04:45Z</time>
      </trkpt>
      <trkpt lat="42.8744080" lon="-7.8440900">
        <ele>635.2</ele>
        <time>2020-10-19T14:04:46Z</time>
      </trkpt>
      <trkpt lat="42.8744130" lon="-7.8441100">
        <ele>635.2</ele>
        <time>2020-10-19T14:04:47Z</time>
      </trkpt>
      <trkpt lat="42.8744190" lon="-7.8441280">
        <ele>635.2</ele>
        <time>2020-10-19T14:04:48Z</time>
      </trkpt>
      <trkpt lat="42.8744260" lon="-7.8441470">
        <ele>635.2</ele>
        <time>2020-10-19T14:04:49Z</time>
      </trkpt>
      <trkpt lat="42.8744300" lon="-7.8441640">
        <ele>635.2</ele>
        <time>2020-10-19T14:04:50Z</time>
      </trkpt>
      <trkpt lat="42.8744330" lon="-7.8441820">
        <ele>635.2</ele>
        <time>2020-10-19T14:04:51Z</time>
      </trkpt>
      <trkpt lat="42.8744330" lon="-7.8442000">
        <ele>635.2</ele>
        <time>2020-10-19T14:04:52Z</time>
      </trkpt>
      <trkpt lat="42.8744340" lon="-7.8442190">
        <ele>635.2</ele>
        <time>2020-10-19T14:04:53Z</time>
      </trkpt>
      <trkpt lat="42.8744320" lon="-7.8442420">
        <ele>635.3</ele>
        <time>2020-10-19T14:04:54Z</time>
      </trkpt>
      <trkpt lat="42.8744270" lon="-7.8442690">
        <ele>635.3</ele>
        <time>2020-10-19T14:04:55Z</time>
      </trkpt>
      <trkpt lat="42.8744210" lon="-7.8442960">
        <ele>635.3</ele>
        <time>2020-10-19T14:04:56Z</time>
      </trkpt>
      <trkpt lat="42.8744180" lon="-7.8443210">
        <ele>635.3</ele>
        <time>2020-10-19T14:04:57Z</time>
      </trkpt>
      <trkpt lat="42.8744190" lon="-7.8443410">
        <ele>635.3</ele>
        <time>2020-10-19T14:04:58Z</time>
      </trkpt>
      <trkpt lat="42.8744180" lon="-7.8443610">
        <ele>635.3</ele>
        <time>2020-10-19T14:04:59Z</time>
      </trkpt>
      <trkpt lat="42.8744170" lon="-7.8443810">
        <ele>635.3</ele>
        <time>2020-10-19T14:05:00Z</time>
      </trkpt>
      <trkpt lat="42.8744160" lon="-7.8444020">
        <ele>635.3</ele>
        <time>2020-10-19T14:05:01Z</time>
      </trkpt>
      <trkpt lat="42.8744160" lon="-7.8444230">
        <ele>635.3</ele>
        <time>2020-10-19T14:05:02Z</time>
      </trkpt>
      <trkpt lat="42.8744180" lon="-7.8444400">
        <ele>635.3</ele>
        <time>2020-10-19T14:05:03Z</time>
      </trkpt>
      <trkpt lat="42.8744200" lon="-7.8444570">
        <ele>635.3</ele>
        <time>2020-10-19T14:05:04Z</time>
      </trkpt>
      <trkpt lat="42.8744230" lon="-7.8444730">
        <ele>635.3</ele>
        <time>2020-10-19T14:05:05Z</time>
      </trkpt>
      <trkpt lat="42.8744240" lon="-7.8444900">
        <ele>635.3</ele>
        <time>2020-10-19T14:05:06Z</time>
      </trkpt>
      <trkpt lat="42.8744230" lon="-7.8445060">
        <ele>635.3</ele>
        <time>2020-10-19T14:05:07Z</time>
      </trkpt>
      <trkpt lat="42.8744220" lon="-7.8445250">
        <ele>635.3</ele>
        <time>2020-10-19T14:05:08Z</time>
      </trkpt>
      <trkpt lat="42.8744230" lon="-7.8445410">
        <ele>635.3</ele>
        <time>2020-10-19T14:05:09Z</time>
      </trkpt>
      <trkpt lat="42.8744230" lon="-7.8445570">
        <ele>635.2</ele>
        <time>2020-10-19T14:05:10Z</time>
      </trkpt>
      <trkpt lat="42.8744210" lon="-7.8445710">
        <ele>635.2</ele>
        <time>2020-10-19T14:05:11Z</time>
      </trkpt>
      <trkpt lat="42.8744170" lon="-7.8445860">
        <ele>635.2</ele>
        <time>2020-10-19T14:05:12Z</time>
      </trkpt>
      <trkpt lat="42.8744120" lon="-7.8446060">
        <ele>635.2</ele>
        <time>2020-10-19T14:05:13Z</time>
      </trkpt>
      <trkpt lat="42.8744110" lon="-7.8446240">
        <ele>635.2</ele>
        <time>2020-10-19T14:05:14Z</time>
      </trkpt>
      <trkpt lat="42.8744110" lon="-7.8446450">
        <ele>635.2</ele>
        <time>2020-10-19T14:05:15Z</time>
      </trkpt>
      <trkpt lat="42.8744130" lon="-7.8446600">
        <ele>635.2</ele>
        <time>2020-10-19T14:05:16Z</time>
      </trkpt>
      <trkpt lat="42.8744130" lon="-7.8446760">
        <ele>635.2</ele>
        <time>2020-10-19T14:05:17Z</time>
      </trkpt>
      <trkpt lat="42.8744140" lon="-7.8446930">
        <ele>635.2</ele>
        <time>2020-10-19T14:05:18Z</time>
      </trkpt>
      <trkpt lat="42.8744120" lon="-7.8447110">
        <ele>635.2</ele>
        <time>2020-10-19T14:05:19Z</time>
      </trkpt>
      <trkpt lat="42.8744090" lon="-7.8447300">
        <ele>635.2</ele>
        <time>2020-10-19T14:05:20Z</time>
      </trkpt>
      <trkpt lat="42.8744060" lon="-7.8447460">
        <ele>635.2</ele>
        <time>2020-10-19T14:05:21Z</time>
      </trkpt>
      <trkpt lat="42.8744080" lon="-7.8447610">
        <ele>635.2</ele>
        <time>2020-10-19T14:05:22Z</time>
      </trkpt>
      <trkpt lat="42.8744090" lon="-7.8447760">
        <ele>635.1</ele>
        <time>2020-10-19T14:05:23Z</time>
      </trkpt>
      <trkpt lat="42.8744070" lon="-7.8447930">
        <ele>635.1</ele>
        <time>2020-10-19T14:05:24Z</time>
      </trkpt>
      <trkpt lat="42.8744010" lon="-7.8448130">
        <ele>635.1</ele>
        <time>2020-10-19T14:05:25Z</time>
      </trkpt>
      <trkpt lat="42.8743970" lon="-7.8448340">
        <ele>635.1</ele>
        <time>2020-10-19T14:05:26Z</time>
      </trkpt>
      <trkpt lat="42.8743960" lon="-7.8448550">
        <ele>635.1</ele>
        <time>2020-10-19T14:05:27Z</time>
      </trkpt>
      <trkpt lat="42.8743920" lon="-7.8448750">
        <ele>635.1</ele>
        <time>2020-10-19T14:05:28Z</time>
      </trkpt>
      <trkpt lat="42.8743900" lon="-7.8448940">
        <ele>635.1</ele>
        <time>2020-10-19T14:05:29Z</time>
      </trkpt>
      <trkpt lat="42.8743860" lon="-7.8449110">
        <ele>635.1</ele>
        <time>2020-10-19T14:05:30Z</time>
      </trkpt>
      <trkpt lat="42.8743850" lon="-7.8449270">
        <ele>635.1</ele>
        <time>2020-10-19T14:05:31Z</time>
      </trkpt>
      <trkpt lat="42.8743800" lon="-7.8449480">
        <ele>635.0</ele>
        <time>2020-10-19T14:05:32Z</time>
      </trkpt>
      <trkpt lat="42.8743750" lon="-7.8449690">
        <ele>635.0</ele>
        <time>2020-10-19T14:05:33Z</time>
      </trkpt>
      <trkpt lat="42.8743730" lon="-7.8449900">
        <ele>635.0</ele>
        <time>2020-10-19T14:05:34Z</time>
      </trkpt>
      <trkpt lat="42.8743750" lon="-7.8450060">
        <ele>635.0</ele>
        <time>2020-10-19T14:05:35Z</time>
      </trkpt>
      <trkpt lat="42.8743770" lon="-7.8450240">
        <ele>635.0</ele>
        <time>2020-10-19T14:05:36Z</time>
      </trkpt>
      <trkpt lat="42.8743780" lon="-7.8450450">
        <ele>635.0</ele>
        <time>2020-10-19T14:05:37Z</time>
      </trkpt>
      <trkpt lat="42.8743770" lon="-7.8450680">
        <ele>635.0</ele>
        <time>2020-10-19T14:05:38Z</time>
      </trkpt>
      <trkpt lat="42.8743770" lon="-7.8450870">
        <ele>635.0</ele>
        <time>2020-10-19T14:05:39Z</time>
      </trkpt>
      <trkpt lat="42.8743770" lon="-7.8451010">
        <ele>635.0</ele>
        <time>2020-10-19T14:05:40Z</time>
      </trkpt>
      <trkpt lat="42.8743770" lon="-7.8451120">
        <ele>635.0</ele>
        <time>2020-10-19T14:05:41Z</time>
      </trkpt>
      <trkpt lat="42.8743760" lon="-7.8451250">
        <ele>635.0</ele>
        <time>2020-10-19T14:05:42Z</time>
      </trkpt>
      <trkpt lat="42.8743750" lon="-7.8451400">
        <ele>635.0</ele>
        <time>2020-10-19T14:05:43Z</time>
      </trkpt>
      <trkpt lat="42.8743760" lon="-7.8451590">
        <ele>635.0</ele>
        <time>2020-10-19T14:05:44Z</time>
      </trkpt>
      <trkpt lat="42.8743790" lon="-7.8451790">
        <ele>635.0</ele>
        <time>2020-10-19T14:05:45Z</time>
      </trkpt>
      <trkpt lat="42.8743820" lon="-7.8452010">
        <ele>634.9</ele>
        <time>2020-10-19T14:05:46Z</time>
      </trkpt>
      <trkpt lat="42.8743800" lon="-7.8452220">
        <ele>634.9</ele>
        <time>2020-10-19T14:05:47Z</time>
      </trkpt>
      <trkpt lat="42.8743800" lon="-7.8452410">
        <ele>634.9</ele>
        <time>2020-10-19T14:05:48Z</time>
      </trkpt>
      <trkpt lat="42.8743800" lon="-7.8452590">
        <ele>634.9</ele>
        <time>2020-10-19T14:05:49Z</time>
      </trkpt>
      <trkpt lat="42.8743830" lon="-7.8452740">
        <ele>634.9</ele>
        <time>2020-10-19T14:05:50Z</time>
      </trkpt>
      <trkpt lat="42.8743850" lon="-7.8452900">
        <ele>634.9</ele>
        <time>2020-10-19T14:05:51Z</time>
      </trkpt>
      <trkpt lat="42.8743860" lon="-7.8453060">
        <ele>634.9</ele>
        <time>2020-10-19T14:05:52Z</time>
      </trkpt>
      <trkpt lat="42.8743840" lon="-7.8453230">
        <ele>634.9</ele>
        <time>2020-10-19T14:05:53Z</time>
      </trkpt>
      <trkpt lat="42.8743810" lon="-7.8453400">
        <ele>634.9</ele>
        <time>2020-10-19T14:05:54Z</time>
      </trkpt>
      <trkpt lat="42.8743780" lon="-7.8453580">
        <ele>634.9</ele>
        <time>2020-10-19T14:05:55Z</time>
      </trkpt>
      <trkpt lat="42.8743800" lon="-7.8453770">
        <ele>634.8</ele>
        <time>2020-10-19T14:05:56Z</time>
      </trkpt>
      <trkpt lat="42.8743850" lon="-7.8453990">
        <ele>634.8</ele>
        <time>2020-10-19T14:05:57Z</time>
      </trkpt>
      <trkpt lat="42.8743910" lon="-7.8454200">
        <ele>634.8</ele>
        <time>2020-10-19T14:05:58Z</time>
      </trkpt>
      <trkpt lat="42.8743970" lon="-7.8454400">
        <ele>634.8</ele>
        <time>2020-10-19T14:05:59Z</time>
      </trkpt>
      <trkpt lat="42.8744010" lon="-7.8454590">
        <ele>634.8</ele>
        <time>2020-10-19T14:06:00Z</time>
      </trkpt>
      <trkpt lat="42.8744030" lon="-7.8454790">
        <ele>634.7</ele>
        <time>2020-10-19T14:06:01Z</time>
      </trkpt>
      <trkpt lat="42.8744030" lon="-7.8455030">
        <ele>634.7</ele>
        <time>2020-10-19T14:06:02Z</time>
      </trkpt>
      <trkpt lat="42.8744010" lon="-7.8455260">
        <ele>634.7</ele>
        <time>2020-10-19T14:06:03Z</time>
      </trkpt>
      <trkpt lat="42.8743970" lon="-7.8455510">
        <ele>634.7</ele>
        <time>2020-10-19T14:06:04Z</time>
      </trkpt>
      <trkpt lat="42.8743930" lon="-7.8455710">
        <ele>634.6</ele>
        <time>2020-10-19T14:06:05Z</time>
      </trkpt>
      <trkpt lat="42.8743900" lon="-7.8455940">
        <ele>634.6</ele>
        <time>2020-10-19T14:06:06Z</time>
      </trkpt>
      <trkpt lat="42.8743900" lon="-7.8456140">
        <ele>634.6</ele>
        <time>2020-10-19T14:06:07Z</time>
      </trkpt>
      <trkpt lat="42.8743900" lon="-7.8456370">
        <ele>634.6</ele>
        <time>2020-10-19T14:06:08Z</time>
      </trkpt>
      <trkpt lat="42.8743890" lon="-7.8456550">
        <ele>634.6</ele>
        <time>2020-10-19T14:06:09Z</time>
      </trkpt>
      <trkpt lat="42.8743870" lon="-7.8456750">
        <ele>634.5</ele>
        <time>2020-10-19T14:06:10Z</time>
      </trkpt>
      <trkpt lat="42.8743850" lon="-7.8456950">
        <ele>634.5</ele>
        <time>2020-10-19T14:06:11Z</time>
      </trkpt>
      <trkpt lat="42.8743810" lon="-7.8457150">
        <ele>634.5</ele>
        <time>2020-10-19T14:06:12Z</time>
      </trkpt>
      <trkpt lat="42.8743770" lon="-7.8457360">
        <ele>634.5</ele>
        <time>2020-10-19T14:06:13Z</time>
      </trkpt>
      <trkpt lat="42.8743730" lon="-7.8457570">
        <ele>634.4</ele>
        <time>2020-10-19T14:06:14Z</time>
      </trkpt>
      <trkpt lat="42.8743720" lon="-7.8457770">
        <ele>634.4</ele>
        <time>2020-10-19T14:06:15Z</time>
      </trkpt>
      <trkpt lat="42.8743700" lon="-7.8457970">
        <ele>634.4</ele>
        <time>2020-10-19T14:06:16Z</time>
      </trkpt>
      <trkpt lat="42.8743670" lon="-7.8458160">
        <ele>634.4</ele>
        <time>2020-10-19T14:06:17Z</time>
      </trkpt>
      <trkpt lat="42.8743640" lon="-7.8458360">
        <ele>634.4</ele>
        <time>2020-10-19T14:06:18Z</time>
      </trkpt>
      <trkpt lat="42.8743650" lon="-7.8458540">
        <ele>634.4</ele>
        <time>2020-10-19T14:06:19Z</time>
      </trkpt>
      <trkpt lat="42.8743660" lon="-7.8458720">
        <ele>634.3</ele>
        <time>2020-10-19T14:06:20Z</time>
      </trkpt>
      <trkpt lat="42.8743650" lon="-7.8458890">
        <ele>634.3</ele>
        <time>2020-10-19T14:06:21Z</time>
      </trkpt>
      <trkpt lat="42.8743630" lon="-7.8459060">
        <ele>634.3</ele>
        <time>2020-10-19T14:06:22Z</time>
      </trkpt>
      <trkpt lat="42.8743620" lon="-7.8459250">
        <ele>634.3</ele>
        <time>2020-10-19T14:06:23Z</time>
      </trkpt>
      <trkpt lat="42.8743600" lon="-7.8459460">
        <ele>634.3</ele>
        <time>2020-10-19T14:06:24Z</time>
      </trkpt>
      <trkpt lat="42.8743590" lon="-7.8459650">
        <ele>634.2</ele>
        <time>2020-10-19T14:06:25Z</time>
      </trkpt>
      <trkpt lat="42.8743570" lon="-7.8459870">
        <ele>634.2</ele>
        <time>2020-10-19T14:06:26Z</time>
      </trkpt>
      <trkpt lat="42.8743540" lon="-7.8460090">
        <ele>634.2</ele>
        <time>2020-10-19T14:06:27Z</time>
      </trkpt>
      <trkpt lat="42.8743510" lon="-7.8460300">
        <ele>634.2</ele>
        <time>2020-10-19T14:06:28Z</time>
      </trkpt>
      <trkpt lat="42.8743490" lon="-7.8460470">
        <ele>634.2</ele>
        <time>2020-10-19T14:06:29Z</time>
      </trkpt>
      <trkpt lat="42.8743460" lon="-7.8460630">
        <ele>634.1</ele>
        <time>2020-10-19T14:06:30Z</time>
      </trkpt>
      <trkpt lat="42.8743430" lon="-7.8460800">
        <ele>634.1</ele>
        <time>2020-10-19T14:06:31Z</time>
      </trkpt>
      <trkpt lat="42.8743420" lon="-7.8460980">
        <ele>634.1</ele>
        <time>2020-10-19T14:06:32Z</time>
      </trkpt>
      <trkpt lat="42.8743410" lon="-7.8461150">
        <ele>634.1</ele>
        <time>2020-10-19T14:06:33Z</time>
      </trkpt>
      <trkpt lat="42.8743400" lon="-7.8461300">
        <ele>634.1</ele>
        <time>2020-10-19T14:06:34Z</time>
      </trkpt>
      <trkpt lat="42.8743370" lon="-7.8461410">
        <ele>634.1</ele>
        <time>2020-10-19T14:06:35Z</time>
      </trkpt>
      <trkpt lat="42.8743340" lon="-7.8461480">
        <ele>634.1</ele>
        <time>2020-10-19T14:06:36Z</time>
      </trkpt>
      <trkpt lat="42.8743320" lon="-7.8461550">
        <ele>634.1</ele>
        <time>2020-10-19T14:06:37Z</time>
      </trkpt>
      <trkpt lat="42.8743290" lon="-7.8461640">
        <ele>634.0</ele>
        <time>2020-10-19T14:06:38Z</time>
      </trkpt>
      <trkpt lat="42.8743280" lon="-7.8461750">
        <ele>634.0</ele>
        <time>2020-10-19T14:06:39Z</time>
      </trkpt>
      <trkpt lat="42.8743280" lon="-7.8461880">
        <ele>634.0</ele>
        <time>2020-10-19T14:06:40Z</time>
      </trkpt>
      <trkpt lat="42.8743290" lon="-7.8462030">
        <ele>634.0</ele>
        <time>2020-10-19T14:06:41Z</time>
      </trkpt>
      <trkpt lat="42.8743290" lon="-7.8462190">
        <ele>634.0</ele>
        <time>2020-10-19T14:06:42Z</time>
      </trkpt>
      <trkpt lat="42.8743280" lon="-7.8462350">
        <ele>634.0</ele>
        <time>2020-10-19T14:06:43Z</time>
      </trkpt>
      <trkpt lat="42.8743270" lon="-7.8462520">
        <ele>634.0</ele>
        <time>2020-10-19T14:06:44Z</time>
      </trkpt>
      <trkpt lat="42.8743270" lon="-7.8462700">
        <ele>633.9</ele>
        <time>2020-10-19T14:06:45Z</time>
      </trkpt>
      <trkpt lat="42.8743280" lon="-7.8462880">
        <ele>633.9</ele>
        <time>2020-10-19T14:06:46Z</time>
      </trkpt>
      <trkpt lat="42.8743300" lon="-7.8463080">
        <ele>633.9</ele>
        <time>2020-10-19T14:06:47Z</time>
      </trkpt>
      <trkpt lat="42.8743330" lon="-7.8463270">
        <ele>633.9</ele>
        <time>2020-10-19T14:06:48Z</time>
      </trkpt>
      <trkpt lat="42.8743340" lon="-7.8463460">
        <ele>633.9</ele>
        <time>2020-10-19T14:06:49Z</time>
      </trkpt>
      <trkpt lat="42.8743350" lon="-7.8463640">
        <ele>633.9</ele>
        <time>2020-10-19T14:06:50Z</time>
      </trkpt>
      <trkpt lat="42.8743360" lon="-7.8463810">
        <ele>633.9</ele>
        <time>2020-10-19T14:06:51Z</time>
      </trkpt>
      <trkpt lat="42.8743390" lon="-7.8464000">
        <ele>633.9</ele>
        <time>2020-10-19T14:06:52Z</time>
      </trkpt>
      <trkpt lat="42.8743400" lon="-7.8464180">
        <ele>633.9</ele>
        <time>2020-10-19T14:06:53Z</time>
      </trkpt>
      <trkpt lat="42.8743430" lon="-7.8464390">
        <ele>633.8</ele>
        <time>2020-10-19T14:06:54Z</time>
      </trkpt>
      <trkpt lat="42.8743440" lon="-7.8464620">
        <ele>633.8</ele>
        <time>2020-10-19T14:06:55Z</time>
      </trkpt>
      <trkpt lat="42.8743430" lon="-7.8464870">
        <ele>633.8</ele>
        <time>2020-10-19T14:06:56Z</time>
      </trkpt>
      <trkpt lat="42.8743390" lon="-7.8465120">
        <ele>633.8</ele>
        <time>2020-10-19T14:06:57Z</time>
      </trkpt>
      <trkpt lat="42.8743330" lon="-7.8465330">
        <ele>633.8</ele>
        <time>2020-10-19T14:06:58Z</time>
      </trkpt>
      <trkpt lat="42.8743280" lon="-7.8465560">
        <ele>633.8</ele>
        <time>2020-10-19T14:06:59Z</time>
      </trkpt>
      <trkpt lat="42.8743240" lon="-7.8465790">
        <ele>633.8</ele>
        <time>2020-10-19T14:07:00Z</time>
      </trkpt>
      <trkpt lat="42.8743210" lon="-7.8466010">
        <ele>633.8</ele>
        <time>2020-10-19T14:07:01Z</time>
      </trkpt>
      <trkpt lat="42.8743190" lon="-7.8466210">
        <ele>633.8</ele>
        <time>2020-10-19T14:07:02Z</time>
      </trkpt>
      <trkpt lat="42.8743170" lon="-7.8466400">
        <ele>633.9</ele>
        <time>2020-10-19T14:07:03Z</time>
      </trkpt>
      <trkpt lat="42.8743150" lon="-7.8466580">
        <ele>633.9</ele>
        <time>2020-10-19T14:07:04Z</time>
      </trkpt>
      <trkpt lat="42.8743120" lon="-7.8466770">
        <ele>633.9</ele>
        <time>2020-10-19T14:07:05Z</time>
      </trkpt>
      <trkpt lat="42.8743110" lon="-7.8466960">
        <ele>633.9</ele>
        <time>2020-10-19T14:07:06Z</time>
      </trkpt>
      <trkpt lat="42.8743090" lon="-7.8467170">
        <ele>633.9</ele>
        <time>2020-10-19T14:07:07Z</time>
      </trkpt>
      <trkpt lat="42.8743090" lon="-7.8467370">
        <ele>634.0</ele>
        <time>2020-10-19T14:07:08Z</time>
      </trkpt>
      <trkpt lat="42.8743090" lon="-7.8467570">
        <ele>634.0</ele>
        <time>2020-10-19T14:07:09Z</time>
      </trkpt>
      <trkpt lat="42.8743070" lon="-7.8467780">
        <ele>634.0</ele>
        <time>2020-10-19T14:07:10Z</time>
      </trkpt>
      <trkpt lat="42.8743050" lon="-7.8468000">
        <ele>634.1</ele>
        <time>2020-10-19T14:07:11Z</time>
      </trkpt>
      <trkpt lat="42.8743030" lon="-7.8468210">
        <ele>634.1</ele>
        <time>2020-10-19T14:07:12Z</time>
      </trkpt>
      <trkpt lat="42.8743020" lon="-7.8468420">
        <ele>634.2</ele>
        <time>2020-10-19T14:07:13Z</time>
      </trkpt>
      <trkpt lat="42.8743030" lon="-7.8468620">
        <ele>634.2</ele>
        <time>2020-10-19T14:07:14Z</time>
      </trkpt>
      <trkpt lat="42.8743030" lon="-7.8468840">
        <ele>634.3</ele>
        <time>2020-10-19T14:07:15Z</time>
      </trkpt>
      <trkpt lat="42.8743040" lon="-7.8469050">
        <ele>634.3</ele>
        <time>2020-10-19T14:07:16Z</time>
      </trkpt>
      <trkpt lat="42.8743040" lon="-7.8469260">
        <ele>634.4</ele>
        <time>2020-10-19T14:07:17Z</time>
      </trkpt>
      <trkpt lat="42.8743060" lon="-7.8469460">
        <ele>634.4</ele>
        <time>2020-10-19T14:07:18Z</time>
      </trkpt>
      <trkpt lat="42.8743090" lon="-7.8469640">
        <ele>634.5</ele>
        <time>2020-10-19T14:07:19Z</time>
      </trkpt>
      <trkpt lat="42.8743120" lon="-7.8469820">
        <ele>634.5</ele>
        <time>2020-10-19T14:07:20Z</time>
      </trkpt>
      <trkpt lat="42.8743140" lon="-7.8470010">
        <ele>634.6</ele>
        <time>2020-10-19T14:07:21Z</time>
      </trkpt>
      <trkpt lat="42.8743160" lon="-7.8470210">
        <ele>634.6</ele>
        <time>2020-10-19T14:07:22Z</time>
      </trkpt>
      <trkpt lat="42.8743180" lon="-7.8470410">
        <ele>634.7</ele>
        <time>2020-10-19T14:07:23Z</time>
      </trkpt>
      <trkpt lat="42.8743220" lon="-7.8470600">
        <ele>634.7</ele>
        <time>2020-10-19T14:07:24Z</time>
      </trkpt>
      <trkpt lat="42.8743250" lon="-7.8470800">
        <ele>634.8</ele>
        <time>2020-10-19T14:07:25Z</time>
      </trkpt>
      <trkpt lat="42.8743260" lon="-7.8471010">
        <ele>634.8</ele>
        <time>2020-10-19T14:07:26Z</time>
      </trkpt>
      <trkpt lat="42.8743240" lon="-7.8471220">
        <ele>634.8</ele>
        <time>2020-10-19T14:07:27Z</time>
      </trkpt>
      <trkpt lat="42.8743230" lon="-7.8471420">
        <ele>634.8</ele>
        <time>2020-10-19T14:07:28Z</time>
      </trkpt>
      <trkpt lat="42.8743230" lon="-7.8471620">
        <ele>634.9</ele>
        <time>2020-10-19T14:07:29Z</time>
      </trkpt>
      <trkpt lat="42.8743240" lon="-7.8471820">
        <ele>634.9</ele>
        <time>2020-10-19T14:07:30Z</time>
      </trkpt>
      <trkpt lat="42.8743240" lon="-7.8472010">
        <ele>634.9</ele>
        <time>2020-10-19T14:07:31Z</time>
      </trkpt>
      <trkpt lat="42.8743260" lon="-7.8472210">
        <ele>634.9</ele>
        <time>2020-10-19T14:07:32Z</time>
      </trkpt>
      <trkpt lat="42.8743270" lon="-7.8472400">
        <ele>634.9</ele>
        <time>2020-10-19T14:07:33Z</time>
      </trkpt>
      <trkpt lat="42.8743270" lon="-7.8472570">
        <ele>634.9</ele>
        <time>2020-10-19T14:07:34Z</time>
      </trkpt>
      <trkpt lat="42.8743260" lon="-7.8472690">
        <ele>634.9</ele>
        <time>2020-10-19T14:07:35Z</time>
      </trkpt>
      <trkpt lat="42.8743260" lon="-7.8472780">
        <ele>634.9</ele>
        <time>2020-10-19T14:07:36Z</time>
      </trkpt>
      <trkpt lat="42.8743270" lon="-7.8472850">
        <ele>634.9</ele>
        <time>2020-10-19T14:07:37Z</time>
      </trkpt>
      <trkpt lat="42.8743290" lon="-7.8472920">
        <ele>634.9</ele>
        <time>2020-10-19T14:07:38Z</time>
      </trkpt>
      <trkpt lat="42.8743280" lon="-7.8473040">
        <ele>634.9</ele>
        <time>2020-10-19T14:07:39Z</time>
      </trkpt>
      <trkpt lat="42.8743260" lon="-7.8473190">
        <ele>634.9</ele>
        <time>2020-10-19T14:07:40Z</time>
      </trkpt>
      <trkpt lat="42.8743250" lon="-7.8473380">
        <ele>634.9</ele>
        <time>2020-10-19T14:07:41Z</time>
      </trkpt>
      <trkpt lat="42.8743240" lon="-7.8473570">
        <ele>634.9</ele>
        <time>2020-10-19T14:07:42Z</time>
      </trkpt>
      <trkpt lat="42.8743230" lon="-7.8473770">
        <ele>634.9</ele>
        <time>2020-10-19T14:07:43Z</time>
      </trkpt>
      <trkpt lat="42.8743230" lon="-7.8473960">
        <ele>634.9</ele>
        <time>2020-10-19T14:07:44Z</time>
      </trkpt>
      <trkpt lat="42.8743230" lon="-7.8474140">
        <ele>634.9</ele>
        <time>2020-10-19T14:07:45Z</time>
      </trkpt>
      <trkpt lat="42.8743230" lon="-7.8474330">
        <ele>634.9</ele>
        <time>2020-10-19T14:07:46Z</time>
      </trkpt>
      <trkpt lat="42.8743240" lon="-7.8474530">
        <ele>634.9</ele>
        <time>2020-10-19T14:07:47Z</time>
      </trkpt>
      <trkpt lat="42.8743250" lon="-7.8474730">
        <ele>634.9</ele>
        <time>2020-10-19T14:07:48Z</time>
      </trkpt>
      <trkpt lat="42.8743270" lon="-7.8474930">
        <ele>634.9</ele>
        <time>2020-10-19T14:07:49Z</time>
      </trkpt>
      <trkpt lat="42.8743270" lon="-7.8475120">
        <ele>634.9</ele>
        <time>2020-10-19T14:07:50Z</time>
      </trkpt>
      <trkpt lat="42.8743270" lon="-7.8475300">
        <ele>634.9</ele>
        <time>2020-10-19T14:07:51Z</time>
      </trkpt>
      <trkpt lat="42.8743270" lon="-7.8475470">
        <ele>634.9</ele>
        <time>2020-10-19T14:07:52Z</time>
      </trkpt>
      <trkpt lat="42.8743280" lon="-7.8475650">
        <ele>634.8</ele>
        <time>2020-10-19T14:07:53Z</time>
      </trkpt>
      <trkpt lat="42.8743290" lon="-7.8475830">
        <ele>634.8</ele>
        <time>2020-10-19T14:07:54Z</time>
      </trkpt>
      <trkpt lat="42.8743290" lon="-7.8476020">
        <ele>634.8</ele>
        <time>2020-10-19T14:07:55Z</time>
      </trkpt>
      <trkpt lat="42.8743280" lon="-7.8476200">
        <ele>634.8</ele>
        <time>2020-10-19T14:07:56Z</time>
      </trkpt>
      <trkpt lat="42.8743290" lon="-7.8476380">
        <ele>634.8</ele>
        <time>2020-10-19T14:07:57Z</time>
      </trkpt>
      <trkpt lat="42.8743300" lon="-7.8476540">
        <ele>634.8</ele>
        <time>2020-10-19T14:07:58Z</time>
      </trkpt>
      <trkpt lat="42.8743330" lon="-7.8476710">
        <ele>634.8</ele>
        <time>2020-10-19T14:07:59Z</time>
      </trkpt>
      <trkpt lat="42.8743360" lon="-7.8476870">
        <ele>634.8</ele>
        <time>2020-10-19T14:08:00Z</time>
      </trkpt>
      <trkpt lat="42.8743390" lon="-7.8477020">
        <ele>634.8</ele>
        <time>2020-10-19T14:08:01Z</time>
      </trkpt>
      <trkpt lat="42.8743420" lon="-7.8477170">
        <ele>634.8</ele>
        <time>2020-10-19T14:08:02Z</time>
      </trkpt>
      <trkpt lat="42.8743450" lon="-7.8477320">
        <ele>634.8</ele>
        <time>2020-10-19T14:08:03Z</time>
      </trkpt>
      <trkpt lat="42.8743490" lon="-7.8477470">
        <ele>634.8</ele>
        <time>2020-10-19T14:08:04Z</time>
      </trkpt>
      <trkpt lat="42.8743530" lon="-7.8477620">
        <ele>634.8</ele>
        <time>2020-10-19T14:08:05Z</time>
      </trkpt>
      <trkpt lat="42.8743570" lon="-7.8477780">
        <ele>634.8</ele>
        <time>2020-10-19T14:08:06Z</time>
      </trkpt>
      <trkpt lat="42.8743610" lon="-7.8477940">
        <ele>634.8</ele>
        <time>2020-10-19T14:08:07Z</time>
      </trkpt>
      <trkpt lat="42.8743660" lon="-7.8478110">
        <ele>634.7</ele>
        <time>2020-10-19T14:08:08Z</time>
      </trkpt>
      <trkpt lat="42.8743700" lon="-7.8478280">
        <ele>634.7</ele>
        <time>2020-10-19T14:08:09Z</time>
      </trkpt>
      <trkpt lat="42.8743720" lon="-7.8478440">
        <ele>634.7</ele>
        <time>2020-10-19T14:08:10Z</time>
      </trkpt>
      <trkpt lat="42.8743720" lon="-7.8478640">
        <ele>634.7</ele>
        <time>2020-10-19T14:08:11Z</time>
      </trkpt>
      <trkpt lat="42.8743700" lon="-7.8478860">
        <ele>634.7</ele>
        <time>2020-10-19T14:08:12Z</time>
      </trkpt>
      <trkpt lat="42.8743670" lon="-7.8479090">
        <ele>634.7</ele>
        <time>2020-10-19T14:08:13Z</time>
      </trkpt>
      <trkpt lat="42.8743650" lon="-7.8479300">
        <ele>634.7</ele>
        <time>2020-10-19T14:08:14Z</time>
      </trkpt>
      <trkpt lat="42.8743640" lon="-7.8479510">
        <ele>634.7</ele>
        <time>2020-10-19T14:08:15Z</time>
      </trkpt>
      <trkpt lat="42.8743630" lon="-7.8479740">
        <ele>634.7</ele>
        <time>2020-10-19T14:08:16Z</time>
      </trkpt>
      <trkpt lat="42.8743620" lon="-7.8479980">
        <ele>634.7</ele>
        <time>2020-10-19T14:08:17Z</time>
      </trkpt>
      <trkpt lat="42.8743600" lon="-7.8480240">
        <ele>634.6</ele>
        <time>2020-10-19T14:08:18Z</time>
      </trkpt>
      <trkpt lat="42.8743590" lon="-7.8480470">
        <ele>634.6</ele>
        <time>2020-10-19T14:08:19Z</time>
      </trkpt>
      <trkpt lat="42.8743590" lon="-7.8480670">
        <ele>634.6</ele>
        <time>2020-10-19T14:08:20Z</time>
      </trkpt>
      <trkpt lat="42.8743590" lon="-7.8480860">
        <ele>634.6</ele>
        <time>2020-10-19T14:08:21Z</time>
      </trkpt>
      <trkpt lat="42.8743570" lon="-7.8481040">
        <ele>634.6</ele>
        <time>2020-10-19T14:08:22Z</time>
      </trkpt>
      <trkpt lat="42.8743550" lon="-7.8481210">
        <ele>634.6</ele>
        <time>2020-10-19T14:08:23Z</time>
      </trkpt>
      <trkpt lat="42.8743550" lon="-7.8481370">
        <ele>634.5</ele>
        <time>2020-10-19T14:08:24Z</time>
      </trkpt>
      <trkpt lat="42.8743560" lon="-7.8481560">
        <ele>634.5</ele>
        <time>2020-10-19T14:08:25Z</time>
      </trkpt>
      <trkpt lat="42.8743570" lon="-7.8481740">
        <ele>634.5</ele>
        <time>2020-10-19T14:08:26Z</time>
      </trkpt>
      <trkpt lat="42.8743550" lon="-7.8481910">
        <ele>634.5</ele>
        <time>2020-10-19T14:08:27Z</time>
      </trkpt>
      <trkpt lat="42.8743540" lon="-7.8482080">
        <ele>634.5</ele>
        <time>2020-10-19T14:08:28Z</time>
      </trkpt>
      <trkpt lat="42.8743520" lon="-7.8482250">
        <ele>634.4</ele>
        <time>2020-10-19T14:08:29Z</time>
      </trkpt>
      <trkpt lat="42.8743520" lon="-7.8482440">
        <ele>634.4</ele>
        <time>2020-10-19T14:08:30Z</time>
      </trkpt>
      <trkpt lat="42.8743520" lon="-7.8482640">
        <ele>634.4</ele>
        <time>2020-10-19T14:08:31Z</time>
      </trkpt>
      <trkpt lat="42.8743510" lon="-7.8482850">
        <ele>634.3</ele>
        <time>2020-10-19T14:08:32Z</time>
      </trkpt>
      <trkpt lat="42.8743500" lon="-7.8483040">
        <ele>634.3</ele>
        <time>2020-10-19T14:08:33Z</time>
      </trkpt>
      <trkpt lat="42.8743480" lon="-7.8483230">
        <ele>634.2</ele>
        <time>2020-10-19T14:08:34Z</time>
      </trkpt>
      <trkpt lat="42.8743440" lon="-7.8483420">
        <ele>634.2</ele>
        <time>2020-10-19T14:08:35Z</time>
      </trkpt>
      <trkpt lat="42.8743410" lon="-7.8483610">
        <ele>634.2</ele>
        <time>2020-10-19T14:08:36Z</time>
      </trkpt>
      <trkpt lat="42.8743400" lon="-7.8483810">
        <ele>634.1</ele>
        <time>2020-10-19T14:08:37Z</time>
      </trkpt>
      <trkpt lat="42.8743400" lon="-7.8484030">
        <ele>634.1</ele>
        <time>2020-10-19T14:08:38Z</time>
      </trkpt>
      <trkpt lat="42.8743420" lon="-7.8484240">
        <ele>634.1</ele>
        <time>2020-10-19T14:08:39Z</time>
      </trkpt>
      <trkpt lat="42.8743430" lon="-7.8484450">
        <ele>634.0</ele>
        <time>2020-10-19T14:08:40Z</time>
      </trkpt>
      <trkpt lat="42.8743450" lon="-7.8484650">
        <ele>634.0</ele>
        <time>2020-10-19T14:08:41Z</time>
      </trkpt>
      <trkpt lat="42.8743470" lon="-7.8484840">
        <ele>633.9</ele>
        <time>2020-10-19T14:08:42Z</time>
      </trkpt>
      <trkpt lat="42.8743490" lon="-7.8485040">
        <ele>633.9</ele>
        <time>2020-10-19T14:08:43Z</time>
      </trkpt>
      <trkpt lat="42.8743510" lon="-7.8485240">
        <ele>633.9</ele>
        <time>2020-10-19T14:08:44Z</time>
      </trkpt>
      <trkpt lat="42.8743530" lon="-7.8485430">
        <ele>633.8</ele>
        <time>2020-10-19T14:08:45Z</time>
      </trkpt>
      <trkpt lat="42.8743540" lon="-7.8485600">
        <ele>633.8</ele>
        <time>2020-10-19T14:08:46Z</time>
      </trkpt>
      <trkpt lat="42.8743550" lon="-7.8485720">
        <ele>633.8</ele>
        <time>2020-10-19T14:08:47Z</time>
      </trkpt>
      <trkpt lat="42.8743570" lon="-7.8485830">
        <ele>633.7</ele>
        <time>2020-10-19T14:08:48Z</time>
      </trkpt>
      <trkpt lat="42.8743580" lon="-7.8485940">
        <ele>633.7</ele>
        <time>2020-10-19T14:08:49Z</time>
      </trkpt>
      <trkpt lat="42.8743600" lon="-7.8486110">
        <ele>633.7</ele>
        <time>2020-10-19T14:08:50Z</time>
      </trkpt>
      <trkpt lat="42.8743620" lon="-7.8486290">
        <ele>633.7</ele>
        <time>2020-10-19T14:08:51Z</time>
      </trkpt>
      <trkpt lat="42.8743650" lon="-7.8486470">
        <ele>633.6</ele>
        <time>2020-10-19T14:08:52Z</time>
      </trkpt>
      <trkpt lat="42.8743660" lon="-7.8486650">
        <ele>633.6</ele>
        <time>2020-10-19T14:08:53Z</time>
      </trkpt>
      <trkpt lat="42.8743680" lon="-7.8486850">
        <ele>633.5</ele>
        <time>2020-10-19T14:08:54Z</time>
      </trkpt>
      <trkpt lat="42.8743700" lon="-7.8487060">
        <ele>633.5</ele>
        <time>2020-10-19T14:08:55Z</time>
      </trkpt>
      <trkpt lat="42.8743710" lon="-7.8487270">
        <ele>633.4</ele>
        <time>2020-10-19T14:08:56Z</time>
      </trkpt>
      <trkpt lat="42.8743720" lon="-7.8487470">
        <ele>633.4</ele>
        <time>2020-10-19T14:08:57Z</time>
      </trkpt>
      <trkpt lat="42.8743730" lon="-7.8487670">
        <ele>633.4</ele>
        <time>2020-10-19T14:08:58Z</time>
      </trkpt>
      <trkpt lat="42.8743740" lon="-7.8487880">
        <ele>633.3</ele>
        <time>2020-10-19T14:08:59Z</time>
      </trkpt>
      <trkpt lat="42.8743750" lon="-7.8488080">
        <ele>633.3</ele>
        <time>2020-10-19T14:09:00Z</time>
      </trkpt>
      <trkpt lat="42.8743770" lon="-7.8488280">
        <ele>633.2</ele>
        <time>2020-10-19T14:09:01Z</time>
      </trkpt>
      <trkpt lat="42.8743800" lon="-7.8488480">
        <ele>633.2</ele>
        <time>2020-10-19T14:09:02Z</time>
      </trkpt>
      <trkpt lat="42.8743830" lon="-7.8488690">
        <ele>633.2</ele>
        <time>2020-10-19T14:09:03Z</time>
      </trkpt>
      <trkpt lat="42.8743860" lon="-7.8488900">
        <ele>633.1</ele>
        <time>2020-10-19T14:09:04Z</time>
      </trkpt>
      <trkpt lat="42.8743900" lon="-7.8489120">
        <ele>633.1</ele>
        <time>2020-10-19T14:09:05Z</time>
      </trkpt>
      <trkpt lat="42.8743950" lon="-7.8489330">
        <ele>633.0</ele>
        <time>2020-10-19T14:09:06Z</time>
      </trkpt>
      <trkpt lat="42.8744010" lon="-7.8489540">
        <ele>633.0</ele>
        <time>2020-10-19T14:09:07Z</time>
      </trkpt>
      <trkpt lat="42.8744050" lon="-7.8489730">
        <ele>633.0</ele>
        <time>2020-10-19T14:09:08Z</time>
      </trkpt>
      <trkpt lat="42.8744100" lon="-7.8489930">
        <ele>632.9</ele>
        <time>2020-10-19T14:09:09Z</time>
      </trkpt>
      <trkpt lat="42.8744170" lon="-7.8490120">
        <ele>632.9</ele>
        <time>2020-10-19T14:09:10Z</time>
      </trkpt>
      <trkpt lat="42.8744250" lon="-7.8490320">
        <ele>632.9</ele>
        <time>2020-10-19T14:09:11Z</time>
      </trkpt>
      <trkpt lat="42.8744320" lon="-7.8490520">
        <ele>632.8</ele>
        <time>2020-10-19T14:09:12Z</time>
      </trkpt>
      <trkpt lat="42.8744380" lon="-7.8490720">
        <ele>632.8</ele>
        <time>2020-10-19T14:09:13Z</time>
      </trkpt>
      <trkpt lat="42.8744420" lon="-7.8490930">
        <ele>632.8</ele>
        <time>2020-10-19T14:09:14Z</time>
      </trkpt>
      <trkpt lat="42.8744450" lon="-7.8491130">
        <ele>632.7</ele>
        <time>2020-10-19T14:09:15Z</time>
      </trkpt>
      <trkpt lat="42.8744480" lon="-7.8491330">
        <ele>632.7</ele>
        <time>2020-10-19T14:09:16Z</time>
      </trkpt>
      <trkpt lat="42.8744510" lon="-7.8491540">
        <ele>632.7</ele>
        <time>2020-10-19T14:09:17Z</time>
      </trkpt>
      <trkpt lat="42.8744540" lon="-7.8491740">
        <ele>632.6</ele>
        <time>2020-10-19T14:09:18Z</time>
      </trkpt>
      <trkpt lat="42.8744570" lon="-7.8491940">
        <ele>632.6</ele>
        <time>2020-10-19T14:09:19Z</time>
      </trkpt>
      <trkpt lat="42.8744610" lon="-7.8492110">
        <ele>632.5</ele>
        <time>2020-10-19T14:09:20Z</time>
      </trkpt>
      <trkpt lat="42.8744640" lon="-7.8492300">
        <ele>632.5</ele>
        <time>2020-10-19T14:09:21Z</time>
      </trkpt>
      <trkpt lat="42.8744650" lon="-7.8492480">
        <ele>632.5</ele>
        <time>2020-10-19T14:09:22Z</time>
      </trkpt>
      <trkpt lat="42.8744660" lon="-7.8492660">
        <ele>632.4</ele>
        <time>2020-10-19T14:09:23Z</time>
      </trkpt>
      <trkpt lat="42.8744690" lon="-7.8492840">
        <ele>632.4</ele>
        <time>2020-10-19T14:09:24Z</time>
      </trkpt>
      <trkpt lat="42.8744730" lon="-7.8493040">
        <ele>632.3</ele>
        <time>2020-10-19T14:09:25Z</time>
      </trkpt>
      <trkpt lat="42.8744780" lon="-7.8493230">
        <ele>632.3</ele>
        <time>2020-10-19T14:09:26Z</time>
      </trkpt>
      <trkpt lat="42.8744790" lon="-7.8493420">
        <ele>632.3</ele>
        <time>2020-10-19T14:09:27Z</time>
      </trkpt>
      <trkpt lat="42.8744800" lon="-7.8493600">
        <ele>632.2</ele>
        <time>2020-10-19T14:09:28Z</time>
      </trkpt>
      <trkpt lat="42.8744800" lon="-7.8493790">
        <ele>632.2</ele>
        <time>2020-10-19T14:09:29Z</time>
      </trkpt>
      <trkpt lat="42.8744810" lon="-7.8493990">
        <ele>632.1</ele>
        <time>2020-10-19T14:09:30Z</time>
      </trkpt>
      <trkpt lat="42.8744840" lon="-7.8494190">
        <ele>632.1</ele>
        <time>2020-10-19T14:09:31Z</time>
      </trkpt>
      <trkpt lat="42.8744870" lon="-7.8494390">
        <ele>632.1</ele>
        <time>2020-10-19T14:09:32Z</time>
      </trkpt>
      <trkpt lat="42.8744910" lon="-7.8494580">
        <ele>632.0</ele>
        <time>2020-10-19T14:09:33Z</time>
      </trkpt>
      <trkpt lat="42.8744960" lon="-7.8494750">
        <ele>632.0</ele>
        <time>2020-10-19T14:09:34Z</time>
      </trkpt>
      <trkpt lat="42.8744990" lon="-7.8494910">
        <ele>631.9</ele>
        <time>2020-10-19T14:09:35Z</time>
      </trkpt>
      <trkpt lat="42.8745010" lon="-7.8495070">
        <ele>631.9</ele>
        <time>2020-10-19T14:09:36Z</time>
      </trkpt>
      <trkpt lat="42.8745040" lon="-7.8495220">
        <ele>631.9</ele>
        <time>2020-10-19T14:09:37Z</time>
      </trkpt>
      <trkpt lat="42.8745080" lon="-7.8495370">
        <ele>631.8</ele>
        <time>2020-10-19T14:09:38Z</time>
      </trkpt>
      <trkpt lat="42.8745130" lon="-7.8495530">
        <ele>631.8</ele>
        <time>2020-10-19T14:09:39Z</time>
      </trkpt>
      <trkpt lat="42.8745180" lon="-7.8495690">
        <ele>631.8</ele>
        <time>2020-10-19T14:09:40Z</time>
      </trkpt>
      <trkpt lat="42.8745210" lon="-7.8495860">
        <ele>631.7</ele>
        <time>2020-10-19T14:09:41Z</time>
      </trkpt>
      <trkpt lat="42.8745250" lon="-7.8496030">
        <ele>631.7</ele>
        <time>2020-10-19T14:09:42Z</time>
      </trkpt>
      <trkpt lat="42.8745270" lon="-7.8496200">
        <ele>631.7</ele>
        <time>2020-10-19T14:09:43Z</time>
      </trkpt>
      <trkpt lat="42.8745300" lon="-7.8496370">
        <ele>631.6</ele>
        <time>2020-10-19T14:09:44Z</time>
      </trkpt>
      <trkpt lat="42.8745330" lon="-7.8496530">
        <ele>631.6</ele>
        <time>2020-10-19T14:09:45Z</time>
      </trkpt>
      <trkpt lat="42.8745360" lon="-7.8496690">
        <ele>631.6</ele>
        <time>2020-10-19T14:09:46Z</time>
      </trkpt>
      <trkpt lat="42.8745420" lon="-7.8496850">
        <ele>631.5</ele>
        <time>2020-10-19T14:09:47Z</time>
      </trkpt>
      <trkpt lat="42.8745460" lon="-7.8497020">
        <ele>631.5</ele>
        <time>2020-10-19T14:09:48Z</time>
      </trkpt>
      <trkpt lat="42.8745530" lon="-7.8497200">
        <ele>631.5</ele>
        <time>2020-10-19T14:09:49Z</time>
      </trkpt>
      <trkpt lat="42.8745580" lon="-7.8497380">
        <ele>631.4</ele>
        <time>2020-10-19T14:09:50Z</time>
      </trkpt>
      <trkpt lat="42.8745640" lon="-7.8497570">
        <ele>631.4</ele>
        <time>2020-10-19T14:09:51Z</time>
      </trkpt>
      <trkpt lat="42.8745710" lon="-7.8497760">
        <ele>631.3</ele>
        <time>2020-10-19T14:09:52Z</time>
      </trkpt>
      <trkpt lat="42.8745780" lon="-7.8497950">
        <ele>631.3</ele>
        <time>2020-10-19T14:09:53Z</time>
      </trkpt>
      <trkpt lat="42.8745830" lon="-7.8498140">
        <ele>631.2</ele>
        <time>2020-10-19T14:09:54Z</time>
      </trkpt>
      <trkpt lat="42.8745870" lon="-7.8498330">
        <ele>631.2</ele>
        <time>2020-10-19T14:09:55Z</time>
      </trkpt>
      <trkpt lat="42.8745900" lon="-7.8498520">
        <ele>631.2</ele>
        <time>2020-10-19T14:09:56Z</time>
      </trkpt>
      <trkpt lat="42.8745920" lon="-7.8498690">
        <ele>631.1</ele>
        <time>2020-10-19T14:09:57Z</time>
      </trkpt>
      <trkpt lat="42.8745940" lon="-7.8498840">
        <ele>631.1</ele>
        <time>2020-10-19T14:09:58Z</time>
      </trkpt>
      <trkpt lat="42.8745970" lon="-7.8498990">
        <ele>631.1</ele>
        <time>2020-10-19T14:09:59Z</time>
      </trkpt>
      <trkpt lat="42.8746020" lon="-7.8499150">
        <ele>631.0</ele>
        <time>2020-10-19T14:10:00Z</time>
      </trkpt>
      <trkpt lat="42.8746070" lon="-7.8499330">
        <ele>631.0</ele>
        <time>2020-10-19T14:10:01Z</time>
      </trkpt>
      <trkpt lat="42.8746130" lon="-7.8499510">
        <ele>630.9</ele>
        <time>2020-10-19T14:10:02Z</time>
      </trkpt>
      <trkpt lat="42.8746180" lon="-7.8499700">
        <ele>630.9</ele>
        <time>2020-10-19T14:10:03Z</time>
      </trkpt>
      <trkpt lat="42.8746220" lon="-7.8499880">
        <ele>630.9</ele>
        <time>2020-10-19T14:10:04Z</time>
      </trkpt>
      <trkpt lat="42.8746260" lon="-7.8500070">
        <ele>630.8</ele>
        <time>2020-10-19T14:10:05Z</time>
      </trkpt>
      <trkpt lat="42.8746300" lon="-7.8500260">
        <ele>630.8</ele>
        <time>2020-10-19T14:10:06Z</time>
      </trkpt>
      <trkpt lat="42.8746330" lon="-7.8500450">
        <ele>630.7</ele>
        <time>2020-10-19T14:10:07Z</time>
      </trkpt>
      <trkpt lat="42.8746360" lon="-7.8500630">
        <ele>630.7</ele>
        <time>2020-10-19T14:10:08Z</time>
      </trkpt>
      <trkpt lat="42.8746380" lon="-7.8500800">
        <ele>630.7</ele>
        <time>2020-10-19T14:10:09Z</time>
      </trkpt>
      <trkpt lat="42.8746420" lon="-7.8500970">
        <ele>630.6</ele>
        <time>2020-10-19T14:10:10Z</time>
      </trkpt>
      <trkpt lat="42.8746470" lon="-7.8501120">
        <ele>630.6</ele>
        <time>2020-10-19T14:10:11Z</time>
      </trkpt>
      <trkpt lat="42.8746530" lon="-7.8501260">
        <ele>630.6</ele>
        <time>2020-10-19T14:10:12Z</time>
      </trkpt>
      <trkpt lat="42.8746580" lon="-7.8501380">
        <ele>630.5</ele>
        <time>2020-10-19T14:10:13Z</time>
      </trkpt>
      <trkpt lat="42.8746620" lon="-7.8501490">
        <ele>630.5</ele>
        <time>2020-10-19T14:10:14Z</time>
      </trkpt>
      <trkpt lat="42.8746670" lon="-7.8501580">
        <ele>630.5</ele>
        <time>2020-10-19T14:10:15Z</time>
      </trkpt>
      <trkpt lat="42.8746730" lon="-7.8501710">
        <ele>630.4</ele>
        <time>2020-10-19T14:10:16Z</time>
      </trkpt>
      <trkpt lat="42.8746800" lon="-7.8501860">
        <ele>630.4</ele>
        <time>2020-10-19T14:10:17Z</time>
      </trkpt>
      <trkpt lat="42.8746870" lon="-7.8502080">
        <ele>630.3</ele>
        <time>2020-10-19T14:10:18Z</time>
      </trkpt>
      <trkpt lat="42.8746940" lon="-7.8502290">
        <ele>630.3</ele>
        <time>2020-10-19T14:10:19Z</time>
      </trkpt>
      <trkpt lat="42.8747010" lon="-7.8502510">
        <ele>630.2</ele>
        <time>2020-10-19T14:10:20Z</time>
      </trkpt>
      <trkpt lat="42.8747090" lon="-7.8502690">
        <ele>630.2</ele>
        <time>2020-10-19T14:10:21Z</time>
      </trkpt>
      <trkpt lat="42.8747170" lon="-7.8502880">
        <ele>630.1</ele>
        <time>2020-10-19T14:10:22Z</time>
      </trkpt>
      <trkpt lat="42.8747240" lon="-7.8503060">
        <ele>630.1</ele>
        <time>2020-10-19T14:10:23Z</time>
      </trkpt>
      <trkpt lat="42.8747320" lon="-7.8503250">
        <ele>630.0</ele>
        <time>2020-10-19T14:10:24Z</time>
      </trkpt>
      <trkpt lat="42.8747370" lon="-7.8503450">
        <ele>630.0</ele>
        <time>2020-10-19T14:10:25Z</time>
      </trkpt>
      <trkpt lat="42.8747430" lon="-7.8503650">
        <ele>629.9</ele>
        <time>2020-10-19T14:10:26Z</time>
      </trkpt>
      <trkpt lat="42.8747490" lon="-7.8503860">
        <ele>629.9</ele>
        <time>2020-10-19T14:10:27Z</time>
      </trkpt>
      <trkpt lat="42.8747550" lon="-7.8504060">
        <ele>629.8</ele>
        <time>2020-10-19T14:10:28Z</time>
      </trkpt>
      <trkpt lat="42.8747610" lon="-7.8504260">
        <ele>629.8</ele>
        <time>2020-10-19T14:10:29Z</time>
      </trkpt>
      <trkpt lat="42.8747670" lon="-7.8504460">
        <ele>629.7</ele>
        <time>2020-10-19T14:10:30Z</time>
      </trkpt>
      <trkpt lat="42.8747720" lon="-7.8504660">
        <ele>629.7</ele>
        <time>2020-10-19T14:10:31Z</time>
      </trkpt>
      <trkpt lat="42.8747750" lon="-7.8504860">
        <ele>629.6</ele>
        <time>2020-10-19T14:10:32Z</time>
      </trkpt>
      <trkpt lat="42.8747780" lon="-7.8505050">
        <ele>629.6</ele>
        <time>2020-10-19T14:10:33Z</time>
      </trkpt>
      <trkpt lat="42.8747810" lon="-7.8505250">
        <ele>629.5</ele>
        <time>2020-10-19T14:10:34Z</time>
      </trkpt>
      <trkpt lat="42.8747860" lon="-7.8505450">
        <ele>629.5</ele>
        <time>2020-10-19T14:10:35Z</time>
      </trkpt>
      <trkpt lat="42.8747920" lon="-7.8505640">
        <ele>629.4</ele>
        <time>2020-10-19T14:10:36Z</time>
      </trkpt>
      <trkpt lat="42.8747990" lon="-7.8505820">
        <ele>629.4</ele>
        <time>2020-10-19T14:10:37Z</time>
      </trkpt>
      <trkpt lat="42.8748070" lon="-7.8506010">
        <ele>629.3</ele>
        <time>2020-10-19T14:10:38Z</time>
      </trkpt>
      <trkpt lat="42.8748140" lon="-7.8506200">
        <ele>629.3</ele>
        <time>2020-10-19T14:10:39Z</time>
      </trkpt>
      <trkpt lat="42.8748220" lon="-7.8506380">
        <ele>629.2</ele>
        <time>2020-10-19T14:10:40Z</time>
      </trkpt>
      <trkpt lat="42.8748280" lon="-7.8506570">
        <ele>629.2</ele>
        <time>2020-10-19T14:10:41Z</time>
      </trkpt>
      <trkpt lat="42.8748360" lon="-7.8506750">
        <ele>629.1</ele>
        <time>2020-10-19T14:10:42Z</time>
      </trkpt>
      <trkpt lat="42.8748430" lon="-7.8506920">
        <ele>629.0</ele>
        <time>2020-10-19T14:10:43Z</time>
      </trkpt>
      <trkpt lat="42.8748480" lon="-7.8507090">
        <ele>629.0</ele>
        <time>2020-10-19T14:10:44Z</time>
      </trkpt>
      <trkpt lat="42.8748520" lon="-7.8507270">
        <ele>628.9</ele>
        <time>2020-10-19T14:10:45Z</time>
      </trkpt>
      <trkpt lat="42.8748560" lon="-7.8507460">
        <ele>628.9</ele>
        <time>2020-10-19T14:10:46Z</time>
      </trkpt>
      <trkpt lat="42.8748620" lon="-7.8507650">
        <ele>628.8</ele>
        <time>2020-10-19T14:10:47Z</time>
      </trkpt>
      <trkpt lat="42.8748680" lon="-7.8507840">
        <ele>628.8</ele>
        <time>2020-10-19T14:10:48Z</time>
      </trkpt>
      <trkpt lat="42.8748730" lon="-7.8508030">
        <ele>628.7</ele>
        <time>2020-10-19T14:10:49Z</time>
      </trkpt>
      <trkpt lat="42.8748790" lon="-7.8508210">
        <ele>628.6</ele>
        <time>2020-10-19T14:10:50Z</time>
      </trkpt>
      <trkpt lat="42.8748840" lon="-7.8508390">
        <ele>628.6</ele>
        <time>2020-10-19T14:10:51Z</time>
      </trkpt>
      <trkpt lat="42.8748900" lon="-7.8508580">
        <ele>628.5</ele>
        <time>2020-10-19T14:10:52Z</time>
      </trkpt>
      <trkpt lat="42.8748950" lon="-7.8508770">
        <ele>628.5</ele>
        <time>2020-10-19T14:10:53Z</time>
      </trkpt>
      <trkpt lat="42.8749000" lon="-7.8508970">
        <ele>628.4</ele>
        <time>2020-10-19T14:10:54Z</time>
      </trkpt>
      <trkpt lat="42.8749050" lon="-7.8509160">
        <ele>628.3</ele>
        <time>2020-10-19T14:10:55Z</time>
      </trkpt>
      <trkpt lat="42.8749120" lon="-7.8509360">
        <ele>628.3</ele>
        <time>2020-10-19T14:10:56Z</time>
      </trkpt>
      <trkpt lat="42.8749180" lon="-7.8509560">
        <ele>628.2</ele>
        <time>2020-10-19T14:10:57Z</time>
      </trkpt>
      <trkpt lat="42.8749260" lon="-7.8509770">
        <ele>628.1</ele>
        <time>2020-10-19T14:10:58Z</time>
      </trkpt>
      <trkpt lat="42.8749320" lon="-7.8509970">
        <ele>628.1</ele>
        <time>2020-10-19T14:10:59Z</time>
      </trkpt>
      <trkpt lat="42.8749380" lon="-7.8510170">
        <ele>628.0</ele>
        <time>2020-10-19T14:11:00Z</time>
      </trkpt>
      <trkpt lat="42.8749420" lon="-7.8510350">
        <ele>628.0</ele>
        <time>2020-10-19T14:11:01Z</time>
      </trkpt>
      <trkpt lat="42.8749450" lon="-7.8510540">
        <ele>628.0</ele>
        <time>2020-10-19T14:11:02Z</time>
      </trkpt>
      <trkpt lat="42.8749460" lon="-7.8510710">
        <ele>627.9</ele>
        <time>2020-10-19T14:11:03Z</time>
      </trkpt>
      <trkpt lat="42.8749450" lon="-7.8510840">
        <ele>627.9</ele>
        <time>2020-10-19T14:11:04Z</time>
      </trkpt>
      <trkpt lat="42.8749440" lon="-7.8510930">
        <ele>627.9</ele>
        <time>2020-10-19T14:11:05Z</time>
      </trkpt>
      <trkpt lat="42.8749440" lon="-7.8510970">
        <ele>627.9</ele>
        <time>2020-10-19T14:11:06Z</time>
      </trkpt>
      <trkpt lat="42.8749450" lon="-7.8510980">
        <ele>627.9</ele>
        <time>2020-10-19T14:11:07Z</time>
      </trkpt>
      <trkpt lat="42.8749450" lon="-7.8510980">
        <ele>627.9</ele>
        <time>2020-10-19T14:11:08Z</time>
      </trkpt>
      <trkpt lat="42.8749450" lon="-7.8510980">
        <ele>627.9</ele>
        <time>2020-10-19T14:11:09Z</time>
      </trkpt>
      <trkpt lat="42.8749450" lon="-7.8510980">
        <ele>627.9</ele>
        <time>2020-10-19T14:11:10Z</time>
      </trkpt>
      <trkpt lat="42.8749450" lon="-7.8510970">
        <ele>627.9</ele>
        <time>2020-10-19T14:11:11Z</time>
      </trkpt>
      <trkpt lat="42.8749450" lon="-7.8510980">
        <ele>627.9</ele>
        <time>2020-10-19T14:11:12Z</time>
      </trkpt>
      <trkpt lat="42.8749440" lon="-7.8510990">
        <ele>627.8</ele>
        <time>2020-10-19T14:11:13Z</time>
      </trkpt>
      <trkpt lat="42.8749430" lon="-7.8511000">
        <ele>627.8</ele>
        <time>2020-10-19T14:11:14Z</time>
      </trkpt>
      <trkpt lat="42.8749420" lon="-7.8511000">
        <ele>627.8</ele>
        <time>2020-10-19T14:11:15Z</time>
      </trkpt>
      <trkpt lat="42.8749420" lon="-7.8510990">
        <ele>627.8</ele>
        <time>2020-10-19T14:11:16Z</time>
      </trkpt>
      <trkpt lat="42.8749430" lon="-7.8510980">
        <ele>627.8</ele>
        <time>2020-10-19T14:11:17Z</time>
      </trkpt>
      <trkpt lat="42.8749440" lon="-7.8510990">
        <ele>627.8</ele>
        <time>2020-10-19T14:11:18Z</time>
      </trkpt>
      <trkpt lat="42.8749440" lon="-7.8511020">
        <ele>627.8</ele>
        <time>2020-10-19T14:11:19Z</time>
      </trkpt>
      <trkpt lat="42.8749440" lon="-7.8511030">
        <ele>627.8</ele>
        <time>2020-10-19T14:11:20Z</time>
      </trkpt>
      <trkpt lat="42.8749430" lon="-7.8511020">
        <ele>627.8</ele>
        <time>2020-10-19T14:11:21Z</time>
      </trkpt>
      <trkpt lat="42.8749400" lon="-7.8511000">
        <ele>627.8</ele>
        <time>2020-10-19T14:11:22Z</time>
      </trkpt>
      <trkpt lat="42.8749370" lon="-7.8510980">
        <ele>627.8</ele>
        <time>2020-10-19T14:11:23Z</time>
      </trkpt>
      <trkpt lat="42.8749350" lon="-7.8510980">
        <ele>627.8</ele>
        <time>2020-10-19T14:11:24Z</time>
      </trkpt>
      <trkpt lat="42.8749340" lon="-7.8510990">
        <ele>627.8</ele>
        <time>2020-10-19T14:11:25Z</time>
      </trkpt>
      <trkpt lat="42.8749350" lon="-7.8510990">
        <ele>627.8</ele>
        <time>2020-10-19T14:11:26Z</time>
      </trkpt>
      <trkpt lat="42.8749360" lon="-7.8510990">
        <ele>627.8</ele>
        <time>2020-10-19T14:11:27Z</time>
      </trkpt>
      <trkpt lat="42.8749360" lon="-7.8511000">
        <ele>627.8</ele>
        <time>2020-10-19T14:11:28Z</time>
      </trkpt>
      <trkpt lat="42.8749360" lon="-7.8511000">
        <ele>627.8</ele>
        <time>2020-10-19T14:11:29Z</time>
      </trkpt>
      <trkpt lat="42.8749360" lon="-7.8511000">
        <ele>627.8</ele>
        <time>2020-10-19T14:11:30Z</time>
      </trkpt>
      <trkpt lat="42.8749350" lon="-7.8511000">
        <ele>627.8</ele>
        <time>2020-10-19T14:11:31Z</time>
      </trkpt>
      <trkpt lat="42.8749350" lon="-7.8511010">
        <ele>627.8</ele>
        <time>2020-10-19T14:11:32Z</time>
      </trkpt>
      <trkpt lat="42.8749350" lon="-7.8511020">
        <ele>627.8</ele>
        <time>2020-10-19T14:11:33Z</time>
      </trkpt>
      <trkpt lat="42.8749360" lon="-7.8511010">
        <ele>627.8</ele>
        <time>2020-10-19T14:11:34Z</time>
      </trkpt>
      <trkpt lat="42.8749360" lon="-7.8511000">
        <ele>627.8</ele>
        <time>2020-10-19T14:11:35Z</time>
      </trkpt>
      <trkpt lat="42.8749340" lon="-7.8511000">
        <ele>627.8</ele>
        <time>2020-10-19T14:11:36Z</time>
      </trkpt>
      <trkpt lat="42.8749320" lon="-7.8510980">
        <ele>627.8</ele>
        <time>2020-10-19T14:11:37Z</time>
      </trkpt>
      <trkpt lat="42.8749300" lon="-7.8510970">
        <ele>627.8</ele>
        <time>2020-10-19T14:11:38Z</time>
      </trkpt>
      <trkpt lat="42.8749290" lon="-7.8510940">
        <ele>627.7</ele>
        <time>2020-10-19T14:11:39Z</time>
      </trkpt>
      <trkpt lat="42.8749290" lon="-7.8510940">
        <ele>627.7</ele>
        <time>2020-10-19T14:11:40Z</time>
      </trkpt>
      <trkpt lat="42.8749290" lon="-7.8510930">
        <ele>627.7</ele>
        <time>2020-10-19T14:11:41Z</time>
      </trkpt>
      <trkpt lat="42.8749290" lon="-7.8510880">
        <ele>627.7</ele>
        <time>2020-10-19T14:11:42Z</time>
      </trkpt>
      <trkpt lat="42.8749260" lon="-7.8510790">
        <ele>627.7</ele>
        <time>2020-10-19T14:11:43Z</time>
      </trkpt>
      <trkpt lat="42.8749200" lon="-7.8510720">
        <ele>627.7</ele>
        <time>2020-10-19T14:11:44Z</time>
      </trkpt>
      <trkpt lat="42.8749140" lon="-7.8510740">
        <ele>627.7</ele>
        <time>2020-10-19T14:11:45Z</time>
      </trkpt>
      <trkpt lat="42.8749090" lon="-7.8510840">
        <ele>627.6</ele>
        <time>2020-10-19T14:11:46Z</time>
      </trkpt>
      <trkpt lat="42.8749060" lon="-7.8511010">
        <ele>627.6</ele>
        <time>2020-10-19T14:11:47Z</time>
      </trkpt>
      <trkpt lat="42.8749020" lon="-7.8511190">
        <ele>627.6</ele>
        <time>2020-10-19T14:11:48Z</time>
      </trkpt>
      <trkpt lat="42.8749000" lon="-7.8511380">
        <ele>627.5</ele>
        <time>2020-10-19T14:11:49Z</time>
      </trkpt>
      <trkpt lat="42.8748970" lon="-7.8511560">
        <ele>627.5</ele>
        <time>2020-10-19T14:11:50Z</time>
      </trkpt>
      <trkpt lat="42.8748960" lon="-7.8511740">
        <ele>627.5</ele>
        <time>2020-10-19T14:11:51Z</time>
      </trkpt>
      <trkpt lat="42.8748930" lon="-7.8511910">
        <ele>627.4</ele>
        <time>2020-10-19T14:11:52Z</time>
      </trkpt>
      <trkpt lat="42.8748900" lon="-7.8512080">
        <ele>627.4</ele>
        <time>2020-10-19T14:11:53Z</time>
      </trkpt>
      <trkpt lat="42.8748870" lon="-7.8512240">
        <ele>627.4</ele>
        <time>2020-10-19T14:11:54Z</time>
      </trkpt>
      <trkpt lat="42.8748840" lon="-7.8512410">
        <ele>627.3</ele>
        <time>2020-10-19T14:11:55Z</time>
      </trkpt>
      <trkpt lat="42.8748810" lon="-7.8512580">
        <ele>627.3</ele>
        <time>2020-10-19T14:11:56Z</time>
      </trkpt>
      <trkpt lat="42.8748790" lon="-7.8512770">
        <ele>627.3</ele>
        <time>2020-10-19T14:11:57Z</time>
      </trkpt>
      <trkpt lat="42.8748780" lon="-7.8512970">
        <ele>627.2</ele>
        <time>2020-10-19T14:11:58Z</time>
      </trkpt>
      <trkpt lat="42.8748770" lon="-7.8513170">
        <ele>627.2</ele>
        <time>2020-10-19T14:11:59Z</time>
      </trkpt>
      <trkpt lat="42.8748750" lon="-7.8513370">
        <ele>627.2</ele>
        <time>2020-10-19T14:12:00Z</time>
      </trkpt>
      <trkpt lat="42.8748710" lon="-7.8513570">
        <ele>627.2</ele>
        <time>2020-10-19T14:12:01Z</time>
      </trkpt>
      <trkpt lat="42.8748680" lon="-7.8513770">
        <ele>627.1</ele>
        <time>2020-10-19T14:12:02Z</time>
      </trkpt>
      <trkpt lat="42.8748650" lon="-7.8513960">
        <ele>627.1</ele>
        <time>2020-10-19T14:12:03Z</time>
      </trkpt>
      <trkpt lat="42.8748610" lon="-7.8514160">
        <ele>627.1</ele>
        <time>2020-10-19T14:12:04Z</time>
      </trkpt>
      <trkpt lat="42.8748580" lon="-7.8514350">
        <ele>627.1</ele>
        <time>2020-10-19T14:12:05Z</time>
      </trkpt>
      <trkpt lat="42.8748540" lon="-7.8514540">
        <ele>627.0</ele>
        <time>2020-10-19T14:12:06Z</time>
      </trkpt>
      <trkpt lat="42.8748510" lon="-7.8514740">
        <ele>627.0</ele>
        <time>2020-10-19T14:12:07Z</time>
      </trkpt>
      <trkpt lat="42.8748460" lon="-7.8514930">
        <ele>627.0</ele>
        <time>2020-10-19T14:12:08Z</time>
      </trkpt>
      <trkpt lat="42.8748420" lon="-7.8515120">
        <ele>627.0</ele>
        <time>2020-10-19T14:12:09Z</time>
      </trkpt>
      <trkpt lat="42.8748370" lon="-7.8515310">
        <ele>626.9</ele>
        <time>2020-10-19T14:12:10Z</time>
      </trkpt>
      <trkpt lat="42.8748320" lon="-7.8515500">
        <ele>626.9</ele>
        <time>2020-10-19T14:12:11Z</time>
      </trkpt>
      <trkpt lat="42.8748260" lon="-7.8515690">
        <ele>626.9</ele>
        <time>2020-10-19T14:12:12Z</time>
      </trkpt>
      <trkpt lat="42.8748210" lon="-7.8515870">
        <ele>626.9</ele>
        <time>2020-10-19T14:12:13Z</time>
      </trkpt>
      <trkpt lat="42.8748160" lon="-7.8516040">
        <ele>626.9</ele>
        <time>2020-10-19T14:12:14Z</time>
      </trkpt>
      <trkpt lat="42.8748120" lon="-7.8516220">
        <ele>626.9</ele>
        <time>2020-10-19T14:12:15Z</time>
      </trkpt>
      <trkpt lat="42.8748080" lon="-7.8516390">
        <ele>626.8</ele>
        <time>2020-10-19T14:12:16Z</time>
      </trkpt>
      <trkpt lat="42.8748020" lon="-7.8516580">
        <ele>626.8</ele>
        <time>2020-10-19T14:12:17Z</time>
      </trkpt>
      <trkpt lat="42.8747970" lon="-7.8516750">
        <ele>626.8</ele>
        <time>2020-10-19T14:12:18Z</time>
      </trkpt>
      <trkpt lat="42.8747920" lon="-7.8516920">
        <ele>626.8</ele>
        <time>2020-10-19T14:12:19Z</time>
      </trkpt>
      <trkpt lat="42.8747890" lon="-7.8517080">
        <ele>626.8</ele>
        <time>2020-10-19T14:12:20Z</time>
      </trkpt>
      <trkpt lat="42.8747840" lon="-7.8517230">
        <ele>626.8</ele>
        <time>2020-10-19T14:12:21Z</time>
      </trkpt>
      <trkpt lat="42.8747810" lon="-7.8517390">
        <ele>626.8</ele>
        <time>2020-10-19T14:12:22Z</time>
      </trkpt>
      <trkpt lat="42.8747750" lon="-7.8517530">
        <ele>626.8</ele>
        <time>2020-10-19T14:12:23Z</time>
      </trkpt>
      <trkpt lat="42.8747670" lon="-7.8517670">
        <ele>626.8</ele>
        <time>2020-10-19T14:12:24Z</time>
      </trkpt>
      <trkpt lat="42.8747590" lon="-7.8517790">
        <ele>626.8</ele>
        <time>2020-10-19T14:12:25Z</time>
      </trkpt>
      <trkpt lat="42.8747520" lon="-7.8517910">
        <ele>626.8</ele>
        <time>2020-10-19T14:12:26Z</time>
      </trkpt>
      <trkpt lat="42.8747450" lon="-7.8518010">
        <ele>626.8</ele>
        <time>2020-10-19T14:12:27Z</time>
      </trkpt>
      <trkpt lat="42.8747390" lon="-7.8518100">
        <ele>626.8</ele>
        <time>2020-10-19T14:12:28Z</time>
      </trkpt>
      <trkpt lat="42.8747330" lon="-7.8518180">
        <ele>626.8</ele>
        <time>2020-10-19T14:12:29Z</time>
      </trkpt>
      <trkpt lat="42.8747260" lon="-7.8518250">
        <ele>626.8</ele>
        <time>2020-10-19T14:12:30Z</time>
      </trkpt>
      <trkpt lat="42.8747180" lon="-7.8518340">
        <ele>626.8</ele>
        <time>2020-10-19T14:12:31Z</time>
      </trkpt>
      <trkpt lat="42.8747090" lon="-7.8518460">
        <ele>626.8</ele>
        <time>2020-10-19T14:12:32Z</time>
      </trkpt>
      <trkpt lat="42.8746990" lon="-7.8518590">
        <ele>626.8</ele>
        <time>2020-10-19T14:12:33Z</time>
      </trkpt>
      <trkpt lat="42.8746890" lon="-7.8518690">
        <ele>626.8</ele>
        <time>2020-10-19T14:12:34Z</time>
      </trkpt>
      <trkpt lat="42.8746780" lon="-7.8518790">
        <ele>626.8</ele>
        <time>2020-10-19T14:12:35Z</time>
      </trkpt>
      <trkpt lat="42.8746650" lon="-7.8518890">
        <ele>626.8</ele>
        <time>2020-10-19T14:12:36Z</time>
      </trkpt>
      <trkpt lat="42.8746540" lon="-7.8518980">
        <ele>626.8</ele>
        <time>2020-10-19T14:12:37Z</time>
      </trkpt>
      <trkpt lat="42.8746450" lon="-7.8519070">
        <ele>626.8</ele>
        <time>2020-10-19T14:12:38Z</time>
      </trkpt>
      <trkpt lat="42.8746350" lon="-7.8519150">
        <ele>626.8</ele>
        <time>2020-10-19T14:12:39Z</time>
      </trkpt>
      <trkpt lat="42.8746230" lon="-7.8519230">
        <ele>626.8</ele>
        <time>2020-10-19T14:12:40Z</time>
      </trkpt>
      <trkpt lat="42.8746100" lon="-7.8519310">
        <ele>626.9</ele>
        <time>2020-10-19T14:12:41Z</time>
      </trkpt>
      <trkpt lat="42.8745980" lon="-7.8519400">
        <ele>626.9</ele>
        <time>2020-10-19T14:12:42Z</time>
      </trkpt>
      <trkpt lat="42.8745870" lon="-7.8519510">
        <ele>626.9</ele>
        <time>2020-10-19T14:12:43Z</time>
      </trkpt>
      <trkpt lat="42.8745780" lon="-7.8519630">
        <ele>626.9</ele>
        <time>2020-10-19T14:12:44Z</time>
      </trkpt>
      <trkpt lat="42.8745690" lon="-7.8519760">
        <ele>627.0</ele>
        <time>2020-10-19T14:12:45Z</time>
      </trkpt>
      <trkpt lat="42.8745610" lon="-7.8519890">
        <ele>627.0</ele>
        <time>2020-10-19T14:12:46Z</time>
      </trkpt>
      <trkpt lat="42.8745550" lon="-7.8520030">
        <ele>627.0</ele>
        <time>2020-10-19T14:12:47Z</time>
      </trkpt>
      <trkpt lat="42.8745510" lon="-7.8520200">
        <ele>627.0</ele>
        <time>2020-10-19T14:12:48Z</time>
      </trkpt>
      <trkpt lat="42.8745510" lon="-7.8520410">
        <ele>627.0</ele>
        <time>2020-10-19T14:12:49Z</time>
      </trkpt>
      <trkpt lat="42.8745500" lon="-7.8520640">
        <ele>627.1</ele>
        <time>2020-10-19T14:12:50Z</time>
      </trkpt>
      <trkpt lat="42.8745460" lon="-7.8520870">
        <ele>627.1</ele>
        <time>2020-10-19T14:12:51Z</time>
      </trkpt>
      <trkpt lat="42.8745420" lon="-7.8521080">
        <ele>627.1</ele>
        <time>2020-10-19T14:12:52Z</time>
      </trkpt>
      <trkpt lat="42.8745370" lon="-7.8521290">
        <ele>627.2</ele>
        <time>2020-10-19T14:12:53Z</time>
      </trkpt>
      <trkpt lat="42.8745320" lon="-7.8521490">
        <ele>627.2</ele>
        <time>2020-10-19T14:12:54Z</time>
      </trkpt>
      <trkpt lat="42.8745260" lon="-7.8521690">
        <ele>627.2</ele>
        <time>2020-10-19T14:12:55Z</time>
      </trkpt>
      <trkpt lat="42.8745220" lon="-7.8521900">
        <ele>627.3</ele>
        <time>2020-10-19T14:12:56Z</time>
      </trkpt>
      <trkpt lat="42.8745200" lon="-7.8522100">
        <ele>627.3</ele>
        <time>2020-10-19T14:12:57Z</time>
      </trkpt>
      <trkpt lat="42.8745190" lon="-7.8522300">
        <ele>627.3</ele>
        <time>2020-10-19T14:12:58Z</time>
      </trkpt>
      <trkpt lat="42.8745170" lon="-7.8522500">
        <ele>627.3</ele>
        <time>2020-10-19T14:12:59Z</time>
      </trkpt>
      <trkpt lat="42.8745130" lon="-7.8522680">
        <ele>627.3</ele>
        <time>2020-10-19T14:13:00Z</time>
      </trkpt>
      <trkpt lat="42.8745070" lon="-7.8522860">
        <ele>627.4</ele>
        <time>2020-10-19T14:13:01Z</time>
      </trkpt>
      <trkpt lat="42.8745010" lon="-7.8523020">
        <ele>627.4</ele>
        <time>2020-10-19T14:13:02Z</time>
      </trkpt>
      <trkpt lat="42.8744930" lon="-7.8523170">
        <ele>627.4</ele>
        <time>2020-10-19T14:13:03Z</time>
      </trkpt>
      <trkpt lat="42.8744840" lon="-7.8523320">
        <ele>627.4</ele>
        <time>2020-10-19T14:13:04Z</time>
      </trkpt>
      <trkpt lat="42.8744760" lon="-7.8523470">
        <ele>627.4</ele>
        <time>2020-10-19T14:13:05Z</time>
      </trkpt>
      <trkpt lat="42.8744690" lon="-7.8523630">
        <ele>627.4</ele>
        <time>2020-10-19T14:13:06Z</time>
      </trkpt>
      <trkpt lat="42.8744620" lon="-7.8523800">
        <ele>627.4</ele>
        <time>2020-10-19T14:13:07Z</time>
      </trkpt>
      <trkpt lat="42.8744530" lon="-7.8523970">
        <ele>627.4</ele>
        <time>2020-10-19T14:13:08Z</time>
      </trkpt>
      <trkpt lat="42.8744450" lon="-7.8524140">
        <ele>627.4</ele>
        <time>2020-10-19T14:13:09Z</time>
      </trkpt>
      <trkpt lat="42.8744370" lon="-7.8524300">
        <ele>627.4</ele>
        <time>2020-10-19T14:13:10Z</time>
      </trkpt>
      <trkpt lat="42.8744290" lon="-7.8524470">
        <ele>627.4</ele>
        <time>2020-10-19T14:13:11Z</time>
      </trkpt>
      <trkpt lat="42.8744220" lon="-7.8524620">
        <ele>627.4</ele>
        <time>2020-10-19T14:13:12Z</time>
      </trkpt>
      <trkpt lat="42.8744150" lon="-7.8524780">
        <ele>627.4</ele>
        <time>2020-10-19T14:13:13Z</time>
      </trkpt>
      <trkpt lat="42.8744080" lon="-7.8524920">
        <ele>627.4</ele>
        <time>2020-10-19T14:13:14Z</time>
      </trkpt>
      <trkpt lat="42.8744040" lon="-7.8525080">
        <ele>627.3</ele>
        <time>2020-10-19T14:13:15Z</time>
      </trkpt>
      <trkpt lat="42.8743990" lon="-7.8525250">
        <ele>627.3</ele>
        <time>2020-10-19T14:13:16Z</time>
      </trkpt>
      <trkpt lat="42.8743930" lon="-7.8525460">
        <ele>627.3</ele>
        <time>2020-10-19T14:13:17Z</time>
      </trkpt>
      <trkpt lat="42.8743880" lon="-7.8525650">
        <ele>627.3</ele>
        <time>2020-10-19T14:13:18Z</time>
      </trkpt>
      <trkpt lat="42.8743850" lon="-7.8525820">
        <ele>627.2</ele>
        <time>2020-10-19T14:13:19Z</time>
      </trkpt>
      <trkpt lat="42.8743810" lon="-7.8525980">
        <ele>627.2</ele>
        <time>2020-10-19T14:13:20Z</time>
      </trkpt>
      <trkpt lat="42.8743770" lon="-7.8526150">
        <ele>627.2</ele>
        <time>2020-10-19T14:13:21Z</time>
      </trkpt>
      <trkpt lat="42.8743720" lon="-7.8526320">
        <ele>627.2</ele>
        <time>2020-10-19T14:13:22Z</time>
      </trkpt>
      <trkpt lat="42.8743670" lon="-7.8526480">
        <ele>627.2</ele>
        <time>2020-10-19T14:13:23Z</time>
      </trkpt>
      <trkpt lat="42.8743620" lon="-7.8526650">
        <ele>627.1</ele>
        <time>2020-10-19T14:13:24Z</time>
      </trkpt>
      <trkpt lat="42.8743550" lon="-7.8526830">
        <ele>627.1</ele>
        <time>2020-10-19T14:13:25Z</time>
      </trkpt>
      <trkpt lat="42.8743470" lon="-7.8527010">
        <ele>627.1</ele>
        <time>2020-10-19T14:13:26Z</time>
      </trkpt>
      <trkpt lat="42.8743400" lon="-7.8527200">
        <ele>627.0</ele>
        <time>2020-10-19T14:13:27Z</time>
      </trkpt>
      <trkpt lat="42.8743340" lon="-7.8527380">
        <ele>627.0</ele>
        <time>2020-10-19T14:13:28Z</time>
      </trkpt>
      <trkpt lat="42.8743290" lon="-7.8527570">
        <ele>627.0</ele>
        <time>2020-10-19T14:13:29Z</time>
      </trkpt>
      <trkpt lat="42.8743250" lon="-7.8527760">
        <ele>626.9</ele>
        <time>2020-10-19T14:13:30Z</time>
      </trkpt>
      <trkpt lat="42.8743220" lon="-7.8527960">
        <ele>626.9</ele>
        <time>2020-10-19T14:13:31Z</time>
      </trkpt>
      <trkpt lat="42.8743190" lon="-7.8528150">
        <ele>626.8</ele>
        <time>2020-10-19T14:13:32Z</time>
      </trkpt>
      <trkpt lat="42.8743150" lon="-7.8528320">
        <ele>626.8</ele>
        <time>2020-10-19T14:13:33Z</time>
      </trkpt>
      <trkpt lat="42.8743110" lon="-7.8528490">
        <ele>626.8</ele>
        <time>2020-10-19T14:13:34Z</time>
      </trkpt>
      <trkpt lat="42.8743070" lon="-7.8528660">
        <ele>626.7</ele>
        <time>2020-10-19T14:13:35Z</time>
      </trkpt>
      <trkpt lat="42.8743050" lon="-7.8528850">
        <ele>626.7</ele>
        <time>2020-10-19T14:13:36Z</time>
      </trkpt>
      <trkpt lat="42.8743040" lon="-7.8529030">
        <ele>626.6</ele>
        <time>2020-10-19T14:13:37Z</time>
      </trkpt>
      <trkpt lat="42.8743020" lon="-7.8529210">
        <ele>626.6</ele>
        <time>2020-10-19T14:13:38Z</time>
      </trkpt>
      <trkpt lat="42.8742990" lon="-7.8529360">
        <ele>626.6</ele>
        <time>2020-10-19T14:13:39Z</time>
      </trkpt>
      <trkpt lat="42.8742970" lon="-7.8529510">
        <ele>626.5</ele>
        <time>2020-10-19T14:13:40Z</time>
      </trkpt>
      <trkpt lat="42.8742940" lon="-7.8529640">
        <ele>626.5</ele>
        <time>2020-10-19T14:13:41Z</time>
      </trkpt>
      <trkpt lat="42.8742910" lon="-7.8529780">
        <ele>626.5</ele>
        <time>2020-10-19T14:13:42Z</time>
      </trkpt>
      <trkpt lat="42.8742870" lon="-7.8529940">
        <ele>626.4</ele>
        <time>2020-10-19T14:13:43Z</time>
      </trkpt>
      <trkpt lat="42.8742850" lon="-7.8530130">
        <ele>626.4</ele>
        <time>2020-10-19T14:13:44Z</time>
      </trkpt>
      <trkpt lat="42.8742840" lon="-7.8530320">
        <ele>626.3</ele>
        <time>2020-10-19T14:13:45Z</time>
      </trkpt>
      <trkpt lat="42.8742840" lon="-7.8530520">
        <ele>626.3</ele>
        <time>2020-10-19T14:13:46Z</time>
      </trkpt>
      <trkpt lat="42.8742820" lon="-7.8530710">
        <ele>626.3</ele>
        <time>2020-10-19T14:13:47Z</time>
      </trkpt>
      <trkpt lat="42.8742800" lon="-7.8530910">
        <ele>626.2</ele>
        <time>2020-10-19T14:13:48Z</time>
      </trkpt>
      <trkpt lat="42.8742790" lon="-7.8531110">
        <ele>626.2</ele>
        <time>2020-10-19T14:13:49Z</time>
      </trkpt>
      <trkpt lat="42.8742780" lon="-7.8531290">
        <ele>626.1</ele>
        <time>2020-10-19T14:13:50Z</time>
      </trkpt>
      <trkpt lat="42.8742790" lon="-7.8531450">
        <ele>626.1</ele>
        <time>2020-10-19T14:13:51Z</time>
      </trkpt>
      <trkpt lat="42.8742800" lon="-7.8531610">
        <ele>626.0</ele>
        <time>2020-10-19T14:13:52Z</time>
      </trkpt>
      <trkpt lat="42.8742820" lon="-7.8531780">
        <ele>626.0</ele>
        <time>2020-10-19T14:13:53Z</time>
      </trkpt>
      <trkpt lat="42.8742810" lon="-7.8531980">
        <ele>626.0</ele>
        <time>2020-10-19T14:13:54Z</time>
      </trkpt>
      <trkpt lat="42.8742790" lon="-7.8532190">
        <ele>625.9</ele>
        <time>2020-10-19T14:13:55Z</time>
      </trkpt>
      <trkpt lat="42.8742750" lon="-7.8532400">
        <ele>625.9</ele>
        <time>2020-10-19T14:13:56Z</time>
      </trkpt>
      <trkpt lat="42.8742720" lon="-7.8532640">
        <ele>625.8</ele>
        <time>2020-10-19T14:13:57Z</time>
      </trkpt>
      <trkpt lat="42.8742710" lon="-7.8532850">
        <ele>625.8</ele>
        <time>2020-10-19T14:13:58Z</time>
      </trkpt>
      <trkpt lat="42.8742690" lon="-7.8533100">
        <ele>625.7</ele>
        <time>2020-10-19T14:13:59Z</time>
      </trkpt>
      <trkpt lat="42.8742680" lon="-7.8533320">
        <ele>625.7</ele>
        <time>2020-10-19T14:14:00Z</time>
      </trkpt>
      <trkpt lat="42.8742650" lon="-7.8533580">
        <ele>625.6</ele>
        <time>2020-10-19T14:14:01Z</time>
      </trkpt>
      <trkpt lat="42.8742630" lon="-7.8533780">
        <ele>625.6</ele>
        <time>2020-10-19T14:14:02Z</time>
      </trkpt>
      <trkpt lat="42.8742610" lon="-7.8533970">
        <ele>625.5</ele>
        <time>2020-10-19T14:14:03Z</time>
      </trkpt>
      <trkpt lat="42.8742600" lon="-7.8534140">
        <ele>625.5</ele>
        <time>2020-10-19T14:14:04Z</time>
      </trkpt>
      <trkpt lat="42.8742590" lon="-7.8534320">
        <ele>625.5</ele>
        <time>2020-10-19T14:14:05Z</time>
      </trkpt>
      <trkpt lat="42.8742590" lon="-7.8534530">
        <ele>625.4</ele>
        <time>2020-10-19T14:14:06Z</time>
      </trkpt>
      <trkpt lat="42.8742570" lon="-7.8534730">
        <ele>625.4</ele>
        <time>2020-10-19T14:14:07Z</time>
      </trkpt>
      <trkpt lat="42.8742570" lon="-7.8534920">
        <ele>625.4</ele>
        <time>2020-10-19T14:14:08Z</time>
      </trkpt>
      <trkpt lat="42.8742550" lon="-7.8535080">
        <ele>625.4</ele>
        <time>2020-10-19T14:14:09Z</time>
      </trkpt>
      <trkpt lat="42.8742550" lon="-7.8535240">
        <ele>625.3</ele>
        <time>2020-10-19T14:14:10Z</time>
      </trkpt>
      <trkpt lat="42.8742540" lon="-7.8535400">
        <ele>625.3</ele>
        <time>2020-10-19T14:14:11Z</time>
      </trkpt>
      <trkpt lat="42.8742560" lon="-7.8535570">
        <ele>625.3</ele>
        <time>2020-10-19T14:14:12Z</time>
      </trkpt>
      <trkpt lat="42.8742570" lon="-7.8535740">
        <ele>625.3</ele>
        <time>2020-10-19T14:14:13Z</time>
      </trkpt>
      <trkpt lat="42.8742580" lon="-7.8535900">
        <ele>625.2</ele>
        <time>2020-10-19T14:14:14Z</time>
      </trkpt>
      <trkpt lat="42.8742580" lon="-7.8536060">
        <ele>625.2</ele>
        <time>2020-10-19T14:14:15Z</time>
      </trkpt>
      <trkpt lat="42.8742590" lon="-7.8536200">
        <ele>625.2</ele>
        <time>2020-10-19T14:14:16Z</time>
      </trkpt>
      <trkpt lat="42.8742610" lon="-7.8536350">
        <ele>625.2</ele>
        <time>2020-10-19T14:14:17Z</time>
      </trkpt>
      <trkpt lat="42.8742620" lon="-7.8536490">
        <ele>625.1</ele>
        <time>2020-10-19T14:14:18Z</time>
      </trkpt>
      <trkpt lat="42.8742640" lon="-7.8536640">
        <ele>625.1</ele>
        <time>2020-10-19T14:14:19Z</time>
      </trkpt>
      <trkpt lat="42.8742670" lon="-7.8536770">
        <ele>625.1</ele>
        <time>2020-10-19T14:14:20Z</time>
      </trkpt>
      <trkpt lat="42.8742710" lon="-7.8536890">
        <ele>625.1</ele>
        <time>2020-10-19T14:14:21Z</time>
      </trkpt>
      <trkpt lat="42.8742740" lon="-7.8537000">
        <ele>625.1</ele>
        <time>2020-10-19T14:14:22Z</time>
      </trkpt>
      <trkpt lat="42.8742760" lon="-7.8537110">
        <ele>625.1</ele>
        <time>2020-10-19T14:14:23Z</time>
      </trkpt>
      <trkpt lat="42.8742790" lon="-7.8537230">
        <ele>625.0</ele>
        <time>2020-10-19T14:14:24Z</time>
      </trkpt>
      <trkpt lat="42.8742830" lon="-7.8537350">
        <ele>625.0</ele>
        <time>2020-10-19T14:14:25Z</time>
      </trkpt>
      <trkpt lat="42.8742850" lon="-7.8537470">
        <ele>625.0</ele>
        <time>2020-10-19T14:14:26Z</time>
      </trkpt>
      <trkpt lat="42.8742850" lon="-7.8537610">
        <ele>625.0</ele>
        <time>2020-10-19T14:14:27Z</time>
      </trkpt>
      <trkpt lat="42.8742800" lon="-7.8537800">
        <ele>625.0</ele>
        <time>2020-10-19T14:14:28Z</time>
      </trkpt>
      <trkpt lat="42.8742710" lon="-7.8538020">
        <ele>624.9</ele>
        <time>2020-10-19T14:14:29Z</time>
      </trkpt>
      <trkpt lat="42.8742630" lon="-7.8538240">
        <ele>624.9</ele>
        <time>2020-10-19T14:14:30Z</time>
      </trkpt>
      <trkpt lat="42.8742600" lon="-7.8538430">
        <ele>624.9</ele>
        <time>2020-10-19T14:14:31Z</time>
      </trkpt>
      <trkpt lat="42.8742620" lon="-7.8538590">
        <ele>624.9</ele>
        <time>2020-10-19T14:14:32Z</time>
      </trkpt>
      <trkpt lat="42.8742640" lon="-7.8538730">
        <ele>624.8</ele>
        <time>2020-10-19T14:14:33Z</time>
      </trkpt>
      <trkpt lat="42.8742640" lon="-7.8538860">
        <ele>624.8</ele>
        <time>2020-10-19T14:14:34Z</time>
      </trkpt>
      <trkpt lat="42.8742620" lon="-7.8538970">
        <ele>624.8</ele>
        <time>2020-10-19T14:14:35Z</time>
      </trkpt>
      <trkpt lat="42.8742600" lon="-7.8539090">
        <ele>624.8</ele>
        <time>2020-10-19T14:14:36Z</time>
      </trkpt>
      <trkpt lat="42.8742580" lon="-7.8539220">
        <ele>624.8</ele>
        <time>2020-10-19T14:14:37Z</time>
      </trkpt>
      <trkpt lat="42.8742540" lon="-7.8539330">
        <ele>624.8</ele>
        <time>2020-10-19T14:14:38Z</time>
      </trkpt>
      <trkpt lat="42.8742490" lon="-7.8539440">
        <ele>624.7</ele>
        <time>2020-10-19T14:14:39Z</time>
      </trkpt>
      <trkpt lat="42.8742440" lon="-7.8539550">
        <ele>624.7</ele>
        <time>2020-10-19T14:14:40Z</time>
      </trkpt>
      <trkpt lat="42.8742400" lon="-7.8539660">
        <ele>624.7</ele>
        <time>2020-10-19T14:14:41Z</time>
      </trkpt>
      <trkpt lat="42.8742380" lon="-7.8539780">
        <ele>624.7</ele>
        <time>2020-10-19T14:14:42Z</time>
      </trkpt>
      <trkpt lat="42.8742370" lon="-7.8539900">
        <ele>624.7</ele>
        <time>2020-10-19T14:14:43Z</time>
      </trkpt>
      <trkpt lat="42.8742360" lon="-7.8540010">
        <ele>624.7</ele>
        <time>2020-10-19T14:14:44Z</time>
      </trkpt>
      <trkpt lat="42.8742340" lon="-7.8540120">
        <ele>624.6</ele>
        <time>2020-10-19T14:14:45Z</time>
      </trkpt>
      <trkpt lat="42.8742320" lon="-7.8540230">
        <ele>624.6</ele>
        <time>2020-10-19T14:14:46Z</time>
      </trkpt>
      <trkpt lat="42.8742310" lon="-7.8540340">
        <ele>624.6</ele>
        <time>2020-10-19T14:14:47Z</time>
      </trkpt>
      <trkpt lat="42.8742290" lon="-7.8540460">
        <ele>624.6</ele>
        <time>2020-10-19T14:14:48Z</time>
      </trkpt>
      <trkpt lat="42.8742280" lon="-7.8540640">
        <ele>624.6</ele>
        <time>2020-10-19T14:14:49Z</time>
      </trkpt>
      <trkpt lat="42.8742270" lon="-7.8540850">
        <ele>624.5</ele>
        <time>2020-10-19T14:14:50Z</time>
      </trkpt>
      <trkpt lat="42.8742300" lon="-7.8541060">
        <ele>624.5</ele>
        <time>2020-10-19T14:14:51Z</time>
      </trkpt>
      <trkpt lat="42.8742330" lon="-7.8541260">
        <ele>624.5</ele>
        <time>2020-10-19T14:14:52Z</time>
      </trkpt>
      <trkpt lat="42.8742340" lon="-7.8541430">
        <ele>624.5</ele>
        <time>2020-10-19T14:14:53Z</time>
      </trkpt>
      <trkpt lat="42.8742310" lon="-7.8541580">
        <ele>624.4</ele>
        <time>2020-10-19T14:14:54Z</time>
      </trkpt>
      <trkpt lat="42.8742250" lon="-7.8541670">
        <ele>624.4</ele>
        <time>2020-10-19T14:14:55Z</time>
      </trkpt>
      <trkpt lat="42.8742200" lon="-7.8541740">
        <ele>624.4</ele>
        <time>2020-10-19T14:14:56Z</time>
      </trkpt>
      <trkpt lat="42.8742170" lon="-7.8541800">
        <ele>624.4</ele>
        <time>2020-10-19T14:14:57Z</time>
      </trkpt>
      <trkpt lat="42.8742130" lon="-7.8541830">
        <ele>624.4</ele>
        <time>2020-10-19T14:14:58Z</time>
      </trkpt>
      <trkpt lat="42.8742090" lon="-7.8541850">
        <ele>624.4</ele>
        <time>2020-10-19T14:14:59Z</time>
      </trkpt>
      <trkpt lat="42.8742050" lon="-7.8541850">
        <ele>624.4</ele>
        <time>2020-10-19T14:15:00Z</time>
      </trkpt>
      <trkpt lat="42.8742000" lon="-7.8541840">
        <ele>624.4</ele>
        <time>2020-10-19T14:15:01Z</time>
      </trkpt>
      <trkpt lat="42.8741960" lon="-7.8541850">
        <ele>624.4</ele>
        <time>2020-10-19T14:15:02Z</time>
      </trkpt>
      <trkpt lat="42.8741920" lon="-7.8541870">
        <ele>624.3</ele>
        <time>2020-10-19T14:15:03Z</time>
      </trkpt>
      <trkpt lat="42.8741890" lon="-7.8541890">
        <ele>624.3</ele>
        <time>2020-10-19T14:15:04Z</time>
      </trkpt>
      <trkpt lat="42.8741860" lon="-7.8541910">
        <ele>624.3</ele>
        <time>2020-10-19T14:15:05Z</time>
      </trkpt>
      <trkpt lat="42.8741820" lon="-7.8541920">
        <ele>624.3</ele>
        <time>2020-10-19T14:15:06Z</time>
      </trkpt>
      <trkpt lat="42.8741790" lon="-7.8541930">
        <ele>624.3</ele>
        <time>2020-10-19T14:15:07Z</time>
      </trkpt>
      <trkpt lat="42.8741760" lon="-7.8541950">
        <ele>624.3</ele>
        <time>2020-10-19T14:15:08Z</time>
      </trkpt>
      <trkpt lat="42.8741730" lon="-7.8541980">
        <ele>624.3</ele>
        <time>2020-10-19T14:15:09Z</time>
      </trkpt>
      <trkpt lat="42.8741700" lon="-7.8542020">
        <ele>624.3</ele>
        <time>2020-10-19T14:15:10Z</time>
      </trkpt>
      <trkpt lat="42.8741660" lon="-7.8542070">
        <ele>624.3</ele>
        <time>2020-10-19T14:15:11Z</time>
      </trkpt>
      <trkpt lat="42.8741630" lon="-7.8542110">
        <ele>624.3</ele>
        <time>2020-10-19T14:15:12Z</time>
      </trkpt>
      <trkpt lat="42.8741610" lon="-7.8542140">
        <ele>624.3</ele>
        <time>2020-10-19T14:15:13Z</time>
      </trkpt>
      <trkpt lat="42.8741580" lon="-7.8542180">
        <ele>624.2</ele>
        <time>2020-10-19T14:15:14Z</time>
      </trkpt>
      <trkpt lat="42.8741540" lon="-7.8542210">
        <ele>624.2</ele>
        <time>2020-10-19T14:15:15Z</time>
      </trkpt>
      <trkpt lat="42.8741510" lon="-7.8542250">
        <ele>624.2</ele>
        <time>2020-10-19T14:15:16Z</time>
      </trkpt>
      <trkpt lat="42.8741480" lon="-7.8542280">
        <ele>624.2</ele>
        <time>2020-10-19T14:15:17Z</time>
      </trkpt>
      <trkpt lat="42.8741460" lon="-7.8542310">
        <ele>624.2</ele>
        <time>2020-10-19T14:15:18Z</time>
      </trkpt>
      <trkpt lat="42.8741440" lon="-7.8542320">
        <ele>624.2</ele>
        <time>2020-10-19T14:15:19Z</time>
      </trkpt>
      <trkpt lat="42.8741420" lon="-7.8542340">
        <ele>624.2</ele>
        <time>2020-10-19T14:15:20Z</time>
      </trkpt>
      <trkpt lat="42.8741390" lon="-7.8542330">
        <ele>624.2</ele>
        <time>2020-10-19T14:15:21Z</time>
      </trkpt>
      <trkpt lat="42.8741380" lon="-7.8542340">
        <ele>624.2</ele>
        <time>2020-10-19T14:15:22Z</time>
      </trkpt>
      <trkpt lat="42.8741370" lon="-7.8542340">
        <ele>624.2</ele>
        <time>2020-10-19T14:15:23Z</time>
      </trkpt>
      <trkpt lat="42.8741360" lon="-7.8542330">
        <ele>624.2</ele>
        <time>2020-10-19T14:15:24Z</time>
      </trkpt>
      <trkpt lat="42.8741320" lon="-7.8542290">
        <ele>624.2</ele>
        <time>2020-10-19T14:15:25Z</time>
      </trkpt>
      <trkpt lat="42.8741270" lon="-7.8542240">
        <ele>624.2</ele>
        <time>2020-10-19T14:15:26Z</time>
      </trkpt>
      <trkpt lat="42.8741230" lon="-7.8542210">
        <ele>624.1</ele>
        <time>2020-10-19T14:15:27Z</time>
      </trkpt>
      <trkpt lat="42.8741200" lon="-7.8542200">
        <ele>624.1</ele>
        <time>2020-10-19T14:15:28Z</time>
      </trkpt>
      <trkpt lat="42.8741190" lon="-7.8542200">
        <ele>624.1</ele>
        <time>2020-10-19T14:15:29Z</time>
      </trkpt>
      <trkpt lat="42.8741170" lon="-7.8542190">
        <ele>624.1</ele>
        <time>2020-10-19T14:15:30Z</time>
      </trkpt>
      <trkpt lat="42.8741170" lon="-7.8542180">
        <ele>624.1</ele>
        <time>2020-10-19T14:15:31Z</time>
      </trkpt>
      <trkpt lat="42.8741160" lon="-7.8542160">
        <ele>624.1</ele>
        <time>2020-10-19T14:15:32Z</time>
      </trkpt>
      <trkpt lat="42.8741160" lon="-7.8542150">
        <ele>624.1</ele>
        <time>2020-10-19T14:15:33Z</time>
      </trkpt>
      <trkpt lat="42.8741140" lon="-7.8542140">
        <ele>624.1</ele>
        <time>2020-10-19T14:15:34Z</time>
      </trkpt>
      <trkpt lat="42.8741130" lon="-7.8542130">
        <ele>624.1</ele>
        <time>2020-10-19T14:15:35Z</time>
      </trkpt>
      <trkpt lat="42.8741120" lon="-7.8542120">
        <ele>624.1</ele>
        <time>2020-10-19T14:15:36Z</time>
      </trkpt>
      <trkpt lat="42.8741100" lon="-7.8542090">
        <ele>624.1</ele>
        <time>2020-10-19T14:15:37Z</time>
      </trkpt>
      <trkpt lat="42.8741060" lon="-7.8542050">
        <ele>624.1</ele>
        <time>2020-10-19T14:15:38Z</time>
      </trkpt>
      <trkpt lat="42.8741040" lon="-7.8542010">
        <ele>624.1</ele>
        <time>2020-10-19T14:15:39Z</time>
      </trkpt>
      <trkpt lat="42.8741030" lon="-7.8541990">
        <ele>624.1</ele>
        <time>2020-10-19T14:15:40Z</time>
      </trkpt>
      <trkpt lat="42.8741020" lon="-7.8541970">
        <ele>624.1</ele>
        <time>2020-10-19T14:15:41Z</time>
      </trkpt>
      <trkpt lat="42.8741010" lon="-7.8541960">
        <ele>624.1</ele>
        <time>2020-10-19T14:15:42Z</time>
      </trkpt>
      <trkpt lat="42.8740980" lon="-7.8541960">
        <ele>624.1</ele>
        <time>2020-10-19T14:15:43Z</time>
      </trkpt>
      <trkpt lat="42.8740980" lon="-7.8541990">
        <ele>624.1</ele>
        <time>2020-10-19T14:15:44Z</time>
      </trkpt>
      <trkpt lat="42.8740980" lon="-7.8542040">
        <ele>624.0</ele>
        <time>2020-10-19T14:15:45Z</time>
      </trkpt>
      <trkpt lat="42.8741020" lon="-7.8542170">
        <ele>624.0</ele>
        <time>2020-10-19T14:15:46Z</time>
      </trkpt>
      <trkpt lat="42.8741070" lon="-7.8542330">
        <ele>624.0</ele>
        <time>2020-10-19T14:15:47Z</time>
      </trkpt>
      <trkpt lat="42.8741160" lon="-7.8542580">
        <ele>623.9</ele>
        <time>2020-10-19T14:15:48Z</time>
      </trkpt>
      <trkpt lat="42.8741230" lon="-7.8542840">
        <ele>623.9</ele>
        <time>2020-10-19T14:15:49Z</time>
      </trkpt>
      <trkpt lat="42.8741270" lon="-7.8543080">
        <ele>623.9</ele>
        <time>2020-10-19T14:15:50Z</time>
      </trkpt>
      <trkpt lat="42.8741280" lon="-7.8543270">
        <ele>623.8</ele>
        <time>2020-10-19T14:15:51Z</time>
      </trkpt>
      <trkpt lat="42.8741250" lon="-7.8543450">
        <ele>623.8</ele>
        <time>2020-10-19T14:15:52Z</time>
      </trkpt>
      <trkpt lat="42.8741220" lon="-7.8543650">
        <ele>623.7</ele>
        <time>2020-10-19T14:15:53Z</time>
      </trkpt>
      <trkpt lat="42.8741140" lon="-7.8543840">
        <ele>623.7</ele>
        <time>2020-10-19T14:15:54Z</time>
      </trkpt>
      <trkpt lat="42.8741080" lon="-7.8544010">
        <ele>623.7</ele>
        <time>2020-10-19T14:15:55Z</time>
      </trkpt>
      <trkpt lat="42.8741020" lon="-7.8544190">
        <ele>623.6</ele>
        <time>2020-10-19T14:15:56Z</time>
      </trkpt>
      <trkpt lat="42.8741010" lon="-7.8544420">
        <ele>623.6</ele>
        <time>2020-10-19T14:15:57Z</time>
      </trkpt>
      <trkpt lat="42.8741030" lon="-7.8544670">
        <ele>623.6</ele>
        <time>2020-10-19T14:15:58Z</time>
      </trkpt>
      <trkpt lat="42.8741060" lon="-7.8544920">
        <ele>623.5</ele>
        <time>2020-10-19T14:15:59Z</time>
      </trkpt>
      <trkpt lat="42.8741060" lon="-7.8545120">
        <ele>623.5</ele>
        <time>2020-10-19T14:16:00Z</time>
      </trkpt>
      <trkpt lat="42.8741050" lon="-7.8545320">
        <ele>623.4</ele>
        <time>2020-10-19T14:16:01Z</time>
      </trkpt>
      <trkpt lat="42.8741030" lon="-7.8545500">
        <ele>623.4</ele>
        <time>2020-10-19T14:16:02Z</time>
      </trkpt>
      <trkpt lat="42.8740990" lon="-7.8545680">
        <ele>623.4</ele>
        <time>2020-10-19T14:16:03Z</time>
      </trkpt>
      <trkpt lat="42.8740950" lon="-7.8545850">
        <ele>623.3</ele>
        <time>2020-10-19T14:16:04Z</time>
      </trkpt>
      <trkpt lat="42.8740900" lon="-7.8546030">
        <ele>623.3</ele>
        <time>2020-10-19T14:16:05Z</time>
      </trkpt>
      <trkpt lat="42.8740840" lon="-7.8546230">
        <ele>623.3</ele>
        <time>2020-10-19T14:16:06Z</time>
      </trkpt>
      <trkpt lat="42.8740790" lon="-7.8546450">
        <ele>623.2</ele>
        <time>2020-10-19T14:16:07Z</time>
      </trkpt>
      <trkpt lat="42.8740750" lon="-7.8546660">
        <ele>623.2</ele>
        <time>2020-10-19T14:16:08Z</time>
      </trkpt>
      <trkpt lat="42.8740710" lon="-7.8546880">
        <ele>623.1</ele>
        <time>2020-10-19T14:16:09Z</time>
      </trkpt>
      <trkpt lat="42.8740660" lon="-7.8547090">
        <ele>623.1</ele>
        <time>2020-10-19T14:16:10Z</time>
      </trkpt>
      <trkpt lat="42.8740610" lon="-7.8547300">
        <ele>623.1</ele>
        <time>2020-10-19T14:16:11Z</time>
      </trkpt>
      <trkpt lat="42.8740560" lon="-7.8547490">
        <ele>623.0</ele>
        <time>2020-10-19T14:16:12Z</time>
      </trkpt>
      <trkpt lat="42.8740520" lon="-7.8547680">
        <ele>623.0</ele>
        <time>2020-10-19T14:16:13Z</time>
      </trkpt>
      <trkpt lat="42.8740490" lon="-7.8547880">
        <ele>622.9</ele>
        <time>2020-10-19T14:16:14Z</time>
      </trkpt>
      <trkpt lat="42.8740440" lon="-7.8548090">
        <ele>622.9</ele>
        <time>2020-10-19T14:16:15Z</time>
      </trkpt>
      <trkpt lat="42.8740400" lon="-7.8548300">
        <ele>622.8</ele>
        <time>2020-10-19T14:16:16Z</time>
      </trkpt>
      <trkpt lat="42.8740370" lon="-7.8548490">
        <ele>622.7</ele>
        <time>2020-10-19T14:16:17Z</time>
      </trkpt>
      <trkpt lat="42.8740350" lon="-7.8548670">
        <ele>622.6</ele>
        <time>2020-10-19T14:16:18Z</time>
      </trkpt>
      <trkpt lat="42.8740340" lon="-7.8548850">
        <ele>622.6</ele>
        <time>2020-10-19T14:16:19Z</time>
      </trkpt>
      <trkpt lat="42.8740310" lon="-7.8549050">
        <ele>622.5</ele>
        <time>2020-10-19T14:16:20Z</time>
      </trkpt>
      <trkpt lat="42.8740290" lon="-7.8549250">
        <ele>622.4</ele>
        <time>2020-10-19T14:16:21Z</time>
      </trkpt>
      <trkpt lat="42.8740260" lon="-7.8549440">
        <ele>622.3</ele>
        <time>2020-10-19T14:16:22Z</time>
      </trkpt>
      <trkpt lat="42.8740230" lon="-7.8549650">
        <ele>622.2</ele>
        <time>2020-10-19T14:16:23Z</time>
      </trkpt>
      <trkpt lat="42.8740210" lon="-7.8549870">
        <ele>622.1</ele>
        <time>2020-10-19T14:16:24Z</time>
      </trkpt>
      <trkpt lat="42.8740180" lon="-7.8550080">
        <ele>622.0</ele>
        <time>2020-10-19T14:16:25Z</time>
      </trkpt>
      <trkpt lat="42.8740180" lon="-7.8550310">
        <ele>621.9</ele>
        <time>2020-10-19T14:16:26Z</time>
      </trkpt>
      <trkpt lat="42.8740180" lon="-7.8550550">
        <ele>621.8</ele>
        <time>2020-10-19T14:16:27Z</time>
      </trkpt>
      <trkpt lat="42.8740170" lon="-7.8550850">
        <ele>621.6</ele>
        <time>2020-10-19T14:16:28Z</time>
      </trkpt>
      <trkpt lat="42.8740150" lon="-7.8551160">
        <ele>621.4</ele>
        <time>2020-10-19T14:16:29Z</time>
      </trkpt>
      <trkpt lat="42.8740130" lon="-7.8551480">
        <ele>621.2</ele>
        <time>2020-10-19T14:16:30Z</time>
      </trkpt>
      <trkpt lat="42.8740120" lon="-7.8551780">
        <ele>621.1</ele>
        <time>2020-10-19T14:16:31Z</time>
      </trkpt>
      <trkpt lat="42.8740100" lon="-7.8552080">
        <ele>620.9</ele>
        <time>2020-10-19T14:16:32Z</time>
      </trkpt>
      <trkpt lat="42.8740090" lon="-7.8552370">
        <ele>620.7</ele>
        <time>2020-10-19T14:16:33Z</time>
      </trkpt>
      <trkpt lat="42.8740080" lon="-7.8552660">
        <ele>620.5</ele>
        <time>2020-10-19T14:16:34Z</time>
      </trkpt>
      <trkpt lat="42.8740070" lon="-7.8552920">
        <ele>620.4</ele>
        <time>2020-10-19T14:16:35Z</time>
      </trkpt>
      <trkpt lat="42.8740080" lon="-7.8553170">
        <ele>620.2</ele>
        <time>2020-10-19T14:16:36Z</time>
      </trkpt>
      <trkpt lat="42.8740070" lon="-7.8553400">
        <ele>620.0</ele>
        <time>2020-10-19T14:16:37Z</time>
      </trkpt>
      <trkpt lat="42.8740080" lon="-7.8553610">
        <ele>619.9</ele>
        <time>2020-10-19T14:16:38Z</time>
      </trkpt>
      <trkpt lat="42.8740090" lon="-7.8553820">
        <ele>619.8</ele>
        <time>2020-10-19T14:16:39Z</time>
      </trkpt>
      <trkpt lat="42.8740080" lon="-7.8554010">
        <ele>619.7</ele>
        <time>2020-10-19T14:16:40Z</time>
      </trkpt>
      <trkpt lat="42.8740070" lon="-7.8554220">
        <ele>619.5</ele>
        <time>2020-10-19T14:16:41Z</time>
      </trkpt>
      <trkpt lat="42.8740050" lon="-7.8554470">
        <ele>619.4</ele>
        <time>2020-10-19T14:16:42Z</time>
      </trkpt>
      <trkpt lat="42.8740040" lon="-7.8554770">
        <ele>619.2</ele>
        <time>2020-10-19T14:16:43Z</time>
      </trkpt>
      <trkpt lat="42.8740040" lon="-7.8555100">
        <ele>619.0</ele>
        <time>2020-10-19T14:16:44Z</time>
      </trkpt>
      <trkpt lat="42.8740050" lon="-7.8555430">
        <ele>618.8</ele>
        <time>2020-10-19T14:16:45Z</time>
      </trkpt>
      <trkpt lat="42.8740050" lon="-7.8555810">
        <ele>618.6</ele>
        <time>2020-10-19T14:16:46Z</time>
      </trkpt>
      <trkpt lat="42.8740050" lon="-7.8556210">
        <ele>618.3</ele>
        <time>2020-10-19T14:16:47Z</time>
      </trkpt>
      <trkpt lat="42.8740010" lon="-7.8556630">
        <ele>618.1</ele>
        <time>2020-10-19T14:16:48Z</time>
      </trkpt>
      <trkpt lat="42.8740010" lon="-7.8557020">
        <ele>617.9</ele>
        <time>2020-10-19T14:16:49Z</time>
      </trkpt>
      <trkpt lat="42.8739960" lon="-7.8557380">
        <ele>617.7</ele>
        <time>2020-10-19T14:16:50Z</time>
      </trkpt>
      <trkpt lat="42.8739940" lon="-7.8557720">
        <ele>617.5</ele>
        <time>2020-10-19T14:16:51Z</time>
      </trkpt>
      <trkpt lat="42.8739900" lon="-7.8558110">
        <ele>617.3</ele>
        <time>2020-10-19T14:16:52Z</time>
      </trkpt>
      <trkpt lat="42.8739880" lon="-7.8558560">
        <ele>617.1</ele>
        <time>2020-10-19T14:16:53Z</time>
      </trkpt>
      <trkpt lat="42.8739870" lon="-7.8559040">
        <ele>616.8</ele>
        <time>2020-10-19T14:16:54Z</time>
      </trkpt>
      <trkpt lat="42.8739840" lon="-7.8559500">
        <ele>616.6</ele>
        <time>2020-10-19T14:16:55Z</time>
      </trkpt>
      <trkpt lat="42.8739810" lon="-7.8559970">
        <ele>616.3</ele>
        <time>2020-10-19T14:16:56Z</time>
      </trkpt>
      <trkpt lat="42.8739770" lon="-7.8560400">
        <ele>616.1</ele>
        <time>2020-10-19T14:16:57Z</time>
      </trkpt>
      <trkpt lat="42.8739740" lon="-7.8560880">
        <ele>615.9</ele>
        <time>2020-10-19T14:16:58Z</time>
      </trkpt>
      <trkpt lat="42.8739710" lon="-7.8561330">
        <ele>615.7</ele>
        <time>2020-10-19T14:16:59Z</time>
      </trkpt>
      <trkpt lat="42.8739680" lon="-7.8561840">
        <ele>615.5</ele>
        <time>2020-10-19T14:17:00Z</time>
      </trkpt>
      <trkpt lat="42.8739650" lon="-7.8562320">
        <ele>615.3</ele>
        <time>2020-10-19T14:17:01Z</time>
      </trkpt>
      <trkpt lat="42.8739630" lon="-7.8562790">
        <ele>615.1</ele>
        <time>2020-10-19T14:17:02Z</time>
      </trkpt>
      <trkpt lat="42.8739600" lon="-7.8563210">
        <ele>615.0</ele>
        <time>2020-10-19T14:17:03Z</time>
      </trkpt>
      <trkpt lat="42.8739570" lon="-7.8563630">
        <ele>614.8</ele>
        <time>2020-10-19T14:17:04Z</time>
      </trkpt>
      <trkpt lat="42.8739500" lon="-7.8564070">
        <ele>614.6</ele>
        <time>2020-10-19T14:17:05Z</time>
      </trkpt>
      <trkpt lat="42.8739430" lon="-7.8564500">
        <ele>614.5</ele>
        <time>2020-10-19T14:17:06Z</time>
      </trkpt>
      <trkpt lat="42.8739330" lon="-7.8565000">
        <ele>614.2</ele>
        <time>2020-10-19T14:17:07Z</time>
      </trkpt>
      <trkpt lat="42.8739240" lon="-7.8565480">
        <ele>614.1</ele>
        <time>2020-10-19T14:17:08Z</time>
      </trkpt>
      <trkpt lat="42.8739160" lon="-7.8565980">
        <ele>613.9</ele>
        <time>2020-10-19T14:17:09Z</time>
      </trkpt>
      <trkpt lat="42.8739110" lon="-7.8566460">
        <ele>613.7</ele>
        <time>2020-10-19T14:17:10Z</time>
      </trkpt>
      <trkpt lat="42.8739060" lon="-7.8566930">
        <ele>613.5</ele>
        <time>2020-10-19T14:17:11Z</time>
      </trkpt>
      <trkpt lat="42.8739010" lon="-7.8567370">
        <ele>613.3</ele>
        <time>2020-10-19T14:17:12Z</time>
      </trkpt>
      <trkpt lat="42.8738950" lon="-7.8567820">
        <ele>613.1</ele>
        <time>2020-10-19T14:17:13Z</time>
      </trkpt>
      <trkpt lat="42.8738900" lon="-7.8568270">
        <ele>612.9</ele>
        <time>2020-10-19T14:17:14Z</time>
      </trkpt>
      <trkpt lat="42.8738850" lon="-7.8568750">
        <ele>612.7</ele>
        <time>2020-10-19T14:17:15Z</time>
      </trkpt>
      <trkpt lat="42.8738790" lon="-7.8569260">
        <ele>612.4</ele>
        <time>2020-10-19T14:17:16Z</time>
      </trkpt>
      <trkpt lat="42.8738760" lon="-7.8569760">
        <ele>612.2</ele>
        <time>2020-10-19T14:17:17Z</time>
      </trkpt>
      <trkpt lat="42.8738740" lon="-7.8570280">
        <ele>612.0</ele>
        <time>2020-10-19T14:17:18Z</time>
      </trkpt>
      <trkpt lat="42.8738750" lon="-7.8570770">
        <ele>611.7</ele>
        <time>2020-10-19T14:17:19Z</time>
      </trkpt>
      <trkpt lat="42.8738770" lon="-7.8571290">
        <ele>611.5</ele>
        <time>2020-10-19T14:17:20Z</time>
      </trkpt>
      <trkpt lat="42.8738780" lon="-7.8571770">
        <ele>611.2</ele>
        <time>2020-10-19T14:17:21Z</time>
      </trkpt>
      <trkpt lat="42.8738800" lon="-7.8572280">
        <ele>611.0</ele>
        <time>2020-10-19T14:17:22Z</time>
      </trkpt>
      <trkpt lat="42.8738820" lon="-7.8572760">
        <ele>610.7</ele>
        <time>2020-10-19T14:17:23Z</time>
      </trkpt>
      <trkpt lat="42.8738860" lon="-7.8573250">
        <ele>610.4</ele>
        <time>2020-10-19T14:17:24Z</time>
      </trkpt>
      <trkpt lat="42.8738870" lon="-7.8573760">
        <ele>610.1</ele>
        <time>2020-10-19T14:17:25Z</time>
      </trkpt>
      <trkpt lat="42.8738890" lon="-7.8574270">
        <ele>609.8</ele>
        <time>2020-10-19T14:17:26Z</time>
      </trkpt>
      <trkpt lat="42.8738890" lon="-7.8574770">
        <ele>609.5</ele>
        <time>2020-10-19T14:17:27Z</time>
      </trkpt>
      <trkpt lat="42.8738920" lon="-7.8575210">
        <ele>609.2</ele>
        <time>2020-10-19T14:17:28Z</time>
      </trkpt>
      <trkpt lat="42.8738930" lon="-7.8575640">
        <ele>608.9</ele>
        <time>2020-10-19T14:17:29Z</time>
      </trkpt>
      <trkpt lat="42.8738920" lon="-7.8576050">
        <ele>608.6</ele>
        <time>2020-10-19T14:17:30Z</time>
      </trkpt>
      <trkpt lat="42.8738910" lon="-7.8576480">
        <ele>608.3</ele>
        <time>2020-10-19T14:17:31Z</time>
      </trkpt>
      <trkpt lat="42.8738880" lon="-7.8576910">
        <ele>608.0</ele>
        <time>2020-10-19T14:17:32Z</time>
      </trkpt>
      <trkpt lat="42.8738860" lon="-7.8577330">
        <ele>607.7</ele>
        <time>2020-10-19T14:17:33Z</time>
      </trkpt>
      <trkpt lat="42.8738810" lon="-7.8577740">
        <ele>607.4</ele>
        <time>2020-10-19T14:17:34Z</time>
      </trkpt>
      <trkpt lat="42.8738770" lon="-7.8578120">
        <ele>607.2</ele>
        <time>2020-10-19T14:17:35Z</time>
      </trkpt>
      <trkpt lat="42.8738720" lon="-7.8578530">
        <ele>606.9</ele>
        <time>2020-10-19T14:17:36Z</time>
      </trkpt>
      <trkpt lat="42.8738700" lon="-7.8578930">
        <ele>606.7</ele>
        <time>2020-10-19T14:17:37Z</time>
      </trkpt>
      <trkpt lat="42.8738660" lon="-7.8579340">
        <ele>606.4</ele>
        <time>2020-10-19T14:17:38Z</time>
      </trkpt>
      <trkpt lat="42.8738600" lon="-7.8579720">
        <ele>606.2</ele>
        <time>2020-10-19T14:17:39Z</time>
      </trkpt>
      <trkpt lat="42.8738530" lon="-7.8580060">
        <ele>606.0</ele>
        <time>2020-10-19T14:17:40Z</time>
      </trkpt>
      <trkpt lat="42.8738470" lon="-7.8580370">
        <ele>605.9</ele>
        <time>2020-10-19T14:17:41Z</time>
      </trkpt>
      <trkpt lat="42.8738430" lon="-7.8580660">
        <ele>605.8</ele>
        <time>2020-10-19T14:17:42Z</time>
      </trkpt>
      <trkpt lat="42.8738390" lon="-7.8580900">
        <ele>605.7</ele>
        <time>2020-10-19T14:17:43Z</time>
      </trkpt>
      <trkpt lat="42.8738360" lon="-7.8581040">
        <ele>605.7</ele>
        <time>2020-10-19T14:17:44Z</time>
      </trkpt>
      <trkpt lat="42.8738370" lon="-7.8581100">
        <ele>605.6</ele>
        <time>2020-10-19T14:17:45Z</time>
      </trkpt>
      <trkpt lat="42.8738410" lon="-7.8581140">
        <ele>605.6</ele>
        <time>2020-10-19T14:17:46Z</time>
      </trkpt>
      <trkpt lat="42.8738430" lon="-7.8581230">
        <ele>605.6</ele>
        <time>2020-10-19T14:17:47Z</time>
      </trkpt>
      <trkpt lat="42.8738410" lon="-7.8581350">
        <ele>605.6</ele>
        <time>2020-10-19T14:17:48Z</time>
      </trkpt>
      <trkpt lat="42.8738380" lon="-7.8581420">
        <ele>605.6</ele>
        <time>2020-10-19T14:17:49Z</time>
      </trkpt>
      <trkpt lat="42.8738350" lon="-7.8581440">
        <ele>605.5</ele>
        <time>2020-10-19T14:17:50Z</time>
      </trkpt>
      <trkpt lat="42.8738320" lon="-7.8581380">
        <ele>605.5</ele>
        <time>2020-10-19T14:17:51Z</time>
      </trkpt>
      <trkpt lat="42.8738310" lon="-7.8581350">
        <ele>605.5</ele>
        <time>2020-10-19T14:17:52Z</time>
      </trkpt>
      <trkpt lat="42.8738300" lon="-7.8581330">
        <ele>605.5</ele>
        <time>2020-10-19T14:17:53Z</time>
      </trkpt>
      <trkpt lat="42.8738300" lon="-7.8581320">
        <ele>605.5</ele>
        <time>2020-10-19T14:17:54Z</time>
      </trkpt>
      <trkpt lat="42.8738300" lon="-7.8581310">
        <ele>605.5</ele>
        <time>2020-10-19T14:17:55Z</time>
      </trkpt>
      <trkpt lat="42.8738300" lon="-7.8581300">
        <ele>605.5</ele>
        <time>2020-10-19T14:17:56Z</time>
      </trkpt>
      <trkpt lat="42.8738290" lon="-7.8581300">
        <ele>605.5</ele>
        <time>2020-10-19T14:17:57Z</time>
      </trkpt>
      <trkpt lat="42.8738300" lon="-7.8581310">
        <ele>605.5</ele>
        <time>2020-10-19T14:17:58Z</time>
      </trkpt>
      <trkpt lat="42.8738290" lon="-7.8581310">
        <ele>605.5</ele>
        <time>2020-10-19T14:17:59Z</time>
      </trkpt>
      <trkpt lat="42.8738290" lon="-7.8581320">
        <ele>605.5</ele>
        <time>2020-10-19T14:18:00Z</time>
      </trkpt>
      <trkpt lat="42.8738290" lon="-7.8581340">
        <ele>605.5</ele>
        <time>2020-10-19T14:18:01Z</time>
      </trkpt>
      <trkpt lat="42.8738280" lon="-7.8581340">
        <ele>605.5</ele>
        <time>2020-10-19T14:18:02Z</time>
      </trkpt>
      <trkpt lat="42.8738270" lon="-7.8581350">
        <ele>605.5</ele>
        <time>2020-10-19T14:18:03Z</time>
      </trkpt>
      <trkpt lat="42.8738270" lon="-7.8581350">
        <ele>605.5</ele>
        <time>2020-10-19T14:18:04Z</time>
      </trkpt>
      <trkpt lat="42.8738260" lon="-7.8581350">
        <ele>605.5</ele>
        <time>2020-10-19T14:18:05Z</time>
      </trkpt>
      <trkpt lat="42.8738260" lon="-7.8581350">
        <ele>605.5</ele>
        <time>2020-10-19T14:18:06Z</time>
      </trkpt>
      <trkpt lat="42.8738250" lon="-7.8581350">
        <ele>605.5</ele>
        <time>2020-10-19T14:18:07Z</time>
      </trkpt>
      <trkpt lat="42.8738250" lon="-7.8581370">
        <ele>605.5</ele>
        <time>2020-10-19T14:18:08Z</time>
      </trkpt>
      <trkpt lat="42.8738260" lon="-7.8581400">
        <ele>605.5</ele>
        <time>2020-10-19T14:18:09Z</time>
      </trkpt>
      <trkpt lat="42.8738280" lon="-7.8581490">
        <ele>605.4</ele>
        <time>2020-10-19T14:18:10Z</time>
      </trkpt>
      <trkpt lat="42.8738300" lon="-7.8581630">
        <ele>605.4</ele>
        <time>2020-10-19T14:18:11Z</time>
      </trkpt>
      <trkpt lat="42.8738320" lon="-7.8581810">
        <ele>605.4</ele>
        <time>2020-10-19T14:18:12Z</time>
      </trkpt>
      <trkpt lat="42.8738320" lon="-7.8581970">
        <ele>605.3</ele>
        <time>2020-10-19T14:18:13Z</time>
      </trkpt>
      <trkpt lat="42.8738320" lon="-7.8582110">
        <ele>605.3</ele>
        <time>2020-10-19T14:18:14Z</time>
      </trkpt>
      <trkpt lat="42.8738320" lon="-7.8582250">
        <ele>605.2</ele>
        <time>2020-10-19T14:18:15Z</time>
      </trkpt>
      <trkpt lat="42.8738320" lon="-7.8582400">
        <ele>605.2</ele>
        <time>2020-10-19T14:18:16Z</time>
      </trkpt>
      <trkpt lat="42.8738310" lon="-7.8582560">
        <ele>605.2</ele>
        <time>2020-10-19T14:18:17Z</time>
      </trkpt>
      <trkpt lat="42.8738290" lon="-7.8582710">
        <ele>605.1</ele>
        <time>2020-10-19T14:18:18Z</time>
      </trkpt>
      <trkpt lat="42.8738280" lon="-7.8582870">
        <ele>605.1</ele>
        <time>2020-10-19T14:18:19Z</time>
      </trkpt>
      <trkpt lat="42.8738270" lon="-7.8582930">
        <ele>605.1</ele>
        <time>2020-10-19T14:18:20Z</time>
      </trkpt>
      <trkpt lat="42.8738260" lon="-7.8582930">
        <ele>605.1</ele>
        <time>2020-10-19T14:18:21Z</time>
      </trkpt>
      <trkpt lat="42.8738260" lon="-7.8582880">
        <ele>605.1</ele>
        <time>2020-10-19T14:18:22Z</time>
      </trkpt>
      <trkpt lat="42.8738260" lon="-7.8582890">
        <ele>605.1</ele>
        <time>2020-10-19T14:18:23Z</time>
      </trkpt>
      <trkpt lat="42.8738270" lon="-7.8582900">
        <ele>605.1</ele>
        <time>2020-10-19T14:18:24Z</time>
      </trkpt>
      <trkpt lat="42.8738260" lon="-7.8582910">
        <ele>605.1</ele>
        <time>2020-10-19T14:18:25Z</time>
      </trkpt>
      <trkpt lat="42.8738260" lon="-7.8582930">
        <ele>605.1</ele>
        <time>2020-10-19T14:18:26Z</time>
      </trkpt>
      <trkpt lat="42.8738250" lon="-7.8582950">
        <ele>605.0</ele>
        <time>2020-10-19T14:18:27Z</time>
      </trkpt>
      <trkpt lat="42.8738240" lon="-7.8582970">
        <ele>605.0</ele>
        <time>2020-10-19T14:18:28Z</time>
      </trkpt>
      <trkpt lat="42.8738230" lon="-7.8583000">
        <ele>605.0</ele>
        <time>2020-10-19T14:18:29Z</time>
      </trkpt>
      <trkpt lat="42.8738210" lon="-7.8583020">
        <ele>605.0</ele>
        <time>2020-10-19T14:18:30Z</time>
      </trkpt>
      <trkpt lat="42.8738200" lon="-7.8583050">
        <ele>605.0</ele>
        <time>2020-10-19T14:18:31Z</time>
      </trkpt>
      <trkpt lat="42.8738190" lon="-7.8583080">
        <ele>605.0</ele>
        <time>2020-10-19T14:18:32Z</time>
      </trkpt>
      <trkpt lat="42.8738180" lon="-7.8583110">
        <ele>605.0</ele>
        <time>2020-10-19T14:18:33Z</time>
      </trkpt>
      <trkpt lat="42.8738170" lon="-7.8583130">
        <ele>605.0</ele>
        <time>2020-10-19T14:18:34Z</time>
      </trkpt>
      <trkpt lat="42.8738150" lon="-7.8583170">
        <ele>605.0</ele>
        <time>2020-10-19T14:18:35Z</time>
      </trkpt>
      <trkpt lat="42.8738140" lon="-7.8583210">
        <ele>605.0</ele>
        <time>2020-10-19T14:18:36Z</time>
      </trkpt>
      <trkpt lat="42.8738120" lon="-7.8583250">
        <ele>605.0</ele>
        <time>2020-10-19T14:18:37Z</time>
      </trkpt>
      <trkpt lat="42.8738100" lon="-7.8583290">
        <ele>605.0</ele>
        <time>2020-10-19T14:18:38Z</time>
      </trkpt>
      <trkpt lat="42.8738090" lon="-7.8583310">
        <ele>605.0</ele>
        <time>2020-10-19T14:18:39Z</time>
      </trkpt>
      <trkpt lat="42.8738080" lon="-7.8583330">
        <ele>604.9</ele>
        <time>2020-10-19T14:18:40Z</time>
      </trkpt>
      <trkpt lat="42.8738080" lon="-7.8583330">
        <ele>604.9</ele>
        <time>2020-10-19T14:18:41Z</time>
      </trkpt>
      <trkpt lat="42.8738070" lon="-7.8583340">
        <ele>604.9</ele>
        <time>2020-10-19T14:18:42Z</time>
      </trkpt>
      <trkpt lat="42.8738070" lon="-7.8583360">
        <ele>604.9</ele>
        <time>2020-10-19T14:18:43Z</time>
      </trkpt>
      <trkpt lat="42.8738060" lon="-7.8583380">
        <ele>604.9</ele>
        <time>2020-10-19T14:18:44Z</time>
      </trkpt>
      <trkpt lat="42.8738060" lon="-7.8583430">
        <ele>604.9</ele>
        <time>2020-10-19T14:18:45Z</time>
      </trkpt>
      <trkpt lat="42.8738060" lon="-7.8583500">
        <ele>604.9</ele>
        <time>2020-10-19T14:18:46Z</time>
      </trkpt>
      <trkpt lat="42.8738050" lon="-7.8583600">
        <ele>604.9</ele>
        <time>2020-10-19T14:18:47Z</time>
      </trkpt>
      <trkpt lat="42.8738020" lon="-7.8583740">
        <ele>604.9</ele>
        <time>2020-10-19T14:18:48Z</time>
      </trkpt>
      <trkpt lat="42.8737990" lon="-7.8583890">
        <ele>604.8</ele>
        <time>2020-10-19T14:18:49Z</time>
      </trkpt>
      <trkpt lat="42.8737960" lon="-7.8584070">
        <ele>604.8</ele>
        <time>2020-10-19T14:18:50Z</time>
      </trkpt>
      <trkpt lat="42.8737930" lon="-7.8584270">
        <ele>604.7</ele>
        <time>2020-10-19T14:18:51Z</time>
      </trkpt>
      <trkpt lat="42.8737920" lon="-7.8584480">
        <ele>604.7</ele>
        <time>2020-10-19T14:18:52Z</time>
      </trkpt>
      <trkpt lat="42.8737930" lon="-7.8584700">
        <ele>604.6</ele>
        <time>2020-10-19T14:18:53Z</time>
      </trkpt>
      <trkpt lat="42.8737950" lon="-7.8584920">
        <ele>604.6</ele>
        <time>2020-10-19T14:18:54Z</time>
      </trkpt>
      <trkpt lat="42.8737960" lon="-7.8585120">
        <ele>604.6</ele>
        <time>2020-10-19T14:18:55Z</time>
      </trkpt>
      <trkpt lat="42.8737960" lon="-7.8585320">
        <ele>604.5</ele>
        <time>2020-10-19T14:18:56Z</time>
      </trkpt>
      <trkpt lat="42.8737950" lon="-7.8585500">
        <ele>604.5</ele>
        <time>2020-10-19T14:18:57Z</time>
      </trkpt>
      <trkpt lat="42.8737940" lon="-7.8585710">
        <ele>604.4</ele>
        <time>2020-10-19T14:18:58Z</time>
      </trkpt>
      <trkpt lat="42.8737920" lon="-7.8585900">
        <ele>604.4</ele>
        <time>2020-10-19T14:18:59Z</time>
      </trkpt>
      <trkpt lat="42.8737900" lon="-7.8586100">
        <ele>604.4</ele>
        <time>2020-10-19T14:19:00Z</time>
      </trkpt>
      <trkpt lat="42.8737890" lon="-7.8586300">
        <ele>604.3</ele>
        <time>2020-10-19T14:19:01Z</time>
      </trkpt>
      <trkpt lat="42.8737880" lon="-7.8586480">
        <ele>604.3</ele>
        <time>2020-10-19T14:19:02Z</time>
      </trkpt>
      <trkpt lat="42.8737870" lon="-7.8586650">
        <ele>604.3</ele>
        <time>2020-10-19T14:19:03Z</time>
      </trkpt>
      <trkpt lat="42.8737850" lon="-7.8586820">
        <ele>604.2</ele>
        <time>2020-10-19T14:19:04Z</time>
      </trkpt>
      <trkpt lat="42.8737840" lon="-7.8587010">
        <ele>604.2</ele>
        <time>2020-10-19T14:19:05Z</time>
      </trkpt>
      <trkpt lat="42.8737830" lon="-7.8587210">
        <ele>604.2</ele>
        <time>2020-10-19T14:19:06Z</time>
      </trkpt>
      <trkpt lat="42.8737810" lon="-7.8587410">
        <ele>604.1</ele>
        <time>2020-10-19T14:19:07Z</time>
      </trkpt>
      <trkpt lat="42.8737780" lon="-7.8587630">
        <ele>604.1</ele>
        <time>2020-10-19T14:19:08Z</time>
      </trkpt>
      <trkpt lat="42.8737740" lon="-7.8587870">
        <ele>604.0</ele>
        <time>2020-10-19T14:19:09Z</time>
      </trkpt>
      <trkpt lat="42.8737690" lon="-7.8588110">
        <ele>604.0</ele>
        <time>2020-10-19T14:19:10Z</time>
      </trkpt>
      <trkpt lat="42.8737660" lon="-7.8588340">
        <ele>604.0</ele>
        <time>2020-10-19T14:19:11Z</time>
      </trkpt>
      <trkpt lat="42.8737630" lon="-7.8588550">
        <ele>603.9</ele>
        <time>2020-10-19T14:19:12Z</time>
      </trkpt>
      <trkpt lat="42.8737600" lon="-7.8588750">
        <ele>603.9</ele>
        <time>2020-10-19T14:19:13Z</time>
      </trkpt>
      <trkpt lat="42.8737570" lon="-7.8588930">
        <ele>603.8</ele>
        <time>2020-10-19T14:19:14Z</time>
      </trkpt>
      <trkpt lat="42.8737550" lon="-7.8589110">
        <ele>603.8</ele>
        <time>2020-10-19T14:19:15Z</time>
      </trkpt>
      <trkpt lat="42.8737530" lon="-7.8589270">
        <ele>603.8</ele>
        <time>2020-10-19T14:19:16Z</time>
      </trkpt>
      <trkpt lat="42.8737520" lon="-7.8589450">
        <ele>603.7</ele>
        <time>2020-10-19T14:19:17Z</time>
      </trkpt>
      <trkpt lat="42.8737540" lon="-7.8589610">
        <ele>603.7</ele>
        <time>2020-10-19T14:19:18Z</time>
      </trkpt>
      <trkpt lat="42.8737580" lon="-7.8589760">
        <ele>603.7</ele>
        <time>2020-10-19T14:19:19Z</time>
      </trkpt>
      <trkpt lat="42.8737610" lon="-7.8589900">
        <ele>603.6</ele>
        <time>2020-10-19T14:19:20Z</time>
      </trkpt>
      <trkpt lat="42.8737620" lon="-7.8590030">
        <ele>603.6</ele>
        <time>2020-10-19T14:19:21Z</time>
      </trkpt>
      <trkpt lat="42.8737600" lon="-7.8590170">
        <ele>603.6</ele>
        <time>2020-10-19T14:19:22Z</time>
      </trkpt>
      <trkpt lat="42.8737580" lon="-7.8590330">
        <ele>603.6</ele>
        <time>2020-10-19T14:19:23Z</time>
      </trkpt>
      <trkpt lat="42.8737550" lon="-7.8590490">
        <ele>603.5</ele>
        <time>2020-10-19T14:19:24Z</time>
      </trkpt>
      <trkpt lat="42.8737520" lon="-7.8590640">
        <ele>603.5</ele>
        <time>2020-10-19T14:19:25Z</time>
      </trkpt>
      <trkpt lat="42.8737490" lon="-7.8590790">
        <ele>603.5</ele>
        <time>2020-10-19T14:19:26Z</time>
      </trkpt>
      <trkpt lat="42.8737470" lon="-7.8590940">
        <ele>603.4</ele>
        <time>2020-10-19T14:19:27Z</time>
      </trkpt>
      <trkpt lat="42.8737430" lon="-7.8591080">
        <ele>603.4</ele>
        <time>2020-10-19T14:19:28Z</time>
      </trkpt>
      <trkpt lat="42.8737410" lon="-7.8591190">
        <ele>603.4</ele>
        <time>2020-10-19T14:19:29Z</time>
      </trkpt>
      <trkpt lat="42.8737380" lon="-7.8591300">
        <ele>603.4</ele>
        <time>2020-10-19T14:19:30Z</time>
      </trkpt>
      <trkpt lat="42.8737380" lon="-7.8591420">
        <ele>603.3</ele>
        <time>2020-10-19T14:19:31Z</time>
      </trkpt>
      <trkpt lat="42.8737350" lon="-7.8591560">
        <ele>603.3</ele>
        <time>2020-10-19T14:19:32Z</time>
      </trkpt>
      <trkpt lat="42.8737330" lon="-7.8591660">
        <ele>603.3</ele>
        <time>2020-10-19T14:19:33Z</time>
      </trkpt>
      <trkpt lat="42.8737310" lon="-7.8591750">
        <ele>603.3</ele>
        <time>2020-10-19T14:19:34Z</time>
      </trkpt>
      <trkpt lat="42.8737310" lon="-7.8591800">
        <ele>603.3</ele>
        <time>2020-10-19T14:19:35Z</time>
      </trkpt>
      <trkpt lat="42.8737290" lon="-7.8591930">
        <ele>603.3</ele>
        <time>2020-10-19T14:19:36Z</time>
      </trkpt>
      <trkpt lat="42.8737270" lon="-7.8592090">
        <ele>603.2</ele>
        <time>2020-10-19T14:19:37Z</time>
      </trkpt>
      <trkpt lat="42.8737250" lon="-7.8592260">
        <ele>603.2</ele>
        <time>2020-10-19T14:19:38Z</time>
      </trkpt>
      <trkpt lat="42.8737250" lon="-7.8592420">
        <ele>603.2</ele>
        <time>2020-10-19T14:19:39Z</time>
      </trkpt>
      <trkpt lat="42.8737240" lon="-7.8592570">
        <ele>603.2</ele>
        <time>2020-10-19T14:19:40Z</time>
      </trkpt>
      <trkpt lat="42.8737230" lon="-7.8592730">
        <ele>603.2</ele>
        <time>2020-10-19T14:19:41Z</time>
      </trkpt>
      <trkpt lat="42.8737230" lon="-7.8592900">
        <ele>603.2</ele>
        <time>2020-10-19T14:19:42Z</time>
      </trkpt>
      <trkpt lat="42.8737240" lon="-7.8593070">
        <ele>603.2</ele>
        <time>2020-10-19T14:19:43Z</time>
      </trkpt>
      <trkpt lat="42.8737260" lon="-7.8593230">
        <ele>603.2</ele>
        <time>2020-10-19T14:19:44Z</time>
      </trkpt>
      <trkpt lat="42.8737250" lon="-7.8593400">
        <ele>603.2</ele>
        <time>2020-10-19T14:19:45Z</time>
      </trkpt>
      <trkpt lat="42.8737230" lon="-7.8593570">
        <ele>603.2</ele>
        <time>2020-10-19T14:19:46Z</time>
      </trkpt>
      <trkpt lat="42.8737230" lon="-7.8593760">
        <ele>603.2</ele>
        <time>2020-10-19T14:19:47Z</time>
      </trkpt>
      <trkpt lat="42.8737260" lon="-7.8593930">
        <ele>603.2</ele>
        <time>2020-10-19T14:19:48Z</time>
      </trkpt>
      <trkpt lat="42.8737300" lon="-7.8594110">
        <ele>603.2</ele>
        <time>2020-10-19T14:19:49Z</time>
      </trkpt>
      <trkpt lat="42.8737320" lon="-7.8594270">
        <ele>603.2</ele>
        <time>2020-10-19T14:19:50Z</time>
      </trkpt>
      <trkpt lat="42.8737320" lon="-7.8594430">
        <ele>603.2</ele>
        <time>2020-10-19T14:19:51Z</time>
      </trkpt>
      <trkpt lat="42.8737320" lon="-7.8594590">
        <ele>603.1</ele>
        <time>2020-10-19T14:19:52Z</time>
      </trkpt>
      <trkpt lat="42.8737320" lon="-7.8594750">
        <ele>603.1</ele>
        <time>2020-10-19T14:19:53Z</time>
      </trkpt>
      <trkpt lat="42.8737310" lon="-7.8594900">
        <ele>603.1</ele>
        <time>2020-10-19T14:19:54Z</time>
      </trkpt>
      <trkpt lat="42.8737290" lon="-7.8595050">
        <ele>603.1</ele>
        <time>2020-10-19T14:19:55Z</time>
      </trkpt>
      <trkpt lat="42.8737250" lon="-7.8595210">
        <ele>603.1</ele>
        <time>2020-10-19T14:19:56Z</time>
      </trkpt>
      <trkpt lat="42.8737200" lon="-7.8595380">
        <ele>603.1</ele>
        <time>2020-10-19T14:19:57Z</time>
      </trkpt>
      <trkpt lat="42.8737130" lon="-7.8595540">
        <ele>603.1</ele>
        <time>2020-10-19T14:19:58Z</time>
      </trkpt>
      <trkpt lat="42.8737060" lon="-7.8595690">
        <ele>603.0</ele>
        <time>2020-10-19T14:19:59Z</time>
      </trkpt>
      <trkpt lat="42.8736990" lon="-7.8595830">
        <ele>603.0</ele>
        <time>2020-10-19T14:20:00Z</time>
      </trkpt>
      <trkpt lat="42.8736930" lon="-7.8596000">
        <ele>603.0</ele>
        <time>2020-10-19T14:20:01Z</time>
      </trkpt>
      <trkpt lat="42.8736900" lon="-7.8596140">
        <ele>603.0</ele>
        <time>2020-10-19T14:20:02Z</time>
      </trkpt>
      <trkpt lat="42.8736910" lon="-7.8596230">
        <ele>603.0</ele>
        <time>2020-10-19T14:20:03Z</time>
      </trkpt>
      <trkpt lat="42.8736950" lon="-7.8596290">
        <ele>603.0</ele>
        <time>2020-10-19T14:20:04Z</time>
      </trkpt>
      <trkpt lat="42.8737010" lon="-7.8596360">
        <ele>602.9</ele>
        <time>2020-10-19T14:20:05Z</time>
      </trkpt>
      <trkpt lat="42.8737040" lon="-7.8596440">
        <ele>602.9</ele>
        <time>2020-10-19T14:20:06Z</time>
      </trkpt>
      <trkpt lat="42.8737070" lon="-7.8596530">
        <ele>602.9</ele>
        <time>2020-10-19T14:20:07Z</time>
      </trkpt>
      <trkpt lat="42.8737100" lon="-7.8596640">
        <ele>602.9</ele>
        <time>2020-10-19T14:20:08Z</time>
      </trkpt>
      <trkpt lat="42.8737140" lon="-7.8596770">
        <ele>602.9</ele>
        <time>2020-10-19T14:20:09Z</time>
      </trkpt>
      <trkpt lat="42.8737180" lon="-7.8596920">
        <ele>602.8</ele>
        <time>2020-10-19T14:20:10Z</time>
      </trkpt>
      <trkpt lat="42.8737200" lon="-7.8597080">
        <ele>602.8</ele>
        <time>2020-10-19T14:20:11Z</time>
      </trkpt>
      <trkpt lat="42.8737200" lon="-7.8597250">
        <ele>602.8</ele>
        <time>2020-10-19T14:20:12Z</time>
      </trkpt>
      <trkpt lat="42.8737200" lon="-7.8597350">
        <ele>602.8</ele>
        <time>2020-10-19T14:20:13Z</time>
      </trkpt>
      <trkpt lat="42.8737180" lon="-7.8597400">
        <ele>602.8</ele>
        <time>2020-10-19T14:20:14Z</time>
      </trkpt>
      <trkpt lat="42.8737180" lon="-7.8597450">
        <ele>602.8</ele>
        <time>2020-10-19T14:20:15Z</time>
      </trkpt>
      <trkpt lat="42.8737170" lon="-7.8597580">
        <ele>602.7</ele>
        <time>2020-10-19T14:20:16Z</time>
      </trkpt>
      <trkpt lat="42.8737160" lon="-7.8597760">
        <ele>602.7</ele>
        <time>2020-10-19T14:20:17Z</time>
      </trkpt>
      <trkpt lat="42.8737160" lon="-7.8597950">
        <ele>602.7</ele>
        <time>2020-10-19T14:20:18Z</time>
      </trkpt>
      <trkpt lat="42.8737150" lon="-7.8598170">
        <ele>602.6</ele>
        <time>2020-10-19T14:20:19Z</time>
      </trkpt>
      <trkpt lat="42.8737140" lon="-7.8598400">
        <ele>602.6</ele>
        <time>2020-10-19T14:20:20Z</time>
      </trkpt>
      <trkpt lat="42.8737120" lon="-7.8598620">
        <ele>602.6</ele>
        <time>2020-10-19T14:20:21Z</time>
      </trkpt>
      <trkpt lat="42.8737110" lon="-7.8598820">
        <ele>602.5</ele>
        <time>2020-10-19T14:20:22Z</time>
      </trkpt>
      <trkpt lat="42.8737100" lon="-7.8599020">
        <ele>602.5</ele>
        <time>2020-10-19T14:20:23Z</time>
      </trkpt>
      <trkpt lat="42.8737090" lon="-7.8599230">
        <ele>602.5</ele>
        <time>2020-10-19T14:20:24Z</time>
      </trkpt>
      <trkpt lat="42.8737090" lon="-7.8599440">
        <ele>602.5</ele>
        <time>2020-10-19T14:20:25Z</time>
      </trkpt>
      <trkpt lat="42.8737080" lon="-7.8599650">
        <ele>602.4</ele>
        <time>2020-10-19T14:20:26Z</time>
      </trkpt>
      <trkpt lat="42.8737050" lon="-7.8599840">
        <ele>602.4</ele>
        <time>2020-10-19T14:20:27Z</time>
      </trkpt>
      <trkpt lat="42.8737000" lon="-7.8599980">
        <ele>602.4</ele>
        <time>2020-10-19T14:20:28Z</time>
      </trkpt>
      <trkpt lat="42.8736940" lon="-7.8600080">
        <ele>602.4</ele>
        <time>2020-10-19T14:20:29Z</time>
      </trkpt>
      <trkpt lat="42.8736900" lon="-7.8600180">
        <ele>602.4</ele>
        <time>2020-10-19T14:20:30Z</time>
      </trkpt>
      <trkpt lat="42.8736880" lon="-7.8600310">
        <ele>602.3</ele>
        <time>2020-10-19T14:20:31Z</time>
      </trkpt>
      <trkpt lat="42.8736860" lon="-7.8600480">
        <ele>602.3</ele>
        <time>2020-10-19T14:20:32Z</time>
      </trkpt>
      <trkpt lat="42.8736850" lon="-7.8600650">
        <ele>602.3</ele>
        <time>2020-10-19T14:20:33Z</time>
      </trkpt>
      <trkpt lat="42.8736840" lon="-7.8600830">
        <ele>602.3</ele>
        <time>2020-10-19T14:20:34Z</time>
      </trkpt>
      <trkpt lat="42.8736830" lon="-7.8601000">
        <ele>602.2</ele>
        <time>2020-10-19T14:20:35Z</time>
      </trkpt>
      <trkpt lat="42.8736830" lon="-7.8601170">
        <ele>602.2</ele>
        <time>2020-10-19T14:20:36Z</time>
      </trkpt>
      <trkpt lat="42.8736820" lon="-7.8601370">
        <ele>602.2</ele>
        <time>2020-10-19T14:20:37Z</time>
      </trkpt>
      <trkpt lat="42.8736800" lon="-7.8601570">
        <ele>602.2</ele>
        <time>2020-10-19T14:20:38Z</time>
      </trkpt>
      <trkpt lat="42.8736800" lon="-7.8601770">
        <ele>602.1</ele>
        <time>2020-10-19T14:20:39Z</time>
      </trkpt>
      <trkpt lat="42.8736790" lon="-7.8601970">
        <ele>602.1</ele>
        <time>2020-10-19T14:20:40Z</time>
      </trkpt>
      <trkpt lat="42.8736780" lon="-7.8602160">
        <ele>602.1</ele>
        <time>2020-10-19T14:20:41Z</time>
      </trkpt>
      <trkpt lat="42.8736760" lon="-7.8602360">
        <ele>602.0</ele>
        <time>2020-10-19T14:20:42Z</time>
      </trkpt>
      <trkpt lat="42.8736730" lon="-7.8602550">
        <ele>602.0</ele>
        <time>2020-10-19T14:20:43Z</time>
      </trkpt>
      <trkpt lat="42.8736710" lon="-7.8602750">
        <ele>602.0</ele>
        <time>2020-10-19T14:20:44Z</time>
      </trkpt>
      <trkpt lat="42.8736690" lon="-7.8602960">
        <ele>602.0</ele>
        <time>2020-10-19T14:20:45Z</time>
      </trkpt>
      <trkpt lat="42.8736670" lon="-7.8603160">
        <ele>601.9</ele>
        <time>2020-10-19T14:20:46Z</time>
      </trkpt>
      <trkpt lat="42.8736650" lon="-7.8603360">
        <ele>601.9</ele>
        <time>2020-10-19T14:20:47Z</time>
      </trkpt>
      <trkpt lat="42.8736620" lon="-7.8603560">
        <ele>601.9</ele>
        <time>2020-10-19T14:20:48Z</time>
      </trkpt>
      <trkpt lat="42.8736590" lon="-7.8603770">
        <ele>601.8</ele>
        <time>2020-10-19T14:20:49Z</time>
      </trkpt>
      <trkpt lat="42.8736570" lon="-7.8603970">
        <ele>601.8</ele>
        <time>2020-10-19T14:20:50Z</time>
      </trkpt>
      <trkpt lat="42.8736550" lon="-7.8604170">
        <ele>601.8</ele>
        <time>2020-10-19T14:20:51Z</time>
      </trkpt>
      <trkpt lat="42.8736520" lon="-7.8604370">
        <ele>601.8</ele>
        <time>2020-10-19T14:20:52Z</time>
      </trkpt>
      <trkpt lat="42.8736500" lon="-7.8604570">
        <ele>601.7</ele>
        <time>2020-10-19T14:20:53Z</time>
      </trkpt>
      <trkpt lat="42.8736470" lon="-7.8604760">
        <ele>601.7</ele>
        <time>2020-10-19T14:20:54Z</time>
      </trkpt>
      <trkpt lat="42.8736440" lon="-7.8604960">
        <ele>601.7</ele>
        <time>2020-10-19T14:20:55Z</time>
      </trkpt>
      <trkpt lat="42.8736390" lon="-7.8605160">
        <ele>601.7</ele>
        <time>2020-10-19T14:20:56Z</time>
      </trkpt>
      <trkpt lat="42.8736360" lon="-7.8605360">
        <ele>601.6</ele>
        <time>2020-10-19T14:20:57Z</time>
      </trkpt>
      <trkpt lat="42.8736340" lon="-7.8605550">
        <ele>601.6</ele>
        <time>2020-10-19T14:20:58Z</time>
      </trkpt>
      <trkpt lat="42.8736320" lon="-7.8605760">
        <ele>601.6</ele>
        <time>2020-10-19T14:20:59Z</time>
      </trkpt>
      <trkpt lat="42.8736310" lon="-7.8605970">
        <ele>601.6</ele>
        <time>2020-10-19T14:21:00Z</time>
      </trkpt>
      <trkpt lat="42.8736290" lon="-7.8606180">
        <ele>601.6</ele>
        <time>2020-10-19T14:21:01Z</time>
      </trkpt>
      <trkpt lat="42.8736270" lon="-7.8606370">
        <ele>601.6</ele>
        <time>2020-10-19T14:21:02Z</time>
      </trkpt>
      <trkpt lat="42.8736250" lon="-7.8606580">
        <ele>601.6</ele>
        <time>2020-10-19T14:21:03Z</time>
      </trkpt>
      <trkpt lat="42.8736220" lon="-7.8606790">
        <ele>601.6</ele>
        <time>2020-10-19T14:21:04Z</time>
      </trkpt>
      <trkpt lat="42.8736190" lon="-7.8607000">
        <ele>601.5</ele>
        <time>2020-10-19T14:21:05Z</time>
      </trkpt>
      <trkpt lat="42.8736160" lon="-7.8607190">
        <ele>601.5</ele>
        <time>2020-10-19T14:21:06Z</time>
      </trkpt>
      <trkpt lat="42.8736140" lon="-7.8607380">
        <ele>601.5</ele>
        <time>2020-10-19T14:21:07Z</time>
      </trkpt>
      <trkpt lat="42.8736120" lon="-7.8607560">
        <ele>601.5</ele>
        <time>2020-10-19T14:21:08Z</time>
      </trkpt>
      <trkpt lat="42.8736110" lon="-7.8607750">
        <ele>601.5</ele>
        <time>2020-10-19T14:21:09Z</time>
      </trkpt>
      <trkpt lat="42.8736100" lon="-7.8607940">
        <ele>601.5</ele>
        <time>2020-10-19T14:21:10Z</time>
      </trkpt>
      <trkpt lat="42.8736080" lon="-7.8608140">
        <ele>601.5</ele>
        <time>2020-10-19T14:21:11Z</time>
      </trkpt>
      <trkpt lat="42.8736060" lon="-7.8608340">
        <ele>601.5</ele>
        <time>2020-10-19T14:21:12Z</time>
      </trkpt>
      <trkpt lat="42.8736040" lon="-7.8608530">
        <ele>601.5</ele>
        <time>2020-10-19T14:21:13Z</time>
      </trkpt>
      <trkpt lat="42.8736020" lon="-7.8608730">
        <ele>601.5</ele>
        <time>2020-10-19T14:21:14Z</time>
      </trkpt>
      <trkpt lat="42.8736020" lon="-7.8608920">
        <ele>601.5</ele>
        <time>2020-10-19T14:21:15Z</time>
      </trkpt>
      <trkpt lat="42.8736010" lon="-7.8609120">
        <ele>601.5</ele>
        <time>2020-10-19T14:21:16Z</time>
      </trkpt>
      <trkpt lat="42.8736010" lon="-7.8609300">
        <ele>601.5</ele>
        <time>2020-10-19T14:21:17Z</time>
      </trkpt>
      <trkpt lat="42.8736000" lon="-7.8609490">
        <ele>601.4</ele>
        <time>2020-10-19T14:21:18Z</time>
      </trkpt>
      <trkpt lat="42.8736000" lon="-7.8609680">
        <ele>601.4</ele>
        <time>2020-10-19T14:21:19Z</time>
      </trkpt>
      <trkpt lat="42.8735990" lon="-7.8609870">
        <ele>601.4</ele>
        <time>2020-10-19T14:21:20Z</time>
      </trkpt>
      <trkpt lat="42.8735970" lon="-7.8610060">
        <ele>601.4</ele>
        <time>2020-10-19T14:21:21Z</time>
      </trkpt>
      <trkpt lat="42.8735960" lon="-7.8610270">
        <ele>601.4</ele>
        <time>2020-10-19T14:21:22Z</time>
      </trkpt>
      <trkpt lat="42.8735950" lon="-7.8610480">
        <ele>601.4</ele>
        <time>2020-10-19T14:21:23Z</time>
      </trkpt>
      <trkpt lat="42.8735930" lon="-7.8610700">
        <ele>601.4</ele>
        <time>2020-10-19T14:21:24Z</time>
      </trkpt>
      <trkpt lat="42.8735920" lon="-7.8610920">
        <ele>601.4</ele>
        <time>2020-10-19T14:21:25Z</time>
      </trkpt>
      <trkpt lat="42.8735930" lon="-7.8611130">
        <ele>601.4</ele>
        <time>2020-10-19T14:21:26Z</time>
      </trkpt>
      <trkpt lat="42.8735930" lon="-7.8611350">
        <ele>601.4</ele>
        <time>2020-10-19T14:21:27Z</time>
      </trkpt>
      <trkpt lat="42.8735930" lon="-7.8611550">
        <ele>601.4</ele>
        <time>2020-10-19T14:21:28Z</time>
      </trkpt>
      <trkpt lat="42.8735920" lon="-7.8611770">
        <ele>601.4</ele>
        <time>2020-10-19T14:21:29Z</time>
      </trkpt>
      <trkpt lat="42.8735910" lon="-7.8611980">
        <ele>601.4</ele>
        <time>2020-10-19T14:21:30Z</time>
      </trkpt>
      <trkpt lat="42.8735900" lon="-7.8612190">
        <ele>601.4</ele>
        <time>2020-10-19T14:21:31Z</time>
      </trkpt>
      <trkpt lat="42.8735880" lon="-7.8612390">
        <ele>601.4</ele>
        <time>2020-10-19T14:21:32Z</time>
      </trkpt>
      <trkpt lat="42.8735860" lon="-7.8612590">
        <ele>601.4</ele>
        <time>2020-10-19T14:21:33Z</time>
      </trkpt>
      <trkpt lat="42.8735850" lon="-7.8612780">
        <ele>601.5</ele>
        <time>2020-10-19T14:21:34Z</time>
      </trkpt>
      <trkpt lat="42.8735830" lon="-7.8612970">
        <ele>601.5</ele>
        <time>2020-10-19T14:21:35Z</time>
      </trkpt>
      <trkpt lat="42.8735810" lon="-7.8613160">
        <ele>601.5</ele>
        <time>2020-10-19T14:21:36Z</time>
      </trkpt>
      <trkpt lat="42.8735790" lon="-7.8613350">
        <ele>601.5</ele>
        <time>2020-10-19T14:21:37Z</time>
      </trkpt>
      <trkpt lat="42.8735760" lon="-7.8613540">
        <ele>601.5</ele>
        <time>2020-10-19T14:21:38Z</time>
      </trkpt>
      <trkpt lat="42.8735740" lon="-7.8613730">
        <ele>601.5</ele>
        <time>2020-10-19T14:21:39Z</time>
      </trkpt>
      <trkpt lat="42.8735720" lon="-7.8613930">
        <ele>601.5</ele>
        <time>2020-10-19T14:21:40Z</time>
      </trkpt>
      <trkpt lat="42.8735710" lon="-7.8614130">
        <ele>601.5</ele>
        <time>2020-10-19T14:21:41Z</time>
      </trkpt>
      <trkpt lat="42.8735690" lon="-7.8614330">
        <ele>601.6</ele>
        <time>2020-10-19T14:21:42Z</time>
      </trkpt>
      <trkpt lat="42.8735670" lon="-7.8614540">
        <ele>601.6</ele>
        <time>2020-10-19T14:21:43Z</time>
      </trkpt>
      <trkpt lat="42.8735640" lon="-7.8614740">
        <ele>601.6</ele>
        <time>2020-10-19T14:21:44Z</time>
      </trkpt>
      <trkpt lat="42.8735610" lon="-7.8614940">
        <ele>601.6</ele>
        <time>2020-10-19T14:21:45Z</time>
      </trkpt>
      <trkpt lat="42.8735570" lon="-7.8615130">
        <ele>601.6</ele>
        <time>2020-10-19T14:21:46Z</time>
      </trkpt>
      <trkpt lat="42.8735530" lon="-7.8615330">
        <ele>601.6</ele>
        <time>2020-10-19T14:21:47Z</time>
      </trkpt>
      <trkpt lat="42.8735480" lon="-7.8615510">
        <ele>601.7</ele>
        <time>2020-10-19T14:21:48Z</time>
      </trkpt>
      <trkpt lat="42.8735430" lon="-7.8615700">
        <ele>601.7</ele>
        <time>2020-10-19T14:21:49Z</time>
      </trkpt>
      <trkpt lat="42.8735390" lon="-7.8615880">
        <ele>601.7</ele>
        <time>2020-10-19T14:21:50Z</time>
      </trkpt>
      <trkpt lat="42.8735340" lon="-7.8616070">
        <ele>601.7</ele>
        <time>2020-10-19T14:21:51Z</time>
      </trkpt>
      <trkpt lat="42.8735300" lon="-7.8616270">
        <ele>601.7</ele>
        <time>2020-10-19T14:21:52Z</time>
      </trkpt>
      <trkpt lat="42.8735260" lon="-7.8616460">
        <ele>601.7</ele>
        <time>2020-10-19T14:21:53Z</time>
      </trkpt>
      <trkpt lat="42.8735220" lon="-7.8616650">
        <ele>601.8</ele>
        <time>2020-10-19T14:21:54Z</time>
      </trkpt>
      <trkpt lat="42.8735180" lon="-7.8616840">
        <ele>601.8</ele>
        <time>2020-10-19T14:21:55Z</time>
      </trkpt>
      <trkpt lat="42.8735140" lon="-7.8617040">
        <ele>601.8</ele>
        <time>2020-10-19T14:21:56Z</time>
      </trkpt>
      <trkpt lat="42.8735090" lon="-7.8617230">
        <ele>601.8</ele>
        <time>2020-10-19T14:21:57Z</time>
      </trkpt>
      <trkpt lat="42.8735050" lon="-7.8617420">
        <ele>601.8</ele>
        <time>2020-10-19T14:21:58Z</time>
      </trkpt>
      <trkpt lat="42.8735000" lon="-7.8617600">
        <ele>601.8</ele>
        <time>2020-10-19T14:21:59Z</time>
      </trkpt>
      <trkpt lat="42.8734950" lon="-7.8617790">
        <ele>601.9</ele>
        <time>2020-10-19T14:22:00Z</time>
      </trkpt>
      <trkpt lat="42.8734900" lon="-7.8617990">
        <ele>601.9</ele>
        <time>2020-10-19T14:22:01Z</time>
      </trkpt>
      <trkpt lat="42.8734860" lon="-7.8618190">
        <ele>601.9</ele>
        <time>2020-10-19T14:22:02Z</time>
      </trkpt>
      <trkpt lat="42.8734810" lon="-7.8618390">
        <ele>601.9</ele>
        <time>2020-10-19T14:22:03Z</time>
      </trkpt>
      <trkpt lat="42.8734780" lon="-7.8618580">
        <ele>601.9</ele>
        <time>2020-10-19T14:22:04Z</time>
      </trkpt>
      <trkpt lat="42.8734740" lon="-7.8618780">
        <ele>602.0</ele>
        <time>2020-10-19T14:22:05Z</time>
      </trkpt>
      <trkpt lat="42.8734700" lon="-7.8618980">
        <ele>602.0</ele>
        <time>2020-10-19T14:22:06Z</time>
      </trkpt>
      <trkpt lat="42.8734650" lon="-7.8619180">
        <ele>602.0</ele>
        <time>2020-10-19T14:22:07Z</time>
      </trkpt>
      <trkpt lat="42.8734610" lon="-7.8619370">
        <ele>602.1</ele>
        <time>2020-10-19T14:22:08Z</time>
      </trkpt>
      <trkpt lat="42.8734560" lon="-7.8619550">
        <ele>602.1</ele>
        <time>2020-10-19T14:22:09Z</time>
      </trkpt>
      <trkpt lat="42.8734520" lon="-7.8619740">
        <ele>602.1</ele>
        <time>2020-10-19T14:22:10Z</time>
      </trkpt>
      <trkpt lat="42.8734480" lon="-7.8619920">
        <ele>602.1</ele>
        <time>2020-10-19T14:22:11Z</time>
      </trkpt>
      <trkpt lat="42.8734440" lon="-7.8620120">
        <ele>602.2</ele>
        <time>2020-10-19T14:22:12Z</time>
      </trkpt>
      <trkpt lat="42.8734400" lon="-7.8620320">
        <ele>602.2</ele>
        <time>2020-10-19T14:22:13Z</time>
      </trkpt>
      <trkpt lat="42.8734370" lon="-7.8620520">
        <ele>602.2</ele>
        <time>2020-10-19T14:22:14Z</time>
      </trkpt>
      <trkpt lat="42.8734340" lon="-7.8620730">
        <ele>602.3</ele>
        <time>2020-10-19T14:22:15Z</time>
      </trkpt>
      <trkpt lat="42.8734300" lon="-7.8620940">
        <ele>602.3</ele>
        <time>2020-10-19T14:22:16Z</time>
      </trkpt>
      <trkpt lat="42.8734250" lon="-7.8621130">
        <ele>602.3</ele>
        <time>2020-10-19T14:22:17Z</time>
      </trkpt>
      <trkpt lat="42.8734200" lon="-7.8621300">
        <ele>602.3</ele>
        <time>2020-10-19T14:22:18Z</time>
      </trkpt>
      <trkpt lat="42.8734140" lon="-7.8621450">
        <ele>602.4</ele>
        <time>2020-10-19T14:22:19Z</time>
      </trkpt>
      <trkpt lat="42.8734080" lon="-7.8621600">
        <ele>602.4</ele>
        <time>2020-10-19T14:22:20Z</time>
      </trkpt>
      <trkpt lat="42.8734020" lon="-7.8621760">
        <ele>602.4</ele>
        <time>2020-10-19T14:22:21Z</time>
      </trkpt>
      <trkpt lat="42.8733980" lon="-7.8621930">
        <ele>602.4</ele>
        <time>2020-10-19T14:22:22Z</time>
      </trkpt>
      <trkpt lat="42.8733940" lon="-7.8622100">
        <ele>602.5</ele>
        <time>2020-10-19T14:22:23Z</time>
      </trkpt>
      <trkpt lat="42.8733930" lon="-7.8622260">
        <ele>602.5</ele>
        <time>2020-10-19T14:22:24Z</time>
      </trkpt>
      <trkpt lat="42.8733940" lon="-7.8622440">
        <ele>602.5</ele>
        <time>2020-10-19T14:22:25Z</time>
      </trkpt>
      <trkpt lat="42.8733950" lon="-7.8622630">
        <ele>602.5</ele>
        <time>2020-10-19T14:22:26Z</time>
      </trkpt>
      <trkpt lat="42.8733960" lon="-7.8622800">
        <ele>602.5</ele>
        <time>2020-10-19T14:22:27Z</time>
      </trkpt>
      <trkpt lat="42.8733950" lon="-7.8622960">
        <ele>602.6</ele>
        <time>2020-10-19T14:22:28Z</time>
      </trkpt>
      <trkpt lat="42.8733920" lon="-7.8623100">
        <ele>602.6</ele>
        <time>2020-10-19T14:22:29Z</time>
      </trkpt>
      <trkpt lat="42.8733890" lon="-7.8623240">
        <ele>602.6</ele>
        <time>2020-10-19T14:22:30Z</time>
      </trkpt>
      <trkpt lat="42.8733860" lon="-7.8623400">
        <ele>602.6</ele>
        <time>2020-10-19T14:22:31Z</time>
      </trkpt>
      <trkpt lat="42.8733840" lon="-7.8623580">
        <ele>602.6</ele>
        <time>2020-10-19T14:22:32Z</time>
      </trkpt>
      <trkpt lat="42.8733810" lon="-7.8623750">
        <ele>602.6</ele>
        <time>2020-10-19T14:22:33Z</time>
      </trkpt>
      <trkpt lat="42.8733770" lon="-7.8623910">
        <ele>602.6</ele>
        <time>2020-10-19T14:22:34Z</time>
      </trkpt>
      <trkpt lat="42.8733730" lon="-7.8624060">
        <ele>602.6</ele>
        <time>2020-10-19T14:22:35Z</time>
      </trkpt>
      <trkpt lat="42.8733690" lon="-7.8624230">
        <ele>602.6</ele>
        <time>2020-10-19T14:22:36Z</time>
      </trkpt>
      <trkpt lat="42.8733650" lon="-7.8624390">
        <ele>602.6</ele>
        <time>2020-10-19T14:22:37Z</time>
      </trkpt>
      <trkpt lat="42.8733630" lon="-7.8624550">
        <ele>602.6</ele>
        <time>2020-10-19T14:22:38Z</time>
      </trkpt>
      <trkpt lat="42.8733610" lon="-7.8624700">
        <ele>602.6</ele>
        <time>2020-10-19T14:22:39Z</time>
      </trkpt>
      <trkpt lat="42.8733590" lon="-7.8624850">
        <ele>602.6</ele>
        <time>2020-10-19T14:22:40Z</time>
      </trkpt>
      <trkpt lat="42.8733600" lon="-7.8625020">
        <ele>602.6</ele>
        <time>2020-10-19T14:22:41Z</time>
      </trkpt>
      <trkpt lat="42.8733610" lon="-7.8625180">
        <ele>602.6</ele>
        <time>2020-10-19T14:22:42Z</time>
      </trkpt>
      <trkpt lat="42.8733620" lon="-7.8625380">
        <ele>602.5</ele>
        <time>2020-10-19T14:22:43Z</time>
      </trkpt>
      <trkpt lat="42.8733590" lon="-7.8625610">
        <ele>602.5</ele>
        <time>2020-10-19T14:22:44Z</time>
      </trkpt>
      <trkpt lat="42.8733570" lon="-7.8625840">
        <ele>602.5</ele>
        <time>2020-10-19T14:22:45Z</time>
      </trkpt>
      <trkpt lat="42.8733560" lon="-7.8626050">
        <ele>602.4</ele>
        <time>2020-10-19T14:22:46Z</time>
      </trkpt>
      <trkpt lat="42.8733560" lon="-7.8626210">
        <ele>602.4</ele>
        <time>2020-10-19T14:22:47Z</time>
      </trkpt>
      <trkpt lat="42.8733540" lon="-7.8626380">
        <ele>602.3</ele>
        <time>2020-10-19T14:22:48Z</time>
      </trkpt>
      <trkpt lat="42.8733530" lon="-7.8626530">
        <ele>602.3</ele>
        <time>2020-10-19T14:22:49Z</time>
      </trkpt>
      <trkpt lat="42.8733530" lon="-7.8626660">
        <ele>602.2</ele>
        <time>2020-10-19T14:22:50Z</time>
      </trkpt>
      <trkpt lat="42.8733530" lon="-7.8626800">
        <ele>602.2</ele>
        <time>2020-10-19T14:22:51Z</time>
      </trkpt>
      <trkpt lat="42.8733550" lon="-7.8626950">
        <ele>602.1</ele>
        <time>2020-10-19T14:22:52Z</time>
      </trkpt>
      <trkpt lat="42.8733560" lon="-7.8627100">
        <ele>602.1</ele>
        <time>2020-10-19T14:22:53Z</time>
      </trkpt>
      <trkpt lat="42.8733560" lon="-7.8627270">
        <ele>602.0</ele>
        <time>2020-10-19T14:22:54Z</time>
      </trkpt>
      <trkpt lat="42.8733530" lon="-7.8627450">
        <ele>601.9</ele>
        <time>2020-10-19T14:22:55Z</time>
      </trkpt>
      <trkpt lat="42.8733500" lon="-7.8627640">
        <ele>601.9</ele>
        <time>2020-10-19T14:22:56Z</time>
      </trkpt>
      <trkpt lat="42.8733470" lon="-7.8627840">
        <ele>601.8</ele>
        <time>2020-10-19T14:22:57Z</time>
      </trkpt>
      <trkpt lat="42.8733450" lon="-7.8628040">
        <ele>601.7</ele>
        <time>2020-10-19T14:22:58Z</time>
      </trkpt>
      <trkpt lat="42.8733440" lon="-7.8628230">
        <ele>601.6</ele>
        <time>2020-10-19T14:22:59Z</time>
      </trkpt>
      <trkpt lat="42.8733420" lon="-7.8628390">
        <ele>601.5</ele>
        <time>2020-10-19T14:23:00Z</time>
      </trkpt>
      <trkpt lat="42.8733420" lon="-7.8628560">
        <ele>601.4</ele>
        <time>2020-10-19T14:23:01Z</time>
      </trkpt>
      <trkpt lat="42.8733390" lon="-7.8628800">
        <ele>601.2</ele>
        <time>2020-10-19T14:23:02Z</time>
      </trkpt>
      <trkpt lat="42.8733380" lon="-7.8629020">
        <ele>601.1</ele>
        <time>2020-10-19T14:23:03Z</time>
      </trkpt>
      <trkpt lat="42.8733340" lon="-7.8629250">
        <ele>601.0</ele>
        <time>2020-10-19T14:23:04Z</time>
      </trkpt>
      <trkpt lat="42.8733330" lon="-7.8629450">
        <ele>600.8</ele>
        <time>2020-10-19T14:23:05Z</time>
      </trkpt>
      <trkpt lat="42.8733320" lon="-7.8629680">
        <ele>600.7</ele>
        <time>2020-10-19T14:23:06Z</time>
      </trkpt>
      <trkpt lat="42.8733340" lon="-7.8629880">
        <ele>600.5</ele>
        <time>2020-10-19T14:23:07Z</time>
      </trkpt>
      <trkpt lat="42.8733360" lon="-7.8630060">
        <ele>600.4</ele>
        <time>2020-10-19T14:23:08Z</time>
      </trkpt>
      <trkpt lat="42.8733380" lon="-7.8630230">
        <ele>600.3</ele>
        <time>2020-10-19T14:23:09Z</time>
      </trkpt>
      <trkpt lat="42.8733420" lon="-7.8630390">
        <ele>600.2</ele>
        <time>2020-10-19T14:23:10Z</time>
      </trkpt>
      <trkpt lat="42.8733460" lon="-7.8630550">
        <ele>600.1</ele>
        <time>2020-10-19T14:23:11Z</time>
      </trkpt>
      <trkpt lat="42.8733520" lon="-7.8630720">
        <ele>599.9</ele>
        <time>2020-10-19T14:23:12Z</time>
      </trkpt>
      <trkpt lat="42.8733580" lon="-7.8630910">
        <ele>599.8</ele>
        <time>2020-10-19T14:23:13Z</time>
      </trkpt>
      <trkpt lat="42.8733640" lon="-7.8631090">
        <ele>599.6</ele>
        <time>2020-10-19T14:23:14Z</time>
      </trkpt>
      <trkpt lat="42.8733690" lon="-7.8631260">
        <ele>599.5</ele>
        <time>2020-10-19T14:23:15Z</time>
      </trkpt>
      <trkpt lat="42.8733730" lon="-7.8631430">
        <ele>599.4</ele>
        <time>2020-10-19T14:23:16Z</time>
      </trkpt>
      <trkpt lat="42.8733790" lon="-7.8631620">
        <ele>599.2</ele>
        <time>2020-10-19T14:23:17Z</time>
      </trkpt>
      <trkpt lat="42.8733870" lon="-7.8631820">
        <ele>599.0</ele>
        <time>2020-10-19T14:23:18Z</time>
      </trkpt>
      <trkpt lat="42.8733940" lon="-7.8632010">
        <ele>598.9</ele>
        <time>2020-10-19T14:23:19Z</time>
      </trkpt>
      <trkpt lat="42.8733990" lon="-7.8632180">
        <ele>598.7</ele>
        <time>2020-10-19T14:23:20Z</time>
      </trkpt>
      <trkpt lat="42.8734030" lon="-7.8632360">
        <ele>598.6</ele>
        <time>2020-10-19T14:23:21Z</time>
      </trkpt>
      <trkpt lat="42.8734050" lon="-7.8632570">
        <ele>598.4</ele>
        <time>2020-10-19T14:23:22Z</time>
      </trkpt>
      <trkpt lat="42.8734070" lon="-7.8632790">
        <ele>598.2</ele>
        <time>2020-10-19T14:23:23Z</time>
      </trkpt>
      <trkpt lat="42.8734100" lon="-7.8632990">
        <ele>598.1</ele>
        <time>2020-10-19T14:23:24Z</time>
      </trkpt>
      <trkpt lat="42.8734160" lon="-7.8633170">
        <ele>597.9</ele>
        <time>2020-10-19T14:23:25Z</time>
      </trkpt>
      <trkpt lat="42.8734220" lon="-7.8633340">
        <ele>597.8</ele>
        <time>2020-10-19T14:23:26Z</time>
      </trkpt>
      <trkpt lat="42.8734260" lon="-7.8633520">
        <ele>597.6</ele>
        <time>2020-10-19T14:23:27Z</time>
      </trkpt>
      <trkpt lat="42.8734290" lon="-7.8633700">
        <ele>597.5</ele>
        <time>2020-10-19T14:23:28Z</time>
      </trkpt>
      <trkpt lat="42.8734310" lon="-7.8633880">
        <ele>597.4</ele>
        <time>2020-10-19T14:23:29Z</time>
      </trkpt>
      <trkpt lat="42.8734340" lon="-7.8634060">
        <ele>597.2</ele>
        <time>2020-10-19T14:23:30Z</time>
      </trkpt>
      <trkpt lat="42.8734390" lon="-7.8634220">
        <ele>597.1</ele>
        <time>2020-10-19T14:23:31Z</time>
      </trkpt>
      <trkpt lat="42.8734450" lon="-7.8634370">
        <ele>596.9</ele>
        <time>2020-10-19T14:23:32Z</time>
      </trkpt>
      <trkpt lat="42.8734520" lon="-7.8634520">
        <ele>596.8</ele>
        <time>2020-10-19T14:23:33Z</time>
      </trkpt>
      <trkpt lat="42.8734540" lon="-7.8634700">
        <ele>596.7</ele>
        <time>2020-10-19T14:23:34Z</time>
      </trkpt>
      <trkpt lat="42.8734530" lon="-7.8634890">
        <ele>596.5</ele>
        <time>2020-10-19T14:23:35Z</time>
      </trkpt>
      <trkpt lat="42.8734500" lon="-7.8635070">
        <ele>596.4</ele>
        <time>2020-10-19T14:23:36Z</time>
      </trkpt>
      <trkpt lat="42.8734500" lon="-7.8635270">
        <ele>596.2</ele>
        <time>2020-10-19T14:23:37Z</time>
      </trkpt>
      <trkpt lat="42.8734510" lon="-7.8635490">
        <ele>596.1</ele>
        <time>2020-10-19T14:23:38Z</time>
      </trkpt>
      <trkpt lat="42.8734530" lon="-7.8635730">
        <ele>595.9</ele>
        <time>2020-10-19T14:23:39Z</time>
      </trkpt>
      <trkpt lat="42.8734560" lon="-7.8635920">
        <ele>595.7</ele>
        <time>2020-10-19T14:23:40Z</time>
      </trkpt>
      <trkpt lat="42.8734570" lon="-7.8636130">
        <ele>595.6</ele>
        <time>2020-10-19T14:23:41Z</time>
      </trkpt>
      <trkpt lat="42.8734610" lon="-7.8636350">
        <ele>595.4</ele>
        <time>2020-10-19T14:23:42Z</time>
      </trkpt>
      <trkpt lat="42.8734630" lon="-7.8636580">
        <ele>595.2</ele>
        <time>2020-10-19T14:23:43Z</time>
      </trkpt>
      <trkpt lat="42.8734660" lon="-7.8636790">
        <ele>595.0</ele>
        <time>2020-10-19T14:23:44Z</time>
      </trkpt>
      <trkpt lat="42.8734670" lon="-7.8636990">
        <ele>594.8</ele>
        <time>2020-10-19T14:23:45Z</time>
      </trkpt>
      <trkpt lat="42.8734660" lon="-7.8637190">
        <ele>594.7</ele>
        <time>2020-10-19T14:23:46Z</time>
      </trkpt>
      <trkpt lat="42.8734630" lon="-7.8637380">
        <ele>594.5</ele>
        <time>2020-10-19T14:23:47Z</time>
      </trkpt>
      <trkpt lat="42.8734610" lon="-7.8637550">
        <ele>594.3</ele>
        <time>2020-10-19T14:23:48Z</time>
      </trkpt>
      <trkpt lat="42.8734590" lon="-7.8637710">
        <ele>594.2</ele>
        <time>2020-10-19T14:23:49Z</time>
      </trkpt>
      <trkpt lat="42.8734570" lon="-7.8637840">
        <ele>594.1</ele>
        <time>2020-10-19T14:23:50Z</time>
      </trkpt>
      <trkpt lat="42.8734540" lon="-7.8637990">
        <ele>594.0</ele>
        <time>2020-10-19T14:23:51Z</time>
      </trkpt>
      <trkpt lat="42.8734520" lon="-7.8638120">
        <ele>593.9</ele>
        <time>2020-10-19T14:23:52Z</time>
      </trkpt>
      <trkpt lat="42.8734500" lon="-7.8638270">
        <ele>593.7</ele>
        <time>2020-10-19T14:23:53Z</time>
      </trkpt>
      <trkpt lat="42.8734490" lon="-7.8638410">
        <ele>593.6</ele>
        <time>2020-10-19T14:23:54Z</time>
      </trkpt>
      <trkpt lat="42.8734470" lon="-7.8638530">
        <ele>593.5</ele>
        <time>2020-10-19T14:23:55Z</time>
      </trkpt>
      <trkpt lat="42.8734440" lon="-7.8638650">
        <ele>593.4</ele>
        <time>2020-10-19T14:23:56Z</time>
      </trkpt>
      <trkpt lat="42.8734420" lon="-7.8638770">
        <ele>593.3</ele>
        <time>2020-10-19T14:23:57Z</time>
      </trkpt>
      <trkpt lat="42.8734380" lon="-7.8638920">
        <ele>593.2</ele>
        <time>2020-10-19T14:23:58Z</time>
      </trkpt>
      <trkpt lat="42.8734360" lon="-7.8639060">
        <ele>593.1</ele>
        <time>2020-10-19T14:23:59Z</time>
      </trkpt>
      <trkpt lat="42.8734320" lon="-7.8639210">
        <ele>593.0</ele>
        <time>2020-10-19T14:24:00Z</time>
      </trkpt>
      <trkpt lat="42.8734290" lon="-7.8639350">
        <ele>592.9</ele>
        <time>2020-10-19T14:24:01Z</time>
      </trkpt>
      <trkpt lat="42.8734260" lon="-7.8639470">
        <ele>592.8</ele>
        <time>2020-10-19T14:24:02Z</time>
      </trkpt>
      <trkpt lat="42.8734240" lon="-7.8639580">
        <ele>592.7</ele>
        <time>2020-10-19T14:24:03Z</time>
      </trkpt>
      <trkpt lat="42.8734200" lon="-7.8639700">
        <ele>592.6</ele>
        <time>2020-10-19T14:24:04Z</time>
      </trkpt>
      <trkpt lat="42.8734160" lon="-7.8639820">
        <ele>592.5</ele>
        <time>2020-10-19T14:24:05Z</time>
      </trkpt>
      <trkpt lat="42.8734120" lon="-7.8639950">
        <ele>592.4</ele>
        <time>2020-10-19T14:24:06Z</time>
      </trkpt>
      <trkpt lat="42.8734090" lon="-7.8640070">
        <ele>592.3</ele>
        <time>2020-10-19T14:24:07Z</time>
      </trkpt>
      <trkpt lat="42.8734070" lon="-7.8640190">
        <ele>592.2</ele>
        <time>2020-10-19T14:24:08Z</time>
      </trkpt>
      <trkpt lat="42.8734030" lon="-7.8640310">
        <ele>592.1</ele>
        <time>2020-10-19T14:24:09Z</time>
      </trkpt>
      <trkpt lat="42.8734000" lon="-7.8640450">
        <ele>592.0</ele>
        <time>2020-10-19T14:24:10Z</time>
      </trkpt>
      <trkpt lat="42.8733960" lon="-7.8640610">
        <ele>591.9</ele>
        <time>2020-10-19T14:24:11Z</time>
      </trkpt>
      <trkpt lat="42.8733930" lon="-7.8640800">
        <ele>591.8</ele>
        <time>2020-10-19T14:24:12Z</time>
      </trkpt>
      <trkpt lat="42.8733890" lon="-7.8640980">
        <ele>591.7</ele>
        <time>2020-10-19T14:24:13Z</time>
      </trkpt>
      <trkpt lat="42.8733850" lon="-7.8641160">
        <ele>591.5</ele>
        <time>2020-10-19T14:24:14Z</time>
      </trkpt>
      <trkpt lat="42.8733790" lon="-7.8641330">
        <ele>591.4</ele>
        <time>2020-10-19T14:24:15Z</time>
      </trkpt>
      <trkpt lat="42.8733730" lon="-7.8641520">
        <ele>591.3</ele>
        <time>2020-10-19T14:24:16Z</time>
      </trkpt>
      <trkpt lat="42.8733650" lon="-7.8641700">
        <ele>591.1</ele>
        <time>2020-10-19T14:24:17Z</time>
      </trkpt>
      <trkpt lat="42.8733560" lon="-7.8641930">
        <ele>590.9</ele>
        <time>2020-10-19T14:24:18Z</time>
      </trkpt>
      <trkpt lat="42.8733470" lon="-7.8642170">
        <ele>590.8</ele>
        <time>2020-10-19T14:24:19Z</time>
      </trkpt>
      <trkpt lat="42.8733370" lon="-7.8642410">
        <ele>590.6</ele>
        <time>2020-10-19T14:24:20Z</time>
      </trkpt>
      <trkpt lat="42.8733270" lon="-7.8642590">
        <ele>590.4</ele>
        <time>2020-10-19T14:24:21Z</time>
      </trkpt>
      <trkpt lat="42.8733190" lon="-7.8642760">
        <ele>590.3</ele>
        <time>2020-10-19T14:24:22Z</time>
      </trkpt>
      <trkpt lat="42.8733120" lon="-7.8642900">
        <ele>590.2</ele>
        <time>2020-10-19T14:24:23Z</time>
      </trkpt>
      <trkpt lat="42.8733050" lon="-7.8643040">
        <ele>590.1</ele>
        <time>2020-10-19T14:24:24Z</time>
      </trkpt>
      <trkpt lat="42.8732990" lon="-7.8643170">
        <ele>590.0</ele>
        <time>2020-10-19T14:24:25Z</time>
      </trkpt>
      <trkpt lat="42.8732930" lon="-7.8643320">
        <ele>589.9</ele>
        <time>2020-10-19T14:24:26Z</time>
      </trkpt>
      <trkpt lat="42.8732840" lon="-7.8643490">
        <ele>589.8</ele>
        <time>2020-10-19T14:24:27Z</time>
      </trkpt>
      <trkpt lat="42.8732750" lon="-7.8643690">
        <ele>589.6</ele>
        <time>2020-10-19T14:24:28Z</time>
      </trkpt>
      <trkpt lat="42.8732640" lon="-7.8643900">
        <ele>589.5</ele>
        <time>2020-10-19T14:24:29Z</time>
      </trkpt>
      <trkpt lat="42.8732530" lon="-7.8644120">
        <ele>589.3</ele>
        <time>2020-10-19T14:24:30Z</time>
      </trkpt>
      <trkpt lat="42.8732390" lon="-7.8644390">
        <ele>589.1</ele>
        <time>2020-10-19T14:24:31Z</time>
      </trkpt>
      <trkpt lat="42.8732260" lon="-7.8644670">
        <ele>588.9</ele>
        <time>2020-10-19T14:24:32Z</time>
      </trkpt>
      <trkpt lat="42.8732120" lon="-7.8644950">
        <ele>588.7</ele>
        <time>2020-10-19T14:24:33Z</time>
      </trkpt>
      <trkpt lat="42.8732010" lon="-7.8645210">
        <ele>588.5</ele>
        <time>2020-10-19T14:24:34Z</time>
      </trkpt>
      <trkpt lat="42.8731880" lon="-7.8645500">
        <ele>588.3</ele>
        <time>2020-10-19T14:24:35Z</time>
      </trkpt>
      <trkpt lat="42.8731780" lon="-7.8645730">
        <ele>588.1</ele>
        <time>2020-10-19T14:24:36Z</time>
      </trkpt>
      <trkpt lat="42.8731670" lon="-7.8645910">
        <ele>588.0</ele>
        <time>2020-10-19T14:24:37Z</time>
      </trkpt>
      <trkpt lat="42.8731560" lon="-7.8646060">
        <ele>587.8</ele>
        <time>2020-10-19T14:24:38Z</time>
      </trkpt>
      <trkpt lat="42.8731440" lon="-7.8646210">
        <ele>587.7</ele>
        <time>2020-10-19T14:24:39Z</time>
      </trkpt>
      <trkpt lat="42.8731330" lon="-7.8646370">
        <ele>587.6</ele>
        <time>2020-10-19T14:24:40Z</time>
      </trkpt>
      <trkpt lat="42.8731240" lon="-7.8646550">
        <ele>587.4</ele>
        <time>2020-10-19T14:24:41Z</time>
      </trkpt>
      <trkpt lat="42.8731170" lon="-7.8646730">
        <ele>587.3</ele>
        <time>2020-10-19T14:24:42Z</time>
      </trkpt>
      <trkpt lat="42.8731080" lon="-7.8646910">
        <ele>587.2</ele>
        <time>2020-10-19T14:24:43Z</time>
      </trkpt>
      <trkpt lat="42.8731010" lon="-7.8647090">
        <ele>587.1</ele>
        <time>2020-10-19T14:24:44Z</time>
      </trkpt>
      <trkpt lat="42.8730930" lon="-7.8647290">
        <ele>587.0</ele>
        <time>2020-10-19T14:24:45Z</time>
      </trkpt>
      <trkpt lat="42.8730870" lon="-7.8647500">
        <ele>586.8</ele>
        <time>2020-10-19T14:24:46Z</time>
      </trkpt>
      <trkpt lat="42.8730790" lon="-7.8647690">
        <ele>586.7</ele>
        <time>2020-10-19T14:24:47Z</time>
      </trkpt>
      <trkpt lat="42.8730710" lon="-7.8647850">
        <ele>586.6</ele>
        <time>2020-10-19T14:24:48Z</time>
      </trkpt>
      <trkpt lat="42.8730610" lon="-7.8648030">
        <ele>586.4</ele>
        <time>2020-10-19T14:24:49Z</time>
      </trkpt>
      <trkpt lat="42.8730510" lon="-7.8648190">
        <ele>586.3</ele>
        <time>2020-10-19T14:24:50Z</time>
      </trkpt>
      <trkpt lat="42.8730410" lon="-7.8648360">
        <ele>586.2</ele>
        <time>2020-10-19T14:24:51Z</time>
      </trkpt>
      <trkpt lat="42.8730320" lon="-7.8648520">
        <ele>586.1</ele>
        <time>2020-10-19T14:24:52Z</time>
      </trkpt>
      <trkpt lat="42.8730230" lon="-7.8648680">
        <ele>586.0</ele>
        <time>2020-10-19T14:24:53Z</time>
      </trkpt>
      <trkpt lat="42.8730150" lon="-7.8648860">
        <ele>585.8</ele>
        <time>2020-10-19T14:24:54Z</time>
      </trkpt>
      <trkpt lat="42.8730060" lon="-7.8649030">
        <ele>585.7</ele>
        <time>2020-10-19T14:24:55Z</time>
      </trkpt>
      <trkpt lat="42.8729970" lon="-7.8649200">
        <ele>585.6</ele>
        <time>2020-10-19T14:24:56Z</time>
      </trkpt>
      <trkpt lat="42.8729870" lon="-7.8649370">
        <ele>585.4</ele>
        <time>2020-10-19T14:24:57Z</time>
      </trkpt>
      <trkpt lat="42.8729760" lon="-7.8649530">
        <ele>585.3</ele>
        <time>2020-10-19T14:24:58Z</time>
      </trkpt>
      <trkpt lat="42.8729670" lon="-7.8649690">
        <ele>585.2</ele>
        <time>2020-10-19T14:24:59Z</time>
      </trkpt>
      <trkpt lat="42.8729590" lon="-7.8649860">
        <ele>585.0</ele>
        <time>2020-10-19T14:25:00Z</time>
      </trkpt>
      <trkpt lat="42.8729510" lon="-7.8650040">
        <ele>584.9</ele>
        <time>2020-10-19T14:25:01Z</time>
      </trkpt>
      <trkpt lat="42.8729430" lon="-7.8650220">
        <ele>584.7</ele>
        <time>2020-10-19T14:25:02Z</time>
      </trkpt>
      <trkpt lat="42.8729350" lon="-7.8650390">
        <ele>584.6</ele>
        <time>2020-10-19T14:25:03Z</time>
      </trkpt>
      <trkpt lat="42.8729270" lon="-7.8650540">
        <ele>584.4</ele>
        <time>2020-10-19T14:25:04Z</time>
      </trkpt>
      <trkpt lat="42.8729210" lon="-7.8650690">
        <ele>584.3</ele>
        <time>2020-10-19T14:25:05Z</time>
      </trkpt>
      <trkpt lat="42.8729140" lon="-7.8650850">
        <ele>584.2</ele>
        <time>2020-10-19T14:25:06Z</time>
      </trkpt>
      <trkpt lat="42.8729080" lon="-7.8651020">
        <ele>584.0</ele>
        <time>2020-10-19T14:25:07Z</time>
      </trkpt>
      <trkpt lat="42.8729010" lon="-7.8651190">
        <ele>583.9</ele>
        <time>2020-10-19T14:25:08Z</time>
      </trkpt>
      <trkpt lat="42.8728950" lon="-7.8651360">
        <ele>583.7</ele>
        <time>2020-10-19T14:25:09Z</time>
      </trkpt>
      <trkpt lat="42.8728890" lon="-7.8651540">
        <ele>583.5</ele>
        <time>2020-10-19T14:25:10Z</time>
      </trkpt>
      <trkpt lat="42.8728830" lon="-7.8651740">
        <ele>583.4</ele>
        <time>2020-10-19T14:25:11Z</time>
      </trkpt>
      <trkpt lat="42.8728770" lon="-7.8651970">
        <ele>583.2</ele>
        <time>2020-10-19T14:25:12Z</time>
      </trkpt>
      <trkpt lat="42.8728720" lon="-7.8652190">
        <ele>583.0</ele>
        <time>2020-10-19T14:25:13Z</time>
      </trkpt>
      <trkpt lat="42.8728680" lon="-7.8652390">
        <ele>582.8</ele>
        <time>2020-10-19T14:25:14Z</time>
      </trkpt>
      <trkpt lat="42.8728640" lon="-7.8652580">
        <ele>582.7</ele>
        <time>2020-10-19T14:25:15Z</time>
      </trkpt>
      <trkpt lat="42.8728600" lon="-7.8652770">
        <ele>582.5</ele>
        <time>2020-10-19T14:25:16Z</time>
      </trkpt>
      <trkpt lat="42.8728570" lon="-7.8652960">
        <ele>582.3</ele>
        <time>2020-10-19T14:25:17Z</time>
      </trkpt>
      <trkpt lat="42.8728520" lon="-7.8653160">
        <ele>582.2</ele>
        <time>2020-10-19T14:25:18Z</time>
      </trkpt>
      <trkpt lat="42.8728480" lon="-7.8653340">
        <ele>582.0</ele>
        <time>2020-10-19T14:25:19Z</time>
      </trkpt>
      <trkpt lat="42.8728430" lon="-7.8653530">
        <ele>581.9</ele>
        <time>2020-10-19T14:25:20Z</time>
      </trkpt>
      <trkpt lat="42.8728380" lon="-7.8653700">
        <ele>581.7</ele>
        <time>2020-10-19T14:25:21Z</time>
      </trkpt>
      <trkpt lat="42.8728320" lon="-7.8653900">
        <ele>581.6</ele>
        <time>2020-10-19T14:25:22Z</time>
      </trkpt>
      <trkpt lat="42.8728290" lon="-7.8654070">
        <ele>581.4</ele>
        <time>2020-10-19T14:25:23Z</time>
      </trkpt>
      <trkpt lat="42.8728270" lon="-7.8654260">
        <ele>581.3</ele>
        <time>2020-10-19T14:25:24Z</time>
      </trkpt>
      <trkpt lat="42.8728270" lon="-7.8654450">
        <ele>581.1</ele>
        <time>2020-10-19T14:25:25Z</time>
      </trkpt>
      <trkpt lat="42.8728270" lon="-7.8654670">
        <ele>581.0</ele>
        <time>2020-10-19T14:25:26Z</time>
      </trkpt>
      <trkpt lat="42.8728250" lon="-7.8654880">
        <ele>580.8</ele>
        <time>2020-10-19T14:25:27Z</time>
      </trkpt>
      <trkpt lat="42.8728230" lon="-7.8655080">
        <ele>580.7</ele>
        <time>2020-10-19T14:25:28Z</time>
      </trkpt>
      <trkpt lat="42.8728190" lon="-7.8655290">
        <ele>580.5</ele>
        <time>2020-10-19T14:25:29Z</time>
      </trkpt>
      <trkpt lat="42.8728160" lon="-7.8655510">
        <ele>580.3</ele>
        <time>2020-10-19T14:25:30Z</time>
      </trkpt>
      <trkpt lat="42.8728130" lon="-7.8655740">
        <ele>580.1</ele>
        <time>2020-10-19T14:25:31Z</time>
      </trkpt>
      <trkpt lat="42.8728100" lon="-7.8655960">
        <ele>580.0</ele>
        <time>2020-10-19T14:25:32Z</time>
      </trkpt>
      <trkpt lat="42.8728080" lon="-7.8656170">
        <ele>579.8</ele>
        <time>2020-10-19T14:25:33Z</time>
      </trkpt>
      <trkpt lat="42.8728050" lon="-7.8656380">
        <ele>579.7</ele>
        <time>2020-10-19T14:25:34Z</time>
      </trkpt>
      <trkpt lat="42.8728020" lon="-7.8656580">
        <ele>579.5</ele>
        <time>2020-10-19T14:25:35Z</time>
      </trkpt>
      <trkpt lat="42.8728000" lon="-7.8656790">
        <ele>579.3</ele>
        <time>2020-10-19T14:25:36Z</time>
      </trkpt>
      <trkpt lat="42.8727970" lon="-7.8656990">
        <ele>579.2</ele>
        <time>2020-10-19T14:25:37Z</time>
      </trkpt>
      <trkpt lat="42.8727930" lon="-7.8657180">
        <ele>579.0</ele>
        <time>2020-10-19T14:25:38Z</time>
      </trkpt>
      <trkpt lat="42.8727900" lon="-7.8657370">
        <ele>578.9</ele>
        <time>2020-10-19T14:25:39Z</time>
      </trkpt>
      <trkpt lat="42.8727860" lon="-7.8657550">
        <ele>578.8</ele>
        <time>2020-10-19T14:25:40Z</time>
      </trkpt>
      <trkpt lat="42.8727840" lon="-7.8657720">
        <ele>578.6</ele>
        <time>2020-10-19T14:25:41Z</time>
      </trkpt>
      <trkpt lat="42.8727820" lon="-7.8657890">
        <ele>578.5</ele>
        <time>2020-10-19T14:25:42Z</time>
      </trkpt>
      <trkpt lat="42.8727820" lon="-7.8658080">
        <ele>578.4</ele>
        <time>2020-10-19T14:25:43Z</time>
      </trkpt>
      <trkpt lat="42.8727820" lon="-7.8658290">
        <ele>578.2</ele>
        <time>2020-10-19T14:25:44Z</time>
      </trkpt>
      <trkpt lat="42.8727830" lon="-7.8658490">
        <ele>578.1</ele>
        <time>2020-10-19T14:25:45Z</time>
      </trkpt>
      <trkpt lat="42.8727840" lon="-7.8658690">
        <ele>577.9</ele>
        <time>2020-10-19T14:25:46Z</time>
      </trkpt>
      <trkpt lat="42.8727850" lon="-7.8658880">
        <ele>577.8</ele>
        <time>2020-10-19T14:25:47Z</time>
      </trkpt>
      <trkpt lat="42.8727850" lon="-7.8659090">
        <ele>577.6</ele>
        <time>2020-10-19T14:25:48Z</time>
      </trkpt>
      <trkpt lat="42.8727830" lon="-7.8659320">
        <ele>577.4</ele>
        <time>2020-10-19T14:25:49Z</time>
      </trkpt>
      <trkpt lat="42.8727800" lon="-7.8659550">
        <ele>577.3</ele>
        <time>2020-10-19T14:25:50Z</time>
      </trkpt>
      <trkpt lat="42.8727780" lon="-7.8659770">
        <ele>577.1</ele>
        <time>2020-10-19T14:25:51Z</time>
      </trkpt>
      <trkpt lat="42.8727750" lon="-7.8659960">
        <ele>576.9</ele>
        <time>2020-10-19T14:25:52Z</time>
      </trkpt>
      <trkpt lat="42.8727730" lon="-7.8660160">
        <ele>576.8</ele>
        <time>2020-10-19T14:25:53Z</time>
      </trkpt>
      <trkpt lat="42.8727720" lon="-7.8660350">
        <ele>576.7</ele>
        <time>2020-10-19T14:25:54Z</time>
      </trkpt>
      <trkpt lat="42.8727710" lon="-7.8660560">
        <ele>576.5</ele>
        <time>2020-10-19T14:25:55Z</time>
      </trkpt>
      <trkpt lat="42.8727700" lon="-7.8660760">
        <ele>576.3</ele>
        <time>2020-10-19T14:25:56Z</time>
      </trkpt>
      <trkpt lat="42.8727690" lon="-7.8660970">
        <ele>576.2</ele>
        <time>2020-10-19T14:25:57Z</time>
      </trkpt>
      <trkpt lat="42.8727690" lon="-7.8661170">
        <ele>576.0</ele>
        <time>2020-10-19T14:25:58Z</time>
      </trkpt>
      <trkpt lat="42.8727690" lon="-7.8661380">
        <ele>575.8</ele>
        <time>2020-10-19T14:25:59Z</time>
      </trkpt>
      <trkpt lat="42.8727690" lon="-7.8661570">
        <ele>575.7</ele>
        <time>2020-10-19T14:26:00Z</time>
      </trkpt>
      <trkpt lat="42.8727680" lon="-7.8661770">
        <ele>575.5</ele>
        <time>2020-10-19T14:26:01Z</time>
      </trkpt>
      <trkpt lat="42.8727660" lon="-7.8661970">
        <ele>575.3</ele>
        <time>2020-10-19T14:26:02Z</time>
      </trkpt>
      <trkpt lat="42.8727650" lon="-7.8662160">
        <ele>575.2</ele>
        <time>2020-10-19T14:26:03Z</time>
      </trkpt>
      <trkpt lat="42.8727650" lon="-7.8662350">
        <ele>575.0</ele>
        <time>2020-10-19T14:26:04Z</time>
      </trkpt>
      <trkpt lat="42.8727660" lon="-7.8662550">
        <ele>574.9</ele>
        <time>2020-10-19T14:26:05Z</time>
      </trkpt>
      <trkpt lat="42.8727660" lon="-7.8662750">
        <ele>574.7</ele>
        <time>2020-10-19T14:26:06Z</time>
      </trkpt>
      <trkpt lat="42.8727660" lon="-7.8662940">
        <ele>574.6</ele>
        <time>2020-10-19T14:26:07Z</time>
      </trkpt>
      <trkpt lat="42.8727660" lon="-7.8663140">
        <ele>574.4</ele>
        <time>2020-10-19T14:26:08Z</time>
      </trkpt>
      <trkpt lat="42.8727670" lon="-7.8663330">
        <ele>574.3</ele>
        <time>2020-10-19T14:26:09Z</time>
      </trkpt>
      <trkpt lat="42.8727690" lon="-7.8663510">
        <ele>574.1</ele>
        <time>2020-10-19T14:26:10Z</time>
      </trkpt>
      <trkpt lat="42.8727720" lon="-7.8663680">
        <ele>573.7</ele>
        <time>2020-10-19T14:26:11Z</time>
      </trkpt>
      <trkpt lat="42.8727770" lon="-7.8663850">
        <ele>573.7</ele>
        <time>2020-10-19T14:26:12Z</time>
      </trkpt>
      <trkpt lat="42.8727830" lon="-7.8664030">
        <ele>573.6</ele>
        <time>2020-10-19T14:26:13Z</time>
      </trkpt>
      <trkpt lat="42.8727910" lon="-7.8664200">
        <ele>573.5</ele>
        <time>2020-10-19T14:26:14Z</time>
      </trkpt>
      <trkpt lat="42.8727990" lon="-7.8664360">
        <ele>573.5</ele>
        <time>2020-10-19T14:26:15Z</time>
      </trkpt>
      <trkpt lat="42.8728090" lon="-7.8664490">
        <ele>573.4</ele>
        <time>2020-10-19T14:26:16Z</time>
      </trkpt>
      <trkpt lat="42.8728180" lon="-7.8664630">
        <ele>573.4</ele>
        <time>2020-10-19T14:26:17Z</time>
      </trkpt>
      <trkpt lat="42.8728270" lon="-7.8664780">
        <ele>573.3</ele>
        <time>2020-10-19T14:26:18Z</time>
      </trkpt>
      <trkpt lat="42.8728360" lon="-7.8664940">
        <ele>573.3</ele>
        <time>2020-10-19T14:26:19Z</time>
      </trkpt>
      <trkpt lat="42.8728440" lon="-7.8665110">
        <ele>573.2</ele>
        <time>2020-10-19T14:26:20Z</time>
      </trkpt>
      <trkpt lat="42.8728520" lon="-7.8665280">
        <ele>573.2</ele>
        <time>2020-10-19T14:26:21Z</time>
      </trkpt>
      <trkpt lat="42.8728610" lon="-7.8665450">
        <ele>573.1</ele>
        <time>2020-10-19T14:26:22Z</time>
      </trkpt>
      <trkpt lat="42.8728690" lon="-7.8665610">
        <ele>573.1</ele>
        <time>2020-10-19T14:26:23Z</time>
      </trkpt>
      <trkpt lat="42.8728750" lon="-7.8665790">
        <ele>573.0</ele>
        <time>2020-10-19T14:26:24Z</time>
      </trkpt>
      <trkpt lat="42.8728820" lon="-7.8665960">
        <ele>573.0</ele>
        <time>2020-10-19T14:26:25Z</time>
      </trkpt>
      <trkpt lat="42.8728890" lon="-7.8666140">
        <ele>572.9</ele>
        <time>2020-10-19T14:26:26Z</time>
      </trkpt>
      <trkpt lat="42.8728960" lon="-7.8666320">
        <ele>572.9</ele>
        <time>2020-10-19T14:26:27Z</time>
      </trkpt>
      <trkpt lat="42.8729010" lon="-7.8666510">
        <ele>572.8</ele>
        <time>2020-10-19T14:26:28Z</time>
      </trkpt>
      <trkpt lat="42.8729060" lon="-7.8666710">
        <ele>572.8</ele>
        <time>2020-10-19T14:26:29Z</time>
      </trkpt>
      <trkpt lat="42.8729110" lon="-7.8666900">
        <ele>572.7</ele>
        <time>2020-10-19T14:26:30Z</time>
      </trkpt>
      <trkpt lat="42.8729140" lon="-7.8667110">
        <ele>572.7</ele>
        <time>2020-10-19T14:26:31Z</time>
      </trkpt>
      <trkpt lat="42.8729140" lon="-7.8667320">
        <ele>572.6</ele>
        <time>2020-10-19T14:26:32Z</time>
      </trkpt>
      <trkpt lat="42.8729140" lon="-7.8667520">
        <ele>572.6</ele>
        <time>2020-10-19T14:26:33Z</time>
      </trkpt>
      <trkpt lat="42.8729120" lon="-7.8667730">
        <ele>572.5</ele>
        <time>2020-10-19T14:26:34Z</time>
      </trkpt>
      <trkpt lat="42.8729100" lon="-7.8667930">
        <ele>572.5</ele>
        <time>2020-10-19T14:26:35Z</time>
      </trkpt>
      <trkpt lat="42.8729070" lon="-7.8668140">
        <ele>572.4</ele>
        <time>2020-10-19T14:26:36Z</time>
      </trkpt>
      <trkpt lat="42.8729030" lon="-7.8668340">
        <ele>572.4</ele>
        <time>2020-10-19T14:26:37Z</time>
      </trkpt>
      <trkpt lat="42.8728980" lon="-7.8668540">
        <ele>572.4</ele>
        <time>2020-10-19T14:26:38Z</time>
      </trkpt>
      <trkpt lat="42.8728950" lon="-7.8668750">
        <ele>572.3</ele>
        <time>2020-10-19T14:26:39Z</time>
      </trkpt>
      <trkpt lat="42.8728930" lon="-7.8668950">
        <ele>572.3</ele>
        <time>2020-10-19T14:26:40Z</time>
      </trkpt>
      <trkpt lat="42.8728920" lon="-7.8669150">
        <ele>572.2</ele>
        <time>2020-10-19T14:26:41Z</time>
      </trkpt>
      <trkpt lat="42.8728910" lon="-7.8669340">
        <ele>572.2</ele>
        <time>2020-10-19T14:26:42Z</time>
      </trkpt>
      <trkpt lat="42.8728900" lon="-7.8669530">
        <ele>572.2</ele>
        <time>2020-10-19T14:26:43Z</time>
      </trkpt>
      <trkpt lat="42.8728880" lon="-7.8669710">
        <ele>572.1</ele>
        <time>2020-10-19T14:26:44Z</time>
      </trkpt>
      <trkpt lat="42.8728850" lon="-7.8669900">
        <ele>572.1</ele>
        <time>2020-10-19T14:26:45Z</time>
      </trkpt>
      <trkpt lat="42.8728820" lon="-7.8670080">
        <ele>572.1</ele>
        <time>2020-10-19T14:26:46Z</time>
      </trkpt>
      <trkpt lat="42.8728790" lon="-7.8670270">
        <ele>572.1</ele>
        <time>2020-10-19T14:26:47Z</time>
      </trkpt>
      <trkpt lat="42.8728760" lon="-7.8670470">
        <ele>572.0</ele>
        <time>2020-10-19T14:26:48Z</time>
      </trkpt>
      <trkpt lat="42.8728720" lon="-7.8670660">
        <ele>572.0</ele>
        <time>2020-10-19T14:26:49Z</time>
      </trkpt>
      <trkpt lat="42.8728670" lon="-7.8670850">
        <ele>572.0</ele>
        <time>2020-10-19T14:26:50Z</time>
      </trkpt>
      <trkpt lat="42.8728620" lon="-7.8671020">
        <ele>572.0</ele>
        <time>2020-10-19T14:26:51Z</time>
      </trkpt>
      <trkpt lat="42.8728570" lon="-7.8671210">
        <ele>572.0</ele>
        <time>2020-10-19T14:26:52Z</time>
      </trkpt>
      <trkpt lat="42.8728510" lon="-7.8671400">
        <ele>572.0</ele>
        <time>2020-10-19T14:26:53Z</time>
      </trkpt>
      <trkpt lat="42.8728450" lon="-7.8671600">
        <ele>571.9</ele>
        <time>2020-10-19T14:26:54Z</time>
      </trkpt>
      <trkpt lat="42.8728380" lon="-7.8671800">
        <ele>571.9</ele>
        <time>2020-10-19T14:26:55Z</time>
      </trkpt>
      <trkpt lat="42.8728320" lon="-7.8671980">
        <ele>571.9</ele>
        <time>2020-10-19T14:26:56Z</time>
      </trkpt>
      <trkpt lat="42.8728270" lon="-7.8672160">
        <ele>571.9</ele>
        <time>2020-10-19T14:26:57Z</time>
      </trkpt>
      <trkpt lat="42.8728230" lon="-7.8672340">
        <ele>571.9</ele>
        <time>2020-10-19T14:26:58Z</time>
      </trkpt>
      <trkpt lat="42.8728190" lon="-7.8672530">
        <ele>571.8</ele>
        <time>2020-10-19T14:26:59Z</time>
      </trkpt>
      <trkpt lat="42.8728150" lon="-7.8672710">
        <ele>571.8</ele>
        <time>2020-10-19T14:27:00Z</time>
      </trkpt>
      <trkpt lat="42.8728110" lon="-7.8672900">
        <ele>571.8</ele>
        <time>2020-10-19T14:27:01Z</time>
      </trkpt>
      <trkpt lat="42.8728070" lon="-7.8673080">
        <ele>571.8</ele>
        <time>2020-10-19T14:27:02Z</time>
      </trkpt>
      <trkpt lat="42.8728050" lon="-7.8673270">
        <ele>571.8</ele>
        <time>2020-10-19T14:27:03Z</time>
      </trkpt>
      <trkpt lat="42.8728050" lon="-7.8673480">
        <ele>571.8</ele>
        <time>2020-10-19T14:27:04Z</time>
      </trkpt>
      <trkpt lat="42.8728050" lon="-7.8673700">
        <ele>571.7</ele>
        <time>2020-10-19T14:27:05Z</time>
      </trkpt>
      <trkpt lat="42.8728060" lon="-7.8673920">
        <ele>571.7</ele>
        <time>2020-10-19T14:27:06Z</time>
      </trkpt>
      <trkpt lat="42.8728120" lon="-7.8674130">
        <ele>571.7</ele>
        <time>2020-10-19T14:27:07Z</time>
      </trkpt>
      <trkpt lat="42.8728200" lon="-7.8674290">
        <ele>571.7</ele>
        <time>2020-10-19T14:27:08Z</time>
      </trkpt>
      <trkpt lat="42.8728290" lon="-7.8674420">
        <ele>571.6</ele>
        <time>2020-10-19T14:27:09Z</time>
      </trkpt>
      <trkpt lat="42.8728360" lon="-7.8674500">
        <ele>571.6</ele>
        <time>2020-10-19T14:27:10Z</time>
      </trkpt>
      <trkpt lat="42.8728450" lon="-7.8674550">
        <ele>571.6</ele>
        <time>2020-10-19T14:27:11Z</time>
      </trkpt>
      <trkpt lat="42.8728540" lon="-7.8674580">
        <ele>571.6</ele>
        <time>2020-10-19T14:27:12Z</time>
      </trkpt>
      <trkpt lat="42.8728640" lon="-7.8674580">
        <ele>572.2</ele>
        <time>2020-10-19T14:27:13Z</time>
      </trkpt>
      <trkpt lat="42.8728730" lon="-7.8674580">
        <ele>572.3</ele>
        <time>2020-10-19T14:27:14Z</time>
      </trkpt>
      <trkpt lat="42.8728820" lon="-7.8674570">
        <ele>572.3</ele>
        <time>2020-10-19T14:27:15Z</time>
      </trkpt>
      <trkpt lat="42.8728920" lon="-7.8674530">
        <ele>572.4</ele>
        <time>2020-10-19T14:27:16Z</time>
      </trkpt>
      <trkpt lat="42.8729010" lon="-7.8674490">
        <ele>572.4</ele>
        <time>2020-10-19T14:27:17Z</time>
      </trkpt>
      <trkpt lat="42.8729090" lon="-7.8674460">
        <ele>572.5</ele>
        <time>2020-10-19T14:27:18Z</time>
      </trkpt>
      <trkpt lat="42.8729180" lon="-7.8674430">
        <ele>572.5</ele>
        <time>2020-10-19T14:27:19Z</time>
      </trkpt>
      <trkpt lat="42.8729270" lon="-7.8674390">
        <ele>572.6</ele>
        <time>2020-10-19T14:27:20Z</time>
      </trkpt>
      <trkpt lat="42.8729370" lon="-7.8674330">
        <ele>572.6</ele>
        <time>2020-10-19T14:27:21Z</time>
      </trkpt>
      <trkpt lat="42.8729480" lon="-7.8674260">
        <ele>572.7</ele>
        <time>2020-10-19T14:27:22Z</time>
      </trkpt>
      <trkpt lat="42.8729590" lon="-7.8674190">
        <ele>572.7</ele>
        <time>2020-10-19T14:27:23Z</time>
      </trkpt>
      <trkpt lat="42.8729690" lon="-7.8674110">
        <ele>572.8</ele>
        <time>2020-10-19T14:27:24Z</time>
      </trkpt>
      <trkpt lat="42.8729790" lon="-7.8674010">
        <ele>572.9</ele>
        <time>2020-10-19T14:27:25Z</time>
      </trkpt>
      <trkpt lat="42.8729870" lon="-7.8673910">
        <ele>572.9</ele>
        <time>2020-10-19T14:27:26Z</time>
      </trkpt>
      <trkpt lat="42.8729970" lon="-7.8673810">
        <ele>573.0</ele>
        <time>2020-10-19T14:27:27Z</time>
      </trkpt>
      <trkpt lat="42.8730080" lon="-7.8673660">
        <ele>573.0</ele>
        <time>2020-10-19T14:27:28Z</time>
      </trkpt>
      <trkpt lat="42.8730230" lon="-7.8673450">
        <ele>573.1</ele>
        <time>2020-10-19T14:27:29Z</time>
      </trkpt>
      <trkpt lat="42.8730410" lon="-7.8673220">
        <ele>573.2</ele>
        <time>2020-10-19T14:27:30Z</time>
      </trkpt>
      <trkpt lat="42.8730590" lon="-7.8673060">
        <ele>573.3</ele>
        <time>2020-10-19T14:27:31Z</time>
      </trkpt>
      <trkpt lat="42.8730760" lon="-7.8672950">
        <ele>573.3</ele>
        <time>2020-10-19T14:27:32Z</time>
      </trkpt>
      <trkpt lat="42.8730910" lon="-7.8672870">
        <ele>573.4</ele>
        <time>2020-10-19T14:27:33Z</time>
      </trkpt>
      <trkpt lat="42.8731050" lon="-7.8672790">
        <ele>573.4</ele>
        <time>2020-10-19T14:27:34Z</time>
      </trkpt>
      <trkpt lat="42.8731190" lon="-7.8672710">
        <ele>573.5</ele>
        <time>2020-10-19T14:27:35Z</time>
      </trkpt>
      <trkpt lat="42.8731320" lon="-7.8672640">
        <ele>573.5</ele>
        <time>2020-10-19T14:27:36Z</time>
      </trkpt>
      <trkpt lat="42.8731460" lon="-7.8672560">
        <ele>573.5</ele>
        <time>2020-10-19T14:27:37Z</time>
      </trkpt>
      <trkpt lat="42.8731600" lon="-7.8672490">
        <ele>573.5</ele>
        <time>2020-10-19T14:27:38Z</time>
      </trkpt>
      <trkpt lat="42.8731740" lon="-7.8672410">
        <ele>573.6</ele>
        <time>2020-10-19T14:27:39Z</time>
      </trkpt>
      <trkpt lat="42.8731880" lon="-7.8672340">
        <ele>573.6</ele>
        <time>2020-10-19T14:27:40Z</time>
      </trkpt>
      <trkpt lat="42.8732010" lon="-7.8672290">
        <ele>573.6</ele>
        <time>2020-10-19T14:27:41Z</time>
      </trkpt>
      <trkpt lat="42.8732160" lon="-7.8672270">
        <ele>573.6</ele>
        <time>2020-10-19T14:27:42Z</time>
      </trkpt>
      <trkpt lat="42.8732320" lon="-7.8672270">
        <ele>573.6</ele>
        <time>2020-10-19T14:27:43Z</time>
      </trkpt>
      <trkpt lat="42.8732500" lon="-7.8672280">
        <ele>573.6</ele>
        <time>2020-10-19T14:27:44Z</time>
      </trkpt>
      <trkpt lat="42.8732660" lon="-7.8672320">
        <ele>573.7</ele>
        <time>2020-10-19T14:27:45Z</time>
      </trkpt>
      <trkpt lat="42.8732820" lon="-7.8672370">
        <ele>573.7</ele>
        <time>2020-10-19T14:27:46Z</time>
      </trkpt>
      <trkpt lat="42.8732970" lon="-7.8672400">
        <ele>573.7</ele>
        <time>2020-10-19T14:27:47Z</time>
      </trkpt>
      <trkpt lat="42.8733120" lon="-7.8672430">
        <ele>573.7</ele>
        <time>2020-10-19T14:27:48Z</time>
      </trkpt>
      <trkpt lat="42.8733270" lon="-7.8672460">
        <ele>573.7</ele>
        <time>2020-10-19T14:27:49Z</time>
      </trkpt>
      <trkpt lat="42.8733420" lon="-7.8672510">
        <ele>573.7</ele>
        <time>2020-10-19T14:27:50Z</time>
      </trkpt>
      <trkpt lat="42.8733550" lon="-7.8672550">
        <ele>573.7</ele>
        <time>2020-10-19T14:27:51Z</time>
      </trkpt>
      <trkpt lat="42.8733690" lon="-7.8672600">
        <ele>573.7</ele>
        <time>2020-10-19T14:27:52Z</time>
      </trkpt>
      <trkpt lat="42.8733820" lon="-7.8672670">
        <ele>573.7</ele>
        <time>2020-10-19T14:27:53Z</time>
      </trkpt>
      <trkpt lat="42.8733940" lon="-7.8672720">
        <ele>573.7</ele>
        <time>2020-10-19T14:27:54Z</time>
      </trkpt>
      <trkpt lat="42.8734060" lon="-7.8672750">
        <ele>573.7</ele>
        <time>2020-10-19T14:27:55Z</time>
      </trkpt>
      <trkpt lat="42.8734190" lon="-7.8672770">
        <ele>573.7</ele>
        <time>2020-10-19T14:27:56Z</time>
      </trkpt>
      <trkpt lat="42.8734330" lon="-7.8672800">
        <ele>573.7</ele>
        <time>2020-10-19T14:27:57Z</time>
      </trkpt>
      <trkpt lat="42.8734470" lon="-7.8672840">
        <ele>573.7</ele>
        <time>2020-10-19T14:27:58Z</time>
      </trkpt>
      <trkpt lat="42.8734620" lon="-7.8672890">
        <ele>573.7</ele>
        <time>2020-10-19T14:27:59Z</time>
      </trkpt>
      <trkpt lat="42.8734770" lon="-7.8672930">
        <ele>573.8</ele>
        <time>2020-10-19T14:28:00Z</time>
      </trkpt>
      <trkpt lat="42.8734910" lon="-7.8672950">
        <ele>573.8</ele>
        <time>2020-10-19T14:28:01Z</time>
      </trkpt>
      <trkpt lat="42.8735050" lon="-7.8672980">
        <ele>573.8</ele>
        <time>2020-10-19T14:28:02Z</time>
      </trkpt>
      <trkpt lat="42.8735180" lon="-7.8673010">
        <ele>573.8</ele>
        <time>2020-10-19T14:28:03Z</time>
      </trkpt>
      <trkpt lat="42.8735320" lon="-7.8673040">
        <ele>573.8</ele>
        <time>2020-10-19T14:28:04Z</time>
      </trkpt>
      <trkpt lat="42.8735460" lon="-7.8673070">
        <ele>573.8</ele>
        <time>2020-10-19T14:28:05Z</time>
      </trkpt>
      <trkpt lat="42.8735600" lon="-7.8673100">
        <ele>573.8</ele>
        <time>2020-10-19T14:28:06Z</time>
      </trkpt>
      <trkpt lat="42.8735750" lon="-7.8673130">
        <ele>573.8</ele>
        <time>2020-10-19T14:28:07Z</time>
      </trkpt>
      <trkpt lat="42.8735900" lon="-7.8673150">
        <ele>573.8</ele>
        <time>2020-10-19T14:28:08Z</time>
      </trkpt>
      <trkpt lat="42.8736050" lon="-7.8673170">
        <ele>573.8</ele>
        <time>2020-10-19T14:28:09Z</time>
      </trkpt>
      <trkpt lat="42.8736190" lon="-7.8673190">
        <ele>573.8</ele>
        <time>2020-10-19T14:28:10Z</time>
      </trkpt>
      <trkpt lat="42.8736330" lon="-7.8673220">
        <ele>573.8</ele>
        <time>2020-10-19T14:28:11Z</time>
      </trkpt>
      <trkpt lat="42.8736480" lon="-7.8673250">
        <ele>573.8</ele>
        <time>2020-10-19T14:28:12Z</time>
      </trkpt>
      <trkpt lat="42.8736620" lon="-7.8673270">
        <ele>573.8</ele>
        <time>2020-10-19T14:28:13Z</time>
      </trkpt>
      <trkpt lat="42.8736760" lon="-7.8673300">
        <ele>573.8</ele>
        <time>2020-10-19T14:28:14Z</time>
      </trkpt>
      <trkpt lat="42.8736890" lon="-7.8673330">
        <ele>573.8</ele>
        <time>2020-10-19T14:28:15Z</time>
      </trkpt>
      <trkpt lat="42.8737030" lon="-7.8673370">
        <ele>573.8</ele>
        <time>2020-10-19T14:28:16Z</time>
      </trkpt>
      <trkpt lat="42.8737180" lon="-7.8673400">
        <ele>573.8</ele>
        <time>2020-10-19T14:28:17Z</time>
      </trkpt>
      <trkpt lat="42.8737320" lon="-7.8673430">
        <ele>573.8</ele>
        <time>2020-10-19T14:28:18Z</time>
      </trkpt>
      <trkpt lat="42.8737470" lon="-7.8673450">
        <ele>573.8</ele>
        <time>2020-10-19T14:28:19Z</time>
      </trkpt>
      <trkpt lat="42.8737620" lon="-7.8673450">
        <ele>573.8</ele>
        <time>2020-10-19T14:28:20Z</time>
      </trkpt>
      <trkpt lat="42.8737750" lon="-7.8673440">
        <ele>573.8</ele>
        <time>2020-10-19T14:28:21Z</time>
      </trkpt>
      <trkpt lat="42.8737860" lon="-7.8673410">
        <ele>573.8</ele>
        <time>2020-10-19T14:28:22Z</time>
      </trkpt>
      <trkpt lat="42.8737970" lon="-7.8673380">
        <ele>573.7</ele>
        <time>2020-10-19T14:28:23Z</time>
      </trkpt>
      <trkpt lat="42.8738040" lon="-7.8673350">
        <ele>573.7</ele>
        <time>2020-10-19T14:28:24Z</time>
      </trkpt>
      <trkpt lat="42.8738090" lon="-7.8673330">
        <ele>573.7</ele>
        <time>2020-10-19T14:28:25Z</time>
      </trkpt>
      <trkpt lat="42.8738100" lon="-7.8673290">
        <ele>573.7</ele>
        <time>2020-10-19T14:28:26Z</time>
      </trkpt>
      <trkpt lat="42.8738070" lon="-7.8673240">
        <ele>573.7</ele>
        <time>2020-10-19T14:28:27Z</time>
      </trkpt>
      <trkpt lat="42.8738030" lon="-7.8673170">
        <ele>573.7</ele>
        <time>2020-10-19T14:28:28Z</time>
      </trkpt>
      <trkpt lat="42.8737990" lon="-7.8673140">
        <ele>573.7</ele>
        <time>2020-10-19T14:28:29Z</time>
      </trkpt>
      <trkpt lat="42.8737980" lon="-7.8673140">
        <ele>573.7</ele>
        <time>2020-10-19T14:28:30Z</time>
      </trkpt>
      <trkpt lat="42.8737970" lon="-7.8673140">
        <ele>573.7</ele>
        <time>2020-10-19T14:28:31Z</time>
      </trkpt>
      <trkpt lat="42.8737980" lon="-7.8673130">
        <ele>573.7</ele>
        <time>2020-10-19T14:28:32Z</time>
      </trkpt>
      <trkpt lat="42.8737980" lon="-7.8673100">
        <ele>573.7</ele>
        <time>2020-10-19T14:28:33Z</time>
      </trkpt>
      <trkpt lat="42.8737990" lon="-7.8673090">
        <ele>573.7</ele>
        <time>2020-10-19T14:28:34Z</time>
      </trkpt>
      <trkpt lat="42.8737980" lon="-7.8673080">
        <ele>573.7</ele>
        <time>2020-10-19T14:28:35Z</time>
      </trkpt>
      <trkpt lat="42.8737960" lon="-7.8673050">
        <ele>573.7</ele>
        <time>2020-10-19T14:28:36Z</time>
      </trkpt>
      <trkpt lat="42.8737940" lon="-7.8673020">
        <ele>573.7</ele>
        <time>2020-10-19T14:28:37Z</time>
      </trkpt>
      <trkpt lat="42.8737940" lon="-7.8672990">
        <ele>573.7</ele>
        <time>2020-10-19T14:28:38Z</time>
      </trkpt>
      <trkpt lat="42.8737930" lon="-7.8672970">
        <ele>573.7</ele>
        <time>2020-10-19T14:28:39Z</time>
      </trkpt>
      <trkpt lat="42.8737930" lon="-7.8672970">
        <ele>573.7</ele>
        <time>2020-10-19T14:28:40Z</time>
      </trkpt>
      <trkpt lat="42.8737920" lon="-7.8672980">
        <ele>573.7</ele>
        <time>2020-10-19T14:28:41Z</time>
      </trkpt>
      <trkpt lat="42.8737910" lon="-7.8672970">
        <ele>573.7</ele>
        <time>2020-10-19T14:28:42Z</time>
      </trkpt>
      <trkpt lat="42.8737890" lon="-7.8672990">
        <ele>573.7</ele>
        <time>2020-10-19T14:28:43Z</time>
      </trkpt>
      <trkpt lat="42.8737880" lon="-7.8672990">
        <ele>573.7</ele>
        <time>2020-10-19T14:28:44Z</time>
      </trkpt>
      <trkpt lat="42.8737870" lon="-7.8672940">
        <ele>573.7</ele>
        <time>2020-10-19T14:28:45Z</time>
      </trkpt>
      <trkpt lat="42.8737870" lon="-7.8672870">
        <ele>573.7</ele>
        <time>2020-10-19T14:28:46Z</time>
      </trkpt>
      <trkpt lat="42.8737860" lon="-7.8672800">
        <ele>573.7</ele>
        <time>2020-10-19T14:28:47Z</time>
      </trkpt>
      <trkpt lat="42.8737840" lon="-7.8672820">
        <ele>573.7</ele>
        <time>2020-10-19T14:28:48Z</time>
      </trkpt>
      <trkpt lat="42.8737820" lon="-7.8672850">
        <ele>573.7</ele>
        <time>2020-10-19T14:28:49Z</time>
      </trkpt>
      <trkpt lat="42.8737800" lon="-7.8672880">
        <ele>573.7</ele>
        <time>2020-10-19T14:28:50Z</time>
      </trkpt>
      <trkpt lat="42.8737790" lon="-7.8672890">
        <ele>573.7</ele>
        <time>2020-10-19T14:28:51Z</time>
      </trkpt>
      <trkpt lat="42.8737780" lon="-7.8672890">
        <ele>573.7</ele>
        <time>2020-10-19T14:28:52Z</time>
      </trkpt>
      <trkpt lat="42.8737790" lon="-7.8672870">
        <ele>573.7</ele>
        <time>2020-10-19T14:28:53Z</time>
      </trkpt>
      <trkpt lat="42.8737790" lon="-7.8672850">
        <ele>573.7</ele>
        <time>2020-10-19T14:28:54Z</time>
      </trkpt>
      <trkpt lat="42.8737790" lon="-7.8672840">
        <ele>573.7</ele>
        <time>2020-10-19T14:28:55Z</time>
      </trkpt>
      <trkpt lat="42.8737790" lon="-7.8672840">
        <ele>573.7</ele>
        <time>2020-10-19T14:28:56Z</time>
      </trkpt>
      <trkpt lat="42.8737790" lon="-7.8672850">
        <ele>573.7</ele>
        <time>2020-10-19T14:28:57Z</time>
      </trkpt>
      <trkpt lat="42.8737790" lon="-7.8672860">
        <ele>573.7</ele>
        <time>2020-10-19T14:28:58Z</time>
      </trkpt>
      <trkpt lat="42.8737790" lon="-7.8672860">
        <ele>573.7</ele>
        <time>2020-10-19T14:28:59Z</time>
      </trkpt>
      <trkpt lat="42.8737810" lon="-7.8672880">
        <ele>573.7</ele>
        <time>2020-10-19T14:29:00Z</time>
      </trkpt>
      <trkpt lat="42.8737820" lon="-7.8672910">
        <ele>573.7</ele>
        <time>2020-10-19T14:29:01Z</time>
      </trkpt>
      <trkpt lat="42.8737830" lon="-7.8672960">
        <ele>573.7</ele>
        <time>2020-10-19T14:29:02Z</time>
      </trkpt>
      <trkpt lat="42.8737830" lon="-7.8673010">
        <ele>573.7</ele>
        <time>2020-10-19T14:29:03Z</time>
      </trkpt>
      <trkpt lat="42.8737830" lon="-7.8673060">
        <ele>573.6</ele>
        <time>2020-10-19T14:29:04Z</time>
      </trkpt>
      <trkpt lat="42.8737840" lon="-7.8673120">
        <ele>573.6</ele>
        <time>2020-10-19T14:29:05Z</time>
      </trkpt>
      <trkpt lat="42.8737830" lon="-7.8673180">
        <ele>573.6</ele>
        <time>2020-10-19T14:29:06Z</time>
      </trkpt>
      <trkpt lat="42.8737830" lon="-7.8673250">
        <ele>573.6</ele>
        <time>2020-10-19T14:29:07Z</time>
      </trkpt>
      <trkpt lat="42.8737810" lon="-7.8673290">
        <ele>573.6</ele>
        <time>2020-10-19T14:29:08Z</time>
      </trkpt>
      <trkpt lat="42.8737800" lon="-7.8673340">
        <ele>573.6</ele>
        <time>2020-10-19T14:29:09Z</time>
      </trkpt>
    </trkseg>
  </trk>
</gpx>
